<?xml version="1.0" encoding="UTF-8" standalone="no" ?>
<gpx xmlns="http://www.topografix.com/GPX/1/1" xmlns:xsi="http://www.w3.org/2001/XMLSchema-instance" xsi:schemaLocation="http://www.topografix.com/GPX/1/1 http://www.topografix.com/GPX/1/1/gpx.xsd" version="1.1" creator="VisuGPX - https://www.visugpx.com">
  <metadata>
    <name>Paris-Sète étape 6 partie 2</name>
  </metadata>
  <trk>
    <name><![CDATA[Paris-Sète étape 6 partie 2_1]]></name>
    <trkseg>
      <trkpt lat="46.33768" lon="1.65893">
        <ele>337.6</ele>
        <time>2022-07-09T06:31:57Z</time>
      </trkpt>
      <trkpt lat="46.33768" lon="1.65893">
        <ele>344.6</ele>
        <time>2022-07-09T06:31:58Z</time>
      </trkpt>
      <trkpt lat="46.33766" lon="1.65897">
        <ele>344.8</ele>
        <time>2022-07-09T06:32:33Z</time>
      </trkpt>
      <trkpt lat="46.33765" lon="1.65899">
        <ele>345</ele>
        <time>2022-07-09T06:32:34Z</time>
      </trkpt>
      <trkpt lat="46.33761" lon="1.65909">
        <ele>345</ele>
        <time>2022-07-09T06:32:37Z</time>
      </trkpt>
      <trkpt lat="46.33746" lon="1.65938">
        <ele>345.2</ele>
        <time>2022-07-09T06:32:43Z</time>
      </trkpt>
      <trkpt lat="46.33735" lon="1.65972">
        <ele>345.4</ele>
        <time>2022-07-09T06:32:47Z</time>
      </trkpt>
      <trkpt lat="46.33721" lon="1.66003">
        <ele>345.6</ele>
        <time>2022-07-09T06:32:52Z</time>
      </trkpt>
      <trkpt lat="46.33707" lon="1.66035">
        <ele>345.8</ele>
        <time>2022-07-09T06:32:59Z</time>
      </trkpt>
      <trkpt lat="46.33692" lon="1.66066">
        <ele>346</ele>
        <time>2022-07-09T06:33:06Z</time>
      </trkpt>
      <trkpt lat="46.33691" lon="1.66069">
        <ele>346</ele>
        <time>2022-07-09T06:33:07Z</time>
      </trkpt>
      <trkpt lat="46.33685" lon="1.66091">
        <ele>346.2</ele>
        <time>2022-07-09T06:33:12Z</time>
      </trkpt>
      <trkpt lat="46.33681" lon="1.66115">
        <ele>347</ele>
        <time>2022-07-09T06:33:17Z</time>
      </trkpt>
      <trkpt lat="46.33679" lon="1.66119">
        <ele>347</ele>
        <time>2022-07-09T06:33:18Z</time>
      </trkpt>
      <trkpt lat="46.33671" lon="1.66134">
        <ele>347.4</ele>
        <time>2022-07-09T06:33:22Z</time>
      </trkpt>
      <trkpt lat="46.33655" lon="1.66169">
        <ele>347.4</ele>
        <time>2022-07-09T06:33:29Z</time>
      </trkpt>
      <trkpt lat="46.33634" lon="1.66217">
        <ele>347</ele>
        <time>2022-07-09T06:33:38Z</time>
      </trkpt>
      <trkpt lat="46.33612" lon="1.66275">
        <ele>346.6</ele>
        <time>2022-07-09T06:33:49Z</time>
      </trkpt>
      <trkpt lat="46.33603" lon="1.66299">
        <ele>346.2</ele>
        <time>2022-07-09T06:33:54Z</time>
      </trkpt>
      <trkpt lat="46.33592" lon="1.66337">
        <ele>345.8</ele>
        <time>2022-07-09T06:34:02Z</time>
      </trkpt>
      <trkpt lat="46.33582" lon="1.66355">
        <ele>345.6</ele>
        <time>2022-07-09T06:34:07Z</time>
      </trkpt>
      <trkpt lat="46.33579" lon="1.66355">
        <ele>345.6</ele>
        <time>2022-07-09T06:34:08Z</time>
      </trkpt>
      <trkpt lat="46.33571" lon="1.66352">
        <ele>345.2</ele>
        <time>2022-07-09T06:34:11Z</time>
      </trkpt>
      <trkpt lat="46.33568" lon="1.66352">
        <ele>345.2</ele>
        <time>2022-07-09T06:34:12Z</time>
      </trkpt>
      <trkpt lat="46.33565" lon="1.66352">
        <ele>345.2</ele>
        <time>2022-07-09T06:34:13Z</time>
      </trkpt>
      <trkpt lat="46.33558" lon="1.66358">
        <ele>345.2</ele>
        <time>2022-07-09T06:34:15Z</time>
      </trkpt>
      <trkpt lat="46.33547" lon="1.6638">
        <ele>345.4</ele>
        <time>2022-07-09T06:34:20Z</time>
      </trkpt>
      <trkpt lat="46.33537" lon="1.66396">
        <ele>345.6</ele>
        <time>2022-07-09T06:34:24Z</time>
      </trkpt>
      <trkpt lat="46.33513" lon="1.66437">
        <ele>345.6</ele>
        <time>2022-07-09T06:34:33Z</time>
      </trkpt>
      <trkpt lat="46.33495" lon="1.66466">
        <ele>345.6</ele>
        <time>2022-07-09T06:34:40Z</time>
      </trkpt>
      <trkpt lat="46.33479" lon="1.66486">
        <ele>345.8</ele>
        <time>2022-07-09T06:34:46Z</time>
      </trkpt>
      <trkpt lat="46.33462" lon="1.66506">
        <ele>345.8</ele>
        <time>2022-07-09T06:34:52Z</time>
      </trkpt>
      <trkpt lat="46.33449" lon="1.66528">
        <ele>345.8</ele>
        <time>2022-07-09T06:34:58Z</time>
      </trkpt>
      <trkpt lat="46.33428" lon="1.66549">
        <ele>345.8</ele>
        <time>2022-07-09T06:35:05Z</time>
      </trkpt>
      <trkpt lat="46.33402" lon="1.66576">
        <ele>345.8</ele>
        <time>2022-07-09T06:35:12Z</time>
      </trkpt>
      <trkpt lat="46.33383" lon="1.66594">
        <ele>345.8</ele>
        <time>2022-07-09T06:35:17Z</time>
      </trkpt>
      <trkpt lat="46.33357" lon="1.66615">
        <ele>345.8</ele>
        <time>2022-07-09T06:35:23Z</time>
      </trkpt>
      <trkpt lat="46.33335" lon="1.66636">
        <ele>345.6</ele>
        <time>2022-07-09T06:35:29Z</time>
      </trkpt>
      <trkpt lat="46.33314" lon="1.66652">
        <ele>345.8</ele>
        <time>2022-07-09T06:35:35Z</time>
      </trkpt>
      <trkpt lat="46.33276" lon="1.66676">
        <ele>345.8</ele>
        <time>2022-07-09T06:35:45Z</time>
      </trkpt>
      <trkpt lat="46.3326" lon="1.66683">
        <ele>346</ele>
        <time>2022-07-09T06:35:50Z</time>
      </trkpt>
      <trkpt lat="46.33241" lon="1.66689">
        <ele>345.8</ele>
        <time>2022-07-09T06:35:56Z</time>
      </trkpt>
      <trkpt lat="46.33213" lon="1.66703">
        <ele>345.8</ele>
        <time>2022-07-09T06:36:04Z</time>
      </trkpt>
      <trkpt lat="46.3319" lon="1.66717">
        <ele>346</ele>
        <time>2022-07-09T06:36:09Z</time>
      </trkpt>
      <trkpt lat="46.33161" lon="1.66732">
        <ele>346.2</ele>
        <time>2022-07-09T06:36:15Z</time>
      </trkpt>
      <trkpt lat="46.33144" lon="1.66734">
        <ele>346.8</ele>
        <time>2022-07-09T06:36:20Z</time>
      </trkpt>
      <trkpt lat="46.33116" lon="1.66743">
        <ele>347</ele>
        <time>2022-07-09T06:36:26Z</time>
      </trkpt>
      <trkpt lat="46.3309" lon="1.66747">
        <ele>347.4</ele>
        <time>2022-07-09T06:36:33Z</time>
      </trkpt>
      <trkpt lat="46.33077" lon="1.66751">
        <ele>347.8</ele>
        <time>2022-07-09T06:36:36Z</time>
      </trkpt>
      <trkpt lat="46.33058" lon="1.66759">
        <ele>348.2</ele>
        <time>2022-07-09T06:36:41Z</time>
      </trkpt>
      <trkpt lat="46.3304" lon="1.66756">
        <ele>348.2</ele>
        <time>2022-07-09T06:36:46Z</time>
      </trkpt>
      <trkpt lat="46.3303" lon="1.66757">
        <ele>348.6</ele>
        <time>2022-07-09T06:36:50Z</time>
      </trkpt>
      <trkpt lat="46.33018" lon="1.66757">
        <ele>348.8</ele>
        <time>2022-07-09T06:36:54Z</time>
      </trkpt>
      <trkpt lat="46.33015" lon="1.66757">
        <ele>349</ele>
        <time>2022-07-09T06:36:55Z</time>
      </trkpt>
      <trkpt lat="46.32993" lon="1.66757">
        <ele>349.4</ele>
        <time>2022-07-09T06:37:02Z</time>
      </trkpt>
      <trkpt lat="46.32991" lon="1.66757">
        <ele>349.6</ele>
        <time>2022-07-09T06:37:03Z</time>
      </trkpt>
      <trkpt lat="46.32988" lon="1.66758">
        <ele>349.8</ele>
        <time>2022-07-09T06:37:04Z</time>
      </trkpt>
      <trkpt lat="46.32979" lon="1.66758">
        <ele>350</ele>
        <time>2022-07-09T06:37:07Z</time>
      </trkpt>
      <trkpt lat="46.32958" lon="1.66758">
        <ele>350.2</ele>
        <time>2022-07-09T06:37:14Z</time>
      </trkpt>
      <trkpt lat="46.32953" lon="1.66757">
        <ele>350.4</ele>
        <time>2022-07-09T06:37:16Z</time>
      </trkpt>
      <trkpt lat="46.3294" lon="1.66756">
        <ele>350.6</ele>
        <time>2022-07-09T06:37:19Z</time>
      </trkpt>
      <trkpt lat="46.32935" lon="1.66754">
        <ele>350.8</ele>
        <time>2022-07-09T06:37:21Z</time>
      </trkpt>
      <trkpt lat="46.32915" lon="1.66752">
        <ele>351.2</ele>
        <time>2022-07-09T06:37:26Z</time>
      </trkpt>
      <trkpt lat="46.32896" lon="1.66748">
        <ele>351.4</ele>
        <time>2022-07-09T06:37:31Z</time>
      </trkpt>
      <trkpt lat="46.32882" lon="1.66749">
        <ele>351.8</ele>
        <time>2022-07-09T06:37:35Z</time>
      </trkpt>
      <trkpt lat="46.32879" lon="1.66748">
        <ele>352</ele>
        <time>2022-07-09T06:37:36Z</time>
      </trkpt>
      <trkpt lat="46.32877" lon="1.66745">
        <ele>352</ele>
        <time>2022-07-09T06:37:37Z</time>
      </trkpt>
      <trkpt lat="46.32855" lon="1.66738">
        <ele>352.6</ele>
        <time>2022-07-09T06:37:45Z</time>
      </trkpt>
      <trkpt lat="46.32832" lon="1.66731">
        <ele>353.2</ele>
        <time>2022-07-09T06:37:51Z</time>
      </trkpt>
      <trkpt lat="46.32825" lon="1.66728">
        <ele>353.2</ele>
        <time>2022-07-09T06:37:53Z</time>
      </trkpt>
      <trkpt lat="46.32796" lon="1.66718">
        <ele>353.8</ele>
        <time>2022-07-09T06:38:00Z</time>
      </trkpt>
      <trkpt lat="46.32782" lon="1.6671">
        <ele>354</ele>
        <time>2022-07-09T06:38:06Z</time>
      </trkpt>
      <trkpt lat="46.32779" lon="1.66707">
        <ele>354.2</ele>
        <time>2022-07-09T06:38:07Z</time>
      </trkpt>
      <trkpt lat="46.3276" lon="1.66696">
        <ele>354.6</ele>
        <time>2022-07-09T06:38:14Z</time>
      </trkpt>
      <trkpt lat="46.32747" lon="1.6669">
        <ele>355</ele>
        <time>2022-07-09T06:38:19Z</time>
      </trkpt>
      <trkpt lat="46.32741" lon="1.66685">
        <ele>355.2</ele>
        <time>2022-07-09T06:38:21Z</time>
      </trkpt>
      <trkpt lat="46.32725" lon="1.66677">
        <ele>355.6</ele>
        <time>2022-07-09T06:38:26Z</time>
      </trkpt>
      <trkpt lat="46.32707" lon="1.66664">
        <ele>356</ele>
        <time>2022-07-09T06:38:31Z</time>
      </trkpt>
      <trkpt lat="46.32702" lon="1.66664">
        <ele>356.2</ele>
        <time>2022-07-09T06:38:32Z</time>
      </trkpt>
      <trkpt lat="46.32685" lon="1.66656">
        <ele>356.6</ele>
        <time>2022-07-09T06:38:38Z</time>
      </trkpt>
      <trkpt lat="46.32682" lon="1.66653">
        <ele>356.6</ele>
        <time>2022-07-09T06:38:39Z</time>
      </trkpt>
      <trkpt lat="46.3267" lon="1.66646">
        <ele>356.8</ele>
        <time>2022-07-09T06:38:43Z</time>
      </trkpt>
      <trkpt lat="46.32652" lon="1.66637">
        <ele>357.2</ele>
        <time>2022-07-09T06:38:49Z</time>
      </trkpt>
      <trkpt lat="46.32649" lon="1.66635">
        <ele>357.2</ele>
        <time>2022-07-09T06:38:50Z</time>
      </trkpt>
      <trkpt lat="46.32639" lon="1.66631">
        <ele>357.4</ele>
        <time>2022-07-09T06:38:53Z</time>
      </trkpt>
      <trkpt lat="46.32627" lon="1.66625">
        <ele>358</ele>
        <time>2022-07-09T06:38:57Z</time>
      </trkpt>
      <trkpt lat="46.32622" lon="1.6662">
        <ele>358</ele>
        <time>2022-07-09T06:38:59Z</time>
      </trkpt>
      <trkpt lat="46.32616" lon="1.66617">
        <ele>358.2</ele>
        <time>2022-07-09T06:39:01Z</time>
      </trkpt>
      <trkpt lat="46.32599" lon="1.66611">
        <ele>358.4</ele>
        <time>2022-07-09T06:39:06Z</time>
      </trkpt>
      <trkpt lat="46.32581" lon="1.666">
        <ele>359.2</ele>
        <time>2022-07-09T06:39:11Z</time>
      </trkpt>
      <trkpt lat="46.32558" lon="1.66586">
        <ele>359.4</ele>
        <time>2022-07-09T06:39:18Z</time>
      </trkpt>
      <trkpt lat="46.32548" lon="1.6658">
        <ele>359.6</ele>
        <time>2022-07-09T06:39:22Z</time>
      </trkpt>
      <trkpt lat="46.32546" lon="1.6658">
        <ele>359.8</ele>
        <time>2022-07-09T06:39:23Z</time>
      </trkpt>
      <trkpt lat="46.3254" lon="1.66575">
        <ele>360</ele>
        <time>2022-07-09T06:39:25Z</time>
      </trkpt>
      <trkpt lat="46.32533" lon="1.66571">
        <ele>360</ele>
        <time>2022-07-09T06:39:27Z</time>
      </trkpt>
      <trkpt lat="46.32522" lon="1.66569">
        <ele>360.4</ele>
        <time>2022-07-09T06:39:30Z</time>
      </trkpt>
      <trkpt lat="46.32501" lon="1.6656">
        <ele>360.6</ele>
        <time>2022-07-09T06:39:36Z</time>
      </trkpt>
      <trkpt lat="46.32495" lon="1.66561">
        <ele>360.6</ele>
        <time>2022-07-09T06:39:38Z</time>
      </trkpt>
      <trkpt lat="46.32489" lon="1.66557">
        <ele>361</ele>
        <time>2022-07-09T06:39:40Z</time>
      </trkpt>
      <trkpt lat="46.32486" lon="1.66556">
        <ele>361</ele>
        <time>2022-07-09T06:39:41Z</time>
      </trkpt>
      <trkpt lat="46.32481" lon="1.66555">
        <ele>361.2</ele>
        <time>2022-07-09T06:39:43Z</time>
      </trkpt>
      <trkpt lat="46.32459" lon="1.66544">
        <ele>361.6</ele>
        <time>2022-07-09T06:39:50Z</time>
      </trkpt>
      <trkpt lat="46.32443" lon="1.66534">
        <ele>362</ele>
        <time>2022-07-09T06:39:55Z</time>
      </trkpt>
      <trkpt lat="46.32434" lon="1.66527">
        <ele>362.2</ele>
        <time>2022-07-09T06:39:58Z</time>
      </trkpt>
      <trkpt lat="46.3242" lon="1.66527">
        <ele>362.6</ele>
        <time>2022-07-09T06:40:03Z</time>
      </trkpt>
      <trkpt lat="46.324" lon="1.66515">
        <ele>362.8</ele>
        <time>2022-07-09T06:40:09Z</time>
      </trkpt>
      <trkpt lat="46.32373" lon="1.66497">
        <ele>363.2</ele>
        <time>2022-07-09T06:40:17Z</time>
      </trkpt>
      <trkpt lat="46.32371" lon="1.66496">
        <ele>363.2</ele>
        <time>2022-07-09T06:40:18Z</time>
      </trkpt>
      <trkpt lat="46.32356" lon="1.66485">
        <ele>363.6</ele>
        <time>2022-07-09T06:40:23Z</time>
      </trkpt>
      <trkpt lat="46.32333" lon="1.66473">
        <ele>364.2</ele>
        <time>2022-07-09T06:40:30Z</time>
      </trkpt>
      <trkpt lat="46.32331" lon="1.66473">
        <ele>364.4</ele>
        <time>2022-07-09T06:40:31Z</time>
      </trkpt>
      <trkpt lat="46.32311" lon="1.66463">
        <ele>365</ele>
        <time>2022-07-09T06:40:38Z</time>
      </trkpt>
      <trkpt lat="46.32289" lon="1.66453">
        <ele>365.2</ele>
        <time>2022-07-09T06:40:45Z</time>
      </trkpt>
      <trkpt lat="46.32283" lon="1.66452">
        <ele>365.4</ele>
        <time>2022-07-09T06:40:47Z</time>
      </trkpt>
      <trkpt lat="46.32264" lon="1.66444">
        <ele>365.8</ele>
        <time>2022-07-09T06:40:52Z</time>
      </trkpt>
      <trkpt lat="46.32246" lon="1.66438">
        <ele>366.4</ele>
        <time>2022-07-09T06:40:57Z</time>
      </trkpt>
      <trkpt lat="46.32236" lon="1.66434">
        <ele>366.6</ele>
        <time>2022-07-09T06:41:00Z</time>
      </trkpt>
      <trkpt lat="46.32227" lon="1.66432">
        <ele>366.8</ele>
        <time>2022-07-09T06:41:03Z</time>
      </trkpt>
      <trkpt lat="46.32205" lon="1.66424">
        <ele>367.2</ele>
        <time>2022-07-09T06:41:10Z</time>
      </trkpt>
      <trkpt lat="46.32183" lon="1.66421">
        <ele>367.6</ele>
        <time>2022-07-09T06:41:16Z</time>
      </trkpt>
      <trkpt lat="46.32179" lon="1.66419">
        <ele>367.8</ele>
        <time>2022-07-09T06:41:17Z</time>
      </trkpt>
      <trkpt lat="46.32149" lon="1.66413">
        <ele>368.2</ele>
        <time>2022-07-09T06:41:25Z</time>
      </trkpt>
      <trkpt lat="46.32131" lon="1.66411">
        <ele>368.6</ele>
        <time>2022-07-09T06:41:31Z</time>
      </trkpt>
      <trkpt lat="46.32127" lon="1.6641">
        <ele>368.6</ele>
        <time>2022-07-09T06:41:32Z</time>
      </trkpt>
      <trkpt lat="46.32093" lon="1.66401">
        <ele>369.6</ele>
        <time>2022-07-09T06:41:42Z</time>
      </trkpt>
      <trkpt lat="46.32091" lon="1.664">
        <ele>369.8</ele>
        <time>2022-07-09T06:41:43Z</time>
      </trkpt>
      <trkpt lat="46.32083" lon="1.66389">
        <ele>370.2</ele>
        <time>2022-07-09T06:41:47Z</time>
      </trkpt>
      <trkpt lat="46.3208" lon="1.66384">
        <ele>370.2</ele>
        <time>2022-07-09T06:41:48Z</time>
      </trkpt>
      <trkpt lat="46.32067" lon="1.66374">
        <ele>370.4</ele>
        <time>2022-07-09T06:41:51Z</time>
      </trkpt>
      <trkpt lat="46.32048" lon="1.6637">
        <ele>370.4</ele>
        <time>2022-07-09T06:41:56Z</time>
      </trkpt>
      <trkpt lat="46.32033" lon="1.66358">
        <ele>370.2</ele>
        <time>2022-07-09T06:42:01Z</time>
      </trkpt>
      <trkpt lat="46.32022" lon="1.66349">
        <ele>370.4</ele>
        <time>2022-07-09T06:42:06Z</time>
      </trkpt>
      <trkpt lat="46.32011" lon="1.66344">
        <ele>370.8</ele>
        <time>2022-07-09T06:42:11Z</time>
      </trkpt>
      <trkpt lat="46.32006" lon="1.66346">
        <ele>371</ele>
        <time>2022-07-09T06:42:14Z</time>
      </trkpt>
      <trkpt lat="46.32002" lon="1.66347">
        <ele>371</ele>
        <time>2022-07-09T06:42:16Z</time>
      </trkpt>
      <trkpt lat="46.32" lon="1.66347">
        <ele>371</ele>
        <time>2022-07-09T06:42:17Z</time>
      </trkpt>
      <trkpt lat="46.32" lon="1.66347">
        <ele>371</ele>
        <time>2022-07-09T06:42:19Z</time>
      </trkpt>
      <trkpt lat="46.31999" lon="1.66345">
        <ele>371</ele>
        <time>2022-07-09T06:42:29Z</time>
      </trkpt>
      <trkpt lat="46.31998" lon="1.66343">
        <ele>371</ele>
        <time>2022-07-09T06:42:30Z</time>
      </trkpt>
      <trkpt lat="46.31997" lon="1.66332">
        <ele>371</ele>
        <time>2022-07-09T06:42:34Z</time>
      </trkpt>
      <trkpt lat="46.31996" lon="1.66319">
        <ele>370.8</ele>
        <time>2022-07-09T06:42:39Z</time>
      </trkpt>
      <trkpt lat="46.31996" lon="1.66314">
        <ele>370.6</ele>
        <time>2022-07-09T06:42:41Z</time>
      </trkpt>
      <trkpt lat="46.31995" lon="1.66306">
        <ele>370</ele>
        <time>2022-07-09T06:42:45Z</time>
      </trkpt>
      <trkpt lat="46.31994" lon="1.66306">
        <ele>370</ele>
        <time>2022-07-09T06:42:46Z</time>
      </trkpt>
      <trkpt lat="46.31994" lon="1.66306">
        <ele>369.8</ele>
        <time>2022-07-09T06:42:47Z</time>
      </trkpt>
      <trkpt lat="46.31994" lon="1.66306">
        <ele>369</ele>
        <time>2022-07-09T06:44:23Z</time>
      </trkpt>
      <trkpt lat="46.31994" lon="1.66306">
        <ele>368.8</ele>
        <time>2022-07-09T06:44:25Z</time>
      </trkpt>
      <trkpt lat="46.31992" lon="1.66305">
        <ele>370</ele>
        <time>2022-07-09T06:44:59Z</time>
      </trkpt>
      <trkpt lat="46.31993" lon="1.66307">
        <ele>370</ele>
        <time>2022-07-09T06:45:00Z</time>
      </trkpt>
      <trkpt lat="46.31995" lon="1.66313">
        <ele>370</ele>
        <time>2022-07-09T06:45:03Z</time>
      </trkpt>
      <trkpt lat="46.31995" lon="1.66317">
        <ele>370</ele>
        <time>2022-07-09T06:45:05Z</time>
      </trkpt>
      <trkpt lat="46.31996" lon="1.66332">
        <ele>370.2</ele>
        <time>2022-07-09T06:45:10Z</time>
      </trkpt>
      <trkpt lat="46.31997" lon="1.66338">
        <ele>370.4</ele>
        <time>2022-07-09T06:45:12Z</time>
      </trkpt>
      <trkpt lat="46.31996" lon="1.66345">
        <ele>371</ele>
        <time>2022-07-09T06:45:15Z</time>
      </trkpt>
      <trkpt lat="46.31995" lon="1.6635">
        <ele>371</ele>
        <time>2022-07-09T06:45:17Z</time>
      </trkpt>
      <trkpt lat="46.31994" lon="1.66353">
        <ele>371.2</ele>
        <time>2022-07-09T06:45:18Z</time>
      </trkpt>
      <trkpt lat="46.31994" lon="1.66358">
        <ele>371.2</ele>
        <time>2022-07-09T06:45:20Z</time>
      </trkpt>
      <trkpt lat="46.31985" lon="1.66375">
        <ele>372.2</ele>
        <time>2022-07-09T06:45:27Z</time>
      </trkpt>
      <trkpt lat="46.3197" lon="1.66374">
        <ele>372.6</ele>
        <time>2022-07-09T06:45:33Z</time>
      </trkpt>
      <trkpt lat="46.3195" lon="1.66367">
        <ele>373</ele>
        <time>2022-07-09T06:45:40Z</time>
      </trkpt>
      <trkpt lat="46.31939" lon="1.66364">
        <ele>373.2</ele>
        <time>2022-07-09T06:45:44Z</time>
      </trkpt>
      <trkpt lat="46.31935" lon="1.66362">
        <ele>373.2</ele>
        <time>2022-07-09T06:45:46Z</time>
      </trkpt>
      <trkpt lat="46.31918" lon="1.66358">
        <ele>373.6</ele>
        <time>2022-07-09T06:45:52Z</time>
      </trkpt>
      <trkpt lat="46.31891" lon="1.66353">
        <ele>374.2</ele>
        <time>2022-07-09T06:46:00Z</time>
      </trkpt>
      <trkpt lat="46.31888" lon="1.66352">
        <ele>374.2</ele>
        <time>2022-07-09T06:46:01Z</time>
      </trkpt>
      <trkpt lat="46.31865" lon="1.66349">
        <ele>375</ele>
        <time>2022-07-09T06:46:08Z</time>
      </trkpt>
      <trkpt lat="46.31846" lon="1.66345">
        <ele>375.2</ele>
        <time>2022-07-09T06:46:14Z</time>
      </trkpt>
      <trkpt lat="46.31835" lon="1.66342">
        <ele>375.4</ele>
        <time>2022-07-09T06:46:18Z</time>
      </trkpt>
      <trkpt lat="46.31818" lon="1.66334">
        <ele>375.4</ele>
        <time>2022-07-09T06:46:23Z</time>
      </trkpt>
      <trkpt lat="46.31812" lon="1.66332">
        <ele>375.4</ele>
        <time>2022-07-09T06:46:25Z</time>
      </trkpt>
      <trkpt lat="46.3179" lon="1.66326">
        <ele>375.6</ele>
        <time>2022-07-09T06:46:32Z</time>
      </trkpt>
      <trkpt lat="46.31772" lon="1.66323">
        <ele>375.8</ele>
        <time>2022-07-09T06:46:38Z</time>
      </trkpt>
      <trkpt lat="46.31745" lon="1.66321">
        <ele>376.2</ele>
        <time>2022-07-09T06:46:45Z</time>
      </trkpt>
      <trkpt lat="46.31721" lon="1.66318">
        <ele>376.4</ele>
        <time>2022-07-09T06:46:51Z</time>
      </trkpt>
      <trkpt lat="46.31693" lon="1.6631">
        <ele>376.4</ele>
        <time>2022-07-09T06:46:58Z</time>
      </trkpt>
      <trkpt lat="46.31659" lon="1.66301">
        <ele>376.6</ele>
        <time>2022-07-09T06:47:07Z</time>
      </trkpt>
      <trkpt lat="46.31644" lon="1.66297">
        <ele>376.4</ele>
        <time>2022-07-09T06:47:12Z</time>
      </trkpt>
      <trkpt lat="46.31622" lon="1.66293">
        <ele>376.2</ele>
        <time>2022-07-09T06:47:18Z</time>
      </trkpt>
      <trkpt lat="46.31598" lon="1.66285">
        <ele>376.2</ele>
        <time>2022-07-09T06:47:23Z</time>
      </trkpt>
      <trkpt lat="46.31575" lon="1.66278">
        <ele>376</ele>
        <time>2022-07-09T06:47:28Z</time>
      </trkpt>
      <trkpt lat="46.31571" lon="1.66277">
        <ele>375.8</ele>
        <time>2022-07-09T06:47:29Z</time>
      </trkpt>
      <trkpt lat="46.31552" lon="1.66273">
        <ele>375.4</ele>
        <time>2022-07-09T06:47:33Z</time>
      </trkpt>
      <trkpt lat="46.31541" lon="1.66272">
        <ele>375.2</ele>
        <time>2022-07-09T06:47:35Z</time>
      </trkpt>
      <trkpt lat="46.31504" lon="1.66265">
        <ele>374.8</ele>
        <time>2022-07-09T06:47:42Z</time>
      </trkpt>
      <trkpt lat="46.31452" lon="1.66259">
        <ele>374.4</ele>
        <time>2022-07-09T06:47:51Z</time>
      </trkpt>
      <trkpt lat="46.31446" lon="1.66256">
        <ele>374.2</ele>
        <time>2022-07-09T06:47:52Z</time>
      </trkpt>
      <trkpt lat="46.31433" lon="1.66258">
        <ele>374</ele>
        <time>2022-07-09T06:47:55Z</time>
      </trkpt>
      <trkpt lat="46.3143" lon="1.66259">
        <ele>374</ele>
        <time>2022-07-09T06:47:56Z</time>
      </trkpt>
      <trkpt lat="46.31415" lon="1.6626">
        <ele>374</ele>
        <time>2022-07-09T06:47:59Z</time>
      </trkpt>
      <trkpt lat="46.31382" lon="1.66264">
        <ele>373.8</ele>
        <time>2022-07-09T06:48:06Z</time>
      </trkpt>
      <trkpt lat="46.31348" lon="1.66273">
        <ele>373.6</ele>
        <time>2022-07-09T06:48:13Z</time>
      </trkpt>
      <trkpt lat="46.31337" lon="1.66275">
        <ele>373.4</ele>
        <time>2022-07-09T06:48:15Z</time>
      </trkpt>
      <trkpt lat="46.31304" lon="1.66284">
        <ele>373.2</ele>
        <time>2022-07-09T06:48:21Z</time>
      </trkpt>
      <trkpt lat="46.31269" lon="1.66299">
        <ele>373</ele>
        <time>2022-07-09T06:48:28Z</time>
      </trkpt>
      <trkpt lat="46.3123" lon="1.66324">
        <ele>372.8</ele>
        <time>2022-07-09T06:48:36Z</time>
      </trkpt>
      <trkpt lat="46.31182" lon="1.66362">
        <ele>372.8</ele>
        <time>2022-07-09T06:48:47Z</time>
      </trkpt>
      <trkpt lat="46.31151" lon="1.66396">
        <ele>373</ele>
        <time>2022-07-09T06:48:55Z</time>
      </trkpt>
      <trkpt lat="46.31116" lon="1.66441">
        <ele>373</ele>
        <time>2022-07-09T06:49:05Z</time>
      </trkpt>
      <trkpt lat="46.31082" lon="1.66496">
        <ele>373</ele>
        <time>2022-07-09T06:49:16Z</time>
      </trkpt>
      <trkpt lat="46.31058" lon="1.66534">
        <ele>373.2</ele>
        <time>2022-07-09T06:49:24Z</time>
      </trkpt>
      <trkpt lat="46.31055" lon="1.66538">
        <ele>373.2</ele>
        <time>2022-07-09T06:49:25Z</time>
      </trkpt>
      <trkpt lat="46.31047" lon="1.66546">
        <ele>373</ele>
        <time>2022-07-09T06:49:29Z</time>
      </trkpt>
      <trkpt lat="46.31037" lon="1.66559">
        <ele>373</ele>
        <time>2022-07-09T06:49:33Z</time>
      </trkpt>
      <trkpt lat="46.31034" lon="1.66564">
        <ele>373</ele>
        <time>2022-07-09T06:49:34Z</time>
      </trkpt>
      <trkpt lat="46.31023" lon="1.66586">
        <ele>373</ele>
        <time>2022-07-09T06:49:38Z</time>
      </trkpt>
      <trkpt lat="46.31005" lon="1.66618">
        <ele>373.4</ele>
        <time>2022-07-09T06:49:44Z</time>
      </trkpt>
      <trkpt lat="46.30983" lon="1.66654">
        <ele>373.4</ele>
        <time>2022-07-09T06:49:51Z</time>
      </trkpt>
      <trkpt lat="46.30957" lon="1.66702">
        <ele>373.6</ele>
        <time>2022-07-09T06:50:00Z</time>
      </trkpt>
      <trkpt lat="46.30931" lon="1.66743">
        <ele>373.6</ele>
        <time>2022-07-09T06:50:08Z</time>
      </trkpt>
      <trkpt lat="46.30929" lon="1.66749">
        <ele>373.6</ele>
        <time>2022-07-09T06:50:09Z</time>
      </trkpt>
      <trkpt lat="46.3089" lon="1.66812">
        <ele>373.4</ele>
        <time>2022-07-09T06:50:21Z</time>
      </trkpt>
      <trkpt lat="46.30887" lon="1.66817">
        <ele>373.4</ele>
        <time>2022-07-09T06:50:22Z</time>
      </trkpt>
      <trkpt lat="46.30865" lon="1.66854">
        <ele>373.4</ele>
        <time>2022-07-09T06:50:29Z</time>
      </trkpt>
      <trkpt lat="46.30832" lon="1.6691">
        <ele>373.6</ele>
        <time>2022-07-09T06:50:40Z</time>
      </trkpt>
      <trkpt lat="46.30822" lon="1.66929">
        <ele>373.6</ele>
        <time>2022-07-09T06:50:44Z</time>
      </trkpt>
      <trkpt lat="46.30817" lon="1.66937">
        <ele>373.6</ele>
        <time>2022-07-09T06:50:46Z</time>
      </trkpt>
      <trkpt lat="46.30816" lon="1.6694">
        <ele>373.6</ele>
        <time>2022-07-09T06:50:47Z</time>
      </trkpt>
      <trkpt lat="46.3081" lon="1.66946">
        <ele>373.6</ele>
        <time>2022-07-09T06:50:50Z</time>
      </trkpt>
      <trkpt lat="46.30807" lon="1.66953">
        <ele>373.6</ele>
        <time>2022-07-09T06:50:52Z</time>
      </trkpt>
      <trkpt lat="46.30808" lon="1.66963">
        <ele>373.6</ele>
        <time>2022-07-09T06:50:54Z</time>
      </trkpt>
      <trkpt lat="46.3081" lon="1.66967">
        <ele>373.4</ele>
        <time>2022-07-09T06:50:55Z</time>
      </trkpt>
      <trkpt lat="46.30819" lon="1.6698">
        <ele>373.4</ele>
        <time>2022-07-09T06:50:58Z</time>
      </trkpt>
      <trkpt lat="46.30819" lon="1.66984">
        <ele>373.4</ele>
        <time>2022-07-09T06:50:59Z</time>
      </trkpt>
      <trkpt lat="46.30818" lon="1.66988">
        <ele>373.6</ele>
        <time>2022-07-09T06:51:00Z</time>
      </trkpt>
      <trkpt lat="46.30805" lon="1.67007">
        <ele>374</ele>
        <time>2022-07-09T06:51:05Z</time>
      </trkpt>
      <trkpt lat="46.30791" lon="1.67024">
        <ele>374.6</ele>
        <time>2022-07-09T06:51:11Z</time>
      </trkpt>
      <trkpt lat="46.30778" lon="1.6704">
        <ele>375</ele>
        <time>2022-07-09T06:51:16Z</time>
      </trkpt>
      <trkpt lat="46.30771" lon="1.6705">
        <ele>375.4</ele>
        <time>2022-07-09T06:51:19Z</time>
      </trkpt>
      <trkpt lat="46.30756" lon="1.67076">
        <ele>376</ele>
        <time>2022-07-09T06:51:26Z</time>
      </trkpt>
      <trkpt lat="46.30751" lon="1.67083">
        <ele>376.2</ele>
        <time>2022-07-09T06:51:28Z</time>
      </trkpt>
      <trkpt lat="46.30741" lon="1.67101">
        <ele>376.6</ele>
        <time>2022-07-09T06:51:33Z</time>
      </trkpt>
      <trkpt lat="46.30727" lon="1.67125">
        <ele>377.4</ele>
        <time>2022-07-09T06:51:39Z</time>
      </trkpt>
      <trkpt lat="46.30725" lon="1.67129">
        <ele>377.4</ele>
        <time>2022-07-09T06:51:40Z</time>
      </trkpt>
      <trkpt lat="46.30708" lon="1.67165">
        <ele>378.6</ele>
        <time>2022-07-09T06:51:49Z</time>
      </trkpt>
      <trkpt lat="46.30694" lon="1.67195">
        <ele>379.6</ele>
        <time>2022-07-09T06:51:57Z</time>
      </trkpt>
      <trkpt lat="46.30692" lon="1.67198">
        <ele>379.6</ele>
        <time>2022-07-09T06:51:58Z</time>
      </trkpt>
      <trkpt lat="46.30673" lon="1.67233">
        <ele>380.2</ele>
        <time>2022-07-09T06:52:07Z</time>
      </trkpt>
      <trkpt lat="46.30656" lon="1.67238">
        <ele>380.4</ele>
        <time>2022-07-09T06:52:12Z</time>
      </trkpt>
      <trkpt lat="46.30641" lon="1.67234">
        <ele>380.4</ele>
        <time>2022-07-09T06:52:18Z</time>
      </trkpt>
      <trkpt lat="46.30629" lon="1.67231">
        <ele>380.4</ele>
        <time>2022-07-09T06:52:24Z</time>
      </trkpt>
      <trkpt lat="46.30614" lon="1.67244">
        <ele>380.6</ele>
        <time>2022-07-09T06:52:31Z</time>
      </trkpt>
      <trkpt lat="46.3061" lon="1.67248">
        <ele>380.8</ele>
        <time>2022-07-09T06:52:33Z</time>
      </trkpt>
      <trkpt lat="46.30593" lon="1.67264">
        <ele>381.2</ele>
        <time>2022-07-09T06:52:40Z</time>
      </trkpt>
      <trkpt lat="46.30584" lon="1.67273">
        <ele>381</ele>
        <time>2022-07-09T06:52:46Z</time>
      </trkpt>
      <trkpt lat="46.30584" lon="1.67273">
        <ele>381</ele>
        <time>2022-07-09T06:52:47Z</time>
      </trkpt>
      <trkpt lat="46.30582" lon="1.67274">
        <ele>380.8</ele>
        <time>2022-07-09T06:53:37Z</time>
      </trkpt>
      <trkpt lat="46.30576" lon="1.67279">
        <ele>380.8</ele>
        <time>2022-07-09T06:53:40Z</time>
      </trkpt>
      <trkpt lat="46.30554" lon="1.67294">
        <ele>380.6</ele>
        <time>2022-07-09T06:53:47Z</time>
      </trkpt>
      <trkpt lat="46.30551" lon="1.67298">
        <ele>380.4</ele>
        <time>2022-07-09T06:53:49Z</time>
      </trkpt>
      <trkpt lat="46.30549" lon="1.67298">
        <ele>380.2</ele>
        <time>2022-07-09T06:53:50Z</time>
      </trkpt>
      <trkpt lat="46.30549" lon="1.67296">
        <ele>380</ele>
        <time>2022-07-09T06:53:53Z</time>
      </trkpt>
      <trkpt lat="46.30549" lon="1.67297">
        <ele>380</ele>
        <time>2022-07-09T06:53:54Z</time>
      </trkpt>
      <trkpt lat="46.3055" lon="1.67297">
        <ele>379.8</ele>
        <time>2022-07-09T06:53:56Z</time>
      </trkpt>
      <trkpt lat="46.30552" lon="1.67296">
        <ele>379.8</ele>
        <time>2022-07-09T06:53:58Z</time>
      </trkpt>
      <trkpt lat="46.30552" lon="1.67293">
        <ele>379.8</ele>
        <time>2022-07-09T06:54:00Z</time>
      </trkpt>
      <trkpt lat="46.30548" lon="1.6729">
        <ele>379.8</ele>
        <time>2022-07-09T06:54:03Z</time>
      </trkpt>
      <trkpt lat="46.30543" lon="1.67293">
        <ele>379.8</ele>
        <time>2022-07-09T06:54:05Z</time>
      </trkpt>
      <trkpt lat="46.30524" lon="1.67295">
        <ele>379.4</ele>
        <time>2022-07-09T06:54:11Z</time>
      </trkpt>
      <trkpt lat="46.30503" lon="1.67289">
        <ele>379.2</ele>
        <time>2022-07-09T06:54:17Z</time>
      </trkpt>
      <trkpt lat="46.3049" lon="1.673">
        <ele>378.8</ele>
        <time>2022-07-09T06:54:21Z</time>
      </trkpt>
      <trkpt lat="46.30482" lon="1.67308">
        <ele>378.6</ele>
        <time>2022-07-09T06:54:23Z</time>
      </trkpt>
      <trkpt lat="46.30464" lon="1.67324">
        <ele>377.8</ele>
        <time>2022-07-09T06:54:27Z</time>
      </trkpt>
      <trkpt lat="46.30449" lon="1.67337">
        <ele>377.2</ele>
        <time>2022-07-09T06:54:30Z</time>
      </trkpt>
      <trkpt lat="46.3044" lon="1.67346">
        <ele>376.6</ele>
        <time>2022-07-09T06:54:32Z</time>
      </trkpt>
      <trkpt lat="46.30418" lon="1.67366">
        <ele>375.8</ele>
        <time>2022-07-09T06:54:37Z</time>
      </trkpt>
      <trkpt lat="46.30397" lon="1.67383">
        <ele>375.4</ele>
        <time>2022-07-09T06:54:43Z</time>
      </trkpt>
      <trkpt lat="46.30387" lon="1.67396">
        <ele>374.8</ele>
        <time>2022-07-09T06:54:48Z</time>
      </trkpt>
      <trkpt lat="46.30372" lon="1.67407">
        <ele>374.4</ele>
        <time>2022-07-09T06:54:53Z</time>
      </trkpt>
      <trkpt lat="46.30352" lon="1.67423">
        <ele>374.4</ele>
        <time>2022-07-09T06:54:59Z</time>
      </trkpt>
      <trkpt lat="46.30333" lon="1.6744">
        <ele>374.6</ele>
        <time>2022-07-09T06:55:05Z</time>
      </trkpt>
      <trkpt lat="46.30313" lon="1.67455">
        <ele>374.4</ele>
        <time>2022-07-09T06:55:10Z</time>
      </trkpt>
      <trkpt lat="46.30298" lon="1.67468">
        <ele>374.4</ele>
        <time>2022-07-09T06:55:14Z</time>
      </trkpt>
      <trkpt lat="46.30282" lon="1.67477">
        <ele>374.4</ele>
        <time>2022-07-09T06:55:20Z</time>
      </trkpt>
      <trkpt lat="46.30276" lon="1.67485">
        <ele>374.4</ele>
        <time>2022-07-09T06:55:22Z</time>
      </trkpt>
      <trkpt lat="46.30267" lon="1.67491">
        <ele>374.4</ele>
        <time>2022-07-09T06:55:25Z</time>
      </trkpt>
      <trkpt lat="46.30248" lon="1.67501">
        <ele>374.2</ele>
        <time>2022-07-09T06:55:30Z</time>
      </trkpt>
      <trkpt lat="46.30235" lon="1.67512">
        <ele>374.2</ele>
        <time>2022-07-09T06:55:35Z</time>
      </trkpt>
      <trkpt lat="46.30218" lon="1.6753">
        <ele>374.4</ele>
        <time>2022-07-09T06:55:42Z</time>
      </trkpt>
      <trkpt lat="46.302" lon="1.67544">
        <ele>374.4</ele>
        <time>2022-07-09T06:55:47Z</time>
      </trkpt>
      <trkpt lat="46.30183" lon="1.67555">
        <ele>374.4</ele>
        <time>2022-07-09T06:55:52Z</time>
      </trkpt>
      <trkpt lat="46.30173" lon="1.67562">
        <ele>374.4</ele>
        <time>2022-07-09T06:55:55Z</time>
      </trkpt>
      <trkpt lat="46.3016" lon="1.67568">
        <ele>374.4</ele>
        <time>2022-07-09T06:55:59Z</time>
      </trkpt>
      <trkpt lat="46.30157" lon="1.67566">
        <ele>374.4</ele>
        <time>2022-07-09T06:56:00Z</time>
      </trkpt>
      <trkpt lat="46.30154" lon="1.67562">
        <ele>374.4</ele>
        <time>2022-07-09T06:56:02Z</time>
      </trkpt>
      <trkpt lat="46.30144" lon="1.67546">
        <ele>374.4</ele>
        <time>2022-07-09T06:56:07Z</time>
      </trkpt>
      <trkpt lat="46.30145" lon="1.67542">
        <ele>374.4</ele>
        <time>2022-07-09T06:56:08Z</time>
      </trkpt>
      <trkpt lat="46.30156" lon="1.67517">
        <ele>374.4</ele>
        <time>2022-07-09T06:56:15Z</time>
      </trkpt>
      <trkpt lat="46.30166" lon="1.67493">
        <ele>374.4</ele>
        <time>2022-07-09T06:56:23Z</time>
      </trkpt>
      <trkpt lat="46.30168" lon="1.67488">
        <ele>374.4</ele>
        <time>2022-07-09T06:56:28Z</time>
      </trkpt>
      <trkpt lat="46.30169" lon="1.67486">
        <ele>374.2</ele>
        <time>2022-07-09T06:57:48Z</time>
      </trkpt>
      <trkpt lat="46.30174" lon="1.67482">
        <ele>374.2</ele>
        <time>2022-07-09T06:57:51Z</time>
      </trkpt>
      <trkpt lat="46.30176" lon="1.67478">
        <ele>374.2</ele>
        <time>2022-07-09T06:57:53Z</time>
      </trkpt>
      <trkpt lat="46.30172" lon="1.67471">
        <ele>374.4</ele>
        <time>2022-07-09T06:57:55Z</time>
      </trkpt>
      <trkpt lat="46.30168" lon="1.67464">
        <ele>374.6</ele>
        <time>2022-07-09T06:57:57Z</time>
      </trkpt>
      <trkpt lat="46.30165" lon="1.6745">
        <ele>374.8</ele>
        <time>2022-07-09T06:58:00Z</time>
      </trkpt>
      <trkpt lat="46.30169" lon="1.67432">
        <ele>375.2</ele>
        <time>2022-07-09T06:58:04Z</time>
      </trkpt>
      <trkpt lat="46.30169" lon="1.67422">
        <ele>375.4</ele>
        <time>2022-07-09T06:58:06Z</time>
      </trkpt>
      <trkpt lat="46.30168" lon="1.67416">
        <ele>375.6</ele>
        <time>2022-07-09T06:58:07Z</time>
      </trkpt>
      <trkpt lat="46.30166" lon="1.67398">
        <ele>376</ele>
        <time>2022-07-09T06:58:10Z</time>
      </trkpt>
      <trkpt lat="46.30159" lon="1.67373">
        <ele>376.2</ele>
        <time>2022-07-09T06:58:15Z</time>
      </trkpt>
      <trkpt lat="46.3016" lon="1.67364">
        <ele>376</ele>
        <time>2022-07-09T06:58:17Z</time>
      </trkpt>
      <trkpt lat="46.30164" lon="1.67355">
        <ele>376</ele>
        <time>2022-07-09T06:58:19Z</time>
      </trkpt>
      <trkpt lat="46.30181" lon="1.67322">
        <ele>375.8</ele>
        <time>2022-07-09T06:58:26Z</time>
      </trkpt>
      <trkpt lat="46.30193" lon="1.67291">
        <ele>376</ele>
        <time>2022-07-09T06:58:32Z</time>
      </trkpt>
      <trkpt lat="46.30198" lon="1.67282">
        <ele>376.2</ele>
        <time>2022-07-09T06:58:34Z</time>
      </trkpt>
      <trkpt lat="46.30217" lon="1.67257">
        <ele>376.4</ele>
        <time>2022-07-09T06:58:40Z</time>
      </trkpt>
      <trkpt lat="46.30244" lon="1.67228">
        <ele>376.2</ele>
        <time>2022-07-09T06:58:48Z</time>
      </trkpt>
      <trkpt lat="46.30247" lon="1.67224">
        <ele>376.2</ele>
        <time>2022-07-09T06:58:49Z</time>
      </trkpt>
      <trkpt lat="46.3028" lon="1.67188">
        <ele>376</ele>
        <time>2022-07-09T06:58:59Z</time>
      </trkpt>
      <trkpt lat="46.30307" lon="1.67157">
        <ele>376.6</ele>
        <time>2022-07-09T06:59:08Z</time>
      </trkpt>
      <trkpt lat="46.30321" lon="1.67141">
        <ele>377.2</ele>
        <time>2022-07-09T06:59:13Z</time>
      </trkpt>
      <trkpt lat="46.30334" lon="1.67128">
        <ele>377.6</ele>
        <time>2022-07-09T06:59:17Z</time>
      </trkpt>
      <trkpt lat="46.30353" lon="1.67106">
        <ele>377.8</ele>
        <time>2022-07-09T06:59:23Z</time>
      </trkpt>
      <trkpt lat="46.30384" lon="1.67073">
        <ele>377.6</ele>
        <time>2022-07-09T06:59:33Z</time>
      </trkpt>
      <trkpt lat="46.30404" lon="1.6705">
        <ele>377.6</ele>
        <time>2022-07-09T06:59:39Z</time>
      </trkpt>
      <trkpt lat="46.30415" lon="1.67039">
        <ele>377.4</ele>
        <time>2022-07-09T06:59:42Z</time>
      </trkpt>
      <trkpt lat="46.30446" lon="1.67007">
        <ele>377.2</ele>
        <time>2022-07-09T06:59:50Z</time>
      </trkpt>
      <trkpt lat="46.30453" lon="1.66998">
        <ele>377</ele>
        <time>2022-07-09T06:59:52Z</time>
      </trkpt>
      <trkpt lat="46.30461" lon="1.66989">
        <ele>376.8</ele>
        <time>2022-07-09T06:59:54Z</time>
      </trkpt>
      <trkpt lat="46.30479" lon="1.66972">
        <ele>376.2</ele>
        <time>2022-07-09T06:59:58Z</time>
      </trkpt>
      <trkpt lat="46.30492" lon="1.66961">
        <ele>376</ele>
        <time>2022-07-09T07:00:01Z</time>
      </trkpt>
      <trkpt lat="46.30504" lon="1.66953">
        <ele>376</ele>
        <time>2022-07-09T07:00:04Z</time>
      </trkpt>
      <trkpt lat="46.30511" lon="1.66946">
        <ele>375.8</ele>
        <time>2022-07-09T07:00:06Z</time>
      </trkpt>
      <trkpt lat="46.30527" lon="1.6693">
        <ele>375.8</ele>
        <time>2022-07-09T07:00:10Z</time>
      </trkpt>
      <trkpt lat="46.30538" lon="1.66917">
        <ele>375.6</ele>
        <time>2022-07-09T07:00:13Z</time>
      </trkpt>
      <trkpt lat="46.30544" lon="1.66907">
        <ele>375.6</ele>
        <time>2022-07-09T07:00:15Z</time>
      </trkpt>
      <trkpt lat="46.30553" lon="1.66885">
        <ele>375.6</ele>
        <time>2022-07-09T07:00:19Z</time>
      </trkpt>
      <trkpt lat="46.30562" lon="1.66857">
        <ele>375.6</ele>
        <time>2022-07-09T07:00:24Z</time>
      </trkpt>
      <trkpt lat="46.30565" lon="1.66845">
        <ele>375.6</ele>
        <time>2022-07-09T07:00:26Z</time>
      </trkpt>
      <trkpt lat="46.30568" lon="1.66834">
        <ele>375.6</ele>
        <time>2022-07-09T07:00:28Z</time>
      </trkpt>
      <trkpt lat="46.30573" lon="1.66827">
        <ele>375.6</ele>
        <time>2022-07-09T07:00:30Z</time>
      </trkpt>
      <trkpt lat="46.30576" lon="1.66825">
        <ele>375.6</ele>
        <time>2022-07-09T07:00:31Z</time>
      </trkpt>
      <trkpt lat="46.30588" lon="1.66821">
        <ele>376</ele>
        <time>2022-07-09T07:00:35Z</time>
      </trkpt>
      <trkpt lat="46.30589" lon="1.66817">
        <ele>376.2</ele>
        <time>2022-07-09T07:00:36Z</time>
      </trkpt>
      <trkpt lat="46.30588" lon="1.668">
        <ele>376.4</ele>
        <time>2022-07-09T07:00:40Z</time>
      </trkpt>
      <trkpt lat="46.30578" lon="1.66774">
        <ele>376.4</ele>
        <time>2022-07-09T07:00:45Z</time>
      </trkpt>
      <trkpt lat="46.30572" lon="1.6673">
        <ele>376</ele>
        <time>2022-07-09T07:00:52Z</time>
      </trkpt>
      <trkpt lat="46.30566" lon="1.66678">
        <ele>375.8</ele>
        <time>2022-07-09T07:01:01Z</time>
      </trkpt>
      <trkpt lat="46.30558" lon="1.66637">
        <ele>375.8</ele>
        <time>2022-07-09T07:01:07Z</time>
      </trkpt>
      <trkpt lat="46.30557" lon="1.66631">
        <ele>375.6</ele>
        <time>2022-07-09T07:01:08Z</time>
      </trkpt>
      <trkpt lat="46.30552" lon="1.66609">
        <ele>375.6</ele>
        <time>2022-07-09T07:01:12Z</time>
      </trkpt>
      <trkpt lat="46.30548" lon="1.66589">
        <ele>375.2</ele>
        <time>2022-07-09T07:01:17Z</time>
      </trkpt>
      <trkpt lat="46.30545" lon="1.66573">
        <ele>375.2</ele>
        <time>2022-07-09T07:01:21Z</time>
      </trkpt>
      <trkpt lat="46.30542" lon="1.6656">
        <ele>375.2</ele>
        <time>2022-07-09T07:01:24Z</time>
      </trkpt>
      <trkpt lat="46.30533" lon="1.66522">
        <ele>375.4</ele>
        <time>2022-07-09T07:01:32Z</time>
      </trkpt>
      <trkpt lat="46.30526" lon="1.66502">
        <ele>375.6</ele>
        <time>2022-07-09T07:01:37Z</time>
      </trkpt>
      <trkpt lat="46.30523" lon="1.66493">
        <ele>375.6</ele>
        <time>2022-07-09T07:01:39Z</time>
      </trkpt>
      <trkpt lat="46.30522" lon="1.66485">
        <ele>375.6</ele>
        <time>2022-07-09T07:01:41Z</time>
      </trkpt>
      <trkpt lat="46.3052" lon="1.66458">
        <ele>375.8</ele>
        <time>2022-07-09T07:01:47Z</time>
      </trkpt>
      <trkpt lat="46.30519" lon="1.6644">
        <ele>375.8</ele>
        <time>2022-07-09T07:01:54Z</time>
      </trkpt>
      <trkpt lat="46.30519" lon="1.6644">
        <ele>375.8</ele>
        <time>2022-07-09T07:01:55Z</time>
      </trkpt>
      <trkpt lat="46.30519" lon="1.66442">
        <ele>373</ele>
        <time>2022-07-09T07:01:59Z</time>
      </trkpt>
      <trkpt lat="46.30519" lon="1.66443">
        <ele>376</ele>
        <time>2022-07-09T07:02:03Z</time>
      </trkpt>
      <trkpt lat="46.30519" lon="1.66443">
        <ele>376</ele>
        <time>2022-07-09T07:02:11Z</time>
      </trkpt>
      <trkpt lat="46.3052" lon="1.66444">
        <ele>375.4</ele>
        <time>2022-07-09T07:23:20Z</time>
      </trkpt>
      <trkpt lat="46.30519" lon="1.6645">
        <ele>375.4</ele>
        <time>2022-07-09T07:23:24Z</time>
      </trkpt>
      <trkpt lat="46.30518" lon="1.66453">
        <ele>375.4</ele>
        <time>2022-07-09T07:23:25Z</time>
      </trkpt>
      <trkpt lat="46.30516" lon="1.66466">
        <ele>375.4</ele>
        <time>2022-07-09T07:23:28Z</time>
      </trkpt>
      <trkpt lat="46.3052" lon="1.66496">
        <ele>375.6</ele>
        <time>2022-07-09T07:23:34Z</time>
      </trkpt>
      <trkpt lat="46.30525" lon="1.66519">
        <ele>375.8</ele>
        <time>2022-07-09T07:23:39Z</time>
      </trkpt>
      <trkpt lat="46.30531" lon="1.66543">
        <ele>375.6</ele>
        <time>2022-07-09T07:23:44Z</time>
      </trkpt>
      <trkpt lat="46.30538" lon="1.66573">
        <ele>375.4</ele>
        <time>2022-07-09T07:23:49Z</time>
      </trkpt>
      <trkpt lat="46.30545" lon="1.66603">
        <ele>375.2</ele>
        <time>2022-07-09T07:23:54Z</time>
      </trkpt>
      <trkpt lat="46.30553" lon="1.66631">
        <ele>375.4</ele>
        <time>2022-07-09T07:23:59Z</time>
      </trkpt>
      <trkpt lat="46.30558" lon="1.66656">
        <ele>375.2</ele>
        <time>2022-07-09T07:24:04Z</time>
      </trkpt>
      <trkpt lat="46.30561" lon="1.66677">
        <ele>375.4</ele>
        <time>2022-07-09T07:24:08Z</time>
      </trkpt>
      <trkpt lat="46.30565" lon="1.667">
        <ele>375.8</ele>
        <time>2022-07-09T07:24:12Z</time>
      </trkpt>
      <trkpt lat="46.30568" lon="1.66742">
        <ele>375.8</ele>
        <time>2022-07-09T07:24:19Z</time>
      </trkpt>
      <trkpt lat="46.30573" lon="1.66771">
        <ele>375.8</ele>
        <time>2022-07-09T07:24:24Z</time>
      </trkpt>
      <trkpt lat="46.30573" lon="1.66777">
        <ele>375.4</ele>
        <time>2022-07-09T07:24:25Z</time>
      </trkpt>
      <trkpt lat="46.30571" lon="1.66788">
        <ele>375.4</ele>
        <time>2022-07-09T07:24:27Z</time>
      </trkpt>
      <trkpt lat="46.30563" lon="1.66832">
        <ele>375.8</ele>
        <time>2022-07-09T07:24:34Z</time>
      </trkpt>
      <trkpt lat="46.30552" lon="1.66873">
        <ele>375.8</ele>
        <time>2022-07-09T07:24:40Z</time>
      </trkpt>
      <trkpt lat="46.30549" lon="1.66879">
        <ele>375.8</ele>
        <time>2022-07-09T07:24:41Z</time>
      </trkpt>
      <trkpt lat="46.30542" lon="1.66897">
        <ele>375.4</ele>
        <time>2022-07-09T07:24:44Z</time>
      </trkpt>
      <trkpt lat="46.3053" lon="1.66918">
        <ele>375.4</ele>
        <time>2022-07-09T07:24:48Z</time>
      </trkpt>
      <trkpt lat="46.30522" lon="1.66927">
        <ele>375.4</ele>
        <time>2022-07-09T07:24:50Z</time>
      </trkpt>
      <trkpt lat="46.30514" lon="1.66935">
        <ele>375.4</ele>
        <time>2022-07-09T07:24:52Z</time>
      </trkpt>
      <trkpt lat="46.30506" lon="1.66941">
        <ele>375.4</ele>
        <time>2022-07-09T07:24:54Z</time>
      </trkpt>
      <trkpt lat="46.30478" lon="1.66962">
        <ele>375.4</ele>
        <time>2022-07-09T07:25:01Z</time>
      </trkpt>
      <trkpt lat="46.30453" lon="1.66988">
        <ele>375.8</ele>
        <time>2022-07-09T07:25:08Z</time>
      </trkpt>
      <trkpt lat="46.30428" lon="1.67018">
        <ele>375.8</ele>
        <time>2022-07-09T07:25:16Z</time>
      </trkpt>
      <trkpt lat="46.30395" lon="1.67054">
        <ele>376.8</ele>
        <time>2022-07-09T07:25:26Z</time>
      </trkpt>
      <trkpt lat="46.30368" lon="1.67085">
        <ele>377.2</ele>
        <time>2022-07-09T07:25:34Z</time>
      </trkpt>
      <trkpt lat="46.30364" lon="1.67088">
        <ele>377.2</ele>
        <time>2022-07-09T07:25:35Z</time>
      </trkpt>
      <trkpt lat="46.30349" lon="1.67103">
        <ele>377.4</ele>
        <time>2022-07-09T07:25:39Z</time>
      </trkpt>
      <trkpt lat="46.30334" lon="1.6712">
        <ele>377.4</ele>
        <time>2022-07-09T07:25:43Z</time>
      </trkpt>
      <trkpt lat="46.3033" lon="1.67124">
        <ele>377.4</ele>
        <time>2022-07-09T07:25:44Z</time>
      </trkpt>
      <trkpt lat="46.30301" lon="1.67157">
        <ele>377.4</ele>
        <time>2022-07-09T07:25:52Z</time>
      </trkpt>
      <trkpt lat="46.30271" lon="1.6719">
        <ele>377.2</ele>
        <time>2022-07-09T07:25:59Z</time>
      </trkpt>
      <trkpt lat="46.30235" lon="1.67227">
        <ele>376.4</ele>
        <time>2022-07-09T07:26:07Z</time>
      </trkpt>
      <trkpt lat="46.30204" lon="1.67261">
        <ele>376</ele>
        <time>2022-07-09T07:26:15Z</time>
      </trkpt>
      <trkpt lat="46.30197" lon="1.6727">
        <ele>376</ele>
        <time>2022-07-09T07:26:17Z</time>
      </trkpt>
      <trkpt lat="46.30185" lon="1.67291">
        <ele>376.6</ele>
        <time>2022-07-09T07:26:21Z</time>
      </trkpt>
      <trkpt lat="46.30168" lon="1.67326">
        <ele>376.6</ele>
        <time>2022-07-09T07:26:27Z</time>
      </trkpt>
      <trkpt lat="46.3015" lon="1.67366">
        <ele>376.4</ele>
        <time>2022-07-09T07:26:34Z</time>
      </trkpt>
      <trkpt lat="46.30146" lon="1.67377">
        <ele>376.4</ele>
        <time>2022-07-09T07:26:36Z</time>
      </trkpt>
      <trkpt lat="46.30134" lon="1.67403">
        <ele>376.4</ele>
        <time>2022-07-09T07:26:41Z</time>
      </trkpt>
      <trkpt lat="46.3012" lon="1.67433">
        <ele>376.2</ele>
        <time>2022-07-09T07:26:47Z</time>
      </trkpt>
      <trkpt lat="46.30119" lon="1.67445">
        <ele>376.2</ele>
        <time>2022-07-09T07:26:49Z</time>
      </trkpt>
      <trkpt lat="46.30122" lon="1.67456">
        <ele>376.2</ele>
        <time>2022-07-09T07:26:51Z</time>
      </trkpt>
      <trkpt lat="46.30128" lon="1.67474">
        <ele>376.2</ele>
        <time>2022-07-09T07:26:54Z</time>
      </trkpt>
      <trkpt lat="46.30129" lon="1.67481">
        <ele>376</ele>
        <time>2022-07-09T07:26:55Z</time>
      </trkpt>
      <trkpt lat="46.30129" lon="1.67488">
        <ele>376</ele>
        <time>2022-07-09T07:26:56Z</time>
      </trkpt>
      <trkpt lat="46.30126" lon="1.67499">
        <ele>375.8</ele>
        <time>2022-07-09T07:26:58Z</time>
      </trkpt>
      <trkpt lat="46.30123" lon="1.67505">
        <ele>375.6</ele>
        <time>2022-07-09T07:26:59Z</time>
      </trkpt>
      <trkpt lat="46.3012" lon="1.67517">
        <ele>375.4</ele>
        <time>2022-07-09T07:27:01Z</time>
      </trkpt>
      <trkpt lat="46.3012" lon="1.67523">
        <ele>375.2</ele>
        <time>2022-07-09T07:27:02Z</time>
      </trkpt>
      <trkpt lat="46.30122" lon="1.67528">
        <ele>375.2</ele>
        <time>2022-07-09T07:27:03Z</time>
      </trkpt>
      <trkpt lat="46.30142" lon="1.67556">
        <ele>374.6</ele>
        <time>2022-07-09T07:27:09Z</time>
      </trkpt>
      <trkpt lat="46.30148" lon="1.67565">
        <ele>374.4</ele>
        <time>2022-07-09T07:27:11Z</time>
      </trkpt>
      <trkpt lat="46.30152" lon="1.67579">
        <ele>374.2</ele>
        <time>2022-07-09T07:27:14Z</time>
      </trkpt>
      <trkpt lat="46.30147" lon="1.67585">
        <ele>374.2</ele>
        <time>2022-07-09T07:27:16Z</time>
      </trkpt>
      <trkpt lat="46.30143" lon="1.67587">
        <ele>374.2</ele>
        <time>2022-07-09T07:27:17Z</time>
      </trkpt>
      <trkpt lat="46.30121" lon="1.67606">
        <ele>374.2</ele>
        <time>2022-07-09T07:27:22Z</time>
      </trkpt>
      <trkpt lat="46.30095" lon="1.67626">
        <ele>374.2</ele>
        <time>2022-07-09T07:27:29Z</time>
      </trkpt>
      <trkpt lat="46.30076" lon="1.67638">
        <ele>374</ele>
        <time>2022-07-09T07:27:34Z</time>
      </trkpt>
      <trkpt lat="46.30065" lon="1.67647">
        <ele>374.2</ele>
        <time>2022-07-09T07:27:37Z</time>
      </trkpt>
      <trkpt lat="46.30027" lon="1.67676">
        <ele>374.4</ele>
        <time>2022-07-09T07:27:48Z</time>
      </trkpt>
      <trkpt lat="46.29997" lon="1.67696">
        <ele>374.6</ele>
        <time>2022-07-09T07:27:56Z</time>
      </trkpt>
      <trkpt lat="46.29968" lon="1.67717">
        <ele>374.4</ele>
        <time>2022-07-09T07:28:04Z</time>
      </trkpt>
      <trkpt lat="46.29928" lon="1.67741">
        <ele>374.2</ele>
        <time>2022-07-09T07:28:14Z</time>
      </trkpt>
      <trkpt lat="46.29921" lon="1.67746">
        <ele>374</ele>
        <time>2022-07-09T07:28:16Z</time>
      </trkpt>
      <trkpt lat="46.29916" lon="1.67753">
        <ele>373.8</ele>
        <time>2022-07-09T07:28:18Z</time>
      </trkpt>
      <trkpt lat="46.29905" lon="1.67769">
        <ele>373.8</ele>
        <time>2022-07-09T07:28:24Z</time>
      </trkpt>
      <trkpt lat="46.29904" lon="1.67773">
        <ele>373.6</ele>
        <time>2022-07-09T07:28:26Z</time>
      </trkpt>
      <trkpt lat="46.29903" lon="1.67784">
        <ele>373.6</ele>
        <time>2022-07-09T07:28:29Z</time>
      </trkpt>
      <trkpt lat="46.299" lon="1.67795">
        <ele>373.6</ele>
        <time>2022-07-09T07:28:31Z</time>
      </trkpt>
      <trkpt lat="46.29898" lon="1.678">
        <ele>373.4</ele>
        <time>2022-07-09T07:28:32Z</time>
      </trkpt>
      <trkpt lat="46.29894" lon="1.67805">
        <ele>373.4</ele>
        <time>2022-07-09T07:28:33Z</time>
      </trkpt>
      <trkpt lat="46.29881" lon="1.67819">
        <ele>373.4</ele>
        <time>2022-07-09T07:28:37Z</time>
      </trkpt>
      <trkpt lat="46.29875" lon="1.67821">
        <ele>373.2</ele>
        <time>2022-07-09T07:28:39Z</time>
      </trkpt>
      <trkpt lat="46.29873" lon="1.67819">
        <ele>373.2</ele>
        <time>2022-07-09T07:28:40Z</time>
      </trkpt>
      <trkpt lat="46.2987" lon="1.67815">
        <ele>373.2</ele>
        <time>2022-07-09T07:28:41Z</time>
      </trkpt>
      <trkpt lat="46.29861" lon="1.67806">
        <ele>372.8</ele>
        <time>2022-07-09T07:28:44Z</time>
      </trkpt>
      <trkpt lat="46.2985" lon="1.67806">
        <ele>372.8</ele>
        <time>2022-07-09T07:28:48Z</time>
      </trkpt>
      <trkpt lat="46.29831" lon="1.6782">
        <ele>373</ele>
        <time>2022-07-09T07:28:54Z</time>
      </trkpt>
      <trkpt lat="46.29802" lon="1.67841">
        <ele>373.4</ele>
        <time>2022-07-09T07:29:03Z</time>
      </trkpt>
      <trkpt lat="46.2978" lon="1.67857">
        <ele>373.4</ele>
        <time>2022-07-09T07:29:08Z</time>
      </trkpt>
      <trkpt lat="46.29762" lon="1.6787">
        <ele>373.6</ele>
        <time>2022-07-09T07:29:13Z</time>
      </trkpt>
      <trkpt lat="46.29741" lon="1.67883">
        <ele>373.8</ele>
        <time>2022-07-09T07:29:19Z</time>
      </trkpt>
      <trkpt lat="46.29722" lon="1.67895">
        <ele>374.2</ele>
        <time>2022-07-09T07:29:26Z</time>
      </trkpt>
      <trkpt lat="46.29718" lon="1.67898">
        <ele>374.4</ele>
        <time>2022-07-09T07:29:28Z</time>
      </trkpt>
      <trkpt lat="46.29709" lon="1.67904">
        <ele>374.6</ele>
        <time>2022-07-09T07:29:31Z</time>
      </trkpt>
      <trkpt lat="46.297" lon="1.67911">
        <ele>375.4</ele>
        <time>2022-07-09T07:29:36Z</time>
      </trkpt>
      <trkpt lat="46.29698" lon="1.67912">
        <ele>375.8</ele>
        <time>2022-07-09T07:29:37Z</time>
      </trkpt>
      <trkpt lat="46.29681" lon="1.67922">
        <ele>376.4</ele>
        <time>2022-07-09T07:29:43Z</time>
      </trkpt>
      <trkpt lat="46.29656" lon="1.67937">
        <ele>376.2</ele>
        <time>2022-07-09T07:29:49Z</time>
      </trkpt>
      <trkpt lat="46.29651" lon="1.67939">
        <ele>376</ele>
        <time>2022-07-09T07:29:50Z</time>
      </trkpt>
      <trkpt lat="46.2964" lon="1.67947">
        <ele>375.8</ele>
        <time>2022-07-09T07:29:52Z</time>
      </trkpt>
      <trkpt lat="46.29636" lon="1.67949">
        <ele>375.4</ele>
        <time>2022-07-09T07:29:53Z</time>
      </trkpt>
      <trkpt lat="46.29632" lon="1.6795">
        <ele>375.2</ele>
        <time>2022-07-09T07:29:54Z</time>
      </trkpt>
      <trkpt lat="46.29613" lon="1.67962">
        <ele>374.2</ele>
        <time>2022-07-09T07:29:58Z</time>
      </trkpt>
      <trkpt lat="46.29588" lon="1.67981">
        <ele>373.8</ele>
        <time>2022-07-09T07:30:04Z</time>
      </trkpt>
      <trkpt lat="46.29566" lon="1.67995">
        <ele>373.2</ele>
        <time>2022-07-09T07:30:09Z</time>
      </trkpt>
      <trkpt lat="46.29561" lon="1.67999">
        <ele>373.2</ele>
        <time>2022-07-09T07:30:10Z</time>
      </trkpt>
      <trkpt lat="46.29525" lon="1.68029">
        <ele>372.6</ele>
        <time>2022-07-09T07:30:19Z</time>
      </trkpt>
      <trkpt lat="46.29505" lon="1.68045">
        <ele>372.2</ele>
        <time>2022-07-09T07:30:24Z</time>
      </trkpt>
      <trkpt lat="46.29497" lon="1.68051">
        <ele>372</ele>
        <time>2022-07-09T07:30:26Z</time>
      </trkpt>
      <trkpt lat="46.29473" lon="1.68068">
        <ele>371</ele>
        <time>2022-07-09T07:30:32Z</time>
      </trkpt>
      <trkpt lat="46.29469" lon="1.68071">
        <ele>370.8</ele>
        <time>2022-07-09T07:30:33Z</time>
      </trkpt>
      <trkpt lat="46.2946" lon="1.68078">
        <ele>370.6</ele>
        <time>2022-07-09T07:30:35Z</time>
      </trkpt>
      <trkpt lat="46.29447" lon="1.68089">
        <ele>370.2</ele>
        <time>2022-07-09T07:30:38Z</time>
      </trkpt>
      <trkpt lat="46.29443" lon="1.68091">
        <ele>370</ele>
        <time>2022-07-09T07:30:39Z</time>
      </trkpt>
      <trkpt lat="46.29436" lon="1.68096">
        <ele>369.8</ele>
        <time>2022-07-09T07:30:41Z</time>
      </trkpt>
      <trkpt lat="46.29429" lon="1.68102">
        <ele>369.4</ele>
        <time>2022-07-09T07:30:43Z</time>
      </trkpt>
      <trkpt lat="46.29422" lon="1.68109">
        <ele>369.2</ele>
        <time>2022-07-09T07:30:46Z</time>
      </trkpt>
      <trkpt lat="46.29402" lon="1.6813">
        <ele>368.8</ele>
        <time>2022-07-09T07:30:51Z</time>
      </trkpt>
      <trkpt lat="46.29393" lon="1.68139">
        <ele>368.6</ele>
        <time>2022-07-09T07:30:53Z</time>
      </trkpt>
      <trkpt lat="46.29381" lon="1.6815">
        <ele>367.6</ele>
        <time>2022-07-09T07:30:56Z</time>
      </trkpt>
      <trkpt lat="46.29356" lon="1.68171">
        <ele>367</ele>
        <time>2022-07-09T07:31:02Z</time>
      </trkpt>
      <trkpt lat="46.29344" lon="1.68177">
        <ele>367.8</ele>
        <time>2022-07-09T07:31:08Z</time>
      </trkpt>
      <trkpt lat="46.29332" lon="1.68185">
        <ele>368.8</ele>
        <time>2022-07-09T07:31:12Z</time>
      </trkpt>
      <trkpt lat="46.29326" lon="1.68192">
        <ele>369.4</ele>
        <time>2022-07-09T07:31:15Z</time>
      </trkpt>
      <trkpt lat="46.29317" lon="1.68198">
        <ele>370</ele>
        <time>2022-07-09T07:31:19Z</time>
      </trkpt>
      <trkpt lat="46.29308" lon="1.68201">
        <ele>370.4</ele>
        <time>2022-07-09T07:31:22Z</time>
      </trkpt>
      <trkpt lat="46.29295" lon="1.68208">
        <ele>371.2</ele>
        <time>2022-07-09T07:31:26Z</time>
      </trkpt>
      <trkpt lat="46.2929" lon="1.68213">
        <ele>371.6</ele>
        <time>2022-07-09T07:31:28Z</time>
      </trkpt>
      <trkpt lat="46.29284" lon="1.68225">
        <ele>372</ele>
        <time>2022-07-09T07:31:33Z</time>
      </trkpt>
      <trkpt lat="46.29275" lon="1.68246">
        <ele>371.6</ele>
        <time>2022-07-09T07:31:37Z</time>
      </trkpt>
      <trkpt lat="46.2927" lon="1.6826">
        <ele>371.6</ele>
        <time>2022-07-09T07:31:39Z</time>
      </trkpt>
      <trkpt lat="46.29273" lon="1.68287">
        <ele>371</ele>
        <time>2022-07-09T07:31:43Z</time>
      </trkpt>
      <trkpt lat="46.29275" lon="1.683">
        <ele>370</ele>
        <time>2022-07-09T07:31:46Z</time>
      </trkpt>
      <trkpt lat="46.29275" lon="1.68303">
        <ele>369.6</ele>
        <time>2022-07-09T07:31:47Z</time>
      </trkpt>
      <trkpt lat="46.29278" lon="1.68308">
        <ele>368.8</ele>
        <time>2022-07-09T07:31:49Z</time>
      </trkpt>
      <trkpt lat="46.29279" lon="1.68316">
        <ele>367.8</ele>
        <time>2022-07-09T07:31:51Z</time>
      </trkpt>
      <trkpt lat="46.29276" lon="1.68322">
        <ele>367.4</ele>
        <time>2022-07-09T07:31:52Z</time>
      </trkpt>
      <trkpt lat="46.29264" lon="1.68336">
        <ele>366.2</ele>
        <time>2022-07-09T07:31:55Z</time>
      </trkpt>
      <trkpt lat="46.29253" lon="1.68342">
        <ele>364.8</ele>
        <time>2022-07-09T07:31:58Z</time>
      </trkpt>
      <trkpt lat="46.29243" lon="1.68347">
        <ele>363.6</ele>
        <time>2022-07-09T07:32:01Z</time>
      </trkpt>
      <trkpt lat="46.29234" lon="1.6835">
        <ele>362.2</ele>
        <time>2022-07-09T07:32:03Z</time>
      </trkpt>
      <trkpt lat="46.29227" lon="1.68354">
        <ele>361.6</ele>
        <time>2022-07-09T07:32:05Z</time>
      </trkpt>
      <trkpt lat="46.29223" lon="1.68357">
        <ele>361.4</ele>
        <time>2022-07-09T07:32:06Z</time>
      </trkpt>
      <trkpt lat="46.29218" lon="1.68359">
        <ele>361.2</ele>
        <time>2022-07-09T07:32:07Z</time>
      </trkpt>
      <trkpt lat="46.29204" lon="1.6837">
        <ele>360.6</ele>
        <time>2022-07-09T07:32:10Z</time>
      </trkpt>
      <trkpt lat="46.29188" lon="1.68383">
        <ele>360</ele>
        <time>2022-07-09T07:32:13Z</time>
      </trkpt>
      <trkpt lat="46.29177" lon="1.68386">
        <ele>359.6</ele>
        <time>2022-07-09T07:32:16Z</time>
      </trkpt>
      <trkpt lat="46.29174" lon="1.68389">
        <ele>359</ele>
        <time>2022-07-09T07:32:19Z</time>
      </trkpt>
      <trkpt lat="46.29174" lon="1.6839">
        <ele>359</ele>
        <time>2022-07-09T07:32:21Z</time>
      </trkpt>
      <trkpt lat="46.29172" lon="1.6839">
        <ele>359</ele>
        <time>2022-07-09T07:32:28Z</time>
      </trkpt>
      <trkpt lat="46.2917" lon="1.68392">
        <ele>359</ele>
        <time>2022-07-09T07:32:30Z</time>
      </trkpt>
      <trkpt lat="46.29164" lon="1.68396">
        <ele>359</ele>
        <time>2022-07-09T07:32:33Z</time>
      </trkpt>
      <trkpt lat="46.29156" lon="1.68406">
        <ele>359.4</ele>
        <time>2022-07-09T07:32:39Z</time>
      </trkpt>
      <trkpt lat="46.29154" lon="1.68406">
        <ele>359.4</ele>
        <time>2022-07-09T07:32:40Z</time>
      </trkpt>
      <trkpt lat="46.29148" lon="1.68412">
        <ele>359.8</ele>
        <time>2022-07-09T07:32:43Z</time>
      </trkpt>
      <trkpt lat="46.29146" lon="1.68415">
        <ele>360</ele>
        <time>2022-07-09T07:32:44Z</time>
      </trkpt>
      <trkpt lat="46.29136" lon="1.68423">
        <ele>360.8</ele>
        <time>2022-07-09T07:32:49Z</time>
      </trkpt>
      <trkpt lat="46.29134" lon="1.68423">
        <ele>361</ele>
        <time>2022-07-09T07:32:50Z</time>
      </trkpt>
      <trkpt lat="46.29132" lon="1.68425">
        <ele>361</ele>
        <time>2022-07-09T07:32:51Z</time>
      </trkpt>
      <trkpt lat="46.29121" lon="1.68431">
        <ele>361.8</ele>
        <time>2022-07-09T07:32:55Z</time>
      </trkpt>
      <trkpt lat="46.29115" lon="1.68427">
        <ele>362.4</ele>
        <time>2022-07-09T07:32:57Z</time>
      </trkpt>
      <trkpt lat="46.29106" lon="1.68435">
        <ele>363</ele>
        <time>2022-07-09T07:33:01Z</time>
      </trkpt>
      <trkpt lat="46.29104" lon="1.68443">
        <ele>363.4</ele>
        <time>2022-07-09T07:33:03Z</time>
      </trkpt>
      <trkpt lat="46.29099" lon="1.68449">
        <ele>364</ele>
        <time>2022-07-09T07:33:06Z</time>
      </trkpt>
      <trkpt lat="46.29097" lon="1.68451">
        <ele>364.4</ele>
        <time>2022-07-09T07:33:08Z</time>
      </trkpt>
      <trkpt lat="46.29096" lon="1.68454">
        <ele>364.6</ele>
        <time>2022-07-09T07:33:09Z</time>
      </trkpt>
      <trkpt lat="46.29092" lon="1.68457">
        <ele>365.2</ele>
        <time>2022-07-09T07:33:11Z</time>
      </trkpt>
      <trkpt lat="46.2909" lon="1.68458">
        <ele>365.6</ele>
        <time>2022-07-09T07:33:14Z</time>
      </trkpt>
      <trkpt lat="46.29089" lon="1.68458">
        <ele>365.8</ele>
        <time>2022-07-09T07:33:16Z</time>
      </trkpt>
      <trkpt lat="46.29079" lon="1.6846">
        <ele>366.6</ele>
        <time>2022-07-09T07:33:23Z</time>
      </trkpt>
      <trkpt lat="46.29077" lon="1.68462">
        <ele>366.8</ele>
        <time>2022-07-09T07:33:24Z</time>
      </trkpt>
      <trkpt lat="46.29075" lon="1.68465">
        <ele>367</ele>
        <time>2022-07-09T07:33:26Z</time>
      </trkpt>
      <trkpt lat="46.29072" lon="1.68471">
        <ele>367.2</ele>
        <time>2022-07-09T07:33:28Z</time>
      </trkpt>
      <trkpt lat="46.29071" lon="1.68474">
        <ele>367.4</ele>
        <time>2022-07-09T07:33:29Z</time>
      </trkpt>
      <trkpt lat="46.29063" lon="1.68479">
        <ele>368</ele>
        <time>2022-07-09T07:33:35Z</time>
      </trkpt>
      <trkpt lat="46.2906" lon="1.6848">
        <ele>368.4</ele>
        <time>2022-07-09T07:33:37Z</time>
      </trkpt>
      <trkpt lat="46.29054" lon="1.68485">
        <ele>369</ele>
        <time>2022-07-09T07:33:40Z</time>
      </trkpt>
      <trkpt lat="46.2905" lon="1.68489">
        <ele>369.6</ele>
        <time>2022-07-09T07:33:43Z</time>
      </trkpt>
      <trkpt lat="46.29047" lon="1.6849">
        <ele>370</ele>
        <time>2022-07-09T07:33:45Z</time>
      </trkpt>
      <trkpt lat="46.29046" lon="1.68491">
        <ele>370.2</ele>
        <time>2022-07-09T07:33:46Z</time>
      </trkpt>
      <trkpt lat="46.29045" lon="1.68493">
        <ele>370.2</ele>
        <time>2022-07-09T07:33:47Z</time>
      </trkpt>
      <trkpt lat="46.29043" lon="1.68495">
        <ele>370.4</ele>
        <time>2022-07-09T07:33:48Z</time>
      </trkpt>
      <trkpt lat="46.29041" lon="1.68498">
        <ele>370.6</ele>
        <time>2022-07-09T07:33:50Z</time>
      </trkpt>
      <trkpt lat="46.29039" lon="1.68503">
        <ele>370.8</ele>
        <time>2022-07-09T07:33:52Z</time>
      </trkpt>
      <trkpt lat="46.29037" lon="1.68505">
        <ele>371</ele>
        <time>2022-07-09T07:33:53Z</time>
      </trkpt>
      <trkpt lat="46.29037" lon="1.68505">
        <ele>371.2</ele>
        <time>2022-07-09T07:33:54Z</time>
      </trkpt>
      <trkpt lat="46.29036" lon="1.68505">
        <ele>371.8</ele>
        <time>2022-07-09T07:33:56Z</time>
      </trkpt>
      <trkpt lat="46.29033" lon="1.68507">
        <ele>372</ele>
        <time>2022-07-09T07:33:58Z</time>
      </trkpt>
      <trkpt lat="46.29031" lon="1.68509">
        <ele>372.2</ele>
        <time>2022-07-09T07:33:59Z</time>
      </trkpt>
      <trkpt lat="46.2903" lon="1.6851">
        <ele>372.4</ele>
        <time>2022-07-09T07:34:00Z</time>
      </trkpt>
      <trkpt lat="46.29022" lon="1.68513">
        <ele>372.8</ele>
        <time>2022-07-09T07:34:05Z</time>
      </trkpt>
      <trkpt lat="46.29017" lon="1.68514">
        <ele>373</ele>
        <time>2022-07-09T07:34:08Z</time>
      </trkpt>
      <trkpt lat="46.29" lon="1.68516">
        <ele>373.2</ele>
        <time>2022-07-09T07:34:14Z</time>
      </trkpt>
      <trkpt lat="46.28997" lon="1.68519">
        <ele>373.2</ele>
        <time>2022-07-09T07:34:15Z</time>
      </trkpt>
      <trkpt lat="46.28989" lon="1.6853">
        <ele>373.2</ele>
        <time>2022-07-09T07:34:18Z</time>
      </trkpt>
      <trkpt lat="46.28984" lon="1.68539">
        <ele>373.2</ele>
        <time>2022-07-09T07:34:20Z</time>
      </trkpt>
      <trkpt lat="46.2898" lon="1.68554">
        <ele>373.8</ele>
        <time>2022-07-09T07:34:25Z</time>
      </trkpt>
      <trkpt lat="46.28975" lon="1.68565">
        <ele>374.4</ele>
        <time>2022-07-09T07:34:28Z</time>
      </trkpt>
      <trkpt lat="46.28969" lon="1.68582">
        <ele>375</ele>
        <time>2022-07-09T07:34:32Z</time>
      </trkpt>
      <trkpt lat="46.28968" lon="1.68585">
        <ele>375</ele>
        <time>2022-07-09T07:34:33Z</time>
      </trkpt>
      <trkpt lat="46.28961" lon="1.68604">
        <ele>375.4</ele>
        <time>2022-07-09T07:34:37Z</time>
      </trkpt>
      <trkpt lat="46.2896" lon="1.68609">
        <ele>375.4</ele>
        <time>2022-07-09T07:34:38Z</time>
      </trkpt>
      <trkpt lat="46.28952" lon="1.68629">
        <ele>375.6</ele>
        <time>2022-07-09T07:34:42Z</time>
      </trkpt>
      <trkpt lat="46.28948" lon="1.68655">
        <ele>375.8</ele>
        <time>2022-07-09T07:34:49Z</time>
      </trkpt>
      <trkpt lat="46.28944" lon="1.68678">
        <ele>376</ele>
        <time>2022-07-09T07:34:54Z</time>
      </trkpt>
      <trkpt lat="46.28944" lon="1.68682">
        <ele>376.2</ele>
        <time>2022-07-09T07:34:55Z</time>
      </trkpt>
      <trkpt lat="46.28946" lon="1.68692">
        <ele>376.4</ele>
        <time>2022-07-09T07:34:57Z</time>
      </trkpt>
      <trkpt lat="46.2895" lon="1.68706">
        <ele>376.6</ele>
        <time>2022-07-09T07:35:00Z</time>
      </trkpt>
      <trkpt lat="46.28952" lon="1.68737">
        <ele>377.2</ele>
        <time>2022-07-09T07:35:06Z</time>
      </trkpt>
      <trkpt lat="46.2895" lon="1.68751">
        <ele>377.4</ele>
        <time>2022-07-09T07:35:09Z</time>
      </trkpt>
      <trkpt lat="46.28946" lon="1.68762">
        <ele>377.6</ele>
        <time>2022-07-09T07:35:11Z</time>
      </trkpt>
      <trkpt lat="46.28947" lon="1.68795">
        <ele>378.4</ele>
        <time>2022-07-09T07:35:19Z</time>
      </trkpt>
      <trkpt lat="46.28947" lon="1.68803">
        <ele>378.6</ele>
        <time>2022-07-09T07:35:21Z</time>
      </trkpt>
      <trkpt lat="46.28948" lon="1.68821">
        <ele>379.4</ele>
        <time>2022-07-09T07:35:26Z</time>
      </trkpt>
      <trkpt lat="46.2895" lon="1.6883">
        <ele>379.6</ele>
        <time>2022-07-09T07:35:29Z</time>
      </trkpt>
      <trkpt lat="46.28951" lon="1.68842">
        <ele>380.6</ele>
        <time>2022-07-09T07:35:33Z</time>
      </trkpt>
      <trkpt lat="46.28951" lon="1.68845">
        <ele>380.8</ele>
        <time>2022-07-09T07:35:34Z</time>
      </trkpt>
      <trkpt lat="46.28951" lon="1.68863">
        <ele>381.8</ele>
        <time>2022-07-09T07:35:39Z</time>
      </trkpt>
      <trkpt lat="46.28951" lon="1.68866">
        <ele>382.2</ele>
        <time>2022-07-09T07:35:40Z</time>
      </trkpt>
      <trkpt lat="46.28952" lon="1.68891">
        <ele>382.8</ele>
        <time>2022-07-09T07:35:47Z</time>
      </trkpt>
      <trkpt lat="46.28953" lon="1.68895">
        <ele>382.8</ele>
        <time>2022-07-09T07:35:48Z</time>
      </trkpt>
      <trkpt lat="46.28954" lon="1.68914">
        <ele>383.4</ele>
        <time>2022-07-09T07:35:53Z</time>
      </trkpt>
      <trkpt lat="46.28957" lon="1.68932">
        <ele>384</ele>
        <time>2022-07-09T07:35:58Z</time>
      </trkpt>
      <trkpt lat="46.28961" lon="1.6896">
        <ele>385</ele>
        <time>2022-07-09T07:36:05Z</time>
      </trkpt>
      <trkpt lat="46.28961" lon="1.68964">
        <ele>385</ele>
        <time>2022-07-09T07:36:06Z</time>
      </trkpt>
      <trkpt lat="46.28964" lon="1.68987">
        <ele>385.6</ele>
        <time>2022-07-09T07:36:12Z</time>
      </trkpt>
      <trkpt lat="46.28967" lon="1.6902">
        <ele>385.8</ele>
        <time>2022-07-09T07:36:21Z</time>
      </trkpt>
      <trkpt lat="46.28969" lon="1.69037">
        <ele>386.2</ele>
        <time>2022-07-09T07:36:25Z</time>
      </trkpt>
      <trkpt lat="46.2897" lon="1.69045">
        <ele>386.6</ele>
        <time>2022-07-09T07:36:27Z</time>
      </trkpt>
      <trkpt lat="46.28972" lon="1.69067">
        <ele>387.2</ele>
        <time>2022-07-09T07:36:33Z</time>
      </trkpt>
      <trkpt lat="46.28972" lon="1.69071">
        <ele>387.2</ele>
        <time>2022-07-09T07:36:34Z</time>
      </trkpt>
      <trkpt lat="46.28973" lon="1.69095">
        <ele>387.8</ele>
        <time>2022-07-09T07:36:40Z</time>
      </trkpt>
      <trkpt lat="46.28974" lon="1.69107">
        <ele>388.4</ele>
        <time>2022-07-09T07:36:43Z</time>
      </trkpt>
      <trkpt lat="46.28974" lon="1.69126">
        <ele>388.8</ele>
        <time>2022-07-09T07:36:47Z</time>
      </trkpt>
      <trkpt lat="46.28973" lon="1.69152">
        <ele>389</ele>
        <time>2022-07-09T07:36:53Z</time>
      </trkpt>
      <trkpt lat="46.28971" lon="1.69184">
        <ele>389</ele>
        <time>2022-07-09T07:36:59Z</time>
      </trkpt>
      <trkpt lat="46.28971" lon="1.6919">
        <ele>388.8</ele>
        <time>2022-07-09T07:37:00Z</time>
      </trkpt>
      <trkpt lat="46.28973" lon="1.69212">
        <ele>388.8</ele>
        <time>2022-07-09T07:37:03Z</time>
      </trkpt>
      <trkpt lat="46.28972" lon="1.6922">
        <ele>388.8</ele>
        <time>2022-07-09T07:37:04Z</time>
      </trkpt>
      <trkpt lat="46.28969" lon="1.69274">
        <ele>387.2</ele>
        <time>2022-07-09T07:37:11Z</time>
      </trkpt>
      <trkpt lat="46.28968" lon="1.69297">
        <ele>386.6</ele>
        <time>2022-07-09T07:37:14Z</time>
      </trkpt>
      <trkpt lat="46.28966" lon="1.69312">
        <ele>386.2</ele>
        <time>2022-07-09T07:37:16Z</time>
      </trkpt>
      <trkpt lat="46.28965" lon="1.6932">
        <ele>386</ele>
        <time>2022-07-09T07:37:17Z</time>
      </trkpt>
      <trkpt lat="46.28961" lon="1.69352">
        <ele>385.2</ele>
        <time>2022-07-09T07:37:21Z</time>
      </trkpt>
      <trkpt lat="46.2896" lon="1.69369">
        <ele>384.8</ele>
        <time>2022-07-09T07:37:23Z</time>
      </trkpt>
      <trkpt lat="46.2896" lon="1.69385">
        <ele>384.2</ele>
        <time>2022-07-09T07:37:25Z</time>
      </trkpt>
      <trkpt lat="46.28959" lon="1.69401">
        <ele>383.8</ele>
        <time>2022-07-09T07:37:27Z</time>
      </trkpt>
      <trkpt lat="46.28958" lon="1.69417">
        <ele>383.4</ele>
        <time>2022-07-09T07:37:29Z</time>
      </trkpt>
      <trkpt lat="46.28959" lon="1.69422">
        <ele>383</ele>
        <time>2022-07-09T07:37:30Z</time>
      </trkpt>
      <trkpt lat="46.28959" lon="1.69427">
        <ele>382.8</ele>
        <time>2022-07-09T07:37:31Z</time>
      </trkpt>
      <trkpt lat="46.28954" lon="1.69433">
        <ele>382</ele>
        <time>2022-07-09T07:37:33Z</time>
      </trkpt>
      <trkpt lat="46.28951" lon="1.69435">
        <ele>381.6</ele>
        <time>2022-07-09T07:37:34Z</time>
      </trkpt>
      <trkpt lat="46.28942" lon="1.6944">
        <ele>381.2</ele>
        <time>2022-07-09T07:37:36Z</time>
      </trkpt>
      <trkpt lat="46.28939" lon="1.69443">
        <ele>381</ele>
        <time>2022-07-09T07:37:37Z</time>
      </trkpt>
      <trkpt lat="46.28936" lon="1.69448">
        <ele>380.8</ele>
        <time>2022-07-09T07:37:38Z</time>
      </trkpt>
      <trkpt lat="46.28932" lon="1.69461">
        <ele>380.6</ele>
        <time>2022-07-09T07:37:40Z</time>
      </trkpt>
      <trkpt lat="46.2893" lon="1.69468">
        <ele>380.4</ele>
        <time>2022-07-09T07:37:41Z</time>
      </trkpt>
      <trkpt lat="46.28915" lon="1.69506">
        <ele>379.6</ele>
        <time>2022-07-09T07:37:46Z</time>
      </trkpt>
      <trkpt lat="46.28911" lon="1.69515">
        <ele>379.4</ele>
        <time>2022-07-09T07:37:47Z</time>
      </trkpt>
      <trkpt lat="46.28894" lon="1.69558">
        <ele>378.2</ele>
        <time>2022-07-09T07:37:52Z</time>
      </trkpt>
      <trkpt lat="46.2889" lon="1.69589">
        <ele>377.2</ele>
        <time>2022-07-09T07:37:56Z</time>
      </trkpt>
      <trkpt lat="46.2889" lon="1.69595">
        <ele>377.2</ele>
        <time>2022-07-09T07:37:57Z</time>
      </trkpt>
      <trkpt lat="46.28889" lon="1.696">
        <ele>377</ele>
        <time>2022-07-09T07:37:58Z</time>
      </trkpt>
      <trkpt lat="46.28888" lon="1.69603">
        <ele>377</ele>
        <time>2022-07-09T07:37:59Z</time>
      </trkpt>
      <trkpt lat="46.28878" lon="1.69609">
        <ele>376.8</ele>
        <time>2022-07-09T07:38:03Z</time>
      </trkpt>
      <trkpt lat="46.28865" lon="1.69617">
        <ele>377.4</ele>
        <time>2022-07-09T07:38:09Z</time>
      </trkpt>
      <trkpt lat="46.28855" lon="1.69621">
        <ele>378.2</ele>
        <time>2022-07-09T07:38:13Z</time>
      </trkpt>
      <trkpt lat="46.28846" lon="1.69626">
        <ele>378.8</ele>
        <time>2022-07-09T07:38:18Z</time>
      </trkpt>
      <trkpt lat="46.28839" lon="1.6963">
        <ele>379.4</ele>
        <time>2022-07-09T07:38:21Z</time>
      </trkpt>
      <trkpt lat="46.28828" lon="1.69637">
        <ele>380.2</ele>
        <time>2022-07-09T07:38:27Z</time>
      </trkpt>
      <trkpt lat="46.28826" lon="1.69637">
        <ele>380.6</ele>
        <time>2022-07-09T07:38:28Z</time>
      </trkpt>
      <trkpt lat="46.28819" lon="1.6964">
        <ele>381.4</ele>
        <time>2022-07-09T07:38:32Z</time>
      </trkpt>
      <trkpt lat="46.28818" lon="1.69641">
        <ele>381.4</ele>
        <time>2022-07-09T07:38:33Z</time>
      </trkpt>
      <trkpt lat="46.28816" lon="1.69641">
        <ele>381.8</ele>
        <time>2022-07-09T07:38:34Z</time>
      </trkpt>
      <trkpt lat="46.28808" lon="1.69644">
        <ele>382.6</ele>
        <time>2022-07-09T07:38:39Z</time>
      </trkpt>
      <trkpt lat="46.28805" lon="1.69645">
        <ele>382.8</ele>
        <time>2022-07-09T07:38:41Z</time>
      </trkpt>
      <trkpt lat="46.28797" lon="1.69648">
        <ele>384</ele>
        <time>2022-07-09T07:38:46Z</time>
      </trkpt>
      <trkpt lat="46.28794" lon="1.69649">
        <ele>384.4</ele>
        <time>2022-07-09T07:38:48Z</time>
      </trkpt>
      <trkpt lat="46.28788" lon="1.69651">
        <ele>385.2</ele>
        <time>2022-07-09T07:38:51Z</time>
      </trkpt>
      <trkpt lat="46.28781" lon="1.69654">
        <ele>386</ele>
        <time>2022-07-09T07:38:55Z</time>
      </trkpt>
      <trkpt lat="46.28776" lon="1.69656">
        <ele>386.4</ele>
        <time>2022-07-09T07:38:58Z</time>
      </trkpt>
      <trkpt lat="46.28767" lon="1.69663">
        <ele>387.2</ele>
        <time>2022-07-09T07:39:03Z</time>
      </trkpt>
      <trkpt lat="46.28763" lon="1.69664">
        <ele>387.6</ele>
        <time>2022-07-09T07:39:05Z</time>
      </trkpt>
      <trkpt lat="46.28752" lon="1.69664">
        <ele>388.4</ele>
        <time>2022-07-09T07:39:11Z</time>
      </trkpt>
      <trkpt lat="46.2875" lon="1.69665">
        <ele>388.6</ele>
        <time>2022-07-09T07:39:12Z</time>
      </trkpt>
      <trkpt lat="46.28744" lon="1.6967">
        <ele>389.4</ele>
        <time>2022-07-09T07:39:17Z</time>
      </trkpt>
      <trkpt lat="46.28741" lon="1.69673">
        <ele>389.6</ele>
        <time>2022-07-09T07:39:19Z</time>
      </trkpt>
      <trkpt lat="46.28741" lon="1.69675">
        <ele>389.6</ele>
        <time>2022-07-09T07:39:20Z</time>
      </trkpt>
      <trkpt lat="46.28741" lon="1.69683">
        <ele>390.6</ele>
        <time>2022-07-09T07:39:24Z</time>
      </trkpt>
      <trkpt lat="46.28741" lon="1.69685">
        <ele>390.8</ele>
        <time>2022-07-09T07:39:25Z</time>
      </trkpt>
      <trkpt lat="46.28741" lon="1.69694">
        <ele>391.2</ele>
        <time>2022-07-09T07:39:28Z</time>
      </trkpt>
      <trkpt lat="46.28741" lon="1.69697">
        <ele>391.2</ele>
        <time>2022-07-09T07:39:30Z</time>
      </trkpt>
      <trkpt lat="46.2874" lon="1.69699">
        <ele>391.4</ele>
        <time>2022-07-09T07:39:31Z</time>
      </trkpt>
      <trkpt lat="46.28737" lon="1.69705">
        <ele>391.8</ele>
        <time>2022-07-09T07:39:35Z</time>
      </trkpt>
      <trkpt lat="46.28736" lon="1.69706">
        <ele>392</ele>
        <time>2022-07-09T07:39:36Z</time>
      </trkpt>
      <trkpt lat="46.28729" lon="1.69717">
        <ele>392.4</ele>
        <time>2022-07-09T07:39:43Z</time>
      </trkpt>
      <trkpt lat="46.28726" lon="1.69722">
        <ele>392.8</ele>
        <time>2022-07-09T07:39:45Z</time>
      </trkpt>
      <trkpt lat="46.28719" lon="1.69738">
        <ele>394.2</ele>
        <time>2022-07-09T07:39:51Z</time>
      </trkpt>
      <trkpt lat="46.28716" lon="1.69744">
        <ele>394.4</ele>
        <time>2022-07-09T07:39:53Z</time>
      </trkpt>
      <trkpt lat="46.28712" lon="1.69747">
        <ele>395.4</ele>
        <time>2022-07-09T07:39:56Z</time>
      </trkpt>
      <trkpt lat="46.28707" lon="1.69753">
        <ele>396.2</ele>
        <time>2022-07-09T07:40:02Z</time>
      </trkpt>
      <trkpt lat="46.28707" lon="1.69755">
        <ele>396.8</ele>
        <time>2022-07-09T07:40:03Z</time>
      </trkpt>
      <trkpt lat="46.28701" lon="1.69766">
        <ele>397.2</ele>
        <time>2022-07-09T07:40:09Z</time>
      </trkpt>
      <trkpt lat="46.28699" lon="1.69769">
        <ele>397.6</ele>
        <time>2022-07-09T07:40:11Z</time>
      </trkpt>
      <trkpt lat="46.28694" lon="1.69778">
        <ele>398.4</ele>
        <time>2022-07-09T07:40:16Z</time>
      </trkpt>
      <trkpt lat="46.28693" lon="1.6978">
        <ele>398.8</ele>
        <time>2022-07-09T07:40:17Z</time>
      </trkpt>
      <trkpt lat="46.2869" lon="1.69787">
        <ele>399.8</ele>
        <time>2022-07-09T07:40:22Z</time>
      </trkpt>
      <trkpt lat="46.28688" lon="1.69789">
        <ele>400.2</ele>
        <time>2022-07-09T07:40:24Z</time>
      </trkpt>
      <trkpt lat="46.28685" lon="1.69795">
        <ele>400.6</ele>
        <time>2022-07-09T07:40:27Z</time>
      </trkpt>
      <trkpt lat="46.28685" lon="1.69796">
        <ele>400.8</ele>
        <time>2022-07-09T07:40:28Z</time>
      </trkpt>
      <trkpt lat="46.28685" lon="1.69798">
        <ele>401.2</ele>
        <time>2022-07-09T07:40:29Z</time>
      </trkpt>
      <trkpt lat="46.28684" lon="1.69799">
        <ele>401.8</ele>
        <time>2022-07-09T07:40:31Z</time>
      </trkpt>
      <trkpt lat="46.28681" lon="1.69802">
        <ele>402.2</ele>
        <time>2022-07-09T07:40:35Z</time>
      </trkpt>
      <trkpt lat="46.28681" lon="1.69803">
        <ele>402.4</ele>
        <time>2022-07-09T07:40:36Z</time>
      </trkpt>
      <trkpt lat="46.28676" lon="1.6981">
        <ele>403.4</ele>
        <time>2022-07-09T07:40:42Z</time>
      </trkpt>
      <trkpt lat="46.28675" lon="1.69815">
        <ele>404.4</ele>
        <time>2022-07-09T07:40:47Z</time>
      </trkpt>
      <trkpt lat="46.28675" lon="1.69815">
        <ele>404.8</ele>
        <time>2022-07-09T07:40:49Z</time>
      </trkpt>
      <trkpt lat="46.28672" lon="1.69824">
        <ele>406.4</ele>
        <time>2022-07-09T07:41:02Z</time>
      </trkpt>
      <trkpt lat="46.28671" lon="1.69826">
        <ele>406.6</ele>
        <time>2022-07-09T07:41:03Z</time>
      </trkpt>
      <trkpt lat="46.28668" lon="1.69834">
        <ele>407.2</ele>
        <time>2022-07-09T07:41:09Z</time>
      </trkpt>
      <trkpt lat="46.28667" lon="1.6984">
        <ele>407.6</ele>
        <time>2022-07-09T07:41:11Z</time>
      </trkpt>
      <trkpt lat="46.28663" lon="1.69852">
        <ele>408.2</ele>
        <time>2022-07-09T07:41:15Z</time>
      </trkpt>
      <trkpt lat="46.28662" lon="1.69855">
        <ele>408.2</ele>
        <time>2022-07-09T07:41:16Z</time>
      </trkpt>
      <trkpt lat="46.28659" lon="1.69861">
        <ele>409</ele>
        <time>2022-07-09T07:41:18Z</time>
      </trkpt>
      <trkpt lat="46.28658" lon="1.69866">
        <ele>409.2</ele>
        <time>2022-07-09T07:41:20Z</time>
      </trkpt>
      <trkpt lat="46.28658" lon="1.6987">
        <ele>409.6</ele>
        <time>2022-07-09T07:41:22Z</time>
      </trkpt>
      <trkpt lat="46.28658" lon="1.69881">
        <ele>410</ele>
        <time>2022-07-09T07:41:25Z</time>
      </trkpt>
      <trkpt lat="46.28659" lon="1.69891">
        <ele>410.4</ele>
        <time>2022-07-09T07:41:27Z</time>
      </trkpt>
      <trkpt lat="46.28659" lon="1.69892">
        <ele>410.4</ele>
        <time>2022-07-09T07:41:28Z</time>
      </trkpt>
      <trkpt lat="46.28658" lon="1.69894">
        <ele>410.4</ele>
        <time>2022-07-09T07:41:29Z</time>
      </trkpt>
      <trkpt lat="46.28658" lon="1.69897">
        <ele>410.8</ele>
        <time>2022-07-09T07:41:32Z</time>
      </trkpt>
      <trkpt lat="46.28659" lon="1.699">
        <ele>411.2</ele>
        <time>2022-07-09T07:41:34Z</time>
      </trkpt>
      <trkpt lat="46.2866" lon="1.69912">
        <ele>411.6</ele>
        <time>2022-07-09T07:41:38Z</time>
      </trkpt>
      <trkpt lat="46.2866" lon="1.69914">
        <ele>411.6</ele>
        <time>2022-07-09T07:41:39Z</time>
      </trkpt>
      <trkpt lat="46.2866" lon="1.69916">
        <ele>411.8</ele>
        <time>2022-07-09T07:41:40Z</time>
      </trkpt>
      <trkpt lat="46.2866" lon="1.69919">
        <ele>412</ele>
        <time>2022-07-09T07:41:41Z</time>
      </trkpt>
      <trkpt lat="46.28661" lon="1.69929">
        <ele>412.6</ele>
        <time>2022-07-09T07:41:44Z</time>
      </trkpt>
      <trkpt lat="46.28662" lon="1.6994">
        <ele>413</ele>
        <time>2022-07-09T07:41:47Z</time>
      </trkpt>
      <trkpt lat="46.28663" lon="1.69945">
        <ele>413.2</ele>
        <time>2022-07-09T07:41:49Z</time>
      </trkpt>
      <trkpt lat="46.28664" lon="1.69948">
        <ele>413.4</ele>
        <time>2022-07-09T07:41:50Z</time>
      </trkpt>
      <trkpt lat="46.28664" lon="1.6995">
        <ele>413.6</ele>
        <time>2022-07-09T07:41:51Z</time>
      </trkpt>
      <trkpt lat="46.28664" lon="1.69959">
        <ele>414</ele>
        <time>2022-07-09T07:41:53Z</time>
      </trkpt>
      <trkpt lat="46.28664" lon="1.69962">
        <ele>414.4</ele>
        <time>2022-07-09T07:41:55Z</time>
      </trkpt>
      <trkpt lat="46.28663" lon="1.69967">
        <ele>415.2</ele>
        <time>2022-07-09T07:42:01Z</time>
      </trkpt>
      <trkpt lat="46.28663" lon="1.69968">
        <ele>415.2</ele>
        <time>2022-07-09T07:42:02Z</time>
      </trkpt>
      <trkpt lat="46.28663" lon="1.6997">
        <ele>415.4</ele>
        <time>2022-07-09T07:42:03Z</time>
      </trkpt>
      <trkpt lat="46.28663" lon="1.69975">
        <ele>415.8</ele>
        <time>2022-07-09T07:42:07Z</time>
      </trkpt>
      <trkpt lat="46.28663" lon="1.69981">
        <ele>416.2</ele>
        <time>2022-07-09T07:42:09Z</time>
      </trkpt>
      <trkpt lat="46.28661" lon="1.69986">
        <ele>416.4</ele>
        <time>2022-07-09T07:42:11Z</time>
      </trkpt>
      <trkpt lat="46.28661" lon="1.69988">
        <ele>416.6</ele>
        <time>2022-07-09T07:42:12Z</time>
      </trkpt>
      <trkpt lat="46.2866" lon="1.69993">
        <ele>417.2</ele>
        <time>2022-07-09T07:42:17Z</time>
      </trkpt>
      <trkpt lat="46.28659" lon="1.70001">
        <ele>417.6</ele>
        <time>2022-07-09T07:42:21Z</time>
      </trkpt>
      <trkpt lat="46.28659" lon="1.70011">
        <ele>418.6</ele>
        <time>2022-07-09T07:42:28Z</time>
      </trkpt>
      <trkpt lat="46.28658" lon="1.70013">
        <ele>418.8</ele>
        <time>2022-07-09T07:42:29Z</time>
      </trkpt>
      <trkpt lat="46.28658" lon="1.70015">
        <ele>419.2</ele>
        <time>2022-07-09T07:42:30Z</time>
      </trkpt>
      <trkpt lat="46.28658" lon="1.70015">
        <ele>419.4</ele>
        <time>2022-07-09T07:42:31Z</time>
      </trkpt>
      <trkpt lat="46.28659" lon="1.70024">
        <ele>419.8</ele>
        <time>2022-07-09T07:42:35Z</time>
      </trkpt>
      <trkpt lat="46.28659" lon="1.70028">
        <ele>420</ele>
        <time>2022-07-09T07:42:36Z</time>
      </trkpt>
      <trkpt lat="46.2866" lon="1.7004">
        <ele>420.4</ele>
        <time>2022-07-09T07:42:39Z</time>
      </trkpt>
      <trkpt lat="46.2866" lon="1.70043">
        <ele>420.6</ele>
        <time>2022-07-09T07:42:41Z</time>
      </trkpt>
      <trkpt lat="46.28654" lon="1.70066">
        <ele>421</ele>
        <time>2022-07-09T07:42:46Z</time>
      </trkpt>
      <trkpt lat="46.28654" lon="1.70068">
        <ele>421</ele>
        <time>2022-07-09T07:42:47Z</time>
      </trkpt>
      <trkpt lat="46.28656" lon="1.70072">
        <ele>421.2</ele>
        <time>2022-07-09T07:42:50Z</time>
      </trkpt>
      <trkpt lat="46.28656" lon="1.70072">
        <ele>421.4</ele>
        <time>2022-07-09T07:42:57Z</time>
      </trkpt>
      <trkpt lat="46.28657" lon="1.70072">
        <ele>421.6</ele>
        <time>2022-07-09T07:43:46Z</time>
      </trkpt>
      <trkpt lat="46.28659" lon="1.7007">
        <ele>421.6</ele>
        <time>2022-07-09T07:43:47Z</time>
      </trkpt>
      <trkpt lat="46.28661" lon="1.70064">
        <ele>421.6</ele>
        <time>2022-07-09T07:43:49Z</time>
      </trkpt>
      <trkpt lat="46.28663" lon="1.70048">
        <ele>421.4</ele>
        <time>2022-07-09T07:43:54Z</time>
      </trkpt>
      <trkpt lat="46.28668" lon="1.70039">
        <ele>421</ele>
        <time>2022-07-09T07:43:59Z</time>
      </trkpt>
      <trkpt lat="46.28668" lon="1.70039">
        <ele>420.4</ele>
        <time>2022-07-09T07:44:01Z</time>
      </trkpt>
      <trkpt lat="46.28668" lon="1.70039">
        <ele>420</ele>
        <time>2022-07-09T07:44:03Z</time>
      </trkpt>
      <trkpt lat="46.28668" lon="1.70039">
        <ele>419.8</ele>
        <time>2022-07-09T07:44:04Z</time>
      </trkpt>
      <trkpt lat="46.28668" lon="1.70039">
        <ele>419.6</ele>
        <time>2022-07-09T07:44:06Z</time>
      </trkpt>
      <trkpt lat="46.28668" lon="1.70039">
        <ele>419.4</ele>
        <time>2022-07-09T07:44:09Z</time>
      </trkpt>
      <trkpt lat="46.28667" lon="1.70039">
        <ele>418.8</ele>
        <time>2022-07-09T07:49:48Z</time>
      </trkpt>
      <trkpt lat="46.28669" lon="1.70041">
        <ele>418.8</ele>
        <time>2022-07-09T07:49:50Z</time>
      </trkpt>
      <trkpt lat="46.28671" lon="1.70044">
        <ele>418.6</ele>
        <time>2022-07-09T07:49:53Z</time>
      </trkpt>
      <trkpt lat="46.28675" lon="1.70049">
        <ele>418.2</ele>
        <time>2022-07-09T07:49:55Z</time>
      </trkpt>
      <trkpt lat="46.28676" lon="1.70051">
        <ele>417.8</ele>
        <time>2022-07-09T07:49:56Z</time>
      </trkpt>
      <trkpt lat="46.2868" lon="1.70056">
        <ele>417.4</ele>
        <time>2022-07-09T07:49:58Z</time>
      </trkpt>
      <trkpt lat="46.28686" lon="1.7006">
        <ele>417</ele>
        <time>2022-07-09T07:50:00Z</time>
      </trkpt>
      <trkpt lat="46.28689" lon="1.70062">
        <ele>416.8</ele>
        <time>2022-07-09T07:50:01Z</time>
      </trkpt>
      <trkpt lat="46.28698" lon="1.70069">
        <ele>416.4</ele>
        <time>2022-07-09T07:50:04Z</time>
      </trkpt>
      <trkpt lat="46.28703" lon="1.70071">
        <ele>416.2</ele>
        <time>2022-07-09T07:50:05Z</time>
      </trkpt>
      <trkpt lat="46.28728" lon="1.70076">
        <ele>415.6</ele>
        <time>2022-07-09T07:50:09Z</time>
      </trkpt>
      <trkpt lat="46.2874" lon="1.7008">
        <ele>415.2</ele>
        <time>2022-07-09T07:50:12Z</time>
      </trkpt>
      <trkpt lat="46.28749" lon="1.70081">
        <ele>414.6</ele>
        <time>2022-07-09T07:50:15Z</time>
      </trkpt>
      <trkpt lat="46.28753" lon="1.7008">
        <ele>414.4</ele>
        <time>2022-07-09T07:50:16Z</time>
      </trkpt>
      <trkpt lat="46.28755" lon="1.7008">
        <ele>414.2</ele>
        <time>2022-07-09T07:50:17Z</time>
      </trkpt>
      <trkpt lat="46.28761" lon="1.70081">
        <ele>413.6</ele>
        <time>2022-07-09T07:50:21Z</time>
      </trkpt>
      <trkpt lat="46.28767" lon="1.70079">
        <ele>412.2</ele>
        <time>2022-07-09T07:50:27Z</time>
      </trkpt>
      <trkpt lat="46.28771" lon="1.70079">
        <ele>411.2</ele>
        <time>2022-07-09T07:50:34Z</time>
      </trkpt>
      <trkpt lat="46.28775" lon="1.7008">
        <ele>410.8</ele>
        <time>2022-07-09T07:50:36Z</time>
      </trkpt>
      <trkpt lat="46.28777" lon="1.7008">
        <ele>409.8</ele>
        <time>2022-07-09T07:50:40Z</time>
      </trkpt>
      <trkpt lat="46.28782" lon="1.7008">
        <ele>408.8</ele>
        <time>2022-07-09T07:50:51Z</time>
      </trkpt>
      <trkpt lat="46.28787" lon="1.7008">
        <ele>408.6</ele>
        <time>2022-07-09T07:50:53Z</time>
      </trkpt>
      <trkpt lat="46.28799" lon="1.70081">
        <ele>408.4</ele>
        <time>2022-07-09T07:50:55Z</time>
      </trkpt>
      <trkpt lat="46.28806" lon="1.70084">
        <ele>408.2</ele>
        <time>2022-07-09T07:50:56Z</time>
      </trkpt>
      <trkpt lat="46.28822" lon="1.70092">
        <ele>407.4</ele>
        <time>2022-07-09T07:50:58Z</time>
      </trkpt>
      <trkpt lat="46.28838" lon="1.70101">
        <ele>406.6</ele>
        <time>2022-07-09T07:51:00Z</time>
      </trkpt>
      <trkpt lat="46.28856" lon="1.70109">
        <ele>406.2</ele>
        <time>2022-07-09T07:51:02Z</time>
      </trkpt>
      <trkpt lat="46.28865" lon="1.70114">
        <ele>406.2</ele>
        <time>2022-07-09T07:51:03Z</time>
      </trkpt>
      <trkpt lat="46.28879" lon="1.70126">
        <ele>405</ele>
        <time>2022-07-09T07:51:05Z</time>
      </trkpt>
      <trkpt lat="46.28893" lon="1.7014">
        <ele>403.6</ele>
        <time>2022-07-09T07:51:07Z</time>
      </trkpt>
      <trkpt lat="46.28896" lon="1.70148">
        <ele>403</ele>
        <time>2022-07-09T07:51:08Z</time>
      </trkpt>
      <trkpt lat="46.28897" lon="1.70156">
        <ele>402.2</ele>
        <time>2022-07-09T07:51:09Z</time>
      </trkpt>
      <trkpt lat="46.28898" lon="1.70171">
        <ele>401.2</ele>
        <time>2022-07-09T07:51:11Z</time>
      </trkpt>
      <trkpt lat="46.28898" lon="1.70176">
        <ele>401</ele>
        <time>2022-07-09T07:51:12Z</time>
      </trkpt>
      <trkpt lat="46.28899" lon="1.70188">
        <ele>400.8</ele>
        <time>2022-07-09T07:51:15Z</time>
      </trkpt>
      <trkpt lat="46.289" lon="1.7021">
        <ele>401</ele>
        <time>2022-07-09T07:51:20Z</time>
      </trkpt>
      <trkpt lat="46.28903" lon="1.70233">
        <ele>401.6</ele>
        <time>2022-07-09T07:51:26Z</time>
      </trkpt>
      <trkpt lat="46.28903" lon="1.7024">
        <ele>402.2</ele>
        <time>2022-07-09T07:51:28Z</time>
      </trkpt>
      <trkpt lat="46.28901" lon="1.70266">
        <ele>403.4</ele>
        <time>2022-07-09T07:51:35Z</time>
      </trkpt>
      <trkpt lat="46.28896" lon="1.70285">
        <ele>404</ele>
        <time>2022-07-09T07:51:41Z</time>
      </trkpt>
      <trkpt lat="46.28887" lon="1.70298">
        <ele>404.4</ele>
        <time>2022-07-09T07:51:46Z</time>
      </trkpt>
      <trkpt lat="46.28883" lon="1.70305">
        <ele>404.6</ele>
        <time>2022-07-09T07:51:48Z</time>
      </trkpt>
      <trkpt lat="46.28875" lon="1.7032">
        <ele>405</ele>
        <time>2022-07-09T07:51:52Z</time>
      </trkpt>
      <trkpt lat="46.28867" lon="1.70332">
        <ele>405.6</ele>
        <time>2022-07-09T07:51:56Z</time>
      </trkpt>
      <trkpt lat="46.28858" lon="1.70347">
        <ele>406.4</ele>
        <time>2022-07-09T07:52:01Z</time>
      </trkpt>
      <trkpt lat="46.28854" lon="1.70353">
        <ele>406.8</ele>
        <time>2022-07-09T07:52:03Z</time>
      </trkpt>
      <trkpt lat="46.28843" lon="1.70369">
        <ele>407.8</ele>
        <time>2022-07-09T07:52:09Z</time>
      </trkpt>
      <trkpt lat="46.28841" lon="1.70372">
        <ele>408</ele>
        <time>2022-07-09T07:52:10Z</time>
      </trkpt>
      <trkpt lat="46.28839" lon="1.70375">
        <ele>408.2</ele>
        <time>2022-07-09T07:52:11Z</time>
      </trkpt>
      <trkpt lat="46.28829" lon="1.70389">
        <ele>408.8</ele>
        <time>2022-07-09T07:52:16Z</time>
      </trkpt>
      <trkpt lat="46.28826" lon="1.70395">
        <ele>409</ele>
        <time>2022-07-09T07:52:18Z</time>
      </trkpt>
      <trkpt lat="46.2881" lon="1.70419">
        <ele>409.8</ele>
        <time>2022-07-09T07:52:26Z</time>
      </trkpt>
      <trkpt lat="46.28807" lon="1.70422">
        <ele>410</ele>
        <time>2022-07-09T07:52:27Z</time>
      </trkpt>
      <trkpt lat="46.28788" lon="1.70449">
        <ele>410.4</ele>
        <time>2022-07-09T07:52:35Z</time>
      </trkpt>
      <trkpt lat="46.2878" lon="1.70464">
        <ele>410.4</ele>
        <time>2022-07-09T07:52:38Z</time>
      </trkpt>
      <trkpt lat="46.28773" lon="1.70476">
        <ele>410</ele>
        <time>2022-07-09T07:52:40Z</time>
      </trkpt>
      <trkpt lat="46.28752" lon="1.7051">
        <ele>409.2</ele>
        <time>2022-07-09T07:52:45Z</time>
      </trkpt>
      <trkpt lat="46.28742" lon="1.70528">
        <ele>408.6</ele>
        <time>2022-07-09T07:52:47Z</time>
      </trkpt>
      <trkpt lat="46.28728" lon="1.70559">
        <ele>407.4</ele>
        <time>2022-07-09T07:52:50Z</time>
      </trkpt>
      <trkpt lat="46.28707" lon="1.70602">
        <ele>405.8</ele>
        <time>2022-07-09T07:52:54Z</time>
      </trkpt>
      <trkpt lat="46.28695" lon="1.70618">
        <ele>404.6</ele>
        <time>2022-07-09T07:52:56Z</time>
      </trkpt>
      <trkpt lat="46.28684" lon="1.70632">
        <ele>403.4</ele>
        <time>2022-07-09T07:52:58Z</time>
      </trkpt>
      <trkpt lat="46.28675" lon="1.70643">
        <ele>402.2</ele>
        <time>2022-07-09T07:53:00Z</time>
      </trkpt>
      <trkpt lat="46.28666" lon="1.70656">
        <ele>401.2</ele>
        <time>2022-07-09T07:53:02Z</time>
      </trkpt>
      <trkpt lat="46.28663" lon="1.70664">
        <ele>400.4</ele>
        <time>2022-07-09T07:53:03Z</time>
      </trkpt>
      <trkpt lat="46.28659" lon="1.70672">
        <ele>399.8</ele>
        <time>2022-07-09T07:53:04Z</time>
      </trkpt>
      <trkpt lat="46.28657" lon="1.70681">
        <ele>399.2</ele>
        <time>2022-07-09T07:53:05Z</time>
      </trkpt>
      <trkpt lat="46.28655" lon="1.7069">
        <ele>398.8</ele>
        <time>2022-07-09T07:53:06Z</time>
      </trkpt>
      <trkpt lat="46.28653" lon="1.70697">
        <ele>398.2</ele>
        <time>2022-07-09T07:53:07Z</time>
      </trkpt>
      <trkpt lat="46.28652" lon="1.70703">
        <ele>397.4</ele>
        <time>2022-07-09T07:53:08Z</time>
      </trkpt>
      <trkpt lat="46.28652" lon="1.70708">
        <ele>396.8</ele>
        <time>2022-07-09T07:53:09Z</time>
      </trkpt>
      <trkpt lat="46.2865" lon="1.70712">
        <ele>395.8</ele>
        <time>2022-07-09T07:53:10Z</time>
      </trkpt>
      <trkpt lat="46.28643" lon="1.70716">
        <ele>394.4</ele>
        <time>2022-07-09T07:53:12Z</time>
      </trkpt>
      <trkpt lat="46.28633" lon="1.70719">
        <ele>393</ele>
        <time>2022-07-09T07:53:14Z</time>
      </trkpt>
      <trkpt lat="46.28621" lon="1.70722">
        <ele>391.6</ele>
        <time>2022-07-09T07:53:16Z</time>
      </trkpt>
      <trkpt lat="46.28611" lon="1.7073">
        <ele>390.6</ele>
        <time>2022-07-09T07:53:18Z</time>
      </trkpt>
      <trkpt lat="46.28604" lon="1.7074">
        <ele>389.6</ele>
        <time>2022-07-09T07:53:20Z</time>
      </trkpt>
      <trkpt lat="46.28602" lon="1.70748">
        <ele>389.2</ele>
        <time>2022-07-09T07:53:21Z</time>
      </trkpt>
      <trkpt lat="46.286" lon="1.70756">
        <ele>388.2</ele>
        <time>2022-07-09T07:53:22Z</time>
      </trkpt>
      <trkpt lat="46.286" lon="1.70766">
        <ele>387.6</ele>
        <time>2022-07-09T07:53:23Z</time>
      </trkpt>
      <trkpt lat="46.286" lon="1.70778">
        <ele>386.8</ele>
        <time>2022-07-09T07:53:24Z</time>
      </trkpt>
      <trkpt lat="46.286" lon="1.70788">
        <ele>386.2</ele>
        <time>2022-07-09T07:53:25Z</time>
      </trkpt>
      <trkpt lat="46.28602" lon="1.70799">
        <ele>385.8</ele>
        <time>2022-07-09T07:53:26Z</time>
      </trkpt>
      <trkpt lat="46.28605" lon="1.70808">
        <ele>384.8</ele>
        <time>2022-07-09T07:53:27Z</time>
      </trkpt>
      <trkpt lat="46.28606" lon="1.70817">
        <ele>384.2</ele>
        <time>2022-07-09T07:53:28Z</time>
      </trkpt>
      <trkpt lat="46.28608" lon="1.70828">
        <ele>383.4</ele>
        <time>2022-07-09T07:53:29Z</time>
      </trkpt>
      <trkpt lat="46.28616" lon="1.70847">
        <ele>382.4</ele>
        <time>2022-07-09T07:53:31Z</time>
      </trkpt>
      <trkpt lat="46.2862" lon="1.70855">
        <ele>381.8</ele>
        <time>2022-07-09T07:53:32Z</time>
      </trkpt>
      <trkpt lat="46.2863" lon="1.70868">
        <ele>381</ele>
        <time>2022-07-09T07:53:34Z</time>
      </trkpt>
      <trkpt lat="46.2864" lon="1.70876">
        <ele>380.6</ele>
        <time>2022-07-09T07:53:36Z</time>
      </trkpt>
      <trkpt lat="46.28649" lon="1.70887">
        <ele>380.2</ele>
        <time>2022-07-09T07:53:38Z</time>
      </trkpt>
      <trkpt lat="46.28652" lon="1.70894">
        <ele>379.8</ele>
        <time>2022-07-09T07:53:39Z</time>
      </trkpt>
      <trkpt lat="46.28653" lon="1.70903">
        <ele>379.8</ele>
        <time>2022-07-09T07:53:40Z</time>
      </trkpt>
      <trkpt lat="46.28653" lon="1.70919">
        <ele>379.4</ele>
        <time>2022-07-09T07:53:42Z</time>
      </trkpt>
      <trkpt lat="46.28653" lon="1.70926">
        <ele>379</ele>
        <time>2022-07-09T07:53:43Z</time>
      </trkpt>
      <trkpt lat="46.28653" lon="1.7094">
        <ele>378.6</ele>
        <time>2022-07-09T07:53:45Z</time>
      </trkpt>
      <trkpt lat="46.28653" lon="1.70952">
        <ele>378.4</ele>
        <time>2022-07-09T07:53:47Z</time>
      </trkpt>
      <trkpt lat="46.28652" lon="1.70963">
        <ele>378.4</ele>
        <time>2022-07-09T07:53:49Z</time>
      </trkpt>
      <trkpt lat="46.2865" lon="1.70986">
        <ele>378.6</ele>
        <time>2022-07-09T07:53:54Z</time>
      </trkpt>
      <trkpt lat="46.28652" lon="1.71001">
        <ele>379.2</ele>
        <time>2022-07-09T07:53:59Z</time>
      </trkpt>
      <trkpt lat="46.28652" lon="1.71009">
        <ele>379.8</ele>
        <time>2022-07-09T07:54:02Z</time>
      </trkpt>
      <trkpt lat="46.2865" lon="1.71017">
        <ele>380.4</ele>
        <time>2022-07-09T07:54:06Z</time>
      </trkpt>
      <trkpt lat="46.28649" lon="1.71019">
        <ele>381</ele>
        <time>2022-07-09T07:54:07Z</time>
      </trkpt>
      <trkpt lat="46.28648" lon="1.71027">
        <ele>381.4</ele>
        <time>2022-07-09T07:54:11Z</time>
      </trkpt>
      <trkpt lat="46.28648" lon="1.71029">
        <ele>381.6</ele>
        <time>2022-07-09T07:54:12Z</time>
      </trkpt>
      <trkpt lat="46.28649" lon="1.71033">
        <ele>382.2</ele>
        <time>2022-07-09T07:54:14Z</time>
      </trkpt>
      <trkpt lat="46.28652" lon="1.71035">
        <ele>382.4</ele>
        <time>2022-07-09T07:54:16Z</time>
      </trkpt>
      <trkpt lat="46.28651" lon="1.71045">
        <ele>383</ele>
        <time>2022-07-09T07:54:20Z</time>
      </trkpt>
      <trkpt lat="46.28651" lon="1.71046">
        <ele>383.4</ele>
        <time>2022-07-09T07:54:21Z</time>
      </trkpt>
      <trkpt lat="46.2865" lon="1.71048">
        <ele>383.6</ele>
        <time>2022-07-09T07:54:22Z</time>
      </trkpt>
      <trkpt lat="46.28649" lon="1.71051">
        <ele>384</ele>
        <time>2022-07-09T07:54:24Z</time>
      </trkpt>
      <trkpt lat="46.28648" lon="1.71056">
        <ele>384.2</ele>
        <time>2022-07-09T07:54:26Z</time>
      </trkpt>
      <trkpt lat="46.28648" lon="1.71059">
        <ele>384.6</ele>
        <time>2022-07-09T07:54:27Z</time>
      </trkpt>
      <trkpt lat="46.28645" lon="1.71073">
        <ele>385.6</ele>
        <time>2022-07-09T07:54:34Z</time>
      </trkpt>
      <trkpt lat="46.28644" lon="1.71087">
        <ele>386.6</ele>
        <time>2022-07-09T07:54:40Z</time>
      </trkpt>
      <trkpt lat="46.28646" lon="1.71091">
        <ele>387</ele>
        <time>2022-07-09T07:54:42Z</time>
      </trkpt>
      <trkpt lat="46.28645" lon="1.71099">
        <ele>387.6</ele>
        <time>2022-07-09T07:54:46Z</time>
      </trkpt>
      <trkpt lat="46.28645" lon="1.71101">
        <ele>387.6</ele>
        <time>2022-07-09T07:54:47Z</time>
      </trkpt>
      <trkpt lat="46.28645" lon="1.71104">
        <ele>388</ele>
        <time>2022-07-09T07:54:48Z</time>
      </trkpt>
      <trkpt lat="46.28644" lon="1.7111">
        <ele>388.8</ele>
        <time>2022-07-09T07:54:51Z</time>
      </trkpt>
      <trkpt lat="46.28644" lon="1.71113">
        <ele>388.8</ele>
        <time>2022-07-09T07:54:52Z</time>
      </trkpt>
      <trkpt lat="46.28647" lon="1.71121">
        <ele>389.4</ele>
        <time>2022-07-09T07:54:55Z</time>
      </trkpt>
      <trkpt lat="46.2865" lon="1.7113">
        <ele>389.8</ele>
        <time>2022-07-09T07:54:58Z</time>
      </trkpt>
      <trkpt lat="46.28652" lon="1.71136">
        <ele>390.2</ele>
        <time>2022-07-09T07:55:00Z</time>
      </trkpt>
      <trkpt lat="46.28662" lon="1.71164">
        <ele>390.6</ele>
        <time>2022-07-09T07:55:08Z</time>
      </trkpt>
      <trkpt lat="46.28671" lon="1.71196">
        <ele>390.6</ele>
        <time>2022-07-09T07:55:15Z</time>
      </trkpt>
      <trkpt lat="46.28675" lon="1.71219">
        <ele>390.6</ele>
        <time>2022-07-09T07:55:19Z</time>
      </trkpt>
      <trkpt lat="46.28676" lon="1.71226">
        <ele>390.6</ele>
        <time>2022-07-09T07:55:20Z</time>
      </trkpt>
      <trkpt lat="46.28678" lon="1.71234">
        <ele>390.4</ele>
        <time>2022-07-09T07:55:21Z</time>
      </trkpt>
      <trkpt lat="46.28688" lon="1.71256">
        <ele>390</ele>
        <time>2022-07-09T07:55:24Z</time>
      </trkpt>
      <trkpt lat="46.28702" lon="1.71277">
        <ele>388.8</ele>
        <time>2022-07-09T07:55:28Z</time>
      </trkpt>
      <trkpt lat="46.28705" lon="1.71279">
        <ele>388.8</ele>
        <time>2022-07-09T07:55:29Z</time>
      </trkpt>
      <trkpt lat="46.28718" lon="1.71293">
        <ele>388.2</ele>
        <time>2022-07-09T07:55:34Z</time>
      </trkpt>
      <trkpt lat="46.28723" lon="1.71298">
        <ele>388.6</ele>
        <time>2022-07-09T07:55:36Z</time>
      </trkpt>
      <trkpt lat="46.28738" lon="1.71314">
        <ele>389</ele>
        <time>2022-07-09T07:55:42Z</time>
      </trkpt>
      <trkpt lat="46.28754" lon="1.71336">
        <ele>389.6</ele>
        <time>2022-07-09T07:55:49Z</time>
      </trkpt>
      <trkpt lat="46.28763" lon="1.71352">
        <ele>389.8</ele>
        <time>2022-07-09T07:55:54Z</time>
      </trkpt>
      <trkpt lat="46.28768" lon="1.71364">
        <ele>390</ele>
        <time>2022-07-09T07:55:57Z</time>
      </trkpt>
      <trkpt lat="46.28779" lon="1.71393">
        <ele>390.4</ele>
        <time>2022-07-09T07:56:04Z</time>
      </trkpt>
      <trkpt lat="46.2879" lon="1.71426">
        <ele>391</ele>
        <time>2022-07-09T07:56:11Z</time>
      </trkpt>
      <trkpt lat="46.28794" lon="1.71435">
        <ele>391</ele>
        <time>2022-07-09T07:56:13Z</time>
      </trkpt>
      <trkpt lat="46.28809" lon="1.71467">
        <ele>390.8</ele>
        <time>2022-07-09T07:56:20Z</time>
      </trkpt>
      <trkpt lat="46.28826" lon="1.71504">
        <ele>390.6</ele>
        <time>2022-07-09T07:56:29Z</time>
      </trkpt>
      <trkpt lat="46.28829" lon="1.71512">
        <ele>390.6</ele>
        <time>2022-07-09T07:56:32Z</time>
      </trkpt>
      <trkpt lat="46.28831" lon="1.71515">
        <ele>390.6</ele>
        <time>2022-07-09T07:56:33Z</time>
      </trkpt>
      <trkpt lat="46.28841" lon="1.71534">
        <ele>390.6</ele>
        <time>2022-07-09T07:56:38Z</time>
      </trkpt>
      <trkpt lat="46.28853" lon="1.71552">
        <ele>390.2</ele>
        <time>2022-07-09T07:56:43Z</time>
      </trkpt>
      <trkpt lat="46.2886" lon="1.71568">
        <ele>389</ele>
        <time>2022-07-09T07:56:47Z</time>
      </trkpt>
      <trkpt lat="46.28866" lon="1.71582">
        <ele>388</ele>
        <time>2022-07-09T07:56:50Z</time>
      </trkpt>
      <trkpt lat="46.28869" lon="1.71592">
        <ele>387.2</ele>
        <time>2022-07-09T07:56:53Z</time>
      </trkpt>
      <trkpt lat="46.28869" lon="1.71594">
        <ele>387</ele>
        <time>2022-07-09T07:56:54Z</time>
      </trkpt>
      <trkpt lat="46.2887" lon="1.71597">
        <ele>386.8</ele>
        <time>2022-07-09T07:56:55Z</time>
      </trkpt>
      <trkpt lat="46.28871" lon="1.71599">
        <ele>386.6</ele>
        <time>2022-07-09T07:56:56Z</time>
      </trkpt>
      <trkpt lat="46.28872" lon="1.71604">
        <ele>386.2</ele>
        <time>2022-07-09T07:56:58Z</time>
      </trkpt>
      <trkpt lat="46.28873" lon="1.71607">
        <ele>386</ele>
        <time>2022-07-09T07:56:59Z</time>
      </trkpt>
      <trkpt lat="46.28876" lon="1.71611">
        <ele>385.8</ele>
        <time>2022-07-09T07:57:01Z</time>
      </trkpt>
      <trkpt lat="46.28877" lon="1.71612">
        <ele>385.8</ele>
        <time>2022-07-09T07:57:02Z</time>
      </trkpt>
      <trkpt lat="46.28879" lon="1.71613">
        <ele>385.8</ele>
        <time>2022-07-09T07:57:03Z</time>
      </trkpt>
      <trkpt lat="46.28879" lon="1.71613">
        <ele>385.2</ele>
        <time>2022-07-09T07:57:05Z</time>
      </trkpt>
      <trkpt lat="46.28882" lon="1.71614">
        <ele>384.4</ele>
        <time>2022-07-09T07:57:17Z</time>
      </trkpt>
      <trkpt lat="46.28883" lon="1.71615">
        <ele>384.4</ele>
        <time>2022-07-09T07:57:18Z</time>
      </trkpt>
      <trkpt lat="46.28892" lon="1.71616">
        <ele>384.2</ele>
        <time>2022-07-09T07:57:26Z</time>
      </trkpt>
      <trkpt lat="46.28903" lon="1.71623">
        <ele>384</ele>
        <time>2022-07-09T07:57:34Z</time>
      </trkpt>
      <trkpt lat="46.28904" lon="1.71623">
        <ele>384</ele>
        <time>2022-07-09T07:57:36Z</time>
      </trkpt>
      <trkpt lat="46.28904" lon="1.71623">
        <ele>384.2</ele>
        <time>2022-07-09T07:57:40Z</time>
      </trkpt>
      <trkpt lat="46.28904" lon="1.71623">
        <ele>384.2</ele>
        <time>2022-07-09T07:57:41Z</time>
      </trkpt>
      <trkpt lat="46.28906" lon="1.71624">
        <ele>384.4</ele>
        <time>2022-07-09T07:57:46Z</time>
      </trkpt>
      <trkpt lat="46.28912" lon="1.71627">
        <ele>385.2</ele>
        <time>2022-07-09T07:57:54Z</time>
      </trkpt>
      <trkpt lat="46.28918" lon="1.71627">
        <ele>385.4</ele>
        <time>2022-07-09T07:57:56Z</time>
      </trkpt>
      <trkpt lat="46.28927" lon="1.71633">
        <ele>386.8</ele>
        <time>2022-07-09T07:58:00Z</time>
      </trkpt>
      <trkpt lat="46.2893" lon="1.71635">
        <ele>386.8</ele>
        <time>2022-07-09T07:58:01Z</time>
      </trkpt>
      <trkpt lat="46.28932" lon="1.71636">
        <ele>387.2</ele>
        <time>2022-07-09T07:58:02Z</time>
      </trkpt>
      <trkpt lat="46.28937" lon="1.71642">
        <ele>387.6</ele>
        <time>2022-07-09T07:58:05Z</time>
      </trkpt>
      <trkpt lat="46.28938" lon="1.71644">
        <ele>388</ele>
        <time>2022-07-09T07:58:06Z</time>
      </trkpt>
      <trkpt lat="46.28943" lon="1.71649">
        <ele>388.2</ele>
        <time>2022-07-09T07:58:08Z</time>
      </trkpt>
      <trkpt lat="46.28964" lon="1.71672">
        <ele>388.6</ele>
        <time>2022-07-09T07:58:15Z</time>
      </trkpt>
      <trkpt lat="46.28976" lon="1.71686">
        <ele>389</ele>
        <time>2022-07-09T07:58:20Z</time>
      </trkpt>
      <trkpt lat="46.2898" lon="1.71691">
        <ele>389</ele>
        <time>2022-07-09T07:58:22Z</time>
      </trkpt>
      <trkpt lat="46.2899" lon="1.71703">
        <ele>389.6</ele>
        <time>2022-07-09T07:58:28Z</time>
      </trkpt>
      <trkpt lat="46.29" lon="1.71711">
        <ele>389.6</ele>
        <time>2022-07-09T07:58:33Z</time>
      </trkpt>
      <trkpt lat="46.29003" lon="1.71715">
        <ele>389.8</ele>
        <time>2022-07-09T07:58:35Z</time>
      </trkpt>
      <trkpt lat="46.29007" lon="1.7172">
        <ele>389.8</ele>
        <time>2022-07-09T07:58:37Z</time>
      </trkpt>
      <trkpt lat="46.29028" lon="1.71742">
        <ele>389</ele>
        <time>2022-07-09T07:58:45Z</time>
      </trkpt>
      <trkpt lat="46.29049" lon="1.71766">
        <ele>388.6</ele>
        <time>2022-07-09T07:58:52Z</time>
      </trkpt>
      <trkpt lat="46.29068" lon="1.71784">
        <ele>388.2</ele>
        <time>2022-07-09T07:58:58Z</time>
      </trkpt>
      <trkpt lat="46.2908" lon="1.71789">
        <ele>388</ele>
        <time>2022-07-09T07:59:01Z</time>
      </trkpt>
      <trkpt lat="46.29081" lon="1.71791">
        <ele>388</ele>
        <time>2022-07-09T07:59:02Z</time>
      </trkpt>
      <trkpt lat="46.29093" lon="1.71803">
        <ele>387.8</ele>
        <time>2022-07-09T07:59:07Z</time>
      </trkpt>
      <trkpt lat="46.29103" lon="1.71818">
        <ele>387.8</ele>
        <time>2022-07-09T07:59:12Z</time>
      </trkpt>
      <trkpt lat="46.29124" lon="1.71844">
        <ele>387.4</ele>
        <time>2022-07-09T07:59:19Z</time>
      </trkpt>
      <trkpt lat="46.29136" lon="1.71858">
        <ele>387.2</ele>
        <time>2022-07-09T07:59:24Z</time>
      </trkpt>
      <trkpt lat="46.2914" lon="1.71862">
        <ele>387.2</ele>
        <time>2022-07-09T07:59:26Z</time>
      </trkpt>
      <trkpt lat="46.29148" lon="1.71873">
        <ele>387</ele>
        <time>2022-07-09T07:59:29Z</time>
      </trkpt>
      <trkpt lat="46.29162" lon="1.7189">
        <ele>386.6</ele>
        <time>2022-07-09T07:59:36Z</time>
      </trkpt>
      <trkpt lat="46.29171" lon="1.71902">
        <ele>386.6</ele>
        <time>2022-07-09T07:59:40Z</time>
      </trkpt>
      <trkpt lat="46.2918" lon="1.71911">
        <ele>386.6</ele>
        <time>2022-07-09T07:59:44Z</time>
      </trkpt>
      <trkpt lat="46.29186" lon="1.71921">
        <ele>386.8</ele>
        <time>2022-07-09T07:59:46Z</time>
      </trkpt>
      <trkpt lat="46.29193" lon="1.71931">
        <ele>386.8</ele>
        <time>2022-07-09T07:59:50Z</time>
      </trkpt>
      <trkpt lat="46.29199" lon="1.71951">
        <ele>386.8</ele>
        <time>2022-07-09T07:59:54Z</time>
      </trkpt>
      <trkpt lat="46.29195" lon="1.71976">
        <ele>387</ele>
        <time>2022-07-09T07:59:59Z</time>
      </trkpt>
      <trkpt lat="46.29192" lon="1.72022">
        <ele>387.2</ele>
        <time>2022-07-09T08:00:07Z</time>
      </trkpt>
      <trkpt lat="46.29189" lon="1.72081">
        <ele>387</ele>
        <time>2022-07-09T08:00:16Z</time>
      </trkpt>
      <trkpt lat="46.29184" lon="1.7216">
        <ele>386.4</ele>
        <time>2022-07-09T08:00:28Z</time>
      </trkpt>
      <trkpt lat="46.29183" lon="1.72166">
        <ele>386.4</ele>
        <time>2022-07-09T08:00:29Z</time>
      </trkpt>
      <trkpt lat="46.29182" lon="1.72185">
        <ele>386</ele>
        <time>2022-07-09T08:00:32Z</time>
      </trkpt>
      <trkpt lat="46.29183" lon="1.72219">
        <ele>385.8</ele>
        <time>2022-07-09T08:00:37Z</time>
      </trkpt>
      <trkpt lat="46.29184" lon="1.72227">
        <ele>385.8</ele>
        <time>2022-07-09T08:00:38Z</time>
      </trkpt>
      <trkpt lat="46.29186" lon="1.72253">
        <ele>385.2</ele>
        <time>2022-07-09T08:00:42Z</time>
      </trkpt>
      <trkpt lat="46.29184" lon="1.72259">
        <ele>385</ele>
        <time>2022-07-09T08:00:43Z</time>
      </trkpt>
      <trkpt lat="46.29182" lon="1.72265">
        <ele>384.8</ele>
        <time>2022-07-09T08:00:44Z</time>
      </trkpt>
      <trkpt lat="46.29176" lon="1.72276">
        <ele>384.4</ele>
        <time>2022-07-09T08:00:46Z</time>
      </trkpt>
      <trkpt lat="46.29156" lon="1.72317">
        <ele>384.2</ele>
        <time>2022-07-09T08:00:54Z</time>
      </trkpt>
      <trkpt lat="46.29149" lon="1.72355">
        <ele>384.4</ele>
        <time>2022-07-09T08:01:00Z</time>
      </trkpt>
      <trkpt lat="46.29143" lon="1.72415">
        <ele>385</ele>
        <time>2022-07-09T08:01:10Z</time>
      </trkpt>
      <trkpt lat="46.29141" lon="1.7242">
        <ele>385</ele>
        <time>2022-07-09T08:01:11Z</time>
      </trkpt>
      <trkpt lat="46.29137" lon="1.72462">
        <ele>385.8</ele>
        <time>2022-07-09T08:01:19Z</time>
      </trkpt>
      <trkpt lat="46.29132" lon="1.72489">
        <ele>386</ele>
        <time>2022-07-09T08:01:24Z</time>
      </trkpt>
      <trkpt lat="46.29126" lon="1.7252">
        <ele>386.4</ele>
        <time>2022-07-09T08:01:30Z</time>
      </trkpt>
      <trkpt lat="46.29118" lon="1.72553">
        <ele>387</ele>
        <time>2022-07-09T08:01:37Z</time>
      </trkpt>
      <trkpt lat="46.29115" lon="1.72561">
        <ele>387.4</ele>
        <time>2022-07-09T08:01:39Z</time>
      </trkpt>
      <trkpt lat="46.29103" lon="1.72585">
        <ele>388.2</ele>
        <time>2022-07-09T08:01:45Z</time>
      </trkpt>
      <trkpt lat="46.29096" lon="1.72595">
        <ele>389</ele>
        <time>2022-07-09T08:01:48Z</time>
      </trkpt>
      <trkpt lat="46.29086" lon="1.72605">
        <ele>389.6</ele>
        <time>2022-07-09T08:01:52Z</time>
      </trkpt>
      <trkpt lat="46.29077" lon="1.72611">
        <ele>390.2</ele>
        <time>2022-07-09T08:01:55Z</time>
      </trkpt>
      <trkpt lat="46.29069" lon="1.72624">
        <ele>391</ele>
        <time>2022-07-09T08:01:59Z</time>
      </trkpt>
      <trkpt lat="46.29066" lon="1.72632">
        <ele>391.4</ele>
        <time>2022-07-09T08:02:01Z</time>
      </trkpt>
      <trkpt lat="46.29053" lon="1.72661">
        <ele>392</ele>
        <time>2022-07-09T08:02:07Z</time>
      </trkpt>
      <trkpt lat="46.29049" lon="1.7267">
        <ele>392.4</ele>
        <time>2022-07-09T08:02:09Z</time>
      </trkpt>
      <trkpt lat="46.29034" lon="1.72725">
        <ele>393.2</ele>
        <time>2022-07-09T08:02:20Z</time>
      </trkpt>
      <trkpt lat="46.29025" lon="1.72777">
        <ele>393.8</ele>
        <time>2022-07-09T08:02:29Z</time>
      </trkpt>
      <trkpt lat="46.29015" lon="1.72807">
        <ele>394.2</ele>
        <time>2022-07-09T08:02:35Z</time>
      </trkpt>
      <trkpt lat="46.2901" lon="1.72816">
        <ele>394.6</ele>
        <time>2022-07-09T08:02:37Z</time>
      </trkpt>
      <trkpt lat="46.2899" lon="1.72842">
        <ele>394.8</ele>
        <time>2022-07-09T08:02:44Z</time>
      </trkpt>
      <trkpt lat="46.28977" lon="1.72856">
        <ele>395.2</ele>
        <time>2022-07-09T08:02:48Z</time>
      </trkpt>
      <trkpt lat="46.2895" lon="1.72882">
        <ele>395.4</ele>
        <time>2022-07-09T08:02:56Z</time>
      </trkpt>
      <trkpt lat="46.28909" lon="1.72923">
        <ele>395</ele>
        <time>2022-07-09T08:03:06Z</time>
      </trkpt>
      <trkpt lat="46.28867" lon="1.72954">
        <ele>394.4</ele>
        <time>2022-07-09T08:03:15Z</time>
      </trkpt>
      <trkpt lat="46.28855" lon="1.72958">
        <ele>394</ele>
        <time>2022-07-09T08:03:17Z</time>
      </trkpt>
      <trkpt lat="46.28837" lon="1.72962">
        <ele>393.6</ele>
        <time>2022-07-09T08:03:20Z</time>
      </trkpt>
      <trkpt lat="46.28824" lon="1.72963">
        <ele>393</ele>
        <time>2022-07-09T08:03:22Z</time>
      </trkpt>
      <trkpt lat="46.28793" lon="1.72966">
        <ele>392</ele>
        <time>2022-07-09T08:03:27Z</time>
      </trkpt>
      <trkpt lat="46.28754" lon="1.72972">
        <ele>391</ele>
        <time>2022-07-09T08:03:33Z</time>
      </trkpt>
      <trkpt lat="46.28748" lon="1.72975">
        <ele>390.8</ele>
        <time>2022-07-09T08:03:34Z</time>
      </trkpt>
      <trkpt lat="46.28743" lon="1.72978">
        <ele>390.6</ele>
        <time>2022-07-09T08:03:35Z</time>
      </trkpt>
      <trkpt lat="46.28732" lon="1.72987">
        <ele>390</ele>
        <time>2022-07-09T08:03:37Z</time>
      </trkpt>
      <trkpt lat="46.28708" lon="1.7301">
        <ele>389</ele>
        <time>2022-07-09T08:03:41Z</time>
      </trkpt>
      <trkpt lat="46.28702" lon="1.73015">
        <ele>388.6</ele>
        <time>2022-07-09T08:03:42Z</time>
      </trkpt>
      <trkpt lat="46.28672" lon="1.73045">
        <ele>387.4</ele>
        <time>2022-07-09T08:03:47Z</time>
      </trkpt>
      <trkpt lat="46.28666" lon="1.73051">
        <ele>387</ele>
        <time>2022-07-09T08:03:48Z</time>
      </trkpt>
      <trkpt lat="46.2866" lon="1.73058">
        <ele>386.2</ele>
        <time>2022-07-09T08:03:49Z</time>
      </trkpt>
      <trkpt lat="46.28647" lon="1.73073">
        <ele>385.4</ele>
        <time>2022-07-09T08:03:51Z</time>
      </trkpt>
      <trkpt lat="46.28642" lon="1.73082">
        <ele>385.2</ele>
        <time>2022-07-09T08:03:52Z</time>
      </trkpt>
      <trkpt lat="46.28638" lon="1.73091">
        <ele>384.6</ele>
        <time>2022-07-09T08:03:53Z</time>
      </trkpt>
      <trkpt lat="46.28633" lon="1.73108">
        <ele>383.6</ele>
        <time>2022-07-09T08:03:55Z</time>
      </trkpt>
      <trkpt lat="46.28631" lon="1.73118">
        <ele>383</ele>
        <time>2022-07-09T08:03:56Z</time>
      </trkpt>
      <trkpt lat="46.28629" lon="1.73137">
        <ele>382.6</ele>
        <time>2022-07-09T08:03:58Z</time>
      </trkpt>
      <trkpt lat="46.28627" lon="1.73146">
        <ele>382.4</ele>
        <time>2022-07-09T08:03:59Z</time>
      </trkpt>
      <trkpt lat="46.28625" lon="1.73167">
        <ele>381.8</ele>
        <time>2022-07-09T08:04:01Z</time>
      </trkpt>
      <trkpt lat="46.28626" lon="1.73178">
        <ele>381.6</ele>
        <time>2022-07-09T08:04:02Z</time>
      </trkpt>
      <trkpt lat="46.28627" lon="1.73188">
        <ele>381.4</ele>
        <time>2022-07-09T08:04:03Z</time>
      </trkpt>
      <trkpt lat="46.28629" lon="1.73232">
        <ele>380</ele>
        <time>2022-07-09T08:04:07Z</time>
      </trkpt>
      <trkpt lat="46.28629" lon="1.73243">
        <ele>379.8</ele>
        <time>2022-07-09T08:04:08Z</time>
      </trkpt>
      <trkpt lat="46.28628" lon="1.73252">
        <ele>379.4</ele>
        <time>2022-07-09T08:04:09Z</time>
      </trkpt>
      <trkpt lat="46.28629" lon="1.73271">
        <ele>379</ele>
        <time>2022-07-09T08:04:11Z</time>
      </trkpt>
      <trkpt lat="46.2863" lon="1.7328">
        <ele>379</ele>
        <time>2022-07-09T08:04:12Z</time>
      </trkpt>
      <trkpt lat="46.28633" lon="1.73298">
        <ele>378.8</ele>
        <time>2022-07-09T08:04:14Z</time>
      </trkpt>
      <trkpt lat="46.28633" lon="1.73318">
        <ele>378.6</ele>
        <time>2022-07-09T08:04:16Z</time>
      </trkpt>
      <trkpt lat="46.2863" lon="1.73339">
        <ele>378</ele>
        <time>2022-07-09T08:04:18Z</time>
      </trkpt>
      <trkpt lat="46.28628" lon="1.73347">
        <ele>377.8</ele>
        <time>2022-07-09T08:04:19Z</time>
      </trkpt>
      <trkpt lat="46.28625" lon="1.73362">
        <ele>377.6</ele>
        <time>2022-07-09T08:04:21Z</time>
      </trkpt>
      <trkpt lat="46.28623" lon="1.73368">
        <ele>377.6</ele>
        <time>2022-07-09T08:04:22Z</time>
      </trkpt>
      <trkpt lat="46.2862" lon="1.73374">
        <ele>377.4</ele>
        <time>2022-07-09T08:04:23Z</time>
      </trkpt>
      <trkpt lat="46.28612" lon="1.73402">
        <ele>377.2</ele>
        <time>2022-07-09T08:04:27Z</time>
      </trkpt>
      <trkpt lat="46.28609" lon="1.73409">
        <ele>377.2</ele>
        <time>2022-07-09T08:04:28Z</time>
      </trkpt>
      <trkpt lat="46.28603" lon="1.73428">
        <ele>377.4</ele>
        <time>2022-07-09T08:04:31Z</time>
      </trkpt>
      <trkpt lat="46.28592" lon="1.73456">
        <ele>377.8</ele>
        <time>2022-07-09T08:04:37Z</time>
      </trkpt>
      <trkpt lat="46.28592" lon="1.73464">
        <ele>378.8</ele>
        <time>2022-07-09T08:04:40Z</time>
      </trkpt>
      <trkpt lat="46.28587" lon="1.73466">
        <ele>379</ele>
        <time>2022-07-09T08:04:41Z</time>
      </trkpt>
      <trkpt lat="46.28584" lon="1.73469">
        <ele>379.4</ele>
        <time>2022-07-09T08:04:42Z</time>
      </trkpt>
      <trkpt lat="46.28583" lon="1.7347">
        <ele>380</ele>
        <time>2022-07-09T08:04:44Z</time>
      </trkpt>
      <trkpt lat="46.28582" lon="1.73473">
        <ele>380</ele>
        <time>2022-07-09T08:04:45Z</time>
      </trkpt>
      <trkpt lat="46.2858" lon="1.7348">
        <ele>380.4</ele>
        <time>2022-07-09T08:04:47Z</time>
      </trkpt>
      <trkpt lat="46.2858" lon="1.73487">
        <ele>380.8</ele>
        <time>2022-07-09T08:04:49Z</time>
      </trkpt>
      <trkpt lat="46.28577" lon="1.73494">
        <ele>381</ele>
        <time>2022-07-09T08:04:51Z</time>
      </trkpt>
      <trkpt lat="46.28576" lon="1.73498">
        <ele>381.2</ele>
        <time>2022-07-09T08:04:52Z</time>
      </trkpt>
      <trkpt lat="46.28574" lon="1.73501">
        <ele>381.4</ele>
        <time>2022-07-09T08:04:53Z</time>
      </trkpt>
      <trkpt lat="46.28568" lon="1.73516">
        <ele>382.2</ele>
        <time>2022-07-09T08:04:56Z</time>
      </trkpt>
      <trkpt lat="46.28568" lon="1.7352">
        <ele>382.2</ele>
        <time>2022-07-09T08:04:57Z</time>
      </trkpt>
      <trkpt lat="46.28564" lon="1.7353">
        <ele>382.2</ele>
        <time>2022-07-09T08:04:59Z</time>
      </trkpt>
      <trkpt lat="46.28554" lon="1.73561">
        <ele>383</ele>
        <time>2022-07-09T08:05:05Z</time>
      </trkpt>
      <trkpt lat="46.2855" lon="1.73569">
        <ele>383</ele>
        <time>2022-07-09T08:05:07Z</time>
      </trkpt>
      <trkpt lat="46.2854" lon="1.73589">
        <ele>383.6</ele>
        <time>2022-07-09T08:05:12Z</time>
      </trkpt>
      <trkpt lat="46.28542" lon="1.73615">
        <ele>383.8</ele>
        <time>2022-07-09T08:05:17Z</time>
      </trkpt>
      <trkpt lat="46.28536" lon="1.73633">
        <ele>384</ele>
        <time>2022-07-09T08:05:22Z</time>
      </trkpt>
      <trkpt lat="46.28536" lon="1.73635">
        <ele>384</ele>
        <time>2022-07-09T08:05:24Z</time>
      </trkpt>
      <trkpt lat="46.28536" lon="1.73637">
        <ele>384</ele>
        <time>2022-07-09T08:05:25Z</time>
      </trkpt>
      <trkpt lat="46.28536" lon="1.73638">
        <ele>384.2</ele>
        <time>2022-07-09T08:05:26Z</time>
      </trkpt>
      <trkpt lat="46.28535" lon="1.7365">
        <ele>384.8</ele>
        <time>2022-07-09T08:05:30Z</time>
      </trkpt>
      <trkpt lat="46.28535" lon="1.73657">
        <ele>385.2</ele>
        <time>2022-07-09T08:05:32Z</time>
      </trkpt>
      <trkpt lat="46.28534" lon="1.73666">
        <ele>385.2</ele>
        <time>2022-07-09T08:05:34Z</time>
      </trkpt>
      <trkpt lat="46.28532" lon="1.73672">
        <ele>385.2</ele>
        <time>2022-07-09T08:05:35Z</time>
      </trkpt>
      <trkpt lat="46.2853" lon="1.73691">
        <ele>385.2</ele>
        <time>2022-07-09T08:05:38Z</time>
      </trkpt>
      <trkpt lat="46.28529" lon="1.73697">
        <ele>385.2</ele>
        <time>2022-07-09T08:05:39Z</time>
      </trkpt>
      <trkpt lat="46.2852" lon="1.73714">
        <ele>384</ele>
        <time>2022-07-09T08:05:43Z</time>
      </trkpt>
      <trkpt lat="46.28521" lon="1.73721">
        <ele>383.8</ele>
        <time>2022-07-09T08:05:44Z</time>
      </trkpt>
      <trkpt lat="46.2852" lon="1.73725">
        <ele>383</ele>
        <time>2022-07-09T08:05:45Z</time>
      </trkpt>
      <trkpt lat="46.28518" lon="1.73733">
        <ele>382.8</ele>
        <time>2022-07-09T08:05:46Z</time>
      </trkpt>
      <trkpt lat="46.28516" lon="1.73739">
        <ele>382.4</ele>
        <time>2022-07-09T08:05:47Z</time>
      </trkpt>
      <trkpt lat="46.28508" lon="1.73756">
        <ele>381.6</ele>
        <time>2022-07-09T08:05:49Z</time>
      </trkpt>
      <trkpt lat="46.28503" lon="1.73771">
        <ele>380.6</ele>
        <time>2022-07-09T08:05:51Z</time>
      </trkpt>
      <trkpt lat="46.28492" lon="1.7379">
        <ele>379.8</ele>
        <time>2022-07-09T08:05:53Z</time>
      </trkpt>
      <trkpt lat="46.28487" lon="1.73797">
        <ele>379</ele>
        <time>2022-07-09T08:05:54Z</time>
      </trkpt>
      <trkpt lat="46.28474" lon="1.7383">
        <ele>378</ele>
        <time>2022-07-09T08:05:58Z</time>
      </trkpt>
      <trkpt lat="46.28475" lon="1.73835">
        <ele>377.8</ele>
        <time>2022-07-09T08:05:59Z</time>
      </trkpt>
      <trkpt lat="46.28481" lon="1.7385">
        <ele>377.2</ele>
        <time>2022-07-09T08:06:02Z</time>
      </trkpt>
      <trkpt lat="46.28479" lon="1.73855">
        <ele>376.8</ele>
        <time>2022-07-09T08:06:03Z</time>
      </trkpt>
      <trkpt lat="46.28474" lon="1.73875">
        <ele>376.4</ele>
        <time>2022-07-09T08:06:06Z</time>
      </trkpt>
      <trkpt lat="46.28474" lon="1.73892">
        <ele>376</ele>
        <time>2022-07-09T08:06:09Z</time>
      </trkpt>
      <trkpt lat="46.28472" lon="1.73897">
        <ele>376</ele>
        <time>2022-07-09T08:06:10Z</time>
      </trkpt>
      <trkpt lat="46.28456" lon="1.73924">
        <ele>376.2</ele>
        <time>2022-07-09T08:06:16Z</time>
      </trkpt>
      <trkpt lat="46.28444" lon="1.73941">
        <ele>375.8</ele>
        <time>2022-07-09T08:06:22Z</time>
      </trkpt>
      <trkpt lat="46.2844" lon="1.73952">
        <ele>375.6</ele>
        <time>2022-07-09T08:06:27Z</time>
      </trkpt>
      <trkpt lat="46.28432" lon="1.73966">
        <ele>375.6</ele>
        <time>2022-07-09T08:06:31Z</time>
      </trkpt>
      <trkpt lat="46.28424" lon="1.73978">
        <ele>375.4</ele>
        <time>2022-07-09T08:06:34Z</time>
      </trkpt>
      <trkpt lat="46.28418" lon="1.73987">
        <ele>375.4</ele>
        <time>2022-07-09T08:06:37Z</time>
      </trkpt>
      <trkpt lat="46.28398" lon="1.74015">
        <ele>375.4</ele>
        <time>2022-07-09T08:06:43Z</time>
      </trkpt>
      <trkpt lat="46.28377" lon="1.74035">
        <ele>375.2</ele>
        <time>2022-07-09T08:06:50Z</time>
      </trkpt>
      <trkpt lat="46.28361" lon="1.7406">
        <ele>375</ele>
        <time>2022-07-09T08:06:56Z</time>
      </trkpt>
      <trkpt lat="46.28341" lon="1.74076">
        <ele>375</ele>
        <time>2022-07-09T08:07:04Z</time>
      </trkpt>
      <trkpt lat="46.28336" lon="1.74079">
        <ele>375.2</ele>
        <time>2022-07-09T08:07:07Z</time>
      </trkpt>
      <trkpt lat="46.2833" lon="1.74083">
        <ele>375.2</ele>
        <time>2022-07-09T08:07:10Z</time>
      </trkpt>
      <trkpt lat="46.28311" lon="1.74097">
        <ele>375</ele>
        <time>2022-07-09T08:07:17Z</time>
      </trkpt>
      <trkpt lat="46.28291" lon="1.7411">
        <ele>374.8</ele>
        <time>2022-07-09T08:07:23Z</time>
      </trkpt>
      <trkpt lat="46.28288" lon="1.74111">
        <ele>374.8</ele>
        <time>2022-07-09T08:07:24Z</time>
      </trkpt>
      <trkpt lat="46.28284" lon="1.74115">
        <ele>374.6</ele>
        <time>2022-07-09T08:07:28Z</time>
      </trkpt>
      <trkpt lat="46.28276" lon="1.7412">
        <ele>374.6</ele>
        <time>2022-07-09T08:07:30Z</time>
      </trkpt>
      <trkpt lat="46.28252" lon="1.74131">
        <ele>374.6</ele>
        <time>2022-07-09T08:07:37Z</time>
      </trkpt>
      <trkpt lat="46.28245" lon="1.74134">
        <ele>374.6</ele>
        <time>2022-07-09T08:07:39Z</time>
      </trkpt>
      <trkpt lat="46.28231" lon="1.74142">
        <ele>374.6</ele>
        <time>2022-07-09T08:07:43Z</time>
      </trkpt>
      <trkpt lat="46.282" lon="1.74155">
        <ele>374.6</ele>
        <time>2022-07-09T08:07:49Z</time>
      </trkpt>
      <trkpt lat="46.28192" lon="1.74157">
        <ele>374.4</ele>
        <time>2022-07-09T08:07:51Z</time>
      </trkpt>
      <trkpt lat="46.28174" lon="1.74162">
        <ele>374.4</ele>
        <time>2022-07-09T08:07:56Z</time>
      </trkpt>
      <trkpt lat="46.28141" lon="1.74169">
        <ele>374.6</ele>
        <time>2022-07-09T08:08:06Z</time>
      </trkpt>
      <trkpt lat="46.28133" lon="1.74171">
        <ele>374.6</ele>
        <time>2022-07-09T08:08:08Z</time>
      </trkpt>
      <trkpt lat="46.28104" lon="1.7417">
        <ele>374.6</ele>
        <time>2022-07-09T08:08:14Z</time>
      </trkpt>
      <trkpt lat="46.28082" lon="1.74166">
        <ele>374.8</ele>
        <time>2022-07-09T08:08:20Z</time>
      </trkpt>
      <trkpt lat="46.28046" lon="1.74164">
        <ele>374.6</ele>
        <time>2022-07-09T08:08:29Z</time>
      </trkpt>
      <trkpt lat="46.28018" lon="1.74156">
        <ele>374.6</ele>
        <time>2022-07-09T08:08:36Z</time>
      </trkpt>
      <trkpt lat="46.27979" lon="1.74142">
        <ele>374</ele>
        <time>2022-07-09T08:08:46Z</time>
      </trkpt>
      <trkpt lat="46.27958" lon="1.74132">
        <ele>373.8</ele>
        <time>2022-07-09T08:08:52Z</time>
      </trkpt>
      <trkpt lat="46.27934" lon="1.74119">
        <ele>373.6</ele>
        <time>2022-07-09T08:08:59Z</time>
      </trkpt>
      <trkpt lat="46.27911" lon="1.74103">
        <ele>373.4</ele>
        <time>2022-07-09T08:09:06Z</time>
      </trkpt>
      <trkpt lat="46.27908" lon="1.741">
        <ele>373.4</ele>
        <time>2022-07-09T08:09:07Z</time>
      </trkpt>
      <trkpt lat="46.27882" lon="1.74082">
        <ele>373.2</ele>
        <time>2022-07-09T08:09:14Z</time>
      </trkpt>
      <trkpt lat="46.27861" lon="1.74064">
        <ele>373.4</ele>
        <time>2022-07-09T08:09:20Z</time>
      </trkpt>
      <trkpt lat="46.27841" lon="1.74047">
        <ele>373.4</ele>
        <time>2022-07-09T08:09:26Z</time>
      </trkpt>
      <trkpt lat="46.27814" lon="1.74021">
        <ele>373.4</ele>
        <time>2022-07-09T08:09:34Z</time>
      </trkpt>
      <trkpt lat="46.27791" lon="1.74004">
        <ele>373.2</ele>
        <time>2022-07-09T08:09:40Z</time>
      </trkpt>
      <trkpt lat="46.2778" lon="1.73995">
        <ele>373.2</ele>
        <time>2022-07-09T08:09:43Z</time>
      </trkpt>
      <trkpt lat="46.27756" lon="1.73976">
        <ele>373</ele>
        <time>2022-07-09T08:09:49Z</time>
      </trkpt>
      <trkpt lat="46.27751" lon="1.73972">
        <ele>373</ele>
        <time>2022-07-09T08:09:50Z</time>
      </trkpt>
      <trkpt lat="46.27729" lon="1.73957">
        <ele>373</ele>
        <time>2022-07-09T08:09:56Z</time>
      </trkpt>
      <trkpt lat="46.27724" lon="1.73953">
        <ele>373</ele>
        <time>2022-07-09T08:09:57Z</time>
      </trkpt>
      <trkpt lat="46.27706" lon="1.73938">
        <ele>372.8</ele>
        <time>2022-07-09T08:10:02Z</time>
      </trkpt>
      <trkpt lat="46.27696" lon="1.73931">
        <ele>372.8</ele>
        <time>2022-07-09T08:10:05Z</time>
      </trkpt>
      <trkpt lat="46.27685" lon="1.73923">
        <ele>372.8</ele>
        <time>2022-07-09T08:10:08Z</time>
      </trkpt>
      <trkpt lat="46.27681" lon="1.7392">
        <ele>372.8</ele>
        <time>2022-07-09T08:10:09Z</time>
      </trkpt>
      <trkpt lat="46.2765" lon="1.73889">
        <ele>372.4</ele>
        <time>2022-07-09T08:10:18Z</time>
      </trkpt>
      <trkpt lat="46.27619" lon="1.73857">
        <ele>372.8</ele>
        <time>2022-07-09T08:10:27Z</time>
      </trkpt>
      <trkpt lat="46.27613" lon="1.7385">
        <ele>373</ele>
        <time>2022-07-09T08:10:29Z</time>
      </trkpt>
      <trkpt lat="46.27594" lon="1.73828">
        <ele>373.2</ele>
        <time>2022-07-09T08:10:35Z</time>
      </trkpt>
      <trkpt lat="46.27578" lon="1.73808">
        <ele>373.2</ele>
        <time>2022-07-09T08:10:41Z</time>
      </trkpt>
      <trkpt lat="46.27559" lon="1.73788">
        <ele>373</ele>
        <time>2022-07-09T08:10:47Z</time>
      </trkpt>
      <trkpt lat="46.27534" lon="1.73755">
        <ele>372.8</ele>
        <time>2022-07-09T08:10:55Z</time>
      </trkpt>
      <trkpt lat="46.2751" lon="1.73725">
        <ele>372.8</ele>
        <time>2022-07-09T08:11:03Z</time>
      </trkpt>
      <trkpt lat="46.27493" lon="1.73706">
        <ele>372.8</ele>
        <time>2022-07-09T08:11:09Z</time>
      </trkpt>
      <trkpt lat="46.27471" lon="1.73684">
        <ele>372.8</ele>
        <time>2022-07-09T08:11:15Z</time>
      </trkpt>
      <trkpt lat="46.27461" lon="1.73675">
        <ele>372.8</ele>
        <time>2022-07-09T08:11:18Z</time>
      </trkpt>
      <trkpt lat="46.27448" lon="1.73664">
        <ele>372.8</ele>
        <time>2022-07-09T08:11:22Z</time>
      </trkpt>
      <trkpt lat="46.27436" lon="1.73656">
        <ele>373</ele>
        <time>2022-07-09T08:11:26Z</time>
      </trkpt>
      <trkpt lat="46.2742" lon="1.73644">
        <ele>373</ele>
        <time>2022-07-09T08:11:31Z</time>
      </trkpt>
      <trkpt lat="46.274" lon="1.73634">
        <ele>373.4</ele>
        <time>2022-07-09T08:11:36Z</time>
      </trkpt>
      <trkpt lat="46.2739" lon="1.73632">
        <ele>373.4</ele>
        <time>2022-07-09T08:11:38Z</time>
      </trkpt>
      <trkpt lat="46.27377" lon="1.73627">
        <ele>373.6</ele>
        <time>2022-07-09T08:11:41Z</time>
      </trkpt>
      <trkpt lat="46.27356" lon="1.73622">
        <ele>373.8</ele>
        <time>2022-07-09T08:11:46Z</time>
      </trkpt>
      <trkpt lat="46.27331" lon="1.73616">
        <ele>374</ele>
        <time>2022-07-09T08:11:52Z</time>
      </trkpt>
      <trkpt lat="46.273" lon="1.73616">
        <ele>374.4</ele>
        <time>2022-07-09T08:12:00Z</time>
      </trkpt>
      <trkpt lat="46.27296" lon="1.73617">
        <ele>374.4</ele>
        <time>2022-07-09T08:12:01Z</time>
      </trkpt>
      <trkpt lat="46.27276" lon="1.73622">
        <ele>374.8</ele>
        <time>2022-07-09T08:12:07Z</time>
      </trkpt>
      <trkpt lat="46.27259" lon="1.73628">
        <ele>375.4</ele>
        <time>2022-07-09T08:12:13Z</time>
      </trkpt>
      <trkpt lat="46.27241" lon="1.73634">
        <ele>375.6</ele>
        <time>2022-07-09T08:12:18Z</time>
      </trkpt>
      <trkpt lat="46.2723" lon="1.73639">
        <ele>375.8</ele>
        <time>2022-07-09T08:12:21Z</time>
      </trkpt>
      <trkpt lat="46.2721" lon="1.7365">
        <ele>376.2</ele>
        <time>2022-07-09T08:12:27Z</time>
      </trkpt>
      <trkpt lat="46.27186" lon="1.73669">
        <ele>376.6</ele>
        <time>2022-07-09T08:12:34Z</time>
      </trkpt>
      <trkpt lat="46.27177" lon="1.73678">
        <ele>376.6</ele>
        <time>2022-07-09T08:12:37Z</time>
      </trkpt>
      <trkpt lat="46.27165" lon="1.73688">
        <ele>377</ele>
        <time>2022-07-09T08:12:40Z</time>
      </trkpt>
      <trkpt lat="46.27142" lon="1.73715">
        <ele>377.4</ele>
        <time>2022-07-09T08:12:48Z</time>
      </trkpt>
      <trkpt lat="46.27134" lon="1.73735">
        <ele>377.6</ele>
        <time>2022-07-09T08:12:53Z</time>
      </trkpt>
      <trkpt lat="46.27133" lon="1.73744">
        <ele>378</ele>
        <time>2022-07-09T08:12:55Z</time>
      </trkpt>
      <trkpt lat="46.27132" lon="1.73766">
        <ele>378.6</ele>
        <time>2022-07-09T08:13:00Z</time>
      </trkpt>
      <trkpt lat="46.27131" lon="1.73784">
        <ele>378.8</ele>
        <time>2022-07-09T08:13:04Z</time>
      </trkpt>
      <trkpt lat="46.27133" lon="1.73789">
        <ele>379</ele>
        <time>2022-07-09T08:13:05Z</time>
      </trkpt>
      <trkpt lat="46.27132" lon="1.73811">
        <ele>378.6</ele>
        <time>2022-07-09T08:13:09Z</time>
      </trkpt>
      <trkpt lat="46.2713" lon="1.73817">
        <ele>378.2</ele>
        <time>2022-07-09T08:13:10Z</time>
      </trkpt>
      <trkpt lat="46.27129" lon="1.73826">
        <ele>378</ele>
        <time>2022-07-09T08:13:11Z</time>
      </trkpt>
      <trkpt lat="46.27129" lon="1.73842">
        <ele>377.2</ele>
        <time>2022-07-09T08:13:13Z</time>
      </trkpt>
      <trkpt lat="46.27131" lon="1.7385">
        <ele>376.6</ele>
        <time>2022-07-09T08:13:14Z</time>
      </trkpt>
      <trkpt lat="46.27137" lon="1.73869">
        <ele>375.6</ele>
        <time>2022-07-09T08:13:16Z</time>
      </trkpt>
      <trkpt lat="46.2714" lon="1.73878">
        <ele>375</ele>
        <time>2022-07-09T08:13:17Z</time>
      </trkpt>
      <trkpt lat="46.27143" lon="1.73887">
        <ele>374.6</ele>
        <time>2022-07-09T08:13:18Z</time>
      </trkpt>
      <trkpt lat="46.27144" lon="1.73896">
        <ele>374</ele>
        <time>2022-07-09T08:13:19Z</time>
      </trkpt>
      <trkpt lat="46.27144" lon="1.73911">
        <ele>373.2</ele>
        <time>2022-07-09T08:13:21Z</time>
      </trkpt>
      <trkpt lat="46.27144" lon="1.73919">
        <ele>373</ele>
        <time>2022-07-09T08:13:22Z</time>
      </trkpt>
      <trkpt lat="46.27145" lon="1.73925">
        <ele>372.6</ele>
        <time>2022-07-09T08:13:23Z</time>
      </trkpt>
      <trkpt lat="46.27152" lon="1.73949">
        <ele>371.8</ele>
        <time>2022-07-09T08:13:28Z</time>
      </trkpt>
      <trkpt lat="46.27154" lon="1.73955">
        <ele>371.8</ele>
        <time>2022-07-09T08:13:30Z</time>
      </trkpt>
      <trkpt lat="46.27154" lon="1.73959">
        <ele>371.6</ele>
        <time>2022-07-09T08:13:31Z</time>
      </trkpt>
      <trkpt lat="46.27151" lon="1.73968">
        <ele>371.6</ele>
        <time>2022-07-09T08:13:34Z</time>
      </trkpt>
      <trkpt lat="46.27145" lon="1.73974">
        <ele>371.8</ele>
        <time>2022-07-09T08:13:36Z</time>
      </trkpt>
      <trkpt lat="46.27143" lon="1.73976">
        <ele>372</ele>
        <time>2022-07-09T08:13:37Z</time>
      </trkpt>
      <trkpt lat="46.27139" lon="1.73981">
        <ele>372.6</ele>
        <time>2022-07-09T08:13:40Z</time>
      </trkpt>
      <trkpt lat="46.27133" lon="1.73986">
        <ele>373.8</ele>
        <time>2022-07-09T08:13:44Z</time>
      </trkpt>
      <trkpt lat="46.27128" lon="1.7399">
        <ele>374.6</ele>
        <time>2022-07-09T08:13:48Z</time>
      </trkpt>
      <trkpt lat="46.27127" lon="1.73991">
        <ele>374.8</ele>
        <time>2022-07-09T08:13:49Z</time>
      </trkpt>
      <trkpt lat="46.27126" lon="1.73991">
        <ele>375</ele>
        <time>2022-07-09T08:13:50Z</time>
      </trkpt>
      <trkpt lat="46.27123" lon="1.73996">
        <ele>375.8</ele>
        <time>2022-07-09T08:13:54Z</time>
      </trkpt>
      <trkpt lat="46.2712" lon="1.73999">
        <ele>376.4</ele>
        <time>2022-07-09T08:13:56Z</time>
      </trkpt>
      <trkpt lat="46.27115" lon="1.74003">
        <ele>377.4</ele>
        <time>2022-07-09T08:14:00Z</time>
      </trkpt>
      <trkpt lat="46.27112" lon="1.74005">
        <ele>378</ele>
        <time>2022-07-09T08:14:02Z</time>
      </trkpt>
      <trkpt lat="46.27111" lon="1.74006">
        <ele>378.4</ele>
        <time>2022-07-09T08:14:03Z</time>
      </trkpt>
      <trkpt lat="46.27104" lon="1.74011">
        <ele>379.8</ele>
        <time>2022-07-09T08:14:08Z</time>
      </trkpt>
      <trkpt lat="46.27101" lon="1.74013">
        <ele>380.2</ele>
        <time>2022-07-09T08:14:10Z</time>
      </trkpt>
      <trkpt lat="46.27097" lon="1.74018">
        <ele>381</ele>
        <time>2022-07-09T08:14:14Z</time>
      </trkpt>
      <trkpt lat="46.27093" lon="1.74024">
        <ele>381.6</ele>
        <time>2022-07-09T08:14:18Z</time>
      </trkpt>
      <trkpt lat="46.27091" lon="1.74027">
        <ele>382</ele>
        <time>2022-07-09T08:14:21Z</time>
      </trkpt>
      <trkpt lat="46.27086" lon="1.74032">
        <ele>382.8</ele>
        <time>2022-07-09T08:14:25Z</time>
      </trkpt>
      <trkpt lat="46.27082" lon="1.74035">
        <ele>383.4</ele>
        <time>2022-07-09T08:14:28Z</time>
      </trkpt>
      <trkpt lat="46.27076" lon="1.74041">
        <ele>384.2</ele>
        <time>2022-07-09T08:14:32Z</time>
      </trkpt>
      <trkpt lat="46.27074" lon="1.74042">
        <ele>384.4</ele>
        <time>2022-07-09T08:14:33Z</time>
      </trkpt>
      <trkpt lat="46.27067" lon="1.74048">
        <ele>385.4</ele>
        <time>2022-07-09T08:14:38Z</time>
      </trkpt>
      <trkpt lat="46.27061" lon="1.74052">
        <ele>385.8</ele>
        <time>2022-07-09T08:14:41Z</time>
      </trkpt>
      <trkpt lat="46.27055" lon="1.74055">
        <ele>386.6</ele>
        <time>2022-07-09T08:14:44Z</time>
      </trkpt>
      <trkpt lat="46.27041" lon="1.7406">
        <ele>387.2</ele>
        <time>2022-07-09T08:14:50Z</time>
      </trkpt>
      <trkpt lat="46.27036" lon="1.74061">
        <ele>387.6</ele>
        <time>2022-07-09T08:14:52Z</time>
      </trkpt>
      <trkpt lat="46.27024" lon="1.74061">
        <ele>387.8</ele>
        <time>2022-07-09T08:14:56Z</time>
      </trkpt>
      <trkpt lat="46.27008" lon="1.74058">
        <ele>388</ele>
        <time>2022-07-09T08:15:02Z</time>
      </trkpt>
      <trkpt lat="46.2699" lon="1.74054">
        <ele>388</ele>
        <time>2022-07-09T08:15:07Z</time>
      </trkpt>
      <trkpt lat="46.2697" lon="1.74049">
        <ele>388</ele>
        <time>2022-07-09T08:15:13Z</time>
      </trkpt>
      <trkpt lat="46.26973" lon="1.74052">
        <ele>388</ele>
        <time>2022-07-09T08:15:16Z</time>
      </trkpt>
      <trkpt lat="46.26971" lon="1.74065">
        <ele>388</ele>
        <time>2022-07-09T08:15:20Z</time>
      </trkpt>
      <trkpt lat="46.26964" lon="1.74084">
        <ele>387.8</ele>
        <time>2022-07-09T08:15:24Z</time>
      </trkpt>
      <trkpt lat="46.26953" lon="1.74096">
        <ele>387.4</ele>
        <time>2022-07-09T08:15:26Z</time>
      </trkpt>
      <trkpt lat="46.26948" lon="1.74103">
        <ele>386.8</ele>
        <time>2022-07-09T08:15:27Z</time>
      </trkpt>
      <trkpt lat="46.26943" lon="1.74108">
        <ele>386</ele>
        <time>2022-07-09T08:15:28Z</time>
      </trkpt>
      <trkpt lat="46.26938" lon="1.74113">
        <ele>384.8</ele>
        <time>2022-07-09T08:15:29Z</time>
      </trkpt>
      <trkpt lat="46.26933" lon="1.74118">
        <ele>384.4</ele>
        <time>2022-07-09T08:15:30Z</time>
      </trkpt>
      <trkpt lat="46.26923" lon="1.7413">
        <ele>383.4</ele>
        <time>2022-07-09T08:15:32Z</time>
      </trkpt>
      <trkpt lat="46.26907" lon="1.74148">
        <ele>382.6</ele>
        <time>2022-07-09T08:15:36Z</time>
      </trkpt>
      <trkpt lat="46.26903" lon="1.74152">
        <ele>382.4</ele>
        <time>2022-07-09T08:15:37Z</time>
      </trkpt>
      <trkpt lat="46.26894" lon="1.74161">
        <ele>382.4</ele>
        <time>2022-07-09T08:15:40Z</time>
      </trkpt>
      <trkpt lat="46.26875" lon="1.74178">
        <ele>382.4</ele>
        <time>2022-07-09T08:15:47Z</time>
      </trkpt>
      <trkpt lat="46.26852" lon="1.74195">
        <ele>382.4</ele>
        <time>2022-07-09T08:15:54Z</time>
      </trkpt>
      <trkpt lat="46.26821" lon="1.74212">
        <ele>382.4</ele>
        <time>2022-07-09T08:16:03Z</time>
      </trkpt>
      <trkpt lat="46.26804" lon="1.7422">
        <ele>382</ele>
        <time>2022-07-09T08:16:09Z</time>
      </trkpt>
      <trkpt lat="46.26802" lon="1.74221">
        <ele>382</ele>
        <time>2022-07-09T08:16:10Z</time>
      </trkpt>
      <trkpt lat="46.26795" lon="1.74223">
        <ele>382.2</ele>
        <time>2022-07-09T08:16:13Z</time>
      </trkpt>
      <trkpt lat="46.26778" lon="1.74229">
        <ele>382.2</ele>
        <time>2022-07-09T08:16:18Z</time>
      </trkpt>
      <trkpt lat="46.26762" lon="1.74232">
        <ele>382.2</ele>
        <time>2022-07-09T08:16:23Z</time>
      </trkpt>
      <trkpt lat="46.26744" lon="1.74237">
        <ele>382.4</ele>
        <time>2022-07-09T08:16:28Z</time>
      </trkpt>
      <trkpt lat="46.26722" lon="1.74244">
        <ele>382.4</ele>
        <time>2022-07-09T08:16:32Z</time>
      </trkpt>
      <trkpt lat="46.26719" lon="1.74249">
        <ele>382.4</ele>
        <time>2022-07-09T08:16:33Z</time>
      </trkpt>
      <trkpt lat="46.26716" lon="1.74255">
        <ele>382.4</ele>
        <time>2022-07-09T08:16:34Z</time>
      </trkpt>
      <trkpt lat="46.26708" lon="1.74275">
        <ele>382.4</ele>
        <time>2022-07-09T08:16:37Z</time>
      </trkpt>
      <trkpt lat="46.26699" lon="1.74282">
        <ele>382.2</ele>
        <time>2022-07-09T08:16:40Z</time>
      </trkpt>
      <trkpt lat="46.26695" lon="1.74284">
        <ele>382</ele>
        <time>2022-07-09T08:16:41Z</time>
      </trkpt>
      <trkpt lat="46.26673" lon="1.74296">
        <ele>382.4</ele>
        <time>2022-07-09T08:16:48Z</time>
      </trkpt>
      <trkpt lat="46.26658" lon="1.74296">
        <ele>382.6</ele>
        <time>2022-07-09T08:16:54Z</time>
      </trkpt>
      <trkpt lat="46.26647" lon="1.74294">
        <ele>383</ele>
        <time>2022-07-09T08:17:00Z</time>
      </trkpt>
      <trkpt lat="46.26635" lon="1.74294">
        <ele>383.6</ele>
        <time>2022-07-09T08:17:04Z</time>
      </trkpt>
      <trkpt lat="46.26622" lon="1.74298">
        <ele>384.4</ele>
        <time>2022-07-09T08:17:08Z</time>
      </trkpt>
      <trkpt lat="46.26618" lon="1.74298">
        <ele>384.6</ele>
        <time>2022-07-09T08:17:09Z</time>
      </trkpt>
      <trkpt lat="46.26601" lon="1.74301">
        <ele>385.8</ele>
        <time>2022-07-09T08:17:14Z</time>
      </trkpt>
      <trkpt lat="46.26599" lon="1.74302">
        <ele>385.8</ele>
        <time>2022-07-09T08:17:15Z</time>
      </trkpt>
      <trkpt lat="46.26595" lon="1.74299">
        <ele>386.2</ele>
        <time>2022-07-09T08:17:17Z</time>
      </trkpt>
      <trkpt lat="46.26592" lon="1.74296">
        <ele>386.6</ele>
        <time>2022-07-09T08:17:19Z</time>
      </trkpt>
      <trkpt lat="46.26592" lon="1.74294">
        <ele>386.6</ele>
        <time>2022-07-09T08:17:20Z</time>
      </trkpt>
      <trkpt lat="46.26593" lon="1.74292">
        <ele>387</ele>
        <time>2022-07-09T08:17:21Z</time>
      </trkpt>
      <trkpt lat="46.2659" lon="1.74282">
        <ele>387.8</ele>
        <time>2022-07-09T08:17:25Z</time>
      </trkpt>
      <trkpt lat="46.2659" lon="1.7428">
        <ele>388</ele>
        <time>2022-07-09T08:17:26Z</time>
      </trkpt>
      <trkpt lat="46.26589" lon="1.74278">
        <ele>388</ele>
        <time>2022-07-09T08:17:27Z</time>
      </trkpt>
      <trkpt lat="46.26587" lon="1.74271">
        <ele>388.2</ele>
        <time>2022-07-09T08:17:31Z</time>
      </trkpt>
      <trkpt lat="46.26586" lon="1.74268">
        <ele>388.4</ele>
        <time>2022-07-09T08:17:33Z</time>
      </trkpt>
      <trkpt lat="46.26585" lon="1.74268">
        <ele>388.4</ele>
        <time>2022-07-09T08:17:35Z</time>
      </trkpt>
      <trkpt lat="46.26584" lon="1.74268">
        <ele>388.4</ele>
        <time>2022-07-09T08:17:36Z</time>
      </trkpt>
      <trkpt lat="46.26582" lon="1.74269">
        <ele>389.2</ele>
        <time>2022-07-09T08:17:40Z</time>
      </trkpt>
      <trkpt lat="46.26574" lon="1.74275">
        <ele>389.2</ele>
        <time>2022-07-09T08:17:44Z</time>
      </trkpt>
      <trkpt lat="46.26567" lon="1.74282">
        <ele>389.2</ele>
        <time>2022-07-09T08:17:46Z</time>
      </trkpt>
      <trkpt lat="46.2656" lon="1.7429">
        <ele>388.8</ele>
        <time>2022-07-09T08:17:48Z</time>
      </trkpt>
      <trkpt lat="46.26557" lon="1.74294">
        <ele>388.4</ele>
        <time>2022-07-09T08:17:49Z</time>
      </trkpt>
      <trkpt lat="46.26554" lon="1.74298">
        <ele>388.2</ele>
        <time>2022-07-09T08:17:50Z</time>
      </trkpt>
      <trkpt lat="46.26551" lon="1.74304">
        <ele>387.2</ele>
        <time>2022-07-09T08:17:51Z</time>
      </trkpt>
      <trkpt lat="46.26549" lon="1.7431">
        <ele>386.6</ele>
        <time>2022-07-09T08:17:52Z</time>
      </trkpt>
      <trkpt lat="46.26546" lon="1.74315">
        <ele>385.8</ele>
        <time>2022-07-09T08:17:53Z</time>
      </trkpt>
      <trkpt lat="46.2654" lon="1.74323">
        <ele>384.8</ele>
        <time>2022-07-09T08:17:55Z</time>
      </trkpt>
      <trkpt lat="46.26536" lon="1.74327">
        <ele>383.6</ele>
        <time>2022-07-09T08:17:56Z</time>
      </trkpt>
      <trkpt lat="46.26532" lon="1.7433">
        <ele>383.2</ele>
        <time>2022-07-09T08:17:57Z</time>
      </trkpt>
      <trkpt lat="46.26518" lon="1.74345">
        <ele>382.4</ele>
        <time>2022-07-09T08:18:02Z</time>
      </trkpt>
      <trkpt lat="46.26508" lon="1.74355">
        <ele>382.4</ele>
        <time>2022-07-09T08:18:05Z</time>
      </trkpt>
      <trkpt lat="46.26488" lon="1.74375">
        <ele>383</ele>
        <time>2022-07-09T08:18:12Z</time>
      </trkpt>
      <trkpt lat="46.26475" lon="1.74392">
        <ele>383</ele>
        <time>2022-07-09T08:18:18Z</time>
      </trkpt>
      <trkpt lat="46.2646" lon="1.74417">
        <ele>383.2</ele>
        <time>2022-07-09T08:18:25Z</time>
      </trkpt>
      <trkpt lat="46.26441" lon="1.74447">
        <ele>383.2</ele>
        <time>2022-07-09T08:18:33Z</time>
      </trkpt>
      <trkpt lat="46.26429" lon="1.74469">
        <ele>383.6</ele>
        <time>2022-07-09T08:18:38Z</time>
      </trkpt>
      <trkpt lat="46.2642" lon="1.74484">
        <ele>384</ele>
        <time>2022-07-09T08:18:42Z</time>
      </trkpt>
      <trkpt lat="46.26397" lon="1.74522">
        <ele>384.2</ele>
        <time>2022-07-09T08:18:52Z</time>
      </trkpt>
      <trkpt lat="46.26381" lon="1.74549">
        <ele>384.6</ele>
        <time>2022-07-09T08:19:00Z</time>
      </trkpt>
      <trkpt lat="46.26379" lon="1.74552">
        <ele>384.8</ele>
        <time>2022-07-09T08:19:01Z</time>
      </trkpt>
      <trkpt lat="46.26363" lon="1.74576">
        <ele>385</ele>
        <time>2022-07-09T08:19:08Z</time>
      </trkpt>
      <trkpt lat="46.26343" lon="1.74612">
        <ele>385.4</ele>
        <time>2022-07-09T08:19:18Z</time>
      </trkpt>
      <trkpt lat="46.26323" lon="1.74644">
        <ele>385.8</ele>
        <time>2022-07-09T08:19:27Z</time>
      </trkpt>
      <trkpt lat="46.26315" lon="1.74658">
        <ele>386</ele>
        <time>2022-07-09T08:19:31Z</time>
      </trkpt>
      <trkpt lat="46.26304" lon="1.74675">
        <ele>386.2</ele>
        <time>2022-07-09T08:19:36Z</time>
      </trkpt>
      <trkpt lat="46.26283" lon="1.74709">
        <ele>386.8</ele>
        <time>2022-07-09T08:19:45Z</time>
      </trkpt>
      <trkpt lat="46.26272" lon="1.74726">
        <ele>387</ele>
        <time>2022-07-09T08:19:51Z</time>
      </trkpt>
      <trkpt lat="46.26271" lon="1.74728">
        <ele>387.2</ele>
        <time>2022-07-09T08:19:52Z</time>
      </trkpt>
      <trkpt lat="46.26257" lon="1.74751">
        <ele>387.4</ele>
        <time>2022-07-09T08:19:58Z</time>
      </trkpt>
      <trkpt lat="46.26247" lon="1.74767">
        <ele>388</ele>
        <time>2022-07-09T08:20:02Z</time>
      </trkpt>
      <trkpt lat="46.26239" lon="1.74778">
        <ele>388.4</ele>
        <time>2022-07-09T08:20:05Z</time>
      </trkpt>
      <trkpt lat="46.26221" lon="1.74811">
        <ele>388.8</ele>
        <time>2022-07-09T08:20:14Z</time>
      </trkpt>
      <trkpt lat="46.26217" lon="1.74819">
        <ele>389.2</ele>
        <time>2022-07-09T08:20:16Z</time>
      </trkpt>
      <trkpt lat="46.26208" lon="1.74835">
        <ele>389.6</ele>
        <time>2022-07-09T08:20:20Z</time>
      </trkpt>
      <trkpt lat="46.262" lon="1.74846">
        <ele>390</ele>
        <time>2022-07-09T08:20:23Z</time>
      </trkpt>
      <trkpt lat="46.26195" lon="1.74853">
        <ele>390.2</ele>
        <time>2022-07-09T08:20:25Z</time>
      </trkpt>
      <trkpt lat="46.26194" lon="1.74856">
        <ele>390.2</ele>
        <time>2022-07-09T08:20:26Z</time>
      </trkpt>
      <trkpt lat="46.26185" lon="1.74874">
        <ele>390.8</ele>
        <time>2022-07-09T08:20:31Z</time>
      </trkpt>
      <trkpt lat="46.26169" lon="1.74892">
        <ele>391.2</ele>
        <time>2022-07-09T08:20:36Z</time>
      </trkpt>
      <trkpt lat="46.26166" lon="1.74901">
        <ele>391.2</ele>
        <time>2022-07-09T08:20:38Z</time>
      </trkpt>
      <trkpt lat="46.26151" lon="1.74922">
        <ele>391.6</ele>
        <time>2022-07-09T08:20:44Z</time>
      </trkpt>
      <trkpt lat="46.26137" lon="1.74955">
        <ele>392</ele>
        <time>2022-07-09T08:20:49Z</time>
      </trkpt>
      <trkpt lat="46.26134" lon="1.74966">
        <ele>392.2</ele>
        <time>2022-07-09T08:20:51Z</time>
      </trkpt>
      <trkpt lat="46.26129" lon="1.74975">
        <ele>392.4</ele>
        <time>2022-07-09T08:20:54Z</time>
      </trkpt>
      <trkpt lat="46.26128" lon="1.74977">
        <ele>392.6</ele>
        <time>2022-07-09T08:20:55Z</time>
      </trkpt>
      <trkpt lat="46.26124" lon="1.74987">
        <ele>392.8</ele>
        <time>2022-07-09T08:20:58Z</time>
      </trkpt>
      <trkpt lat="46.26113" lon="1.75011">
        <ele>393.2</ele>
        <time>2022-07-09T08:21:04Z</time>
      </trkpt>
      <trkpt lat="46.26111" lon="1.75019">
        <ele>393.6</ele>
        <time>2022-07-09T08:21:06Z</time>
      </trkpt>
      <trkpt lat="46.26103" lon="1.75047">
        <ele>394.2</ele>
        <time>2022-07-09T08:21:12Z</time>
      </trkpt>
      <trkpt lat="46.26102" lon="1.75052">
        <ele>394.2</ele>
        <time>2022-07-09T08:21:13Z</time>
      </trkpt>
      <trkpt lat="46.26097" lon="1.75079">
        <ele>394.8</ele>
        <time>2022-07-09T08:21:18Z</time>
      </trkpt>
      <trkpt lat="46.26094" lon="1.75094">
        <ele>394.8</ele>
        <time>2022-07-09T08:21:22Z</time>
      </trkpt>
      <trkpt lat="46.26085" lon="1.75133">
        <ele>395.4</ele>
        <time>2022-07-09T08:21:29Z</time>
      </trkpt>
      <trkpt lat="46.26079" lon="1.75159">
        <ele>395.8</ele>
        <time>2022-07-09T08:21:34Z</time>
      </trkpt>
      <trkpt lat="46.26077" lon="1.75164">
        <ele>395.8</ele>
        <time>2022-07-09T08:21:35Z</time>
      </trkpt>
      <trkpt lat="46.26071" lon="1.75183">
        <ele>396</ele>
        <time>2022-07-09T08:21:39Z</time>
      </trkpt>
      <trkpt lat="46.26071" lon="1.75193">
        <ele>396.2</ele>
        <time>2022-07-09T08:21:41Z</time>
      </trkpt>
      <trkpt lat="46.26066" lon="1.75207">
        <ele>396.4</ele>
        <time>2022-07-09T08:21:45Z</time>
      </trkpt>
      <trkpt lat="46.26054" lon="1.75239">
        <ele>397</ele>
        <time>2022-07-09T08:21:53Z</time>
      </trkpt>
      <trkpt lat="46.26051" lon="1.75245">
        <ele>397.2</ele>
        <time>2022-07-09T08:21:54Z</time>
      </trkpt>
      <trkpt lat="46.26047" lon="1.75254">
        <ele>397.4</ele>
        <time>2022-07-09T08:21:57Z</time>
      </trkpt>
      <trkpt lat="46.26045" lon="1.75258">
        <ele>397.4</ele>
        <time>2022-07-09T08:21:58Z</time>
      </trkpt>
      <trkpt lat="46.26042" lon="1.75261">
        <ele>397.4</ele>
        <time>2022-07-09T08:21:59Z</time>
      </trkpt>
      <trkpt lat="46.26036" lon="1.75284">
        <ele>397.8</ele>
        <time>2022-07-09T08:22:03Z</time>
      </trkpt>
      <trkpt lat="46.26024" lon="1.75307">
        <ele>398</ele>
        <time>2022-07-09T08:22:09Z</time>
      </trkpt>
      <trkpt lat="46.2602" lon="1.75317">
        <ele>398.2</ele>
        <time>2022-07-09T08:22:11Z</time>
      </trkpt>
      <trkpt lat="46.26009" lon="1.75335">
        <ele>398.4</ele>
        <time>2022-07-09T08:22:14Z</time>
      </trkpt>
      <trkpt lat="46.26" lon="1.75363">
        <ele>398.8</ele>
        <time>2022-07-09T08:22:20Z</time>
      </trkpt>
      <trkpt lat="46.25985" lon="1.75385">
        <ele>399.2</ele>
        <time>2022-07-09T08:22:25Z</time>
      </trkpt>
      <trkpt lat="46.2598" lon="1.75395">
        <ele>399.6</ele>
        <time>2022-07-09T08:22:27Z</time>
      </trkpt>
      <trkpt lat="46.25976" lon="1.75407">
        <ele>399.8</ele>
        <time>2022-07-09T08:22:30Z</time>
      </trkpt>
      <trkpt lat="46.25962" lon="1.7543">
        <ele>400.2</ele>
        <time>2022-07-09T08:22:35Z</time>
      </trkpt>
      <trkpt lat="46.25955" lon="1.75442">
        <ele>400.2</ele>
        <time>2022-07-09T08:22:37Z</time>
      </trkpt>
      <trkpt lat="46.2595" lon="1.75449">
        <ele>400.4</ele>
        <time>2022-07-09T08:22:39Z</time>
      </trkpt>
      <trkpt lat="46.25947" lon="1.75453">
        <ele>400.4</ele>
        <time>2022-07-09T08:22:40Z</time>
      </trkpt>
      <trkpt lat="46.25932" lon="1.75483">
        <ele>400.6</ele>
        <time>2022-07-09T08:22:47Z</time>
      </trkpt>
      <trkpt lat="46.25917" lon="1.75509">
        <ele>401.2</ele>
        <time>2022-07-09T08:22:54Z</time>
      </trkpt>
      <trkpt lat="46.25906" lon="1.75529">
        <ele>401.8</ele>
        <time>2022-07-09T08:23:00Z</time>
      </trkpt>
      <trkpt lat="46.25899" lon="1.7554">
        <ele>402.4</ele>
        <time>2022-07-09T08:23:04Z</time>
      </trkpt>
      <trkpt lat="46.25896" lon="1.75546">
        <ele>402.6</ele>
        <time>2022-07-09T08:23:06Z</time>
      </trkpt>
      <trkpt lat="46.25885" lon="1.75565">
        <ele>402.8</ele>
        <time>2022-07-09T08:23:11Z</time>
      </trkpt>
      <trkpt lat="46.25877" lon="1.75579">
        <ele>403.4</ele>
        <time>2022-07-09T08:23:15Z</time>
      </trkpt>
      <trkpt lat="46.25875" lon="1.75583">
        <ele>403.4</ele>
        <time>2022-07-09T08:23:16Z</time>
      </trkpt>
      <trkpt lat="46.25873" lon="1.75587">
        <ele>403.6</ele>
        <time>2022-07-09T08:23:17Z</time>
      </trkpt>
      <trkpt lat="46.25862" lon="1.75613">
        <ele>404</ele>
        <time>2022-07-09T08:23:23Z</time>
      </trkpt>
      <trkpt lat="46.25847" lon="1.75638">
        <ele>404.6</ele>
        <time>2022-07-09T08:23:29Z</time>
      </trkpt>
      <trkpt lat="46.25828" lon="1.75671">
        <ele>405</ele>
        <time>2022-07-09T08:23:37Z</time>
      </trkpt>
      <trkpt lat="46.25818" lon="1.75688">
        <ele>405.4</ele>
        <time>2022-07-09T08:23:42Z</time>
      </trkpt>
      <trkpt lat="46.25815" lon="1.75692">
        <ele>405.6</ele>
        <time>2022-07-09T08:23:43Z</time>
      </trkpt>
      <trkpt lat="46.25797" lon="1.75721">
        <ele>405.6</ele>
        <time>2022-07-09T08:23:50Z</time>
      </trkpt>
      <trkpt lat="46.25777" lon="1.75755">
        <ele>406.2</ele>
        <time>2022-07-09T08:23:58Z</time>
      </trkpt>
      <trkpt lat="46.25767" lon="1.75772">
        <ele>406.6</ele>
        <time>2022-07-09T08:24:02Z</time>
      </trkpt>
      <trkpt lat="46.25756" lon="1.75792">
        <ele>406.8</ele>
        <time>2022-07-09T08:24:07Z</time>
      </trkpt>
      <trkpt lat="46.25738" lon="1.75824">
        <ele>407.6</ele>
        <time>2022-07-09T08:24:15Z</time>
      </trkpt>
      <trkpt lat="46.25736" lon="1.75829">
        <ele>407.8</ele>
        <time>2022-07-09T08:24:16Z</time>
      </trkpt>
      <trkpt lat="46.25719" lon="1.75864">
        <ele>408.6</ele>
        <time>2022-07-09T08:24:24Z</time>
      </trkpt>
      <trkpt lat="46.25716" lon="1.75868">
        <ele>408.8</ele>
        <time>2022-07-09T08:24:25Z</time>
      </trkpt>
      <trkpt lat="46.25701" lon="1.75893">
        <ele>409.4</ele>
        <time>2022-07-09T08:24:31Z</time>
      </trkpt>
      <trkpt lat="46.2569" lon="1.75914">
        <ele>409.8</ele>
        <time>2022-07-09T08:24:36Z</time>
      </trkpt>
      <trkpt lat="46.25681" lon="1.75931">
        <ele>410.2</ele>
        <time>2022-07-09T08:24:40Z</time>
      </trkpt>
      <trkpt lat="46.25668" lon="1.75956">
        <ele>410.8</ele>
        <time>2022-07-09T08:24:46Z</time>
      </trkpt>
      <trkpt lat="46.25663" lon="1.75964">
        <ele>411</ele>
        <time>2022-07-09T08:24:48Z</time>
      </trkpt>
      <trkpt lat="46.25657" lon="1.75976">
        <ele>411.2</ele>
        <time>2022-07-09T08:24:51Z</time>
      </trkpt>
      <trkpt lat="46.25633" lon="1.76008">
        <ele>412</ele>
        <time>2022-07-09T08:24:58Z</time>
      </trkpt>
      <trkpt lat="46.2563" lon="1.76014">
        <ele>412.2</ele>
        <time>2022-07-09T08:24:59Z</time>
      </trkpt>
      <trkpt lat="46.25614" lon="1.76047">
        <ele>412.8</ele>
        <time>2022-07-09T08:25:06Z</time>
      </trkpt>
      <trkpt lat="46.256" lon="1.76072">
        <ele>413.2</ele>
        <time>2022-07-09T08:25:12Z</time>
      </trkpt>
      <trkpt lat="46.25588" lon="1.76093">
        <ele>413.6</ele>
        <time>2022-07-09T08:25:17Z</time>
      </trkpt>
      <trkpt lat="46.25567" lon="1.76135">
        <ele>414</ele>
        <time>2022-07-09T08:25:26Z</time>
      </trkpt>
      <trkpt lat="46.25562" lon="1.76144">
        <ele>414.4</ele>
        <time>2022-07-09T08:25:28Z</time>
      </trkpt>
      <trkpt lat="46.25551" lon="1.76167">
        <ele>415</ele>
        <time>2022-07-09T08:25:33Z</time>
      </trkpt>
      <trkpt lat="46.25544" lon="1.76186">
        <ele>415.4</ele>
        <time>2022-07-09T08:25:37Z</time>
      </trkpt>
      <trkpt lat="46.25538" lon="1.762">
        <ele>415.4</ele>
        <time>2022-07-09T08:25:40Z</time>
      </trkpt>
      <trkpt lat="46.25526" lon="1.76236">
        <ele>416.2</ele>
        <time>2022-07-09T08:25:47Z</time>
      </trkpt>
      <trkpt lat="46.25524" lon="1.76241">
        <ele>416.4</ele>
        <time>2022-07-09T08:25:48Z</time>
      </trkpt>
      <trkpt lat="46.25514" lon="1.76269">
        <ele>416.6</ele>
        <time>2022-07-09T08:25:54Z</time>
      </trkpt>
      <trkpt lat="46.25507" lon="1.76295">
        <ele>417.2</ele>
        <time>2022-07-09T08:26:00Z</time>
      </trkpt>
      <trkpt lat="46.25498" lon="1.76318">
        <ele>417.4</ele>
        <time>2022-07-09T08:26:05Z</time>
      </trkpt>
      <trkpt lat="46.25497" lon="1.76324">
        <ele>417.4</ele>
        <time>2022-07-09T08:26:06Z</time>
      </trkpt>
      <trkpt lat="46.25489" lon="1.76346">
        <ele>417.6</ele>
        <time>2022-07-09T08:26:10Z</time>
      </trkpt>
      <trkpt lat="46.25488" lon="1.76351">
        <ele>417.6</ele>
        <time>2022-07-09T08:26:11Z</time>
      </trkpt>
      <trkpt lat="46.25479" lon="1.76379">
        <ele>418</ele>
        <time>2022-07-09T08:26:16Z</time>
      </trkpt>
      <trkpt lat="46.25475" lon="1.7639">
        <ele>418.2</ele>
        <time>2022-07-09T08:26:18Z</time>
      </trkpt>
      <trkpt lat="46.25464" lon="1.76423">
        <ele>418.4</ele>
        <time>2022-07-09T08:26:24Z</time>
      </trkpt>
      <trkpt lat="46.25462" lon="1.76429">
        <ele>418.4</ele>
        <time>2022-07-09T08:26:25Z</time>
      </trkpt>
      <trkpt lat="46.2546" lon="1.76435">
        <ele>418.6</ele>
        <time>2022-07-09T08:26:26Z</time>
      </trkpt>
      <trkpt lat="46.25454" lon="1.76452">
        <ele>418.6</ele>
        <time>2022-07-09T08:26:29Z</time>
      </trkpt>
      <trkpt lat="46.2545" lon="1.76463">
        <ele>418.8</ele>
        <time>2022-07-09T08:26:31Z</time>
      </trkpt>
      <trkpt lat="46.25445" lon="1.7648">
        <ele>419</ele>
        <time>2022-07-09T08:26:34Z</time>
      </trkpt>
      <trkpt lat="46.2543" lon="1.7653">
        <ele>419.4</ele>
        <time>2022-07-09T08:26:43Z</time>
      </trkpt>
      <trkpt lat="46.25426" lon="1.76542">
        <ele>419.4</ele>
        <time>2022-07-09T08:26:45Z</time>
      </trkpt>
      <trkpt lat="46.25414" lon="1.76576">
        <ele>419.4</ele>
        <time>2022-07-09T08:26:51Z</time>
      </trkpt>
      <trkpt lat="46.25411" lon="1.76587">
        <ele>419.4</ele>
        <time>2022-07-09T08:26:53Z</time>
      </trkpt>
      <trkpt lat="46.25401" lon="1.76616">
        <ele>419.6</ele>
        <time>2022-07-09T08:26:58Z</time>
      </trkpt>
      <trkpt lat="46.25386" lon="1.76666">
        <ele>419.6</ele>
        <time>2022-07-09T08:27:06Z</time>
      </trkpt>
      <trkpt lat="46.25376" lon="1.76696">
        <ele>419.4</ele>
        <time>2022-07-09T08:27:11Z</time>
      </trkpt>
      <trkpt lat="46.25373" lon="1.76707">
        <ele>419.4</ele>
        <time>2022-07-09T08:27:13Z</time>
      </trkpt>
      <trkpt lat="46.25353" lon="1.76774">
        <ele>419.6</ele>
        <time>2022-07-09T08:27:25Z</time>
      </trkpt>
      <trkpt lat="46.25339" lon="1.76817">
        <ele>419.4</ele>
        <time>2022-07-09T08:27:32Z</time>
      </trkpt>
      <trkpt lat="46.25327" lon="1.76846">
        <ele>419.4</ele>
        <time>2022-07-09T08:27:37Z</time>
      </trkpt>
      <trkpt lat="46.25322" lon="1.76857">
        <ele>419.4</ele>
        <time>2022-07-09T08:27:39Z</time>
      </trkpt>
      <trkpt lat="46.2532" lon="1.76862">
        <ele>419.4</ele>
        <time>2022-07-09T08:27:40Z</time>
      </trkpt>
      <trkpt lat="46.25315" lon="1.76875">
        <ele>419.4</ele>
        <time>2022-07-09T08:27:43Z</time>
      </trkpt>
      <trkpt lat="46.25311" lon="1.76886">
        <ele>419.4</ele>
        <time>2022-07-09T08:27:46Z</time>
      </trkpt>
      <trkpt lat="46.2531" lon="1.76891">
        <ele>419.4</ele>
        <time>2022-07-09T08:27:47Z</time>
      </trkpt>
      <trkpt lat="46.25296" lon="1.7692">
        <ele>419.4</ele>
        <time>2022-07-09T08:27:53Z</time>
      </trkpt>
      <trkpt lat="46.2529" lon="1.76931">
        <ele>419.6</ele>
        <time>2022-07-09T08:27:55Z</time>
      </trkpt>
      <trkpt lat="46.25284" lon="1.76943">
        <ele>419.6</ele>
        <time>2022-07-09T08:27:57Z</time>
      </trkpt>
      <trkpt lat="46.25275" lon="1.76958">
        <ele>419.6</ele>
        <time>2022-07-09T08:28:01Z</time>
      </trkpt>
      <trkpt lat="46.25261" lon="1.76976">
        <ele>419.6</ele>
        <time>2022-07-09T08:28:06Z</time>
      </trkpt>
      <trkpt lat="46.25242" lon="1.76999">
        <ele>419.8</ele>
        <time>2022-07-09T08:28:12Z</time>
      </trkpt>
      <trkpt lat="46.25223" lon="1.77025">
        <ele>420</ele>
        <time>2022-07-09T08:28:17Z</time>
      </trkpt>
      <trkpt lat="46.25203" lon="1.77049">
        <ele>420.2</ele>
        <time>2022-07-09T08:28:23Z</time>
      </trkpt>
      <trkpt lat="46.25181" lon="1.77053">
        <ele>420.4</ele>
        <time>2022-07-09T08:28:27Z</time>
      </trkpt>
      <trkpt lat="46.25174" lon="1.77068">
        <ele>420.4</ele>
        <time>2022-07-09T08:28:30Z</time>
      </trkpt>
      <trkpt lat="46.25171" lon="1.77073">
        <ele>420.4</ele>
        <time>2022-07-09T08:28:32Z</time>
      </trkpt>
      <trkpt lat="46.25155" lon="1.77083">
        <ele>420.4</ele>
        <time>2022-07-09T08:28:37Z</time>
      </trkpt>
      <trkpt lat="46.25155" lon="1.77083">
        <ele>420.4</ele>
        <time>2022-07-09T08:28:40Z</time>
      </trkpt>
      <trkpt lat="46.25155" lon="1.77083">
        <ele>420.4</ele>
        <time>2022-07-09T08:28:44Z</time>
      </trkpt>
      <trkpt lat="46.25153" lon="1.77082">
        <ele>420.2</ele>
        <time>2022-07-09T08:28:59Z</time>
      </trkpt>
      <trkpt lat="46.25153" lon="1.77081">
        <ele>420</ele>
        <time>2022-07-09T08:29:00Z</time>
      </trkpt>
      <trkpt lat="46.25153" lon="1.77081">
        <ele>420</ele>
        <time>2022-07-09T08:29:05Z</time>
      </trkpt>
      <trkpt lat="46.25148" lon="1.77085">
        <ele>420.2</ele>
        <time>2022-07-09T08:29:21Z</time>
      </trkpt>
      <trkpt lat="46.25146" lon="1.77086">
        <ele>420.2</ele>
        <time>2022-07-09T08:29:22Z</time>
      </trkpt>
      <trkpt lat="46.25134" lon="1.77089">
        <ele>420.4</ele>
        <time>2022-07-09T08:29:28Z</time>
      </trkpt>
      <trkpt lat="46.25114" lon="1.77097">
        <ele>420.6</ele>
        <time>2022-07-09T08:29:34Z</time>
      </trkpt>
      <trkpt lat="46.2509" lon="1.77101">
        <ele>420.8</ele>
        <time>2022-07-09T08:29:39Z</time>
      </trkpt>
      <trkpt lat="46.25054" lon="1.771">
        <ele>420.8</ele>
        <time>2022-07-09T08:29:47Z</time>
      </trkpt>
      <trkpt lat="46.2504" lon="1.771">
        <ele>420.8</ele>
        <time>2022-07-09T08:29:51Z</time>
      </trkpt>
      <trkpt lat="46.25007" lon="1.77093">
        <ele>420.8</ele>
        <time>2022-07-09T08:29:56Z</time>
      </trkpt>
      <trkpt lat="46.24998" lon="1.7709">
        <ele>420.8</ele>
        <time>2022-07-09T08:29:58Z</time>
      </trkpt>
      <trkpt lat="46.24984" lon="1.7709">
        <ele>420.4</ele>
        <time>2022-07-09T08:30:01Z</time>
      </trkpt>
      <trkpt lat="46.24976" lon="1.77089">
        <ele>420.4</ele>
        <time>2022-07-09T08:30:03Z</time>
      </trkpt>
      <trkpt lat="46.24968" lon="1.77086">
        <ele>420.2</ele>
        <time>2022-07-09T08:30:06Z</time>
      </trkpt>
      <trkpt lat="46.24949" lon="1.77085">
        <ele>420</ele>
        <time>2022-07-09T08:30:11Z</time>
      </trkpt>
      <trkpt lat="46.2492" lon="1.77083">
        <ele>419.8</ele>
        <time>2022-07-09T08:30:17Z</time>
      </trkpt>
      <trkpt lat="46.24884" lon="1.77085">
        <ele>419.8</ele>
        <time>2022-07-09T08:30:24Z</time>
      </trkpt>
      <trkpt lat="46.24854" lon="1.77091">
        <ele>419.2</ele>
        <time>2022-07-09T08:30:30Z</time>
      </trkpt>
      <trkpt lat="46.24837" lon="1.77098">
        <ele>418.8</ele>
        <time>2022-07-09T08:30:34Z</time>
      </trkpt>
      <trkpt lat="46.24833" lon="1.771">
        <ele>418.8</ele>
        <time>2022-07-09T08:30:35Z</time>
      </trkpt>
      <trkpt lat="46.24825" lon="1.77106">
        <ele>418.4</ele>
        <time>2022-07-09T08:30:37Z</time>
      </trkpt>
      <trkpt lat="46.24812" lon="1.77114">
        <ele>418.2</ele>
        <time>2022-07-09T08:30:40Z</time>
      </trkpt>
      <trkpt lat="46.24797" lon="1.77124">
        <ele>418.2</ele>
        <time>2022-07-09T08:30:43Z</time>
      </trkpt>
      <trkpt lat="46.24773" lon="1.77141">
        <ele>418</ele>
        <time>2022-07-09T08:30:48Z</time>
      </trkpt>
      <trkpt lat="46.24768" lon="1.77145">
        <ele>418</ele>
        <time>2022-07-09T08:30:49Z</time>
      </trkpt>
      <trkpt lat="46.24761" lon="1.77155">
        <ele>417.8</ele>
        <time>2022-07-09T08:30:51Z</time>
      </trkpt>
      <trkpt lat="46.24739" lon="1.7718">
        <ele>417.2</ele>
        <time>2022-07-09T08:30:56Z</time>
      </trkpt>
      <trkpt lat="46.24734" lon="1.77185">
        <ele>417</ele>
        <time>2022-07-09T08:30:57Z</time>
      </trkpt>
      <trkpt lat="46.24717" lon="1.77213">
        <ele>416.8</ele>
        <time>2022-07-09T08:31:02Z</time>
      </trkpt>
      <trkpt lat="46.2471" lon="1.77218">
        <ele>416.6</ele>
        <time>2022-07-09T08:31:04Z</time>
      </trkpt>
      <trkpt lat="46.24708" lon="1.77221">
        <ele>416.4</ele>
        <time>2022-07-09T08:31:06Z</time>
      </trkpt>
      <trkpt lat="46.24707" lon="1.77222">
        <ele>416</ele>
        <time>2022-07-09T08:31:10Z</time>
      </trkpt>
      <trkpt lat="46.24706" lon="1.77227">
        <ele>415.4</ele>
        <time>2022-07-09T08:31:47Z</time>
      </trkpt>
      <trkpt lat="46.24702" lon="1.77234">
        <ele>415.6</ele>
        <time>2022-07-09T08:31:49Z</time>
      </trkpt>
      <trkpt lat="46.24692" lon="1.77256">
        <ele>415.4</ele>
        <time>2022-07-09T08:31:53Z</time>
      </trkpt>
      <trkpt lat="46.2469" lon="1.77262">
        <ele>415.4</ele>
        <time>2022-07-09T08:31:54Z</time>
      </trkpt>
      <trkpt lat="46.24686" lon="1.77272">
        <ele>415.4</ele>
        <time>2022-07-09T08:31:56Z</time>
      </trkpt>
      <trkpt lat="46.24682" lon="1.77279">
        <ele>415.4</ele>
        <time>2022-07-09T08:31:58Z</time>
      </trkpt>
      <trkpt lat="46.24679" lon="1.77286">
        <ele>415.2</ele>
        <time>2022-07-09T08:32:01Z</time>
      </trkpt>
      <trkpt lat="46.24678" lon="1.77289">
        <ele>415</ele>
        <time>2022-07-09T08:32:02Z</time>
      </trkpt>
      <trkpt lat="46.24669" lon="1.77313">
        <ele>414.8</ele>
        <time>2022-07-09T08:32:08Z</time>
      </trkpt>
      <trkpt lat="46.24659" lon="1.77343">
        <ele>414.8</ele>
        <time>2022-07-09T08:32:14Z</time>
      </trkpt>
      <trkpt lat="46.24657" lon="1.7735">
        <ele>414.6</ele>
        <time>2022-07-09T08:32:15Z</time>
      </trkpt>
      <trkpt lat="46.24655" lon="1.77359">
        <ele>414.6</ele>
        <time>2022-07-09T08:32:16Z</time>
      </trkpt>
      <trkpt lat="46.24648" lon="1.77369">
        <ele>414.6</ele>
        <time>2022-07-09T08:32:18Z</time>
      </trkpt>
      <trkpt lat="46.24649" lon="1.77385">
        <ele>414.6</ele>
        <time>2022-07-09T08:32:20Z</time>
      </trkpt>
      <trkpt lat="46.24649" lon="1.774">
        <ele>414.4</ele>
        <time>2022-07-09T08:32:22Z</time>
      </trkpt>
      <trkpt lat="46.24648" lon="1.77406">
        <ele>414.4</ele>
        <time>2022-07-09T08:32:23Z</time>
      </trkpt>
      <trkpt lat="46.24644" lon="1.77422">
        <ele>414.2</ele>
        <time>2022-07-09T08:32:25Z</time>
      </trkpt>
      <trkpt lat="46.24643" lon="1.77444">
        <ele>414</ele>
        <time>2022-07-09T08:32:29Z</time>
      </trkpt>
      <trkpt lat="46.2465" lon="1.77471">
        <ele>413.6</ele>
        <time>2022-07-09T08:32:33Z</time>
      </trkpt>
      <trkpt lat="46.24646" lon="1.77503">
        <ele>413.6</ele>
        <time>2022-07-09T08:32:37Z</time>
      </trkpt>
      <trkpt lat="46.24648" lon="1.77534">
        <ele>413.4</ele>
        <time>2022-07-09T08:32:41Z</time>
      </trkpt>
      <trkpt lat="46.2465" lon="1.77551">
        <ele>413.4</ele>
        <time>2022-07-09T08:32:43Z</time>
      </trkpt>
      <trkpt lat="46.24653" lon="1.77577">
        <ele>413.4</ele>
        <time>2022-07-09T08:32:46Z</time>
      </trkpt>
      <trkpt lat="46.24655" lon="1.77583">
        <ele>413.4</ele>
        <time>2022-07-09T08:32:47Z</time>
      </trkpt>
      <trkpt lat="46.24657" lon="1.77588">
        <ele>413.4</ele>
        <time>2022-07-09T08:32:48Z</time>
      </trkpt>
      <trkpt lat="46.24664" lon="1.77605">
        <ele>413.2</ele>
        <time>2022-07-09T08:32:51Z</time>
      </trkpt>
      <trkpt lat="46.24671" lon="1.77622">
        <ele>413.2</ele>
        <time>2022-07-09T08:32:54Z</time>
      </trkpt>
      <trkpt lat="46.24678" lon="1.77638">
        <ele>413.2</ele>
        <time>2022-07-09T08:32:57Z</time>
      </trkpt>
      <trkpt lat="46.24683" lon="1.77648">
        <ele>413</ele>
        <time>2022-07-09T08:32:59Z</time>
      </trkpt>
      <trkpt lat="46.24691" lon="1.77676">
        <ele>412.8</ele>
        <time>2022-07-09T08:33:03Z</time>
      </trkpt>
      <trkpt lat="46.24693" lon="1.77683">
        <ele>412.6</ele>
        <time>2022-07-09T08:33:04Z</time>
      </trkpt>
      <trkpt lat="46.24704" lon="1.77713">
        <ele>412.4</ele>
        <time>2022-07-09T08:33:08Z</time>
      </trkpt>
      <trkpt lat="46.24706" lon="1.7772">
        <ele>412.2</ele>
        <time>2022-07-09T08:33:09Z</time>
      </trkpt>
      <trkpt lat="46.24709" lon="1.77726">
        <ele>412.2</ele>
        <time>2022-07-09T08:33:10Z</time>
      </trkpt>
      <trkpt lat="46.24716" lon="1.77749">
        <ele>411.8</ele>
        <time>2022-07-09T08:33:13Z</time>
      </trkpt>
      <trkpt lat="46.24724" lon="1.77766">
        <ele>411.4</ele>
        <time>2022-07-09T08:33:17Z</time>
      </trkpt>
      <trkpt lat="46.24726" lon="1.77767">
        <ele>411.2</ele>
        <time>2022-07-09T08:33:19Z</time>
      </trkpt>
      <trkpt lat="46.24729" lon="1.77769">
        <ele>410.8</ele>
        <time>2022-07-09T08:33:21Z</time>
      </trkpt>
      <trkpt lat="46.24731" lon="1.77773">
        <ele>410.2</ele>
        <time>2022-07-09T08:33:25Z</time>
      </trkpt>
      <trkpt lat="46.24731" lon="1.77773">
        <ele>410</ele>
        <time>2022-07-09T08:33:26Z</time>
      </trkpt>
      <trkpt lat="46.24728" lon="1.77772">
        <ele>409.2</ele>
        <time>2022-07-09T08:34:29Z</time>
      </trkpt>
      <trkpt lat="46.24726" lon="1.7777">
        <ele>409.2</ele>
        <time>2022-07-09T08:34:31Z</time>
      </trkpt>
      <trkpt lat="46.24724" lon="1.7777">
        <ele>409.8</ele>
        <time>2022-07-09T08:34:37Z</time>
      </trkpt>
      <trkpt lat="46.24722" lon="1.77771">
        <ele>409.8</ele>
        <time>2022-07-09T08:34:38Z</time>
      </trkpt>
      <trkpt lat="46.24723" lon="1.77775">
        <ele>410</ele>
        <time>2022-07-09T08:34:41Z</time>
      </trkpt>
      <trkpt lat="46.24723" lon="1.77776">
        <ele>410</ele>
        <time>2022-07-09T08:34:42Z</time>
      </trkpt>
      <trkpt lat="46.24725" lon="1.77778">
        <ele>410</ele>
        <time>2022-07-09T08:34:43Z</time>
      </trkpt>
      <trkpt lat="46.24729" lon="1.77786">
        <ele>410.2</ele>
        <time>2022-07-09T08:34:47Z</time>
      </trkpt>
      <trkpt lat="46.24738" lon="1.77808">
        <ele>410.2</ele>
        <time>2022-07-09T08:34:52Z</time>
      </trkpt>
      <trkpt lat="46.24747" lon="1.77824">
        <ele>410</ele>
        <time>2022-07-09T08:34:56Z</time>
      </trkpt>
      <trkpt lat="46.24756" lon="1.77845">
        <ele>410</ele>
        <time>2022-07-09T08:35:01Z</time>
      </trkpt>
      <trkpt lat="46.24768" lon="1.77877">
        <ele>409.8</ele>
        <time>2022-07-09T08:35:08Z</time>
      </trkpt>
      <trkpt lat="46.24769" lon="1.77881">
        <ele>409.8</ele>
        <time>2022-07-09T08:35:09Z</time>
      </trkpt>
      <trkpt lat="46.2477" lon="1.77884">
        <ele>409.8</ele>
        <time>2022-07-09T08:35:12Z</time>
      </trkpt>
      <trkpt lat="46.2477" lon="1.77884">
        <ele>409.6</ele>
        <time>2022-07-09T08:35:14Z</time>
      </trkpt>
      <trkpt lat="46.24769" lon="1.77881">
        <ele>409.2</ele>
        <time>2022-07-09T08:35:22Z</time>
      </trkpt>
      <trkpt lat="46.24768" lon="1.7788">
        <ele>409.2</ele>
        <time>2022-07-09T08:35:24Z</time>
      </trkpt>
      <trkpt lat="46.24764" lon="1.77867">
        <ele>409.2</ele>
        <time>2022-07-09T08:35:29Z</time>
      </trkpt>
      <trkpt lat="46.24763" lon="1.7786">
        <ele>409.2</ele>
        <time>2022-07-09T08:35:32Z</time>
      </trkpt>
      <trkpt lat="46.24763" lon="1.77856">
        <ele>409.4</ele>
        <time>2022-07-09T08:35:34Z</time>
      </trkpt>
      <trkpt lat="46.24761" lon="1.77852">
        <ele>409.6</ele>
        <time>2022-07-09T08:35:38Z</time>
      </trkpt>
      <trkpt lat="46.24748" lon="1.7783">
        <ele>410</ele>
        <time>2022-07-09T08:35:44Z</time>
      </trkpt>
      <trkpt lat="46.24738" lon="1.77807">
        <ele>410.2</ele>
        <time>2022-07-09T08:35:49Z</time>
      </trkpt>
      <trkpt lat="46.24735" lon="1.77801">
        <ele>410.2</ele>
        <time>2022-07-09T08:35:51Z</time>
      </trkpt>
      <trkpt lat="46.24733" lon="1.77789">
        <ele>410.6</ele>
        <time>2022-07-09T08:35:54Z</time>
      </trkpt>
      <trkpt lat="46.24735" lon="1.77788">
        <ele>410.4</ele>
        <time>2022-07-09T08:35:56Z</time>
      </trkpt>
      <trkpt lat="46.24744" lon="1.77803">
        <ele>410.4</ele>
        <time>2022-07-09T08:36:00Z</time>
      </trkpt>
      <trkpt lat="46.24755" lon="1.77824">
        <ele>409.6</ele>
        <time>2022-07-09T08:36:03Z</time>
      </trkpt>
      <trkpt lat="46.24761" lon="1.77832">
        <ele>409.4</ele>
        <time>2022-07-09T08:36:04Z</time>
      </trkpt>
      <trkpt lat="46.24771" lon="1.77849">
        <ele>408.8</ele>
        <time>2022-07-09T08:36:06Z</time>
      </trkpt>
      <trkpt lat="46.24775" lon="1.77858">
        <ele>408</ele>
        <time>2022-07-09T08:36:07Z</time>
      </trkpt>
      <trkpt lat="46.24778" lon="1.77865">
        <ele>406.8</ele>
        <time>2022-07-09T08:36:08Z</time>
      </trkpt>
      <trkpt lat="46.24781" lon="1.77878">
        <ele>405.8</ele>
        <time>2022-07-09T08:36:10Z</time>
      </trkpt>
      <trkpt lat="46.24782" lon="1.77886">
        <ele>405</ele>
        <time>2022-07-09T08:36:12Z</time>
      </trkpt>
      <trkpt lat="46.24783" lon="1.77889">
        <ele>404.6</ele>
        <time>2022-07-09T08:36:13Z</time>
      </trkpt>
      <trkpt lat="46.24783" lon="1.7789">
        <ele>404.2</ele>
        <time>2022-07-09T08:36:14Z</time>
      </trkpt>
      <trkpt lat="46.24784" lon="1.77893">
        <ele>403.6</ele>
        <time>2022-07-09T08:36:16Z</time>
      </trkpt>
      <trkpt lat="46.24787" lon="1.77886">
        <ele>403.2</ele>
        <time>2022-07-09T08:36:19Z</time>
      </trkpt>
      <trkpt lat="46.24782" lon="1.77875">
        <ele>402.8</ele>
        <time>2022-07-09T08:36:23Z</time>
      </trkpt>
      <trkpt lat="46.2478" lon="1.77874">
        <ele>402.8</ele>
        <time>2022-07-09T08:36:24Z</time>
      </trkpt>
      <trkpt lat="46.24769" lon="1.77877">
        <ele>402.8</ele>
        <time>2022-07-09T08:36:28Z</time>
      </trkpt>
      <trkpt lat="46.24751" lon="1.77887">
        <ele>403.6</ele>
        <time>2022-07-09T08:36:35Z</time>
      </trkpt>
      <trkpt lat="46.24738" lon="1.77898">
        <ele>404.2</ele>
        <time>2022-07-09T08:36:41Z</time>
      </trkpt>
      <trkpt lat="46.24735" lon="1.77905">
        <ele>404.6</ele>
        <time>2022-07-09T08:36:43Z</time>
      </trkpt>
      <trkpt lat="46.2473" lon="1.77929">
        <ele>405.2</ele>
        <time>2022-07-09T08:36:48Z</time>
      </trkpt>
      <trkpt lat="46.24727" lon="1.77945">
        <ele>405.8</ele>
        <time>2022-07-09T08:36:51Z</time>
      </trkpt>
      <trkpt lat="46.24726" lon="1.77954">
        <ele>406</ele>
        <time>2022-07-09T08:36:53Z</time>
      </trkpt>
      <trkpt lat="46.24726" lon="1.77958">
        <ele>406.2</ele>
        <time>2022-07-09T08:36:54Z</time>
      </trkpt>
      <trkpt lat="46.24734" lon="1.77992">
        <ele>406.8</ele>
        <time>2022-07-09T08:37:01Z</time>
      </trkpt>
      <trkpt lat="46.24745" lon="1.78029">
        <ele>407.2</ele>
        <time>2022-07-09T08:37:09Z</time>
      </trkpt>
      <trkpt lat="46.24754" lon="1.78063">
        <ele>407.6</ele>
        <time>2022-07-09T08:37:16Z</time>
      </trkpt>
      <trkpt lat="46.24754" lon="1.78082">
        <ele>407.8</ele>
        <time>2022-07-09T08:37:19Z</time>
      </trkpt>
      <trkpt lat="46.24753" lon="1.78092">
        <ele>408.2</ele>
        <time>2022-07-09T08:37:21Z</time>
      </trkpt>
      <trkpt lat="46.24752" lon="1.78109">
        <ele>409</ele>
        <time>2022-07-09T08:37:25Z</time>
      </trkpt>
      <trkpt lat="46.24754" lon="1.78122">
        <ele>409.4</ele>
        <time>2022-07-09T08:37:28Z</time>
      </trkpt>
      <trkpt lat="46.24758" lon="1.7814">
        <ele>410</ele>
        <time>2022-07-09T08:37:32Z</time>
      </trkpt>
      <trkpt lat="46.24764" lon="1.78159">
        <ele>410.4</ele>
        <time>2022-07-09T08:37:36Z</time>
      </trkpt>
      <trkpt lat="46.24774" lon="1.78204">
        <ele>410.8</ele>
        <time>2022-07-09T08:37:45Z</time>
      </trkpt>
      <trkpt lat="46.24777" lon="1.78238">
        <ele>411</ele>
        <time>2022-07-09T08:37:51Z</time>
      </trkpt>
      <trkpt lat="46.24778" lon="1.78254">
        <ele>411.2</ele>
        <time>2022-07-09T08:37:54Z</time>
      </trkpt>
      <trkpt lat="46.2478" lon="1.78298">
        <ele>411.4</ele>
        <time>2022-07-09T08:38:02Z</time>
      </trkpt>
      <trkpt lat="46.24779" lon="1.7831">
        <ele>411.4</ele>
        <time>2022-07-09T08:38:04Z</time>
      </trkpt>
      <trkpt lat="46.24784" lon="1.78343">
        <ele>411.4</ele>
        <time>2022-07-09T08:38:10Z</time>
      </trkpt>
      <trkpt lat="46.248" lon="1.78361">
        <ele>411.4</ele>
        <time>2022-07-09T08:38:15Z</time>
      </trkpt>
      <trkpt lat="46.24803" lon="1.78368">
        <ele>411.6</ele>
        <time>2022-07-09T08:38:17Z</time>
      </trkpt>
      <trkpt lat="46.24804" lon="1.78377">
        <ele>411.6</ele>
        <time>2022-07-09T08:38:19Z</time>
      </trkpt>
      <trkpt lat="46.24805" lon="1.78407">
        <ele>411.8</ele>
        <time>2022-07-09T08:38:24Z</time>
      </trkpt>
      <trkpt lat="46.24804" lon="1.78433">
        <ele>412</ele>
        <time>2022-07-09T08:38:28Z</time>
      </trkpt>
      <trkpt lat="46.24804" lon="1.78441">
        <ele>412</ele>
        <time>2022-07-09T08:38:29Z</time>
      </trkpt>
      <trkpt lat="46.24803" lon="1.78448">
        <ele>412</ele>
        <time>2022-07-09T08:38:30Z</time>
      </trkpt>
      <trkpt lat="46.24802" lon="1.78469">
        <ele>412</ele>
        <time>2022-07-09T08:38:33Z</time>
      </trkpt>
      <trkpt lat="46.24801" lon="1.78476">
        <ele>411.8</ele>
        <time>2022-07-09T08:38:34Z</time>
      </trkpt>
      <trkpt lat="46.248" lon="1.78483">
        <ele>411.8</ele>
        <time>2022-07-09T08:38:35Z</time>
      </trkpt>
      <trkpt lat="46.24799" lon="1.78498">
        <ele>411.2</ele>
        <time>2022-07-09T08:38:37Z</time>
      </trkpt>
      <trkpt lat="46.24798" lon="1.78504">
        <ele>410.8</ele>
        <time>2022-07-09T08:38:38Z</time>
      </trkpt>
      <trkpt lat="46.24797" lon="1.78509">
        <ele>410.6</ele>
        <time>2022-07-09T08:38:39Z</time>
      </trkpt>
      <trkpt lat="46.24794" lon="1.78521">
        <ele>410</ele>
        <time>2022-07-09T08:38:41Z</time>
      </trkpt>
      <trkpt lat="46.2479" lon="1.78536">
        <ele>409.2</ele>
        <time>2022-07-09T08:38:43Z</time>
      </trkpt>
      <trkpt lat="46.24789" lon="1.78544">
        <ele>408.8</ele>
        <time>2022-07-09T08:38:44Z</time>
      </trkpt>
      <trkpt lat="46.24787" lon="1.78572">
        <ele>408</ele>
        <time>2022-07-09T08:38:47Z</time>
      </trkpt>
      <trkpt lat="46.24785" lon="1.78586">
        <ele>407.6</ele>
        <time>2022-07-09T08:38:49Z</time>
      </trkpt>
      <trkpt lat="46.24783" lon="1.78594">
        <ele>407</ele>
        <time>2022-07-09T08:38:50Z</time>
      </trkpt>
      <trkpt lat="46.24782" lon="1.78602">
        <ele>406.6</ele>
        <time>2022-07-09T08:38:51Z</time>
      </trkpt>
      <trkpt lat="46.24778" lon="1.78615">
        <ele>406</ele>
        <time>2022-07-09T08:38:53Z</time>
      </trkpt>
      <trkpt lat="46.24775" lon="1.78631">
        <ele>405.4</ele>
        <time>2022-07-09T08:38:55Z</time>
      </trkpt>
      <trkpt lat="46.24775" lon="1.78645">
        <ele>404.2</ele>
        <time>2022-07-09T08:38:57Z</time>
      </trkpt>
      <trkpt lat="46.24774" lon="1.78652">
        <ele>404</ele>
        <time>2022-07-09T08:38:58Z</time>
      </trkpt>
      <trkpt lat="46.24772" lon="1.78664">
        <ele>403</ele>
        <time>2022-07-09T08:39:00Z</time>
      </trkpt>
      <trkpt lat="46.24772" lon="1.78671">
        <ele>403</ele>
        <time>2022-07-09T08:39:01Z</time>
      </trkpt>
      <trkpt lat="46.24772" lon="1.78694">
        <ele>402.4</ele>
        <time>2022-07-09T08:39:05Z</time>
      </trkpt>
      <trkpt lat="46.24771" lon="1.78727">
        <ele>402.4</ele>
        <time>2022-07-09T08:39:11Z</time>
      </trkpt>
      <trkpt lat="46.24771" lon="1.78734">
        <ele>402.2</ele>
        <time>2022-07-09T08:39:12Z</time>
      </trkpt>
      <trkpt lat="46.24771" lon="1.78742">
        <ele>402.2</ele>
        <time>2022-07-09T08:39:13Z</time>
      </trkpt>
      <trkpt lat="46.24768" lon="1.78762">
        <ele>402</ele>
        <time>2022-07-09T08:39:16Z</time>
      </trkpt>
      <trkpt lat="46.24767" lon="1.7877">
        <ele>402</ele>
        <time>2022-07-09T08:39:17Z</time>
      </trkpt>
      <trkpt lat="46.24766" lon="1.78781">
        <ele>401.8</ele>
        <time>2022-07-09T08:39:19Z</time>
      </trkpt>
      <trkpt lat="46.24764" lon="1.78802">
        <ele>401.4</ele>
        <time>2022-07-09T08:39:22Z</time>
      </trkpt>
      <trkpt lat="46.24762" lon="1.78825">
        <ele>401.2</ele>
        <time>2022-07-09T08:39:25Z</time>
      </trkpt>
      <trkpt lat="46.2476" lon="1.78847">
        <ele>401</ele>
        <time>2022-07-09T08:39:28Z</time>
      </trkpt>
      <trkpt lat="46.24761" lon="1.78854">
        <ele>401</ele>
        <time>2022-07-09T08:39:29Z</time>
      </trkpt>
      <trkpt lat="46.24761" lon="1.78862">
        <ele>400.8</ele>
        <time>2022-07-09T08:39:30Z</time>
      </trkpt>
      <trkpt lat="46.24761" lon="1.78875">
        <ele>400.8</ele>
        <time>2022-07-09T08:39:32Z</time>
      </trkpt>
      <trkpt lat="46.24764" lon="1.78891">
        <ele>400.8</ele>
        <time>2022-07-09T08:39:34Z</time>
      </trkpt>
      <trkpt lat="46.24758" lon="1.78917">
        <ele>400.4</ele>
        <time>2022-07-09T08:39:38Z</time>
      </trkpt>
      <trkpt lat="46.24757" lon="1.78925">
        <ele>400.4</ele>
        <time>2022-07-09T08:39:39Z</time>
      </trkpt>
      <trkpt lat="46.24753" lon="1.78954">
        <ele>400.2</ele>
        <time>2022-07-09T08:39:43Z</time>
      </trkpt>
      <trkpt lat="46.24751" lon="1.78962">
        <ele>400.2</ele>
        <time>2022-07-09T08:39:44Z</time>
      </trkpt>
      <trkpt lat="46.2475" lon="1.78968">
        <ele>400</ele>
        <time>2022-07-09T08:39:45Z</time>
      </trkpt>
      <trkpt lat="46.24748" lon="1.7899">
        <ele>400</ele>
        <time>2022-07-09T08:39:48Z</time>
      </trkpt>
      <trkpt lat="46.24745" lon="1.79007">
        <ele>399.8</ele>
        <time>2022-07-09T08:39:51Z</time>
      </trkpt>
      <trkpt lat="46.24743" lon="1.79021">
        <ele>399.8</ele>
        <time>2022-07-09T08:39:53Z</time>
      </trkpt>
      <trkpt lat="46.24743" lon="1.79027">
        <ele>399.8</ele>
        <time>2022-07-09T08:39:54Z</time>
      </trkpt>
      <trkpt lat="46.24739" lon="1.7907">
        <ele>399.2</ele>
        <time>2022-07-09T08:40:00Z</time>
      </trkpt>
      <trkpt lat="46.24737" lon="1.79084">
        <ele>399</ele>
        <time>2022-07-09T08:40:02Z</time>
      </trkpt>
      <trkpt lat="46.24729" lon="1.79116">
        <ele>399</ele>
        <time>2022-07-09T08:40:07Z</time>
      </trkpt>
      <trkpt lat="46.24718" lon="1.79161">
        <ele>398.8</ele>
        <time>2022-07-09T08:40:14Z</time>
      </trkpt>
      <trkpt lat="46.24712" lon="1.79178">
        <ele>398.6</ele>
        <time>2022-07-09T08:40:17Z</time>
      </trkpt>
      <trkpt lat="46.24708" lon="1.79188">
        <ele>398.2</ele>
        <time>2022-07-09T08:40:19Z</time>
      </trkpt>
      <trkpt lat="46.24706" lon="1.79193">
        <ele>398.2</ele>
        <time>2022-07-09T08:40:20Z</time>
      </trkpt>
      <trkpt lat="46.24704" lon="1.79198">
        <ele>398</ele>
        <time>2022-07-09T08:40:21Z</time>
      </trkpt>
      <trkpt lat="46.247" lon="1.79209">
        <ele>398</ele>
        <time>2022-07-09T08:40:23Z</time>
      </trkpt>
      <trkpt lat="46.24698" lon="1.79215">
        <ele>398</ele>
        <time>2022-07-09T08:40:24Z</time>
      </trkpt>
      <trkpt lat="46.24693" lon="1.79225">
        <ele>397.8</ele>
        <time>2022-07-09T08:40:26Z</time>
      </trkpt>
      <trkpt lat="46.24688" lon="1.79241">
        <ele>397.6</ele>
        <time>2022-07-09T08:40:29Z</time>
      </trkpt>
      <trkpt lat="46.24681" lon="1.79263">
        <ele>397.4</ele>
        <time>2022-07-09T08:40:33Z</time>
      </trkpt>
      <trkpt lat="46.24679" lon="1.79268">
        <ele>397.4</ele>
        <time>2022-07-09T08:40:34Z</time>
      </trkpt>
      <trkpt lat="46.24673" lon="1.79278">
        <ele>397.4</ele>
        <time>2022-07-09T08:40:36Z</time>
      </trkpt>
      <trkpt lat="46.24667" lon="1.79282">
        <ele>397.2</ele>
        <time>2022-07-09T08:40:38Z</time>
      </trkpt>
      <trkpt lat="46.24663" lon="1.79287">
        <ele>397</ele>
        <time>2022-07-09T08:40:40Z</time>
      </trkpt>
      <trkpt lat="46.24661" lon="1.79292">
        <ele>397</ele>
        <time>2022-07-09T08:40:41Z</time>
      </trkpt>
      <trkpt lat="46.24651" lon="1.79305">
        <ele>396.8</ele>
        <time>2022-07-09T08:40:44Z</time>
      </trkpt>
      <trkpt lat="46.24642" lon="1.79312">
        <ele>396.6</ele>
        <time>2022-07-09T08:40:46Z</time>
      </trkpt>
      <trkpt lat="46.24638" lon="1.79321">
        <ele>396.6</ele>
        <time>2022-07-09T08:40:48Z</time>
      </trkpt>
      <trkpt lat="46.24623" lon="1.79349">
        <ele>396.6</ele>
        <time>2022-07-09T08:40:53Z</time>
      </trkpt>
      <trkpt lat="46.24611" lon="1.7937">
        <ele>396.2</ele>
        <time>2022-07-09T08:40:58Z</time>
      </trkpt>
      <trkpt lat="46.24607" lon="1.79373">
        <ele>396.2</ele>
        <time>2022-07-09T08:40:59Z</time>
      </trkpt>
      <trkpt lat="46.24593" lon="1.79393">
        <ele>396.2</ele>
        <time>2022-07-09T08:41:02Z</time>
      </trkpt>
      <trkpt lat="46.24588" lon="1.79406">
        <ele>396</ele>
        <time>2022-07-09T08:41:04Z</time>
      </trkpt>
      <trkpt lat="46.24567" lon="1.79425">
        <ele>395.4</ele>
        <time>2022-07-09T08:41:09Z</time>
      </trkpt>
      <trkpt lat="46.2456" lon="1.79441">
        <ele>395.2</ele>
        <time>2022-07-09T08:41:13Z</time>
      </trkpt>
      <trkpt lat="46.24559" lon="1.79444">
        <ele>395.2</ele>
        <time>2022-07-09T08:41:14Z</time>
      </trkpt>
      <trkpt lat="46.24541" lon="1.79478">
        <ele>395</ele>
        <time>2022-07-09T08:41:18Z</time>
      </trkpt>
      <trkpt lat="46.24526" lon="1.79497">
        <ele>394.8</ele>
        <time>2022-07-09T08:41:22Z</time>
      </trkpt>
      <trkpt lat="46.24522" lon="1.79506">
        <ele>394.8</ele>
        <time>2022-07-09T08:41:24Z</time>
      </trkpt>
      <trkpt lat="46.24506" lon="1.79523">
        <ele>394.8</ele>
        <time>2022-07-09T08:41:28Z</time>
      </trkpt>
      <trkpt lat="46.24497" lon="1.79545">
        <ele>394.6</ele>
        <time>2022-07-09T08:41:33Z</time>
      </trkpt>
      <trkpt lat="46.24481" lon="1.79566">
        <ele>394.2</ele>
        <time>2022-07-09T08:41:38Z</time>
      </trkpt>
      <trkpt lat="46.24479" lon="1.79571">
        <ele>394.2</ele>
        <time>2022-07-09T08:41:39Z</time>
      </trkpt>
      <trkpt lat="46.24472" lon="1.7958">
        <ele>393.8</ele>
        <time>2022-07-09T08:41:41Z</time>
      </trkpt>
      <trkpt lat="46.24469" lon="1.79584">
        <ele>393.8</ele>
        <time>2022-07-09T08:41:42Z</time>
      </trkpt>
      <trkpt lat="46.24465" lon="1.79589">
        <ele>393.8</ele>
        <time>2022-07-09T08:41:43Z</time>
      </trkpt>
      <trkpt lat="46.24458" lon="1.796">
        <ele>393.4</ele>
        <time>2022-07-09T08:41:45Z</time>
      </trkpt>
      <trkpt lat="46.24451" lon="1.79611">
        <ele>393.2</ele>
        <time>2022-07-09T08:41:47Z</time>
      </trkpt>
      <trkpt lat="46.24441" lon="1.79627">
        <ele>393</ele>
        <time>2022-07-09T08:41:50Z</time>
      </trkpt>
      <trkpt lat="46.24438" lon="1.79633">
        <ele>393</ele>
        <time>2022-07-09T08:41:51Z</time>
      </trkpt>
      <trkpt lat="46.24425" lon="1.7965">
        <ele>393</ele>
        <time>2022-07-09T08:41:54Z</time>
      </trkpt>
      <trkpt lat="46.24423" lon="1.79653">
        <ele>392.8</ele>
        <time>2022-07-09T08:41:55Z</time>
      </trkpt>
      <trkpt lat="46.24417" lon="1.79664">
        <ele>392.8</ele>
        <time>2022-07-09T08:41:57Z</time>
      </trkpt>
      <trkpt lat="46.24415" lon="1.79669">
        <ele>392.6</ele>
        <time>2022-07-09T08:41:58Z</time>
      </trkpt>
      <trkpt lat="46.24405" lon="1.79694">
        <ele>392</ele>
        <time>2022-07-09T08:42:03Z</time>
      </trkpt>
      <trkpt lat="46.24401" lon="1.79703">
        <ele>392</ele>
        <time>2022-07-09T08:42:05Z</time>
      </trkpt>
      <trkpt lat="46.24399" lon="1.79708">
        <ele>392</ele>
        <time>2022-07-09T08:42:06Z</time>
      </trkpt>
      <trkpt lat="46.24397" lon="1.79713">
        <ele>392</ele>
        <time>2022-07-09T08:42:07Z</time>
      </trkpt>
      <trkpt lat="46.24391" lon="1.79728">
        <ele>391.8</ele>
        <time>2022-07-09T08:42:10Z</time>
      </trkpt>
      <trkpt lat="46.24385" lon="1.79743">
        <ele>391.6</ele>
        <time>2022-07-09T08:42:13Z</time>
      </trkpt>
      <trkpt lat="46.24372" lon="1.79782">
        <ele>391.4</ele>
        <time>2022-07-09T08:42:20Z</time>
      </trkpt>
      <trkpt lat="46.24367" lon="1.79805">
        <ele>391.2</ele>
        <time>2022-07-09T08:42:24Z</time>
      </trkpt>
      <trkpt lat="46.24363" lon="1.79817">
        <ele>391</ele>
        <time>2022-07-09T08:42:26Z</time>
      </trkpt>
      <trkpt lat="46.24352" lon="1.79841">
        <ele>390.8</ele>
        <time>2022-07-09T08:42:31Z</time>
      </trkpt>
      <trkpt lat="46.2435" lon="1.79846">
        <ele>390.8</ele>
        <time>2022-07-09T08:42:32Z</time>
      </trkpt>
      <trkpt lat="46.24348" lon="1.79851">
        <ele>390.6</ele>
        <time>2022-07-09T08:42:33Z</time>
      </trkpt>
      <trkpt lat="46.24346" lon="1.79857">
        <ele>390.6</ele>
        <time>2022-07-09T08:42:34Z</time>
      </trkpt>
      <trkpt lat="46.24344" lon="1.79871">
        <ele>390.6</ele>
        <time>2022-07-09T08:42:36Z</time>
      </trkpt>
      <trkpt lat="46.24342" lon="1.79877">
        <ele>390.6</ele>
        <time>2022-07-09T08:42:37Z</time>
      </trkpt>
      <trkpt lat="46.24329" lon="1.7992">
        <ele>390.4</ele>
        <time>2022-07-09T08:42:44Z</time>
      </trkpt>
      <trkpt lat="46.24325" lon="1.79932">
        <ele>390.4</ele>
        <time>2022-07-09T08:42:46Z</time>
      </trkpt>
      <trkpt lat="46.24318" lon="1.7995">
        <ele>390.4</ele>
        <time>2022-07-09T08:42:49Z</time>
      </trkpt>
      <trkpt lat="46.24306" lon="1.79987">
        <ele>390.4</ele>
        <time>2022-07-09T08:42:55Z</time>
      </trkpt>
      <trkpt lat="46.243" lon="1.80004">
        <ele>390.4</ele>
        <time>2022-07-09T08:42:58Z</time>
      </trkpt>
      <trkpt lat="46.24297" lon="1.80017">
        <ele>390.2</ele>
        <time>2022-07-09T08:43:00Z</time>
      </trkpt>
      <trkpt lat="46.24295" lon="1.80023">
        <ele>390.2</ele>
        <time>2022-07-09T08:43:01Z</time>
      </trkpt>
      <trkpt lat="46.24285" lon="1.80056">
        <ele>390</ele>
        <time>2022-07-09T08:43:06Z</time>
      </trkpt>
      <trkpt lat="46.24274" lon="1.80096">
        <ele>389.6</ele>
        <time>2022-07-09T08:43:12Z</time>
      </trkpt>
      <trkpt lat="46.24269" lon="1.80115">
        <ele>389.6</ele>
        <time>2022-07-09T08:43:15Z</time>
      </trkpt>
      <trkpt lat="46.24262" lon="1.80135">
        <ele>389.6</ele>
        <time>2022-07-09T08:43:18Z</time>
      </trkpt>
      <trkpt lat="46.2426" lon="1.80143">
        <ele>389.6</ele>
        <time>2022-07-09T08:43:19Z</time>
      </trkpt>
      <trkpt lat="46.2425" lon="1.80177">
        <ele>389.6</ele>
        <time>2022-07-09T08:43:24Z</time>
      </trkpt>
      <trkpt lat="46.24245" lon="1.80188">
        <ele>389.6</ele>
        <time>2022-07-09T08:43:26Z</time>
      </trkpt>
      <trkpt lat="46.24244" lon="1.80194">
        <ele>389.6</ele>
        <time>2022-07-09T08:43:27Z</time>
      </trkpt>
      <trkpt lat="46.24242" lon="1.80207">
        <ele>389.6</ele>
        <time>2022-07-09T08:43:29Z</time>
      </trkpt>
      <trkpt lat="46.2424" lon="1.80212">
        <ele>389.6</ele>
        <time>2022-07-09T08:43:30Z</time>
      </trkpt>
      <trkpt lat="46.24237" lon="1.80218">
        <ele>389.6</ele>
        <time>2022-07-09T08:43:31Z</time>
      </trkpt>
      <trkpt lat="46.24231" lon="1.80228">
        <ele>389.4</ele>
        <time>2022-07-09T08:43:33Z</time>
      </trkpt>
      <trkpt lat="46.24228" lon="1.80242">
        <ele>389.2</ele>
        <time>2022-07-09T08:43:35Z</time>
      </trkpt>
      <trkpt lat="46.24223" lon="1.80295">
        <ele>388.8</ele>
        <time>2022-07-09T08:43:42Z</time>
      </trkpt>
      <trkpt lat="46.24219" lon="1.80349">
        <ele>388.6</ele>
        <time>2022-07-09T08:43:49Z</time>
      </trkpt>
      <trkpt lat="46.24219" lon="1.804">
        <ele>388.8</ele>
        <time>2022-07-09T08:43:57Z</time>
      </trkpt>
      <trkpt lat="46.2422" lon="1.8041">
        <ele>388.8</ele>
        <time>2022-07-09T08:43:59Z</time>
      </trkpt>
      <trkpt lat="46.2422" lon="1.80423">
        <ele>388.8</ele>
        <time>2022-07-09T08:44:01Z</time>
      </trkpt>
      <trkpt lat="46.24221" lon="1.80436">
        <ele>388.8</ele>
        <time>2022-07-09T08:44:03Z</time>
      </trkpt>
      <trkpt lat="46.2422" lon="1.80462">
        <ele>388.8</ele>
        <time>2022-07-09T08:44:07Z</time>
      </trkpt>
      <trkpt lat="46.2422" lon="1.80469">
        <ele>388.6</ele>
        <time>2022-07-09T08:44:08Z</time>
      </trkpt>
      <trkpt lat="46.2422" lon="1.80476">
        <ele>388.4</ele>
        <time>2022-07-09T08:44:09Z</time>
      </trkpt>
      <trkpt lat="46.2422" lon="1.80498">
        <ele>388.2</ele>
        <time>2022-07-09T08:44:12Z</time>
      </trkpt>
      <trkpt lat="46.24219" lon="1.80512">
        <ele>388</ele>
        <time>2022-07-09T08:44:14Z</time>
      </trkpt>
      <trkpt lat="46.24219" lon="1.8052">
        <ele>388</ele>
        <time>2022-07-09T08:44:15Z</time>
      </trkpt>
      <trkpt lat="46.24218" lon="1.80544">
        <ele>387.8</ele>
        <time>2022-07-09T08:44:18Z</time>
      </trkpt>
      <trkpt lat="46.24218" lon="1.80552">
        <ele>387.8</ele>
        <time>2022-07-09T08:44:19Z</time>
      </trkpt>
      <trkpt lat="46.24217" lon="1.80616">
        <ele>387.4</ele>
        <time>2022-07-09T08:44:27Z</time>
      </trkpt>
      <trkpt lat="46.24217" lon="1.80623">
        <ele>387.4</ele>
        <time>2022-07-09T08:44:28Z</time>
      </trkpt>
      <trkpt lat="46.24216" lon="1.80654">
        <ele>387.4</ele>
        <time>2022-07-09T08:44:32Z</time>
      </trkpt>
      <trkpt lat="46.24215" lon="1.8066">
        <ele>387.4</ele>
        <time>2022-07-09T08:44:33Z</time>
      </trkpt>
      <trkpt lat="46.24214" lon="1.80689">
        <ele>387.2</ele>
        <time>2022-07-09T08:44:37Z</time>
      </trkpt>
      <trkpt lat="46.24213" lon="1.80712">
        <ele>387.2</ele>
        <time>2022-07-09T08:44:40Z</time>
      </trkpt>
      <trkpt lat="46.24211" lon="1.80735">
        <ele>386.8</ele>
        <time>2022-07-09T08:44:43Z</time>
      </trkpt>
      <trkpt lat="46.24206" lon="1.80778">
        <ele>386.4</ele>
        <time>2022-07-09T08:44:50Z</time>
      </trkpt>
      <trkpt lat="46.24204" lon="1.80785">
        <ele>386.4</ele>
        <time>2022-07-09T08:44:51Z</time>
      </trkpt>
      <trkpt lat="46.242" lon="1.808">
        <ele>386.4</ele>
        <time>2022-07-09T08:44:53Z</time>
      </trkpt>
      <trkpt lat="46.242" lon="1.80808">
        <ele>386.4</ele>
        <time>2022-07-09T08:44:54Z</time>
      </trkpt>
      <trkpt lat="46.24198" lon="1.80816">
        <ele>386.4</ele>
        <time>2022-07-09T08:44:55Z</time>
      </trkpt>
      <trkpt lat="46.2419" lon="1.8084">
        <ele>386.4</ele>
        <time>2022-07-09T08:44:59Z</time>
      </trkpt>
      <trkpt lat="46.24183" lon="1.80864">
        <ele>386.2</ele>
        <time>2022-07-09T08:45:02Z</time>
      </trkpt>
      <trkpt lat="46.24178" lon="1.80888">
        <ele>386.2</ele>
        <time>2022-07-09T08:45:05Z</time>
      </trkpt>
      <trkpt lat="46.24166" lon="1.80917">
        <ele>386.2</ele>
        <time>2022-07-09T08:45:09Z</time>
      </trkpt>
      <trkpt lat="46.2416" lon="1.80929">
        <ele>386</ele>
        <time>2022-07-09T08:45:11Z</time>
      </trkpt>
      <trkpt lat="46.24151" lon="1.80948">
        <ele>385.8</ele>
        <time>2022-07-09T08:45:14Z</time>
      </trkpt>
      <trkpt lat="46.24142" lon="1.80968">
        <ele>385.6</ele>
        <time>2022-07-09T08:45:17Z</time>
      </trkpt>
      <trkpt lat="46.24133" lon="1.80988">
        <ele>385.4</ele>
        <time>2022-07-09T08:45:20Z</time>
      </trkpt>
      <trkpt lat="46.24115" lon="1.81019">
        <ele>384.8</ele>
        <time>2022-07-09T08:45:25Z</time>
      </trkpt>
      <trkpt lat="46.24081" lon="1.8106">
        <ele>384.6</ele>
        <time>2022-07-09T08:45:33Z</time>
      </trkpt>
      <trkpt lat="46.24061" lon="1.81083">
        <ele>384.6</ele>
        <time>2022-07-09T08:45:37Z</time>
      </trkpt>
      <trkpt lat="46.24035" lon="1.81106">
        <ele>384.2</ele>
        <time>2022-07-09T08:45:42Z</time>
      </trkpt>
      <trkpt lat="46.24008" lon="1.81125">
        <ele>383.6</ele>
        <time>2022-07-09T08:45:47Z</time>
      </trkpt>
      <trkpt lat="46.23991" lon="1.81136">
        <ele>383.2</ele>
        <time>2022-07-09T08:45:50Z</time>
      </trkpt>
      <trkpt lat="46.23936" lon="1.81162">
        <ele>382.4</ele>
        <time>2022-07-09T08:45:59Z</time>
      </trkpt>
      <trkpt lat="46.23918" lon="1.81167">
        <ele>382.2</ele>
        <time>2022-07-09T08:46:02Z</time>
      </trkpt>
      <trkpt lat="46.23899" lon="1.81171">
        <ele>382</ele>
        <time>2022-07-09T08:46:05Z</time>
      </trkpt>
      <trkpt lat="46.23849" lon="1.8118">
        <ele>381.8</ele>
        <time>2022-07-09T08:46:13Z</time>
      </trkpt>
      <trkpt lat="46.23837" lon="1.81183">
        <ele>381.6</ele>
        <time>2022-07-09T08:46:15Z</time>
      </trkpt>
      <trkpt lat="46.23807" lon="1.81189">
        <ele>381.4</ele>
        <time>2022-07-09T08:46:20Z</time>
      </trkpt>
      <trkpt lat="46.23783" lon="1.81197">
        <ele>381.2</ele>
        <time>2022-07-09T08:46:24Z</time>
      </trkpt>
      <trkpt lat="46.2374" lon="1.81216">
        <ele>380.4</ele>
        <time>2022-07-09T08:46:31Z</time>
      </trkpt>
      <trkpt lat="46.23734" lon="1.81219">
        <ele>380.2</ele>
        <time>2022-07-09T08:46:32Z</time>
      </trkpt>
      <trkpt lat="46.23701" lon="1.81241">
        <ele>379.8</ele>
        <time>2022-07-09T08:46:38Z</time>
      </trkpt>
      <trkpt lat="46.2369" lon="1.81249">
        <ele>379.8</ele>
        <time>2022-07-09T08:46:40Z</time>
      </trkpt>
      <trkpt lat="46.23685" lon="1.81253">
        <ele>379.8</ele>
        <time>2022-07-09T08:46:41Z</time>
      </trkpt>
      <trkpt lat="46.23665" lon="1.81271">
        <ele>379.6</ele>
        <time>2022-07-09T08:46:45Z</time>
      </trkpt>
      <trkpt lat="46.23661" lon="1.81274">
        <ele>379.6</ele>
        <time>2022-07-09T08:46:46Z</time>
      </trkpt>
      <trkpt lat="46.23652" lon="1.81281">
        <ele>379.6</ele>
        <time>2022-07-09T08:46:48Z</time>
      </trkpt>
      <trkpt lat="46.23648" lon="1.81285">
        <ele>379.6</ele>
        <time>2022-07-09T08:46:49Z</time>
      </trkpt>
      <trkpt lat="46.23644" lon="1.8129">
        <ele>379.6</ele>
        <time>2022-07-09T08:46:50Z</time>
      </trkpt>
      <trkpt lat="46.23633" lon="1.81303">
        <ele>379.4</ele>
        <time>2022-07-09T08:46:53Z</time>
      </trkpt>
      <trkpt lat="46.23623" lon="1.81317">
        <ele>379.4</ele>
        <time>2022-07-09T08:46:56Z</time>
      </trkpt>
      <trkpt lat="46.23614" lon="1.81327">
        <ele>379.2</ele>
        <time>2022-07-09T08:46:59Z</time>
      </trkpt>
      <trkpt lat="46.23594" lon="1.81358">
        <ele>379.2</ele>
        <time>2022-07-09T08:47:04Z</time>
      </trkpt>
      <trkpt lat="46.23566" lon="1.81387">
        <ele>379</ele>
        <time>2022-07-09T08:47:10Z</time>
      </trkpt>
      <trkpt lat="46.23544" lon="1.81422">
        <ele>379.4</ele>
        <time>2022-07-09T08:47:16Z</time>
      </trkpt>
      <trkpt lat="46.23529" lon="1.81444">
        <ele>380</ele>
        <time>2022-07-09T08:47:21Z</time>
      </trkpt>
      <trkpt lat="46.23509" lon="1.81465">
        <ele>380.2</ele>
        <time>2022-07-09T08:47:26Z</time>
      </trkpt>
      <trkpt lat="46.23499" lon="1.81474">
        <ele>380.6</ele>
        <time>2022-07-09T08:47:30Z</time>
      </trkpt>
      <trkpt lat="46.23489" lon="1.81482">
        <ele>381.2</ele>
        <time>2022-07-09T08:47:33Z</time>
      </trkpt>
      <trkpt lat="46.2347" lon="1.81506">
        <ele>381.4</ele>
        <time>2022-07-09T08:47:38Z</time>
      </trkpt>
      <trkpt lat="46.23463" lon="1.81516">
        <ele>381.6</ele>
        <time>2022-07-09T08:47:40Z</time>
      </trkpt>
      <trkpt lat="46.23451" lon="1.81527">
        <ele>382</ele>
        <time>2022-07-09T08:47:44Z</time>
      </trkpt>
      <trkpt lat="46.23443" lon="1.81536">
        <ele>382.4</ele>
        <time>2022-07-09T08:47:48Z</time>
      </trkpt>
      <trkpt lat="46.23442" lon="1.81541">
        <ele>382.4</ele>
        <time>2022-07-09T08:47:49Z</time>
      </trkpt>
      <trkpt lat="46.23435" lon="1.81549">
        <ele>382.6</ele>
        <time>2022-07-09T08:47:52Z</time>
      </trkpt>
      <trkpt lat="46.2343" lon="1.81558">
        <ele>382.6</ele>
        <time>2022-07-09T08:47:54Z</time>
      </trkpt>
      <trkpt lat="46.23421" lon="1.81568">
        <ele>383.2</ele>
        <time>2022-07-09T08:47:57Z</time>
      </trkpt>
      <trkpt lat="46.23419" lon="1.81571">
        <ele>383.6</ele>
        <time>2022-07-09T08:47:58Z</time>
      </trkpt>
      <trkpt lat="46.23412" lon="1.81577">
        <ele>383.8</ele>
        <time>2022-07-09T08:48:00Z</time>
      </trkpt>
      <trkpt lat="46.23409" lon="1.81582">
        <ele>383.8</ele>
        <time>2022-07-09T08:48:01Z</time>
      </trkpt>
      <trkpt lat="46.23393" lon="1.81605">
        <ele>384.2</ele>
        <time>2022-07-09T08:48:07Z</time>
      </trkpt>
      <trkpt lat="46.23379" lon="1.8163">
        <ele>384.4</ele>
        <time>2022-07-09T08:48:12Z</time>
      </trkpt>
      <trkpt lat="46.23366" lon="1.81642">
        <ele>384.4</ele>
        <time>2022-07-09T08:48:16Z</time>
      </trkpt>
      <trkpt lat="46.23357" lon="1.8165">
        <ele>384.8</ele>
        <time>2022-07-09T08:48:19Z</time>
      </trkpt>
      <trkpt lat="46.23351" lon="1.8166">
        <ele>385</ele>
        <time>2022-07-09T08:48:22Z</time>
      </trkpt>
      <trkpt lat="46.23336" lon="1.81672">
        <ele>385.4</ele>
        <time>2022-07-09T08:48:27Z</time>
      </trkpt>
      <trkpt lat="46.23332" lon="1.81676">
        <ele>385.8</ele>
        <time>2022-07-09T08:48:28Z</time>
      </trkpt>
      <trkpt lat="46.23325" lon="1.81687">
        <ele>386</ele>
        <time>2022-07-09T08:48:31Z</time>
      </trkpt>
      <trkpt lat="46.23323" lon="1.81691">
        <ele>386</ele>
        <time>2022-07-09T08:48:32Z</time>
      </trkpt>
      <trkpt lat="46.23316" lon="1.81703">
        <ele>386.2</ele>
        <time>2022-07-09T08:48:35Z</time>
      </trkpt>
      <trkpt lat="46.23303" lon="1.81727">
        <ele>386.6</ele>
        <time>2022-07-09T08:48:41Z</time>
      </trkpt>
      <trkpt lat="46.233" lon="1.81733">
        <ele>386.6</ele>
        <time>2022-07-09T08:48:42Z</time>
      </trkpt>
      <trkpt lat="46.2329" lon="1.81755">
        <ele>387.2</ele>
        <time>2022-07-09T08:48:46Z</time>
      </trkpt>
      <trkpt lat="46.23289" lon="1.8176">
        <ele>387.4</ele>
        <time>2022-07-09T08:48:47Z</time>
      </trkpt>
      <trkpt lat="46.23277" lon="1.81779">
        <ele>387.8</ele>
        <time>2022-07-09T08:48:51Z</time>
      </trkpt>
      <trkpt lat="46.23271" lon="1.81791">
        <ele>388</ele>
        <time>2022-07-09T08:48:54Z</time>
      </trkpt>
      <trkpt lat="46.2327" lon="1.81793">
        <ele>388</ele>
        <time>2022-07-09T08:48:55Z</time>
      </trkpt>
      <trkpt lat="46.23266" lon="1.81797">
        <ele>388.2</ele>
        <time>2022-07-09T08:48:57Z</time>
      </trkpt>
      <trkpt lat="46.23258" lon="1.81811">
        <ele>388.8</ele>
        <time>2022-07-09T08:49:01Z</time>
      </trkpt>
      <trkpt lat="46.2325" lon="1.81841">
        <ele>389</ele>
        <time>2022-07-09T08:49:07Z</time>
      </trkpt>
      <trkpt lat="46.23244" lon="1.81855">
        <ele>389.4</ele>
        <time>2022-07-09T08:49:12Z</time>
      </trkpt>
      <trkpt lat="46.23242" lon="1.81857">
        <ele>389.4</ele>
        <time>2022-07-09T08:49:14Z</time>
      </trkpt>
      <trkpt lat="46.23236" lon="1.81863">
        <ele>389.4</ele>
        <time>2022-07-09T08:49:18Z</time>
      </trkpt>
      <trkpt lat="46.23229" lon="1.81879">
        <ele>389.4</ele>
        <time>2022-07-09T08:49:23Z</time>
      </trkpt>
      <trkpt lat="46.23222" lon="1.81896">
        <ele>389.6</ele>
        <time>2022-07-09T08:49:28Z</time>
      </trkpt>
      <trkpt lat="46.23221" lon="1.81901">
        <ele>389.6</ele>
        <time>2022-07-09T08:49:29Z</time>
      </trkpt>
      <trkpt lat="46.23214" lon="1.81915">
        <ele>390.4</ele>
        <time>2022-07-09T08:49:34Z</time>
      </trkpt>
      <trkpt lat="46.2321" lon="1.81931">
        <ele>390.6</ele>
        <time>2022-07-09T08:49:37Z</time>
      </trkpt>
      <trkpt lat="46.23211" lon="1.81934">
        <ele>391</ele>
        <time>2022-07-09T08:49:38Z</time>
      </trkpt>
      <trkpt lat="46.23212" lon="1.81937">
        <ele>391</ele>
        <time>2022-07-09T08:49:39Z</time>
      </trkpt>
      <trkpt lat="46.23212" lon="1.81938">
        <ele>391.4</ele>
        <time>2022-07-09T08:49:41Z</time>
      </trkpt>
      <trkpt lat="46.23212" lon="1.81941">
        <ele>391.4</ele>
        <time>2022-07-09T08:49:43Z</time>
      </trkpt>
      <trkpt lat="46.23212" lon="1.81942">
        <ele>391.6</ele>
        <time>2022-07-09T08:49:44Z</time>
      </trkpt>
      <trkpt lat="46.23213" lon="1.81944">
        <ele>391.8</ele>
        <time>2022-07-09T08:49:45Z</time>
      </trkpt>
      <trkpt lat="46.23214" lon="1.81948">
        <ele>392.2</ele>
        <time>2022-07-09T08:49:47Z</time>
      </trkpt>
      <trkpt lat="46.23214" lon="1.81956">
        <ele>392.6</ele>
        <time>2022-07-09T08:49:50Z</time>
      </trkpt>
      <trkpt lat="46.23213" lon="1.81958">
        <ele>392.8</ele>
        <time>2022-07-09T08:49:51Z</time>
      </trkpt>
      <trkpt lat="46.23212" lon="1.8196">
        <ele>393</ele>
        <time>2022-07-09T08:49:52Z</time>
      </trkpt>
      <trkpt lat="46.23211" lon="1.81964">
        <ele>393.2</ele>
        <time>2022-07-09T08:49:54Z</time>
      </trkpt>
      <trkpt lat="46.2321" lon="1.81967">
        <ele>393.2</ele>
        <time>2022-07-09T08:49:55Z</time>
      </trkpt>
      <trkpt lat="46.23208" lon="1.81981">
        <ele>393.4</ele>
        <time>2022-07-09T08:49:59Z</time>
      </trkpt>
      <trkpt lat="46.23209" lon="1.81986">
        <ele>393.4</ele>
        <time>2022-07-09T08:50:00Z</time>
      </trkpt>
      <trkpt lat="46.2321" lon="1.81995">
        <ele>393.4</ele>
        <time>2022-07-09T08:50:02Z</time>
      </trkpt>
      <trkpt lat="46.23209" lon="1.81997">
        <ele>393.6</ele>
        <time>2022-07-09T08:50:04Z</time>
      </trkpt>
      <trkpt lat="46.23208" lon="1.82008">
        <ele>393.6</ele>
        <time>2022-07-09T08:50:07Z</time>
      </trkpt>
      <trkpt lat="46.23206" lon="1.82044">
        <ele>393.8</ele>
        <time>2022-07-09T08:50:14Z</time>
      </trkpt>
      <trkpt lat="46.23203" lon="1.8207">
        <ele>393.8</ele>
        <time>2022-07-09T08:50:19Z</time>
      </trkpt>
      <trkpt lat="46.23202" lon="1.82085">
        <ele>393.8</ele>
        <time>2022-07-09T08:50:21Z</time>
      </trkpt>
      <trkpt lat="46.23205" lon="1.82098">
        <ele>394</ele>
        <time>2022-07-09T08:50:23Z</time>
      </trkpt>
      <trkpt lat="46.23206" lon="1.82103">
        <ele>394</ele>
        <time>2022-07-09T08:50:24Z</time>
      </trkpt>
      <trkpt lat="46.2321" lon="1.8213">
        <ele>394.2</ele>
        <time>2022-07-09T08:50:28Z</time>
      </trkpt>
      <trkpt lat="46.23211" lon="1.82142">
        <ele>394.2</ele>
        <time>2022-07-09T08:50:30Z</time>
      </trkpt>
      <trkpt lat="46.23213" lon="1.82179">
        <ele>394.4</ele>
        <time>2022-07-09T08:50:36Z</time>
      </trkpt>
      <trkpt lat="46.23217" lon="1.82212">
        <ele>394.8</ele>
        <time>2022-07-09T08:50:41Z</time>
      </trkpt>
      <trkpt lat="46.23225" lon="1.82254">
        <ele>395</ele>
        <time>2022-07-09T08:50:48Z</time>
      </trkpt>
      <trkpt lat="46.23229" lon="1.82272">
        <ele>395</ele>
        <time>2022-07-09T08:50:52Z</time>
      </trkpt>
      <trkpt lat="46.23231" lon="1.82282">
        <ele>395.2</ele>
        <time>2022-07-09T08:50:54Z</time>
      </trkpt>
      <trkpt lat="46.23236" lon="1.82294">
        <ele>395.2</ele>
        <time>2022-07-09T08:50:57Z</time>
      </trkpt>
      <trkpt lat="46.23239" lon="1.823">
        <ele>395.4</ele>
        <time>2022-07-09T08:50:59Z</time>
      </trkpt>
      <trkpt lat="46.23242" lon="1.82309">
        <ele>395.4</ele>
        <time>2022-07-09T08:51:01Z</time>
      </trkpt>
      <trkpt lat="46.23249" lon="1.82327">
        <ele>395.6</ele>
        <time>2022-07-09T08:51:05Z</time>
      </trkpt>
      <trkpt lat="46.23255" lon="1.82341">
        <ele>396</ele>
        <time>2022-07-09T08:51:08Z</time>
      </trkpt>
      <trkpt lat="46.23258" lon="1.82346">
        <ele>396.2</ele>
        <time>2022-07-09T08:51:09Z</time>
      </trkpt>
      <trkpt lat="46.23259" lon="1.8235">
        <ele>396.4</ele>
        <time>2022-07-09T08:51:10Z</time>
      </trkpt>
      <trkpt lat="46.23269" lon="1.82377">
        <ele>397.2</ele>
        <time>2022-07-09T08:51:17Z</time>
      </trkpt>
      <trkpt lat="46.23273" lon="1.82387">
        <ele>397.4</ele>
        <time>2022-07-09T08:51:19Z</time>
      </trkpt>
      <trkpt lat="46.23281" lon="1.82405">
        <ele>397.8</ele>
        <time>2022-07-09T08:51:24Z</time>
      </trkpt>
      <trkpt lat="46.23293" lon="1.82431">
        <ele>398</ele>
        <time>2022-07-09T08:51:32Z</time>
      </trkpt>
      <trkpt lat="46.23296" lon="1.82439">
        <ele>398.2</ele>
        <time>2022-07-09T08:51:34Z</time>
      </trkpt>
      <trkpt lat="46.23305" lon="1.82458">
        <ele>398.8</ele>
        <time>2022-07-09T08:51:39Z</time>
      </trkpt>
      <trkpt lat="46.23309" lon="1.82465">
        <ele>399.4</ele>
        <time>2022-07-09T08:51:42Z</time>
      </trkpt>
      <trkpt lat="46.2331" lon="1.82467">
        <ele>399.4</ele>
        <time>2022-07-09T08:51:43Z</time>
      </trkpt>
      <trkpt lat="46.23312" lon="1.82471">
        <ele>399.8</ele>
        <time>2022-07-09T08:51:45Z</time>
      </trkpt>
      <trkpt lat="46.23313" lon="1.82476">
        <ele>400.2</ele>
        <time>2022-07-09T08:51:47Z</time>
      </trkpt>
      <trkpt lat="46.23316" lon="1.82482">
        <ele>400.4</ele>
        <time>2022-07-09T08:51:49Z</time>
      </trkpt>
      <trkpt lat="46.23317" lon="1.82487">
        <ele>400.8</ele>
        <time>2022-07-09T08:51:51Z</time>
      </trkpt>
      <trkpt lat="46.23318" lon="1.8249">
        <ele>401.2</ele>
        <time>2022-07-09T08:51:52Z</time>
      </trkpt>
      <trkpt lat="46.23321" lon="1.82497">
        <ele>401.4</ele>
        <time>2022-07-09T08:51:54Z</time>
      </trkpt>
      <trkpt lat="46.23323" lon="1.82506">
        <ele>401.8</ele>
        <time>2022-07-09T08:51:57Z</time>
      </trkpt>
      <trkpt lat="46.2333" lon="1.82531">
        <ele>402.6</ele>
        <time>2022-07-09T08:52:03Z</time>
      </trkpt>
      <trkpt lat="46.23332" lon="1.82536">
        <ele>402.6</ele>
        <time>2022-07-09T08:52:04Z</time>
      </trkpt>
      <trkpt lat="46.2334" lon="1.82559">
        <ele>403.8</ele>
        <time>2022-07-09T08:52:11Z</time>
      </trkpt>
      <trkpt lat="46.23346" lon="1.82569">
        <ele>404.8</ele>
        <time>2022-07-09T08:52:15Z</time>
      </trkpt>
      <trkpt lat="46.23349" lon="1.82577">
        <ele>405.4</ele>
        <time>2022-07-09T08:52:18Z</time>
      </trkpt>
      <trkpt lat="46.23352" lon="1.82587">
        <ele>405.8</ele>
        <time>2022-07-09T08:52:21Z</time>
      </trkpt>
      <trkpt lat="46.23357" lon="1.82603">
        <ele>406.4</ele>
        <time>2022-07-09T08:52:26Z</time>
      </trkpt>
      <trkpt lat="46.2336" lon="1.82622">
        <ele>406.4</ele>
        <time>2022-07-09T08:52:32Z</time>
      </trkpt>
      <trkpt lat="46.23363" lon="1.82628">
        <ele>406.6</ele>
        <time>2022-07-09T08:52:35Z</time>
      </trkpt>
      <trkpt lat="46.23364" lon="1.82636">
        <ele>406.8</ele>
        <time>2022-07-09T08:52:37Z</time>
      </trkpt>
      <trkpt lat="46.23365" lon="1.82648">
        <ele>407.2</ele>
        <time>2022-07-09T08:52:40Z</time>
      </trkpt>
      <trkpt lat="46.23366" lon="1.82656">
        <ele>407.4</ele>
        <time>2022-07-09T08:52:42Z</time>
      </trkpt>
      <trkpt lat="46.23366" lon="1.82689">
        <ele>408.2</ele>
        <time>2022-07-09T08:52:50Z</time>
      </trkpt>
      <trkpt lat="46.23365" lon="1.82723">
        <ele>408.8</ele>
        <time>2022-07-09T08:52:57Z</time>
      </trkpt>
      <trkpt lat="46.23364" lon="1.82751">
        <ele>409.2</ele>
        <time>2022-07-09T08:53:02Z</time>
      </trkpt>
      <trkpt lat="46.23364" lon="1.82756">
        <ele>409.2</ele>
        <time>2022-07-09T08:53:03Z</time>
      </trkpt>
      <trkpt lat="46.23364" lon="1.82761">
        <ele>409.4</ele>
        <time>2022-07-09T08:53:04Z</time>
      </trkpt>
      <trkpt lat="46.23362" lon="1.82796">
        <ele>409.8</ele>
        <time>2022-07-09T08:53:11Z</time>
      </trkpt>
      <trkpt lat="46.2336" lon="1.82828">
        <ele>409.6</ele>
        <time>2022-07-09T08:53:16Z</time>
      </trkpt>
      <trkpt lat="46.23358" lon="1.82855">
        <ele>409</ele>
        <time>2022-07-09T08:53:20Z</time>
      </trkpt>
      <trkpt lat="46.23358" lon="1.82859">
        <ele>409</ele>
        <time>2022-07-09T08:53:21Z</time>
      </trkpt>
      <trkpt lat="46.23358" lon="1.82863">
        <ele>408.8</ele>
        <time>2022-07-09T08:53:22Z</time>
      </trkpt>
      <trkpt lat="46.23357" lon="1.82867">
        <ele>408.8</ele>
        <time>2022-07-09T08:53:23Z</time>
      </trkpt>
      <trkpt lat="46.23351" lon="1.82889">
        <ele>408.2</ele>
        <time>2022-07-09T08:53:26Z</time>
      </trkpt>
      <trkpt lat="46.23349" lon="1.82896">
        <ele>408</ele>
        <time>2022-07-09T08:53:27Z</time>
      </trkpt>
      <trkpt lat="46.23343" lon="1.82917">
        <ele>406.8</ele>
        <time>2022-07-09T08:53:30Z</time>
      </trkpt>
      <trkpt lat="46.2334" lon="1.82926">
        <ele>406.4</ele>
        <time>2022-07-09T08:53:31Z</time>
      </trkpt>
      <trkpt lat="46.23339" lon="1.82935">
        <ele>406</ele>
        <time>2022-07-09T08:53:32Z</time>
      </trkpt>
      <trkpt lat="46.23334" lon="1.8295">
        <ele>405.4</ele>
        <time>2022-07-09T08:53:34Z</time>
      </trkpt>
      <trkpt lat="46.2333" lon="1.82957">
        <ele>405.2</ele>
        <time>2022-07-09T08:53:35Z</time>
      </trkpt>
      <trkpt lat="46.23327" lon="1.82965">
        <ele>404.4</ele>
        <time>2022-07-09T08:53:36Z</time>
      </trkpt>
      <trkpt lat="46.23323" lon="1.82973">
        <ele>404</ele>
        <time>2022-07-09T08:53:37Z</time>
      </trkpt>
      <trkpt lat="46.23315" lon="1.82988">
        <ele>403.4</ele>
        <time>2022-07-09T08:53:39Z</time>
      </trkpt>
      <trkpt lat="46.23312" lon="1.82995">
        <ele>403.2</ele>
        <time>2022-07-09T08:53:40Z</time>
      </trkpt>
      <trkpt lat="46.23307" lon="1.83001">
        <ele>403</ele>
        <time>2022-07-09T08:53:41Z</time>
      </trkpt>
      <trkpt lat="46.23302" lon="1.83013">
        <ele>402.4</ele>
        <time>2022-07-09T08:53:43Z</time>
      </trkpt>
      <trkpt lat="46.233" lon="1.83019">
        <ele>402.2</ele>
        <time>2022-07-09T08:53:44Z</time>
      </trkpt>
      <trkpt lat="46.23298" lon="1.83026">
        <ele>401.8</ele>
        <time>2022-07-09T08:53:45Z</time>
      </trkpt>
      <trkpt lat="46.23298" lon="1.83039">
        <ele>400.8</ele>
        <time>2022-07-09T08:53:47Z</time>
      </trkpt>
      <trkpt lat="46.23306" lon="1.83049">
        <ele>399.4</ele>
        <time>2022-07-09T08:53:50Z</time>
      </trkpt>
      <trkpt lat="46.23309" lon="1.83054">
        <ele>398.8</ele>
        <time>2022-07-09T08:53:52Z</time>
      </trkpt>
      <trkpt lat="46.23313" lon="1.83058">
        <ele>398.4</ele>
        <time>2022-07-09T08:53:54Z</time>
      </trkpt>
      <trkpt lat="46.23314" lon="1.83061">
        <ele>398.4</ele>
        <time>2022-07-09T08:53:55Z</time>
      </trkpt>
      <trkpt lat="46.23315" lon="1.83066">
        <ele>398.4</ele>
        <time>2022-07-09T08:53:56Z</time>
      </trkpt>
      <trkpt lat="46.23314" lon="1.83071">
        <ele>398.2</ele>
        <time>2022-07-09T08:53:57Z</time>
      </trkpt>
      <trkpt lat="46.23304" lon="1.831">
        <ele>397.8</ele>
        <time>2022-07-09T08:54:03Z</time>
      </trkpt>
      <trkpt lat="46.23295" lon="1.83128">
        <ele>397.2</ele>
        <time>2022-07-09T08:54:08Z</time>
      </trkpt>
      <trkpt lat="46.23293" lon="1.83134">
        <ele>397</ele>
        <time>2022-07-09T08:54:09Z</time>
      </trkpt>
      <trkpt lat="46.23291" lon="1.8314">
        <ele>397</ele>
        <time>2022-07-09T08:54:10Z</time>
      </trkpt>
      <trkpt lat="46.23289" lon="1.83151">
        <ele>397</ele>
        <time>2022-07-09T08:54:12Z</time>
      </trkpt>
      <trkpt lat="46.23278" lon="1.83187">
        <ele>396.8</ele>
        <time>2022-07-09T08:54:18Z</time>
      </trkpt>
      <trkpt lat="46.23265" lon="1.83215">
        <ele>396.8</ele>
        <time>2022-07-09T08:54:24Z</time>
      </trkpt>
      <trkpt lat="46.23258" lon="1.83233">
        <ele>398.2</ele>
        <time>2022-07-09T08:54:29Z</time>
      </trkpt>
      <trkpt lat="46.23256" lon="1.83239">
        <ele>398.4</ele>
        <time>2022-07-09T08:54:31Z</time>
      </trkpt>
      <trkpt lat="46.2325" lon="1.83256">
        <ele>399.2</ele>
        <time>2022-07-09T08:54:36Z</time>
      </trkpt>
      <trkpt lat="46.23246" lon="1.83263">
        <ele>399.4</ele>
        <time>2022-07-09T08:54:38Z</time>
      </trkpt>
      <trkpt lat="46.23237" lon="1.8328">
        <ele>400.2</ele>
        <time>2022-07-09T08:54:43Z</time>
      </trkpt>
      <trkpt lat="46.23235" lon="1.83287">
        <ele>400.6</ele>
        <time>2022-07-09T08:54:45Z</time>
      </trkpt>
      <trkpt lat="46.2323" lon="1.83305">
        <ele>401.4</ele>
        <time>2022-07-09T08:54:50Z</time>
      </trkpt>
      <trkpt lat="46.23228" lon="1.8331">
        <ele>401.6</ele>
        <time>2022-07-09T08:54:51Z</time>
      </trkpt>
      <trkpt lat="46.23221" lon="1.83326">
        <ele>402</ele>
        <time>2022-07-09T08:54:54Z</time>
      </trkpt>
      <trkpt lat="46.2322" lon="1.83331">
        <ele>402</ele>
        <time>2022-07-09T08:54:55Z</time>
      </trkpt>
      <trkpt lat="46.23213" lon="1.83356">
        <ele>402.4</ele>
        <time>2022-07-09T08:55:00Z</time>
      </trkpt>
      <trkpt lat="46.23212" lon="1.83391">
        <ele>402.6</ele>
        <time>2022-07-09T08:55:05Z</time>
      </trkpt>
      <trkpt lat="46.23207" lon="1.83415">
        <ele>402.6</ele>
        <time>2022-07-09T08:55:09Z</time>
      </trkpt>
      <trkpt lat="46.23209" lon="1.8344">
        <ele>402.6</ele>
        <time>2022-07-09T08:55:13Z</time>
      </trkpt>
      <trkpt lat="46.23209" lon="1.83483">
        <ele>402.4</ele>
        <time>2022-07-09T08:55:20Z</time>
      </trkpt>
      <trkpt lat="46.23202" lon="1.8353">
        <ele>402.6</ele>
        <time>2022-07-09T08:55:28Z</time>
      </trkpt>
      <trkpt lat="46.232" lon="1.83542">
        <ele>402.6</ele>
        <time>2022-07-09T08:55:30Z</time>
      </trkpt>
      <trkpt lat="46.23192" lon="1.83583">
        <ele>402.8</ele>
        <time>2022-07-09T08:55:37Z</time>
      </trkpt>
      <trkpt lat="46.23188" lon="1.836">
        <ele>402.8</ele>
        <time>2022-07-09T08:55:40Z</time>
      </trkpt>
      <trkpt lat="46.23184" lon="1.83618">
        <ele>402.8</ele>
        <time>2022-07-09T08:55:43Z</time>
      </trkpt>
      <trkpt lat="46.23178" lon="1.83633">
        <ele>402.8</ele>
        <time>2022-07-09T08:55:46Z</time>
      </trkpt>
      <trkpt lat="46.23171" lon="1.83647">
        <ele>402.8</ele>
        <time>2022-07-09T08:55:49Z</time>
      </trkpt>
      <trkpt lat="46.23169" lon="1.83651">
        <ele>402.8</ele>
        <time>2022-07-09T08:55:50Z</time>
      </trkpt>
      <trkpt lat="46.23155" lon="1.83679">
        <ele>403</ele>
        <time>2022-07-09T08:55:57Z</time>
      </trkpt>
      <trkpt lat="46.2315" lon="1.8371">
        <ele>403.6</ele>
        <time>2022-07-09T08:56:04Z</time>
      </trkpt>
      <trkpt lat="46.23149" lon="1.8372">
        <ele>403.6</ele>
        <time>2022-07-09T08:56:07Z</time>
      </trkpt>
      <trkpt lat="46.23148" lon="1.83724">
        <ele>404</ele>
        <time>2022-07-09T08:56:09Z</time>
      </trkpt>
      <trkpt lat="46.23146" lon="1.83721">
        <ele>404.2</ele>
        <time>2022-07-09T08:56:12Z</time>
      </trkpt>
      <trkpt lat="46.23146" lon="1.83718">
        <ele>404.2</ele>
        <time>2022-07-09T08:56:13Z</time>
      </trkpt>
      <trkpt lat="46.23147" lon="1.837">
        <ele>404.4</ele>
        <time>2022-07-09T08:56:17Z</time>
      </trkpt>
      <trkpt lat="46.23139" lon="1.83698">
        <ele>403.8</ele>
        <time>2022-07-09T08:56:20Z</time>
      </trkpt>
      <trkpt lat="46.23128" lon="1.83712">
        <ele>403.2</ele>
        <time>2022-07-09T08:56:25Z</time>
      </trkpt>
      <trkpt lat="46.23124" lon="1.83745">
        <ele>403</ele>
        <time>2022-07-09T08:56:32Z</time>
      </trkpt>
      <trkpt lat="46.23122" lon="1.83772">
        <ele>403.4</ele>
        <time>2022-07-09T08:56:37Z</time>
      </trkpt>
      <trkpt lat="46.23122" lon="1.83776">
        <ele>403.4</ele>
        <time>2022-07-09T08:56:38Z</time>
      </trkpt>
      <trkpt lat="46.23116" lon="1.83797">
        <ele>403.6</ele>
        <time>2022-07-09T08:56:42Z</time>
      </trkpt>
      <trkpt lat="46.23113" lon="1.83817">
        <ele>403.6</ele>
        <time>2022-07-09T08:56:45Z</time>
      </trkpt>
      <trkpt lat="46.23112" lon="1.83827">
        <ele>403.6</ele>
        <time>2022-07-09T08:56:46Z</time>
      </trkpt>
      <trkpt lat="46.23109" lon="1.83838">
        <ele>403.8</ele>
        <time>2022-07-09T08:56:48Z</time>
      </trkpt>
      <trkpt lat="46.23107" lon="1.8385">
        <ele>403.8</ele>
        <time>2022-07-09T08:56:50Z</time>
      </trkpt>
      <trkpt lat="46.23104" lon="1.83872">
        <ele>403.8</ele>
        <time>2022-07-09T08:56:54Z</time>
      </trkpt>
      <trkpt lat="46.23105" lon="1.83877">
        <ele>403.8</ele>
        <time>2022-07-09T08:56:55Z</time>
      </trkpt>
      <trkpt lat="46.23103" lon="1.83889">
        <ele>403.8</ele>
        <time>2022-07-09T08:56:57Z</time>
      </trkpt>
      <trkpt lat="46.23101" lon="1.83895">
        <ele>403.8</ele>
        <time>2022-07-09T08:56:58Z</time>
      </trkpt>
      <trkpt lat="46.23091" lon="1.83929">
        <ele>403.6</ele>
        <time>2022-07-09T08:57:03Z</time>
      </trkpt>
      <trkpt lat="46.23086" lon="1.8396">
        <ele>403.4</ele>
        <time>2022-07-09T08:57:08Z</time>
      </trkpt>
      <trkpt lat="46.23082" lon="1.8399">
        <ele>402.6</ele>
        <time>2022-07-09T08:57:13Z</time>
      </trkpt>
      <trkpt lat="46.23081" lon="1.83995">
        <ele>402.4</ele>
        <time>2022-07-09T08:57:17Z</time>
      </trkpt>
      <trkpt lat="46.23081" lon="1.83998">
        <ele>402.4</ele>
        <time>2022-07-09T08:57:18Z</time>
      </trkpt>
      <trkpt lat="46.23079" lon="1.84">
        <ele>402.4</ele>
        <time>2022-07-09T08:57:19Z</time>
      </trkpt>
      <trkpt lat="46.23078" lon="1.84004">
        <ele>402.4</ele>
        <time>2022-07-09T08:57:21Z</time>
      </trkpt>
      <trkpt lat="46.23075" lon="1.8402">
        <ele>402</ele>
        <time>2022-07-09T08:57:27Z</time>
      </trkpt>
      <trkpt lat="46.23074" lon="1.84033">
        <ele>401.8</ele>
        <time>2022-07-09T08:57:33Z</time>
      </trkpt>
      <trkpt lat="46.23072" lon="1.84044">
        <ele>401.8</ele>
        <time>2022-07-09T08:57:37Z</time>
      </trkpt>
      <trkpt lat="46.23069" lon="1.84052">
        <ele>401.6</ele>
        <time>2022-07-09T08:57:40Z</time>
      </trkpt>
      <trkpt lat="46.23064" lon="1.84078">
        <ele>401.4</ele>
        <time>2022-07-09T08:57:47Z</time>
      </trkpt>
      <trkpt lat="46.23056" lon="1.84107">
        <ele>401.2</ele>
        <time>2022-07-09T08:57:53Z</time>
      </trkpt>
      <trkpt lat="46.23056" lon="1.84115">
        <ele>400.8</ele>
        <time>2022-07-09T08:57:58Z</time>
      </trkpt>
      <trkpt lat="46.23055" lon="1.84116">
        <ele>400.6</ele>
        <time>2022-07-09T08:58:00Z</time>
      </trkpt>
      <trkpt lat="46.23055" lon="1.84118">
        <ele>400.6</ele>
        <time>2022-07-09T08:58:03Z</time>
      </trkpt>
      <trkpt lat="46.23054" lon="1.8413">
        <ele>400.6</ele>
        <time>2022-07-09T08:58:05Z</time>
      </trkpt>
      <trkpt lat="46.23052" lon="1.84148">
        <ele>400.6</ele>
        <time>2022-07-09T08:58:08Z</time>
      </trkpt>
      <trkpt lat="46.23051" lon="1.84152">
        <ele>400.4</ele>
        <time>2022-07-09T08:58:09Z</time>
      </trkpt>
      <trkpt lat="46.2305" lon="1.84157">
        <ele>400.4</ele>
        <time>2022-07-09T08:58:10Z</time>
      </trkpt>
      <trkpt lat="46.23044" lon="1.84183">
        <ele>400.4</ele>
        <time>2022-07-09T08:58:14Z</time>
      </trkpt>
      <trkpt lat="46.23044" lon="1.84187">
        <ele>400.4</ele>
        <time>2022-07-09T08:58:15Z</time>
      </trkpt>
      <trkpt lat="46.23042" lon="1.84195">
        <ele>400.4</ele>
        <time>2022-07-09T08:58:17Z</time>
      </trkpt>
      <trkpt lat="46.23041" lon="1.84201">
        <ele>400.4</ele>
        <time>2022-07-09T08:58:18Z</time>
      </trkpt>
      <trkpt lat="46.23039" lon="1.84209">
        <ele>400.4</ele>
        <time>2022-07-09T08:58:19Z</time>
      </trkpt>
      <trkpt lat="46.23036" lon="1.84222">
        <ele>400</ele>
        <time>2022-07-09T08:58:21Z</time>
      </trkpt>
      <trkpt lat="46.23034" lon="1.8423">
        <ele>400</ele>
        <time>2022-07-09T08:58:22Z</time>
      </trkpt>
      <trkpt lat="46.23027" lon="1.84269">
        <ele>400</ele>
        <time>2022-07-09T08:58:28Z</time>
      </trkpt>
      <trkpt lat="46.23022" lon="1.84303">
        <ele>399.6</ele>
        <time>2022-07-09T08:58:34Z</time>
      </trkpt>
      <trkpt lat="46.23019" lon="1.84316">
        <ele>399.4</ele>
        <time>2022-07-09T08:58:37Z</time>
      </trkpt>
      <trkpt lat="46.23016" lon="1.84321">
        <ele>399.4</ele>
        <time>2022-07-09T08:58:39Z</time>
      </trkpt>
      <trkpt lat="46.23012" lon="1.84326">
        <ele>399.2</ele>
        <time>2022-07-09T08:58:42Z</time>
      </trkpt>
      <trkpt lat="46.23011" lon="1.84328">
        <ele>399.2</ele>
        <time>2022-07-09T08:58:44Z</time>
      </trkpt>
      <trkpt lat="46.23011" lon="1.84329">
        <ele>399.2</ele>
        <time>2022-07-09T08:58:45Z</time>
      </trkpt>
      <trkpt lat="46.2301" lon="1.8433">
        <ele>399</ele>
        <time>2022-07-09T08:58:46Z</time>
      </trkpt>
      <trkpt lat="46.23005" lon="1.84338">
        <ele>399</ele>
        <time>2022-07-09T08:58:49Z</time>
      </trkpt>
      <trkpt lat="46.23" lon="1.84345">
        <ele>398.8</ele>
        <time>2022-07-09T08:58:51Z</time>
      </trkpt>
      <trkpt lat="46.22997" lon="1.84349">
        <ele>398.8</ele>
        <time>2022-07-09T08:58:53Z</time>
      </trkpt>
      <trkpt lat="46.22996" lon="1.84352">
        <ele>398.8</ele>
        <time>2022-07-09T08:58:54Z</time>
      </trkpt>
      <trkpt lat="46.22981" lon="1.8438">
        <ele>398.4</ele>
        <time>2022-07-09T08:59:02Z</time>
      </trkpt>
      <trkpt lat="46.22976" lon="1.84386">
        <ele>398.4</ele>
        <time>2022-07-09T08:59:05Z</time>
      </trkpt>
      <trkpt lat="46.2297" lon="1.84396">
        <ele>398.4</ele>
        <time>2022-07-09T08:59:07Z</time>
      </trkpt>
      <trkpt lat="46.22956" lon="1.84413">
        <ele>398.8</ele>
        <time>2022-07-09T08:59:13Z</time>
      </trkpt>
      <trkpt lat="46.22941" lon="1.84433">
        <ele>398.2</ele>
        <time>2022-07-09T08:59:19Z</time>
      </trkpt>
      <trkpt lat="46.2294" lon="1.84437">
        <ele>398</ele>
        <time>2022-07-09T08:59:20Z</time>
      </trkpt>
      <trkpt lat="46.22936" lon="1.84441">
        <ele>398</ele>
        <time>2022-07-09T08:59:22Z</time>
      </trkpt>
      <trkpt lat="46.22935" lon="1.84442">
        <ele>398</ele>
        <time>2022-07-09T08:59:23Z</time>
      </trkpt>
      <trkpt lat="46.2293" lon="1.8445">
        <ele>397.8</ele>
        <time>2022-07-09T08:59:25Z</time>
      </trkpt>
      <trkpt lat="46.22924" lon="1.84457">
        <ele>397.6</ele>
        <time>2022-07-09T08:59:27Z</time>
      </trkpt>
      <trkpt lat="46.22919" lon="1.8446">
        <ele>397.6</ele>
        <time>2022-07-09T08:59:29Z</time>
      </trkpt>
      <trkpt lat="46.22905" lon="1.84472">
        <ele>397.6</ele>
        <time>2022-07-09T08:59:34Z</time>
      </trkpt>
      <trkpt lat="46.22898" lon="1.84476">
        <ele>397.8</ele>
        <time>2022-07-09T08:59:37Z</time>
      </trkpt>
      <trkpt lat="46.22892" lon="1.84483">
        <ele>398</ele>
        <time>2022-07-09T08:59:39Z</time>
      </trkpt>
      <trkpt lat="46.22859" lon="1.84511">
        <ele>397</ele>
        <time>2022-07-09T08:59:48Z</time>
      </trkpt>
      <trkpt lat="46.22843" lon="1.84513">
        <ele>396.8</ele>
        <time>2022-07-09T08:59:51Z</time>
      </trkpt>
      <trkpt lat="46.22828" lon="1.84517">
        <ele>396.4</ele>
        <time>2022-07-09T08:59:54Z</time>
      </trkpt>
      <trkpt lat="46.22811" lon="1.84524">
        <ele>396.4</ele>
        <time>2022-07-09T08:59:58Z</time>
      </trkpt>
      <trkpt lat="46.22778" lon="1.84534">
        <ele>396.2</ele>
        <time>2022-07-09T09:00:06Z</time>
      </trkpt>
      <trkpt lat="46.22767" lon="1.84534">
        <ele>395.8</ele>
        <time>2022-07-09T09:00:09Z</time>
      </trkpt>
      <trkpt lat="46.22759" lon="1.84535">
        <ele>395.6</ele>
        <time>2022-07-09T09:00:11Z</time>
      </trkpt>
      <trkpt lat="46.22751" lon="1.84532">
        <ele>395.4</ele>
        <time>2022-07-09T09:00:13Z</time>
      </trkpt>
      <trkpt lat="46.22737" lon="1.84527">
        <ele>395.2</ele>
        <time>2022-07-09T09:00:16Z</time>
      </trkpt>
      <trkpt lat="46.22723" lon="1.84524">
        <ele>395</ele>
        <time>2022-07-09T09:00:19Z</time>
      </trkpt>
      <trkpt lat="46.22715" lon="1.84519">
        <ele>395</ele>
        <time>2022-07-09T09:00:21Z</time>
      </trkpt>
      <trkpt lat="46.22679" lon="1.84505">
        <ele>394.6</ele>
        <time>2022-07-09T09:00:29Z</time>
      </trkpt>
      <trkpt lat="46.2267" lon="1.84499">
        <ele>394.6</ele>
        <time>2022-07-09T09:00:31Z</time>
      </trkpt>
      <trkpt lat="46.22665" lon="1.84495">
        <ele>394.4</ele>
        <time>2022-07-09T09:00:32Z</time>
      </trkpt>
      <trkpt lat="46.22662" lon="1.84493">
        <ele>394.2</ele>
        <time>2022-07-09T09:00:33Z</time>
      </trkpt>
      <trkpt lat="46.22652" lon="1.84487">
        <ele>394</ele>
        <time>2022-07-09T09:00:37Z</time>
      </trkpt>
      <trkpt lat="46.22649" lon="1.84485">
        <ele>393.8</ele>
        <time>2022-07-09T09:00:39Z</time>
      </trkpt>
      <trkpt lat="46.22641" lon="1.84479">
        <ele>393.6</ele>
        <time>2022-07-09T09:00:42Z</time>
      </trkpt>
      <trkpt lat="46.22628" lon="1.84469">
        <ele>393.4</ele>
        <time>2022-07-09T09:00:46Z</time>
      </trkpt>
      <trkpt lat="46.22624" lon="1.84466">
        <ele>393.4</ele>
        <time>2022-07-09T09:00:47Z</time>
      </trkpt>
      <trkpt lat="46.22611" lon="1.8445">
        <ele>393.4</ele>
        <time>2022-07-09T09:00:52Z</time>
      </trkpt>
      <trkpt lat="46.2259" lon="1.84422">
        <ele>392.2</ele>
        <time>2022-07-09T09:01:00Z</time>
      </trkpt>
      <trkpt lat="46.22569" lon="1.84399">
        <ele>391.8</ele>
        <time>2022-07-09T09:01:06Z</time>
      </trkpt>
      <trkpt lat="46.22552" lon="1.84376">
        <ele>391.8</ele>
        <time>2022-07-09T09:01:12Z</time>
      </trkpt>
      <trkpt lat="46.22541" lon="1.84362">
        <ele>391.8</ele>
        <time>2022-07-09T09:01:16Z</time>
      </trkpt>
      <trkpt lat="46.22521" lon="1.84336">
        <ele>391.2</ele>
        <time>2022-07-09T09:01:22Z</time>
      </trkpt>
      <trkpt lat="46.22518" lon="1.84331">
        <ele>391.2</ele>
        <time>2022-07-09T09:01:23Z</time>
      </trkpt>
      <trkpt lat="46.22505" lon="1.84313">
        <ele>391</ele>
        <time>2022-07-09T09:01:27Z</time>
      </trkpt>
      <trkpt lat="46.22488" lon="1.84292">
        <ele>390.8</ele>
        <time>2022-07-09T09:01:33Z</time>
      </trkpt>
      <trkpt lat="46.22479" lon="1.84277">
        <ele>390.6</ele>
        <time>2022-07-09T09:01:37Z</time>
      </trkpt>
      <trkpt lat="46.22467" lon="1.8426">
        <ele>390.4</ele>
        <time>2022-07-09T09:01:43Z</time>
      </trkpt>
      <trkpt lat="46.22466" lon="1.84258">
        <ele>390.4</ele>
        <time>2022-07-09T09:01:44Z</time>
      </trkpt>
      <trkpt lat="46.22459" lon="1.84253">
        <ele>390.2</ele>
        <time>2022-07-09T09:01:46Z</time>
      </trkpt>
      <trkpt lat="46.22459" lon="1.84253">
        <ele>390.2</ele>
        <time>2022-07-09T09:01:47Z</time>
      </trkpt>
      <trkpt lat="46.22458" lon="1.84251">
        <ele>390</ele>
        <time>2022-07-09T09:01:48Z</time>
      </trkpt>
      <trkpt lat="46.22449" lon="1.84242">
        <ele>390</ele>
        <time>2022-07-09T09:01:52Z</time>
      </trkpt>
      <trkpt lat="46.22441" lon="1.84233">
        <ele>389.4</ele>
        <time>2022-07-09T09:01:58Z</time>
      </trkpt>
      <trkpt lat="46.2244" lon="1.84232">
        <ele>389.4</ele>
        <time>2022-07-09T09:02:00Z</time>
      </trkpt>
      <trkpt lat="46.22433" lon="1.84227">
        <ele>389.2</ele>
        <time>2022-07-09T09:02:02Z</time>
      </trkpt>
      <trkpt lat="46.22431" lon="1.84225">
        <ele>389</ele>
        <time>2022-07-09T09:02:03Z</time>
      </trkpt>
      <trkpt lat="46.22426" lon="1.84221">
        <ele>388.8</ele>
        <time>2022-07-09T09:02:05Z</time>
      </trkpt>
      <trkpt lat="46.22417" lon="1.8421">
        <ele>388.8</ele>
        <time>2022-07-09T09:02:10Z</time>
      </trkpt>
      <trkpt lat="46.22401" lon="1.84195">
        <ele>388.8</ele>
        <time>2022-07-09T09:02:15Z</time>
      </trkpt>
      <trkpt lat="46.22394" lon="1.84189">
        <ele>388.4</ele>
        <time>2022-07-09T09:02:19Z</time>
      </trkpt>
      <trkpt lat="46.22383" lon="1.84175">
        <ele>388.2</ele>
        <time>2022-07-09T09:02:22Z</time>
      </trkpt>
      <trkpt lat="46.22375" lon="1.84169">
        <ele>388.2</ele>
        <time>2022-07-09T09:02:24Z</time>
      </trkpt>
      <trkpt lat="46.22352" lon="1.84142">
        <ele>388.2</ele>
        <time>2022-07-09T09:02:28Z</time>
      </trkpt>
      <trkpt lat="46.2235" lon="1.8414">
        <ele>388.2</ele>
        <time>2022-07-09T09:02:29Z</time>
      </trkpt>
      <trkpt lat="46.22348" lon="1.84139">
        <ele>388</ele>
        <time>2022-07-09T09:02:31Z</time>
      </trkpt>
      <trkpt lat="46.22343" lon="1.84134">
        <ele>388</ele>
        <time>2022-07-09T09:02:33Z</time>
      </trkpt>
      <trkpt lat="46.22338" lon="1.8413">
        <ele>388</ele>
        <time>2022-07-09T09:02:35Z</time>
      </trkpt>
      <trkpt lat="46.22317" lon="1.84109">
        <ele>387.6</ele>
        <time>2022-07-09T09:02:41Z</time>
      </trkpt>
      <trkpt lat="46.22305" lon="1.84102">
        <ele>387.6</ele>
        <time>2022-07-09T09:02:43Z</time>
      </trkpt>
      <trkpt lat="46.22285" lon="1.84087">
        <ele>387.4</ele>
        <time>2022-07-09T09:02:47Z</time>
      </trkpt>
      <trkpt lat="46.22257" lon="1.84067">
        <ele>386.8</ele>
        <time>2022-07-09T09:02:51Z</time>
      </trkpt>
      <trkpt lat="46.2225" lon="1.84063">
        <ele>386.8</ele>
        <time>2022-07-09T09:02:52Z</time>
      </trkpt>
      <trkpt lat="46.22219" lon="1.84047">
        <ele>386.4</ele>
        <time>2022-07-09T09:02:57Z</time>
      </trkpt>
      <trkpt lat="46.22196" lon="1.84039">
        <ele>386</ele>
        <time>2022-07-09T09:03:02Z</time>
      </trkpt>
      <trkpt lat="46.22184" lon="1.84034">
        <ele>385.6</ele>
        <time>2022-07-09T09:03:05Z</time>
      </trkpt>
      <trkpt lat="46.22181" lon="1.84033">
        <ele>385.6</ele>
        <time>2022-07-09T09:03:06Z</time>
      </trkpt>
      <trkpt lat="46.22154" lon="1.84023">
        <ele>385.4</ele>
        <time>2022-07-09T09:03:11Z</time>
      </trkpt>
      <trkpt lat="46.22139" lon="1.8402">
        <ele>385</ele>
        <time>2022-07-09T09:03:14Z</time>
      </trkpt>
      <trkpt lat="46.22131" lon="1.8402">
        <ele>384.8</ele>
        <time>2022-07-09T09:03:17Z</time>
      </trkpt>
      <trkpt lat="46.22115" lon="1.84015">
        <ele>384.6</ele>
        <time>2022-07-09T09:03:20Z</time>
      </trkpt>
      <trkpt lat="46.221" lon="1.8401">
        <ele>384.6</ele>
        <time>2022-07-09T09:03:25Z</time>
      </trkpt>
      <trkpt lat="46.22093" lon="1.84009">
        <ele>384.2</ele>
        <time>2022-07-09T09:03:29Z</time>
      </trkpt>
      <trkpt lat="46.22086" lon="1.84009">
        <ele>384.2</ele>
        <time>2022-07-09T09:03:31Z</time>
      </trkpt>
      <trkpt lat="46.22075" lon="1.84007">
        <ele>384.2</ele>
        <time>2022-07-09T09:03:33Z</time>
      </trkpt>
      <trkpt lat="46.22051" lon="1.83998">
        <ele>384</ele>
        <time>2022-07-09T09:03:38Z</time>
      </trkpt>
      <trkpt lat="46.22014" lon="1.83987">
        <ele>383.8</ele>
        <time>2022-07-09T09:03:45Z</time>
      </trkpt>
      <trkpt lat="46.22008" lon="1.83985">
        <ele>383.6</ele>
        <time>2022-07-09T09:03:46Z</time>
      </trkpt>
      <trkpt lat="46.21973" lon="1.83972">
        <ele>383</ele>
        <time>2022-07-09T09:03:52Z</time>
      </trkpt>
      <trkpt lat="46.21949" lon="1.83963">
        <ele>382.8</ele>
        <time>2022-07-09T09:03:58Z</time>
      </trkpt>
      <trkpt lat="46.21929" lon="1.83955">
        <ele>382.8</ele>
        <time>2022-07-09T09:04:02Z</time>
      </trkpt>
      <trkpt lat="46.21918" lon="1.83955">
        <ele>382.6</ele>
        <time>2022-07-09T09:04:05Z</time>
      </trkpt>
      <trkpt lat="46.21914" lon="1.83955">
        <ele>382.6</ele>
        <time>2022-07-09T09:04:06Z</time>
      </trkpt>
      <trkpt lat="46.21885" lon="1.83945">
        <ele>381.8</ele>
        <time>2022-07-09T09:04:13Z</time>
      </trkpt>
      <trkpt lat="46.21877" lon="1.83944">
        <ele>381.8</ele>
        <time>2022-07-09T09:04:15Z</time>
      </trkpt>
      <trkpt lat="46.21862" lon="1.83949">
        <ele>381.6</ele>
        <time>2022-07-09T09:04:19Z</time>
      </trkpt>
      <trkpt lat="46.21836" lon="1.83939">
        <ele>381.2</ele>
        <time>2022-07-09T09:04:24Z</time>
      </trkpt>
      <trkpt lat="46.21814" lon="1.83935">
        <ele>380.8</ele>
        <time>2022-07-09T09:04:29Z</time>
      </trkpt>
      <trkpt lat="46.21792" lon="1.83932">
        <ele>380.6</ele>
        <time>2022-07-09T09:04:33Z</time>
      </trkpt>
      <trkpt lat="46.21765" lon="1.83936">
        <ele>380.4</ele>
        <time>2022-07-09T09:04:39Z</time>
      </trkpt>
      <trkpt lat="46.2174" lon="1.83936">
        <ele>380</ele>
        <time>2022-07-09T09:04:44Z</time>
      </trkpt>
      <trkpt lat="46.21721" lon="1.83941">
        <ele>379.8</ele>
        <time>2022-07-09T09:04:48Z</time>
      </trkpt>
      <trkpt lat="46.217" lon="1.83955">
        <ele>379.4</ele>
        <time>2022-07-09T09:04:53Z</time>
      </trkpt>
      <trkpt lat="46.21678" lon="1.83962">
        <ele>379.4</ele>
        <time>2022-07-09T09:04:59Z</time>
      </trkpt>
      <trkpt lat="46.21658" lon="1.83976">
        <ele>379.4</ele>
        <time>2022-07-09T09:05:04Z</time>
      </trkpt>
      <trkpt lat="46.21635" lon="1.83988">
        <ele>379.2</ele>
        <time>2022-07-09T09:05:09Z</time>
      </trkpt>
      <trkpt lat="46.21624" lon="1.83996">
        <ele>379.2</ele>
        <time>2022-07-09T09:05:12Z</time>
      </trkpt>
      <trkpt lat="46.21616" lon="1.84">
        <ele>379.2</ele>
        <time>2022-07-09T09:05:14Z</time>
      </trkpt>
      <trkpt lat="46.21591" lon="1.84027">
        <ele>379.2</ele>
        <time>2022-07-09T09:05:21Z</time>
      </trkpt>
      <trkpt lat="46.21576" lon="1.84034">
        <ele>379.4</ele>
        <time>2022-07-09T09:05:26Z</time>
      </trkpt>
      <trkpt lat="46.21557" lon="1.84047">
        <ele>379.4</ele>
        <time>2022-07-09T09:05:31Z</time>
      </trkpt>
      <trkpt lat="46.21551" lon="1.84053">
        <ele>379.4</ele>
        <time>2022-07-09T09:05:32Z</time>
      </trkpt>
      <trkpt lat="46.21539" lon="1.84062">
        <ele>379.4</ele>
        <time>2022-07-09T09:05:36Z</time>
      </trkpt>
      <trkpt lat="46.21521" lon="1.84087">
        <ele>379.2</ele>
        <time>2022-07-09T09:05:42Z</time>
      </trkpt>
      <trkpt lat="46.21506" lon="1.84106">
        <ele>379.4</ele>
        <time>2022-07-09T09:05:49Z</time>
      </trkpt>
      <trkpt lat="46.21492" lon="1.8413">
        <ele>379.2</ele>
        <time>2022-07-09T09:05:55Z</time>
      </trkpt>
      <trkpt lat="46.21476" lon="1.84147">
        <ele>379</ele>
        <time>2022-07-09T09:06:01Z</time>
      </trkpt>
      <trkpt lat="46.21456" lon="1.84185">
        <ele>378.8</ele>
        <time>2022-07-09T09:06:08Z</time>
      </trkpt>
      <trkpt lat="46.21454" lon="1.84191">
        <ele>378.8</ele>
        <time>2022-07-09T09:06:09Z</time>
      </trkpt>
      <trkpt lat="46.21446" lon="1.84209">
        <ele>378.6</ele>
        <time>2022-07-09T09:06:12Z</time>
      </trkpt>
      <trkpt lat="46.21439" lon="1.84228">
        <ele>378.4</ele>
        <time>2022-07-09T09:06:15Z</time>
      </trkpt>
      <trkpt lat="46.21428" lon="1.8425">
        <ele>378.2</ele>
        <time>2022-07-09T09:06:19Z</time>
      </trkpt>
      <trkpt lat="46.21421" lon="1.84266">
        <ele>378.2</ele>
        <time>2022-07-09T09:06:22Z</time>
      </trkpt>
      <trkpt lat="46.21418" lon="1.84271">
        <ele>378.2</ele>
        <time>2022-07-09T09:06:23Z</time>
      </trkpt>
      <trkpt lat="46.21407" lon="1.84293">
        <ele>378</ele>
        <time>2022-07-09T09:06:28Z</time>
      </trkpt>
      <trkpt lat="46.21396" lon="1.84315">
        <ele>378</ele>
        <time>2022-07-09T09:06:33Z</time>
      </trkpt>
      <trkpt lat="46.21382" lon="1.84351">
        <ele>377.6</ele>
        <time>2022-07-09T09:06:39Z</time>
      </trkpt>
      <trkpt lat="46.21371" lon="1.8438">
        <ele>377.4</ele>
        <time>2022-07-09T09:06:44Z</time>
      </trkpt>
      <trkpt lat="46.21361" lon="1.84407">
        <ele>377.2</ele>
        <time>2022-07-09T09:06:48Z</time>
      </trkpt>
      <trkpt lat="46.21341" lon="1.84454">
        <ele>376.8</ele>
        <time>2022-07-09T09:06:55Z</time>
      </trkpt>
      <trkpt lat="46.21319" lon="1.84508">
        <ele>376.8</ele>
        <time>2022-07-09T09:07:03Z</time>
      </trkpt>
      <trkpt lat="46.21314" lon="1.8452">
        <ele>376.8</ele>
        <time>2022-07-09T09:07:05Z</time>
      </trkpt>
      <trkpt lat="46.21305" lon="1.84545">
        <ele>376.8</ele>
        <time>2022-07-09T09:07:09Z</time>
      </trkpt>
      <trkpt lat="46.21302" lon="1.84551">
        <ele>376.6</ele>
        <time>2022-07-09T09:07:10Z</time>
      </trkpt>
      <trkpt lat="46.21296" lon="1.84563">
        <ele>376.6</ele>
        <time>2022-07-09T09:07:12Z</time>
      </trkpt>
      <trkpt lat="46.21291" lon="1.84575">
        <ele>376.2</ele>
        <time>2022-07-09T09:07:14Z</time>
      </trkpt>
      <trkpt lat="46.21273" lon="1.84621">
        <ele>375.4</ele>
        <time>2022-07-09T09:07:21Z</time>
      </trkpt>
      <trkpt lat="46.21268" lon="1.84634">
        <ele>375.4</ele>
        <time>2022-07-09T09:07:23Z</time>
      </trkpt>
      <trkpt lat="46.2126" lon="1.84654">
        <ele>375.2</ele>
        <time>2022-07-09T09:07:26Z</time>
      </trkpt>
      <trkpt lat="46.21254" lon="1.84668">
        <ele>375.2</ele>
        <time>2022-07-09T09:07:28Z</time>
      </trkpt>
      <trkpt lat="46.21234" lon="1.84714">
        <ele>375</ele>
        <time>2022-07-09T09:07:35Z</time>
      </trkpt>
      <trkpt lat="46.21214" lon="1.84761">
        <ele>374.6</ele>
        <time>2022-07-09T09:07:42Z</time>
      </trkpt>
      <trkpt lat="46.21212" lon="1.84768">
        <ele>374.4</ele>
        <time>2022-07-09T09:07:43Z</time>
      </trkpt>
      <trkpt lat="46.21192" lon="1.8481">
        <ele>373.8</ele>
        <time>2022-07-09T09:07:49Z</time>
      </trkpt>
      <trkpt lat="46.2118" lon="1.84839">
        <ele>373.6</ele>
        <time>2022-07-09T09:07:53Z</time>
      </trkpt>
      <trkpt lat="46.21173" lon="1.84855">
        <ele>373.4</ele>
        <time>2022-07-09T09:07:55Z</time>
      </trkpt>
      <trkpt lat="46.21167" lon="1.8487">
        <ele>373.2</ele>
        <time>2022-07-09T09:07:57Z</time>
      </trkpt>
      <trkpt lat="46.2116" lon="1.8489">
        <ele>373</ele>
        <time>2022-07-09T09:08:00Z</time>
      </trkpt>
      <trkpt lat="46.21154" lon="1.84901">
        <ele>372.8</ele>
        <time>2022-07-09T09:08:02Z</time>
      </trkpt>
      <trkpt lat="46.21152" lon="1.84905">
        <ele>372.6</ele>
        <time>2022-07-09T09:08:03Z</time>
      </trkpt>
      <trkpt lat="46.21141" lon="1.84926">
        <ele>372.4</ele>
        <time>2022-07-09T09:08:07Z</time>
      </trkpt>
      <trkpt lat="46.21135" lon="1.84938">
        <ele>372.4</ele>
        <time>2022-07-09T09:08:09Z</time>
      </trkpt>
      <trkpt lat="46.2112" lon="1.84972">
        <ele>371.8</ele>
        <time>2022-07-09T09:08:14Z</time>
      </trkpt>
      <trkpt lat="46.21102" lon="1.85026">
        <ele>371.2</ele>
        <time>2022-07-09T09:08:20Z</time>
      </trkpt>
      <trkpt lat="46.21087" lon="1.85064">
        <ele>371.2</ele>
        <time>2022-07-09T09:08:25Z</time>
      </trkpt>
      <trkpt lat="46.21078" lon="1.85084">
        <ele>371</ele>
        <time>2022-07-09T09:08:28Z</time>
      </trkpt>
      <trkpt lat="46.21063" lon="1.85115">
        <ele>371</ele>
        <time>2022-07-09T09:08:32Z</time>
      </trkpt>
      <trkpt lat="46.21059" lon="1.85123">
        <ele>371</ele>
        <time>2022-07-09T09:08:33Z</time>
      </trkpt>
      <trkpt lat="46.21057" lon="1.8513">
        <ele>370.8</ele>
        <time>2022-07-09T09:08:34Z</time>
      </trkpt>
      <trkpt lat="46.21039" lon="1.85163">
        <ele>370.8</ele>
        <time>2022-07-09T09:08:39Z</time>
      </trkpt>
      <trkpt lat="46.21027" lon="1.85197">
        <ele>370.6</ele>
        <time>2022-07-09T09:08:44Z</time>
      </trkpt>
      <trkpt lat="46.21025" lon="1.85203">
        <ele>370.6</ele>
        <time>2022-07-09T09:08:45Z</time>
      </trkpt>
      <trkpt lat="46.21008" lon="1.85243">
        <ele>370.8</ele>
        <time>2022-07-09T09:08:51Z</time>
      </trkpt>
      <trkpt lat="46.20998" lon="1.85268">
        <ele>370.8</ele>
        <time>2022-07-09T09:08:55Z</time>
      </trkpt>
      <trkpt lat="46.20994" lon="1.8528">
        <ele>370.8</ele>
        <time>2022-07-09T09:08:57Z</time>
      </trkpt>
      <trkpt lat="46.20988" lon="1.85293">
        <ele>370.6</ele>
        <time>2022-07-09T09:08:59Z</time>
      </trkpt>
      <trkpt lat="46.20983" lon="1.85306">
        <ele>370.6</ele>
        <time>2022-07-09T09:09:01Z</time>
      </trkpt>
      <trkpt lat="46.20974" lon="1.85332">
        <ele>370.6</ele>
        <time>2022-07-09T09:09:05Z</time>
      </trkpt>
      <trkpt lat="46.20972" lon="1.85338">
        <ele>370.8</ele>
        <time>2022-07-09T09:09:06Z</time>
      </trkpt>
      <trkpt lat="46.20958" lon="1.85379">
        <ele>370.6</ele>
        <time>2022-07-09T09:09:12Z</time>
      </trkpt>
      <trkpt lat="46.20953" lon="1.8539">
        <ele>370.6</ele>
        <time>2022-07-09T09:09:14Z</time>
      </trkpt>
      <trkpt lat="46.20949" lon="1.854">
        <ele>370.8</ele>
        <time>2022-07-09T09:09:16Z</time>
      </trkpt>
      <trkpt lat="46.20947" lon="1.85406">
        <ele>370.6</ele>
        <time>2022-07-09T09:09:17Z</time>
      </trkpt>
      <trkpt lat="46.20942" lon="1.85418">
        <ele>370.2</ele>
        <time>2022-07-09T09:09:19Z</time>
      </trkpt>
      <trkpt lat="46.20931" lon="1.85444">
        <ele>370</ele>
        <time>2022-07-09T09:09:23Z</time>
      </trkpt>
      <trkpt lat="46.2091" lon="1.85491">
        <ele>369.6</ele>
        <time>2022-07-09T09:09:30Z</time>
      </trkpt>
      <trkpt lat="46.20883" lon="1.85556">
        <ele>369.2</ele>
        <time>2022-07-09T09:09:39Z</time>
      </trkpt>
      <trkpt lat="46.20858" lon="1.85615">
        <ele>368.6</ele>
        <time>2022-07-09T09:09:47Z</time>
      </trkpt>
      <trkpt lat="46.20843" lon="1.85654">
        <ele>368.2</ele>
        <time>2022-07-09T09:09:52Z</time>
      </trkpt>
      <trkpt lat="46.20833" lon="1.85675">
        <ele>368.2</ele>
        <time>2022-07-09T09:09:55Z</time>
      </trkpt>
      <trkpt lat="46.20825" lon="1.85689">
        <ele>368</ele>
        <time>2022-07-09T09:09:57Z</time>
      </trkpt>
      <trkpt lat="46.20808" lon="1.85722">
        <ele>367.4</ele>
        <time>2022-07-09T09:10:02Z</time>
      </trkpt>
      <trkpt lat="46.20805" lon="1.85728">
        <ele>367.2</ele>
        <time>2022-07-09T09:10:03Z</time>
      </trkpt>
      <trkpt lat="46.20797" lon="1.85742">
        <ele>367</ele>
        <time>2022-07-09T09:10:05Z</time>
      </trkpt>
      <trkpt lat="46.20793" lon="1.85749">
        <ele>367</ele>
        <time>2022-07-09T09:10:06Z</time>
      </trkpt>
      <trkpt lat="46.20773" lon="1.85783">
        <ele>366.2</ele>
        <time>2022-07-09T09:10:11Z</time>
      </trkpt>
      <trkpt lat="46.20756" lon="1.85809">
        <ele>365.8</ele>
        <time>2022-07-09T09:10:15Z</time>
      </trkpt>
      <trkpt lat="46.20713" lon="1.85863">
        <ele>365.2</ele>
        <time>2022-07-09T09:10:24Z</time>
      </trkpt>
      <trkpt lat="46.20668" lon="1.85912">
        <ele>364.2</ele>
        <time>2022-07-09T09:10:33Z</time>
      </trkpt>
      <trkpt lat="46.20663" lon="1.85917">
        <ele>364</ele>
        <time>2022-07-09T09:10:34Z</time>
      </trkpt>
      <trkpt lat="46.20653" lon="1.85927">
        <ele>363.8</ele>
        <time>2022-07-09T09:10:36Z</time>
      </trkpt>
      <trkpt lat="46.2061" lon="1.85975">
        <ele>363.4</ele>
        <time>2022-07-09T09:10:45Z</time>
      </trkpt>
      <trkpt lat="46.20576" lon="1.86012">
        <ele>363</ele>
        <time>2022-07-09T09:10:52Z</time>
      </trkpt>
      <trkpt lat="46.20571" lon="1.86017">
        <ele>363</ele>
        <time>2022-07-09T09:10:53Z</time>
      </trkpt>
      <trkpt lat="46.20561" lon="1.86027">
        <ele>362.8</ele>
        <time>2022-07-09T09:10:55Z</time>
      </trkpt>
      <trkpt lat="46.20552" lon="1.86036">
        <ele>362.6</ele>
        <time>2022-07-09T09:10:57Z</time>
      </trkpt>
      <trkpt lat="46.20548" lon="1.86041">
        <ele>362.6</ele>
        <time>2022-07-09T09:10:58Z</time>
      </trkpt>
      <trkpt lat="46.20531" lon="1.86055">
        <ele>362.4</ele>
        <time>2022-07-09T09:11:03Z</time>
      </trkpt>
      <trkpt lat="46.20521" lon="1.86064">
        <ele>362.4</ele>
        <time>2022-07-09T09:11:07Z</time>
      </trkpt>
      <trkpt lat="46.20506" lon="1.8607">
        <ele>362.2</ele>
        <time>2022-07-09T09:11:12Z</time>
      </trkpt>
      <trkpt lat="46.205" lon="1.86075">
        <ele>362.2</ele>
        <time>2022-07-09T09:11:14Z</time>
      </trkpt>
      <trkpt lat="46.20492" lon="1.86082">
        <ele>362.2</ele>
        <time>2022-07-09T09:11:17Z</time>
      </trkpt>
      <trkpt lat="46.20479" lon="1.86095">
        <ele>362.2</ele>
        <time>2022-07-09T09:11:23Z</time>
      </trkpt>
      <trkpt lat="46.20458" lon="1.8611">
        <ele>362.4</ele>
        <time>2022-07-09T09:11:29Z</time>
      </trkpt>
      <trkpt lat="46.2045" lon="1.86116">
        <ele>362.4</ele>
        <time>2022-07-09T09:11:31Z</time>
      </trkpt>
      <trkpt lat="46.20445" lon="1.86119">
        <ele>362.6</ele>
        <time>2022-07-09T09:11:33Z</time>
      </trkpt>
      <trkpt lat="46.20436" lon="1.86129">
        <ele>363</ele>
        <time>2022-07-09T09:11:38Z</time>
      </trkpt>
      <trkpt lat="46.20435" lon="1.86131">
        <ele>363.4</ele>
        <time>2022-07-09T09:11:39Z</time>
      </trkpt>
      <trkpt lat="46.20433" lon="1.86137">
        <ele>363.8</ele>
        <time>2022-07-09T09:11:41Z</time>
      </trkpt>
      <trkpt lat="46.2043" lon="1.86142">
        <ele>364.6</ele>
        <time>2022-07-09T09:11:43Z</time>
      </trkpt>
      <trkpt lat="46.20428" lon="1.86142">
        <ele>365.2</ele>
        <time>2022-07-09T09:11:45Z</time>
      </trkpt>
      <trkpt lat="46.20426" lon="1.86143">
        <ele>365.6</ele>
        <time>2022-07-09T09:11:47Z</time>
      </trkpt>
      <trkpt lat="46.20422" lon="1.86145">
        <ele>367</ele>
        <time>2022-07-09T09:11:52Z</time>
      </trkpt>
      <trkpt lat="46.20421" lon="1.86146">
        <ele>367</ele>
        <time>2022-07-09T09:11:53Z</time>
      </trkpt>
      <trkpt lat="46.20418" lon="1.86147">
        <ele>368</ele>
        <time>2022-07-09T09:11:57Z</time>
      </trkpt>
      <trkpt lat="46.20416" lon="1.86148">
        <ele>368.6</ele>
        <time>2022-07-09T09:12:01Z</time>
      </trkpt>
      <trkpt lat="46.20407" lon="1.86157">
        <ele>369.2</ele>
        <time>2022-07-09T09:12:08Z</time>
      </trkpt>
      <trkpt lat="46.20396" lon="1.86173">
        <ele>370.4</ele>
        <time>2022-07-09T09:12:15Z</time>
      </trkpt>
      <trkpt lat="46.20394" lon="1.86174">
        <ele>370.4</ele>
        <time>2022-07-09T09:12:16Z</time>
      </trkpt>
      <trkpt lat="46.20388" lon="1.86181">
        <ele>370.6</ele>
        <time>2022-07-09T09:12:19Z</time>
      </trkpt>
      <trkpt lat="46.2038" lon="1.86187">
        <ele>370.8</ele>
        <time>2022-07-09T09:12:24Z</time>
      </trkpt>
      <trkpt lat="46.2037" lon="1.86195">
        <ele>370.8</ele>
        <time>2022-07-09T09:12:28Z</time>
      </trkpt>
      <trkpt lat="46.20367" lon="1.86195">
        <ele>370.8</ele>
        <time>2022-07-09T09:12:29Z</time>
      </trkpt>
      <trkpt lat="46.20361" lon="1.86199">
        <ele>370.8</ele>
        <time>2022-07-09T09:12:31Z</time>
      </trkpt>
      <trkpt lat="46.20354" lon="1.86207">
        <ele>370.8</ele>
        <time>2022-07-09T09:12:33Z</time>
      </trkpt>
      <trkpt lat="46.20335" lon="1.86223">
        <ele>370</ele>
        <time>2022-07-09T09:12:39Z</time>
      </trkpt>
      <trkpt lat="46.20311" lon="1.8625">
        <ele>369.8</ele>
        <time>2022-07-09T09:12:43Z</time>
      </trkpt>
      <trkpt lat="46.203" lon="1.86263">
        <ele>369.2</ele>
        <time>2022-07-09T09:12:46Z</time>
      </trkpt>
      <trkpt lat="46.20295" lon="1.86266">
        <ele>369</ele>
        <time>2022-07-09T09:12:47Z</time>
      </trkpt>
      <trkpt lat="46.20269" lon="1.86279">
        <ele>368.2</ele>
        <time>2022-07-09T09:12:51Z</time>
      </trkpt>
      <trkpt lat="46.20262" lon="1.86282">
        <ele>368</ele>
        <time>2022-07-09T09:12:52Z</time>
      </trkpt>
      <trkpt lat="46.20229" lon="1.863">
        <ele>366.6</ele>
        <time>2022-07-09T09:12:57Z</time>
      </trkpt>
      <trkpt lat="46.20225" lon="1.86303">
        <ele>366.4</ele>
        <time>2022-07-09T09:12:58Z</time>
      </trkpt>
      <trkpt lat="46.2022" lon="1.86304">
        <ele>365.8</ele>
        <time>2022-07-09T09:12:59Z</time>
      </trkpt>
      <trkpt lat="46.20216" lon="1.86305">
        <ele>365.4</ele>
        <time>2022-07-09T09:13:00Z</time>
      </trkpt>
      <trkpt lat="46.20211" lon="1.86303">
        <ele>365.2</ele>
        <time>2022-07-09T09:13:01Z</time>
      </trkpt>
      <trkpt lat="46.20205" lon="1.86301">
        <ele>364.8</ele>
        <time>2022-07-09T09:13:02Z</time>
      </trkpt>
      <trkpt lat="46.20201" lon="1.86299">
        <ele>364.4</ele>
        <time>2022-07-09T09:13:03Z</time>
      </trkpt>
      <trkpt lat="46.20193" lon="1.86301">
        <ele>363.6</ele>
        <time>2022-07-09T09:13:06Z</time>
      </trkpt>
      <trkpt lat="46.20192" lon="1.86301">
        <ele>363.4</ele>
        <time>2022-07-09T09:13:07Z</time>
      </trkpt>
      <trkpt lat="46.20192" lon="1.86301">
        <ele>362.4</ele>
        <time>2022-07-09T09:13:09Z</time>
      </trkpt>
      <trkpt lat="46.20189" lon="1.86305">
        <ele>361.4</ele>
        <time>2022-07-09T09:13:39Z</time>
      </trkpt>
      <trkpt lat="46.20183" lon="1.8631">
        <ele>361.2</ele>
        <time>2022-07-09T09:13:42Z</time>
      </trkpt>
      <trkpt lat="46.20173" lon="1.86312">
        <ele>361.2</ele>
        <time>2022-07-09T09:13:48Z</time>
      </trkpt>
      <trkpt lat="46.20157" lon="1.86315">
        <ele>361.6</ele>
        <time>2022-07-09T09:13:55Z</time>
      </trkpt>
      <trkpt lat="46.20154" lon="1.86316">
        <ele>361.8</ele>
        <time>2022-07-09T09:13:57Z</time>
      </trkpt>
      <trkpt lat="46.2015" lon="1.86317">
        <ele>362.2</ele>
        <time>2022-07-09T09:13:59Z</time>
      </trkpt>
      <trkpt lat="46.20149" lon="1.86318">
        <ele>362.4</ele>
        <time>2022-07-09T09:14:00Z</time>
      </trkpt>
      <trkpt lat="46.20143" lon="1.8632">
        <ele>363</ele>
        <time>2022-07-09T09:14:05Z</time>
      </trkpt>
      <trkpt lat="46.20142" lon="1.8632">
        <ele>363.6</ele>
        <time>2022-07-09T09:14:06Z</time>
      </trkpt>
      <trkpt lat="46.20139" lon="1.8632">
        <ele>364.6</ele>
        <time>2022-07-09T09:14:11Z</time>
      </trkpt>
      <trkpt lat="46.20138" lon="1.86321">
        <ele>364.8</ele>
        <time>2022-07-09T09:14:12Z</time>
      </trkpt>
      <trkpt lat="46.20131" lon="1.86323">
        <ele>365.6</ele>
        <time>2022-07-09T09:14:18Z</time>
      </trkpt>
      <trkpt lat="46.20125" lon="1.86325">
        <ele>366</ele>
        <time>2022-07-09T09:14:21Z</time>
      </trkpt>
      <trkpt lat="46.20123" lon="1.86325">
        <ele>366.2</ele>
        <time>2022-07-09T09:14:22Z</time>
      </trkpt>
      <trkpt lat="46.20121" lon="1.86326">
        <ele>366.6</ele>
        <time>2022-07-09T09:14:23Z</time>
      </trkpt>
      <trkpt lat="46.2012" lon="1.86325">
        <ele>367</ele>
        <time>2022-07-09T09:14:25Z</time>
      </trkpt>
      <trkpt lat="46.20116" lon="1.86324">
        <ele>367.8</ele>
        <time>2022-07-09T09:14:29Z</time>
      </trkpt>
      <trkpt lat="46.20115" lon="1.86324">
        <ele>368</ele>
        <time>2022-07-09T09:14:30Z</time>
      </trkpt>
      <trkpt lat="46.20113" lon="1.86323">
        <ele>368.6</ele>
        <time>2022-07-09T09:14:35Z</time>
      </trkpt>
      <trkpt lat="46.2011" lon="1.86324">
        <ele>369</ele>
        <time>2022-07-09T09:14:38Z</time>
      </trkpt>
      <trkpt lat="46.20108" lon="1.86324">
        <ele>369.2</ele>
        <time>2022-07-09T09:14:39Z</time>
      </trkpt>
      <trkpt lat="46.20105" lon="1.86324">
        <ele>369.6</ele>
        <time>2022-07-09T09:14:41Z</time>
      </trkpt>
      <trkpt lat="46.20104" lon="1.86323">
        <ele>370.2</ele>
        <time>2022-07-09T09:14:44Z</time>
      </trkpt>
      <trkpt lat="46.20098" lon="1.8632">
        <ele>371.2</ele>
        <time>2022-07-09T09:14:51Z</time>
      </trkpt>
      <trkpt lat="46.20097" lon="1.8632">
        <ele>371.2</ele>
        <time>2022-07-09T09:14:52Z</time>
      </trkpt>
      <trkpt lat="46.20091" lon="1.86318">
        <ele>372.2</ele>
        <time>2022-07-09T09:14:59Z</time>
      </trkpt>
      <trkpt lat="46.20084" lon="1.86313">
        <ele>373</ele>
        <time>2022-07-09T09:15:04Z</time>
      </trkpt>
      <trkpt lat="46.20082" lon="1.86312">
        <ele>373.4</ele>
        <time>2022-07-09T09:15:06Z</time>
      </trkpt>
      <trkpt lat="46.20081" lon="1.86311">
        <ele>373.8</ele>
        <time>2022-07-09T09:15:08Z</time>
      </trkpt>
      <trkpt lat="46.20075" lon="1.86307">
        <ele>374.4</ele>
        <time>2022-07-09T09:15:12Z</time>
      </trkpt>
      <trkpt lat="46.20074" lon="1.86306">
        <ele>374.4</ele>
        <time>2022-07-09T09:15:13Z</time>
      </trkpt>
      <trkpt lat="46.20069" lon="1.86304">
        <ele>374.8</ele>
        <time>2022-07-09T09:15:16Z</time>
      </trkpt>
      <trkpt lat="46.20064" lon="1.86304">
        <ele>375.2</ele>
        <time>2022-07-09T09:15:18Z</time>
      </trkpt>
      <trkpt lat="46.20059" lon="1.86304">
        <ele>375.6</ele>
        <time>2022-07-09T09:15:20Z</time>
      </trkpt>
      <trkpt lat="46.20055" lon="1.86305">
        <ele>375.8</ele>
        <time>2022-07-09T09:15:22Z</time>
      </trkpt>
      <trkpt lat="46.20052" lon="1.86306">
        <ele>375.8</ele>
        <time>2022-07-09T09:15:23Z</time>
      </trkpt>
      <trkpt lat="46.20041" lon="1.86319">
        <ele>376.6</ele>
        <time>2022-07-09T09:15:31Z</time>
      </trkpt>
      <trkpt lat="46.2004" lon="1.86322">
        <ele>376.6</ele>
        <time>2022-07-09T09:15:32Z</time>
      </trkpt>
      <trkpt lat="46.2004" lon="1.86322">
        <ele>376.8</ele>
        <time>2022-07-09T09:15:34Z</time>
      </trkpt>
      <trkpt lat="46.2004" lon="1.86325">
        <ele>376.8</ele>
        <time>2022-07-09T09:15:36Z</time>
      </trkpt>
      <trkpt lat="46.20034" lon="1.86344">
        <ele>376.6</ele>
        <time>2022-07-09T09:15:42Z</time>
      </trkpt>
      <trkpt lat="46.20023" lon="1.86352">
        <ele>376.4</ele>
        <time>2022-07-09T09:15:47Z</time>
      </trkpt>
      <trkpt lat="46.20013" lon="1.86349">
        <ele>376.4</ele>
        <time>2022-07-09T09:15:53Z</time>
      </trkpt>
      <trkpt lat="46.20001" lon="1.86346">
        <ele>376.8</ele>
        <time>2022-07-09T09:16:00Z</time>
      </trkpt>
      <trkpt lat="46.19986" lon="1.86355">
        <ele>377</ele>
        <time>2022-07-09T09:16:07Z</time>
      </trkpt>
      <trkpt lat="46.19974" lon="1.86363">
        <ele>377.6</ele>
        <time>2022-07-09T09:16:12Z</time>
      </trkpt>
      <trkpt lat="46.1997" lon="1.86367">
        <ele>378</ele>
        <time>2022-07-09T09:16:14Z</time>
      </trkpt>
      <trkpt lat="46.19961" lon="1.86378">
        <ele>378.4</ele>
        <time>2022-07-09T09:16:20Z</time>
      </trkpt>
      <trkpt lat="46.19956" lon="1.86385">
        <ele>378.6</ele>
        <time>2022-07-09T09:16:23Z</time>
      </trkpt>
      <trkpt lat="46.19944" lon="1.86396">
        <ele>379.2</ele>
        <time>2022-07-09T09:16:28Z</time>
      </trkpt>
      <trkpt lat="46.19942" lon="1.86399">
        <ele>379.4</ele>
        <time>2022-07-09T09:16:29Z</time>
      </trkpt>
      <trkpt lat="46.19924" lon="1.86416">
        <ele>379.8</ele>
        <time>2022-07-09T09:16:36Z</time>
      </trkpt>
      <trkpt lat="46.1992" lon="1.86422">
        <ele>380</ele>
        <time>2022-07-09T09:16:38Z</time>
      </trkpt>
      <trkpt lat="46.199" lon="1.86445">
        <ele>380.4</ele>
        <time>2022-07-09T09:16:46Z</time>
      </trkpt>
      <trkpt lat="46.19887" lon="1.86457">
        <ele>381</ele>
        <time>2022-07-09T09:16:51Z</time>
      </trkpt>
      <trkpt lat="46.19882" lon="1.86462">
        <ele>381.4</ele>
        <time>2022-07-09T09:16:53Z</time>
      </trkpt>
      <trkpt lat="46.19875" lon="1.86471">
        <ele>381.6</ele>
        <time>2022-07-09T09:16:56Z</time>
      </trkpt>
      <trkpt lat="46.1987" lon="1.86477">
        <ele>381.8</ele>
        <time>2022-07-09T09:16:58Z</time>
      </trkpt>
      <trkpt lat="46.19862" lon="1.86488">
        <ele>382</ele>
        <time>2022-07-09T09:17:02Z</time>
      </trkpt>
      <trkpt lat="46.1985" lon="1.865">
        <ele>383.2</ele>
        <time>2022-07-09T09:17:07Z</time>
      </trkpt>
      <trkpt lat="46.1983" lon="1.86511">
        <ele>384</ele>
        <time>2022-07-09T09:17:14Z</time>
      </trkpt>
      <trkpt lat="46.19825" lon="1.86513">
        <ele>384.2</ele>
        <time>2022-07-09T09:17:16Z</time>
      </trkpt>
      <trkpt lat="46.19812" lon="1.86517">
        <ele>384.6</ele>
        <time>2022-07-09T09:17:21Z</time>
      </trkpt>
      <trkpt lat="46.19792" lon="1.86522">
        <ele>385.4</ele>
        <time>2022-07-09T09:17:28Z</time>
      </trkpt>
      <trkpt lat="46.19789" lon="1.86522">
        <ele>385.4</ele>
        <time>2022-07-09T09:17:29Z</time>
      </trkpt>
      <trkpt lat="46.19787" lon="1.86522">
        <ele>385.6</ele>
        <time>2022-07-09T09:17:30Z</time>
      </trkpt>
      <trkpt lat="46.19771" lon="1.86527">
        <ele>386.4</ele>
        <time>2022-07-09T09:17:36Z</time>
      </trkpt>
      <trkpt lat="46.19765" lon="1.86526">
        <ele>386.6</ele>
        <time>2022-07-09T09:17:38Z</time>
      </trkpt>
      <trkpt lat="46.19752" lon="1.86528">
        <ele>387.6</ele>
        <time>2022-07-09T09:17:44Z</time>
      </trkpt>
      <trkpt lat="46.1975" lon="1.86531">
        <ele>387.6</ele>
        <time>2022-07-09T09:17:45Z</time>
      </trkpt>
      <trkpt lat="46.19746" lon="1.86542">
        <ele>388.6</ele>
        <time>2022-07-09T09:17:50Z</time>
      </trkpt>
      <trkpt lat="46.19746" lon="1.86545">
        <ele>388.8</ele>
        <time>2022-07-09T09:17:51Z</time>
      </trkpt>
      <trkpt lat="46.19745" lon="1.86546">
        <ele>389</ele>
        <time>2022-07-09T09:17:52Z</time>
      </trkpt>
      <trkpt lat="46.19744" lon="1.8655">
        <ele>389.2</ele>
        <time>2022-07-09T09:17:54Z</time>
      </trkpt>
      <trkpt lat="46.19743" lon="1.8655">
        <ele>389.4</ele>
        <time>2022-07-09T09:17:55Z</time>
      </trkpt>
      <trkpt lat="46.19737" lon="1.86562">
        <ele>389.8</ele>
        <time>2022-07-09T09:18:03Z</time>
      </trkpt>
      <trkpt lat="46.19734" lon="1.86569">
        <ele>390</ele>
        <time>2022-07-09T09:18:05Z</time>
      </trkpt>
      <trkpt lat="46.19727" lon="1.86579">
        <ele>390.2</ele>
        <time>2022-07-09T09:18:08Z</time>
      </trkpt>
      <trkpt lat="46.1972" lon="1.86599">
        <ele>391</ele>
        <time>2022-07-09T09:18:14Z</time>
      </trkpt>
      <trkpt lat="46.19718" lon="1.86601">
        <ele>391</ele>
        <time>2022-07-09T09:18:15Z</time>
      </trkpt>
      <trkpt lat="46.19717" lon="1.86605">
        <ele>391.2</ele>
        <time>2022-07-09T09:18:16Z</time>
      </trkpt>
      <trkpt lat="46.19711" lon="1.86614">
        <ele>391.6</ele>
        <time>2022-07-09T09:18:19Z</time>
      </trkpt>
      <trkpt lat="46.19705" lon="1.86628">
        <ele>392.2</ele>
        <time>2022-07-09T09:18:23Z</time>
      </trkpt>
      <trkpt lat="46.197" lon="1.86643">
        <ele>392.8</ele>
        <time>2022-07-09T09:18:26Z</time>
      </trkpt>
      <trkpt lat="46.19695" lon="1.86662">
        <ele>392.8</ele>
        <time>2022-07-09T09:18:30Z</time>
      </trkpt>
      <trkpt lat="46.19692" lon="1.8667">
        <ele>392.8</ele>
        <time>2022-07-09T09:18:31Z</time>
      </trkpt>
      <trkpt lat="46.19683" lon="1.86687">
        <ele>392.8</ele>
        <time>2022-07-09T09:18:36Z</time>
      </trkpt>
      <trkpt lat="46.19681" lon="1.86691">
        <ele>392.8</ele>
        <time>2022-07-09T09:18:37Z</time>
      </trkpt>
      <trkpt lat="46.19678" lon="1.867">
        <ele>392.8</ele>
        <time>2022-07-09T09:18:39Z</time>
      </trkpt>
      <trkpt lat="46.19676" lon="1.86713">
        <ele>393.6</ele>
        <time>2022-07-09T09:18:42Z</time>
      </trkpt>
      <trkpt lat="46.19675" lon="1.86723">
        <ele>393.8</ele>
        <time>2022-07-09T09:18:45Z</time>
      </trkpt>
      <trkpt lat="46.19671" lon="1.86743">
        <ele>394.2</ele>
        <time>2022-07-09T09:18:49Z</time>
      </trkpt>
      <trkpt lat="46.19662" lon="1.8677">
        <ele>394.4</ele>
        <time>2022-07-09T09:18:56Z</time>
      </trkpt>
      <trkpt lat="46.19661" lon="1.86773">
        <ele>394.4</ele>
        <time>2022-07-09T09:18:57Z</time>
      </trkpt>
      <trkpt lat="46.19658" lon="1.86778">
        <ele>394.6</ele>
        <time>2022-07-09T09:18:59Z</time>
      </trkpt>
      <trkpt lat="46.19658" lon="1.86782">
        <ele>394.8</ele>
        <time>2022-07-09T09:19:00Z</time>
      </trkpt>
      <trkpt lat="46.19658" lon="1.86783">
        <ele>395.4</ele>
        <time>2022-07-09T09:19:02Z</time>
      </trkpt>
      <trkpt lat="46.19655" lon="1.86785">
        <ele>396</ele>
        <time>2022-07-09T09:19:05Z</time>
      </trkpt>
      <trkpt lat="46.19649" lon="1.86792">
        <ele>396.2</ele>
        <time>2022-07-09T09:19:08Z</time>
      </trkpt>
      <trkpt lat="46.19649" lon="1.86797">
        <ele>396.6</ele>
        <time>2022-07-09T09:19:10Z</time>
      </trkpt>
      <trkpt lat="46.1965" lon="1.86802">
        <ele>397</ele>
        <time>2022-07-09T09:19:12Z</time>
      </trkpt>
      <trkpt lat="46.19651" lon="1.86804">
        <ele>397.2</ele>
        <time>2022-07-09T09:19:13Z</time>
      </trkpt>
      <trkpt lat="46.19653" lon="1.86808">
        <ele>397.4</ele>
        <time>2022-07-09T09:19:15Z</time>
      </trkpt>
      <trkpt lat="46.19653" lon="1.86814">
        <ele>397.6</ele>
        <time>2022-07-09T09:19:17Z</time>
      </trkpt>
      <trkpt lat="46.19652" lon="1.86816">
        <ele>397.8</ele>
        <time>2022-07-09T09:19:18Z</time>
      </trkpt>
      <trkpt lat="46.19652" lon="1.8683">
        <ele>397.8</ele>
        <time>2022-07-09T09:19:22Z</time>
      </trkpt>
      <trkpt lat="46.19652" lon="1.86842">
        <ele>398.2</ele>
        <time>2022-07-09T09:19:25Z</time>
      </trkpt>
      <trkpt lat="46.19656" lon="1.86883">
        <ele>399.2</ele>
        <time>2022-07-09T09:19:33Z</time>
      </trkpt>
      <trkpt lat="46.19655" lon="1.86905">
        <ele>399.2</ele>
        <time>2022-07-09T09:19:38Z</time>
      </trkpt>
      <trkpt lat="46.19654" lon="1.86928">
        <ele>398.8</ele>
        <time>2022-07-09T09:19:42Z</time>
      </trkpt>
      <trkpt lat="46.19653" lon="1.86939">
        <ele>398.6</ele>
        <time>2022-07-09T09:19:44Z</time>
      </trkpt>
      <trkpt lat="46.19652" lon="1.86952">
        <ele>398.4</ele>
        <time>2022-07-09T09:19:46Z</time>
      </trkpt>
      <trkpt lat="46.1965" lon="1.86958">
        <ele>398</ele>
        <time>2022-07-09T09:19:48Z</time>
      </trkpt>
      <trkpt lat="46.19649" lon="1.8696">
        <ele>397.8</ele>
        <time>2022-07-09T09:19:49Z</time>
      </trkpt>
      <trkpt lat="46.19647" lon="1.86963">
        <ele>397.8</ele>
        <time>2022-07-09T09:19:50Z</time>
      </trkpt>
      <trkpt lat="46.19645" lon="1.86963">
        <ele>397.8</ele>
        <time>2022-07-09T09:19:52Z</time>
      </trkpt>
      <trkpt lat="46.19643" lon="1.86964">
        <ele>398</ele>
        <time>2022-07-09T09:19:54Z</time>
      </trkpt>
      <trkpt lat="46.1964" lon="1.86965">
        <ele>398.2</ele>
        <time>2022-07-09T09:19:56Z</time>
      </trkpt>
      <trkpt lat="46.19638" lon="1.86966">
        <ele>398.2</ele>
        <time>2022-07-09T09:19:57Z</time>
      </trkpt>
      <trkpt lat="46.19637" lon="1.86966">
        <ele>398.8</ele>
        <time>2022-07-09T09:20:00Z</time>
      </trkpt>
      <trkpt lat="46.19634" lon="1.8697">
        <ele>399</ele>
        <time>2022-07-09T09:20:02Z</time>
      </trkpt>
      <trkpt lat="46.19628" lon="1.86973">
        <ele>399.4</ele>
        <time>2022-07-09T09:20:05Z</time>
      </trkpt>
      <trkpt lat="46.19625" lon="1.86975">
        <ele>399.8</ele>
        <time>2022-07-09T09:20:07Z</time>
      </trkpt>
      <trkpt lat="46.19623" lon="1.86975">
        <ele>400</ele>
        <time>2022-07-09T09:20:08Z</time>
      </trkpt>
      <trkpt lat="46.19617" lon="1.86983">
        <ele>400.8</ele>
        <time>2022-07-09T09:20:12Z</time>
      </trkpt>
      <trkpt lat="46.19611" lon="1.8699">
        <ele>401</ele>
        <time>2022-07-09T09:20:14Z</time>
      </trkpt>
      <trkpt lat="46.19608" lon="1.86993">
        <ele>401</ele>
        <time>2022-07-09T09:20:15Z</time>
      </trkpt>
      <trkpt lat="46.19597" lon="1.86997">
        <ele>401.2</ele>
        <time>2022-07-09T09:20:18Z</time>
      </trkpt>
      <trkpt lat="46.19592" lon="1.87002">
        <ele>401.2</ele>
        <time>2022-07-09T09:20:19Z</time>
      </trkpt>
      <trkpt lat="46.19586" lon="1.87021">
        <ele>400.8</ele>
        <time>2022-07-09T09:20:23Z</time>
      </trkpt>
      <trkpt lat="46.19581" lon="1.87046">
        <ele>400.4</ele>
        <time>2022-07-09T09:20:28Z</time>
      </trkpt>
      <trkpt lat="46.1958" lon="1.87055">
        <ele>400.4</ele>
        <time>2022-07-09T09:20:30Z</time>
      </trkpt>
      <trkpt lat="46.19578" lon="1.87065">
        <ele>400</ele>
        <time>2022-07-09T09:20:32Z</time>
      </trkpt>
      <trkpt lat="46.19574" lon="1.87081">
        <ele>399.6</ele>
        <time>2022-07-09T09:20:36Z</time>
      </trkpt>
      <trkpt lat="46.19566" lon="1.87102">
        <ele>399.6</ele>
        <time>2022-07-09T09:20:43Z</time>
      </trkpt>
      <trkpt lat="46.19559" lon="1.87108">
        <ele>400.2</ele>
        <time>2022-07-09T09:20:48Z</time>
      </trkpt>
      <trkpt lat="46.19557" lon="1.87107">
        <ele>400.6</ele>
        <time>2022-07-09T09:20:49Z</time>
      </trkpt>
      <trkpt lat="46.19554" lon="1.87103">
        <ele>401</ele>
        <time>2022-07-09T09:20:51Z</time>
      </trkpt>
      <trkpt lat="46.19552" lon="1.87104">
        <ele>401.2</ele>
        <time>2022-07-09T09:20:52Z</time>
      </trkpt>
      <trkpt lat="46.1955" lon="1.87105">
        <ele>401.2</ele>
        <time>2022-07-09T09:20:53Z</time>
      </trkpt>
      <trkpt lat="46.1955" lon="1.8712">
        <ele>402</ele>
        <time>2022-07-09T09:20:57Z</time>
      </trkpt>
      <trkpt lat="46.19551" lon="1.87124">
        <ele>402.2</ele>
        <time>2022-07-09T09:20:58Z</time>
      </trkpt>
      <trkpt lat="46.19552" lon="1.87145">
        <ele>402.6</ele>
        <time>2022-07-09T09:21:02Z</time>
      </trkpt>
      <trkpt lat="46.19549" lon="1.87175">
        <ele>402.6</ele>
        <time>2022-07-09T09:21:07Z</time>
      </trkpt>
      <trkpt lat="46.19549" lon="1.87181">
        <ele>402.4</ele>
        <time>2022-07-09T09:21:08Z</time>
      </trkpt>
      <trkpt lat="46.19546" lon="1.87192">
        <ele>402.2</ele>
        <time>2022-07-09T09:21:10Z</time>
      </trkpt>
      <trkpt lat="46.1954" lon="1.87214">
        <ele>402</ele>
        <time>2022-07-09T09:21:14Z</time>
      </trkpt>
      <trkpt lat="46.19538" lon="1.87219">
        <ele>401.8</ele>
        <time>2022-07-09T09:21:15Z</time>
      </trkpt>
      <trkpt lat="46.19531" lon="1.87225">
        <ele>401.8</ele>
        <time>2022-07-09T09:21:17Z</time>
      </trkpt>
      <trkpt lat="46.19523" lon="1.87225">
        <ele>401.6</ele>
        <time>2022-07-09T09:21:19Z</time>
      </trkpt>
      <trkpt lat="46.19511" lon="1.87222">
        <ele>401.6</ele>
        <time>2022-07-09T09:21:22Z</time>
      </trkpt>
      <trkpt lat="46.1948" lon="1.87218">
        <ele>402.4</ele>
        <time>2022-07-09T09:21:31Z</time>
      </trkpt>
      <trkpt lat="46.19449" lon="1.8722">
        <ele>402.4</ele>
        <time>2022-07-09T09:21:39Z</time>
      </trkpt>
      <trkpt lat="46.19408" lon="1.87222">
        <ele>402.2</ele>
        <time>2022-07-09T09:21:48Z</time>
      </trkpt>
      <trkpt lat="46.19404" lon="1.87222">
        <ele>402</ele>
        <time>2022-07-09T09:21:49Z</time>
      </trkpt>
      <trkpt lat="46.19378" lon="1.87226">
        <ele>401.8</ele>
        <time>2022-07-09T09:21:54Z</time>
      </trkpt>
      <trkpt lat="46.19351" lon="1.87229">
        <ele>401.2</ele>
        <time>2022-07-09T09:21:59Z</time>
      </trkpt>
      <trkpt lat="46.19333" lon="1.8723">
        <ele>400.8</ele>
        <time>2022-07-09T09:22:02Z</time>
      </trkpt>
      <trkpt lat="46.19279" lon="1.87234">
        <ele>400.6</ele>
        <time>2022-07-09T09:22:12Z</time>
      </trkpt>
      <trkpt lat="46.19274" lon="1.87234">
        <ele>400.6</ele>
        <time>2022-07-09T09:22:13Z</time>
      </trkpt>
      <trkpt lat="46.19258" lon="1.87236">
        <ele>400.6</ele>
        <time>2022-07-09T09:22:16Z</time>
      </trkpt>
      <trkpt lat="46.19233" lon="1.87237">
        <ele>400.4</ele>
        <time>2022-07-09T09:22:21Z</time>
      </trkpt>
      <trkpt lat="46.19217" lon="1.87238">
        <ele>400.2</ele>
        <time>2022-07-09T09:22:24Z</time>
      </trkpt>
      <trkpt lat="46.19197" lon="1.87239">
        <ele>399.8</ele>
        <time>2022-07-09T09:22:28Z</time>
      </trkpt>
      <trkpt lat="46.19147" lon="1.87243">
        <ele>399.2</ele>
        <time>2022-07-09T09:22:37Z</time>
      </trkpt>
      <trkpt lat="46.19141" lon="1.87243">
        <ele>399</ele>
        <time>2022-07-09T09:22:38Z</time>
      </trkpt>
      <trkpt lat="46.191" lon="1.87245">
        <ele>398</ele>
        <time>2022-07-09T09:22:45Z</time>
      </trkpt>
      <trkpt lat="46.19084" lon="1.87247">
        <ele>397.8</ele>
        <time>2022-07-09T09:22:48Z</time>
      </trkpt>
      <trkpt lat="46.19078" lon="1.87247">
        <ele>397.8</ele>
        <time>2022-07-09T09:22:49Z</time>
      </trkpt>
      <trkpt lat="46.19073" lon="1.87247">
        <ele>397.8</ele>
        <time>2022-07-09T09:22:50Z</time>
      </trkpt>
      <trkpt lat="46.19063" lon="1.87247">
        <ele>397.6</ele>
        <time>2022-07-09T09:22:52Z</time>
      </trkpt>
      <trkpt lat="46.19034" lon="1.87249">
        <ele>397.6</ele>
        <time>2022-07-09T09:22:58Z</time>
      </trkpt>
      <trkpt lat="46.19011" lon="1.8725">
        <ele>397.8</ele>
        <time>2022-07-09T09:23:03Z</time>
      </trkpt>
      <trkpt lat="46.19001" lon="1.87251">
        <ele>397.8</ele>
        <time>2022-07-09T09:23:05Z</time>
      </trkpt>
      <trkpt lat="46.18997" lon="1.87251">
        <ele>398</ele>
        <time>2022-07-09T09:23:06Z</time>
      </trkpt>
      <trkpt lat="46.18983" lon="1.8725">
        <ele>398</ele>
        <time>2022-07-09T09:23:09Z</time>
      </trkpt>
      <trkpt lat="46.18973" lon="1.87251">
        <ele>398.2</ele>
        <time>2022-07-09T09:23:11Z</time>
      </trkpt>
      <trkpt lat="46.18969" lon="1.87251">
        <ele>398.2</ele>
        <time>2022-07-09T09:23:12Z</time>
      </trkpt>
      <trkpt lat="46.1895" lon="1.87253">
        <ele>398.8</ele>
        <time>2022-07-09T09:23:16Z</time>
      </trkpt>
      <trkpt lat="46.18947" lon="1.87253">
        <ele>398.8</ele>
        <time>2022-07-09T09:23:17Z</time>
      </trkpt>
      <trkpt lat="46.18943" lon="1.87254">
        <ele>398.8</ele>
        <time>2022-07-09T09:23:18Z</time>
      </trkpt>
      <trkpt lat="46.1894" lon="1.87254">
        <ele>399.2</ele>
        <time>2022-07-09T09:23:19Z</time>
      </trkpt>
      <trkpt lat="46.1892" lon="1.87251">
        <ele>399.6</ele>
        <time>2022-07-09T09:23:23Z</time>
      </trkpt>
      <trkpt lat="46.18896" lon="1.8725">
        <ele>400</ele>
        <time>2022-07-09T09:23:28Z</time>
      </trkpt>
      <trkpt lat="46.18885" lon="1.8726">
        <ele>400.4</ele>
        <time>2022-07-09T09:23:31Z</time>
      </trkpt>
      <trkpt lat="46.18881" lon="1.87263">
        <ele>400.4</ele>
        <time>2022-07-09T09:23:32Z</time>
      </trkpt>
      <trkpt lat="46.18866" lon="1.8727">
        <ele>400.8</ele>
        <time>2022-07-09T09:23:36Z</time>
      </trkpt>
      <trkpt lat="46.18853" lon="1.87275">
        <ele>400.8</ele>
        <time>2022-07-09T09:23:39Z</time>
      </trkpt>
      <trkpt lat="46.18844" lon="1.87276">
        <ele>400.8</ele>
        <time>2022-07-09T09:23:41Z</time>
      </trkpt>
      <trkpt lat="46.1884" lon="1.87276">
        <ele>400.8</ele>
        <time>2022-07-09T09:23:42Z</time>
      </trkpt>
      <trkpt lat="46.18823" lon="1.87273">
        <ele>401</ele>
        <time>2022-07-09T09:23:46Z</time>
      </trkpt>
      <trkpt lat="46.18814" lon="1.87271">
        <ele>401</ele>
        <time>2022-07-09T09:23:48Z</time>
      </trkpt>
      <trkpt lat="46.18768" lon="1.87264">
        <ele>401.2</ele>
        <time>2022-07-09T09:23:59Z</time>
      </trkpt>
      <trkpt lat="46.18743" lon="1.87258">
        <ele>401.4</ele>
        <time>2022-07-09T09:24:05Z</time>
      </trkpt>
      <trkpt lat="46.18727" lon="1.87257">
        <ele>401.8</ele>
        <time>2022-07-09T09:24:09Z</time>
      </trkpt>
      <trkpt lat="46.18719" lon="1.87256">
        <ele>401.8</ele>
        <time>2022-07-09T09:24:11Z</time>
      </trkpt>
      <trkpt lat="46.18707" lon="1.87256">
        <ele>402</ele>
        <time>2022-07-09T09:24:14Z</time>
      </trkpt>
      <trkpt lat="46.18687" lon="1.8726">
        <ele>402.4</ele>
        <time>2022-07-09T09:24:19Z</time>
      </trkpt>
      <trkpt lat="46.18678" lon="1.87261">
        <ele>402.8</ele>
        <time>2022-07-09T09:24:21Z</time>
      </trkpt>
      <trkpt lat="46.18674" lon="1.87261">
        <ele>402.8</ele>
        <time>2022-07-09T09:24:22Z</time>
      </trkpt>
      <trkpt lat="46.1864" lon="1.87269">
        <ele>403.2</ele>
        <time>2022-07-09T09:24:30Z</time>
      </trkpt>
      <trkpt lat="46.18607" lon="1.87274">
        <ele>403.6</ele>
        <time>2022-07-09T09:24:38Z</time>
      </trkpt>
      <trkpt lat="46.18602" lon="1.87275">
        <ele>403.6</ele>
        <time>2022-07-09T09:24:39Z</time>
      </trkpt>
      <trkpt lat="46.18561" lon="1.87286">
        <ele>404.4</ele>
        <time>2022-07-09T09:24:49Z</time>
      </trkpt>
      <trkpt lat="46.18553" lon="1.87288">
        <ele>404.6</ele>
        <time>2022-07-09T09:24:51Z</time>
      </trkpt>
      <trkpt lat="46.18529" lon="1.87291">
        <ele>404.6</ele>
        <time>2022-07-09T09:24:57Z</time>
      </trkpt>
      <trkpt lat="46.18525" lon="1.87292">
        <ele>404.6</ele>
        <time>2022-07-09T09:24:58Z</time>
      </trkpt>
      <trkpt lat="46.18521" lon="1.87292">
        <ele>404.6</ele>
        <time>2022-07-09T09:24:59Z</time>
      </trkpt>
      <trkpt lat="46.18517" lon="1.87292">
        <ele>404.6</ele>
        <time>2022-07-09T09:25:00Z</time>
      </trkpt>
      <trkpt lat="46.18501" lon="1.87291">
        <ele>404.6</ele>
        <time>2022-07-09T09:25:04Z</time>
      </trkpt>
      <trkpt lat="46.18461" lon="1.87294">
        <ele>405.2</ele>
        <time>2022-07-09T09:25:14Z</time>
      </trkpt>
      <trkpt lat="46.1842" lon="1.87293">
        <ele>405.8</ele>
        <time>2022-07-09T09:25:24Z</time>
      </trkpt>
      <trkpt lat="46.18393" lon="1.87288">
        <ele>406</ele>
        <time>2022-07-09T09:25:31Z</time>
      </trkpt>
      <trkpt lat="46.18378" lon="1.87282">
        <ele>406.2</ele>
        <time>2022-07-09T09:25:36Z</time>
      </trkpt>
      <trkpt lat="46.18362" lon="1.87274">
        <ele>406.2</ele>
        <time>2022-07-09T09:25:42Z</time>
      </trkpt>
      <trkpt lat="46.1836" lon="1.87274">
        <ele>406.2</ele>
        <time>2022-07-09T09:25:43Z</time>
      </trkpt>
      <trkpt lat="46.18359" lon="1.87272">
        <ele>406</ele>
        <time>2022-07-09T09:25:45Z</time>
      </trkpt>
      <trkpt lat="46.18362" lon="1.87272">
        <ele>406.2</ele>
        <time>2022-07-09T09:25:49Z</time>
      </trkpt>
      <trkpt lat="46.18364" lon="1.87272">
        <ele>406.4</ele>
        <time>2022-07-09T09:25:50Z</time>
      </trkpt>
      <trkpt lat="46.18366" lon="1.87272">
        <ele>406.6</ele>
        <time>2022-07-09T09:25:52Z</time>
      </trkpt>
      <trkpt lat="46.18367" lon="1.87272">
        <ele>406.8</ele>
        <time>2022-07-09T09:25:53Z</time>
      </trkpt>
      <trkpt lat="46.1837" lon="1.87273">
        <ele>407.6</ele>
        <time>2022-07-09T09:25:55Z</time>
      </trkpt>
      <trkpt lat="46.18371" lon="1.87272">
        <ele>408</ele>
        <time>2022-07-09T09:25:56Z</time>
      </trkpt>
      <trkpt lat="46.18371" lon="1.8727">
        <ele>408</ele>
        <time>2022-07-09T09:25:57Z</time>
      </trkpt>
      <trkpt lat="46.18369" lon="1.87267">
        <ele>408.6</ele>
        <time>2022-07-09T09:26:00Z</time>
      </trkpt>
      <trkpt lat="46.18365" lon="1.87264">
        <ele>409.2</ele>
        <time>2022-07-09T09:26:03Z</time>
      </trkpt>
      <trkpt lat="46.18359" lon="1.87261">
        <ele>410.4</ele>
        <time>2022-07-09T09:26:07Z</time>
      </trkpt>
      <trkpt lat="46.18354" lon="1.87258">
        <ele>411.2</ele>
        <time>2022-07-09T09:26:09Z</time>
      </trkpt>
      <trkpt lat="46.18352" lon="1.87258">
        <ele>411.6</ele>
        <time>2022-07-09T09:26:10Z</time>
      </trkpt>
      <trkpt lat="46.18344" lon="1.87253">
        <ele>411.8</ele>
        <time>2022-07-09T09:26:15Z</time>
      </trkpt>
      <trkpt lat="46.18344" lon="1.87253">
        <ele>411.8</ele>
        <time>2022-07-09T09:26:19Z</time>
      </trkpt>
      <trkpt lat="46.18341" lon="1.8725">
        <ele>411.6</ele>
        <time>2022-07-09T09:26:27Z</time>
      </trkpt>
      <trkpt lat="46.18334" lon="1.87247">
        <ele>411.4</ele>
        <time>2022-07-09T09:26:30Z</time>
      </trkpt>
      <trkpt lat="46.18317" lon="1.87248">
        <ele>411.2</ele>
        <time>2022-07-09T09:26:35Z</time>
      </trkpt>
      <trkpt lat="46.1829" lon="1.87247">
        <ele>410.8</ele>
        <time>2022-07-09T09:26:39Z</time>
      </trkpt>
      <trkpt lat="46.18283" lon="1.87245">
        <ele>410.2</ele>
        <time>2022-07-09T09:26:40Z</time>
      </trkpt>
      <trkpt lat="46.18277" lon="1.87242">
        <ele>409.6</ele>
        <time>2022-07-09T09:26:41Z</time>
      </trkpt>
      <trkpt lat="46.18272" lon="1.8724">
        <ele>409</ele>
        <time>2022-07-09T09:26:42Z</time>
      </trkpt>
      <trkpt lat="46.18266" lon="1.87236">
        <ele>408.4</ele>
        <time>2022-07-09T09:26:43Z</time>
      </trkpt>
      <trkpt lat="46.18261" lon="1.87234">
        <ele>407.8</ele>
        <time>2022-07-09T09:26:44Z</time>
      </trkpt>
      <trkpt lat="46.18235" lon="1.87226">
        <ele>406.8</ele>
        <time>2022-07-09T09:26:50Z</time>
      </trkpt>
      <trkpt lat="46.18217" lon="1.87222">
        <ele>407</ele>
        <time>2022-07-09T09:26:55Z</time>
      </trkpt>
      <trkpt lat="46.18194" lon="1.87213">
        <ele>407.8</ele>
        <time>2022-07-09T09:27:01Z</time>
      </trkpt>
      <trkpt lat="46.18167" lon="1.87208">
        <ele>408.6</ele>
        <time>2022-07-09T09:27:09Z</time>
      </trkpt>
      <trkpt lat="46.18157" lon="1.87205">
        <ele>409</ele>
        <time>2022-07-09T09:27:12Z</time>
      </trkpt>
      <trkpt lat="46.1814" lon="1.87198">
        <ele>409.8</ele>
        <time>2022-07-09T09:27:18Z</time>
      </trkpt>
      <trkpt lat="46.18135" lon="1.87197">
        <ele>410.2</ele>
        <time>2022-07-09T09:27:20Z</time>
      </trkpt>
      <trkpt lat="46.18121" lon="1.87192">
        <ele>411.2</ele>
        <time>2022-07-09T09:27:26Z</time>
      </trkpt>
      <trkpt lat="46.18109" lon="1.87184">
        <ele>411.6</ele>
        <time>2022-07-09T09:27:31Z</time>
      </trkpt>
      <trkpt lat="46.181" lon="1.87176">
        <ele>412</ele>
        <time>2022-07-09T09:27:35Z</time>
      </trkpt>
      <trkpt lat="46.18097" lon="1.87173">
        <ele>412.4</ele>
        <time>2022-07-09T09:27:37Z</time>
      </trkpt>
      <trkpt lat="46.18089" lon="1.87164">
        <ele>412.8</ele>
        <time>2022-07-09T09:27:41Z</time>
      </trkpt>
      <trkpt lat="46.18077" lon="1.87152">
        <ele>413.4</ele>
        <time>2022-07-09T09:27:46Z</time>
      </trkpt>
      <trkpt lat="46.18069" lon="1.87143">
        <ele>414</ele>
        <time>2022-07-09T09:27:50Z</time>
      </trkpt>
      <trkpt lat="46.18063" lon="1.87136">
        <ele>414.6</ele>
        <time>2022-07-09T09:27:53Z</time>
      </trkpt>
      <trkpt lat="46.18052" lon="1.87127">
        <ele>415.6</ele>
        <time>2022-07-09T09:27:58Z</time>
      </trkpt>
      <trkpt lat="46.18039" lon="1.87113">
        <ele>416.6</ele>
        <time>2022-07-09T09:28:05Z</time>
      </trkpt>
      <trkpt lat="46.18034" lon="1.87107">
        <ele>417.4</ele>
        <time>2022-07-09T09:28:08Z</time>
      </trkpt>
      <trkpt lat="46.18032" lon="1.87105">
        <ele>417.6</ele>
        <time>2022-07-09T09:28:09Z</time>
      </trkpt>
      <trkpt lat="46.18024" lon="1.87096">
        <ele>418.2</ele>
        <time>2022-07-09T09:28:13Z</time>
      </trkpt>
      <trkpt lat="46.1802" lon="1.87093">
        <ele>418.8</ele>
        <time>2022-07-09T09:28:15Z</time>
      </trkpt>
      <trkpt lat="46.18017" lon="1.87091">
        <ele>419</ele>
        <time>2022-07-09T09:28:16Z</time>
      </trkpt>
      <trkpt lat="46.18012" lon="1.87085">
        <ele>419.8</ele>
        <time>2022-07-09T09:28:19Z</time>
      </trkpt>
      <trkpt lat="46.18009" lon="1.8708">
        <ele>420.6</ele>
        <time>2022-07-09T09:28:21Z</time>
      </trkpt>
      <trkpt lat="46.18008" lon="1.87079">
        <ele>420.8</ele>
        <time>2022-07-09T09:28:22Z</time>
      </trkpt>
      <trkpt lat="46.18" lon="1.87071">
        <ele>421.8</ele>
        <time>2022-07-09T09:28:27Z</time>
      </trkpt>
      <trkpt lat="46.17996" lon="1.87068">
        <ele>422.2</ele>
        <time>2022-07-09T09:28:29Z</time>
      </trkpt>
      <trkpt lat="46.17977" lon="1.87062">
        <ele>422.8</ele>
        <time>2022-07-09T09:28:36Z</time>
      </trkpt>
      <trkpt lat="46.17974" lon="1.87061">
        <ele>422.8</ele>
        <time>2022-07-09T09:28:37Z</time>
      </trkpt>
      <trkpt lat="46.17961" lon="1.87059">
        <ele>423.8</ele>
        <time>2022-07-09T09:28:42Z</time>
      </trkpt>
      <trkpt lat="46.17956" lon="1.87059">
        <ele>424</ele>
        <time>2022-07-09T09:28:44Z</time>
      </trkpt>
      <trkpt lat="46.17938" lon="1.87056">
        <ele>424.6</ele>
        <time>2022-07-09T09:28:51Z</time>
      </trkpt>
      <trkpt lat="46.17934" lon="1.87055">
        <ele>424.6</ele>
        <time>2022-07-09T09:28:53Z</time>
      </trkpt>
      <trkpt lat="46.17921" lon="1.8705">
        <ele>425</ele>
        <time>2022-07-09T09:28:58Z</time>
      </trkpt>
      <trkpt lat="46.17901" lon="1.87044">
        <ele>425.2</ele>
        <time>2022-07-09T09:29:04Z</time>
      </trkpt>
      <trkpt lat="46.17874" lon="1.87039">
        <ele>425.2</ele>
        <time>2022-07-09T09:29:12Z</time>
      </trkpt>
      <trkpt lat="46.17846" lon="1.87033">
        <ele>425.4</ele>
        <time>2022-07-09T09:29:20Z</time>
      </trkpt>
      <trkpt lat="46.17838" lon="1.87029">
        <ele>425.4</ele>
        <time>2022-07-09T09:29:23Z</time>
      </trkpt>
      <trkpt lat="46.17813" lon="1.87025">
        <ele>425</ele>
        <time>2022-07-09T09:29:29Z</time>
      </trkpt>
      <trkpt lat="46.17794" lon="1.8702">
        <ele>424.8</ele>
        <time>2022-07-09T09:29:33Z</time>
      </trkpt>
      <trkpt lat="46.17785" lon="1.87018">
        <ele>424.8</ele>
        <time>2022-07-09T09:29:35Z</time>
      </trkpt>
      <trkpt lat="46.17745" lon="1.87009">
        <ele>425.6</ele>
        <time>2022-07-09T09:29:45Z</time>
      </trkpt>
      <trkpt lat="46.17729" lon="1.87004">
        <ele>426</ele>
        <time>2022-07-09T09:29:49Z</time>
      </trkpt>
      <trkpt lat="46.17715" lon="1.87002">
        <ele>426.2</ele>
        <time>2022-07-09T09:29:52Z</time>
      </trkpt>
      <trkpt lat="46.17698" lon="1.86999">
        <ele>426.4</ele>
        <time>2022-07-09T09:29:57Z</time>
      </trkpt>
      <trkpt lat="46.17674" lon="1.86993">
        <ele>427</ele>
        <time>2022-07-09T09:30:03Z</time>
      </trkpt>
      <trkpt lat="46.1767" lon="1.86993">
        <ele>427</ele>
        <time>2022-07-09T09:30:04Z</time>
      </trkpt>
      <trkpt lat="46.17649" lon="1.86989">
        <ele>428.2</ele>
        <time>2022-07-09T09:30:10Z</time>
      </trkpt>
      <trkpt lat="46.17643" lon="1.86987">
        <ele>428.4</ele>
        <time>2022-07-09T09:30:12Z</time>
      </trkpt>
      <trkpt lat="46.17626" lon="1.86984">
        <ele>428.6</ele>
        <time>2022-07-09T09:30:17Z</time>
      </trkpt>
      <trkpt lat="46.176" lon="1.86978">
        <ele>429.2</ele>
        <time>2022-07-09T09:30:24Z</time>
      </trkpt>
      <trkpt lat="46.17593" lon="1.86977">
        <ele>429.4</ele>
        <time>2022-07-09T09:30:26Z</time>
      </trkpt>
      <trkpt lat="46.17579" lon="1.86974">
        <ele>429.6</ele>
        <time>2022-07-09T09:30:30Z</time>
      </trkpt>
      <trkpt lat="46.17558" lon="1.86968">
        <ele>429.8</ele>
        <time>2022-07-09T09:30:36Z</time>
      </trkpt>
      <trkpt lat="46.17537" lon="1.86964">
        <ele>430</ele>
        <time>2022-07-09T09:30:41Z</time>
      </trkpt>
      <trkpt lat="46.17524" lon="1.86963">
        <ele>430.2</ele>
        <time>2022-07-09T09:30:45Z</time>
      </trkpt>
      <trkpt lat="46.17515" lon="1.8696">
        <ele>430.2</ele>
        <time>2022-07-09T09:30:47Z</time>
      </trkpt>
      <trkpt lat="46.17511" lon="1.86959">
        <ele>430.2</ele>
        <time>2022-07-09T09:30:48Z</time>
      </trkpt>
      <trkpt lat="46.175" lon="1.86956">
        <ele>430.4</ele>
        <time>2022-07-09T09:30:51Z</time>
      </trkpt>
      <trkpt lat="46.17477" lon="1.86952">
        <ele>431</ele>
        <time>2022-07-09T09:30:57Z</time>
      </trkpt>
      <trkpt lat="46.17474" lon="1.86952">
        <ele>431.4</ele>
        <time>2022-07-09T09:30:58Z</time>
      </trkpt>
      <trkpt lat="46.17469" lon="1.86948">
        <ele>431.6</ele>
        <time>2022-07-09T09:31:00Z</time>
      </trkpt>
      <trkpt lat="46.17466" lon="1.86947">
        <ele>431.8</ele>
        <time>2022-07-09T09:31:01Z</time>
      </trkpt>
      <trkpt lat="46.17464" lon="1.86945">
        <ele>432</ele>
        <time>2022-07-09T09:31:02Z</time>
      </trkpt>
      <trkpt lat="46.17458" lon="1.86943">
        <ele>432.4</ele>
        <time>2022-07-09T09:31:04Z</time>
      </trkpt>
      <trkpt lat="46.17454" lon="1.86942">
        <ele>432.6</ele>
        <time>2022-07-09T09:31:05Z</time>
      </trkpt>
      <trkpt lat="46.17431" lon="1.86937">
        <ele>433.4</ele>
        <time>2022-07-09T09:31:12Z</time>
      </trkpt>
      <trkpt lat="46.17428" lon="1.86936">
        <ele>433.4</ele>
        <time>2022-07-09T09:31:13Z</time>
      </trkpt>
      <trkpt lat="46.17412" lon="1.86936">
        <ele>433.8</ele>
        <time>2022-07-09T09:31:19Z</time>
      </trkpt>
      <trkpt lat="46.1741" lon="1.86935">
        <ele>433.8</ele>
        <time>2022-07-09T09:31:20Z</time>
      </trkpt>
      <trkpt lat="46.17404" lon="1.8693">
        <ele>434.2</ele>
        <time>2022-07-09T09:31:23Z</time>
      </trkpt>
      <trkpt lat="46.17398" lon="1.86926">
        <ele>434.4</ele>
        <time>2022-07-09T09:31:25Z</time>
      </trkpt>
      <trkpt lat="46.17385" lon="1.86924">
        <ele>434.8</ele>
        <time>2022-07-09T09:31:29Z</time>
      </trkpt>
      <trkpt lat="46.17365" lon="1.86924">
        <ele>435.4</ele>
        <time>2022-07-09T09:31:34Z</time>
      </trkpt>
      <trkpt lat="46.17344" lon="1.8692">
        <ele>436</ele>
        <time>2022-07-09T09:31:40Z</time>
      </trkpt>
      <trkpt lat="46.17333" lon="1.86919">
        <ele>436.4</ele>
        <time>2022-07-09T09:31:43Z</time>
      </trkpt>
      <trkpt lat="46.17317" lon="1.86918">
        <ele>437.2</ele>
        <time>2022-07-09T09:31:48Z</time>
      </trkpt>
      <trkpt lat="46.1731" lon="1.86916">
        <ele>437.6</ele>
        <time>2022-07-09T09:31:50Z</time>
      </trkpt>
      <trkpt lat="46.17301" lon="1.86911">
        <ele>437.8</ele>
        <time>2022-07-09T09:31:53Z</time>
      </trkpt>
      <trkpt lat="46.17278" lon="1.86904">
        <ele>438.4</ele>
        <time>2022-07-09T09:32:00Z</time>
      </trkpt>
      <trkpt lat="46.17276" lon="1.86904">
        <ele>438.6</ele>
        <time>2022-07-09T09:32:01Z</time>
      </trkpt>
      <trkpt lat="46.17265" lon="1.86902">
        <ele>438.8</ele>
        <time>2022-07-09T09:32:05Z</time>
      </trkpt>
      <trkpt lat="46.17245" lon="1.86896">
        <ele>439.8</ele>
        <time>2022-07-09T09:32:11Z</time>
      </trkpt>
      <trkpt lat="46.17221" lon="1.8689">
        <ele>440.2</ele>
        <time>2022-07-09T09:32:19Z</time>
      </trkpt>
      <trkpt lat="46.17218" lon="1.86889">
        <ele>440.4</ele>
        <time>2022-07-09T09:32:20Z</time>
      </trkpt>
      <trkpt lat="46.17213" lon="1.86887">
        <ele>440.6</ele>
        <time>2022-07-09T09:32:22Z</time>
      </trkpt>
      <trkpt lat="46.17212" lon="1.86887">
        <ele>440.8</ele>
        <time>2022-07-09T09:32:23Z</time>
      </trkpt>
      <trkpt lat="46.17213" lon="1.86888">
        <ele>440.8</ele>
        <time>2022-07-09T09:32:24Z</time>
      </trkpt>
      <trkpt lat="46.17221" lon="1.86891">
        <ele>441</ele>
        <time>2022-07-09T09:32:28Z</time>
      </trkpt>
      <trkpt lat="46.17223" lon="1.86892">
        <ele>441</ele>
        <time>2022-07-09T09:32:29Z</time>
      </trkpt>
      <trkpt lat="46.17223" lon="1.86892">
        <ele>441</ele>
        <time>2022-07-09T09:32:32Z</time>
      </trkpt>
      <trkpt lat="46.17221" lon="1.86891">
        <ele>441</ele>
        <time>2022-07-09T09:32:34Z</time>
      </trkpt>
      <trkpt lat="46.1722" lon="1.86891">
        <ele>440.8</ele>
        <time>2022-07-09T09:32:36Z</time>
      </trkpt>
      <trkpt lat="46.1722" lon="1.86891">
        <ele>440.8</ele>
        <time>2022-07-09T09:32:39Z</time>
      </trkpt>
      <trkpt lat="46.17217" lon="1.86889">
        <ele>441</ele>
        <time>2022-07-09T09:32:45Z</time>
      </trkpt>
      <trkpt lat="46.17217" lon="1.86889">
        <ele>441</ele>
        <time>2022-07-09T09:32:46Z</time>
      </trkpt>
      <trkpt lat="46.17215" lon="1.86888">
        <ele>441.2</ele>
        <time>2022-07-09T09:32:48Z</time>
      </trkpt>
      <trkpt lat="46.1721" lon="1.86887">
        <ele>441.4</ele>
        <time>2022-07-09T09:32:51Z</time>
      </trkpt>
      <trkpt lat="46.17209" lon="1.86887">
        <ele>441.6</ele>
        <time>2022-07-09T09:32:52Z</time>
      </trkpt>
      <trkpt lat="46.17209" lon="1.86887">
        <ele>441.8</ele>
        <time>2022-07-09T09:32:54Z</time>
      </trkpt>
      <trkpt lat="46.17209" lon="1.86887">
        <ele>442</ele>
        <time>2022-07-09T09:32:55Z</time>
      </trkpt>
      <trkpt lat="46.17207" lon="1.86887">
        <ele>442</ele>
        <time>2022-07-09T09:32:57Z</time>
      </trkpt>
      <trkpt lat="46.17206" lon="1.86887">
        <ele>442.2</ele>
        <time>2022-07-09T09:32:58Z</time>
      </trkpt>
      <trkpt lat="46.17204" lon="1.86887">
        <ele>442.2</ele>
        <time>2022-07-09T09:32:59Z</time>
      </trkpt>
      <trkpt lat="46.17195" lon="1.86882">
        <ele>442.4</ele>
        <time>2022-07-09T09:33:03Z</time>
      </trkpt>
      <trkpt lat="46.17178" lon="1.86874">
        <ele>442.8</ele>
        <time>2022-07-09T09:33:08Z</time>
      </trkpt>
      <trkpt lat="46.17175" lon="1.86872">
        <ele>443</ele>
        <time>2022-07-09T09:33:09Z</time>
      </trkpt>
      <trkpt lat="46.17163" lon="1.86866">
        <ele>443.4</ele>
        <time>2022-07-09T09:33:13Z</time>
      </trkpt>
      <trkpt lat="46.1715" lon="1.8686">
        <ele>444</ele>
        <time>2022-07-09T09:33:17Z</time>
      </trkpt>
      <trkpt lat="46.17145" lon="1.86858">
        <ele>444.2</ele>
        <time>2022-07-09T09:33:18Z</time>
      </trkpt>
      <trkpt lat="46.17139" lon="1.86858">
        <ele>444.6</ele>
        <time>2022-07-09T09:33:20Z</time>
      </trkpt>
      <trkpt lat="46.17137" lon="1.86858">
        <ele>444.8</ele>
        <time>2022-07-09T09:33:21Z</time>
      </trkpt>
      <trkpt lat="46.17136" lon="1.86857">
        <ele>445</ele>
        <time>2022-07-09T09:33:22Z</time>
      </trkpt>
      <trkpt lat="46.17132" lon="1.86854">
        <ele>445.2</ele>
        <time>2022-07-09T09:33:24Z</time>
      </trkpt>
      <trkpt lat="46.17129" lon="1.8685">
        <ele>445.4</ele>
        <time>2022-07-09T09:33:25Z</time>
      </trkpt>
      <trkpt lat="46.1712" lon="1.86839">
        <ele>445.8</ele>
        <time>2022-07-09T09:33:29Z</time>
      </trkpt>
      <trkpt lat="46.17117" lon="1.86836">
        <ele>446</ele>
        <time>2022-07-09T09:33:30Z</time>
      </trkpt>
      <trkpt lat="46.17115" lon="1.86833">
        <ele>446</ele>
        <time>2022-07-09T09:33:31Z</time>
      </trkpt>
      <trkpt lat="46.17104" lon="1.86825">
        <ele>446.4</ele>
        <time>2022-07-09T09:33:36Z</time>
      </trkpt>
      <trkpt lat="46.1709" lon="1.86817">
        <ele>446.8</ele>
        <time>2022-07-09T09:33:42Z</time>
      </trkpt>
      <trkpt lat="46.17085" lon="1.86812">
        <ele>447.2</ele>
        <time>2022-07-09T09:33:45Z</time>
      </trkpt>
      <trkpt lat="46.17076" lon="1.86805">
        <ele>447.2</ele>
        <time>2022-07-09T09:33:49Z</time>
      </trkpt>
      <trkpt lat="46.1707" lon="1.86798">
        <ele>447.6</ele>
        <time>2022-07-09T09:33:52Z</time>
      </trkpt>
      <trkpt lat="46.17067" lon="1.86797">
        <ele>447.8</ele>
        <time>2022-07-09T09:33:54Z</time>
      </trkpt>
      <trkpt lat="46.17065" lon="1.86798">
        <ele>447.8</ele>
        <time>2022-07-09T09:33:55Z</time>
      </trkpt>
      <trkpt lat="46.17062" lon="1.86798">
        <ele>448</ele>
        <time>2022-07-09T09:33:57Z</time>
      </trkpt>
      <trkpt lat="46.1706" lon="1.86796">
        <ele>448.2</ele>
        <time>2022-07-09T09:33:59Z</time>
      </trkpt>
      <trkpt lat="46.1706" lon="1.86796">
        <ele>448.2</ele>
        <time>2022-07-09T09:34:00Z</time>
      </trkpt>
      <trkpt lat="46.1706" lon="1.86796">
        <ele>448.2</ele>
        <time>2022-07-09T09:34:03Z</time>
      </trkpt>
      <trkpt lat="46.17058" lon="1.86796">
        <ele>448.6</ele>
        <time>2022-07-09T09:34:41Z</time>
      </trkpt>
      <trkpt lat="46.17053" lon="1.86808">
        <ele>448.6</ele>
        <time>2022-07-09T09:34:45Z</time>
      </trkpt>
      <trkpt lat="46.17049" lon="1.86812">
        <ele>448.8</ele>
        <time>2022-07-09T09:34:50Z</time>
      </trkpt>
      <trkpt lat="46.17049" lon="1.86812">
        <ele>448.8</ele>
        <time>2022-07-09T09:34:51Z</time>
      </trkpt>
      <trkpt lat="46.17047" lon="1.86813">
        <ele>448.8</ele>
        <time>2022-07-09T09:35:12Z</time>
      </trkpt>
      <trkpt lat="46.17047" lon="1.86814">
        <ele>448.6</ele>
        <time>2022-07-09T09:35:13Z</time>
      </trkpt>
      <trkpt lat="46.17046" lon="1.86816">
        <ele>448.6</ele>
        <time>2022-07-09T09:35:15Z</time>
      </trkpt>
      <trkpt lat="46.17046" lon="1.86813">
        <ele>448.8</ele>
        <time>2022-07-09T09:35:18Z</time>
      </trkpt>
      <trkpt lat="46.17047" lon="1.86812">
        <ele>448.8</ele>
        <time>2022-07-09T09:35:19Z</time>
      </trkpt>
      <trkpt lat="46.17049" lon="1.86805">
        <ele>448.8</ele>
        <time>2022-07-09T09:35:22Z</time>
      </trkpt>
      <trkpt lat="46.17048" lon="1.86803">
        <ele>449</ele>
        <time>2022-07-09T09:35:23Z</time>
      </trkpt>
      <trkpt lat="46.17045" lon="1.86802">
        <ele>449</ele>
        <time>2022-07-09T09:35:24Z</time>
      </trkpt>
      <trkpt lat="46.17044" lon="1.86802">
        <ele>449</ele>
        <time>2022-07-09T09:35:28Z</time>
      </trkpt>
      <trkpt lat="46.17043" lon="1.86803">
        <ele>449</ele>
        <time>2022-07-09T09:35:29Z</time>
      </trkpt>
      <trkpt lat="46.17038" lon="1.86803">
        <ele>449.2</ele>
        <time>2022-07-09T09:35:31Z</time>
      </trkpt>
      <trkpt lat="46.17035" lon="1.86802">
        <ele>449.2</ele>
        <time>2022-07-09T09:35:32Z</time>
      </trkpt>
      <trkpt lat="46.17032" lon="1.868">
        <ele>449.2</ele>
        <time>2022-07-09T09:35:33Z</time>
      </trkpt>
      <trkpt lat="46.17024" lon="1.86797">
        <ele>450</ele>
        <time>2022-07-09T09:35:36Z</time>
      </trkpt>
      <trkpt lat="46.1702" lon="1.86793">
        <ele>450.6</ele>
        <time>2022-07-09T09:35:38Z</time>
      </trkpt>
      <trkpt lat="46.17016" lon="1.8679">
        <ele>450.8</ele>
        <time>2022-07-09T09:35:41Z</time>
      </trkpt>
      <trkpt lat="46.17016" lon="1.86791">
        <ele>451</ele>
        <time>2022-07-09T09:35:42Z</time>
      </trkpt>
      <trkpt lat="46.17015" lon="1.86792">
        <ele>451</ele>
        <time>2022-07-09T09:35:43Z</time>
      </trkpt>
      <trkpt lat="46.17008" lon="1.86797">
        <ele>451.2</ele>
        <time>2022-07-09T09:35:46Z</time>
      </trkpt>
      <trkpt lat="46.17002" lon="1.86799">
        <ele>451.6</ele>
        <time>2022-07-09T09:35:50Z</time>
      </trkpt>
      <trkpt lat="46.17002" lon="1.86801">
        <ele>451.8</ele>
        <time>2022-07-09T09:35:51Z</time>
      </trkpt>
      <trkpt lat="46.17" lon="1.86803">
        <ele>452.2</ele>
        <time>2022-07-09T09:35:52Z</time>
      </trkpt>
      <trkpt lat="46.16997" lon="1.86805">
        <ele>453</ele>
        <time>2022-07-09T09:35:54Z</time>
      </trkpt>
      <trkpt lat="46.16995" lon="1.86806">
        <ele>453.2</ele>
        <time>2022-07-09T09:35:55Z</time>
      </trkpt>
      <trkpt lat="46.16984" lon="1.86814">
        <ele>454.4</ele>
        <time>2022-07-09T09:36:01Z</time>
      </trkpt>
      <trkpt lat="46.16983" lon="1.86815">
        <ele>454.4</ele>
        <time>2022-07-09T09:36:02Z</time>
      </trkpt>
      <trkpt lat="46.16982" lon="1.86817">
        <ele>454.8</ele>
        <time>2022-07-09T09:36:03Z</time>
      </trkpt>
      <trkpt lat="46.16979" lon="1.8682">
        <ele>455</ele>
        <time>2022-07-09T09:36:05Z</time>
      </trkpt>
      <trkpt lat="46.16974" lon="1.86827">
        <ele>455.4</ele>
        <time>2022-07-09T09:36:08Z</time>
      </trkpt>
      <trkpt lat="46.1697" lon="1.86832">
        <ele>455.6</ele>
        <time>2022-07-09T09:36:10Z</time>
      </trkpt>
      <trkpt lat="46.16966" lon="1.86838">
        <ele>455.8</ele>
        <time>2022-07-09T09:36:12Z</time>
      </trkpt>
      <trkpt lat="46.16965" lon="1.8684">
        <ele>456.2</ele>
        <time>2022-07-09T09:36:13Z</time>
      </trkpt>
      <trkpt lat="46.16962" lon="1.86847">
        <ele>456.6</ele>
        <time>2022-07-09T09:36:15Z</time>
      </trkpt>
      <trkpt lat="46.16959" lon="1.86849">
        <ele>456.6</ele>
        <time>2022-07-09T09:36:16Z</time>
      </trkpt>
      <trkpt lat="46.16949" lon="1.86857">
        <ele>457.8</ele>
        <time>2022-07-09T09:36:20Z</time>
      </trkpt>
      <trkpt lat="46.16947" lon="1.86864">
        <ele>457.8</ele>
        <time>2022-07-09T09:36:22Z</time>
      </trkpt>
      <trkpt lat="46.16938" lon="1.86876">
        <ele>458.2</ele>
        <time>2022-07-09T09:36:27Z</time>
      </trkpt>
      <trkpt lat="46.16937" lon="1.86883">
        <ele>458.8</ele>
        <time>2022-07-09T09:36:29Z</time>
      </trkpt>
      <trkpt lat="46.16933" lon="1.8689">
        <ele>459</ele>
        <time>2022-07-09T09:36:32Z</time>
      </trkpt>
      <trkpt lat="46.16923" lon="1.86901">
        <ele>459.8</ele>
        <time>2022-07-09T09:36:38Z</time>
      </trkpt>
      <trkpt lat="46.16921" lon="1.86902">
        <ele>459.8</ele>
        <time>2022-07-09T09:36:39Z</time>
      </trkpt>
      <trkpt lat="46.16911" lon="1.86915">
        <ele>460.2</ele>
        <time>2022-07-09T09:36:46Z</time>
      </trkpt>
      <trkpt lat="46.16908" lon="1.86917">
        <ele>460.4</ele>
        <time>2022-07-09T09:36:48Z</time>
      </trkpt>
      <trkpt lat="46.16906" lon="1.86919">
        <ele>460.6</ele>
        <time>2022-07-09T09:36:50Z</time>
      </trkpt>
      <trkpt lat="46.16904" lon="1.86921">
        <ele>460.6</ele>
        <time>2022-07-09T09:36:51Z</time>
      </trkpt>
      <trkpt lat="46.16903" lon="1.86923">
        <ele>460.8</ele>
        <time>2022-07-09T09:36:52Z</time>
      </trkpt>
      <trkpt lat="46.16897" lon="1.86942">
        <ele>461.6</ele>
        <time>2022-07-09T09:36:58Z</time>
      </trkpt>
      <trkpt lat="46.16893" lon="1.8695">
        <ele>461.8</ele>
        <time>2022-07-09T09:37:01Z</time>
      </trkpt>
      <trkpt lat="46.16891" lon="1.86955">
        <ele>462.2</ele>
        <time>2022-07-09T09:37:03Z</time>
      </trkpt>
      <trkpt lat="46.1689" lon="1.86978">
        <ele>462.6</ele>
        <time>2022-07-09T09:37:09Z</time>
      </trkpt>
      <trkpt lat="46.16891" lon="1.8699">
        <ele>462.8</ele>
        <time>2022-07-09T09:37:12Z</time>
      </trkpt>
      <trkpt lat="46.16891" lon="1.86996">
        <ele>463</ele>
        <time>2022-07-09T09:37:14Z</time>
      </trkpt>
      <trkpt lat="46.16887" lon="1.87008">
        <ele>463.2</ele>
        <time>2022-07-09T09:37:18Z</time>
      </trkpt>
      <trkpt lat="46.16884" lon="1.87009">
        <ele>463.4</ele>
        <time>2022-07-09T09:37:19Z</time>
      </trkpt>
      <trkpt lat="46.16878" lon="1.8701">
        <ele>463.6</ele>
        <time>2022-07-09T09:37:23Z</time>
      </trkpt>
      <trkpt lat="46.16873" lon="1.87007">
        <ele>463.6</ele>
        <time>2022-07-09T09:37:25Z</time>
      </trkpt>
      <trkpt lat="46.16867" lon="1.87005">
        <ele>464</ele>
        <time>2022-07-09T09:37:28Z</time>
      </trkpt>
      <trkpt lat="46.16857" lon="1.86998">
        <ele>464</ele>
        <time>2022-07-09T09:37:33Z</time>
      </trkpt>
      <trkpt lat="46.16849" lon="1.86992">
        <ele>464.4</ele>
        <time>2022-07-09T09:37:37Z</time>
      </trkpt>
      <trkpt lat="46.16847" lon="1.86992">
        <ele>464.4</ele>
        <time>2022-07-09T09:37:38Z</time>
      </trkpt>
      <trkpt lat="46.16832" lon="1.86986">
        <ele>465</ele>
        <time>2022-07-09T09:37:45Z</time>
      </trkpt>
      <trkpt lat="46.16824" lon="1.86982">
        <ele>466</ele>
        <time>2022-07-09T09:37:50Z</time>
      </trkpt>
      <trkpt lat="46.16822" lon="1.86982">
        <ele>466.2</ele>
        <time>2022-07-09T09:37:51Z</time>
      </trkpt>
      <trkpt lat="46.16819" lon="1.86982">
        <ele>466.8</ele>
        <time>2022-07-09T09:37:54Z</time>
      </trkpt>
      <trkpt lat="46.16819" lon="1.86982">
        <ele>467</ele>
        <time>2022-07-09T09:37:55Z</time>
      </trkpt>
      <trkpt lat="46.16819" lon="1.86982">
        <ele>467.2</ele>
        <time>2022-07-09T09:37:57Z</time>
      </trkpt>
      <trkpt lat="46.16819" lon="1.86982">
        <ele>467.6</ele>
        <time>2022-07-09T09:37:59Z</time>
      </trkpt>
      <trkpt lat="46.1682" lon="1.86981">
        <ele>467.8</ele>
        <time>2022-07-09T09:38:06Z</time>
      </trkpt>
      <trkpt lat="46.16824" lon="1.86978">
        <ele>467.4</ele>
        <time>2022-07-09T09:54:31Z</time>
      </trkpt>
      <trkpt lat="46.16832" lon="1.86984">
        <ele>467.2</ele>
        <time>2022-07-09T09:54:36Z</time>
      </trkpt>
      <trkpt lat="46.16836" lon="1.86989">
        <ele>466.8</ele>
        <time>2022-07-09T09:54:38Z</time>
      </trkpt>
      <trkpt lat="46.1684" lon="1.86994">
        <ele>466.6</ele>
        <time>2022-07-09T09:54:40Z</time>
      </trkpt>
      <trkpt lat="46.16842" lon="1.86996">
        <ele>466.2</ele>
        <time>2022-07-09T09:54:41Z</time>
      </trkpt>
      <trkpt lat="46.16853" lon="1.87001">
        <ele>465.2</ele>
        <time>2022-07-09T09:54:46Z</time>
      </trkpt>
      <trkpt lat="46.16861" lon="1.8701">
        <ele>464</ele>
        <time>2022-07-09T09:54:50Z</time>
      </trkpt>
      <trkpt lat="46.16863" lon="1.87012">
        <ele>463.8</ele>
        <time>2022-07-09T09:54:51Z</time>
      </trkpt>
      <trkpt lat="46.16877" lon="1.87016">
        <ele>463</ele>
        <time>2022-07-09T09:54:55Z</time>
      </trkpt>
      <trkpt lat="46.16879" lon="1.87014">
        <ele>462.8</ele>
        <time>2022-07-09T09:54:56Z</time>
      </trkpt>
      <trkpt lat="46.16881" lon="1.8701">
        <ele>462.8</ele>
        <time>2022-07-09T09:54:57Z</time>
      </trkpt>
      <trkpt lat="46.16884" lon="1.87004">
        <ele>462.6</ele>
        <time>2022-07-09T09:54:59Z</time>
      </trkpt>
      <trkpt lat="46.16884" lon="1.87001">
        <ele>462.4</ele>
        <time>2022-07-09T09:55:00Z</time>
      </trkpt>
      <trkpt lat="46.16886" lon="1.86997">
        <ele>462.2</ele>
        <time>2022-07-09T09:55:02Z</time>
      </trkpt>
      <trkpt lat="46.16889" lon="1.86987">
        <ele>462</ele>
        <time>2022-07-09T09:55:05Z</time>
      </trkpt>
      <trkpt lat="46.1689" lon="1.86977">
        <ele>462</ele>
        <time>2022-07-09T09:55:07Z</time>
      </trkpt>
      <trkpt lat="46.16891" lon="1.86974">
        <ele>461.8</ele>
        <time>2022-07-09T09:55:08Z</time>
      </trkpt>
      <trkpt lat="46.16897" lon="1.86956">
        <ele>461.8</ele>
        <time>2022-07-09T09:55:12Z</time>
      </trkpt>
      <trkpt lat="46.16903" lon="1.86934">
        <ele>461.4</ele>
        <time>2022-07-09T09:55:17Z</time>
      </trkpt>
      <trkpt lat="46.16905" lon="1.86928">
        <ele>460.8</ele>
        <time>2022-07-09T09:55:20Z</time>
      </trkpt>
      <trkpt lat="46.1691" lon="1.86923">
        <ele>460.4</ele>
        <time>2022-07-09T09:55:23Z</time>
      </trkpt>
      <trkpt lat="46.16924" lon="1.86908">
        <ele>460</ele>
        <time>2022-07-09T09:55:28Z</time>
      </trkpt>
      <trkpt lat="46.1693" lon="1.869">
        <ele>459.8</ele>
        <time>2022-07-09T09:55:30Z</time>
      </trkpt>
      <trkpt lat="46.16938" lon="1.8689">
        <ele>459.2</ele>
        <time>2022-07-09T09:55:33Z</time>
      </trkpt>
      <trkpt lat="46.1695" lon="1.86878">
        <ele>458.6</ele>
        <time>2022-07-09T09:55:37Z</time>
      </trkpt>
      <trkpt lat="46.16954" lon="1.8687">
        <ele>458.4</ele>
        <time>2022-07-09T09:55:39Z</time>
      </trkpt>
      <trkpt lat="46.16967" lon="1.86846">
        <ele>457.6</ele>
        <time>2022-07-09T09:55:46Z</time>
      </trkpt>
      <trkpt lat="46.16968" lon="1.86842">
        <ele>457.6</ele>
        <time>2022-07-09T09:55:47Z</time>
      </trkpt>
      <trkpt lat="46.16976" lon="1.86832">
        <ele>456.4</ele>
        <time>2022-07-09T09:55:53Z</time>
      </trkpt>
      <trkpt lat="46.16981" lon="1.86823">
        <ele>455.2</ele>
        <time>2022-07-09T09:55:57Z</time>
      </trkpt>
      <trkpt lat="46.16985" lon="1.86818">
        <ele>454.8</ele>
        <time>2022-07-09T09:55:59Z</time>
      </trkpt>
      <trkpt lat="46.16989" lon="1.86813">
        <ele>454</ele>
        <time>2022-07-09T09:56:01Z</time>
      </trkpt>
      <trkpt lat="46.16991" lon="1.86809">
        <ele>453.4</ele>
        <time>2022-07-09T09:56:04Z</time>
      </trkpt>
      <trkpt lat="46.16995" lon="1.86803">
        <ele>452.4</ele>
        <time>2022-07-09T09:56:07Z</time>
      </trkpt>
      <trkpt lat="46.17" lon="1.86799">
        <ele>452</ele>
        <time>2022-07-09T09:56:09Z</time>
      </trkpt>
      <trkpt lat="46.17006" lon="1.86794">
        <ele>451.2</ele>
        <time>2022-07-09T09:56:12Z</time>
      </trkpt>
      <trkpt lat="46.17008" lon="1.86793">
        <ele>450.6</ele>
        <time>2022-07-09T09:56:16Z</time>
      </trkpt>
      <trkpt lat="46.17008" lon="1.86792">
        <ele>450.2</ele>
        <time>2022-07-09T09:56:20Z</time>
      </trkpt>
      <trkpt lat="46.17009" lon="1.8679">
        <ele>450.2</ele>
        <time>2022-07-09T09:57:34Z</time>
      </trkpt>
      <trkpt lat="46.17009" lon="1.86791">
        <ele>449.8</ele>
        <time>2022-07-09T09:57:37Z</time>
      </trkpt>
      <trkpt lat="46.1701" lon="1.86788">
        <ele>449.8</ele>
        <time>2022-07-09T09:57:43Z</time>
      </trkpt>
      <trkpt lat="46.17006" lon="1.86769">
        <ele>451.6</ele>
        <time>2022-07-09T10:39:58Z</time>
      </trkpt>
      <trkpt lat="46.17006" lon="1.86782">
        <ele>451.6</ele>
        <time>2022-07-09T10:40:50Z</time>
      </trkpt>
      <trkpt lat="46.17005" lon="1.86784">
        <ele>451.6</ele>
        <time>2022-07-09T10:40:51Z</time>
      </trkpt>
      <trkpt lat="46.17" lon="1.86794">
        <ele>451.6</ele>
        <time>2022-07-09T10:40:57Z</time>
      </trkpt>
      <trkpt lat="46.16998" lon="1.86795">
        <ele>451.6</ele>
        <time>2022-07-09T10:40:58Z</time>
      </trkpt>
      <trkpt lat="46.1699" lon="1.86796">
        <ele>451.8</ele>
        <time>2022-07-09T10:41:01Z</time>
      </trkpt>
      <trkpt lat="46.16981" lon="1.86803">
        <ele>452.6</ele>
        <time>2022-07-09T10:41:06Z</time>
      </trkpt>
      <trkpt lat="46.16979" lon="1.86804">
        <ele>453</ele>
        <time>2022-07-09T10:41:08Z</time>
      </trkpt>
      <trkpt lat="46.16977" lon="1.86806">
        <ele>453.8</ele>
        <time>2022-07-09T10:41:11Z</time>
      </trkpt>
      <trkpt lat="46.16976" lon="1.86808">
        <ele>453.8</ele>
        <time>2022-07-09T10:41:13Z</time>
      </trkpt>
      <trkpt lat="46.16973" lon="1.8681">
        <ele>454</ele>
        <time>2022-07-09T10:41:15Z</time>
      </trkpt>
      <trkpt lat="46.16971" lon="1.86813">
        <ele>454.6</ele>
        <time>2022-07-09T10:41:19Z</time>
      </trkpt>
      <trkpt lat="46.16974" lon="1.86818">
        <ele>454.8</ele>
        <time>2022-07-09T10:41:23Z</time>
      </trkpt>
      <trkpt lat="46.16974" lon="1.86816">
        <ele>455</ele>
        <time>2022-07-09T10:41:24Z</time>
      </trkpt>
      <trkpt lat="46.16973" lon="1.86811">
        <ele>455.6</ele>
        <time>2022-07-09T10:41:26Z</time>
      </trkpt>
      <trkpt lat="46.16974" lon="1.86809">
        <ele>456</ele>
        <time>2022-07-09T10:41:27Z</time>
      </trkpt>
      <trkpt lat="46.16973" lon="1.86808">
        <ele>456</ele>
        <time>2022-07-09T10:41:28Z</time>
      </trkpt>
      <trkpt lat="46.1697" lon="1.86801">
        <ele>456.4</ele>
        <time>2022-07-09T10:41:31Z</time>
      </trkpt>
      <trkpt lat="46.16968" lon="1.86798">
        <ele>456.6</ele>
        <time>2022-07-09T10:41:33Z</time>
      </trkpt>
      <trkpt lat="46.16966" lon="1.86794">
        <ele>456.8</ele>
        <time>2022-07-09T10:41:35Z</time>
      </trkpt>
      <trkpt lat="46.16965" lon="1.86792">
        <ele>457.2</ele>
        <time>2022-07-09T10:41:36Z</time>
      </trkpt>
      <trkpt lat="46.16967" lon="1.86784">
        <ele>457.8</ele>
        <time>2022-07-09T10:41:41Z</time>
      </trkpt>
      <trkpt lat="46.16967" lon="1.86781">
        <ele>457.8</ele>
        <time>2022-07-09T10:41:42Z</time>
      </trkpt>
      <trkpt lat="46.16966" lon="1.86778">
        <ele>458</ele>
        <time>2022-07-09T10:41:43Z</time>
      </trkpt>
      <trkpt lat="46.1697" lon="1.86769">
        <ele>458.2</ele>
        <time>2022-07-09T10:41:47Z</time>
      </trkpt>
      <trkpt lat="46.16975" lon="1.86762">
        <ele>458.2</ele>
        <time>2022-07-09T10:41:50Z</time>
      </trkpt>
      <trkpt lat="46.16977" lon="1.86755">
        <ele>458.2</ele>
        <time>2022-07-09T10:41:52Z</time>
      </trkpt>
      <trkpt lat="46.16978" lon="1.86746">
        <ele>458.2</ele>
        <time>2022-07-09T10:41:55Z</time>
      </trkpt>
      <trkpt lat="46.16976" lon="1.8674">
        <ele>458.2</ele>
        <time>2022-07-09T10:41:57Z</time>
      </trkpt>
      <trkpt lat="46.16975" lon="1.8672">
        <ele>458.8</ele>
        <time>2022-07-09T10:42:05Z</time>
      </trkpt>
      <trkpt lat="46.16973" lon="1.86711">
        <ele>459.2</ele>
        <time>2022-07-09T10:42:09Z</time>
      </trkpt>
      <trkpt lat="46.16971" lon="1.86705">
        <ele>459.6</ele>
        <time>2022-07-09T10:42:12Z</time>
      </trkpt>
      <trkpt lat="46.16972" lon="1.86703">
        <ele>459.8</ele>
        <time>2022-07-09T10:42:14Z</time>
      </trkpt>
      <trkpt lat="46.16973" lon="1.867">
        <ele>460</ele>
        <time>2022-07-09T10:42:17Z</time>
      </trkpt>
      <trkpt lat="46.16972" lon="1.86699">
        <ele>460</ele>
        <time>2022-07-09T10:42:18Z</time>
      </trkpt>
      <trkpt lat="46.16971" lon="1.86698">
        <ele>460.2</ele>
        <time>2022-07-09T10:42:21Z</time>
      </trkpt>
      <trkpt lat="46.1697" lon="1.86703">
        <ele>460.4</ele>
        <time>2022-07-09T10:42:36Z</time>
      </trkpt>
      <trkpt lat="46.16969" lon="1.86704">
        <ele>460.4</ele>
        <time>2022-07-09T10:42:37Z</time>
      </trkpt>
      <trkpt lat="46.1697" lon="1.86708">
        <ele>460.6</ele>
        <time>2022-07-09T10:42:41Z</time>
      </trkpt>
      <trkpt lat="46.16971" lon="1.8671">
        <ele>460.6</ele>
        <time>2022-07-09T10:42:42Z</time>
      </trkpt>
      <trkpt lat="46.16971" lon="1.86711">
        <ele>460.4</ele>
        <time>2022-07-09T10:42:43Z</time>
      </trkpt>
      <trkpt lat="46.16968" lon="1.86712">
        <ele>460.4</ele>
        <time>2022-07-09T10:42:45Z</time>
      </trkpt>
      <trkpt lat="46.16968" lon="1.86709">
        <ele>460.6</ele>
        <time>2022-07-09T10:42:47Z</time>
      </trkpt>
      <trkpt lat="46.16969" lon="1.86703">
        <ele>460.6</ele>
        <time>2022-07-09T10:42:49Z</time>
      </trkpt>
      <trkpt lat="46.16968" lon="1.86697">
        <ele>460.6</ele>
        <time>2022-07-09T10:42:51Z</time>
      </trkpt>
      <trkpt lat="46.16966" lon="1.86692">
        <ele>460.8</ele>
        <time>2022-07-09T10:42:53Z</time>
      </trkpt>
      <trkpt lat="46.16964" lon="1.86682">
        <ele>461.2</ele>
        <time>2022-07-09T10:42:57Z</time>
      </trkpt>
      <trkpt lat="46.16963" lon="1.86678">
        <ele>461.4</ele>
        <time>2022-07-09T10:42:59Z</time>
      </trkpt>
      <trkpt lat="46.16962" lon="1.86676">
        <ele>461.6</ele>
        <time>2022-07-09T10:43:00Z</time>
      </trkpt>
      <trkpt lat="46.16957" lon="1.86662">
        <ele>462.6</ele>
        <time>2022-07-09T10:43:07Z</time>
      </trkpt>
      <trkpt lat="46.16956" lon="1.86659">
        <ele>462.8</ele>
        <time>2022-07-09T10:43:09Z</time>
      </trkpt>
      <trkpt lat="46.16954" lon="1.86654">
        <ele>463.2</ele>
        <time>2022-07-09T10:43:12Z</time>
      </trkpt>
      <trkpt lat="46.16953" lon="1.8665">
        <ele>463.6</ele>
        <time>2022-07-09T10:43:14Z</time>
      </trkpt>
      <trkpt lat="46.16952" lon="1.86647">
        <ele>464</ele>
        <time>2022-07-09T10:43:16Z</time>
      </trkpt>
      <trkpt lat="46.16951" lon="1.86643">
        <ele>464.6</ele>
        <time>2022-07-09T10:43:19Z</time>
      </trkpt>
      <trkpt lat="46.16951" lon="1.86643">
        <ele>464.6</ele>
        <time>2022-07-09T10:43:20Z</time>
      </trkpt>
      <trkpt lat="46.16951" lon="1.86643">
        <ele>464.8</ele>
        <time>2022-07-09T10:43:22Z</time>
      </trkpt>
      <trkpt lat="46.16951" lon="1.86642">
        <ele>465</ele>
        <time>2022-07-09T10:43:24Z</time>
      </trkpt>
      <trkpt lat="46.1695" lon="1.8664">
        <ele>465.2</ele>
        <time>2022-07-09T10:43:26Z</time>
      </trkpt>
      <trkpt lat="46.16948" lon="1.8664">
        <ele>465.2</ele>
        <time>2022-07-09T10:43:27Z</time>
      </trkpt>
      <trkpt lat="46.16942" lon="1.86646">
        <ele>465.6</ele>
        <time>2022-07-09T10:43:33Z</time>
      </trkpt>
      <trkpt lat="46.16936" lon="1.86653">
        <ele>467</ele>
        <time>2022-07-09T10:43:39Z</time>
      </trkpt>
      <trkpt lat="46.16934" lon="1.86656">
        <ele>467.4</ele>
        <time>2022-07-09T10:43:41Z</time>
      </trkpt>
      <trkpt lat="46.16931" lon="1.86665">
        <ele>468</ele>
        <time>2022-07-09T10:43:46Z</time>
      </trkpt>
      <trkpt lat="46.16931" lon="1.86666">
        <ele>468.2</ele>
        <time>2022-07-09T10:43:47Z</time>
      </trkpt>
      <trkpt lat="46.16929" lon="1.86667">
        <ele>468.6</ele>
        <time>2022-07-09T10:43:49Z</time>
      </trkpt>
      <trkpt lat="46.16927" lon="1.86667">
        <ele>468.8</ele>
        <time>2022-07-09T10:43:50Z</time>
      </trkpt>
      <trkpt lat="46.16926" lon="1.86668">
        <ele>469</ele>
        <time>2022-07-09T10:43:52Z</time>
      </trkpt>
      <trkpt lat="46.16925" lon="1.86669">
        <ele>469.2</ele>
        <time>2022-07-09T10:43:54Z</time>
      </trkpt>
      <trkpt lat="46.16925" lon="1.86672">
        <ele>469.6</ele>
        <time>2022-07-09T10:43:58Z</time>
      </trkpt>
      <trkpt lat="46.16925" lon="1.86676">
        <ele>469.8</ele>
        <time>2022-07-09T10:44:08Z</time>
      </trkpt>
      <trkpt lat="46.16925" lon="1.86686">
        <ele>469.8</ele>
        <time>2022-07-09T10:44:12Z</time>
      </trkpt>
      <trkpt lat="46.16924" lon="1.8669">
        <ele>469.8</ele>
        <time>2022-07-09T10:44:14Z</time>
      </trkpt>
      <trkpt lat="46.16921" lon="1.86695">
        <ele>469.8</ele>
        <time>2022-07-09T10:44:18Z</time>
      </trkpt>
      <trkpt lat="46.1692" lon="1.86695">
        <ele>469.8</ele>
        <time>2022-07-09T10:44:20Z</time>
      </trkpt>
      <trkpt lat="46.1692" lon="1.86696">
        <ele>469.6</ele>
        <time>2022-07-09T10:44:22Z</time>
      </trkpt>
      <trkpt lat="46.16921" lon="1.86698">
        <ele>469.4</ele>
        <time>2022-07-09T10:44:25Z</time>
      </trkpt>
      <trkpt lat="46.16922" lon="1.86698">
        <ele>469.4</ele>
        <time>2022-07-09T10:44:26Z</time>
      </trkpt>
      <trkpt lat="46.16924" lon="1.86695">
        <ele>469.2</ele>
        <time>2022-07-09T10:44:28Z</time>
      </trkpt>
      <trkpt lat="46.16921" lon="1.8669">
        <ele>469.2</ele>
        <time>2022-07-09T10:44:31Z</time>
      </trkpt>
      <trkpt lat="46.16917" lon="1.86699">
        <ele>469.4</ele>
        <time>2022-07-09T10:44:35Z</time>
      </trkpt>
      <trkpt lat="46.16911" lon="1.86714">
        <ele>470.2</ele>
        <time>2022-07-09T10:44:41Z</time>
      </trkpt>
      <trkpt lat="46.1691" lon="1.86716">
        <ele>470.4</ele>
        <time>2022-07-09T10:44:42Z</time>
      </trkpt>
      <trkpt lat="46.16905" lon="1.86731">
        <ele>471.2</ele>
        <time>2022-07-09T10:44:48Z</time>
      </trkpt>
      <trkpt lat="46.16904" lon="1.86733">
        <ele>471.4</ele>
        <time>2022-07-09T10:44:49Z</time>
      </trkpt>
      <trkpt lat="46.16898" lon="1.86746">
        <ele>472.2</ele>
        <time>2022-07-09T10:44:54Z</time>
      </trkpt>
      <trkpt lat="46.16897" lon="1.86748">
        <ele>472.4</ele>
        <time>2022-07-09T10:44:55Z</time>
      </trkpt>
      <trkpt lat="46.16893" lon="1.86759">
        <ele>473</ele>
        <time>2022-07-09T10:44:59Z</time>
      </trkpt>
      <trkpt lat="46.1689" lon="1.86774">
        <ele>473.2</ele>
        <time>2022-07-09T10:45:05Z</time>
      </trkpt>
      <trkpt lat="46.16882" lon="1.86789">
        <ele>473.4</ele>
        <time>2022-07-09T10:45:12Z</time>
      </trkpt>
      <trkpt lat="46.16881" lon="1.86795">
        <ele>473.6</ele>
        <time>2022-07-09T10:45:17Z</time>
      </trkpt>
      <trkpt lat="46.16881" lon="1.86795">
        <ele>473.6</ele>
        <time>2022-07-09T10:45:18Z</time>
      </trkpt>
      <trkpt lat="46.16879" lon="1.86795">
        <ele>473.8</ele>
        <time>2022-07-09T10:45:22Z</time>
      </trkpt>
      <trkpt lat="46.16874" lon="1.86801">
        <ele>474</ele>
        <time>2022-07-09T10:45:25Z</time>
      </trkpt>
      <trkpt lat="46.16868" lon="1.86818">
        <ele>474.4</ele>
        <time>2022-07-09T10:45:31Z</time>
      </trkpt>
      <trkpt lat="46.16866" lon="1.86821">
        <ele>474.4</ele>
        <time>2022-07-09T10:45:32Z</time>
      </trkpt>
      <trkpt lat="46.16853" lon="1.86848">
        <ele>475</ele>
        <time>2022-07-09T10:45:40Z</time>
      </trkpt>
      <trkpt lat="46.1684" lon="1.86877">
        <ele>474.2</ele>
        <time>2022-07-09T10:45:47Z</time>
      </trkpt>
      <trkpt lat="46.16822" lon="1.8691">
        <ele>473.4</ele>
        <time>2022-07-09T10:45:55Z</time>
      </trkpt>
      <trkpt lat="46.16815" lon="1.86925">
        <ele>473.2</ele>
        <time>2022-07-09T10:45:59Z</time>
      </trkpt>
      <trkpt lat="46.16813" lon="1.86927">
        <ele>473</ele>
        <time>2022-07-09T10:46:00Z</time>
      </trkpt>
      <trkpt lat="46.16813" lon="1.86929">
        <ele>473</ele>
        <time>2022-07-09T10:46:02Z</time>
      </trkpt>
      <trkpt lat="46.16813" lon="1.86929">
        <ele>473</ele>
        <time>2022-07-09T10:46:03Z</time>
      </trkpt>
      <trkpt lat="46.16811" lon="1.86932">
        <ele>472.4</ele>
        <time>2022-07-09T10:46:06Z</time>
      </trkpt>
      <trkpt lat="46.1681" lon="1.86931">
        <ele>472.4</ele>
        <time>2022-07-09T10:46:08Z</time>
      </trkpt>
      <trkpt lat="46.1681" lon="1.86932">
        <ele>472.4</ele>
        <time>2022-07-09T10:46:09Z</time>
      </trkpt>
      <trkpt lat="46.16821" lon="1.86919">
        <ele>473</ele>
        <time>2022-07-09T10:53:06Z</time>
      </trkpt>
      <trkpt lat="46.16821" lon="1.8692">
        <ele>473</ele>
        <time>2022-07-09T10:53:08Z</time>
      </trkpt>
      <trkpt lat="46.16821" lon="1.86918">
        <ele>472.8</ele>
        <time>2022-07-09T10:53:11Z</time>
      </trkpt>
      <trkpt lat="46.16822" lon="1.86917">
        <ele>472.8</ele>
        <time>2022-07-09T10:53:12Z</time>
      </trkpt>
      <trkpt lat="46.1683" lon="1.86902">
        <ele>473</ele>
        <time>2022-07-09T10:53:19Z</time>
      </trkpt>
      <trkpt lat="46.1684" lon="1.86889">
        <ele>473.6</ele>
        <time>2022-07-09T10:53:25Z</time>
      </trkpt>
      <trkpt lat="46.16849" lon="1.86869">
        <ele>474</ele>
        <time>2022-07-09T10:53:32Z</time>
      </trkpt>
      <trkpt lat="46.16858" lon="1.86846">
        <ele>474.4</ele>
        <time>2022-07-09T10:53:39Z</time>
      </trkpt>
      <trkpt lat="46.16859" lon="1.86843">
        <ele>474.6</ele>
        <time>2022-07-09T10:53:40Z</time>
      </trkpt>
      <trkpt lat="46.16866" lon="1.86829">
        <ele>475</ele>
        <time>2022-07-09T10:53:45Z</time>
      </trkpt>
      <trkpt lat="46.16878" lon="1.86802">
        <ele>475.6</ele>
        <time>2022-07-09T10:53:54Z</time>
      </trkpt>
      <trkpt lat="46.16881" lon="1.86796">
        <ele>475.6</ele>
        <time>2022-07-09T10:53:56Z</time>
      </trkpt>
      <trkpt lat="46.16895" lon="1.86761">
        <ele>475.4</ele>
        <time>2022-07-09T10:54:05Z</time>
      </trkpt>
      <trkpt lat="46.16902" lon="1.86743">
        <ele>474.6</ele>
        <time>2022-07-09T10:54:10Z</time>
      </trkpt>
      <trkpt lat="46.16904" lon="1.8674">
        <ele>474.4</ele>
        <time>2022-07-09T10:54:11Z</time>
      </trkpt>
      <trkpt lat="46.16905" lon="1.86737">
        <ele>474.4</ele>
        <time>2022-07-09T10:54:12Z</time>
      </trkpt>
      <trkpt lat="46.16909" lon="1.86725">
        <ele>473.8</ele>
        <time>2022-07-09T10:54:15Z</time>
      </trkpt>
      <trkpt lat="46.16914" lon="1.86716">
        <ele>473.6</ele>
        <time>2022-07-09T10:54:17Z</time>
      </trkpt>
      <trkpt lat="46.16918" lon="1.86705">
        <ele>473.4</ele>
        <time>2022-07-09T10:54:19Z</time>
      </trkpt>
      <trkpt lat="46.16925" lon="1.86688">
        <ele>472.6</ele>
        <time>2022-07-09T10:54:22Z</time>
      </trkpt>
      <trkpt lat="46.16927" lon="1.86681">
        <ele>472.2</ele>
        <time>2022-07-09T10:54:23Z</time>
      </trkpt>
      <trkpt lat="46.16928" lon="1.86676">
        <ele>472</ele>
        <time>2022-07-09T10:54:24Z</time>
      </trkpt>
      <trkpt lat="46.16929" lon="1.8667">
        <ele>471.6</ele>
        <time>2022-07-09T10:54:25Z</time>
      </trkpt>
      <trkpt lat="46.1693" lon="1.86654">
        <ele>471.2</ele>
        <time>2022-07-09T10:54:28Z</time>
      </trkpt>
      <trkpt lat="46.16931" lon="1.8665">
        <ele>471.2</ele>
        <time>2022-07-09T10:54:29Z</time>
      </trkpt>
      <trkpt lat="46.16928" lon="1.86628">
        <ele>471.2</ele>
        <time>2022-07-09T10:54:35Z</time>
      </trkpt>
      <trkpt lat="46.16923" lon="1.86614">
        <ele>471.8</ele>
        <time>2022-07-09T10:54:40Z</time>
      </trkpt>
      <trkpt lat="46.16923" lon="1.86612">
        <ele>471.8</ele>
        <time>2022-07-09T10:54:41Z</time>
      </trkpt>
      <trkpt lat="46.16921" lon="1.86603">
        <ele>472.4</ele>
        <time>2022-07-09T10:54:45Z</time>
      </trkpt>
      <trkpt lat="46.16917" lon="1.86594">
        <ele>473.4</ele>
        <time>2022-07-09T10:54:49Z</time>
      </trkpt>
      <trkpt lat="46.16916" lon="1.86592">
        <ele>473.4</ele>
        <time>2022-07-09T10:54:50Z</time>
      </trkpt>
      <trkpt lat="46.16916" lon="1.86589">
        <ele>473.6</ele>
        <time>2022-07-09T10:54:51Z</time>
      </trkpt>
      <trkpt lat="46.16916" lon="1.86584">
        <ele>474</ele>
        <time>2022-07-09T10:54:53Z</time>
      </trkpt>
      <trkpt lat="46.16914" lon="1.86578">
        <ele>474.2</ele>
        <time>2022-07-09T10:54:55Z</time>
      </trkpt>
      <trkpt lat="46.16912" lon="1.86574">
        <ele>474.8</ele>
        <time>2022-07-09T10:54:57Z</time>
      </trkpt>
      <trkpt lat="46.16912" lon="1.86572">
        <ele>474.8</ele>
        <time>2022-07-09T10:54:58Z</time>
      </trkpt>
      <trkpt lat="46.16909" lon="1.86555">
        <ele>476</ele>
        <time>2022-07-09T10:55:06Z</time>
      </trkpt>
      <trkpt lat="46.16901" lon="1.86538">
        <ele>477</ele>
        <time>2022-07-09T10:55:15Z</time>
      </trkpt>
      <trkpt lat="46.169" lon="1.86535">
        <ele>477.2</ele>
        <time>2022-07-09T10:55:17Z</time>
      </trkpt>
      <trkpt lat="46.16897" lon="1.86532">
        <ele>478</ele>
        <time>2022-07-09T10:55:21Z</time>
      </trkpt>
      <trkpt lat="46.16896" lon="1.86531">
        <ele>478.4</ele>
        <time>2022-07-09T10:55:23Z</time>
      </trkpt>
      <trkpt lat="46.16896" lon="1.86529">
        <ele>479</ele>
        <time>2022-07-09T10:55:25Z</time>
      </trkpt>
      <trkpt lat="46.16896" lon="1.86529">
        <ele>479</ele>
        <time>2022-07-09T10:55:26Z</time>
      </trkpt>
      <trkpt lat="46.16895" lon="1.86529">
        <ele>479</ele>
        <time>2022-07-09T10:55:27Z</time>
      </trkpt>
      <trkpt lat="46.16894" lon="1.86526">
        <ele>479.4</ele>
        <time>2022-07-09T10:55:30Z</time>
      </trkpt>
      <trkpt lat="46.16893" lon="1.86524">
        <ele>479.8</ele>
        <time>2022-07-09T10:55:32Z</time>
      </trkpt>
      <trkpt lat="46.16893" lon="1.86522">
        <ele>480.2</ele>
        <time>2022-07-09T10:55:34Z</time>
      </trkpt>
      <trkpt lat="46.16893" lon="1.8652">
        <ele>480.6</ele>
        <time>2022-07-09T10:55:37Z</time>
      </trkpt>
      <trkpt lat="46.16892" lon="1.86517">
        <ele>481</ele>
        <time>2022-07-09T10:55:40Z</time>
      </trkpt>
      <trkpt lat="46.16891" lon="1.86517">
        <ele>481.2</ele>
        <time>2022-07-09T10:55:41Z</time>
      </trkpt>
      <trkpt lat="46.1689" lon="1.86515">
        <ele>481.2</ele>
        <time>2022-07-09T10:55:42Z</time>
      </trkpt>
      <trkpt lat="46.16888" lon="1.86508">
        <ele>482.2</ele>
        <time>2022-07-09T10:55:47Z</time>
      </trkpt>
      <trkpt lat="46.16886" lon="1.86503">
        <ele>482.8</ele>
        <time>2022-07-09T10:55:50Z</time>
      </trkpt>
      <trkpt lat="46.16885" lon="1.86496">
        <ele>483.4</ele>
        <time>2022-07-09T10:55:54Z</time>
      </trkpt>
      <trkpt lat="46.16883" lon="1.86488">
        <ele>484.4</ele>
        <time>2022-07-09T10:55:59Z</time>
      </trkpt>
      <trkpt lat="46.16883" lon="1.86487">
        <ele>484.6</ele>
        <time>2022-07-09T10:56:00Z</time>
      </trkpt>
      <trkpt lat="46.16881" lon="1.86481">
        <ele>485.2</ele>
        <time>2022-07-09T10:56:04Z</time>
      </trkpt>
      <trkpt lat="46.16881" lon="1.86479">
        <ele>485.6</ele>
        <time>2022-07-09T10:56:06Z</time>
      </trkpt>
      <trkpt lat="46.16881" lon="1.86476">
        <ele>486</ele>
        <time>2022-07-09T10:56:08Z</time>
      </trkpt>
      <trkpt lat="46.1688" lon="1.86473">
        <ele>486.6</ele>
        <time>2022-07-09T10:56:11Z</time>
      </trkpt>
      <trkpt lat="46.16879" lon="1.8647">
        <ele>487</ele>
        <time>2022-07-09T10:56:13Z</time>
      </trkpt>
      <trkpt lat="46.16878" lon="1.86467">
        <ele>487.2</ele>
        <time>2022-07-09T10:56:15Z</time>
      </trkpt>
      <trkpt lat="46.16877" lon="1.86464">
        <ele>487.4</ele>
        <time>2022-07-09T10:56:17Z</time>
      </trkpt>
      <trkpt lat="46.16877" lon="1.86461">
        <ele>487.8</ele>
        <time>2022-07-09T10:56:19Z</time>
      </trkpt>
      <trkpt lat="46.16875" lon="1.86457">
        <ele>488.2</ele>
        <time>2022-07-09T10:56:22Z</time>
      </trkpt>
      <trkpt lat="46.16874" lon="1.86452">
        <ele>488.8</ele>
        <time>2022-07-09T10:56:25Z</time>
      </trkpt>
      <trkpt lat="46.16872" lon="1.86445">
        <ele>489.6</ele>
        <time>2022-07-09T10:56:29Z</time>
      </trkpt>
      <trkpt lat="46.16871" lon="1.86443">
        <ele>489.8</ele>
        <time>2022-07-09T10:56:32Z</time>
      </trkpt>
      <trkpt lat="46.1687" lon="1.86442">
        <ele>490</ele>
        <time>2022-07-09T10:56:33Z</time>
      </trkpt>
      <trkpt lat="46.16868" lon="1.86436">
        <ele>491</ele>
        <time>2022-07-09T10:56:37Z</time>
      </trkpt>
      <trkpt lat="46.16867" lon="1.86433">
        <ele>491.4</ele>
        <time>2022-07-09T10:56:40Z</time>
      </trkpt>
      <trkpt lat="46.16867" lon="1.8643">
        <ele>491.6</ele>
        <time>2022-07-09T10:56:42Z</time>
      </trkpt>
      <trkpt lat="46.16865" lon="1.8642">
        <ele>491.8</ele>
        <time>2022-07-09T10:56:47Z</time>
      </trkpt>
      <trkpt lat="46.16863" lon="1.86414">
        <ele>492</ele>
        <time>2022-07-09T10:56:50Z</time>
      </trkpt>
      <trkpt lat="46.1686" lon="1.86405">
        <ele>492.2</ele>
        <time>2022-07-09T10:56:54Z</time>
      </trkpt>
      <trkpt lat="46.16852" lon="1.8639">
        <ele>492.8</ele>
        <time>2022-07-09T10:57:01Z</time>
      </trkpt>
      <trkpt lat="46.16848" lon="1.8638">
        <ele>493</ele>
        <time>2022-07-09T10:57:05Z</time>
      </trkpt>
      <trkpt lat="46.16847" lon="1.86377">
        <ele>493.2</ele>
        <time>2022-07-09T10:57:06Z</time>
      </trkpt>
      <trkpt lat="46.16839" lon="1.8636">
        <ele>493.4</ele>
        <time>2022-07-09T10:57:10Z</time>
      </trkpt>
      <trkpt lat="46.16825" lon="1.86338">
        <ele>493.2</ele>
        <time>2022-07-09T10:57:16Z</time>
      </trkpt>
      <trkpt lat="46.16813" lon="1.86326">
        <ele>493.8</ele>
        <time>2022-07-09T10:57:22Z</time>
      </trkpt>
      <trkpt lat="46.16811" lon="1.86324">
        <ele>494</ele>
        <time>2022-07-09T10:57:23Z</time>
      </trkpt>
      <trkpt lat="46.16802" lon="1.86314">
        <ele>495.2</ele>
        <time>2022-07-09T10:57:28Z</time>
      </trkpt>
      <trkpt lat="46.16792" lon="1.86304">
        <ele>496</ele>
        <time>2022-07-09T10:57:33Z</time>
      </trkpt>
      <trkpt lat="46.16786" lon="1.86302">
        <ele>496.2</ele>
        <time>2022-07-09T10:57:36Z</time>
      </trkpt>
      <trkpt lat="46.16773" lon="1.86298">
        <ele>496.8</ele>
        <time>2022-07-09T10:57:42Z</time>
      </trkpt>
      <trkpt lat="46.16764" lon="1.86294">
        <ele>496.8</ele>
        <time>2022-07-09T10:57:46Z</time>
      </trkpt>
      <trkpt lat="46.16751" lon="1.86289">
        <ele>497.4</ele>
        <time>2022-07-09T10:57:51Z</time>
      </trkpt>
      <trkpt lat="46.1673" lon="1.86276">
        <ele>497.4</ele>
        <time>2022-07-09T10:57:59Z</time>
      </trkpt>
      <trkpt lat="46.16708" lon="1.86257">
        <ele>497.2</ele>
        <time>2022-07-09T10:58:06Z</time>
      </trkpt>
      <trkpt lat="46.16695" lon="1.86246">
        <ele>496.8</ele>
        <time>2022-07-09T10:58:10Z</time>
      </trkpt>
      <trkpt lat="46.16683" lon="1.86234">
        <ele>496.8</ele>
        <time>2022-07-09T10:58:14Z</time>
      </trkpt>
      <trkpt lat="46.16647" lon="1.862">
        <ele>496.4</ele>
        <time>2022-07-09T10:58:25Z</time>
      </trkpt>
      <trkpt lat="46.16615" lon="1.86166">
        <ele>496.4</ele>
        <time>2022-07-09T10:58:35Z</time>
      </trkpt>
      <trkpt lat="46.1661" lon="1.86156">
        <ele>496</ele>
        <time>2022-07-09T10:58:37Z</time>
      </trkpt>
      <trkpt lat="46.16604" lon="1.86141">
        <ele>496</ele>
        <time>2022-07-09T10:58:40Z</time>
      </trkpt>
      <trkpt lat="46.16602" lon="1.86136">
        <ele>496</ele>
        <time>2022-07-09T10:58:41Z</time>
      </trkpt>
      <trkpt lat="46.16585" lon="1.86085">
        <ele>496</ele>
        <time>2022-07-09T10:58:50Z</time>
      </trkpt>
      <trkpt lat="46.16578" lon="1.86068">
        <ele>496</ele>
        <time>2022-07-09T10:58:53Z</time>
      </trkpt>
      <trkpt lat="46.16569" lon="1.86048">
        <ele>496</ele>
        <time>2022-07-09T10:58:57Z</time>
      </trkpt>
      <trkpt lat="46.16558" lon="1.86032">
        <ele>496</ele>
        <time>2022-07-09T10:59:01Z</time>
      </trkpt>
      <trkpt lat="46.16552" lon="1.86027">
        <ele>495.8</ele>
        <time>2022-07-09T10:59:03Z</time>
      </trkpt>
      <trkpt lat="46.16545" lon="1.8602">
        <ele>495.8</ele>
        <time>2022-07-09T10:59:05Z</time>
      </trkpt>
      <trkpt lat="46.16526" lon="1.86004">
        <ele>495.4</ele>
        <time>2022-07-09T10:59:10Z</time>
      </trkpt>
      <trkpt lat="46.16495" lon="1.85978">
        <ele>495.4</ele>
        <time>2022-07-09T10:59:19Z</time>
      </trkpt>
      <trkpt lat="46.16492" lon="1.85976">
        <ele>495.4</ele>
        <time>2022-07-09T10:59:20Z</time>
      </trkpt>
      <trkpt lat="46.16479" lon="1.85972">
        <ele>495.4</ele>
        <time>2022-07-09T10:59:24Z</time>
      </trkpt>
      <trkpt lat="46.16462" lon="1.8597">
        <ele>495.4</ele>
        <time>2022-07-09T10:59:30Z</time>
      </trkpt>
      <trkpt lat="46.16445" lon="1.8597">
        <ele>496</ele>
        <time>2022-07-09T10:59:36Z</time>
      </trkpt>
      <trkpt lat="46.1644" lon="1.85971">
        <ele>496.6</ele>
        <time>2022-07-09T10:59:38Z</time>
      </trkpt>
      <trkpt lat="46.16429" lon="1.85974">
        <ele>497.4</ele>
        <time>2022-07-09T10:59:43Z</time>
      </trkpt>
      <trkpt lat="46.16426" lon="1.85974">
        <ele>497.8</ele>
        <time>2022-07-09T10:59:44Z</time>
      </trkpt>
      <trkpt lat="46.16421" lon="1.85977">
        <ele>498</ele>
        <time>2022-07-09T10:59:46Z</time>
      </trkpt>
      <trkpt lat="46.16412" lon="1.85979">
        <ele>498.6</ele>
        <time>2022-07-09T10:59:50Z</time>
      </trkpt>
      <trkpt lat="46.1641" lon="1.8598">
        <ele>498.6</ele>
        <time>2022-07-09T10:59:51Z</time>
      </trkpt>
      <trkpt lat="46.16393" lon="1.85986">
        <ele>499.8</ele>
        <time>2022-07-09T10:59:59Z</time>
      </trkpt>
      <trkpt lat="46.16391" lon="1.85987">
        <ele>500</ele>
        <time>2022-07-09T11:00:00Z</time>
      </trkpt>
      <trkpt lat="46.16374" lon="1.85993">
        <ele>501</ele>
        <time>2022-07-09T11:00:08Z</time>
      </trkpt>
      <trkpt lat="46.1637" lon="1.85994">
        <ele>501.2</ele>
        <time>2022-07-09T11:00:10Z</time>
      </trkpt>
      <trkpt lat="46.16359" lon="1.85999">
        <ele>502</ele>
        <time>2022-07-09T11:00:16Z</time>
      </trkpt>
      <trkpt lat="46.1635" lon="1.86002">
        <ele>502.4</ele>
        <time>2022-07-09T11:00:20Z</time>
      </trkpt>
      <trkpt lat="46.16342" lon="1.86007">
        <ele>502.6</ele>
        <time>2022-07-09T11:00:24Z</time>
      </trkpt>
      <trkpt lat="46.1634" lon="1.86008">
        <ele>503</ele>
        <time>2022-07-09T11:00:25Z</time>
      </trkpt>
      <trkpt lat="46.16331" lon="1.86014">
        <ele>503.6</ele>
        <time>2022-07-09T11:00:29Z</time>
      </trkpt>
      <trkpt lat="46.1632" lon="1.8602">
        <ele>504</ele>
        <time>2022-07-09T11:00:34Z</time>
      </trkpt>
      <trkpt lat="46.16315" lon="1.86023">
        <ele>504.2</ele>
        <time>2022-07-09T11:00:37Z</time>
      </trkpt>
      <trkpt lat="46.16296" lon="1.86036">
        <ele>505.2</ele>
        <time>2022-07-09T11:00:46Z</time>
      </trkpt>
      <trkpt lat="46.16294" lon="1.86037">
        <ele>505.2</ele>
        <time>2022-07-09T11:00:47Z</time>
      </trkpt>
      <trkpt lat="46.16277" lon="1.86048">
        <ele>505.8</ele>
        <time>2022-07-09T11:00:54Z</time>
      </trkpt>
      <trkpt lat="46.16269" lon="1.86053">
        <ele>506</ele>
        <time>2022-07-09T11:00:57Z</time>
      </trkpt>
      <trkpt lat="46.1626" lon="1.86061">
        <ele>506.2</ele>
        <time>2022-07-09T11:01:01Z</time>
      </trkpt>
      <trkpt lat="46.16245" lon="1.86072">
        <ele>506.4</ele>
        <time>2022-07-09T11:01:07Z</time>
      </trkpt>
      <trkpt lat="46.16228" lon="1.86084">
        <ele>506.6</ele>
        <time>2022-07-09T11:01:13Z</time>
      </trkpt>
      <trkpt lat="46.16207" lon="1.86099">
        <ele>507</ele>
        <time>2022-07-09T11:01:21Z</time>
      </trkpt>
      <trkpt lat="46.16199" lon="1.86106">
        <ele>507.2</ele>
        <time>2022-07-09T11:01:24Z</time>
      </trkpt>
      <trkpt lat="46.1619" lon="1.86112">
        <ele>507.4</ele>
        <time>2022-07-09T11:01:27Z</time>
      </trkpt>
      <trkpt lat="46.16173" lon="1.86125">
        <ele>507.6</ele>
        <time>2022-07-09T11:01:33Z</time>
      </trkpt>
      <trkpt lat="46.16162" lon="1.86131">
        <ele>507.8</ele>
        <time>2022-07-09T11:01:38Z</time>
      </trkpt>
      <trkpt lat="46.16156" lon="1.86132">
        <ele>507.8</ele>
        <time>2022-07-09T11:01:41Z</time>
      </trkpt>
      <trkpt lat="46.16154" lon="1.86133">
        <ele>507.8</ele>
        <time>2022-07-09T11:01:43Z</time>
      </trkpt>
      <trkpt lat="46.16141" lon="1.86138">
        <ele>507.8</ele>
        <time>2022-07-09T11:01:48Z</time>
      </trkpt>
      <trkpt lat="46.16125" lon="1.86148">
        <ele>507.8</ele>
        <time>2022-07-09T11:01:52Z</time>
      </trkpt>
      <trkpt lat="46.1612" lon="1.86151">
        <ele>507.8</ele>
        <time>2022-07-09T11:01:53Z</time>
      </trkpt>
      <trkpt lat="46.16091" lon="1.86167">
        <ele>507</ele>
        <time>2022-07-09T11:01:58Z</time>
      </trkpt>
      <trkpt lat="46.16068" lon="1.86186">
        <ele>505.8</ele>
        <time>2022-07-09T11:02:02Z</time>
      </trkpt>
      <trkpt lat="46.16063" lon="1.86191">
        <ele>505.4</ele>
        <time>2022-07-09T11:02:03Z</time>
      </trkpt>
      <trkpt lat="46.16051" lon="1.86199">
        <ele>504.4</ele>
        <time>2022-07-09T11:02:05Z</time>
      </trkpt>
      <trkpt lat="46.16046" lon="1.86203">
        <ele>504.2</ele>
        <time>2022-07-09T11:02:06Z</time>
      </trkpt>
      <trkpt lat="46.16033" lon="1.86211">
        <ele>503</ele>
        <time>2022-07-09T11:02:09Z</time>
      </trkpt>
      <trkpt lat="46.16029" lon="1.86212">
        <ele>502.8</ele>
        <time>2022-07-09T11:02:10Z</time>
      </trkpt>
      <trkpt lat="46.16014" lon="1.86216">
        <ele>502.2</ele>
        <time>2022-07-09T11:02:14Z</time>
      </trkpt>
      <trkpt lat="46.16007" lon="1.86216">
        <ele>501.8</ele>
        <time>2022-07-09T11:02:17Z</time>
      </trkpt>
      <trkpt lat="46.16003" lon="1.86215">
        <ele>501.8</ele>
        <time>2022-07-09T11:02:19Z</time>
      </trkpt>
      <trkpt lat="46.16002" lon="1.86215">
        <ele>501.8</ele>
        <time>2022-07-09T11:02:20Z</time>
      </trkpt>
      <trkpt lat="46.16002" lon="1.86213">
        <ele>501.8</ele>
        <time>2022-07-09T11:02:22Z</time>
      </trkpt>
      <trkpt lat="46.16001" lon="1.86214">
        <ele>502.4</ele>
        <time>2022-07-09T11:02:26Z</time>
      </trkpt>
      <trkpt lat="46.16" lon="1.86215">
        <ele>503</ele>
        <time>2022-07-09T11:02:32Z</time>
      </trkpt>
      <trkpt lat="46.16" lon="1.86215">
        <ele>503</ele>
        <time>2022-07-09T11:02:33Z</time>
      </trkpt>
      <trkpt lat="46.16" lon="1.86212">
        <ele>502.4</ele>
        <time>2022-07-09T11:03:44Z</time>
      </trkpt>
      <trkpt lat="46.15998" lon="1.86211">
        <ele>502.4</ele>
        <time>2022-07-09T11:03:46Z</time>
      </trkpt>
      <trkpt lat="46.15994" lon="1.86208">
        <ele>502.4</ele>
        <time>2022-07-09T11:03:48Z</time>
      </trkpt>
      <trkpt lat="46.15981" lon="1.86188">
        <ele>502.2</ele>
        <time>2022-07-09T11:03:53Z</time>
      </trkpt>
      <trkpt lat="46.15976" lon="1.86175">
        <ele>501.8</ele>
        <time>2022-07-09T11:03:55Z</time>
      </trkpt>
      <trkpt lat="46.15974" lon="1.86169">
        <ele>501.6</ele>
        <time>2022-07-09T11:03:56Z</time>
      </trkpt>
      <trkpt lat="46.15967" lon="1.86151">
        <ele>500.8</ele>
        <time>2022-07-09T11:03:59Z</time>
      </trkpt>
      <trkpt lat="46.15965" lon="1.86145">
        <ele>500.2</ele>
        <time>2022-07-09T11:04:00Z</time>
      </trkpt>
      <trkpt lat="46.15963" lon="1.8614">
        <ele>498.8</ele>
        <time>2022-07-09T11:04:01Z</time>
      </trkpt>
      <trkpt lat="46.15961" lon="1.86135">
        <ele>498.4</ele>
        <time>2022-07-09T11:04:02Z</time>
      </trkpt>
      <trkpt lat="46.15957" lon="1.86124">
        <ele>497.4</ele>
        <time>2022-07-09T11:04:04Z</time>
      </trkpt>
      <trkpt lat="46.15955" lon="1.86118">
        <ele>496.8</ele>
        <time>2022-07-09T11:04:05Z</time>
      </trkpt>
      <trkpt lat="46.15953" lon="1.86114">
        <ele>496.4</ele>
        <time>2022-07-09T11:04:06Z</time>
      </trkpt>
      <trkpt lat="46.1595" lon="1.86109">
        <ele>495.8</ele>
        <time>2022-07-09T11:04:07Z</time>
      </trkpt>
      <trkpt lat="46.15946" lon="1.861">
        <ele>494.6</ele>
        <time>2022-07-09T11:04:09Z</time>
      </trkpt>
      <trkpt lat="46.15945" lon="1.86094">
        <ele>493.8</ele>
        <time>2022-07-09T11:04:10Z</time>
      </trkpt>
      <trkpt lat="46.15942" lon="1.86084">
        <ele>493</ele>
        <time>2022-07-09T11:04:12Z</time>
      </trkpt>
      <trkpt lat="46.15939" lon="1.86075">
        <ele>492</ele>
        <time>2022-07-09T11:04:14Z</time>
      </trkpt>
      <trkpt lat="46.15935" lon="1.86066">
        <ele>490.6</ele>
        <time>2022-07-09T11:04:16Z</time>
      </trkpt>
      <trkpt lat="46.15933" lon="1.86061">
        <ele>489.8</ele>
        <time>2022-07-09T11:04:17Z</time>
      </trkpt>
      <trkpt lat="46.15929" lon="1.86058">
        <ele>489.4</ele>
        <time>2022-07-09T11:04:18Z</time>
      </trkpt>
      <trkpt lat="46.15921" lon="1.86051">
        <ele>488.6</ele>
        <time>2022-07-09T11:04:20Z</time>
      </trkpt>
      <trkpt lat="46.15918" lon="1.86048">
        <ele>488</ele>
        <time>2022-07-09T11:04:21Z</time>
      </trkpt>
      <trkpt lat="46.15914" lon="1.86045">
        <ele>488</ele>
        <time>2022-07-09T11:04:22Z</time>
      </trkpt>
      <trkpt lat="46.15905" lon="1.86032">
        <ele>487</ele>
        <time>2022-07-09T11:04:25Z</time>
      </trkpt>
      <trkpt lat="46.15898" lon="1.8602">
        <ele>485.2</ele>
        <time>2022-07-09T11:04:28Z</time>
      </trkpt>
      <trkpt lat="46.15894" lon="1.86012">
        <ele>484</ele>
        <time>2022-07-09T11:04:30Z</time>
      </trkpt>
      <trkpt lat="46.15891" lon="1.86008">
        <ele>483.6</ele>
        <time>2022-07-09T11:04:31Z</time>
      </trkpt>
      <trkpt lat="46.1589" lon="1.86004">
        <ele>482.6</ele>
        <time>2022-07-09T11:04:32Z</time>
      </trkpt>
      <trkpt lat="46.15888" lon="1.86">
        <ele>481.8</ele>
        <time>2022-07-09T11:04:33Z</time>
      </trkpt>
      <trkpt lat="46.15885" lon="1.85997">
        <ele>481.2</ele>
        <time>2022-07-09T11:04:34Z</time>
      </trkpt>
      <trkpt lat="46.15881" lon="1.85995">
        <ele>480</ele>
        <time>2022-07-09T11:04:36Z</time>
      </trkpt>
      <trkpt lat="46.15869" lon="1.85992">
        <ele>478.8</ele>
        <time>2022-07-09T11:04:39Z</time>
      </trkpt>
      <trkpt lat="46.15853" lon="1.85987">
        <ele>477.6</ele>
        <time>2022-07-09T11:04:43Z</time>
      </trkpt>
      <trkpt lat="46.15851" lon="1.85984">
        <ele>477</ele>
        <time>2022-07-09T11:04:44Z</time>
      </trkpt>
      <trkpt lat="46.1585" lon="1.85978">
        <ele>476.4</ele>
        <time>2022-07-09T11:04:46Z</time>
      </trkpt>
      <trkpt lat="46.1585" lon="1.85964">
        <ele>475.8</ele>
        <time>2022-07-09T11:04:48Z</time>
      </trkpt>
      <trkpt lat="46.1585" lon="1.85956">
        <ele>475</ele>
        <time>2022-07-09T11:04:49Z</time>
      </trkpt>
      <trkpt lat="46.15846" lon="1.85943">
        <ele>474.6</ele>
        <time>2022-07-09T11:04:51Z</time>
      </trkpt>
      <trkpt lat="46.15843" lon="1.85936">
        <ele>474.4</ele>
        <time>2022-07-09T11:04:52Z</time>
      </trkpt>
      <trkpt lat="46.1584" lon="1.85928">
        <ele>473.8</ele>
        <time>2022-07-09T11:04:53Z</time>
      </trkpt>
      <trkpt lat="46.15836" lon="1.85921">
        <ele>473.6</ele>
        <time>2022-07-09T11:04:54Z</time>
      </trkpt>
      <trkpt lat="46.15829" lon="1.85908">
        <ele>473.2</ele>
        <time>2022-07-09T11:04:56Z</time>
      </trkpt>
      <trkpt lat="46.15826" lon="1.859">
        <ele>472.6</ele>
        <time>2022-07-09T11:04:57Z</time>
      </trkpt>
      <trkpt lat="46.15814" lon="1.85878">
        <ele>471.6</ele>
        <time>2022-07-09T11:05:00Z</time>
      </trkpt>
      <trkpt lat="46.15806" lon="1.85867">
        <ele>471</ele>
        <time>2022-07-09T11:05:02Z</time>
      </trkpt>
      <trkpt lat="46.15787" lon="1.8586">
        <ele>470.8</ele>
        <time>2022-07-09T11:05:07Z</time>
      </trkpt>
      <trkpt lat="46.1578" lon="1.85857">
        <ele>470.6</ele>
        <time>2022-07-09T11:05:09Z</time>
      </trkpt>
      <trkpt lat="46.15768" lon="1.85851">
        <ele>470.4</ele>
        <time>2022-07-09T11:05:14Z</time>
      </trkpt>
      <trkpt lat="46.15757" lon="1.85845">
        <ele>470.4</ele>
        <time>2022-07-09T11:05:20Z</time>
      </trkpt>
      <trkpt lat="46.15747" lon="1.85841">
        <ele>471</ele>
        <time>2022-07-09T11:05:27Z</time>
      </trkpt>
      <trkpt lat="46.15739" lon="1.85841">
        <ele>471.8</ele>
        <time>2022-07-09T11:05:32Z</time>
      </trkpt>
      <trkpt lat="46.15737" lon="1.85842">
        <ele>472</ele>
        <time>2022-07-09T11:05:34Z</time>
      </trkpt>
      <trkpt lat="46.15733" lon="1.85844">
        <ele>472.8</ele>
        <time>2022-07-09T11:05:38Z</time>
      </trkpt>
      <trkpt lat="46.15728" lon="1.85847">
        <ele>473.6</ele>
        <time>2022-07-09T11:05:41Z</time>
      </trkpt>
      <trkpt lat="46.15725" lon="1.85849">
        <ele>474</ele>
        <time>2022-07-09T11:05:43Z</time>
      </trkpt>
      <trkpt lat="46.15724" lon="1.8585">
        <ele>474</ele>
        <time>2022-07-09T11:05:44Z</time>
      </trkpt>
      <trkpt lat="46.15712" lon="1.85861">
        <ele>474.8</ele>
        <time>2022-07-09T11:05:50Z</time>
      </trkpt>
      <trkpt lat="46.15709" lon="1.85864">
        <ele>475</ele>
        <time>2022-07-09T11:05:52Z</time>
      </trkpt>
      <trkpt lat="46.15695" lon="1.85872">
        <ele>475.8</ele>
        <time>2022-07-09T11:05:59Z</time>
      </trkpt>
      <trkpt lat="46.15691" lon="1.85873">
        <ele>476</ele>
        <time>2022-07-09T11:06:01Z</time>
      </trkpt>
      <trkpt lat="46.1568" lon="1.85872">
        <ele>476.4</ele>
        <time>2022-07-09T11:06:07Z</time>
      </trkpt>
      <trkpt lat="46.15671" lon="1.85869">
        <ele>477.2</ele>
        <time>2022-07-09T11:06:12Z</time>
      </trkpt>
      <trkpt lat="46.15666" lon="1.85866">
        <ele>477.8</ele>
        <time>2022-07-09T11:06:15Z</time>
      </trkpt>
      <trkpt lat="46.15661" lon="1.85863">
        <ele>478.2</ele>
        <time>2022-07-09T11:06:18Z</time>
      </trkpt>
      <trkpt lat="46.15651" lon="1.85855">
        <ele>479</ele>
        <time>2022-07-09T11:06:25Z</time>
      </trkpt>
      <trkpt lat="46.15649" lon="1.85852">
        <ele>479.6</ele>
        <time>2022-07-09T11:06:27Z</time>
      </trkpt>
      <trkpt lat="46.15643" lon="1.85846">
        <ele>480.6</ele>
        <time>2022-07-09T11:06:32Z</time>
      </trkpt>
      <trkpt lat="46.15642" lon="1.85845">
        <ele>480.8</ele>
        <time>2022-07-09T11:06:33Z</time>
      </trkpt>
      <trkpt lat="46.15637" lon="1.85841">
        <ele>481.6</ele>
        <time>2022-07-09T11:06:37Z</time>
      </trkpt>
      <trkpt lat="46.15633" lon="1.8584">
        <ele>482.2</ele>
        <time>2022-07-09T11:06:40Z</time>
      </trkpt>
      <trkpt lat="46.15624" lon="1.85836">
        <ele>482.8</ele>
        <time>2022-07-09T11:06:46Z</time>
      </trkpt>
      <trkpt lat="46.15621" lon="1.85832">
        <ele>483</ele>
        <time>2022-07-09T11:06:48Z</time>
      </trkpt>
      <trkpt lat="46.15617" lon="1.8582">
        <ele>483.6</ele>
        <time>2022-07-09T11:06:54Z</time>
      </trkpt>
      <trkpt lat="46.15614" lon="1.85812">
        <ele>483.8</ele>
        <time>2022-07-09T11:06:58Z</time>
      </trkpt>
      <trkpt lat="46.1561" lon="1.85804">
        <ele>484.4</ele>
        <time>2022-07-09T11:07:02Z</time>
      </trkpt>
      <trkpt lat="46.15607" lon="1.85796">
        <ele>484.8</ele>
        <time>2022-07-09T11:07:06Z</time>
      </trkpt>
      <trkpt lat="46.15606" lon="1.85795">
        <ele>485</ele>
        <time>2022-07-09T11:07:07Z</time>
      </trkpt>
      <trkpt lat="46.15604" lon="1.85792">
        <ele>485</ele>
        <time>2022-07-09T11:07:09Z</time>
      </trkpt>
      <trkpt lat="46.15603" lon="1.8579">
        <ele>485.2</ele>
        <time>2022-07-09T11:07:10Z</time>
      </trkpt>
      <trkpt lat="46.15594" lon="1.85777">
        <ele>485.6</ele>
        <time>2022-07-09T11:07:17Z</time>
      </trkpt>
      <trkpt lat="46.15591" lon="1.85774">
        <ele>485.8</ele>
        <time>2022-07-09T11:07:19Z</time>
      </trkpt>
      <trkpt lat="46.15589" lon="1.85772">
        <ele>486</ele>
        <time>2022-07-09T11:07:21Z</time>
      </trkpt>
      <trkpt lat="46.15588" lon="1.8577">
        <ele>486</ele>
        <time>2022-07-09T11:07:22Z</time>
      </trkpt>
      <trkpt lat="46.15584" lon="1.85764">
        <ele>487</ele>
        <time>2022-07-09T11:07:26Z</time>
      </trkpt>
      <trkpt lat="46.15583" lon="1.85762">
        <ele>487</ele>
        <time>2022-07-09T11:07:27Z</time>
      </trkpt>
      <trkpt lat="46.1558" lon="1.85758">
        <ele>487.4</ele>
        <time>2022-07-09T11:07:29Z</time>
      </trkpt>
      <trkpt lat="46.15578" lon="1.85752">
        <ele>488.2</ele>
        <time>2022-07-09T11:07:32Z</time>
      </trkpt>
      <trkpt lat="46.15577" lon="1.8575">
        <ele>488.4</ele>
        <time>2022-07-09T11:07:33Z</time>
      </trkpt>
      <trkpt lat="46.15576" lon="1.85748">
        <ele>488.6</ele>
        <time>2022-07-09T11:07:34Z</time>
      </trkpt>
      <trkpt lat="46.15569" lon="1.85737">
        <ele>489.2</ele>
        <time>2022-07-09T11:07:39Z</time>
      </trkpt>
      <trkpt lat="46.15562" lon="1.85725">
        <ele>490</ele>
        <time>2022-07-09T11:07:44Z</time>
      </trkpt>
      <trkpt lat="46.15562" lon="1.85724">
        <ele>490</ele>
        <time>2022-07-09T11:07:45Z</time>
      </trkpt>
      <trkpt lat="46.15561" lon="1.85721">
        <ele>490.2</ele>
        <time>2022-07-09T11:07:48Z</time>
      </trkpt>
      <trkpt lat="46.15561" lon="1.85721">
        <ele>490.2</ele>
        <time>2022-07-09T11:07:49Z</time>
      </trkpt>
      <trkpt lat="46.15562" lon="1.85717">
        <ele>491.2</ele>
        <time>2022-07-09T11:07:59Z</time>
      </trkpt>
      <trkpt lat="46.15567" lon="1.85712">
        <ele>491.4</ele>
        <time>2022-07-09T11:08:02Z</time>
      </trkpt>
      <trkpt lat="46.15573" lon="1.85708">
        <ele>491.4</ele>
        <time>2022-07-09T11:08:04Z</time>
      </trkpt>
      <trkpt lat="46.15581" lon="1.857">
        <ele>491.4</ele>
        <time>2022-07-09T11:08:07Z</time>
      </trkpt>
      <trkpt lat="46.15598" lon="1.85673">
        <ele>491.2</ele>
        <time>2022-07-09T11:08:12Z</time>
      </trkpt>
      <trkpt lat="46.15612" lon="1.85646">
        <ele>490</ele>
        <time>2022-07-09T11:08:16Z</time>
      </trkpt>
      <trkpt lat="46.15617" lon="1.85632">
        <ele>489.2</ele>
        <time>2022-07-09T11:08:18Z</time>
      </trkpt>
      <trkpt lat="46.1562" lon="1.85616">
        <ele>488.6</ele>
        <time>2022-07-09T11:08:20Z</time>
      </trkpt>
      <trkpt lat="46.15621" lon="1.8561">
        <ele>488.4</ele>
        <time>2022-07-09T11:08:21Z</time>
      </trkpt>
      <trkpt lat="46.15621" lon="1.85597">
        <ele>487.8</ele>
        <time>2022-07-09T11:08:23Z</time>
      </trkpt>
      <trkpt lat="46.1562" lon="1.85591">
        <ele>487.6</ele>
        <time>2022-07-09T11:08:24Z</time>
      </trkpt>
      <trkpt lat="46.1562" lon="1.85585">
        <ele>487.4</ele>
        <time>2022-07-09T11:08:25Z</time>
      </trkpt>
      <trkpt lat="46.15617" lon="1.85566">
        <ele>487</ele>
        <time>2022-07-09T11:08:28Z</time>
      </trkpt>
      <trkpt lat="46.15616" lon="1.85542">
        <ele>486.6</ele>
        <time>2022-07-09T11:08:31Z</time>
      </trkpt>
      <trkpt lat="46.15617" lon="1.8553">
        <ele>486.2</ele>
        <time>2022-07-09T11:08:33Z</time>
      </trkpt>
      <trkpt lat="46.15619" lon="1.85525">
        <ele>486.2</ele>
        <time>2022-07-09T11:08:34Z</time>
      </trkpt>
      <trkpt lat="46.1562" lon="1.85516">
        <ele>486</ele>
        <time>2022-07-09T11:08:35Z</time>
      </trkpt>
      <trkpt lat="46.15622" lon="1.85487">
        <ele>485.6</ele>
        <time>2022-07-09T11:08:38Z</time>
      </trkpt>
      <trkpt lat="46.15625" lon="1.85452">
        <ele>485.2</ele>
        <time>2022-07-09T11:08:42Z</time>
      </trkpt>
      <trkpt lat="46.15626" lon="1.85445">
        <ele>485</ele>
        <time>2022-07-09T11:08:43Z</time>
      </trkpt>
      <trkpt lat="46.15629" lon="1.85436">
        <ele>485</ele>
        <time>2022-07-09T11:08:44Z</time>
      </trkpt>
      <trkpt lat="46.15637" lon="1.8542">
        <ele>484.6</ele>
        <time>2022-07-09T11:08:46Z</time>
      </trkpt>
      <trkpt lat="46.15641" lon="1.85414">
        <ele>484.4</ele>
        <time>2022-07-09T11:08:47Z</time>
      </trkpt>
      <trkpt lat="46.15645" lon="1.85409">
        <ele>484.4</ele>
        <time>2022-07-09T11:08:48Z</time>
      </trkpt>
      <trkpt lat="46.1565" lon="1.85399">
        <ele>484.2</ele>
        <time>2022-07-09T11:08:50Z</time>
      </trkpt>
      <trkpt lat="46.15652" lon="1.85392">
        <ele>484.2</ele>
        <time>2022-07-09T11:08:51Z</time>
      </trkpt>
      <trkpt lat="46.15657" lon="1.85384">
        <ele>484</ele>
        <time>2022-07-09T11:08:52Z</time>
      </trkpt>
      <trkpt lat="46.15669" lon="1.85361">
        <ele>483.6</ele>
        <time>2022-07-09T11:08:55Z</time>
      </trkpt>
      <trkpt lat="46.15673" lon="1.85355">
        <ele>483.6</ele>
        <time>2022-07-09T11:08:56Z</time>
      </trkpt>
      <trkpt lat="46.15674" lon="1.85338">
        <ele>483.4</ele>
        <time>2022-07-09T11:08:58Z</time>
      </trkpt>
      <trkpt lat="46.15676" lon="1.85329">
        <ele>483</ele>
        <time>2022-07-09T11:08:59Z</time>
      </trkpt>
      <trkpt lat="46.15682" lon="1.8532">
        <ele>482.8</ele>
        <time>2022-07-09T11:09:00Z</time>
      </trkpt>
      <trkpt lat="46.15686" lon="1.85313">
        <ele>482.6</ele>
        <time>2022-07-09T11:09:01Z</time>
      </trkpt>
      <trkpt lat="46.15689" lon="1.85305">
        <ele>482.2</ele>
        <time>2022-07-09T11:09:02Z</time>
      </trkpt>
      <trkpt lat="46.15692" lon="1.85292">
        <ele>481.6</ele>
        <time>2022-07-09T11:09:04Z</time>
      </trkpt>
      <trkpt lat="46.15693" lon="1.85287">
        <ele>481.6</ele>
        <time>2022-07-09T11:09:05Z</time>
      </trkpt>
      <trkpt lat="46.15692" lon="1.85283">
        <ele>481</ele>
        <time>2022-07-09T11:09:06Z</time>
      </trkpt>
      <trkpt lat="46.1569" lon="1.85276">
        <ele>480.8</ele>
        <time>2022-07-09T11:09:08Z</time>
      </trkpt>
      <trkpt lat="46.15687" lon="1.8527">
        <ele>480.6</ele>
        <time>2022-07-09T11:09:10Z</time>
      </trkpt>
      <trkpt lat="46.15679" lon="1.85258">
        <ele>480.4</ele>
        <time>2022-07-09T11:09:14Z</time>
      </trkpt>
      <trkpt lat="46.15678" lon="1.85249">
        <ele>480.6</ele>
        <time>2022-07-09T11:09:19Z</time>
      </trkpt>
      <trkpt lat="46.15677" lon="1.85246">
        <ele>481</ele>
        <time>2022-07-09T11:09:22Z</time>
      </trkpt>
      <trkpt lat="46.15677" lon="1.85244">
        <ele>481.6</ele>
        <time>2022-07-09T11:09:24Z</time>
      </trkpt>
      <trkpt lat="46.15677" lon="1.85243">
        <ele>481.6</ele>
        <time>2022-07-09T11:09:25Z</time>
      </trkpt>
      <trkpt lat="46.15678" lon="1.85236">
        <ele>482.6</ele>
        <time>2022-07-09T11:09:29Z</time>
      </trkpt>
      <trkpt lat="46.15678" lon="1.85232">
        <ele>482.8</ele>
        <time>2022-07-09T11:09:31Z</time>
      </trkpt>
      <trkpt lat="46.15678" lon="1.85231">
        <ele>483</ele>
        <time>2022-07-09T11:09:32Z</time>
      </trkpt>
      <trkpt lat="46.15679" lon="1.85225">
        <ele>483.4</ele>
        <time>2022-07-09T11:09:35Z</time>
      </trkpt>
      <trkpt lat="46.15679" lon="1.85221">
        <ele>483.8</ele>
        <time>2022-07-09T11:09:37Z</time>
      </trkpt>
      <trkpt lat="46.15679" lon="1.85221">
        <ele>484</ele>
        <time>2022-07-09T11:09:38Z</time>
      </trkpt>
      <trkpt lat="46.15679" lon="1.8522">
        <ele>484.2</ele>
        <time>2022-07-09T11:09:39Z</time>
      </trkpt>
      <trkpt lat="46.1568" lon="1.85217">
        <ele>484.2</ele>
        <time>2022-07-09T11:09:41Z</time>
      </trkpt>
      <trkpt lat="46.15682" lon="1.85214">
        <ele>484.8</ele>
        <time>2022-07-09T11:09:43Z</time>
      </trkpt>
      <trkpt lat="46.15686" lon="1.85211">
        <ele>485.2</ele>
        <time>2022-07-09T11:09:46Z</time>
      </trkpt>
      <trkpt lat="46.15691" lon="1.85204">
        <ele>486.2</ele>
        <time>2022-07-09T11:09:51Z</time>
      </trkpt>
      <trkpt lat="46.15693" lon="1.85199">
        <ele>487</ele>
        <time>2022-07-09T11:09:55Z</time>
      </trkpt>
      <trkpt lat="46.15693" lon="1.85198">
        <ele>487.2</ele>
        <time>2022-07-09T11:09:56Z</time>
      </trkpt>
      <trkpt lat="46.15693" lon="1.85197">
        <ele>487.2</ele>
        <time>2022-07-09T11:09:57Z</time>
      </trkpt>
      <trkpt lat="46.15694" lon="1.85193">
        <ele>487.8</ele>
        <time>2022-07-09T11:10:00Z</time>
      </trkpt>
      <trkpt lat="46.15695" lon="1.85188">
        <ele>488.4</ele>
        <time>2022-07-09T11:10:03Z</time>
      </trkpt>
      <trkpt lat="46.15695" lon="1.85186">
        <ele>488.4</ele>
        <time>2022-07-09T11:10:05Z</time>
      </trkpt>
      <trkpt lat="46.15695" lon="1.85185">
        <ele>488.6</ele>
        <time>2022-07-09T11:10:06Z</time>
      </trkpt>
      <trkpt lat="46.15696" lon="1.85179">
        <ele>489.4</ele>
        <time>2022-07-09T11:10:10Z</time>
      </trkpt>
      <trkpt lat="46.15696" lon="1.85177">
        <ele>489.4</ele>
        <time>2022-07-09T11:10:11Z</time>
      </trkpt>
      <trkpt lat="46.15698" lon="1.85172">
        <ele>490</ele>
        <time>2022-07-09T11:10:14Z</time>
      </trkpt>
      <trkpt lat="46.15699" lon="1.8517">
        <ele>490.4</ele>
        <time>2022-07-09T11:10:16Z</time>
      </trkpt>
      <trkpt lat="46.15699" lon="1.8517">
        <ele>490.4</ele>
        <time>2022-07-09T11:10:17Z</time>
      </trkpt>
      <trkpt lat="46.15704" lon="1.85161">
        <ele>491</ele>
        <time>2022-07-09T11:10:23Z</time>
      </trkpt>
      <trkpt lat="46.15706" lon="1.85156">
        <ele>491.6</ele>
        <time>2022-07-09T11:10:26Z</time>
      </trkpt>
      <trkpt lat="46.15707" lon="1.85153">
        <ele>491.8</ele>
        <time>2022-07-09T11:10:29Z</time>
      </trkpt>
      <trkpt lat="46.15708" lon="1.85151">
        <ele>492</ele>
        <time>2022-07-09T11:10:30Z</time>
      </trkpt>
      <trkpt lat="46.15708" lon="1.85143">
        <ele>492.6</ele>
        <time>2022-07-09T11:10:34Z</time>
      </trkpt>
      <trkpt lat="46.15709" lon="1.85141">
        <ele>492.8</ele>
        <time>2022-07-09T11:10:35Z</time>
      </trkpt>
      <trkpt lat="46.1571" lon="1.85138">
        <ele>492.8</ele>
        <time>2022-07-09T11:10:37Z</time>
      </trkpt>
      <trkpt lat="46.15712" lon="1.85132">
        <ele>493.4</ele>
        <time>2022-07-09T11:10:40Z</time>
      </trkpt>
      <trkpt lat="46.15712" lon="1.85132">
        <ele>493.6</ele>
        <time>2022-07-09T11:10:42Z</time>
      </trkpt>
      <trkpt lat="46.15712" lon="1.85131">
        <ele>493.6</ele>
        <time>2022-07-09T11:10:43Z</time>
      </trkpt>
      <trkpt lat="46.15712" lon="1.85123">
        <ele>494.4</ele>
        <time>2022-07-09T11:10:50Z</time>
      </trkpt>
      <trkpt lat="46.15712" lon="1.85123">
        <ele>494.6</ele>
        <time>2022-07-09T11:10:51Z</time>
      </trkpt>
      <trkpt lat="46.15712" lon="1.85118">
        <ele>494.8</ele>
        <time>2022-07-09T11:10:54Z</time>
      </trkpt>
      <trkpt lat="46.15717" lon="1.85106">
        <ele>495</ele>
        <time>2022-07-09T11:10:58Z</time>
      </trkpt>
      <trkpt lat="46.15718" lon="1.85101">
        <ele>495</ele>
        <time>2022-07-09T11:11:00Z</time>
      </trkpt>
      <trkpt lat="46.15717" lon="1.85093">
        <ele>495.2</ele>
        <time>2022-07-09T11:11:02Z</time>
      </trkpt>
      <trkpt lat="46.15716" lon="1.85085">
        <ele>495.4</ele>
        <time>2022-07-09T11:11:04Z</time>
      </trkpt>
      <trkpt lat="46.15716" lon="1.85081">
        <ele>495.6</ele>
        <time>2022-07-09T11:11:05Z</time>
      </trkpt>
      <trkpt lat="46.15716" lon="1.85075">
        <ele>495.8</ele>
        <time>2022-07-09T11:11:07Z</time>
      </trkpt>
      <trkpt lat="46.15716" lon="1.85072">
        <ele>495.8</ele>
        <time>2022-07-09T11:11:08Z</time>
      </trkpt>
      <trkpt lat="46.15716" lon="1.85069">
        <ele>496</ele>
        <time>2022-07-09T11:11:09Z</time>
      </trkpt>
      <trkpt lat="46.15714" lon="1.85054">
        <ele>496.2</ele>
        <time>2022-07-09T11:11:13Z</time>
      </trkpt>
      <trkpt lat="46.15711" lon="1.8505">
        <ele>497</ele>
        <time>2022-07-09T11:11:18Z</time>
      </trkpt>
      <trkpt lat="46.15711" lon="1.85047">
        <ele>497.4</ele>
        <time>2022-07-09T11:11:23Z</time>
      </trkpt>
      <trkpt lat="46.1571" lon="1.85044">
        <ele>497.4</ele>
        <time>2022-07-09T11:11:27Z</time>
      </trkpt>
      <trkpt lat="46.1571" lon="1.85044">
        <ele>497.4</ele>
        <time>2022-07-09T11:11:28Z</time>
      </trkpt>
      <trkpt lat="46.1571" lon="1.85043">
        <ele>497.6</ele>
        <time>2022-07-09T11:11:31Z</time>
      </trkpt>
      <trkpt lat="46.15708" lon="1.85037">
        <ele>498.2</ele>
        <time>2022-07-09T11:11:37Z</time>
      </trkpt>
      <trkpt lat="46.15707" lon="1.85037">
        <ele>498.6</ele>
        <time>2022-07-09T11:11:39Z</time>
      </trkpt>
      <trkpt lat="46.15705" lon="1.85031">
        <ele>499.4</ele>
        <time>2022-07-09T11:11:45Z</time>
      </trkpt>
      <trkpt lat="46.15703" lon="1.85028">
        <ele>500.2</ele>
        <time>2022-07-09T11:11:52Z</time>
      </trkpt>
      <trkpt lat="46.15703" lon="1.85028">
        <ele>500.2</ele>
        <time>2022-07-09T11:11:53Z</time>
      </trkpt>
      <trkpt lat="46.15703" lon="1.85028">
        <ele>500.4</ele>
        <time>2022-07-09T11:11:54Z</time>
      </trkpt>
      <trkpt lat="46.15698" lon="1.85023">
        <ele>501.2</ele>
        <time>2022-07-09T11:12:00Z</time>
      </trkpt>
      <trkpt lat="46.15695" lon="1.85021">
        <ele>501.4</ele>
        <time>2022-07-09T11:12:02Z</time>
      </trkpt>
      <trkpt lat="46.15692" lon="1.85019">
        <ele>501.4</ele>
        <time>2022-07-09T11:12:03Z</time>
      </trkpt>
      <trkpt lat="46.15684" lon="1.85009">
        <ele>502</ele>
        <time>2022-07-09T11:12:06Z</time>
      </trkpt>
      <trkpt lat="46.15683" lon="1.85006">
        <ele>502.2</ele>
        <time>2022-07-09T11:12:07Z</time>
      </trkpt>
      <trkpt lat="46.1568" lon="1.85001">
        <ele>502.6</ele>
        <time>2022-07-09T11:12:09Z</time>
      </trkpt>
      <trkpt lat="46.1568" lon="1.85001">
        <ele>503</ele>
        <time>2022-07-09T11:12:12Z</time>
      </trkpt>
      <trkpt lat="46.15676" lon="1.84998">
        <ele>503.6</ele>
        <time>2022-07-09T11:12:16Z</time>
      </trkpt>
      <trkpt lat="46.15676" lon="1.84998">
        <ele>503.8</ele>
        <time>2022-07-09T11:12:17Z</time>
      </trkpt>
      <trkpt lat="46.1567" lon="1.84985">
        <ele>504.4</ele>
        <time>2022-07-09T11:12:23Z</time>
      </trkpt>
      <trkpt lat="46.15668" lon="1.8498">
        <ele>504.8</ele>
        <time>2022-07-09T11:12:25Z</time>
      </trkpt>
      <trkpt lat="46.15666" lon="1.84978">
        <ele>504.8</ele>
        <time>2022-07-09T11:12:29Z</time>
      </trkpt>
      <trkpt lat="46.15662" lon="1.84972">
        <ele>505.6</ele>
        <time>2022-07-09T11:12:34Z</time>
      </trkpt>
      <trkpt lat="46.1566" lon="1.84968">
        <ele>505.6</ele>
        <time>2022-07-09T11:12:35Z</time>
      </trkpt>
      <trkpt lat="46.15658" lon="1.84961">
        <ele>506</ele>
        <time>2022-07-09T11:12:39Z</time>
      </trkpt>
      <trkpt lat="46.15656" lon="1.84957">
        <ele>506.6</ele>
        <time>2022-07-09T11:12:44Z</time>
      </trkpt>
      <trkpt lat="46.15654" lon="1.84956">
        <ele>506.8</ele>
        <time>2022-07-09T11:12:45Z</time>
      </trkpt>
      <trkpt lat="46.15644" lon="1.84944">
        <ele>507.2</ele>
        <time>2022-07-09T11:12:49Z</time>
      </trkpt>
      <trkpt lat="46.15643" lon="1.84941">
        <ele>507.8</ele>
        <time>2022-07-09T11:12:52Z</time>
      </trkpt>
      <trkpt lat="46.15641" lon="1.84939">
        <ele>508</ele>
        <time>2022-07-09T11:12:53Z</time>
      </trkpt>
      <trkpt lat="46.1564" lon="1.84937">
        <ele>509</ele>
        <time>2022-07-09T11:12:57Z</time>
      </trkpt>
      <trkpt lat="46.15637" lon="1.84922">
        <ele>509.6</ele>
        <time>2022-07-09T11:13:05Z</time>
      </trkpt>
      <trkpt lat="46.15635" lon="1.84913">
        <ele>510</ele>
        <time>2022-07-09T11:13:09Z</time>
      </trkpt>
      <trkpt lat="46.15633" lon="1.8491">
        <ele>510.8</ele>
        <time>2022-07-09T11:13:12Z</time>
      </trkpt>
      <trkpt lat="46.15633" lon="1.8491">
        <ele>511.2</ele>
        <time>2022-07-09T11:13:15Z</time>
      </trkpt>
      <trkpt lat="46.1563" lon="1.84906">
        <ele>511.6</ele>
        <time>2022-07-09T11:13:18Z</time>
      </trkpt>
      <trkpt lat="46.15628" lon="1.84904">
        <ele>511.8</ele>
        <time>2022-07-09T11:13:19Z</time>
      </trkpt>
      <trkpt lat="46.15626" lon="1.84898">
        <ele>512.2</ele>
        <time>2022-07-09T11:13:21Z</time>
      </trkpt>
      <trkpt lat="46.15624" lon="1.84892">
        <ele>512.4</ele>
        <time>2022-07-09T11:13:23Z</time>
      </trkpt>
      <trkpt lat="46.15623" lon="1.84892">
        <ele>512.6</ele>
        <time>2022-07-09T11:13:24Z</time>
      </trkpt>
      <trkpt lat="46.15617" lon="1.84884">
        <ele>513.4</ele>
        <time>2022-07-09T11:13:29Z</time>
      </trkpt>
      <trkpt lat="46.15616" lon="1.84884">
        <ele>513.6</ele>
        <time>2022-07-09T11:13:30Z</time>
      </trkpt>
      <trkpt lat="46.15614" lon="1.84877">
        <ele>514.6</ele>
        <time>2022-07-09T11:13:34Z</time>
      </trkpt>
      <trkpt lat="46.15612" lon="1.84873">
        <ele>514.8</ele>
        <time>2022-07-09T11:13:36Z</time>
      </trkpt>
      <trkpt lat="46.15608" lon="1.84853">
        <ele>515.6</ele>
        <time>2022-07-09T11:13:42Z</time>
      </trkpt>
      <trkpt lat="46.15608" lon="1.8485">
        <ele>515.8</ele>
        <time>2022-07-09T11:13:43Z</time>
      </trkpt>
      <trkpt lat="46.15606" lon="1.84845">
        <ele>516.2</ele>
        <time>2022-07-09T11:13:46Z</time>
      </trkpt>
      <trkpt lat="46.15605" lon="1.84838">
        <ele>516.8</ele>
        <time>2022-07-09T11:13:49Z</time>
      </trkpt>
      <trkpt lat="46.15601" lon="1.84826">
        <ele>517.8</ele>
        <time>2022-07-09T11:13:58Z</time>
      </trkpt>
      <trkpt lat="46.15599" lon="1.84824">
        <ele>517.8</ele>
        <time>2022-07-09T11:13:59Z</time>
      </trkpt>
      <trkpt lat="46.15594" lon="1.84811">
        <ele>518.6</ele>
        <time>2022-07-09T11:14:04Z</time>
      </trkpt>
      <trkpt lat="46.15594" lon="1.84803">
        <ele>518.8</ele>
        <time>2022-07-09T11:14:08Z</time>
      </trkpt>
      <trkpt lat="46.15593" lon="1.84793">
        <ele>519.8</ele>
        <time>2022-07-09T11:14:12Z</time>
      </trkpt>
      <trkpt lat="46.15593" lon="1.84792">
        <ele>520</ele>
        <time>2022-07-09T11:14:14Z</time>
      </trkpt>
      <trkpt lat="46.15591" lon="1.84785">
        <ele>520.4</ele>
        <time>2022-07-09T11:14:17Z</time>
      </trkpt>
      <trkpt lat="46.15589" lon="1.84777">
        <ele>521</ele>
        <time>2022-07-09T11:14:21Z</time>
      </trkpt>
      <trkpt lat="46.15588" lon="1.84775">
        <ele>521.4</ele>
        <time>2022-07-09T11:14:24Z</time>
      </trkpt>
      <trkpt lat="46.15585" lon="1.84765">
        <ele>522.2</ele>
        <time>2022-07-09T11:14:31Z</time>
      </trkpt>
      <trkpt lat="46.15585" lon="1.84763">
        <ele>522.2</ele>
        <time>2022-07-09T11:14:32Z</time>
      </trkpt>
      <trkpt lat="46.15582" lon="1.84755">
        <ele>522.6</ele>
        <time>2022-07-09T11:14:36Z</time>
      </trkpt>
      <trkpt lat="46.15581" lon="1.84751">
        <ele>523.2</ele>
        <time>2022-07-09T11:14:38Z</time>
      </trkpt>
      <trkpt lat="46.15581" lon="1.8475">
        <ele>523.2</ele>
        <time>2022-07-09T11:14:39Z</time>
      </trkpt>
      <trkpt lat="46.1558" lon="1.84742">
        <ele>523.6</ele>
        <time>2022-07-09T11:14:43Z</time>
      </trkpt>
      <trkpt lat="46.1558" lon="1.8474">
        <ele>523.8</ele>
        <time>2022-07-09T11:14:44Z</time>
      </trkpt>
      <trkpt lat="46.1558" lon="1.84738">
        <ele>523.6</ele>
        <time>2022-07-09T11:14:46Z</time>
      </trkpt>
      <trkpt lat="46.15579" lon="1.84729">
        <ele>524</ele>
        <time>2022-07-09T11:14:50Z</time>
      </trkpt>
      <trkpt lat="46.15578" lon="1.84726">
        <ele>524.2</ele>
        <time>2022-07-09T11:14:51Z</time>
      </trkpt>
      <trkpt lat="46.1558" lon="1.84721">
        <ele>524.8</ele>
        <time>2022-07-09T11:14:56Z</time>
      </trkpt>
      <trkpt lat="46.15579" lon="1.84719">
        <ele>525</ele>
        <time>2022-07-09T11:14:57Z</time>
      </trkpt>
      <trkpt lat="46.15579" lon="1.84719">
        <ele>525</ele>
        <time>2022-07-09T11:14:58Z</time>
      </trkpt>
      <trkpt lat="46.15579" lon="1.84719">
        <ele>525</ele>
        <time>2022-07-09T11:14:59Z</time>
      </trkpt>
      <trkpt lat="46.15579" lon="1.84716">
        <ele>525.8</ele>
        <time>2022-07-09T11:15:08Z</time>
      </trkpt>
      <trkpt lat="46.1558" lon="1.84707">
        <ele>526</ele>
        <time>2022-07-09T11:15:13Z</time>
      </trkpt>
      <trkpt lat="46.15581" lon="1.84703">
        <ele>526</ele>
        <time>2022-07-09T11:15:15Z</time>
      </trkpt>
      <trkpt lat="46.1558" lon="1.847">
        <ele>526</ele>
        <time>2022-07-09T11:15:17Z</time>
      </trkpt>
      <trkpt lat="46.1558" lon="1.84698">
        <ele>526.4</ele>
        <time>2022-07-09T11:15:21Z</time>
      </trkpt>
      <trkpt lat="46.15576" lon="1.84696">
        <ele>526.6</ele>
        <time>2022-07-09T11:15:24Z</time>
      </trkpt>
      <trkpt lat="46.15571" lon="1.84689">
        <ele>526.8</ele>
        <time>2022-07-09T11:15:28Z</time>
      </trkpt>
      <trkpt lat="46.15571" lon="1.84688">
        <ele>526.8</ele>
        <time>2022-07-09T11:15:29Z</time>
      </trkpt>
      <trkpt lat="46.15569" lon="1.84683">
        <ele>526.8</ele>
        <time>2022-07-09T11:15:33Z</time>
      </trkpt>
      <trkpt lat="46.15567" lon="1.84679">
        <ele>526.8</ele>
        <time>2022-07-09T11:15:35Z</time>
      </trkpt>
      <trkpt lat="46.15567" lon="1.84677">
        <ele>526.8</ele>
        <time>2022-07-09T11:15:36Z</time>
      </trkpt>
      <trkpt lat="46.15566" lon="1.84673">
        <ele>527.2</ele>
        <time>2022-07-09T11:15:38Z</time>
      </trkpt>
      <trkpt lat="46.15565" lon="1.84671">
        <ele>527.2</ele>
        <time>2022-07-09T11:15:40Z</time>
      </trkpt>
      <trkpt lat="46.15564" lon="1.8467">
        <ele>527.4</ele>
        <time>2022-07-09T11:15:41Z</time>
      </trkpt>
      <trkpt lat="46.15561" lon="1.84667">
        <ele>527.8</ele>
        <time>2022-07-09T11:15:43Z</time>
      </trkpt>
      <trkpt lat="46.15559" lon="1.84666">
        <ele>528</ele>
        <time>2022-07-09T11:15:44Z</time>
      </trkpt>
      <trkpt lat="46.15557" lon="1.84666">
        <ele>528.2</ele>
        <time>2022-07-09T11:15:45Z</time>
      </trkpt>
      <trkpt lat="46.15549" lon="1.84667">
        <ele>529</ele>
        <time>2022-07-09T11:15:52Z</time>
      </trkpt>
      <trkpt lat="46.15549" lon="1.84667">
        <ele>528.8</ele>
        <time>2022-07-09T11:15:54Z</time>
      </trkpt>
      <trkpt lat="46.15542" lon="1.84665">
        <ele>530</ele>
        <time>2022-07-09T11:16:00Z</time>
      </trkpt>
      <trkpt lat="46.15542" lon="1.84665">
        <ele>530</ele>
        <time>2022-07-09T11:16:01Z</time>
      </trkpt>
      <trkpt lat="46.15542" lon="1.84664">
        <ele>531</ele>
        <time>2022-07-09T11:16:05Z</time>
      </trkpt>
      <trkpt lat="46.15541" lon="1.84664">
        <ele>532.2</ele>
        <time>2022-07-09T11:16:10Z</time>
      </trkpt>
      <trkpt lat="46.15541" lon="1.84664">
        <ele>533.4</ele>
        <time>2022-07-09T11:16:15Z</time>
      </trkpt>
      <trkpt lat="46.15541" lon="1.84664">
        <ele>533.8</ele>
        <time>2022-07-09T11:16:17Z</time>
      </trkpt>
      <trkpt lat="46.15536" lon="1.84662">
        <ele>534.4</ele>
        <time>2022-07-09T11:16:26Z</time>
      </trkpt>
      <trkpt lat="46.15536" lon="1.84662">
        <ele>534.4</ele>
        <time>2022-07-09T11:16:28Z</time>
      </trkpt>
      <trkpt lat="46.15536" lon="1.84662">
        <ele>534.2</ele>
        <time>2022-07-09T11:16:29Z</time>
      </trkpt>
      <trkpt lat="46.15535" lon="1.84661">
        <ele>533.8</ele>
        <time>2022-07-09T11:16:34Z</time>
      </trkpt>
      <trkpt lat="46.15536" lon="1.8466">
        <ele>533.8</ele>
        <time>2022-07-09T11:16:37Z</time>
      </trkpt>
      <trkpt lat="46.15536" lon="1.8466">
        <ele>533.8</ele>
        <time>2022-07-09T11:16:38Z</time>
      </trkpt>
      <trkpt lat="46.15536" lon="1.84661">
        <ele>533.8</ele>
        <time>2022-07-09T11:16:42Z</time>
      </trkpt>
      <trkpt lat="46.15536" lon="1.84657">
        <ele>534.4</ele>
        <time>2022-07-09T11:16:48Z</time>
      </trkpt>
      <trkpt lat="46.15533" lon="1.84649">
        <ele>535.2</ele>
        <time>2022-07-09T11:16:55Z</time>
      </trkpt>
      <trkpt lat="46.15533" lon="1.84649">
        <ele>535.6</ele>
        <time>2022-07-09T11:16:58Z</time>
      </trkpt>
      <trkpt lat="46.15533" lon="1.84647">
        <ele>536.4</ele>
        <time>2022-07-09T11:17:03Z</time>
      </trkpt>
      <trkpt lat="46.15532" lon="1.84646">
        <ele>537.2</ele>
        <time>2022-07-09T11:17:08Z</time>
      </trkpt>
      <trkpt lat="46.15532" lon="1.84647">
        <ele>537.4</ele>
        <time>2022-07-09T11:17:09Z</time>
      </trkpt>
      <trkpt lat="46.15531" lon="1.84646">
        <ele>537.8</ele>
        <time>2022-07-09T11:17:13Z</time>
      </trkpt>
      <trkpt lat="46.15522" lon="1.84621">
        <ele>543</ele>
        <time>2022-07-09T11:17:48Z</time>
      </trkpt>
      <trkpt lat="46.15522" lon="1.84621">
        <ele>543.2</ele>
        <time>2022-07-09T11:17:51Z</time>
      </trkpt>
      <trkpt lat="46.15521" lon="1.84618">
        <ele>543.6</ele>
        <time>2022-07-09T11:17:54Z</time>
      </trkpt>
      <trkpt lat="46.15519" lon="1.84616">
        <ele>543.8</ele>
        <time>2022-07-09T11:17:55Z</time>
      </trkpt>
      <trkpt lat="46.15517" lon="1.84615">
        <ele>544.4</ele>
        <time>2022-07-09T11:18:00Z</time>
      </trkpt>
      <trkpt lat="46.15516" lon="1.84613">
        <ele>544.8</ele>
        <time>2022-07-09T11:18:03Z</time>
      </trkpt>
      <trkpt lat="46.15506" lon="1.84609">
        <ele>545.4</ele>
        <time>2022-07-09T11:18:07Z</time>
      </trkpt>
      <trkpt lat="46.15506" lon="1.84609">
        <ele>546</ele>
        <time>2022-07-09T11:18:11Z</time>
      </trkpt>
      <trkpt lat="46.15506" lon="1.84609">
        <ele>547</ele>
        <time>2022-07-09T11:18:17Z</time>
      </trkpt>
      <trkpt lat="46.15502" lon="1.84603">
        <ele>549.2</ele>
        <time>2022-07-09T11:18:34Z</time>
      </trkpt>
      <trkpt lat="46.15502" lon="1.84603">
        <ele>549.6</ele>
        <time>2022-07-09T11:18:36Z</time>
      </trkpt>
      <trkpt lat="46.15491" lon="1.84581">
        <ele>554.6</ele>
        <time>2022-07-09T11:19:20Z</time>
      </trkpt>
      <trkpt lat="46.15489" lon="1.84574">
        <ele>555</ele>
        <time>2022-07-09T11:19:22Z</time>
      </trkpt>
      <trkpt lat="46.15488" lon="1.84574">
        <ele>556</ele>
        <time>2022-07-09T11:19:28Z</time>
      </trkpt>
      <trkpt lat="46.15488" lon="1.84572">
        <ele>556.4</ele>
        <time>2022-07-09T11:19:30Z</time>
      </trkpt>
      <trkpt lat="46.15487" lon="1.84572">
        <ele>557</ele>
        <time>2022-07-09T11:19:34Z</time>
      </trkpt>
      <trkpt lat="46.15487" lon="1.84572">
        <ele>558.2</ele>
        <time>2022-07-09T11:19:40Z</time>
      </trkpt>
      <trkpt lat="46.15487" lon="1.84572">
        <ele>559</ele>
        <time>2022-07-09T11:19:45Z</time>
      </trkpt>
      <trkpt lat="46.15479" lon="1.84566">
        <ele>558.6</ele>
        <time>2022-07-09T11:19:55Z</time>
      </trkpt>
      <trkpt lat="46.15479" lon="1.84566">
        <ele>558.2</ele>
        <time>2022-07-09T11:19:56Z</time>
      </trkpt>
      <trkpt lat="46.15472" lon="1.84557">
        <ele>558.2</ele>
        <time>2022-07-09T11:20:04Z</time>
      </trkpt>
      <trkpt lat="46.15472" lon="1.84557">
        <ele>558.4</ele>
        <time>2022-07-09T11:20:06Z</time>
      </trkpt>
      <trkpt lat="46.15471" lon="1.84554">
        <ele>560.4</ele>
        <time>2022-07-09T11:20:21Z</time>
      </trkpt>
      <trkpt lat="46.1547" lon="1.84552">
        <ele>560.8</ele>
        <time>2022-07-09T11:20:23Z</time>
      </trkpt>
      <trkpt lat="46.15466" lon="1.84549">
        <ele>561.6</ele>
        <time>2022-07-09T11:20:26Z</time>
      </trkpt>
      <trkpt lat="46.15466" lon="1.84549">
        <ele>562.8</ele>
        <time>2022-07-09T11:20:31Z</time>
      </trkpt>
      <trkpt lat="46.15466" lon="1.84549">
        <ele>563</ele>
        <time>2022-07-09T11:20:34Z</time>
      </trkpt>
      <trkpt lat="46.15466" lon="1.84549">
        <ele>563.8</ele>
        <time>2022-07-09T11:20:38Z</time>
      </trkpt>
      <trkpt lat="46.15463" lon="1.84542">
        <ele>565</ele>
        <time>2022-07-09T11:20:44Z</time>
      </trkpt>
      <trkpt lat="46.15462" lon="1.84539">
        <ele>565.2</ele>
        <time>2022-07-09T11:20:45Z</time>
      </trkpt>
      <trkpt lat="46.1545" lon="1.84524">
        <ele>566.2</ele>
        <time>2022-07-09T11:20:52Z</time>
      </trkpt>
      <trkpt lat="46.15449" lon="1.84516">
        <ele>566.6</ele>
        <time>2022-07-09T11:20:55Z</time>
      </trkpt>
      <trkpt lat="46.15448" lon="1.84508">
        <ele>567.2</ele>
        <time>2022-07-09T11:20:58Z</time>
      </trkpt>
      <trkpt lat="46.15447" lon="1.84502">
        <ele>568.2</ele>
        <time>2022-07-09T11:21:03Z</time>
      </trkpt>
      <trkpt lat="46.15447" lon="1.84502">
        <ele>568.2</ele>
        <time>2022-07-09T11:21:04Z</time>
      </trkpt>
      <trkpt lat="46.15447" lon="1.84502">
        <ele>568.6</ele>
        <time>2022-07-09T11:21:07Z</time>
      </trkpt>
      <trkpt lat="46.15443" lon="1.84489">
        <ele>569.4</ele>
        <time>2022-07-09T11:21:11Z</time>
      </trkpt>
      <trkpt lat="46.1544" lon="1.84484">
        <ele>570</ele>
        <time>2022-07-09T11:21:15Z</time>
      </trkpt>
      <trkpt lat="46.15439" lon="1.84484">
        <ele>570.2</ele>
        <time>2022-07-09T11:21:17Z</time>
      </trkpt>
      <trkpt lat="46.15439" lon="1.84484">
        <ele>570.6</ele>
        <time>2022-07-09T11:21:19Z</time>
      </trkpt>
      <trkpt lat="46.15439" lon="1.84484">
        <ele>571</ele>
        <time>2022-07-09T11:21:22Z</time>
      </trkpt>
      <trkpt lat="46.15435" lon="1.84475">
        <ele>572.2</ele>
        <time>2022-07-09T11:21:31Z</time>
      </trkpt>
      <trkpt lat="46.15432" lon="1.84466">
        <ele>572.8</ele>
        <time>2022-07-09T11:21:36Z</time>
      </trkpt>
      <trkpt lat="46.1543" lon="1.84463">
        <ele>573.2</ele>
        <time>2022-07-09T11:21:39Z</time>
      </trkpt>
      <trkpt lat="46.15425" lon="1.84456">
        <ele>574.2</ele>
        <time>2022-07-09T11:21:46Z</time>
      </trkpt>
      <trkpt lat="46.15425" lon="1.84456">
        <ele>574.4</ele>
        <time>2022-07-09T11:21:47Z</time>
      </trkpt>
      <trkpt lat="46.15423" lon="1.84446">
        <ele>575.2</ele>
        <time>2022-07-09T11:21:51Z</time>
      </trkpt>
      <trkpt lat="46.15423" lon="1.84446">
        <ele>575.6</ele>
        <time>2022-07-09T11:21:54Z</time>
      </trkpt>
      <trkpt lat="46.15421" lon="1.84442">
        <ele>576.2</ele>
        <time>2022-07-09T11:21:57Z</time>
      </trkpt>
      <trkpt lat="46.15413" lon="1.84426">
        <ele>577.2</ele>
        <time>2022-07-09T11:22:04Z</time>
      </trkpt>
      <trkpt lat="46.15413" lon="1.84425">
        <ele>577.4</ele>
        <time>2022-07-09T11:22:05Z</time>
      </trkpt>
      <trkpt lat="46.15412" lon="1.8442">
        <ele>578.4</ele>
        <time>2022-07-09T11:22:12Z</time>
      </trkpt>
      <trkpt lat="46.15411" lon="1.84415">
        <ele>579.4</ele>
        <time>2022-07-09T11:22:19Z</time>
      </trkpt>
      <trkpt lat="46.15411" lon="1.84415">
        <ele>579.4</ele>
        <time>2022-07-09T11:22:20Z</time>
      </trkpt>
      <trkpt lat="46.15406" lon="1.84407">
        <ele>580.2</ele>
        <time>2022-07-09T11:22:27Z</time>
      </trkpt>
      <trkpt lat="46.15401" lon="1.84399">
        <ele>580.4</ele>
        <time>2022-07-09T11:22:30Z</time>
      </trkpt>
      <trkpt lat="46.15399" lon="1.84394">
        <ele>581.2</ele>
        <time>2022-07-09T11:22:36Z</time>
      </trkpt>
      <trkpt lat="46.15397" lon="1.84388">
        <ele>582.2</ele>
        <time>2022-07-09T11:22:42Z</time>
      </trkpt>
      <trkpt lat="46.15391" lon="1.84376">
        <ele>583</ele>
        <time>2022-07-09T11:22:48Z</time>
      </trkpt>
      <trkpt lat="46.15391" lon="1.84376">
        <ele>583.2</ele>
        <time>2022-07-09T11:22:50Z</time>
      </trkpt>
      <trkpt lat="46.15389" lon="1.84375">
        <ele>584.2</ele>
        <time>2022-07-09T11:22:55Z</time>
      </trkpt>
      <trkpt lat="46.15388" lon="1.84372">
        <ele>584.4</ele>
        <time>2022-07-09T11:22:57Z</time>
      </trkpt>
      <trkpt lat="46.15384" lon="1.84361">
        <ele>585.2</ele>
        <time>2022-07-09T11:23:02Z</time>
      </trkpt>
      <trkpt lat="46.15375" lon="1.84355">
        <ele>586</ele>
        <time>2022-07-09T11:23:05Z</time>
      </trkpt>
      <trkpt lat="46.15374" lon="1.84352">
        <ele>586.4</ele>
        <time>2022-07-09T11:23:07Z</time>
      </trkpt>
      <trkpt lat="46.15374" lon="1.84351">
        <ele>586.8</ele>
        <time>2022-07-09T11:23:10Z</time>
      </trkpt>
      <trkpt lat="46.15369" lon="1.84342">
        <ele>587.8</ele>
        <time>2022-07-09T11:23:40Z</time>
      </trkpt>
      <trkpt lat="46.15367" lon="1.84333">
        <ele>589</ele>
        <time>2022-07-09T11:23:46Z</time>
      </trkpt>
      <trkpt lat="46.15367" lon="1.84333">
        <ele>589.2</ele>
        <time>2022-07-09T11:23:48Z</time>
      </trkpt>
      <trkpt lat="46.15365" lon="1.8433">
        <ele>591.2</ele>
        <time>2022-07-09T11:23:57Z</time>
      </trkpt>
      <trkpt lat="46.15365" lon="1.8433">
        <ele>591.4</ele>
        <time>2022-07-09T11:23:59Z</time>
      </trkpt>
      <trkpt lat="46.15363" lon="1.84324">
        <ele>591.8</ele>
        <time>2022-07-09T11:24:03Z</time>
      </trkpt>
      <trkpt lat="46.15362" lon="1.84322">
        <ele>592.2</ele>
        <time>2022-07-09T11:24:07Z</time>
      </trkpt>
      <trkpt lat="46.15362" lon="1.84322">
        <ele>592.4</ele>
        <time>2022-07-09T11:24:10Z</time>
      </trkpt>
      <trkpt lat="46.15361" lon="1.84315">
        <ele>593.2</ele>
        <time>2022-07-09T11:24:18Z</time>
      </trkpt>
      <trkpt lat="46.15361" lon="1.84315">
        <ele>593.4</ele>
        <time>2022-07-09T11:24:19Z</time>
      </trkpt>
      <trkpt lat="46.15358" lon="1.84307">
        <ele>594.4</ele>
        <time>2022-07-09T11:24:24Z</time>
      </trkpt>
      <trkpt lat="46.15357" lon="1.84303">
        <ele>594.8</ele>
        <time>2022-07-09T11:24:26Z</time>
      </trkpt>
      <trkpt lat="46.15356" lon="1.84302">
        <ele>595</ele>
        <time>2022-07-09T11:24:28Z</time>
      </trkpt>
      <trkpt lat="46.15353" lon="1.84299">
        <ele>595.4</ele>
        <time>2022-07-09T11:24:32Z</time>
      </trkpt>
      <trkpt lat="46.15352" lon="1.84299">
        <ele>595.4</ele>
        <time>2022-07-09T11:24:33Z</time>
      </trkpt>
      <trkpt lat="46.15348" lon="1.84285">
        <ele>595.8</ele>
        <time>2022-07-09T11:24:42Z</time>
      </trkpt>
      <trkpt lat="46.15346" lon="1.84279">
        <ele>596.4</ele>
        <time>2022-07-09T11:24:45Z</time>
      </trkpt>
      <trkpt lat="46.15346" lon="1.84279">
        <ele>596.6</ele>
        <time>2022-07-09T11:24:46Z</time>
      </trkpt>
      <trkpt lat="46.15343" lon="1.84271">
        <ele>597.4</ele>
        <time>2022-07-09T11:24:52Z</time>
      </trkpt>
      <trkpt lat="46.15343" lon="1.84268">
        <ele>598.4</ele>
        <time>2022-07-09T11:24:55Z</time>
      </trkpt>
      <trkpt lat="46.15343" lon="1.84266">
        <ele>598.6</ele>
        <time>2022-07-09T11:24:56Z</time>
      </trkpt>
      <trkpt lat="46.1534" lon="1.84256">
        <ele>600</ele>
        <time>2022-07-09T11:25:00Z</time>
      </trkpt>
      <trkpt lat="46.15336" lon="1.8425">
        <ele>601</ele>
        <time>2022-07-09T11:25:04Z</time>
      </trkpt>
      <trkpt lat="46.15336" lon="1.8425">
        <ele>601.2</ele>
        <time>2022-07-09T11:25:05Z</time>
      </trkpt>
      <trkpt lat="46.15335" lon="1.84246">
        <ele>602</ele>
        <time>2022-07-09T11:25:09Z</time>
      </trkpt>
      <trkpt lat="46.15334" lon="1.84244">
        <ele>602.2</ele>
        <time>2022-07-09T11:25:10Z</time>
      </trkpt>
      <trkpt lat="46.15332" lon="1.8424">
        <ele>602.6</ele>
        <time>2022-07-09T11:25:16Z</time>
      </trkpt>
      <trkpt lat="46.15332" lon="1.8424">
        <ele>603.2</ele>
        <time>2022-07-09T11:25:22Z</time>
      </trkpt>
      <trkpt lat="46.1533" lon="1.84233">
        <ele>604.2</ele>
        <time>2022-07-09T11:25:32Z</time>
      </trkpt>
      <trkpt lat="46.1533" lon="1.84232">
        <ele>604.4</ele>
        <time>2022-07-09T11:25:33Z</time>
      </trkpt>
      <trkpt lat="46.15329" lon="1.84231">
        <ele>604.6</ele>
        <time>2022-07-09T11:25:34Z</time>
      </trkpt>
      <trkpt lat="46.15324" lon="1.84216">
        <ele>605.4</ele>
        <time>2022-07-09T11:25:39Z</time>
      </trkpt>
      <trkpt lat="46.15322" lon="1.84211">
        <ele>606.6</ele>
        <time>2022-07-09T11:25:46Z</time>
      </trkpt>
      <trkpt lat="46.15322" lon="1.84209">
        <ele>607.8</ele>
        <time>2022-07-09T11:25:51Z</time>
      </trkpt>
      <trkpt lat="46.15321" lon="1.84208">
        <ele>608.2</ele>
        <time>2022-07-09T11:25:54Z</time>
      </trkpt>
      <trkpt lat="46.15322" lon="1.84208">
        <ele>608.6</ele>
        <time>2022-07-09T11:25:56Z</time>
      </trkpt>
      <trkpt lat="46.15322" lon="1.84208">
        <ele>608.8</ele>
        <time>2022-07-09T11:25:57Z</time>
      </trkpt>
      <trkpt lat="46.15319" lon="1.84201">
        <ele>610</ele>
        <time>2022-07-09T11:26:04Z</time>
      </trkpt>
      <trkpt lat="46.15319" lon="1.84201">
        <ele>610</ele>
        <time>2022-07-09T11:26:05Z</time>
      </trkpt>
      <trkpt lat="46.15317" lon="1.84192">
        <ele>611</ele>
        <time>2022-07-09T11:26:11Z</time>
      </trkpt>
      <trkpt lat="46.15317" lon="1.84189">
        <ele>611.2</ele>
        <time>2022-07-09T11:26:12Z</time>
      </trkpt>
      <trkpt lat="46.15317" lon="1.84187">
        <ele>612.2</ele>
        <time>2022-07-09T11:26:18Z</time>
      </trkpt>
      <trkpt lat="46.15317" lon="1.84187">
        <ele>612.2</ele>
        <time>2022-07-09T11:26:19Z</time>
      </trkpt>
      <trkpt lat="46.15317" lon="1.84187">
        <ele>612.4</ele>
        <time>2022-07-09T11:26:21Z</time>
      </trkpt>
      <trkpt lat="46.15318" lon="1.84187">
        <ele>612.8</ele>
        <time>2022-07-09T11:26:22Z</time>
      </trkpt>
      <trkpt lat="46.15318" lon="1.84187">
        <ele>613.2</ele>
        <time>2022-07-09T11:26:25Z</time>
      </trkpt>
      <trkpt lat="46.15317" lon="1.84185">
        <ele>614.2</ele>
        <time>2022-07-09T11:26:31Z</time>
      </trkpt>
      <trkpt lat="46.15317" lon="1.84183">
        <ele>615.2</ele>
        <time>2022-07-09T11:26:36Z</time>
      </trkpt>
      <trkpt lat="46.15316" lon="1.8417">
        <ele>617.8</ele>
        <time>2022-07-09T11:26:54Z</time>
      </trkpt>
      <trkpt lat="46.15315" lon="1.84166">
        <ele>618.8</ele>
        <time>2022-07-09T11:27:01Z</time>
      </trkpt>
      <trkpt lat="46.15315" lon="1.84166">
        <ele>619.6</ele>
        <time>2022-07-09T11:27:07Z</time>
      </trkpt>
      <trkpt lat="46.15312" lon="1.84147">
        <ele>621.8</ele>
        <time>2022-07-09T11:27:29Z</time>
      </trkpt>
      <trkpt lat="46.15312" lon="1.84143">
        <ele>621.8</ele>
        <time>2022-07-09T11:27:32Z</time>
      </trkpt>
      <trkpt lat="46.15312" lon="1.8414">
        <ele>621.8</ele>
        <time>2022-07-09T11:27:37Z</time>
      </trkpt>
      <trkpt lat="46.15311" lon="1.84135">
        <ele>622.4</ele>
        <time>2022-07-09T11:27:40Z</time>
      </trkpt>
      <trkpt lat="46.15311" lon="1.84135">
        <ele>622.6</ele>
        <time>2022-07-09T11:27:41Z</time>
      </trkpt>
      <trkpt lat="46.15311" lon="1.84131">
        <ele>623</ele>
        <time>2022-07-09T11:27:44Z</time>
      </trkpt>
      <trkpt lat="46.15308" lon="1.84121">
        <ele>623.6</ele>
        <time>2022-07-09T11:27:49Z</time>
      </trkpt>
      <trkpt lat="46.15308" lon="1.84117">
        <ele>624</ele>
        <time>2022-07-09T11:27:51Z</time>
      </trkpt>
      <trkpt lat="46.15308" lon="1.84117">
        <ele>624.4</ele>
        <time>2022-07-09T11:27:53Z</time>
      </trkpt>
      <trkpt lat="46.15309" lon="1.8411">
        <ele>626</ele>
        <time>2022-07-09T11:28:04Z</time>
      </trkpt>
      <trkpt lat="46.1531" lon="1.84104">
        <ele>627</ele>
        <time>2022-07-09T11:28:12Z</time>
      </trkpt>
      <trkpt lat="46.1531" lon="1.84101">
        <ele>627.2</ele>
        <time>2022-07-09T11:28:13Z</time>
      </trkpt>
      <trkpt lat="46.15311" lon="1.84089">
        <ele>627.8</ele>
        <time>2022-07-09T11:28:18Z</time>
      </trkpt>
      <trkpt lat="46.1531" lon="1.84079">
        <ele>628.2</ele>
        <time>2022-07-09T11:28:23Z</time>
      </trkpt>
      <trkpt lat="46.15309" lon="1.84077">
        <ele>628.4</ele>
        <time>2022-07-09T11:28:24Z</time>
      </trkpt>
      <trkpt lat="46.15305" lon="1.84069">
        <ele>628.6</ele>
        <time>2022-07-09T11:28:28Z</time>
      </trkpt>
      <trkpt lat="46.15304" lon="1.84067">
        <ele>628.6</ele>
        <time>2022-07-09T11:28:29Z</time>
      </trkpt>
      <trkpt lat="46.15298" lon="1.84058">
        <ele>629</ele>
        <time>2022-07-09T11:28:34Z</time>
      </trkpt>
      <trkpt lat="46.15295" lon="1.84053">
        <ele>629.4</ele>
        <time>2022-07-09T11:28:39Z</time>
      </trkpt>
      <trkpt lat="46.15295" lon="1.84053">
        <ele>629.4</ele>
        <time>2022-07-09T11:28:40Z</time>
      </trkpt>
      <trkpt lat="46.15295" lon="1.8405">
        <ele>629.8</ele>
        <time>2022-07-09T11:29:55Z</time>
      </trkpt>
      <trkpt lat="46.15295" lon="1.8405">
        <ele>629.8</ele>
        <time>2022-07-09T11:29:57Z</time>
      </trkpt>
      <trkpt lat="46.15294" lon="1.84045">
        <ele>629.6</ele>
        <time>2022-07-09T11:30:04Z</time>
      </trkpt>
      <trkpt lat="46.15294" lon="1.84043">
        <ele>629.6</ele>
        <time>2022-07-09T11:30:05Z</time>
      </trkpt>
      <trkpt lat="46.15294" lon="1.84039">
        <ele>629.6</ele>
        <time>2022-07-09T11:30:07Z</time>
      </trkpt>
      <trkpt lat="46.15293" lon="1.8403">
        <ele>629.8</ele>
        <time>2022-07-09T11:30:11Z</time>
      </trkpt>
      <trkpt lat="46.15291" lon="1.84023">
        <ele>630.2</ele>
        <time>2022-07-09T11:30:17Z</time>
      </trkpt>
      <trkpt lat="46.1529" lon="1.84022">
        <ele>630.2</ele>
        <time>2022-07-09T11:30:18Z</time>
      </trkpt>
      <trkpt lat="46.15284" lon="1.84011">
        <ele>630.2</ele>
        <time>2022-07-09T11:30:23Z</time>
      </trkpt>
      <trkpt lat="46.15283" lon="1.84006">
        <ele>630.2</ele>
        <time>2022-07-09T11:30:24Z</time>
      </trkpt>
      <trkpt lat="46.15278" lon="1.83992">
        <ele>630</ele>
        <time>2022-07-09T11:30:27Z</time>
      </trkpt>
      <trkpt lat="46.1527" lon="1.83974">
        <ele>630</ele>
        <time>2022-07-09T11:30:34Z</time>
      </trkpt>
      <trkpt lat="46.15269" lon="1.83971">
        <ele>630</ele>
        <time>2022-07-09T11:30:35Z</time>
      </trkpt>
      <trkpt lat="46.15256" lon="1.83956">
        <ele>630.2</ele>
        <time>2022-07-09T11:30:40Z</time>
      </trkpt>
      <trkpt lat="46.15255" lon="1.8395">
        <ele>630.4</ele>
        <time>2022-07-09T11:30:42Z</time>
      </trkpt>
      <trkpt lat="46.15243" lon="1.83937">
        <ele>630.6</ele>
        <time>2022-07-09T11:30:45Z</time>
      </trkpt>
      <trkpt lat="46.15238" lon="1.83929">
        <ele>630.6</ele>
        <time>2022-07-09T11:30:47Z</time>
      </trkpt>
      <trkpt lat="46.15234" lon="1.83919">
        <ele>630.8</ele>
        <time>2022-07-09T11:30:50Z</time>
      </trkpt>
      <trkpt lat="46.15234" lon="1.83917">
        <ele>630.8</ele>
        <time>2022-07-09T11:30:51Z</time>
      </trkpt>
      <trkpt lat="46.15234" lon="1.83914">
        <ele>630.6</ele>
        <time>2022-07-09T11:30:52Z</time>
      </trkpt>
      <trkpt lat="46.15232" lon="1.83912">
        <ele>630.6</ele>
        <time>2022-07-09T11:30:53Z</time>
      </trkpt>
      <trkpt lat="46.15231" lon="1.83909">
        <ele>630.6</ele>
        <time>2022-07-09T11:30:54Z</time>
      </trkpt>
      <trkpt lat="46.15221" lon="1.83883">
        <ele>631.2</ele>
        <time>2022-07-09T11:31:02Z</time>
      </trkpt>
      <trkpt lat="46.15212" lon="1.83854">
        <ele>631.6</ele>
        <time>2022-07-09T11:31:09Z</time>
      </trkpt>
      <trkpt lat="46.15209" lon="1.83848">
        <ele>631.6</ele>
        <time>2022-07-09T11:31:10Z</time>
      </trkpt>
      <trkpt lat="46.152" lon="1.83829">
        <ele>631.8</ele>
        <time>2022-07-09T11:31:15Z</time>
      </trkpt>
      <trkpt lat="46.15202" lon="1.83827">
        <ele>631.8</ele>
        <time>2022-07-09T11:31:16Z</time>
      </trkpt>
      <trkpt lat="46.15199" lon="1.83817">
        <ele>632</ele>
        <time>2022-07-09T11:31:18Z</time>
      </trkpt>
      <trkpt lat="46.15197" lon="1.83808">
        <ele>632</ele>
        <time>2022-07-09T11:31:20Z</time>
      </trkpt>
      <trkpt lat="46.15191" lon="1.8379">
        <ele>632.2</ele>
        <time>2022-07-09T11:31:25Z</time>
      </trkpt>
      <trkpt lat="46.15191" lon="1.83786">
        <ele>632.2</ele>
        <time>2022-07-09T11:31:27Z</time>
      </trkpt>
      <trkpt lat="46.15189" lon="1.83779">
        <ele>632.4</ele>
        <time>2022-07-09T11:31:30Z</time>
      </trkpt>
      <trkpt lat="46.15189" lon="1.83778">
        <ele>632.8</ele>
        <time>2022-07-09T11:31:32Z</time>
      </trkpt>
      <trkpt lat="46.15189" lon="1.83778">
        <ele>632.8</ele>
        <time>2022-07-09T11:31:33Z</time>
      </trkpt>
      <trkpt lat="46.15188" lon="1.83776">
        <ele>632.8</ele>
        <time>2022-07-09T11:32:36Z</time>
      </trkpt>
      <trkpt lat="46.15188" lon="1.83774">
        <ele>632.8</ele>
        <time>2022-07-09T11:32:37Z</time>
      </trkpt>
      <trkpt lat="46.15175" lon="1.83768">
        <ele>632.6</ele>
        <time>2022-07-09T11:32:41Z</time>
      </trkpt>
      <trkpt lat="46.15156" lon="1.83763">
        <ele>632.8</ele>
        <time>2022-07-09T11:32:48Z</time>
      </trkpt>
      <trkpt lat="46.15136" lon="1.83759">
        <ele>633.4</ele>
        <time>2022-07-09T11:32:55Z</time>
      </trkpt>
      <trkpt lat="46.15134" lon="1.83759">
        <ele>633.6</ele>
        <time>2022-07-09T11:32:56Z</time>
      </trkpt>
      <trkpt lat="46.15132" lon="1.83758">
        <ele>633.6</ele>
        <time>2022-07-09T11:32:57Z</time>
      </trkpt>
      <trkpt lat="46.15124" lon="1.83756">
        <ele>633.6</ele>
        <time>2022-07-09T11:33:00Z</time>
      </trkpt>
      <trkpt lat="46.151" lon="1.83749">
        <ele>633.8</ele>
        <time>2022-07-09T11:33:08Z</time>
      </trkpt>
      <trkpt lat="46.15073" lon="1.83743">
        <ele>634.2</ele>
        <time>2022-07-09T11:33:16Z</time>
      </trkpt>
      <trkpt lat="46.15054" lon="1.8374">
        <ele>634.6</ele>
        <time>2022-07-09T11:33:21Z</time>
      </trkpt>
      <trkpt lat="46.15047" lon="1.8374">
        <ele>634.8</ele>
        <time>2022-07-09T11:33:23Z</time>
      </trkpt>
      <trkpt lat="46.15029" lon="1.83736">
        <ele>635.6</ele>
        <time>2022-07-09T11:33:29Z</time>
      </trkpt>
      <trkpt lat="46.15024" lon="1.83734">
        <ele>635.6</ele>
        <time>2022-07-09T11:33:30Z</time>
      </trkpt>
      <trkpt lat="46.15008" lon="1.83734">
        <ele>636</ele>
        <time>2022-07-09T11:33:37Z</time>
      </trkpt>
      <trkpt lat="46.14985" lon="1.83731">
        <ele>636.6</ele>
        <time>2022-07-09T11:33:46Z</time>
      </trkpt>
      <trkpt lat="46.1498" lon="1.8373">
        <ele>636.6</ele>
        <time>2022-07-09T11:33:48Z</time>
      </trkpt>
      <trkpt lat="46.14977" lon="1.83729">
        <ele>636.6</ele>
        <time>2022-07-09T11:33:49Z</time>
      </trkpt>
      <trkpt lat="46.14967" lon="1.83727">
        <ele>636.6</ele>
        <time>2022-07-09T11:33:52Z</time>
      </trkpt>
      <trkpt lat="46.1495" lon="1.83725">
        <ele>637.4</ele>
        <time>2022-07-09T11:33:57Z</time>
      </trkpt>
      <trkpt lat="46.14944" lon="1.83725">
        <ele>637.6</ele>
        <time>2022-07-09T11:33:59Z</time>
      </trkpt>
      <trkpt lat="46.1494" lon="1.83724">
        <ele>637.8</ele>
        <time>2022-07-09T11:34:00Z</time>
      </trkpt>
      <trkpt lat="46.14913" lon="1.83722">
        <ele>638.4</ele>
        <time>2022-07-09T11:34:07Z</time>
      </trkpt>
      <trkpt lat="46.14893" lon="1.83718">
        <ele>638.8</ele>
        <time>2022-07-09T11:34:12Z</time>
      </trkpt>
      <trkpt lat="46.14866" lon="1.83714">
        <ele>639.2</ele>
        <time>2022-07-09T11:34:18Z</time>
      </trkpt>
      <trkpt lat="46.14844" lon="1.83711">
        <ele>639.6</ele>
        <time>2022-07-09T11:34:25Z</time>
      </trkpt>
      <trkpt lat="46.14838" lon="1.83713">
        <ele>639.6</ele>
        <time>2022-07-09T11:34:26Z</time>
      </trkpt>
      <trkpt lat="46.14816" lon="1.8372">
        <ele>640.4</ele>
        <time>2022-07-09T11:34:32Z</time>
      </trkpt>
      <trkpt lat="46.14813" lon="1.83723">
        <ele>640.4</ele>
        <time>2022-07-09T11:34:33Z</time>
      </trkpt>
      <trkpt lat="46.14795" lon="1.83739">
        <ele>640.8</ele>
        <time>2022-07-09T11:34:39Z</time>
      </trkpt>
      <trkpt lat="46.14772" lon="1.83756">
        <ele>641.8</ele>
        <time>2022-07-09T11:34:46Z</time>
      </trkpt>
      <trkpt lat="46.14766" lon="1.83758">
        <ele>642</ele>
        <time>2022-07-09T11:34:48Z</time>
      </trkpt>
      <trkpt lat="46.14746" lon="1.83757">
        <ele>642.4</ele>
        <time>2022-07-09T11:34:54Z</time>
      </trkpt>
      <trkpt lat="46.14718" lon="1.8375">
        <ele>642.8</ele>
        <time>2022-07-09T11:35:02Z</time>
      </trkpt>
      <trkpt lat="46.14688" lon="1.83741">
        <ele>642.4</ele>
        <time>2022-07-09T11:35:09Z</time>
      </trkpt>
      <trkpt lat="46.14672" lon="1.8374">
        <ele>642</ele>
        <time>2022-07-09T11:35:12Z</time>
      </trkpt>
      <trkpt lat="46.14661" lon="1.83741">
        <ele>641.8</ele>
        <time>2022-07-09T11:35:14Z</time>
      </trkpt>
      <trkpt lat="46.14648" lon="1.83746">
        <ele>641.4</ele>
        <time>2022-07-09T11:35:16Z</time>
      </trkpt>
      <trkpt lat="46.14636" lon="1.83753">
        <ele>641</ele>
        <time>2022-07-09T11:35:18Z</time>
      </trkpt>
      <trkpt lat="46.14629" lon="1.83757">
        <ele>640.6</ele>
        <time>2022-07-09T11:35:19Z</time>
      </trkpt>
      <trkpt lat="46.14602" lon="1.83768">
        <ele>639.6</ele>
        <time>2022-07-09T11:35:23Z</time>
      </trkpt>
      <trkpt lat="46.14588" lon="1.83767">
        <ele>639.2</ele>
        <time>2022-07-09T11:35:25Z</time>
      </trkpt>
      <trkpt lat="46.14581" lon="1.83766">
        <ele>639.2</ele>
        <time>2022-07-09T11:35:26Z</time>
      </trkpt>
      <trkpt lat="46.14574" lon="1.83765">
        <ele>638.8</ele>
        <time>2022-07-09T11:35:27Z</time>
      </trkpt>
      <trkpt lat="46.14549" lon="1.83759">
        <ele>638</ele>
        <time>2022-07-09T11:35:30Z</time>
      </trkpt>
      <trkpt lat="46.14529" lon="1.83754">
        <ele>637.4</ele>
        <time>2022-07-09T11:35:32Z</time>
      </trkpt>
      <trkpt lat="46.14509" lon="1.83748">
        <ele>636.8</ele>
        <time>2022-07-09T11:35:34Z</time>
      </trkpt>
      <trkpt lat="46.14487" lon="1.83746">
        <ele>636.2</ele>
        <time>2022-07-09T11:35:36Z</time>
      </trkpt>
      <trkpt lat="46.14466" lon="1.83747">
        <ele>635</ele>
        <time>2022-07-09T11:35:38Z</time>
      </trkpt>
      <trkpt lat="46.14447" lon="1.8375">
        <ele>633.6</ele>
        <time>2022-07-09T11:35:40Z</time>
      </trkpt>
      <trkpt lat="46.14438" lon="1.83752">
        <ele>632.6</ele>
        <time>2022-07-09T11:35:41Z</time>
      </trkpt>
      <trkpt lat="46.14422" lon="1.83755">
        <ele>630.8</ele>
        <time>2022-07-09T11:35:43Z</time>
      </trkpt>
      <trkpt lat="46.14411" lon="1.83759">
        <ele>628.6</ele>
        <time>2022-07-09T11:35:45Z</time>
      </trkpt>
      <trkpt lat="46.14406" lon="1.83761">
        <ele>627.6</ele>
        <time>2022-07-09T11:35:46Z</time>
      </trkpt>
      <trkpt lat="46.14403" lon="1.83762">
        <ele>627</ele>
        <time>2022-07-09T11:35:47Z</time>
      </trkpt>
      <trkpt lat="46.144" lon="1.83764">
        <ele>626.2</ele>
        <time>2022-07-09T11:35:48Z</time>
      </trkpt>
      <trkpt lat="46.14397" lon="1.83766">
        <ele>625.8</ele>
        <time>2022-07-09T11:35:49Z</time>
      </trkpt>
      <trkpt lat="46.14392" lon="1.83767">
        <ele>625</ele>
        <time>2022-07-09T11:35:51Z</time>
      </trkpt>
      <trkpt lat="46.1439" lon="1.83766">
        <ele>624</ele>
        <time>2022-07-09T11:35:53Z</time>
      </trkpt>
      <trkpt lat="46.1439" lon="1.83767">
        <ele>623</ele>
        <time>2022-07-09T11:35:57Z</time>
      </trkpt>
      <trkpt lat="46.1439" lon="1.83767">
        <ele>622.8</ele>
        <time>2022-07-09T11:35:58Z</time>
      </trkpt>
      <trkpt lat="46.14388" lon="1.83768">
        <ele>622.6</ele>
        <time>2022-07-09T11:36:16Z</time>
      </trkpt>
      <trkpt lat="46.14384" lon="1.8378">
        <ele>622.4</ele>
        <time>2022-07-09T11:36:20Z</time>
      </trkpt>
      <trkpt lat="46.14375" lon="1.83791">
        <ele>622</ele>
        <time>2022-07-09T11:36:23Z</time>
      </trkpt>
      <trkpt lat="46.14372" lon="1.83795">
        <ele>621.8</ele>
        <time>2022-07-09T11:36:24Z</time>
      </trkpt>
      <trkpt lat="46.14368" lon="1.838">
        <ele>621.8</ele>
        <time>2022-07-09T11:36:25Z</time>
      </trkpt>
      <trkpt lat="46.14365" lon="1.83806">
        <ele>621.6</ele>
        <time>2022-07-09T11:36:26Z</time>
      </trkpt>
      <trkpt lat="46.14348" lon="1.83832">
        <ele>621</ele>
        <time>2022-07-09T11:36:30Z</time>
      </trkpt>
      <trkpt lat="46.14342" lon="1.83839">
        <ele>620.6</ele>
        <time>2022-07-09T11:36:31Z</time>
      </trkpt>
      <trkpt lat="46.1432" lon="1.8387">
        <ele>619.6</ele>
        <time>2022-07-09T11:36:35Z</time>
      </trkpt>
      <trkpt lat="46.14314" lon="1.83877">
        <ele>619.2</ele>
        <time>2022-07-09T11:36:36Z</time>
      </trkpt>
      <trkpt lat="46.14296" lon="1.83902">
        <ele>618.4</ele>
        <time>2022-07-09T11:36:39Z</time>
      </trkpt>
      <trkpt lat="46.1429" lon="1.83912">
        <ele>618</ele>
        <time>2022-07-09T11:36:40Z</time>
      </trkpt>
      <trkpt lat="46.14277" lon="1.83935">
        <ele>616.6</ele>
        <time>2022-07-09T11:36:43Z</time>
      </trkpt>
      <trkpt lat="46.14274" lon="1.8394">
        <ele>616.4</ele>
        <time>2022-07-09T11:36:44Z</time>
      </trkpt>
      <trkpt lat="46.1426" lon="1.83963">
        <ele>615.8</ele>
        <time>2022-07-09T11:36:49Z</time>
      </trkpt>
      <trkpt lat="46.14252" lon="1.83973">
        <ele>615.8</ele>
        <time>2022-07-09T11:36:52Z</time>
      </trkpt>
      <trkpt lat="46.14241" lon="1.83986">
        <ele>616.4</ele>
        <time>2022-07-09T11:36:56Z</time>
      </trkpt>
      <trkpt lat="46.14217" lon="1.84004">
        <ele>616.6</ele>
        <time>2022-07-09T11:37:02Z</time>
      </trkpt>
      <trkpt lat="46.14207" lon="1.84005">
        <ele>616.6</ele>
        <time>2022-07-09T11:37:04Z</time>
      </trkpt>
      <trkpt lat="46.14202" lon="1.84003">
        <ele>616.4</ele>
        <time>2022-07-09T11:37:05Z</time>
      </trkpt>
      <trkpt lat="46.14198" lon="1.83999">
        <ele>616.4</ele>
        <time>2022-07-09T11:37:06Z</time>
      </trkpt>
      <trkpt lat="46.14184" lon="1.83983">
        <ele>615.6</ele>
        <time>2022-07-09T11:37:09Z</time>
      </trkpt>
      <trkpt lat="46.14179" lon="1.83978">
        <ele>615.4</ele>
        <time>2022-07-09T11:37:10Z</time>
      </trkpt>
      <trkpt lat="46.14174" lon="1.83972">
        <ele>615.4</ele>
        <time>2022-07-09T11:37:11Z</time>
      </trkpt>
      <trkpt lat="46.14164" lon="1.83957">
        <ele>614.8</ele>
        <time>2022-07-09T11:37:13Z</time>
      </trkpt>
      <trkpt lat="46.14154" lon="1.83938">
        <ele>614</ele>
        <time>2022-07-09T11:37:15Z</time>
      </trkpt>
      <trkpt lat="46.14146" lon="1.83916">
        <ele>613.2</ele>
        <time>2022-07-09T11:37:17Z</time>
      </trkpt>
      <trkpt lat="46.14143" lon="1.83905">
        <ele>612.8</ele>
        <time>2022-07-09T11:37:18Z</time>
      </trkpt>
      <trkpt lat="46.1414" lon="1.83893">
        <ele>612</ele>
        <time>2022-07-09T11:37:19Z</time>
      </trkpt>
      <trkpt lat="46.14138" lon="1.83882">
        <ele>611.6</ele>
        <time>2022-07-09T11:37:20Z</time>
      </trkpt>
      <trkpt lat="46.14136" lon="1.83872">
        <ele>610.4</ele>
        <time>2022-07-09T11:37:21Z</time>
      </trkpt>
      <trkpt lat="46.14131" lon="1.83864">
        <ele>609.8</ele>
        <time>2022-07-09T11:37:22Z</time>
      </trkpt>
      <trkpt lat="46.14123" lon="1.83858">
        <ele>608.2</ele>
        <time>2022-07-09T11:37:23Z</time>
      </trkpt>
      <trkpt lat="46.14113" lon="1.83853">
        <ele>606</ele>
        <time>2022-07-09T11:37:24Z</time>
      </trkpt>
      <trkpt lat="46.14093" lon="1.83848">
        <ele>603.4</ele>
        <time>2022-07-09T11:37:26Z</time>
      </trkpt>
      <trkpt lat="46.14083" lon="1.83845">
        <ele>602.6</ele>
        <time>2022-07-09T11:37:27Z</time>
      </trkpt>
      <trkpt lat="46.14074" lon="1.8384">
        <ele>601</ele>
        <time>2022-07-09T11:37:28Z</time>
      </trkpt>
      <trkpt lat="46.14066" lon="1.83834">
        <ele>600.6</ele>
        <time>2022-07-09T11:37:29Z</time>
      </trkpt>
      <trkpt lat="46.14061" lon="1.83826">
        <ele>599.8</ele>
        <time>2022-07-09T11:37:30Z</time>
      </trkpt>
      <trkpt lat="46.14057" lon="1.83818">
        <ele>599.4</ele>
        <time>2022-07-09T11:37:31Z</time>
      </trkpt>
      <trkpt lat="46.14054" lon="1.83811">
        <ele>599.2</ele>
        <time>2022-07-09T11:37:32Z</time>
      </trkpt>
      <trkpt lat="46.1404" lon="1.83783">
        <ele>599.2</ele>
        <time>2022-07-09T11:37:37Z</time>
      </trkpt>
      <trkpt lat="46.14035" lon="1.83775">
        <ele>599.6</ele>
        <time>2022-07-09T11:37:39Z</time>
      </trkpt>
      <trkpt lat="46.14026" lon="1.83767">
        <ele>600.8</ele>
        <time>2022-07-09T11:37:42Z</time>
      </trkpt>
      <trkpt lat="46.14022" lon="1.83765">
        <ele>601.2</ele>
        <time>2022-07-09T11:37:43Z</time>
      </trkpt>
      <trkpt lat="46.14008" lon="1.83762">
        <ele>602</ele>
        <time>2022-07-09T11:37:47Z</time>
      </trkpt>
      <trkpt lat="46.14001" lon="1.83762">
        <ele>602.2</ele>
        <time>2022-07-09T11:37:49Z</time>
      </trkpt>
      <trkpt lat="46.13984" lon="1.83766">
        <ele>602.2</ele>
        <time>2022-07-09T11:37:54Z</time>
      </trkpt>
      <trkpt lat="46.1396" lon="1.8378">
        <ele>600.6</ele>
        <time>2022-07-09T11:38:00Z</time>
      </trkpt>
      <trkpt lat="46.13932" lon="1.83798">
        <ele>599.4</ele>
        <time>2022-07-09T11:38:05Z</time>
      </trkpt>
      <trkpt lat="46.13918" lon="1.83799">
        <ele>598.6</ele>
        <time>2022-07-09T11:38:07Z</time>
      </trkpt>
      <trkpt lat="46.13912" lon="1.83796">
        <ele>598.4</ele>
        <time>2022-07-09T11:38:08Z</time>
      </trkpt>
      <trkpt lat="46.13906" lon="1.83789">
        <ele>598</ele>
        <time>2022-07-09T11:38:09Z</time>
      </trkpt>
      <trkpt lat="46.13901" lon="1.8378">
        <ele>597.8</ele>
        <time>2022-07-09T11:38:10Z</time>
      </trkpt>
      <trkpt lat="46.13891" lon="1.83757">
        <ele>596.8</ele>
        <time>2022-07-09T11:38:12Z</time>
      </trkpt>
      <trkpt lat="46.13885" lon="1.83745">
        <ele>596.2</ele>
        <time>2022-07-09T11:38:13Z</time>
      </trkpt>
      <trkpt lat="46.13879" lon="1.83732">
        <ele>595.2</ele>
        <time>2022-07-09T11:38:14Z</time>
      </trkpt>
      <trkpt lat="46.13872" lon="1.8372">
        <ele>594.8</ele>
        <time>2022-07-09T11:38:15Z</time>
      </trkpt>
      <trkpt lat="46.13864" lon="1.83709">
        <ele>594</ele>
        <time>2022-07-09T11:38:16Z</time>
      </trkpt>
      <trkpt lat="46.13857" lon="1.83697">
        <ele>593.4</ele>
        <time>2022-07-09T11:38:17Z</time>
      </trkpt>
      <trkpt lat="46.13849" lon="1.83687">
        <ele>592</ele>
        <time>2022-07-09T11:38:18Z</time>
      </trkpt>
      <trkpt lat="46.13833" lon="1.83666">
        <ele>590.2</ele>
        <time>2022-07-09T11:38:20Z</time>
      </trkpt>
      <trkpt lat="46.13824" lon="1.83656">
        <ele>589.2</ele>
        <time>2022-07-09T11:38:21Z</time>
      </trkpt>
      <trkpt lat="46.13816" lon="1.83646">
        <ele>588.8</ele>
        <time>2022-07-09T11:38:22Z</time>
      </trkpt>
      <trkpt lat="46.13808" lon="1.83636">
        <ele>588</ele>
        <time>2022-07-09T11:38:23Z</time>
      </trkpt>
      <trkpt lat="46.13779" lon="1.83597">
        <ele>586.6</ele>
        <time>2022-07-09T11:38:27Z</time>
      </trkpt>
      <trkpt lat="46.13772" lon="1.83587">
        <ele>586.2</ele>
        <time>2022-07-09T11:38:28Z</time>
      </trkpt>
      <trkpt lat="46.1376" lon="1.83565">
        <ele>585.2</ele>
        <time>2022-07-09T11:38:30Z</time>
      </trkpt>
      <trkpt lat="46.1375" lon="1.83544">
        <ele>584</ele>
        <time>2022-07-09T11:38:32Z</time>
      </trkpt>
      <trkpt lat="46.13746" lon="1.83535">
        <ele>583.8</ele>
        <time>2022-07-09T11:38:33Z</time>
      </trkpt>
      <trkpt lat="46.13742" lon="1.83526">
        <ele>583</ele>
        <time>2022-07-09T11:38:34Z</time>
      </trkpt>
      <trkpt lat="46.13735" lon="1.83514">
        <ele>581.2</ele>
        <time>2022-07-09T11:38:36Z</time>
      </trkpt>
      <trkpt lat="46.13731" lon="1.8351">
        <ele>580</ele>
        <time>2022-07-09T11:38:37Z</time>
      </trkpt>
      <trkpt lat="46.13725" lon="1.83503">
        <ele>578.6</ele>
        <time>2022-07-09T11:38:39Z</time>
      </trkpt>
      <trkpt lat="46.13723" lon="1.83501">
        <ele>578</ele>
        <time>2022-07-09T11:38:40Z</time>
      </trkpt>
      <trkpt lat="46.13722" lon="1.835">
        <ele>576.8</ele>
        <time>2022-07-09T11:38:41Z</time>
      </trkpt>
      <trkpt lat="46.13722" lon="1.835">
        <ele>575.8</ele>
        <time>2022-07-09T11:38:43Z</time>
      </trkpt>
      <trkpt lat="46.13722" lon="1.83499">
        <ele>575.2</ele>
        <time>2022-07-09T11:38:44Z</time>
      </trkpt>
      <trkpt lat="46.13722" lon="1.83499">
        <ele>574.4</ele>
        <time>2022-07-09T11:38:46Z</time>
      </trkpt>
      <trkpt lat="46.13722" lon="1.83499">
        <ele>574.2</ele>
        <time>2022-07-09T11:38:48Z</time>
      </trkpt>
      <trkpt lat="46.13722" lon="1.83499">
        <ele>574</ele>
        <time>2022-07-09T11:38:49Z</time>
      </trkpt>
      <trkpt lat="46.13724" lon="1.83498">
        <ele>573.8</ele>
        <time>2022-07-09T11:39:08Z</time>
      </trkpt>
      <trkpt lat="46.13724" lon="1.83498">
        <ele>573.8</ele>
        <time>2022-07-09T11:39:10Z</time>
      </trkpt>
      <trkpt lat="46.13723" lon="1.83498">
        <ele>573.4</ele>
        <time>2022-07-09T11:39:27Z</time>
      </trkpt>
      <trkpt lat="46.13723" lon="1.83498">
        <ele>573.4</ele>
        <time>2022-07-09T11:39:28Z</time>
      </trkpt>
      <trkpt lat="46.13723" lon="1.83498">
        <ele>573.8</ele>
        <time>2022-07-09T11:39:33Z</time>
      </trkpt>
      <trkpt lat="46.1372" lon="1.83497">
        <ele>574</ele>
        <time>2022-07-09T11:40:17Z</time>
      </trkpt>
      <trkpt lat="46.13719" lon="1.83495">
        <ele>573.8</ele>
        <time>2022-07-09T11:40:19Z</time>
      </trkpt>
      <trkpt lat="46.13718" lon="1.83494">
        <ele>573.8</ele>
        <time>2022-07-09T11:40:20Z</time>
      </trkpt>
      <trkpt lat="46.13714" lon="1.83494">
        <ele>573</ele>
        <time>2022-07-09T11:40:24Z</time>
      </trkpt>
      <trkpt lat="46.13715" lon="1.83498">
        <ele>573</ele>
        <time>2022-07-09T11:40:26Z</time>
      </trkpt>
      <trkpt lat="46.13714" lon="1.835">
        <ele>573</ele>
        <time>2022-07-09T11:40:28Z</time>
      </trkpt>
      <trkpt lat="46.13714" lon="1.83503">
        <ele>573.2</ele>
        <time>2022-07-09T11:40:31Z</time>
      </trkpt>
      <trkpt lat="46.13714" lon="1.83504">
        <ele>573.4</ele>
        <time>2022-07-09T11:40:32Z</time>
      </trkpt>
      <trkpt lat="46.13717" lon="1.83507">
        <ele>573.8</ele>
        <time>2022-07-09T11:40:36Z</time>
      </trkpt>
      <trkpt lat="46.13717" lon="1.83508">
        <ele>574</ele>
        <time>2022-07-09T11:40:37Z</time>
      </trkpt>
      <trkpt lat="46.13718" lon="1.83512">
        <ele>574.6</ele>
        <time>2022-07-09T11:40:41Z</time>
      </trkpt>
      <trkpt lat="46.13719" lon="1.83514">
        <ele>575</ele>
        <time>2022-07-09T11:40:42Z</time>
      </trkpt>
      <trkpt lat="46.13719" lon="1.83515">
        <ele>575</ele>
        <time>2022-07-09T11:40:43Z</time>
      </trkpt>
      <trkpt lat="46.13718" lon="1.83517">
        <ele>575.2</ele>
        <time>2022-07-09T11:40:44Z</time>
      </trkpt>
      <trkpt lat="46.13719" lon="1.83518">
        <ele>575.8</ele>
        <time>2022-07-09T11:40:45Z</time>
      </trkpt>
      <trkpt lat="46.13719" lon="1.83519">
        <ele>575.8</ele>
        <time>2022-07-09T11:40:46Z</time>
      </trkpt>
      <trkpt lat="46.1372" lon="1.83521">
        <ele>576.2</ele>
        <time>2022-07-09T11:40:47Z</time>
      </trkpt>
      <trkpt lat="46.1372" lon="1.83523">
        <ele>576.8</ele>
        <time>2022-07-09T11:40:51Z</time>
      </trkpt>
      <trkpt lat="46.1372" lon="1.83526">
        <ele>577.6</ele>
        <time>2022-07-09T11:40:55Z</time>
      </trkpt>
      <trkpt lat="46.13722" lon="1.83528">
        <ele>578</ele>
        <time>2022-07-09T11:40:58Z</time>
      </trkpt>
      <trkpt lat="46.13722" lon="1.8353">
        <ele>579.2</ele>
        <time>2022-07-09T11:41:06Z</time>
      </trkpt>
      <trkpt lat="46.13725" lon="1.83534">
        <ele>580</ele>
        <time>2022-07-09T11:41:10Z</time>
      </trkpt>
      <trkpt lat="46.13725" lon="1.83534">
        <ele>580.4</ele>
        <time>2022-07-09T11:41:14Z</time>
      </trkpt>
      <trkpt lat="46.13726" lon="1.83536">
        <ele>580.4</ele>
        <time>2022-07-09T11:41:15Z</time>
      </trkpt>
      <trkpt lat="46.13727" lon="1.83539">
        <ele>580.8</ele>
        <time>2022-07-09T11:41:18Z</time>
      </trkpt>
      <trkpt lat="46.13727" lon="1.83541">
        <ele>581.4</ele>
        <time>2022-07-09T11:41:23Z</time>
      </trkpt>
      <trkpt lat="46.13729" lon="1.83549">
        <ele>582.4</ele>
        <time>2022-07-09T11:41:31Z</time>
      </trkpt>
      <trkpt lat="46.13729" lon="1.83549">
        <ele>582.8</ele>
        <time>2022-07-09T11:41:32Z</time>
      </trkpt>
      <trkpt lat="46.13729" lon="1.83551">
        <ele>583.6</ele>
        <time>2022-07-09T11:41:37Z</time>
      </trkpt>
      <trkpt lat="46.13728" lon="1.83551">
        <ele>584</ele>
        <time>2022-07-09T11:41:39Z</time>
      </trkpt>
      <trkpt lat="46.13728" lon="1.83551">
        <ele>584.4</ele>
        <time>2022-07-09T11:41:41Z</time>
      </trkpt>
      <trkpt lat="46.13726" lon="1.83553">
        <ele>585.8</ele>
        <time>2022-07-09T11:41:48Z</time>
      </trkpt>
      <trkpt lat="46.13726" lon="1.83557">
        <ele>586.8</ele>
        <time>2022-07-09T11:41:54Z</time>
      </trkpt>
      <trkpt lat="46.13726" lon="1.83557">
        <ele>587.2</ele>
        <time>2022-07-09T11:41:59Z</time>
      </trkpt>
      <trkpt lat="46.13728" lon="1.83569">
        <ele>588.2</ele>
        <time>2022-07-09T11:42:10Z</time>
      </trkpt>
      <trkpt lat="46.1373" lon="1.83577">
        <ele>588.6</ele>
        <time>2022-07-09T11:42:13Z</time>
      </trkpt>
      <trkpt lat="46.13732" lon="1.83581">
        <ele>588.8</ele>
        <time>2022-07-09T11:42:15Z</time>
      </trkpt>
      <trkpt lat="46.13734" lon="1.83583">
        <ele>589.2</ele>
        <time>2022-07-09T11:42:18Z</time>
      </trkpt>
      <trkpt lat="46.13734" lon="1.83584">
        <ele>589.4</ele>
        <time>2022-07-09T11:42:19Z</time>
      </trkpt>
      <trkpt lat="46.13738" lon="1.83589">
        <ele>589.8</ele>
        <time>2022-07-09T11:42:24Z</time>
      </trkpt>
      <trkpt lat="46.13738" lon="1.83592">
        <ele>590.2</ele>
        <time>2022-07-09T11:42:29Z</time>
      </trkpt>
      <trkpt lat="46.13738" lon="1.83594">
        <ele>590.8</ele>
        <time>2022-07-09T11:42:32Z</time>
      </trkpt>
      <trkpt lat="46.13739" lon="1.83597">
        <ele>591.6</ele>
        <time>2022-07-09T11:42:35Z</time>
      </trkpt>
      <trkpt lat="46.1374" lon="1.83611">
        <ele>592.6</ele>
        <time>2022-07-09T11:42:40Z</time>
      </trkpt>
      <trkpt lat="46.1374" lon="1.83611">
        <ele>593</ele>
        <time>2022-07-09T11:42:42Z</time>
      </trkpt>
      <trkpt lat="46.13745" lon="1.83622">
        <ele>593.6</ele>
        <time>2022-07-09T11:42:46Z</time>
      </trkpt>
      <trkpt lat="46.13746" lon="1.83624">
        <ele>593.8</ele>
        <time>2022-07-09T11:42:48Z</time>
      </trkpt>
      <trkpt lat="46.13748" lon="1.8363">
        <ele>594.4</ele>
        <time>2022-07-09T11:42:51Z</time>
      </trkpt>
      <trkpt lat="46.13749" lon="1.83634">
        <ele>594.6</ele>
        <time>2022-07-09T11:42:54Z</time>
      </trkpt>
      <trkpt lat="46.13751" lon="1.83639">
        <ele>594.8</ele>
        <time>2022-07-09T11:42:56Z</time>
      </trkpt>
      <trkpt lat="46.13752" lon="1.83652">
        <ele>595</ele>
        <time>2022-07-09T11:43:01Z</time>
      </trkpt>
      <trkpt lat="46.13756" lon="1.83665">
        <ele>595.6</ele>
        <time>2022-07-09T11:43:05Z</time>
      </trkpt>
      <trkpt lat="46.13756" lon="1.83671">
        <ele>596</ele>
        <time>2022-07-09T11:43:07Z</time>
      </trkpt>
      <trkpt lat="46.1376" lon="1.8368">
        <ele>596.6</ele>
        <time>2022-07-09T11:43:13Z</time>
      </trkpt>
      <trkpt lat="46.13762" lon="1.83686">
        <ele>597.4</ele>
        <time>2022-07-09T11:43:17Z</time>
      </trkpt>
      <trkpt lat="46.13763" lon="1.83689">
        <ele>597.6</ele>
        <time>2022-07-09T11:43:20Z</time>
      </trkpt>
      <trkpt lat="46.13763" lon="1.83696">
        <ele>598.4</ele>
        <time>2022-07-09T11:43:26Z</time>
      </trkpt>
      <trkpt lat="46.13762" lon="1.83703">
        <ele>598.8</ele>
        <time>2022-07-09T11:43:29Z</time>
      </trkpt>
      <trkpt lat="46.13762" lon="1.83704">
        <ele>599</ele>
        <time>2022-07-09T11:43:30Z</time>
      </trkpt>
      <trkpt lat="46.13762" lon="1.83705">
        <ele>599.2</ele>
        <time>2022-07-09T11:43:31Z</time>
      </trkpt>
      <trkpt lat="46.13761" lon="1.83714">
        <ele>600</ele>
        <time>2022-07-09T11:43:36Z</time>
      </trkpt>
      <trkpt lat="46.13766" lon="1.83726">
        <ele>601</ele>
        <time>2022-07-09T11:43:41Z</time>
      </trkpt>
      <trkpt lat="46.13766" lon="1.83726">
        <ele>601.2</ele>
        <time>2022-07-09T11:43:43Z</time>
      </trkpt>
      <trkpt lat="46.13768" lon="1.83738">
        <ele>602</ele>
        <time>2022-07-09T11:43:49Z</time>
      </trkpt>
      <trkpt lat="46.13768" lon="1.83738">
        <ele>602.2</ele>
        <time>2022-07-09T11:43:50Z</time>
      </trkpt>
      <trkpt lat="46.13768" lon="1.83741">
        <ele>603.2</ele>
        <time>2022-07-09T11:43:54Z</time>
      </trkpt>
      <trkpt lat="46.13769" lon="1.83744">
        <ele>603.6</ele>
        <time>2022-07-09T11:43:55Z</time>
      </trkpt>
      <trkpt lat="46.13769" lon="1.8375">
        <ele>604.4</ele>
        <time>2022-07-09T11:44:00Z</time>
      </trkpt>
      <trkpt lat="46.13774" lon="1.83758">
        <ele>605</ele>
        <time>2022-07-09T11:44:05Z</time>
      </trkpt>
      <trkpt lat="46.13774" lon="1.83761">
        <ele>605.6</ele>
        <time>2022-07-09T11:44:08Z</time>
      </trkpt>
      <trkpt lat="46.13774" lon="1.83761">
        <ele>606.2</ele>
        <time>2022-07-09T11:44:12Z</time>
      </trkpt>
      <trkpt lat="46.13774" lon="1.83766">
        <ele>606.6</ele>
        <time>2022-07-09T11:44:16Z</time>
      </trkpt>
      <trkpt lat="46.13775" lon="1.83772">
        <ele>607.6</ele>
        <time>2022-07-09T11:44:22Z</time>
      </trkpt>
      <trkpt lat="46.13775" lon="1.83773">
        <ele>607.8</ele>
        <time>2022-07-09T11:44:23Z</time>
      </trkpt>
      <trkpt lat="46.13776" lon="1.83779">
        <ele>608.8</ele>
        <time>2022-07-09T11:44:31Z</time>
      </trkpt>
      <trkpt lat="46.1378" lon="1.83792">
        <ele>609.4</ele>
        <time>2022-07-09T11:44:35Z</time>
      </trkpt>
      <trkpt lat="46.13781" lon="1.838">
        <ele>609.6</ele>
        <time>2022-07-09T11:44:38Z</time>
      </trkpt>
      <trkpt lat="46.13782" lon="1.83808">
        <ele>610</ele>
        <time>2022-07-09T11:44:41Z</time>
      </trkpt>
      <trkpt lat="46.13782" lon="1.83812">
        <ele>610.2</ele>
        <time>2022-07-09T11:44:43Z</time>
      </trkpt>
      <trkpt lat="46.13781" lon="1.8382">
        <ele>611</ele>
        <time>2022-07-09T11:44:48Z</time>
      </trkpt>
      <trkpt lat="46.13781" lon="1.83823">
        <ele>611.2</ele>
        <time>2022-07-09T11:44:49Z</time>
      </trkpt>
      <trkpt lat="46.13786" lon="1.83838">
        <ele>612.2</ele>
        <time>2022-07-09T11:44:55Z</time>
      </trkpt>
      <trkpt lat="46.13788" lon="1.83848">
        <ele>612.6</ele>
        <time>2022-07-09T11:44:57Z</time>
      </trkpt>
      <trkpt lat="46.13791" lon="1.8386">
        <ele>613.2</ele>
        <time>2022-07-09T11:45:01Z</time>
      </trkpt>
      <trkpt lat="46.13791" lon="1.83863">
        <ele>613.6</ele>
        <time>2022-07-09T11:45:05Z</time>
      </trkpt>
      <trkpt lat="46.13793" lon="1.83871">
        <ele>614.2</ele>
        <time>2022-07-09T11:45:08Z</time>
      </trkpt>
      <trkpt lat="46.13794" lon="1.83875">
        <ele>614.4</ele>
        <time>2022-07-09T11:45:11Z</time>
      </trkpt>
      <trkpt lat="46.13795" lon="1.8388">
        <ele>614.8</ele>
        <time>2022-07-09T11:45:13Z</time>
      </trkpt>
      <trkpt lat="46.13798" lon="1.83889">
        <ele>615.8</ele>
        <time>2022-07-09T11:45:20Z</time>
      </trkpt>
      <trkpt lat="46.13799" lon="1.83896">
        <ele>616.2</ele>
        <time>2022-07-09T11:45:23Z</time>
      </trkpt>
      <trkpt lat="46.13801" lon="1.83902">
        <ele>616.8</ele>
        <time>2022-07-09T11:45:26Z</time>
      </trkpt>
      <trkpt lat="46.13802" lon="1.83906">
        <ele>616.8</ele>
        <time>2022-07-09T11:45:27Z</time>
      </trkpt>
      <trkpt lat="46.13808" lon="1.83918">
        <ele>617.2</ele>
        <time>2022-07-09T11:45:31Z</time>
      </trkpt>
      <trkpt lat="46.13808" lon="1.83923">
        <ele>618</ele>
        <time>2022-07-09T11:45:36Z</time>
      </trkpt>
      <trkpt lat="46.13808" lon="1.83927">
        <ele>618</ele>
        <time>2022-07-09T11:45:38Z</time>
      </trkpt>
      <trkpt lat="46.13808" lon="1.83928">
        <ele>618</ele>
        <time>2022-07-09T11:45:39Z</time>
      </trkpt>
      <trkpt lat="46.13807" lon="1.83929">
        <ele>618.2</ele>
        <time>2022-07-09T11:45:42Z</time>
      </trkpt>
      <trkpt lat="46.13807" lon="1.83929">
        <ele>618.4</ele>
        <time>2022-07-09T11:45:43Z</time>
      </trkpt>
      <trkpt lat="46.13808" lon="1.83929">
        <ele>618.8</ele>
        <time>2022-07-09T11:47:29Z</time>
      </trkpt>
      <trkpt lat="46.13808" lon="1.83929">
        <ele>618.8</ele>
        <time>2022-07-09T11:47:31Z</time>
      </trkpt>
      <trkpt lat="46.13806" lon="1.8393">
        <ele>619</ele>
        <time>2022-07-09T11:47:37Z</time>
      </trkpt>
      <trkpt lat="46.13802" lon="1.83928">
        <ele>620</ele>
        <time>2022-07-09T11:47:47Z</time>
      </trkpt>
      <trkpt lat="46.13799" lon="1.83927">
        <ele>620.2</ele>
        <time>2022-07-09T11:47:50Z</time>
      </trkpt>
      <trkpt lat="46.13797" lon="1.83926">
        <ele>620.6</ele>
        <time>2022-07-09T11:47:56Z</time>
      </trkpt>
      <trkpt lat="46.13796" lon="1.83925">
        <ele>621.2</ele>
        <time>2022-07-09T11:47:58Z</time>
      </trkpt>
      <trkpt lat="46.13793" lon="1.83923">
        <ele>622.4</ele>
        <time>2022-07-09T11:48:05Z</time>
      </trkpt>
      <trkpt lat="46.13793" lon="1.83923">
        <ele>622.8</ele>
        <time>2022-07-09T11:48:07Z</time>
      </trkpt>
      <trkpt lat="46.13787" lon="1.83919">
        <ele>623.4</ele>
        <time>2022-07-09T11:48:15Z</time>
      </trkpt>
      <trkpt lat="46.13783" lon="1.83915">
        <ele>623.8</ele>
        <time>2022-07-09T11:48:17Z</time>
      </trkpt>
      <trkpt lat="46.13779" lon="1.83911">
        <ele>624.4</ele>
        <time>2022-07-09T11:48:22Z</time>
      </trkpt>
      <trkpt lat="46.13773" lon="1.83907">
        <ele>625.4</ele>
        <time>2022-07-09T11:48:29Z</time>
      </trkpt>
      <trkpt lat="46.13772" lon="1.83906">
        <ele>625.6</ele>
        <time>2022-07-09T11:48:30Z</time>
      </trkpt>
      <trkpt lat="46.13764" lon="1.83904">
        <ele>626.2</ele>
        <time>2022-07-09T11:48:35Z</time>
      </trkpt>
      <trkpt lat="46.13764" lon="1.83904">
        <ele>626.2</ele>
        <time>2022-07-09T11:48:36Z</time>
      </trkpt>
      <trkpt lat="46.13757" lon="1.83899">
        <ele>628.6</ele>
        <time>2022-07-09T11:48:49Z</time>
      </trkpt>
      <trkpt lat="46.13754" lon="1.83897">
        <ele>629.2</ele>
        <time>2022-07-09T11:48:53Z</time>
      </trkpt>
      <trkpt lat="46.13752" lon="1.83895">
        <ele>629.6</ele>
        <time>2022-07-09T11:48:56Z</time>
      </trkpt>
      <trkpt lat="46.13745" lon="1.83887">
        <ele>630.2</ele>
        <time>2022-07-09T11:48:59Z</time>
      </trkpt>
      <trkpt lat="46.13741" lon="1.83883">
        <ele>630.6</ele>
        <time>2022-07-09T11:49:04Z</time>
      </trkpt>
      <trkpt lat="46.13715" lon="1.83869">
        <ele>630.8</ele>
        <time>2022-07-09T11:49:11Z</time>
      </trkpt>
      <trkpt lat="46.13705" lon="1.83865">
        <ele>631.4</ele>
        <time>2022-07-09T11:49:17Z</time>
      </trkpt>
      <trkpt lat="46.13704" lon="1.83864">
        <ele>632</ele>
        <time>2022-07-09T11:49:19Z</time>
      </trkpt>
      <trkpt lat="46.137" lon="1.83864">
        <ele>632.6</ele>
        <time>2022-07-09T11:49:24Z</time>
      </trkpt>
      <trkpt lat="46.13693" lon="1.83864">
        <ele>633.4</ele>
        <time>2022-07-09T11:49:28Z</time>
      </trkpt>
      <trkpt lat="46.13689" lon="1.83865">
        <ele>633.8</ele>
        <time>2022-07-09T11:49:30Z</time>
      </trkpt>
      <trkpt lat="46.13689" lon="1.83865">
        <ele>634.2</ele>
        <time>2022-07-09T11:49:33Z</time>
      </trkpt>
      <trkpt lat="46.13679" lon="1.83869">
        <ele>636.2</ele>
        <time>2022-07-09T11:49:52Z</time>
      </trkpt>
      <trkpt lat="46.13678" lon="1.83869">
        <ele>636.2</ele>
        <time>2022-07-09T11:49:53Z</time>
      </trkpt>
      <trkpt lat="46.13675" lon="1.83871">
        <ele>637</ele>
        <time>2022-07-09T11:49:58Z</time>
      </trkpt>
      <trkpt lat="46.13675" lon="1.83871">
        <ele>637.4</ele>
        <time>2022-07-09T11:50:00Z</time>
      </trkpt>
      <trkpt lat="46.13666" lon="1.83877">
        <ele>638.4</ele>
        <time>2022-07-09T11:50:08Z</time>
      </trkpt>
      <trkpt lat="46.13659" lon="1.8388">
        <ele>639.4</ele>
        <time>2022-07-09T11:50:15Z</time>
      </trkpt>
      <trkpt lat="46.13659" lon="1.8388">
        <ele>639.6</ele>
        <time>2022-07-09T11:50:16Z</time>
      </trkpt>
      <trkpt lat="46.13657" lon="1.83882">
        <ele>640.4</ele>
        <time>2022-07-09T11:50:28Z</time>
      </trkpt>
      <trkpt lat="46.13652" lon="1.83885">
        <ele>640.4</ele>
        <time>2022-07-09T11:50:31Z</time>
      </trkpt>
      <trkpt lat="46.13648" lon="1.83887">
        <ele>641</ele>
        <time>2022-07-09T11:50:33Z</time>
      </trkpt>
      <trkpt lat="46.13642" lon="1.83899">
        <ele>641.2</ele>
        <time>2022-07-09T11:50:38Z</time>
      </trkpt>
      <trkpt lat="46.13641" lon="1.839">
        <ele>641.4</ele>
        <time>2022-07-09T11:50:41Z</time>
      </trkpt>
      <trkpt lat="46.13637" lon="1.83902">
        <ele>641.6</ele>
        <time>2022-07-09T11:50:43Z</time>
      </trkpt>
      <trkpt lat="46.13637" lon="1.83903">
        <ele>641.6</ele>
        <time>2022-07-09T11:50:44Z</time>
      </trkpt>
      <trkpt lat="46.13635" lon="1.83905">
        <ele>641.6</ele>
        <time>2022-07-09T11:50:46Z</time>
      </trkpt>
      <trkpt lat="46.13634" lon="1.83907">
        <ele>642</ele>
        <time>2022-07-09T11:50:47Z</time>
      </trkpt>
      <trkpt lat="46.13632" lon="1.83914">
        <ele>642.2</ele>
        <time>2022-07-09T11:50:50Z</time>
      </trkpt>
      <trkpt lat="46.1363" lon="1.83915">
        <ele>642.6</ele>
        <time>2022-07-09T11:50:52Z</time>
      </trkpt>
      <trkpt lat="46.13629" lon="1.83916">
        <ele>642.8</ele>
        <time>2022-07-09T11:50:54Z</time>
      </trkpt>
      <trkpt lat="46.13628" lon="1.83917">
        <ele>642.8</ele>
        <time>2022-07-09T11:50:56Z</time>
      </trkpt>
      <trkpt lat="46.13622" lon="1.83923">
        <ele>643.4</ele>
        <time>2022-07-09T11:51:03Z</time>
      </trkpt>
      <trkpt lat="46.1362" lon="1.83925">
        <ele>643.6</ele>
        <time>2022-07-09T11:51:04Z</time>
      </trkpt>
      <trkpt lat="46.13617" lon="1.83932">
        <ele>643.8</ele>
        <time>2022-07-09T11:51:07Z</time>
      </trkpt>
      <trkpt lat="46.13614" lon="1.83938">
        <ele>644.4</ele>
        <time>2022-07-09T11:51:10Z</time>
      </trkpt>
      <trkpt lat="46.13611" lon="1.83943">
        <ele>644.8</ele>
        <time>2022-07-09T11:51:13Z</time>
      </trkpt>
      <trkpt lat="46.13609" lon="1.83952">
        <ele>645.6</ele>
        <time>2022-07-09T11:51:19Z</time>
      </trkpt>
      <trkpt lat="46.13608" lon="1.83954">
        <ele>645.8</ele>
        <time>2022-07-09T11:51:20Z</time>
      </trkpt>
      <trkpt lat="46.13607" lon="1.83959">
        <ele>646</ele>
        <time>2022-07-09T11:51:22Z</time>
      </trkpt>
      <trkpt lat="46.13607" lon="1.83961">
        <ele>646.2</ele>
        <time>2022-07-09T11:51:23Z</time>
      </trkpt>
      <trkpt lat="46.13606" lon="1.83961">
        <ele>646.4</ele>
        <time>2022-07-09T11:51:24Z</time>
      </trkpt>
      <trkpt lat="46.13606" lon="1.83971">
        <ele>647</ele>
        <time>2022-07-09T11:51:28Z</time>
      </trkpt>
      <trkpt lat="46.13606" lon="1.83971">
        <ele>647</ele>
        <time>2022-07-09T11:51:29Z</time>
      </trkpt>
      <trkpt lat="46.13605" lon="1.83979">
        <ele>648</ele>
        <time>2022-07-09T11:51:34Z</time>
      </trkpt>
      <trkpt lat="46.13605" lon="1.83981">
        <ele>648.2</ele>
        <time>2022-07-09T11:51:35Z</time>
      </trkpt>
      <trkpt lat="46.13607" lon="1.83996">
        <ele>648.8</ele>
        <time>2022-07-09T11:51:40Z</time>
      </trkpt>
      <trkpt lat="46.13608" lon="1.84">
        <ele>649.2</ele>
        <time>2022-07-09T11:51:42Z</time>
      </trkpt>
      <trkpt lat="46.13607" lon="1.84009">
        <ele>650</ele>
        <time>2022-07-09T11:51:47Z</time>
      </trkpt>
      <trkpt lat="46.13606" lon="1.84012">
        <ele>650</ele>
        <time>2022-07-09T11:51:48Z</time>
      </trkpt>
      <trkpt lat="46.13605" lon="1.84018">
        <ele>650.4</ele>
        <time>2022-07-09T11:51:51Z</time>
      </trkpt>
      <trkpt lat="46.13605" lon="1.84023">
        <ele>650.4</ele>
        <time>2022-07-09T11:51:53Z</time>
      </trkpt>
      <trkpt lat="46.13605" lon="1.84033">
        <ele>651</ele>
        <time>2022-07-09T11:51:59Z</time>
      </trkpt>
      <trkpt lat="46.13604" lon="1.84036">
        <ele>651.2</ele>
        <time>2022-07-09T11:52:00Z</time>
      </trkpt>
      <trkpt lat="46.13602" lon="1.84043">
        <ele>651.4</ele>
        <time>2022-07-09T11:52:02Z</time>
      </trkpt>
      <trkpt lat="46.13603" lon="1.84046">
        <ele>651.6</ele>
        <time>2022-07-09T11:52:03Z</time>
      </trkpt>
      <trkpt lat="46.13601" lon="1.8406">
        <ele>652.4</ele>
        <time>2022-07-09T11:52:09Z</time>
      </trkpt>
      <trkpt lat="46.13599" lon="1.84062">
        <ele>652.8</ele>
        <time>2022-07-09T11:52:10Z</time>
      </trkpt>
      <trkpt lat="46.136" lon="1.84069">
        <ele>653.2</ele>
        <time>2022-07-09T11:52:12Z</time>
      </trkpt>
      <trkpt lat="46.13602" lon="1.84083">
        <ele>653.6</ele>
        <time>2022-07-09T11:52:16Z</time>
      </trkpt>
      <trkpt lat="46.13601" lon="1.84091">
        <ele>653.8</ele>
        <time>2022-07-09T11:52:18Z</time>
      </trkpt>
      <trkpt lat="46.136" lon="1.84094">
        <ele>654</ele>
        <time>2022-07-09T11:52:19Z</time>
      </trkpt>
      <trkpt lat="46.13598" lon="1.84102">
        <ele>654.4</ele>
        <time>2022-07-09T11:52:22Z</time>
      </trkpt>
      <trkpt lat="46.13595" lon="1.84115">
        <ele>655.2</ele>
        <time>2022-07-09T11:52:26Z</time>
      </trkpt>
      <trkpt lat="46.13597" lon="1.84122">
        <ele>655.4</ele>
        <time>2022-07-09T11:52:28Z</time>
      </trkpt>
      <trkpt lat="46.13597" lon="1.84124">
        <ele>655.6</ele>
        <time>2022-07-09T11:52:30Z</time>
      </trkpt>
      <trkpt lat="46.13595" lon="1.8413">
        <ele>656.4</ele>
        <time>2022-07-09T11:52:33Z</time>
      </trkpt>
      <trkpt lat="46.13595" lon="1.84136">
        <ele>657</ele>
        <time>2022-07-09T11:52:38Z</time>
      </trkpt>
      <trkpt lat="46.13595" lon="1.84137">
        <ele>657.2</ele>
        <time>2022-07-09T11:52:39Z</time>
      </trkpt>
      <trkpt lat="46.13596" lon="1.84139">
        <ele>657.4</ele>
        <time>2022-07-09T11:52:40Z</time>
      </trkpt>
      <trkpt lat="46.13598" lon="1.8415">
        <ele>657.4</ele>
        <time>2022-07-09T11:52:42Z</time>
      </trkpt>
      <trkpt lat="46.13601" lon="1.84155">
        <ele>657.6</ele>
        <time>2022-07-09T11:52:43Z</time>
      </trkpt>
      <trkpt lat="46.13602" lon="1.8416">
        <ele>657.6</ele>
        <time>2022-07-09T11:52:45Z</time>
      </trkpt>
      <trkpt lat="46.13604" lon="1.84167">
        <ele>657.8</ele>
        <time>2022-07-09T11:52:49Z</time>
      </trkpt>
      <trkpt lat="46.13608" lon="1.84183">
        <ele>657.8</ele>
        <time>2022-07-09T11:52:54Z</time>
      </trkpt>
      <trkpt lat="46.1361" lon="1.84189">
        <ele>657.8</ele>
        <time>2022-07-09T11:52:57Z</time>
      </trkpt>
      <trkpt lat="46.13612" lon="1.84196">
        <ele>657.8</ele>
        <time>2022-07-09T11:52:59Z</time>
      </trkpt>
      <trkpt lat="46.13616" lon="1.84204">
        <ele>657.8</ele>
        <time>2022-07-09T11:53:01Z</time>
      </trkpt>
      <trkpt lat="46.1362" lon="1.84211">
        <ele>658</ele>
        <time>2022-07-09T11:53:03Z</time>
      </trkpt>
      <trkpt lat="46.13622" lon="1.84217">
        <ele>658</ele>
        <time>2022-07-09T11:53:05Z</time>
      </trkpt>
      <trkpt lat="46.13625" lon="1.84229">
        <ele>658.2</ele>
        <time>2022-07-09T11:53:08Z</time>
      </trkpt>
      <trkpt lat="46.13627" lon="1.84237">
        <ele>658.2</ele>
        <time>2022-07-09T11:53:10Z</time>
      </trkpt>
      <trkpt lat="46.13629" lon="1.84244">
        <ele>658.4</ele>
        <time>2022-07-09T11:53:12Z</time>
      </trkpt>
      <trkpt lat="46.13631" lon="1.84257">
        <ele>658.6</ele>
        <time>2022-07-09T11:53:14Z</time>
      </trkpt>
      <trkpt lat="46.13634" lon="1.84267">
        <ele>658.6</ele>
        <time>2022-07-09T11:53:17Z</time>
      </trkpt>
      <trkpt lat="46.13634" lon="1.8427">
        <ele>658.8</ele>
        <time>2022-07-09T11:53:18Z</time>
      </trkpt>
      <trkpt lat="46.13634" lon="1.84279">
        <ele>658.8</ele>
        <time>2022-07-09T11:53:20Z</time>
      </trkpt>
      <trkpt lat="46.13637" lon="1.84285">
        <ele>659</ele>
        <time>2022-07-09T11:53:22Z</time>
      </trkpt>
      <trkpt lat="46.1364" lon="1.84292">
        <ele>659.2</ele>
        <time>2022-07-09T11:53:24Z</time>
      </trkpt>
      <trkpt lat="46.13647" lon="1.84304">
        <ele>659.4</ele>
        <time>2022-07-09T11:53:28Z</time>
      </trkpt>
      <trkpt lat="46.13651" lon="1.84317">
        <ele>659.4</ele>
        <time>2022-07-09T11:53:31Z</time>
      </trkpt>
      <trkpt lat="46.13652" lon="1.84328">
        <ele>659.6</ele>
        <time>2022-07-09T11:53:34Z</time>
      </trkpt>
      <trkpt lat="46.13652" lon="1.84338">
        <ele>659.6</ele>
        <time>2022-07-09T11:53:37Z</time>
      </trkpt>
      <trkpt lat="46.13658" lon="1.84346">
        <ele>659.8</ele>
        <time>2022-07-09T11:53:39Z</time>
      </trkpt>
      <trkpt lat="46.13657" lon="1.84351">
        <ele>659.8</ele>
        <time>2022-07-09T11:53:41Z</time>
      </trkpt>
      <trkpt lat="46.13657" lon="1.84356">
        <ele>659.8</ele>
        <time>2022-07-09T11:53:43Z</time>
      </trkpt>
      <trkpt lat="46.13657" lon="1.84365">
        <ele>659.8</ele>
        <time>2022-07-09T11:53:46Z</time>
      </trkpt>
      <trkpt lat="46.13665" lon="1.84375">
        <ele>659.8</ele>
        <time>2022-07-09T11:53:48Z</time>
      </trkpt>
      <trkpt lat="46.13665" lon="1.84378">
        <ele>659.8</ele>
        <time>2022-07-09T11:53:49Z</time>
      </trkpt>
      <trkpt lat="46.13664" lon="1.84384">
        <ele>659.8</ele>
        <time>2022-07-09T11:53:51Z</time>
      </trkpt>
      <trkpt lat="46.13665" lon="1.8439">
        <ele>659.8</ele>
        <time>2022-07-09T11:53:52Z</time>
      </trkpt>
      <trkpt lat="46.13677" lon="1.84417">
        <ele>659.8</ele>
        <time>2022-07-09T11:53:56Z</time>
      </trkpt>
      <trkpt lat="46.1368" lon="1.84439">
        <ele>659.4</ele>
        <time>2022-07-09T11:54:00Z</time>
      </trkpt>
      <trkpt lat="46.13697" lon="1.84485">
        <ele>658.6</ele>
        <time>2022-07-09T11:54:07Z</time>
      </trkpt>
      <trkpt lat="46.13708" lon="1.84518">
        <ele>657.6</ele>
        <time>2022-07-09T11:54:11Z</time>
      </trkpt>
      <trkpt lat="46.13709" lon="1.84533">
        <ele>657.2</ele>
        <time>2022-07-09T11:54:13Z</time>
      </trkpt>
      <trkpt lat="46.13713" lon="1.84547">
        <ele>656.6</ele>
        <time>2022-07-09T11:54:15Z</time>
      </trkpt>
      <trkpt lat="46.13714" lon="1.84553">
        <ele>656.2</ele>
        <time>2022-07-09T11:54:16Z</time>
      </trkpt>
      <trkpt lat="46.1372" lon="1.84568">
        <ele>655.6</ele>
        <time>2022-07-09T11:54:19Z</time>
      </trkpt>
      <trkpt lat="46.13722" lon="1.84572">
        <ele>655.4</ele>
        <time>2022-07-09T11:54:20Z</time>
      </trkpt>
      <trkpt lat="46.13735" lon="1.84598">
        <ele>654.6</ele>
        <time>2022-07-09T11:54:26Z</time>
      </trkpt>
      <trkpt lat="46.13745" lon="1.84615">
        <ele>654.2</ele>
        <time>2022-07-09T11:54:30Z</time>
      </trkpt>
      <trkpt lat="46.1375" lon="1.84626">
        <ele>654.2</ele>
        <time>2022-07-09T11:54:33Z</time>
      </trkpt>
      <trkpt lat="46.13758" lon="1.84648">
        <ele>654.2</ele>
        <time>2022-07-09T11:54:38Z</time>
      </trkpt>
      <trkpt lat="46.13759" lon="1.84651">
        <ele>654.2</ele>
        <time>2022-07-09T11:54:39Z</time>
      </trkpt>
      <trkpt lat="46.13762" lon="1.84666">
        <ele>654.4</ele>
        <time>2022-07-09T11:54:43Z</time>
      </trkpt>
      <trkpt lat="46.1377" lon="1.84686">
        <ele>655.4</ele>
        <time>2022-07-09T11:54:48Z</time>
      </trkpt>
      <trkpt lat="46.13775" lon="1.84695">
        <ele>655.6</ele>
        <time>2022-07-09T11:54:50Z</time>
      </trkpt>
      <trkpt lat="46.13782" lon="1.84718">
        <ele>656.2</ele>
        <time>2022-07-09T11:54:55Z</time>
      </trkpt>
      <trkpt lat="46.13787" lon="1.84728">
        <ele>656.2</ele>
        <time>2022-07-09T11:54:57Z</time>
      </trkpt>
      <trkpt lat="46.13795" lon="1.84746">
        <ele>656.2</ele>
        <time>2022-07-09T11:55:01Z</time>
      </trkpt>
      <trkpt lat="46.13797" lon="1.84772">
        <ele>656</ele>
        <time>2022-07-09T11:55:07Z</time>
      </trkpt>
      <trkpt lat="46.13797" lon="1.84792">
        <ele>656.6</ele>
        <time>2022-07-09T11:55:12Z</time>
      </trkpt>
      <trkpt lat="46.13796" lon="1.84804">
        <ele>657.2</ele>
        <time>2022-07-09T11:55:16Z</time>
      </trkpt>
      <trkpt lat="46.13797" lon="1.84807">
        <ele>657.2</ele>
        <time>2022-07-09T11:55:17Z</time>
      </trkpt>
      <trkpt lat="46.13798" lon="1.84837">
        <ele>657.6</ele>
        <time>2022-07-09T11:55:24Z</time>
      </trkpt>
      <trkpt lat="46.13804" lon="1.84869">
        <ele>658</ele>
        <time>2022-07-09T11:55:31Z</time>
      </trkpt>
      <trkpt lat="46.13804" lon="1.84881">
        <ele>658</ele>
        <time>2022-07-09T11:55:33Z</time>
      </trkpt>
      <trkpt lat="46.13804" lon="1.84886">
        <ele>658</ele>
        <time>2022-07-09T11:55:34Z</time>
      </trkpt>
      <trkpt lat="46.13803" lon="1.84891">
        <ele>658.2</ele>
        <time>2022-07-09T11:55:35Z</time>
      </trkpt>
      <trkpt lat="46.13807" lon="1.84904">
        <ele>658.2</ele>
        <time>2022-07-09T11:55:38Z</time>
      </trkpt>
      <trkpt lat="46.13806" lon="1.84907">
        <ele>658.2</ele>
        <time>2022-07-09T11:55:39Z</time>
      </trkpt>
      <trkpt lat="46.13805" lon="1.84915">
        <ele>658.2</ele>
        <time>2022-07-09T11:55:41Z</time>
      </trkpt>
      <trkpt lat="46.13801" lon="1.84927">
        <ele>658.4</ele>
        <time>2022-07-09T11:55:43Z</time>
      </trkpt>
      <trkpt lat="46.13804" lon="1.84932">
        <ele>658.4</ele>
        <time>2022-07-09T11:55:44Z</time>
      </trkpt>
      <trkpt lat="46.13803" lon="1.84943">
        <ele>658.4</ele>
        <time>2022-07-09T11:55:46Z</time>
      </trkpt>
      <trkpt lat="46.13805" lon="1.84947">
        <ele>658.4</ele>
        <time>2022-07-09T11:55:47Z</time>
      </trkpt>
      <trkpt lat="46.13808" lon="1.84957">
        <ele>658.4</ele>
        <time>2022-07-09T11:55:49Z</time>
      </trkpt>
      <trkpt lat="46.1381" lon="1.84961">
        <ele>658.4</ele>
        <time>2022-07-09T11:55:50Z</time>
      </trkpt>
      <trkpt lat="46.13819" lon="1.84981">
        <ele>658.6</ele>
        <time>2022-07-09T11:55:55Z</time>
      </trkpt>
      <trkpt lat="46.13824" lon="1.84995">
        <ele>658.6</ele>
        <time>2022-07-09T11:55:59Z</time>
      </trkpt>
      <trkpt lat="46.13824" lon="1.84998">
        <ele>658.6</ele>
        <time>2022-07-09T11:56:00Z</time>
      </trkpt>
      <trkpt lat="46.13824" lon="1.85008">
        <ele>658.6</ele>
        <time>2022-07-09T11:56:03Z</time>
      </trkpt>
      <trkpt lat="46.13825" lon="1.85016">
        <ele>658.6</ele>
        <time>2022-07-09T11:56:05Z</time>
      </trkpt>
      <trkpt lat="46.13826" lon="1.85029">
        <ele>658.8</ele>
        <time>2022-07-09T11:56:08Z</time>
      </trkpt>
      <trkpt lat="46.13829" lon="1.8504">
        <ele>659</ele>
        <time>2022-07-09T11:56:10Z</time>
      </trkpt>
      <trkpt lat="46.13829" lon="1.85046">
        <ele>659.4</ele>
        <time>2022-07-09T11:56:11Z</time>
      </trkpt>
      <trkpt lat="46.13831" lon="1.85058">
        <ele>659.8</ele>
        <time>2022-07-09T11:56:14Z</time>
      </trkpt>
      <trkpt lat="46.13832" lon="1.85069">
        <ele>660</ele>
        <time>2022-07-09T11:56:17Z</time>
      </trkpt>
      <trkpt lat="46.13831" lon="1.85072">
        <ele>660.2</ele>
        <time>2022-07-09T11:56:18Z</time>
      </trkpt>
      <trkpt lat="46.13816" lon="1.85092">
        <ele>661.2</ele>
        <time>2022-07-09T11:56:25Z</time>
      </trkpt>
      <trkpt lat="46.13812" lon="1.85099">
        <ele>661</ele>
        <time>2022-07-09T11:56:27Z</time>
      </trkpt>
      <trkpt lat="46.13801" lon="1.85111">
        <ele>661.2</ele>
        <time>2022-07-09T11:56:30Z</time>
      </trkpt>
      <trkpt lat="46.13787" lon="1.85122">
        <ele>661.4</ele>
        <time>2022-07-09T11:56:36Z</time>
      </trkpt>
      <trkpt lat="46.13772" lon="1.85128">
        <ele>661.2</ele>
        <time>2022-07-09T11:56:42Z</time>
      </trkpt>
      <trkpt lat="46.13764" lon="1.85136">
        <ele>661.2</ele>
        <time>2022-07-09T11:56:47Z</time>
      </trkpt>
      <trkpt lat="46.13756" lon="1.85143">
        <ele>661.4</ele>
        <time>2022-07-09T11:56:53Z</time>
      </trkpt>
      <trkpt lat="46.13743" lon="1.85146">
        <ele>661.4</ele>
        <time>2022-07-09T11:56:59Z</time>
      </trkpt>
      <trkpt lat="46.13728" lon="1.8515">
        <ele>661</ele>
        <time>2022-07-09T11:57:05Z</time>
      </trkpt>
      <trkpt lat="46.13695" lon="1.85158">
        <ele>660.6</ele>
        <time>2022-07-09T11:57:11Z</time>
      </trkpt>
      <trkpt lat="46.13669" lon="1.85163">
        <ele>659.8</ele>
        <time>2022-07-09T11:57:16Z</time>
      </trkpt>
      <trkpt lat="46.13651" lon="1.85169">
        <ele>659</ele>
        <time>2022-07-09T11:57:21Z</time>
      </trkpt>
      <trkpt lat="46.13639" lon="1.85176">
        <ele>658.6</ele>
        <time>2022-07-09T11:57:23Z</time>
      </trkpt>
      <trkpt lat="46.13628" lon="1.85178">
        <ele>658</ele>
        <time>2022-07-09T11:57:26Z</time>
      </trkpt>
      <trkpt lat="46.13608" lon="1.85182">
        <ele>657.6</ele>
        <time>2022-07-09T11:57:31Z</time>
      </trkpt>
      <trkpt lat="46.13586" lon="1.85191">
        <ele>656.2</ele>
        <time>2022-07-09T11:57:35Z</time>
      </trkpt>
      <trkpt lat="46.13582" lon="1.85193">
        <ele>656</ele>
        <time>2022-07-09T11:57:36Z</time>
      </trkpt>
      <trkpt lat="46.13572" lon="1.85199">
        <ele>654.8</ele>
        <time>2022-07-09T11:57:39Z</time>
      </trkpt>
      <trkpt lat="46.13565" lon="1.85202">
        <ele>653.8</ele>
        <time>2022-07-09T11:57:41Z</time>
      </trkpt>
      <trkpt lat="46.13561" lon="1.85204">
        <ele>653.4</ele>
        <time>2022-07-09T11:57:42Z</time>
      </trkpt>
      <trkpt lat="46.13556" lon="1.85206">
        <ele>653.4</ele>
        <time>2022-07-09T11:57:43Z</time>
      </trkpt>
      <trkpt lat="46.13542" lon="1.85214">
        <ele>651.8</ele>
        <time>2022-07-09T11:57:46Z</time>
      </trkpt>
      <trkpt lat="46.13528" lon="1.85224">
        <ele>650.6</ele>
        <time>2022-07-09T11:57:49Z</time>
      </trkpt>
      <trkpt lat="46.13522" lon="1.85225">
        <ele>650.4</ele>
        <time>2022-07-09T11:57:50Z</time>
      </trkpt>
      <trkpt lat="46.13511" lon="1.85232">
        <ele>650</ele>
        <time>2022-07-09T11:57:52Z</time>
      </trkpt>
      <trkpt lat="46.13506" lon="1.85235">
        <ele>649.8</ele>
        <time>2022-07-09T11:57:53Z</time>
      </trkpt>
      <trkpt lat="46.13499" lon="1.85238">
        <ele>649.2</ele>
        <time>2022-07-09T11:57:54Z</time>
      </trkpt>
      <trkpt lat="46.13485" lon="1.85245">
        <ele>648.6</ele>
        <time>2022-07-09T11:57:56Z</time>
      </trkpt>
      <trkpt lat="46.13481" lon="1.85251">
        <ele>648.4</ele>
        <time>2022-07-09T11:57:57Z</time>
      </trkpt>
      <trkpt lat="46.13475" lon="1.85256">
        <ele>648</ele>
        <time>2022-07-09T11:57:58Z</time>
      </trkpt>
      <trkpt lat="46.13465" lon="1.85269">
        <ele>647.4</ele>
        <time>2022-07-09T11:58:00Z</time>
      </trkpt>
      <trkpt lat="46.13461" lon="1.85275">
        <ele>646.4</ele>
        <time>2022-07-09T11:58:01Z</time>
      </trkpt>
      <trkpt lat="46.13451" lon="1.85286">
        <ele>645.4</ele>
        <time>2022-07-09T11:58:03Z</time>
      </trkpt>
      <trkpt lat="46.13444" lon="1.85289">
        <ele>645.2</ele>
        <time>2022-07-09T11:58:04Z</time>
      </trkpt>
      <trkpt lat="46.1344" lon="1.85293">
        <ele>644.8</ele>
        <time>2022-07-09T11:58:05Z</time>
      </trkpt>
      <trkpt lat="46.13439" lon="1.853">
        <ele>644.4</ele>
        <time>2022-07-09T11:58:06Z</time>
      </trkpt>
      <trkpt lat="46.13438" lon="1.85308">
        <ele>643.8</ele>
        <time>2022-07-09T11:58:07Z</time>
      </trkpt>
      <trkpt lat="46.13435" lon="1.85321">
        <ele>643</ele>
        <time>2022-07-09T11:58:09Z</time>
      </trkpt>
      <trkpt lat="46.13434" lon="1.85328">
        <ele>642.6</ele>
        <time>2022-07-09T11:58:10Z</time>
      </trkpt>
      <trkpt lat="46.13426" lon="1.85348">
        <ele>641.6</ele>
        <time>2022-07-09T11:58:13Z</time>
      </trkpt>
      <trkpt lat="46.13418" lon="1.85369">
        <ele>641</ele>
        <time>2022-07-09T11:58:16Z</time>
      </trkpt>
      <trkpt lat="46.13408" lon="1.85394">
        <ele>640.6</ele>
        <time>2022-07-09T11:58:20Z</time>
      </trkpt>
      <trkpt lat="46.13403" lon="1.85405">
        <ele>640.4</ele>
        <time>2022-07-09T11:58:22Z</time>
      </trkpt>
      <trkpt lat="46.13389" lon="1.85434">
        <ele>640.2</ele>
        <time>2022-07-09T11:58:28Z</time>
      </trkpt>
      <trkpt lat="46.13386" lon="1.85438">
        <ele>640.2</ele>
        <time>2022-07-09T11:58:29Z</time>
      </trkpt>
      <trkpt lat="46.13378" lon="1.85457">
        <ele>640.4</ele>
        <time>2022-07-09T11:58:34Z</time>
      </trkpt>
      <trkpt lat="46.13374" lon="1.85464">
        <ele>640.4</ele>
        <time>2022-07-09T11:58:37Z</time>
      </trkpt>
      <trkpt lat="46.1337" lon="1.85468">
        <ele>640.6</ele>
        <time>2022-07-09T11:58:39Z</time>
      </trkpt>
      <trkpt lat="46.13364" lon="1.85478">
        <ele>641.6</ele>
        <time>2022-07-09T11:58:44Z</time>
      </trkpt>
      <trkpt lat="46.13361" lon="1.85482">
        <ele>641.6</ele>
        <time>2022-07-09T11:58:46Z</time>
      </trkpt>
      <trkpt lat="46.13353" lon="1.85491">
        <ele>642.4</ele>
        <time>2022-07-09T11:58:50Z</time>
      </trkpt>
      <trkpt lat="46.13349" lon="1.85495">
        <ele>642.6</ele>
        <time>2022-07-09T11:58:52Z</time>
      </trkpt>
      <trkpt lat="46.13337" lon="1.85505">
        <ele>643</ele>
        <time>2022-07-09T11:58:58Z</time>
      </trkpt>
      <trkpt lat="46.13318" lon="1.85515">
        <ele>643.4</ele>
        <time>2022-07-09T11:59:05Z</time>
      </trkpt>
      <trkpt lat="46.13303" lon="1.85522">
        <ele>643</ele>
        <time>2022-07-09T11:59:08Z</time>
      </trkpt>
      <trkpt lat="46.13281" lon="1.85544">
        <ele>642</ele>
        <time>2022-07-09T11:59:13Z</time>
      </trkpt>
      <trkpt lat="46.13269" lon="1.8555">
        <ele>641.8</ele>
        <time>2022-07-09T11:59:15Z</time>
      </trkpt>
      <trkpt lat="46.13257" lon="1.85555">
        <ele>641.6</ele>
        <time>2022-07-09T11:59:17Z</time>
      </trkpt>
      <trkpt lat="46.13244" lon="1.8556">
        <ele>641.2</ele>
        <time>2022-07-09T11:59:19Z</time>
      </trkpt>
      <trkpt lat="46.1323" lon="1.85572">
        <ele>640.2</ele>
        <time>2022-07-09T11:59:22Z</time>
      </trkpt>
      <trkpt lat="46.13217" lon="1.85584">
        <ele>639.8</ele>
        <time>2022-07-09T11:59:25Z</time>
      </trkpt>
      <trkpt lat="46.1321" lon="1.8559">
        <ele>639.8</ele>
        <time>2022-07-09T11:59:27Z</time>
      </trkpt>
      <trkpt lat="46.1319" lon="1.8561">
        <ele>639.8</ele>
        <time>2022-07-09T11:59:32Z</time>
      </trkpt>
      <trkpt lat="46.1319" lon="1.85618">
        <ele>639.8</ele>
        <time>2022-07-09T11:59:33Z</time>
      </trkpt>
      <trkpt lat="46.13192" lon="1.85632">
        <ele>640</ele>
        <time>2022-07-09T11:59:37Z</time>
      </trkpt>
      <trkpt lat="46.13194" lon="1.85649">
        <ele>640.6</ele>
        <time>2022-07-09T11:59:42Z</time>
      </trkpt>
      <trkpt lat="46.13194" lon="1.85657">
        <ele>640.6</ele>
        <time>2022-07-09T11:59:45Z</time>
      </trkpt>
      <trkpt lat="46.13196" lon="1.8567">
        <ele>641.2</ele>
        <time>2022-07-09T11:59:49Z</time>
      </trkpt>
      <trkpt lat="46.13197" lon="1.85673">
        <ele>641.4</ele>
        <time>2022-07-09T11:59:50Z</time>
      </trkpt>
      <trkpt lat="46.13201" lon="1.857">
        <ele>641.8</ele>
        <time>2022-07-09T11:59:56Z</time>
      </trkpt>
      <trkpt lat="46.13206" lon="1.85727">
        <ele>641.8</ele>
        <time>2022-07-09T12:00:02Z</time>
      </trkpt>
      <trkpt lat="46.13206" lon="1.85746">
        <ele>641.8</ele>
        <time>2022-07-09T12:00:07Z</time>
      </trkpt>
      <trkpt lat="46.13206" lon="1.85756">
        <ele>642.2</ele>
        <time>2022-07-09T12:00:10Z</time>
      </trkpt>
      <trkpt lat="46.13207" lon="1.85767">
        <ele>642.4</ele>
        <time>2022-07-09T12:00:13Z</time>
      </trkpt>
      <trkpt lat="46.13207" lon="1.85791">
        <ele>642.8</ele>
        <time>2022-07-09T12:00:19Z</time>
      </trkpt>
      <trkpt lat="46.13207" lon="1.85798">
        <ele>643.2</ele>
        <time>2022-07-09T12:00:21Z</time>
      </trkpt>
      <trkpt lat="46.1321" lon="1.85817">
        <ele>643.4</ele>
        <time>2022-07-09T12:00:26Z</time>
      </trkpt>
      <trkpt lat="46.13212" lon="1.85833">
        <ele>643</ele>
        <time>2022-07-09T12:00:30Z</time>
      </trkpt>
      <trkpt lat="46.13212" lon="1.85845">
        <ele>642.8</ele>
        <time>2022-07-09T12:00:33Z</time>
      </trkpt>
      <trkpt lat="46.13212" lon="1.85859">
        <ele>642.8</ele>
        <time>2022-07-09T12:00:36Z</time>
      </trkpt>
      <trkpt lat="46.13215" lon="1.85883">
        <ele>642.4</ele>
        <time>2022-07-09T12:00:40Z</time>
      </trkpt>
      <trkpt lat="46.13216" lon="1.85888">
        <ele>642.4</ele>
        <time>2022-07-09T12:00:41Z</time>
      </trkpt>
      <trkpt lat="46.13215" lon="1.85909">
        <ele>642</ele>
        <time>2022-07-09T12:00:45Z</time>
      </trkpt>
      <trkpt lat="46.13213" lon="1.85913">
        <ele>641.8</ele>
        <time>2022-07-09T12:00:46Z</time>
      </trkpt>
      <trkpt lat="46.13212" lon="1.85915">
        <ele>641.2</ele>
        <time>2022-07-09T12:00:47Z</time>
      </trkpt>
      <trkpt lat="46.13211" lon="1.85916">
        <ele>641</ele>
        <time>2022-07-09T12:00:48Z</time>
      </trkpt>
      <trkpt lat="46.13207" lon="1.85919">
        <ele>640</ele>
        <time>2022-07-09T12:00:51Z</time>
      </trkpt>
      <trkpt lat="46.13206" lon="1.85921">
        <ele>639.8</ele>
        <time>2022-07-09T12:00:52Z</time>
      </trkpt>
      <trkpt lat="46.13206" lon="1.8593">
        <ele>639.6</ele>
        <time>2022-07-09T12:00:55Z</time>
      </trkpt>
      <trkpt lat="46.13206" lon="1.85938">
        <ele>639.6</ele>
        <time>2022-07-09T12:00:57Z</time>
      </trkpt>
      <trkpt lat="46.13204" lon="1.85941">
        <ele>639.6</ele>
        <time>2022-07-09T12:00:58Z</time>
      </trkpt>
      <trkpt lat="46.13202" lon="1.85944">
        <ele>639.6</ele>
        <time>2022-07-09T12:00:59Z</time>
      </trkpt>
      <trkpt lat="46.13197" lon="1.85956">
        <ele>639.4</ele>
        <time>2022-07-09T12:01:02Z</time>
      </trkpt>
      <trkpt lat="46.1319" lon="1.85978">
        <ele>639.2</ele>
        <time>2022-07-09T12:01:08Z</time>
      </trkpt>
      <trkpt lat="46.13186" lon="1.85988">
        <ele>638.8</ele>
        <time>2022-07-09T12:01:12Z</time>
      </trkpt>
      <trkpt lat="46.13177" lon="1.85997">
        <ele>638.6</ele>
        <time>2022-07-09T12:01:16Z</time>
      </trkpt>
      <trkpt lat="46.13174" lon="1.86">
        <ele>638.6</ele>
        <time>2022-07-09T12:01:17Z</time>
      </trkpt>
      <trkpt lat="46.13165" lon="1.86016">
        <ele>638.4</ele>
        <time>2022-07-09T12:01:21Z</time>
      </trkpt>
      <trkpt lat="46.13148" lon="1.86045">
        <ele>638</ele>
        <time>2022-07-09T12:01:29Z</time>
      </trkpt>
      <trkpt lat="46.13133" lon="1.86075">
        <ele>637.8</ele>
        <time>2022-07-09T12:01:37Z</time>
      </trkpt>
      <trkpt lat="46.13122" lon="1.86093">
        <ele>637.6</ele>
        <time>2022-07-09T12:01:44Z</time>
      </trkpt>
      <trkpt lat="46.13119" lon="1.86096">
        <ele>637.4</ele>
        <time>2022-07-09T12:01:47Z</time>
      </trkpt>
      <trkpt lat="46.13118" lon="1.86101">
        <ele>637.4</ele>
        <time>2022-07-09T12:01:49Z</time>
      </trkpt>
      <trkpt lat="46.13117" lon="1.86104">
        <ele>637.4</ele>
        <time>2022-07-09T12:01:50Z</time>
      </trkpt>
      <trkpt lat="46.13113" lon="1.86122">
        <ele>637</ele>
        <time>2022-07-09T12:01:56Z</time>
      </trkpt>
      <trkpt lat="46.13111" lon="1.86126">
        <ele>636.8</ele>
        <time>2022-07-09T12:01:59Z</time>
      </trkpt>
      <trkpt lat="46.13111" lon="1.86126">
        <ele>636.8</ele>
        <time>2022-07-09T12:02:00Z</time>
      </trkpt>
      <trkpt lat="46.13111" lon="1.86125">
        <ele>636.6</ele>
        <time>2022-07-09T12:02:01Z</time>
      </trkpt>
      <trkpt lat="46.13112" lon="1.86122">
        <ele>636.4</ele>
        <time>2022-07-09T12:02:03Z</time>
      </trkpt>
      <trkpt lat="46.13114" lon="1.86117">
        <ele>636.4</ele>
        <time>2022-07-09T12:02:06Z</time>
      </trkpt>
      <trkpt lat="46.13115" lon="1.86111">
        <ele>636.4</ele>
        <time>2022-07-09T12:02:08Z</time>
      </trkpt>
      <trkpt lat="46.13118" lon="1.861">
        <ele>636.4</ele>
        <time>2022-07-09T12:02:11Z</time>
      </trkpt>
      <trkpt lat="46.13119" lon="1.86079">
        <ele>636.6</ele>
        <time>2022-07-09T12:02:17Z</time>
      </trkpt>
      <trkpt lat="46.13119" lon="1.86053">
        <ele>636.8</ele>
        <time>2022-07-09T12:02:24Z</time>
      </trkpt>
      <trkpt lat="46.13125" lon="1.86025">
        <ele>636.4</ele>
        <time>2022-07-09T12:02:31Z</time>
      </trkpt>
      <trkpt lat="46.13133" lon="1.86012">
        <ele>635.8</ele>
        <time>2022-07-09T12:02:36Z</time>
      </trkpt>
      <trkpt lat="46.13136" lon="1.86011">
        <ele>635.8</ele>
        <time>2022-07-09T12:02:37Z</time>
      </trkpt>
      <trkpt lat="46.13144" lon="1.86008">
        <ele>635.6</ele>
        <time>2022-07-09T12:02:41Z</time>
      </trkpt>
      <trkpt lat="46.13146" lon="1.86008">
        <ele>635.6</ele>
        <time>2022-07-09T12:02:42Z</time>
      </trkpt>
      <trkpt lat="46.13148" lon="1.86007">
        <ele>635.6</ele>
        <time>2022-07-09T12:02:43Z</time>
      </trkpt>
      <trkpt lat="46.13152" lon="1.86006">
        <ele>635.6</ele>
        <time>2022-07-09T12:02:45Z</time>
      </trkpt>
      <trkpt lat="46.13154" lon="1.85999">
        <ele>636</ele>
        <time>2022-07-09T12:02:48Z</time>
      </trkpt>
      <trkpt lat="46.13154" lon="1.85999">
        <ele>636.2</ele>
        <time>2022-07-09T12:02:49Z</time>
      </trkpt>
      <trkpt lat="46.13154" lon="1.85999">
        <ele>636.4</ele>
        <time>2022-07-09T12:02:51Z</time>
      </trkpt>
      <trkpt lat="46.13156" lon="1.85996">
        <ele>636.8</ele>
        <time>2022-07-09T12:03:01Z</time>
      </trkpt>
      <trkpt lat="46.13157" lon="1.85994">
        <ele>637</ele>
        <time>2022-07-09T12:03:03Z</time>
      </trkpt>
      <trkpt lat="46.13159" lon="1.85986">
        <ele>637</ele>
        <time>2022-07-09T12:03:06Z</time>
      </trkpt>
      <trkpt lat="46.13163" lon="1.85982">
        <ele>637.2</ele>
        <time>2022-07-09T12:03:08Z</time>
      </trkpt>
      <trkpt lat="46.13171" lon="1.85978">
        <ele>637.4</ele>
        <time>2022-07-09T12:03:13Z</time>
      </trkpt>
      <trkpt lat="46.13172" lon="1.85976">
        <ele>637.6</ele>
        <time>2022-07-09T12:03:14Z</time>
      </trkpt>
      <trkpt lat="46.13176" lon="1.85965">
        <ele>637.8</ele>
        <time>2022-07-09T12:03:18Z</time>
      </trkpt>
      <trkpt lat="46.13177" lon="1.85962">
        <ele>637.8</ele>
        <time>2022-07-09T12:03:19Z</time>
      </trkpt>
      <trkpt lat="46.13176" lon="1.85958">
        <ele>637.8</ele>
        <time>2022-07-09T12:03:20Z</time>
      </trkpt>
      <trkpt lat="46.13172" lon="1.85948">
        <ele>637.8</ele>
        <time>2022-07-09T12:03:22Z</time>
      </trkpt>
      <trkpt lat="46.13168" lon="1.85943">
        <ele>637.8</ele>
        <time>2022-07-09T12:03:23Z</time>
      </trkpt>
      <trkpt lat="46.13157" lon="1.85933">
        <ele>637.4</ele>
        <time>2022-07-09T12:03:26Z</time>
      </trkpt>
      <trkpt lat="46.13142" lon="1.85926">
        <ele>636.8</ele>
        <time>2022-07-09T12:03:30Z</time>
      </trkpt>
      <trkpt lat="46.13134" lon="1.85924">
        <ele>636.4</ele>
        <time>2022-07-09T12:03:33Z</time>
      </trkpt>
      <trkpt lat="46.1313" lon="1.85926">
        <ele>635.8</ele>
        <time>2022-07-09T12:03:35Z</time>
      </trkpt>
      <trkpt lat="46.1313" lon="1.85926">
        <ele>635.8</ele>
        <time>2022-07-09T12:03:36Z</time>
      </trkpt>
      <trkpt lat="46.1311" lon="1.85922">
        <ele>634.8</ele>
        <time>2022-07-09T12:03:42Z</time>
      </trkpt>
      <trkpt lat="46.13104" lon="1.85923">
        <ele>634.6</ele>
        <time>2022-07-09T12:03:44Z</time>
      </trkpt>
      <trkpt lat="46.13097" lon="1.85923">
        <ele>634.4</ele>
        <time>2022-07-09T12:03:46Z</time>
      </trkpt>
      <trkpt lat="46.13085" lon="1.8592">
        <ele>634.4</ele>
        <time>2022-07-09T12:03:49Z</time>
      </trkpt>
      <trkpt lat="46.13083" lon="1.85921">
        <ele>634.2</ele>
        <time>2022-07-09T12:03:50Z</time>
      </trkpt>
      <trkpt lat="46.13069" lon="1.85928">
        <ele>634</ele>
        <time>2022-07-09T12:03:54Z</time>
      </trkpt>
      <trkpt lat="46.13056" lon="1.85927">
        <ele>633.4</ele>
        <time>2022-07-09T12:03:58Z</time>
      </trkpt>
      <trkpt lat="46.13055" lon="1.85927">
        <ele>633.4</ele>
        <time>2022-07-09T12:03:59Z</time>
      </trkpt>
      <trkpt lat="46.13055" lon="1.85927">
        <ele>633.4</ele>
        <time>2022-07-09T12:04:00Z</time>
      </trkpt>
      <trkpt lat="46.13054" lon="1.85926">
        <ele>633.2</ele>
        <time>2022-07-09T12:04:01Z</time>
      </trkpt>
      <trkpt lat="46.13054" lon="1.85925">
        <ele>633.2</ele>
        <time>2022-07-09T12:04:04Z</time>
      </trkpt>
      <trkpt lat="46.13054" lon="1.85925">
        <ele>633.2</ele>
        <time>2022-07-09T12:04:06Z</time>
      </trkpt>
      <trkpt lat="46.13048" lon="1.85925">
        <ele>634</ele>
        <time>2022-07-09T12:04:15Z</time>
      </trkpt>
      <trkpt lat="46.13047" lon="1.85923">
        <ele>634.4</ele>
        <time>2022-07-09T12:04:18Z</time>
      </trkpt>
      <trkpt lat="46.13043" lon="1.85915">
        <ele>635.2</ele>
        <time>2022-07-09T12:04:24Z</time>
      </trkpt>
      <trkpt lat="46.13043" lon="1.85914">
        <ele>635.2</ele>
        <time>2022-07-09T12:04:25Z</time>
      </trkpt>
      <trkpt lat="46.13044" lon="1.85912">
        <ele>635.4</ele>
        <time>2022-07-09T12:04:27Z</time>
      </trkpt>
      <trkpt lat="46.13044" lon="1.85911">
        <ele>635.4</ele>
        <time>2022-07-09T12:04:28Z</time>
      </trkpt>
      <trkpt lat="46.13044" lon="1.85911">
        <ele>635.6</ele>
        <time>2022-07-09T12:04:29Z</time>
      </trkpt>
      <trkpt lat="46.13044" lon="1.85911">
        <ele>635.6</ele>
        <time>2022-07-09T12:04:30Z</time>
      </trkpt>
      <trkpt lat="46.13033" lon="1.85903">
        <ele>639</ele>
        <time>2022-07-09T12:05:30Z</time>
      </trkpt>
      <trkpt lat="46.1303" lon="1.85901">
        <ele>640</ele>
        <time>2022-07-09T12:05:33Z</time>
      </trkpt>
      <trkpt lat="46.13028" lon="1.859">
        <ele>640.2</ele>
        <time>2022-07-09T12:05:34Z</time>
      </trkpt>
      <trkpt lat="46.13022" lon="1.85893">
        <ele>641.2</ele>
        <time>2022-07-09T12:05:38Z</time>
      </trkpt>
      <trkpt lat="46.1302" lon="1.85892">
        <ele>641.4</ele>
        <time>2022-07-09T12:05:39Z</time>
      </trkpt>
      <trkpt lat="46.1302" lon="1.85892">
        <ele>642</ele>
        <time>2022-07-09T12:05:42Z</time>
      </trkpt>
      <trkpt lat="46.13018" lon="1.85886">
        <ele>643</ele>
        <time>2022-07-09T12:05:52Z</time>
      </trkpt>
      <trkpt lat="46.13017" lon="1.85882">
        <ele>643</ele>
        <time>2022-07-09T12:05:55Z</time>
      </trkpt>
      <trkpt lat="46.13017" lon="1.85881">
        <ele>643.2</ele>
        <time>2022-07-09T12:05:59Z</time>
      </trkpt>
      <trkpt lat="46.13012" lon="1.85879">
        <ele>644.4</ele>
        <time>2022-07-09T12:06:07Z</time>
      </trkpt>
      <trkpt lat="46.13011" lon="1.85879">
        <ele>644.8</ele>
        <time>2022-07-09T12:06:09Z</time>
      </trkpt>
      <trkpt lat="46.13011" lon="1.85879">
        <ele>645.4</ele>
        <time>2022-07-09T12:06:13Z</time>
      </trkpt>
      <trkpt lat="46.13008" lon="1.85878">
        <ele>645.6</ele>
        <time>2022-07-09T12:06:17Z</time>
      </trkpt>
      <trkpt lat="46.13006" lon="1.85878">
        <ele>645.8</ele>
        <time>2022-07-09T12:06:18Z</time>
      </trkpt>
      <trkpt lat="46.13004" lon="1.85878">
        <ele>646</ele>
        <time>2022-07-09T12:06:21Z</time>
      </trkpt>
      <trkpt lat="46.13004" lon="1.85878">
        <ele>646.2</ele>
        <time>2022-07-09T12:06:23Z</time>
      </trkpt>
      <trkpt lat="46.13001" lon="1.85878">
        <ele>646.6</ele>
        <time>2022-07-09T12:06:34Z</time>
      </trkpt>
      <trkpt lat="46.12997" lon="1.85879">
        <ele>646.8</ele>
        <time>2022-07-09T12:06:37Z</time>
      </trkpt>
      <trkpt lat="46.12992" lon="1.85873">
        <ele>647.8</ele>
        <time>2022-07-09T12:06:48Z</time>
      </trkpt>
      <trkpt lat="46.12992" lon="1.85873">
        <ele>648</ele>
        <time>2022-07-09T12:06:49Z</time>
      </trkpt>
      <trkpt lat="46.12988" lon="1.85865">
        <ele>649</ele>
        <time>2022-07-09T12:06:57Z</time>
      </trkpt>
      <trkpt lat="46.12987" lon="1.85865">
        <ele>649</ele>
        <time>2022-07-09T12:06:58Z</time>
      </trkpt>
      <trkpt lat="46.12987" lon="1.85865">
        <ele>649.2</ele>
        <time>2022-07-09T12:07:01Z</time>
      </trkpt>
      <trkpt lat="46.12986" lon="1.85864">
        <ele>649.4</ele>
        <time>2022-07-09T12:07:03Z</time>
      </trkpt>
      <trkpt lat="46.12983" lon="1.85862">
        <ele>649.8</ele>
        <time>2022-07-09T12:07:06Z</time>
      </trkpt>
      <trkpt lat="46.12958" lon="1.85836">
        <ele>652</ele>
        <time>2022-07-09T12:07:35Z</time>
      </trkpt>
      <trkpt lat="46.12947" lon="1.85822">
        <ele>653</ele>
        <time>2022-07-09T12:07:41Z</time>
      </trkpt>
      <trkpt lat="46.12945" lon="1.8582">
        <ele>653</ele>
        <time>2022-07-09T12:07:42Z</time>
      </trkpt>
      <trkpt lat="46.12937" lon="1.85815">
        <ele>653.4</ele>
        <time>2022-07-09T12:07:45Z</time>
      </trkpt>
      <trkpt lat="46.12934" lon="1.85814">
        <ele>653.6</ele>
        <time>2022-07-09T12:07:48Z</time>
      </trkpt>
      <trkpt lat="46.12926" lon="1.85809">
        <ele>654</ele>
        <time>2022-07-09T12:07:54Z</time>
      </trkpt>
      <trkpt lat="46.12908" lon="1.85802">
        <ele>654.8</ele>
        <time>2022-07-09T12:08:02Z</time>
      </trkpt>
      <trkpt lat="46.12897" lon="1.85799">
        <ele>655.2</ele>
        <time>2022-07-09T12:08:07Z</time>
      </trkpt>
      <trkpt lat="46.12894" lon="1.85797">
        <ele>655.2</ele>
        <time>2022-07-09T12:08:08Z</time>
      </trkpt>
      <trkpt lat="46.12892" lon="1.85797">
        <ele>655.4</ele>
        <time>2022-07-09T12:08:09Z</time>
      </trkpt>
      <trkpt lat="46.12873" lon="1.85799">
        <ele>655.4</ele>
        <time>2022-07-09T12:08:14Z</time>
      </trkpt>
      <trkpt lat="46.12851" lon="1.85802">
        <ele>655.4</ele>
        <time>2022-07-09T12:08:21Z</time>
      </trkpt>
      <trkpt lat="46.1283" lon="1.85812">
        <ele>654.8</ele>
        <time>2022-07-09T12:08:28Z</time>
      </trkpt>
      <trkpt lat="46.1281" lon="1.85807">
        <ele>654</ele>
        <time>2022-07-09T12:08:32Z</time>
      </trkpt>
      <trkpt lat="46.12795" lon="1.85805">
        <ele>653.2</ele>
        <time>2022-07-09T12:08:36Z</time>
      </trkpt>
      <trkpt lat="46.12785" lon="1.85805">
        <ele>653</ele>
        <time>2022-07-09T12:08:38Z</time>
      </trkpt>
      <trkpt lat="46.12784" lon="1.85805">
        <ele>653</ele>
        <time>2022-07-09T12:08:39Z</time>
      </trkpt>
      <trkpt lat="46.12784" lon="1.85805">
        <ele>652.8</ele>
        <time>2022-07-09T12:08:40Z</time>
      </trkpt>
      <trkpt lat="46.12779" lon="1.85805">
        <ele>652.4</ele>
        <time>2022-07-09T12:08:42Z</time>
      </trkpt>
      <trkpt lat="46.12776" lon="1.85804">
        <ele>652.2</ele>
        <time>2022-07-09T12:08:43Z</time>
      </trkpt>
      <trkpt lat="46.1277" lon="1.85801">
        <ele>651.8</ele>
        <time>2022-07-09T12:08:45Z</time>
      </trkpt>
      <trkpt lat="46.12767" lon="1.858">
        <ele>651.4</ele>
        <time>2022-07-09T12:08:47Z</time>
      </trkpt>
      <trkpt lat="46.12764" lon="1.85801">
        <ele>651.2</ele>
        <time>2022-07-09T12:08:48Z</time>
      </trkpt>
      <trkpt lat="46.12753" lon="1.85805">
        <ele>651</ele>
        <time>2022-07-09T12:08:51Z</time>
      </trkpt>
      <trkpt lat="46.1274" lon="1.85805">
        <ele>650.6</ele>
        <time>2022-07-09T12:08:54Z</time>
      </trkpt>
      <trkpt lat="46.12737" lon="1.85804">
        <ele>650.6</ele>
        <time>2022-07-09T12:08:55Z</time>
      </trkpt>
      <trkpt lat="46.12733" lon="1.85806">
        <ele>650.4</ele>
        <time>2022-07-09T12:08:59Z</time>
      </trkpt>
      <trkpt lat="46.12732" lon="1.85806">
        <ele>650.2</ele>
        <time>2022-07-09T12:09:04Z</time>
      </trkpt>
      <trkpt lat="46.12734" lon="1.8581">
        <ele>650.4</ele>
        <time>2022-07-09T12:09:19Z</time>
      </trkpt>
      <trkpt lat="46.12736" lon="1.85815">
        <ele>650.2</ele>
        <time>2022-07-09T12:09:21Z</time>
      </trkpt>
      <trkpt lat="46.12739" lon="1.85836">
        <ele>649</ele>
        <time>2022-07-09T12:09:25Z</time>
      </trkpt>
      <trkpt lat="46.1274" lon="1.85854">
        <ele>647.8</ele>
        <time>2022-07-09T12:09:27Z</time>
      </trkpt>
      <trkpt lat="46.12741" lon="1.85862">
        <ele>647.2</ele>
        <time>2022-07-09T12:09:28Z</time>
      </trkpt>
      <trkpt lat="46.12742" lon="1.85871">
        <ele>646.2</ele>
        <time>2022-07-09T12:09:29Z</time>
      </trkpt>
      <trkpt lat="46.12742" lon="1.85885">
        <ele>644.2</ele>
        <time>2022-07-09T12:09:31Z</time>
      </trkpt>
      <trkpt lat="46.12743" lon="1.85891">
        <ele>643</ele>
        <time>2022-07-09T12:09:32Z</time>
      </trkpt>
      <trkpt lat="46.12744" lon="1.85897">
        <ele>642.4</ele>
        <time>2022-07-09T12:09:33Z</time>
      </trkpt>
      <trkpt lat="46.12744" lon="1.85903">
        <ele>640.8</ele>
        <time>2022-07-09T12:09:34Z</time>
      </trkpt>
      <trkpt lat="46.12745" lon="1.8592">
        <ele>639</ele>
        <time>2022-07-09T12:09:36Z</time>
      </trkpt>
      <trkpt lat="46.12746" lon="1.8593">
        <ele>638</ele>
        <time>2022-07-09T12:09:38Z</time>
      </trkpt>
      <trkpt lat="46.12754" lon="1.85937">
        <ele>636</ele>
        <time>2022-07-09T12:09:41Z</time>
      </trkpt>
      <trkpt lat="46.12756" lon="1.85939">
        <ele>636</ele>
        <time>2022-07-09T12:09:42Z</time>
      </trkpt>
      <trkpt lat="46.12756" lon="1.8594">
        <ele>635</ele>
        <time>2022-07-09T12:09:44Z</time>
      </trkpt>
      <trkpt lat="46.12754" lon="1.85942">
        <ele>634.6</ele>
        <time>2022-07-09T12:09:45Z</time>
      </trkpt>
      <trkpt lat="46.12754" lon="1.85944">
        <ele>634.4</ele>
        <time>2022-07-09T12:09:46Z</time>
      </trkpt>
      <trkpt lat="46.12756" lon="1.8595">
        <ele>634.2</ele>
        <time>2022-07-09T12:09:48Z</time>
      </trkpt>
      <trkpt lat="46.12757" lon="1.85952">
        <ele>634</ele>
        <time>2022-07-09T12:09:49Z</time>
      </trkpt>
      <trkpt lat="46.12757" lon="1.85956">
        <ele>634</ele>
        <time>2022-07-09T12:09:50Z</time>
      </trkpt>
      <trkpt lat="46.12745" lon="1.85964">
        <ele>633</ele>
        <time>2022-07-09T12:09:56Z</time>
      </trkpt>
      <trkpt lat="46.12742" lon="1.85965">
        <ele>632.6</ele>
        <time>2022-07-09T12:09:57Z</time>
      </trkpt>
      <trkpt lat="46.12728" lon="1.85975">
        <ele>631.8</ele>
        <time>2022-07-09T12:10:01Z</time>
      </trkpt>
      <trkpt lat="46.12726" lon="1.85977">
        <ele>631.4</ele>
        <time>2022-07-09T12:10:02Z</time>
      </trkpt>
      <trkpt lat="46.12721" lon="1.85978">
        <ele>631.2</ele>
        <time>2022-07-09T12:10:05Z</time>
      </trkpt>
      <trkpt lat="46.12719" lon="1.85979">
        <ele>631</ele>
        <time>2022-07-09T12:10:06Z</time>
      </trkpt>
      <trkpt lat="46.12719" lon="1.85984">
        <ele>630.8</ele>
        <time>2022-07-09T12:10:08Z</time>
      </trkpt>
      <trkpt lat="46.12726" lon="1.85985">
        <ele>631</ele>
        <time>2022-07-09T12:10:10Z</time>
      </trkpt>
      <trkpt lat="46.12744" lon="1.85973">
        <ele>631</ele>
        <time>2022-07-09T12:10:18Z</time>
      </trkpt>
      <trkpt lat="46.12747" lon="1.85971">
        <ele>631</ele>
        <time>2022-07-09T12:10:20Z</time>
      </trkpt>
      <trkpt lat="46.1275" lon="1.8597">
        <ele>631.2</ele>
        <time>2022-07-09T12:10:22Z</time>
      </trkpt>
      <trkpt lat="46.12752" lon="1.8597">
        <ele>631.4</ele>
        <time>2022-07-09T12:10:24Z</time>
      </trkpt>
      <trkpt lat="46.12756" lon="1.8597">
        <ele>632</ele>
        <time>2022-07-09T12:10:27Z</time>
      </trkpt>
      <trkpt lat="46.12757" lon="1.85967">
        <ele>632</ele>
        <time>2022-07-09T12:10:28Z</time>
      </trkpt>
      <trkpt lat="46.12756" lon="1.85965">
        <ele>632.6</ele>
        <time>2022-07-09T12:10:34Z</time>
      </trkpt>
      <trkpt lat="46.12756" lon="1.85965">
        <ele>632.6</ele>
        <time>2022-07-09T12:10:35Z</time>
      </trkpt>
      <trkpt lat="46.12756" lon="1.85965">
        <ele>632.8</ele>
        <time>2022-07-09T12:10:45Z</time>
      </trkpt>
      <trkpt lat="46.12755" lon="1.85962">
        <ele>633.2</ele>
        <time>2022-07-09T12:10:52Z</time>
      </trkpt>
      <trkpt lat="46.12753" lon="1.85961">
        <ele>633.2</ele>
        <time>2022-07-09T12:10:53Z</time>
      </trkpt>
      <trkpt lat="46.12745" lon="1.8596">
        <ele>633.4</ele>
        <time>2022-07-09T12:10:57Z</time>
      </trkpt>
      <trkpt lat="46.12741" lon="1.8596">
        <ele>633.4</ele>
        <time>2022-07-09T12:11:01Z</time>
      </trkpt>
      <trkpt lat="46.12739" lon="1.85959">
        <ele>633.2</ele>
        <time>2022-07-09T12:11:02Z</time>
      </trkpt>
      <trkpt lat="46.1273" lon="1.85954">
        <ele>633.2</ele>
        <time>2022-07-09T12:11:06Z</time>
      </trkpt>
      <trkpt lat="46.12728" lon="1.85953">
        <ele>633.4</ele>
        <time>2022-07-09T12:11:08Z</time>
      </trkpt>
      <trkpt lat="46.12724" lon="1.85951">
        <ele>633.6</ele>
        <time>2022-07-09T12:11:10Z</time>
      </trkpt>
      <trkpt lat="46.12722" lon="1.85951">
        <ele>633.6</ele>
        <time>2022-07-09T12:11:11Z</time>
      </trkpt>
      <trkpt lat="46.12716" lon="1.85947">
        <ele>634</ele>
        <time>2022-07-09T12:11:14Z</time>
      </trkpt>
      <trkpt lat="46.12712" lon="1.85944">
        <ele>634.4</ele>
        <time>2022-07-09T12:11:16Z</time>
      </trkpt>
      <trkpt lat="46.12711" lon="1.85943">
        <ele>634.4</ele>
        <time>2022-07-09T12:11:17Z</time>
      </trkpt>
      <trkpt lat="46.12711" lon="1.85943">
        <ele>634.6</ele>
        <time>2022-07-09T12:11:19Z</time>
      </trkpt>
      <trkpt lat="46.12707" lon="1.85942">
        <ele>635.4</ele>
        <time>2022-07-09T12:11:22Z</time>
      </trkpt>
      <trkpt lat="46.12702" lon="1.85942">
        <ele>636.2</ele>
        <time>2022-07-09T12:11:26Z</time>
      </trkpt>
      <trkpt lat="46.12702" lon="1.85942">
        <ele>636.6</ele>
        <time>2022-07-09T12:11:27Z</time>
      </trkpt>
      <trkpt lat="46.12702" lon="1.85942">
        <ele>637.4</ele>
        <time>2022-07-09T12:11:30Z</time>
      </trkpt>
      <trkpt lat="46.12698" lon="1.85942">
        <ele>637.6</ele>
        <time>2022-07-09T12:11:39Z</time>
      </trkpt>
      <trkpt lat="46.12696" lon="1.85943">
        <ele>637.6</ele>
        <time>2022-07-09T12:11:40Z</time>
      </trkpt>
      <trkpt lat="46.12691" lon="1.85943">
        <ele>637.6</ele>
        <time>2022-07-09T12:11:42Z</time>
      </trkpt>
      <trkpt lat="46.12681" lon="1.85943">
        <ele>637.6</ele>
        <time>2022-07-09T12:11:45Z</time>
      </trkpt>
      <trkpt lat="46.12677" lon="1.85943">
        <ele>637.6</ele>
        <time>2022-07-09T12:11:46Z</time>
      </trkpt>
      <trkpt lat="46.12674" lon="1.85946">
        <ele>637.4</ele>
        <time>2022-07-09T12:11:51Z</time>
      </trkpt>
      <trkpt lat="46.1267" lon="1.85946">
        <ele>637.2</ele>
        <time>2022-07-09T12:11:54Z</time>
      </trkpt>
      <trkpt lat="46.12666" lon="1.85944">
        <ele>637.2</ele>
        <time>2022-07-09T12:11:56Z</time>
      </trkpt>
      <trkpt lat="46.12664" lon="1.85943">
        <ele>637.2</ele>
        <time>2022-07-09T12:11:57Z</time>
      </trkpt>
      <trkpt lat="46.12661" lon="1.85942">
        <ele>637.4</ele>
        <time>2022-07-09T12:12:01Z</time>
      </trkpt>
      <trkpt lat="46.12661" lon="1.85942">
        <ele>638.6</ele>
        <time>2022-07-09T12:12:05Z</time>
      </trkpt>
      <trkpt lat="46.12651" lon="1.85936">
        <ele>642</ele>
        <time>2022-07-09T12:12:20Z</time>
      </trkpt>
      <trkpt lat="46.12649" lon="1.85935">
        <ele>642.2</ele>
        <time>2022-07-09T12:12:22Z</time>
      </trkpt>
      <trkpt lat="46.12628" lon="1.85927">
        <ele>642.6</ele>
        <time>2022-07-09T12:12:27Z</time>
      </trkpt>
      <trkpt lat="46.12623" lon="1.85925">
        <ele>642.6</ele>
        <time>2022-07-09T12:12:30Z</time>
      </trkpt>
      <trkpt lat="46.12605" lon="1.85914">
        <ele>642</ele>
        <time>2022-07-09T12:12:35Z</time>
      </trkpt>
      <trkpt lat="46.12601" lon="1.85912">
        <ele>641.8</ele>
        <time>2022-07-09T12:12:41Z</time>
      </trkpt>
      <trkpt lat="46.12592" lon="1.85907">
        <ele>642.2</ele>
        <time>2022-07-09T12:12:48Z</time>
      </trkpt>
      <trkpt lat="46.12567" lon="1.85901">
        <ele>641.4</ele>
        <time>2022-07-09T12:12:54Z</time>
      </trkpt>
      <trkpt lat="46.12558" lon="1.85902">
        <ele>640.8</ele>
        <time>2022-07-09T12:12:57Z</time>
      </trkpt>
      <trkpt lat="46.12556" lon="1.85903">
        <ele>640.4</ele>
        <time>2022-07-09T12:12:58Z</time>
      </trkpt>
      <trkpt lat="46.12544" lon="1.85907">
        <ele>639.6</ele>
        <time>2022-07-09T12:13:00Z</time>
      </trkpt>
      <trkpt lat="46.12536" lon="1.85907">
        <ele>639.2</ele>
        <time>2022-07-09T12:13:01Z</time>
      </trkpt>
      <trkpt lat="46.12532" lon="1.85908">
        <ele>638.6</ele>
        <time>2022-07-09T12:13:02Z</time>
      </trkpt>
      <trkpt lat="46.12529" lon="1.85908">
        <ele>638.2</ele>
        <time>2022-07-09T12:13:03Z</time>
      </trkpt>
      <trkpt lat="46.12526" lon="1.85909">
        <ele>637.8</ele>
        <time>2022-07-09T12:13:04Z</time>
      </trkpt>
      <trkpt lat="46.12525" lon="1.85912">
        <ele>637.6</ele>
        <time>2022-07-09T12:13:05Z</time>
      </trkpt>
      <trkpt lat="46.12524" lon="1.85914">
        <ele>636.6</ele>
        <time>2022-07-09T12:13:06Z</time>
      </trkpt>
      <trkpt lat="46.12524" lon="1.85915">
        <ele>635.6</ele>
        <time>2022-07-09T12:13:08Z</time>
      </trkpt>
      <trkpt lat="46.1252" lon="1.85919">
        <ele>634.6</ele>
        <time>2022-07-09T12:13:11Z</time>
      </trkpt>
      <trkpt lat="46.12518" lon="1.85921">
        <ele>634.4</ele>
        <time>2022-07-09T12:13:12Z</time>
      </trkpt>
      <trkpt lat="46.12506" lon="1.85928">
        <ele>633.4</ele>
        <time>2022-07-09T12:13:15Z</time>
      </trkpt>
      <trkpt lat="46.12502" lon="1.85931">
        <ele>633</ele>
        <time>2022-07-09T12:13:16Z</time>
      </trkpt>
      <trkpt lat="46.12491" lon="1.85941">
        <ele>632.8</ele>
        <time>2022-07-09T12:13:18Z</time>
      </trkpt>
      <trkpt lat="46.12481" lon="1.85945">
        <ele>632.4</ele>
        <time>2022-07-09T12:13:20Z</time>
      </trkpt>
      <trkpt lat="46.12477" lon="1.85947">
        <ele>632</ele>
        <time>2022-07-09T12:13:21Z</time>
      </trkpt>
      <trkpt lat="46.12471" lon="1.85949">
        <ele>631.6</ele>
        <time>2022-07-09T12:13:23Z</time>
      </trkpt>
      <trkpt lat="46.12466" lon="1.85952">
        <ele>631.4</ele>
        <time>2022-07-09T12:13:25Z</time>
      </trkpt>
      <trkpt lat="46.12465" lon="1.85955">
        <ele>631.4</ele>
        <time>2022-07-09T12:13:26Z</time>
      </trkpt>
      <trkpt lat="46.12468" lon="1.85964">
        <ele>631.2</ele>
        <time>2022-07-09T12:13:29Z</time>
      </trkpt>
      <trkpt lat="46.12471" lon="1.85967">
        <ele>631.2</ele>
        <time>2022-07-09T12:13:31Z</time>
      </trkpt>
      <trkpt lat="46.12473" lon="1.85971">
        <ele>630.8</ele>
        <time>2022-07-09T12:13:33Z</time>
      </trkpt>
      <trkpt lat="46.12475" lon="1.85977">
        <ele>630.6</ele>
        <time>2022-07-09T12:13:35Z</time>
      </trkpt>
      <trkpt lat="46.12478" lon="1.85984">
        <ele>630.2</ele>
        <time>2022-07-09T12:13:37Z</time>
      </trkpt>
      <trkpt lat="46.12484" lon="1.85991">
        <ele>629.6</ele>
        <time>2022-07-09T12:13:39Z</time>
      </trkpt>
      <trkpt lat="46.12484" lon="1.85993">
        <ele>629.2</ele>
        <time>2022-07-09T12:13:40Z</time>
      </trkpt>
      <trkpt lat="46.12483" lon="1.85996">
        <ele>628.6</ele>
        <time>2022-07-09T12:13:41Z</time>
      </trkpt>
      <trkpt lat="46.12474" lon="1.86006">
        <ele>627.2</ele>
        <time>2022-07-09T12:13:44Z</time>
      </trkpt>
      <trkpt lat="46.1247" lon="1.86009">
        <ele>627</ele>
        <time>2022-07-09T12:13:45Z</time>
      </trkpt>
      <trkpt lat="46.12465" lon="1.8602">
        <ele>625.8</ele>
        <time>2022-07-09T12:13:48Z</time>
      </trkpt>
      <trkpt lat="46.12462" lon="1.86023">
        <ele>625.6</ele>
        <time>2022-07-09T12:13:49Z</time>
      </trkpt>
      <trkpt lat="46.12456" lon="1.86028">
        <ele>624.6</ele>
        <time>2022-07-09T12:13:51Z</time>
      </trkpt>
      <trkpt lat="46.12453" lon="1.86035">
        <ele>624</ele>
        <time>2022-07-09T12:13:53Z</time>
      </trkpt>
      <trkpt lat="46.12452" lon="1.86039">
        <ele>623.6</ele>
        <time>2022-07-09T12:13:54Z</time>
      </trkpt>
      <trkpt lat="46.12445" lon="1.86053">
        <ele>622.6</ele>
        <time>2022-07-09T12:13:58Z</time>
      </trkpt>
      <trkpt lat="46.12432" lon="1.8607">
        <ele>622.2</ele>
        <time>2022-07-09T12:14:02Z</time>
      </trkpt>
      <trkpt lat="46.12428" lon="1.86074">
        <ele>622</ele>
        <time>2022-07-09T12:14:03Z</time>
      </trkpt>
      <trkpt lat="46.12425" lon="1.86077">
        <ele>622</ele>
        <time>2022-07-09T12:14:04Z</time>
      </trkpt>
      <trkpt lat="46.12413" lon="1.86084">
        <ele>621</ele>
        <time>2022-07-09T12:14:07Z</time>
      </trkpt>
      <trkpt lat="46.12396" lon="1.86091">
        <ele>620</ele>
        <time>2022-07-09T12:14:11Z</time>
      </trkpt>
      <trkpt lat="46.12389" lon="1.86092">
        <ele>620</ele>
        <time>2022-07-09T12:14:12Z</time>
      </trkpt>
      <trkpt lat="46.12373" lon="1.86091">
        <ele>618.8</ele>
        <time>2022-07-09T12:14:15Z</time>
      </trkpt>
      <trkpt lat="46.12361" lon="1.86085">
        <ele>617.8</ele>
        <time>2022-07-09T12:14:17Z</time>
      </trkpt>
      <trkpt lat="46.12355" lon="1.8608">
        <ele>617</ele>
        <time>2022-07-09T12:14:18Z</time>
      </trkpt>
      <trkpt lat="46.12353" lon="1.86079">
        <ele>616.6</ele>
        <time>2022-07-09T12:14:19Z</time>
      </trkpt>
      <trkpt lat="46.12349" lon="1.86077">
        <ele>615.4</ele>
        <time>2022-07-09T12:14:21Z</time>
      </trkpt>
      <trkpt lat="46.12343" lon="1.86078">
        <ele>614.6</ele>
        <time>2022-07-09T12:14:23Z</time>
      </trkpt>
      <trkpt lat="46.12339" lon="1.86082">
        <ele>614</ele>
        <time>2022-07-09T12:14:25Z</time>
      </trkpt>
      <trkpt lat="46.12325" lon="1.86096">
        <ele>613.4</ele>
        <time>2022-07-09T12:14:29Z</time>
      </trkpt>
      <trkpt lat="46.12323" lon="1.86097">
        <ele>612.6</ele>
        <time>2022-07-09T12:14:30Z</time>
      </trkpt>
      <trkpt lat="46.12323" lon="1.86098">
        <ele>611.4</ele>
        <time>2022-07-09T12:14:32Z</time>
      </trkpt>
      <trkpt lat="46.12323" lon="1.86098">
        <ele>610.8</ele>
        <time>2022-07-09T12:14:33Z</time>
      </trkpt>
      <trkpt lat="46.12322" lon="1.86098">
        <ele>607.8</ele>
        <time>2022-07-09T12:14:38Z</time>
      </trkpt>
      <trkpt lat="46.12322" lon="1.861">
        <ele>607.6</ele>
        <time>2022-07-09T12:14:39Z</time>
      </trkpt>
      <trkpt lat="46.12321" lon="1.86108">
        <ele>607.4</ele>
        <time>2022-07-09T12:14:41Z</time>
      </trkpt>
      <trkpt lat="46.12321" lon="1.86112">
        <ele>607.4</ele>
        <time>2022-07-09T12:14:42Z</time>
      </trkpt>
      <trkpt lat="46.12317" lon="1.86123">
        <ele>606.8</ele>
        <time>2022-07-09T12:14:45Z</time>
      </trkpt>
      <trkpt lat="46.12314" lon="1.86126">
        <ele>606.4</ele>
        <time>2022-07-09T12:14:46Z</time>
      </trkpt>
      <trkpt lat="46.1231" lon="1.86131">
        <ele>605.4</ele>
        <time>2022-07-09T12:14:48Z</time>
      </trkpt>
      <trkpt lat="46.12307" lon="1.86133">
        <ele>604</ele>
        <time>2022-07-09T12:14:50Z</time>
      </trkpt>
      <trkpt lat="46.12304" lon="1.86132">
        <ele>603</ele>
        <time>2022-07-09T12:14:52Z</time>
      </trkpt>
      <trkpt lat="46.12299" lon="1.86132">
        <ele>601</ele>
        <time>2022-07-09T12:14:55Z</time>
      </trkpt>
      <trkpt lat="46.12296" lon="1.86131">
        <ele>600.8</ele>
        <time>2022-07-09T12:14:56Z</time>
      </trkpt>
      <trkpt lat="46.1229" lon="1.86131">
        <ele>599.2</ele>
        <time>2022-07-09T12:14:58Z</time>
      </trkpt>
      <trkpt lat="46.12278" lon="1.8613">
        <ele>598.2</ele>
        <time>2022-07-09T12:15:01Z</time>
      </trkpt>
      <trkpt lat="46.12272" lon="1.86128">
        <ele>597</ele>
        <time>2022-07-09T12:15:03Z</time>
      </trkpt>
      <trkpt lat="46.12268" lon="1.86129">
        <ele>596.6</ele>
        <time>2022-07-09T12:15:04Z</time>
      </trkpt>
      <trkpt lat="46.12265" lon="1.86129">
        <ele>595.8</ele>
        <time>2022-07-09T12:15:05Z</time>
      </trkpt>
      <trkpt lat="46.12258" lon="1.86131">
        <ele>594.8</ele>
        <time>2022-07-09T12:15:09Z</time>
      </trkpt>
      <trkpt lat="46.12257" lon="1.86133">
        <ele>594.8</ele>
        <time>2022-07-09T12:15:10Z</time>
      </trkpt>
      <trkpt lat="46.12256" lon="1.86135">
        <ele>593.8</ele>
        <time>2022-07-09T12:15:13Z</time>
      </trkpt>
      <trkpt lat="46.12251" lon="1.86143">
        <ele>592.6</ele>
        <time>2022-07-09T12:15:15Z</time>
      </trkpt>
      <trkpt lat="46.12251" lon="1.86155">
        <ele>591.6</ele>
        <time>2022-07-09T12:15:18Z</time>
      </trkpt>
      <trkpt lat="46.1225" lon="1.8616">
        <ele>591.4</ele>
        <time>2022-07-09T12:15:19Z</time>
      </trkpt>
      <trkpt lat="46.12248" lon="1.86174">
        <ele>590.8</ele>
        <time>2022-07-09T12:15:21Z</time>
      </trkpt>
      <trkpt lat="46.12244" lon="1.8619">
        <ele>590</ele>
        <time>2022-07-09T12:15:23Z</time>
      </trkpt>
      <trkpt lat="46.12241" lon="1.86195">
        <ele>590</ele>
        <time>2022-07-09T12:15:24Z</time>
      </trkpt>
      <trkpt lat="46.12239" lon="1.86199">
        <ele>589.6</ele>
        <time>2022-07-09T12:15:25Z</time>
      </trkpt>
      <trkpt lat="46.12234" lon="1.86206">
        <ele>588.2</ele>
        <time>2022-07-09T12:15:27Z</time>
      </trkpt>
      <trkpt lat="46.12227" lon="1.86214">
        <ele>587.2</ele>
        <time>2022-07-09T12:15:29Z</time>
      </trkpt>
      <trkpt lat="46.12218" lon="1.86221">
        <ele>586</ele>
        <time>2022-07-09T12:15:32Z</time>
      </trkpt>
      <trkpt lat="46.12216" lon="1.86221">
        <ele>585.8</ele>
        <time>2022-07-09T12:15:33Z</time>
      </trkpt>
      <trkpt lat="46.12215" lon="1.86222">
        <ele>585</ele>
        <time>2022-07-09T12:15:38Z</time>
      </trkpt>
      <trkpt lat="46.12208" lon="1.86226">
        <ele>584.2</ele>
        <time>2022-07-09T12:16:12Z</time>
      </trkpt>
      <trkpt lat="46.12207" lon="1.86227">
        <ele>584.2</ele>
        <time>2022-07-09T12:16:16Z</time>
      </trkpt>
      <trkpt lat="46.12206" lon="1.86227">
        <ele>584.2</ele>
        <time>2022-07-09T12:16:18Z</time>
      </trkpt>
      <trkpt lat="46.12206" lon="1.86227">
        <ele>584.2</ele>
        <time>2022-07-09T12:16:22Z</time>
      </trkpt>
      <trkpt lat="46.12205" lon="1.86228">
        <ele>584.2</ele>
        <time>2022-07-09T12:16:25Z</time>
      </trkpt>
      <trkpt lat="46.12197" lon="1.86231">
        <ele>584.8</ele>
        <time>2022-07-09T12:16:32Z</time>
      </trkpt>
      <trkpt lat="46.12194" lon="1.86232">
        <ele>585.2</ele>
        <time>2022-07-09T12:16:35Z</time>
      </trkpt>
      <trkpt lat="46.12192" lon="1.86233">
        <ele>585.4</ele>
        <time>2022-07-09T12:16:38Z</time>
      </trkpt>
      <trkpt lat="46.12181" lon="1.86242">
        <ele>586.2</ele>
        <time>2022-07-09T12:16:43Z</time>
      </trkpt>
      <trkpt lat="46.1218" lon="1.86243">
        <ele>586.4</ele>
        <time>2022-07-09T12:16:44Z</time>
      </trkpt>
      <trkpt lat="46.12179" lon="1.86248">
        <ele>587.2</ele>
        <time>2022-07-09T12:16:49Z</time>
      </trkpt>
      <trkpt lat="46.12171" lon="1.86251">
        <ele>588.2</ele>
        <time>2022-07-09T12:16:54Z</time>
      </trkpt>
      <trkpt lat="46.12171" lon="1.86252">
        <ele>588.2</ele>
        <time>2022-07-09T12:16:55Z</time>
      </trkpt>
      <trkpt lat="46.12168" lon="1.86252">
        <ele>588.6</ele>
        <time>2022-07-09T12:16:58Z</time>
      </trkpt>
      <trkpt lat="46.12167" lon="1.86253">
        <ele>588.8</ele>
        <time>2022-07-09T12:16:59Z</time>
      </trkpt>
      <trkpt lat="46.12161" lon="1.86257">
        <ele>589.4</ele>
        <time>2022-07-09T12:17:04Z</time>
      </trkpt>
      <trkpt lat="46.1216" lon="1.86258">
        <ele>589.8</ele>
        <time>2022-07-09T12:17:06Z</time>
      </trkpt>
      <trkpt lat="46.1216" lon="1.86258">
        <ele>589.8</ele>
        <time>2022-07-09T12:17:07Z</time>
      </trkpt>
      <trkpt lat="46.12153" lon="1.86261">
        <ele>590.6</ele>
        <time>2022-07-09T12:17:13Z</time>
      </trkpt>
      <trkpt lat="46.12146" lon="1.86263">
        <ele>591</ele>
        <time>2022-07-09T12:17:17Z</time>
      </trkpt>
      <trkpt lat="46.12142" lon="1.86263">
        <ele>591.4</ele>
        <time>2022-07-09T12:17:19Z</time>
      </trkpt>
      <trkpt lat="46.1214" lon="1.86264">
        <ele>591.6</ele>
        <time>2022-07-09T12:17:20Z</time>
      </trkpt>
      <trkpt lat="46.12129" lon="1.86271">
        <ele>592.4</ele>
        <time>2022-07-09T12:17:25Z</time>
      </trkpt>
      <trkpt lat="46.12129" lon="1.86272">
        <ele>592.6</ele>
        <time>2022-07-09T12:17:27Z</time>
      </trkpt>
      <trkpt lat="46.12128" lon="1.86275">
        <ele>592.8</ele>
        <time>2022-07-09T12:17:30Z</time>
      </trkpt>
      <trkpt lat="46.12124" lon="1.86278">
        <ele>593.2</ele>
        <time>2022-07-09T12:17:32Z</time>
      </trkpt>
      <trkpt lat="46.1212" lon="1.86282">
        <ele>594</ele>
        <time>2022-07-09T12:17:39Z</time>
      </trkpt>
      <trkpt lat="46.12118" lon="1.86284">
        <ele>594.2</ele>
        <time>2022-07-09T12:17:40Z</time>
      </trkpt>
      <trkpt lat="46.12104" lon="1.86293">
        <ele>595.2</ele>
        <time>2022-07-09T12:17:46Z</time>
      </trkpt>
      <trkpt lat="46.12103" lon="1.86294">
        <ele>595.4</ele>
        <time>2022-07-09T12:17:47Z</time>
      </trkpt>
      <trkpt lat="46.12085" lon="1.86307">
        <ele>596.4</ele>
        <time>2022-07-09T12:17:54Z</time>
      </trkpt>
      <trkpt lat="46.12083" lon="1.86309">
        <ele>596.6</ele>
        <time>2022-07-09T12:17:55Z</time>
      </trkpt>
      <trkpt lat="46.12082" lon="1.86318">
        <ele>597</ele>
        <time>2022-07-09T12:17:58Z</time>
      </trkpt>
      <trkpt lat="46.12078" lon="1.86324">
        <ele>597.4</ele>
        <time>2022-07-09T12:18:01Z</time>
      </trkpt>
      <trkpt lat="46.12077" lon="1.86326">
        <ele>597.6</ele>
        <time>2022-07-09T12:18:02Z</time>
      </trkpt>
      <trkpt lat="46.12077" lon="1.86326">
        <ele>597.8</ele>
        <time>2022-07-09T12:18:05Z</time>
      </trkpt>
      <trkpt lat="46.12077" lon="1.86327">
        <ele>597.8</ele>
        <time>2022-07-09T12:18:41Z</time>
      </trkpt>
      <trkpt lat="46.12075" lon="1.86328">
        <ele>597.8</ele>
        <time>2022-07-09T12:18:42Z</time>
      </trkpt>
      <trkpt lat="46.12064" lon="1.86334">
        <ele>597.4</ele>
        <time>2022-07-09T12:18:48Z</time>
      </trkpt>
      <trkpt lat="46.12061" lon="1.86334">
        <ele>597.4</ele>
        <time>2022-07-09T12:18:49Z</time>
      </trkpt>
      <trkpt lat="46.12052" lon="1.8634">
        <ele>597.4</ele>
        <time>2022-07-09T12:18:52Z</time>
      </trkpt>
      <trkpt lat="46.12049" lon="1.86349">
        <ele>597.6</ele>
        <time>2022-07-09T12:18:54Z</time>
      </trkpt>
      <trkpt lat="46.12045" lon="1.86363">
        <ele>597.8</ele>
        <time>2022-07-09T12:18:58Z</time>
      </trkpt>
      <trkpt lat="46.12045" lon="1.86367">
        <ele>597.8</ele>
        <time>2022-07-09T12:18:59Z</time>
      </trkpt>
      <trkpt lat="46.12043" lon="1.86374">
        <ele>598.2</ele>
        <time>2022-07-09T12:19:01Z</time>
      </trkpt>
      <trkpt lat="46.12042" lon="1.8638">
        <ele>598.4</ele>
        <time>2022-07-09T12:19:03Z</time>
      </trkpt>
      <trkpt lat="46.12042" lon="1.86384">
        <ele>598.6</ele>
        <time>2022-07-09T12:19:04Z</time>
      </trkpt>
      <trkpt lat="46.12043" lon="1.86387">
        <ele>599</ele>
        <time>2022-07-09T12:19:05Z</time>
      </trkpt>
      <trkpt lat="46.12043" lon="1.86399">
        <ele>599.6</ele>
        <time>2022-07-09T12:19:10Z</time>
      </trkpt>
      <trkpt lat="46.12043" lon="1.86403">
        <ele>600</ele>
        <time>2022-07-09T12:19:12Z</time>
      </trkpt>
      <trkpt lat="46.12043" lon="1.86408">
        <ele>600.8</ele>
        <time>2022-07-09T12:19:16Z</time>
      </trkpt>
      <trkpt lat="46.12043" lon="1.8641">
        <ele>601.4</ele>
        <time>2022-07-09T12:19:18Z</time>
      </trkpt>
      <trkpt lat="46.12043" lon="1.8641">
        <ele>601.8</ele>
        <time>2022-07-09T12:19:19Z</time>
      </trkpt>
      <trkpt lat="46.12043" lon="1.86412">
        <ele>602.8</ele>
        <time>2022-07-09T12:19:24Z</time>
      </trkpt>
      <trkpt lat="46.12043" lon="1.86414">
        <ele>602.8</ele>
        <time>2022-07-09T12:19:25Z</time>
      </trkpt>
      <trkpt lat="46.12043" lon="1.86415">
        <ele>603</ele>
        <time>2022-07-09T12:19:27Z</time>
      </trkpt>
      <trkpt lat="46.12045" lon="1.86418">
        <ele>603.2</ele>
        <time>2022-07-09T12:19:29Z</time>
      </trkpt>
      <trkpt lat="46.12045" lon="1.86418">
        <ele>603.4</ele>
        <time>2022-07-09T12:19:30Z</time>
      </trkpt>
      <trkpt lat="46.12045" lon="1.86419">
        <ele>604</ele>
        <time>2022-07-09T12:19:33Z</time>
      </trkpt>
      <trkpt lat="46.12045" lon="1.86419">
        <ele>605.2</ele>
        <time>2022-07-09T12:19:38Z</time>
      </trkpt>
      <trkpt lat="46.12045" lon="1.86425">
        <ele>606.2</ele>
        <time>2022-07-09T12:19:44Z</time>
      </trkpt>
      <trkpt lat="46.12045" lon="1.86427">
        <ele>606.2</ele>
        <time>2022-07-09T12:19:45Z</time>
      </trkpt>
      <trkpt lat="46.12047" lon="1.86434">
        <ele>607.4</ele>
        <time>2022-07-09T12:19:49Z</time>
      </trkpt>
      <trkpt lat="46.12046" lon="1.86434">
        <ele>608</ele>
        <time>2022-07-09T12:19:52Z</time>
      </trkpt>
      <trkpt lat="46.12046" lon="1.86436">
        <ele>608.6</ele>
        <time>2022-07-09T12:19:54Z</time>
      </trkpt>
      <trkpt lat="46.12045" lon="1.8644">
        <ele>609</ele>
        <time>2022-07-09T12:19:58Z</time>
      </trkpt>
      <trkpt lat="46.12042" lon="1.86445">
        <ele>609.6</ele>
        <time>2022-07-09T12:20:01Z</time>
      </trkpt>
      <trkpt lat="46.12039" lon="1.86447">
        <ele>610</ele>
        <time>2022-07-09T12:20:04Z</time>
      </trkpt>
      <trkpt lat="46.12038" lon="1.86453">
        <ele>610.6</ele>
        <time>2022-07-09T12:20:09Z</time>
      </trkpt>
      <trkpt lat="46.12038" lon="1.86453">
        <ele>610.6</ele>
        <time>2022-07-09T12:20:12Z</time>
      </trkpt>
      <trkpt lat="46.12037" lon="1.86458">
        <ele>610.6</ele>
        <time>2022-07-09T12:20:17Z</time>
      </trkpt>
      <trkpt lat="46.12035" lon="1.86461">
        <ele>610.4</ele>
        <time>2022-07-09T12:20:19Z</time>
      </trkpt>
      <trkpt lat="46.12033" lon="1.8647">
        <ele>610.4</ele>
        <time>2022-07-09T12:20:23Z</time>
      </trkpt>
      <trkpt lat="46.12032" lon="1.86471">
        <ele>610.4</ele>
        <time>2022-07-09T12:20:24Z</time>
      </trkpt>
      <trkpt lat="46.1203" lon="1.86473">
        <ele>610.4</ele>
        <time>2022-07-09T12:20:26Z</time>
      </trkpt>
      <trkpt lat="46.12026" lon="1.86474">
        <ele>610.6</ele>
        <time>2022-07-09T12:20:30Z</time>
      </trkpt>
      <trkpt lat="46.12025" lon="1.86476">
        <ele>611</ele>
        <time>2022-07-09T12:20:32Z</time>
      </trkpt>
      <trkpt lat="46.12022" lon="1.86482">
        <ele>611.4</ele>
        <time>2022-07-09T12:20:35Z</time>
      </trkpt>
      <trkpt lat="46.12023" lon="1.86487">
        <ele>611.4</ele>
        <time>2022-07-09T12:20:37Z</time>
      </trkpt>
      <trkpt lat="46.12024" lon="1.8649">
        <ele>611.6</ele>
        <time>2022-07-09T12:20:38Z</time>
      </trkpt>
      <trkpt lat="46.12024" lon="1.86493">
        <ele>611.8</ele>
        <time>2022-07-09T12:20:40Z</time>
      </trkpt>
      <trkpt lat="46.12024" lon="1.86495">
        <ele>612</ele>
        <time>2022-07-09T12:20:41Z</time>
      </trkpt>
      <trkpt lat="46.12023" lon="1.865">
        <ele>612.4</ele>
        <time>2022-07-09T12:20:44Z</time>
      </trkpt>
      <trkpt lat="46.12023" lon="1.86501">
        <ele>612.6</ele>
        <time>2022-07-09T12:20:45Z</time>
      </trkpt>
      <trkpt lat="46.12022" lon="1.86503">
        <ele>612.8</ele>
        <time>2022-07-09T12:20:46Z</time>
      </trkpt>
      <trkpt lat="46.12019" lon="1.8651">
        <ele>613.6</ele>
        <time>2022-07-09T12:20:54Z</time>
      </trkpt>
      <trkpt lat="46.12019" lon="1.86513">
        <ele>614.8</ele>
        <time>2022-07-09T12:21:22Z</time>
      </trkpt>
      <trkpt lat="46.12018" lon="1.86517">
        <ele>615.2</ele>
        <time>2022-07-09T12:21:26Z</time>
      </trkpt>
      <trkpt lat="46.12016" lon="1.86523">
        <ele>615.8</ele>
        <time>2022-07-09T12:21:31Z</time>
      </trkpt>
      <trkpt lat="46.12015" lon="1.86525">
        <ele>615.8</ele>
        <time>2022-07-09T12:21:32Z</time>
      </trkpt>
      <trkpt lat="46.12015" lon="1.86531">
        <ele>616.6</ele>
        <time>2022-07-09T12:21:37Z</time>
      </trkpt>
      <trkpt lat="46.12015" lon="1.86531">
        <ele>617</ele>
        <time>2022-07-09T12:21:38Z</time>
      </trkpt>
      <trkpt lat="46.12016" lon="1.86534">
        <ele>617.2</ele>
        <time>2022-07-09T12:21:40Z</time>
      </trkpt>
      <trkpt lat="46.12017" lon="1.8654">
        <ele>618</ele>
        <time>2022-07-09T12:21:46Z</time>
      </trkpt>
      <trkpt lat="46.12016" lon="1.86546">
        <ele>618.6</ele>
        <time>2022-07-09T12:21:51Z</time>
      </trkpt>
      <trkpt lat="46.12016" lon="1.86547">
        <ele>618.6</ele>
        <time>2022-07-09T12:21:52Z</time>
      </trkpt>
      <trkpt lat="46.12014" lon="1.8655">
        <ele>619</ele>
        <time>2022-07-09T12:21:54Z</time>
      </trkpt>
      <trkpt lat="46.12012" lon="1.86555">
        <ele>619.4</ele>
        <time>2022-07-09T12:21:57Z</time>
      </trkpt>
      <trkpt lat="46.12012" lon="1.86555">
        <ele>619.8</ele>
        <time>2022-07-09T12:22:00Z</time>
      </trkpt>
      <trkpt lat="46.12012" lon="1.86556">
        <ele>620</ele>
        <time>2022-07-09T12:22:02Z</time>
      </trkpt>
      <trkpt lat="46.12011" lon="1.86559">
        <ele>620.4</ele>
        <time>2022-07-09T12:22:05Z</time>
      </trkpt>
      <trkpt lat="46.12011" lon="1.86561">
        <ele>620.4</ele>
        <time>2022-07-09T12:22:06Z</time>
      </trkpt>
      <trkpt lat="46.12011" lon="1.86566">
        <ele>620.8</ele>
        <time>2022-07-09T12:22:11Z</time>
      </trkpt>
      <trkpt lat="46.12011" lon="1.86567">
        <ele>621.2</ele>
        <time>2022-07-09T12:22:14Z</time>
      </trkpt>
      <trkpt lat="46.12011" lon="1.8657">
        <ele>621.6</ele>
        <time>2022-07-09T12:22:17Z</time>
      </trkpt>
      <trkpt lat="46.12014" lon="1.8658">
        <ele>622</ele>
        <time>2022-07-09T12:22:22Z</time>
      </trkpt>
      <trkpt lat="46.12014" lon="1.86583">
        <ele>622.2</ele>
        <time>2022-07-09T12:22:23Z</time>
      </trkpt>
      <trkpt lat="46.12016" lon="1.86587">
        <ele>622.6</ele>
        <time>2022-07-09T12:22:25Z</time>
      </trkpt>
      <trkpt lat="46.12019" lon="1.86602">
        <ele>623.4</ele>
        <time>2022-07-09T12:22:32Z</time>
      </trkpt>
      <trkpt lat="46.12029" lon="1.86622">
        <ele>623.6</ele>
        <time>2022-07-09T12:22:40Z</time>
      </trkpt>
      <trkpt lat="46.12036" lon="1.86638">
        <ele>623.6</ele>
        <time>2022-07-09T12:22:46Z</time>
      </trkpt>
      <trkpt lat="46.12037" lon="1.86643">
        <ele>623.8</ele>
        <time>2022-07-09T12:22:48Z</time>
      </trkpt>
      <trkpt lat="46.12039" lon="1.86653">
        <ele>624.2</ele>
        <time>2022-07-09T12:22:54Z</time>
      </trkpt>
      <trkpt lat="46.1204" lon="1.86658">
        <ele>624.2</ele>
        <time>2022-07-09T12:22:55Z</time>
      </trkpt>
      <trkpt lat="46.12041" lon="1.86669">
        <ele>625.2</ele>
        <time>2022-07-09T12:22:59Z</time>
      </trkpt>
      <trkpt lat="46.12042" lon="1.86671">
        <ele>625.6</ele>
        <time>2022-07-09T12:23:00Z</time>
      </trkpt>
      <trkpt lat="46.12044" lon="1.86679">
        <ele>626</ele>
        <time>2022-07-09T12:23:03Z</time>
      </trkpt>
      <trkpt lat="46.12044" lon="1.86679">
        <ele>626</ele>
        <time>2022-07-09T12:23:04Z</time>
      </trkpt>
      <trkpt lat="46.12044" lon="1.86694">
        <ele>626.6</ele>
        <time>2022-07-09T12:23:08Z</time>
      </trkpt>
      <trkpt lat="46.12044" lon="1.86694">
        <ele>626.8</ele>
        <time>2022-07-09T12:23:09Z</time>
      </trkpt>
      <trkpt lat="46.12044" lon="1.86694">
        <ele>627.6</ele>
        <time>2022-07-09T12:23:14Z</time>
      </trkpt>
      <trkpt lat="46.12044" lon="1.86694">
        <ele>627.8</ele>
        <time>2022-07-09T12:23:15Z</time>
      </trkpt>
      <trkpt lat="46.12042" lon="1.86707">
        <ele>629.4</ele>
        <time>2022-07-09T12:23:37Z</time>
      </trkpt>
      <trkpt lat="46.12043" lon="1.8671">
        <ele>629.4</ele>
        <time>2022-07-09T12:23:38Z</time>
      </trkpt>
      <trkpt lat="46.12043" lon="1.86711">
        <ele>630.6</ele>
        <time>2022-07-09T12:23:42Z</time>
      </trkpt>
      <trkpt lat="46.1204" lon="1.86715">
        <ele>631.4</ele>
        <time>2022-07-09T12:23:48Z</time>
      </trkpt>
      <trkpt lat="46.1204" lon="1.86717">
        <ele>631.6</ele>
        <time>2022-07-09T12:23:49Z</time>
      </trkpt>
      <trkpt lat="46.12039" lon="1.86722">
        <ele>632.8</ele>
        <time>2022-07-09T12:23:57Z</time>
      </trkpt>
      <trkpt lat="46.12039" lon="1.86722">
        <ele>633</ele>
        <time>2022-07-09T12:23:58Z</time>
      </trkpt>
      <trkpt lat="46.12031" lon="1.86752">
        <ele>639.4</ele>
        <time>2022-07-09T12:24:30Z</time>
      </trkpt>
      <trkpt lat="46.12032" lon="1.86754">
        <ele>639.4</ele>
        <time>2022-07-09T12:24:31Z</time>
      </trkpt>
      <trkpt lat="46.12033" lon="1.86763">
        <ele>639.6</ele>
        <time>2022-07-09T12:24:33Z</time>
      </trkpt>
      <trkpt lat="46.12031" lon="1.86773">
        <ele>639.8</ele>
        <time>2022-07-09T12:24:36Z</time>
      </trkpt>
      <trkpt lat="46.12031" lon="1.86776">
        <ele>639.8</ele>
        <time>2022-07-09T12:24:37Z</time>
      </trkpt>
      <trkpt lat="46.12024" lon="1.86809">
        <ele>640</ele>
        <time>2022-07-09T12:24:46Z</time>
      </trkpt>
      <trkpt lat="46.12022" lon="1.86835">
        <ele>640.2</ele>
        <time>2022-07-09T12:24:51Z</time>
      </trkpt>
      <trkpt lat="46.12021" lon="1.8684">
        <ele>640.4</ele>
        <time>2022-07-09T12:24:52Z</time>
      </trkpt>
      <trkpt lat="46.12022" lon="1.8685">
        <ele>640.4</ele>
        <time>2022-07-09T12:24:55Z</time>
      </trkpt>
      <trkpt lat="46.12021" lon="1.86869">
        <ele>640.4</ele>
        <time>2022-07-09T12:24:59Z</time>
      </trkpt>
      <trkpt lat="46.12021" lon="1.86874">
        <ele>640.4</ele>
        <time>2022-07-09T12:25:00Z</time>
      </trkpt>
      <trkpt lat="46.12019" lon="1.86885">
        <ele>640.4</ele>
        <time>2022-07-09T12:25:03Z</time>
      </trkpt>
      <trkpt lat="46.12018" lon="1.86901">
        <ele>640.4</ele>
        <time>2022-07-09T12:25:06Z</time>
      </trkpt>
      <trkpt lat="46.12015" lon="1.86918">
        <ele>640.2</ele>
        <time>2022-07-09T12:25:13Z</time>
      </trkpt>
      <trkpt lat="46.12012" lon="1.86923">
        <ele>640.4</ele>
        <time>2022-07-09T12:25:16Z</time>
      </trkpt>
      <trkpt lat="46.12011" lon="1.86925">
        <ele>640.6</ele>
        <time>2022-07-09T12:25:18Z</time>
      </trkpt>
      <trkpt lat="46.12007" lon="1.86928">
        <ele>641</ele>
        <time>2022-07-09T12:25:22Z</time>
      </trkpt>
      <trkpt lat="46.12005" lon="1.86928">
        <ele>641.2</ele>
        <time>2022-07-09T12:25:24Z</time>
      </trkpt>
      <trkpt lat="46.12004" lon="1.86929">
        <ele>641.8</ele>
        <time>2022-07-09T12:25:27Z</time>
      </trkpt>
      <trkpt lat="46.12" lon="1.86928">
        <ele>642.4</ele>
        <time>2022-07-09T12:25:31Z</time>
      </trkpt>
      <trkpt lat="46.11995" lon="1.86928">
        <ele>642.8</ele>
        <time>2022-07-09T12:25:34Z</time>
      </trkpt>
      <trkpt lat="46.11986" lon="1.86931">
        <ele>643.2</ele>
        <time>2022-07-09T12:25:38Z</time>
      </trkpt>
      <trkpt lat="46.11971" lon="1.86944">
        <ele>643.6</ele>
        <time>2022-07-09T12:25:44Z</time>
      </trkpt>
      <trkpt lat="46.11971" lon="1.86969">
        <ele>643.2</ele>
        <time>2022-07-09T12:25:49Z</time>
      </trkpt>
      <trkpt lat="46.11966" lon="1.86997">
        <ele>642.8</ele>
        <time>2022-07-09T12:25:55Z</time>
      </trkpt>
      <trkpt lat="46.11966" lon="1.87011">
        <ele>642.8</ele>
        <time>2022-07-09T12:25:58Z</time>
      </trkpt>
      <trkpt lat="46.11964" lon="1.87018">
        <ele>642.8</ele>
        <time>2022-07-09T12:26:00Z</time>
      </trkpt>
      <trkpt lat="46.11942" lon="1.87037">
        <ele>642.6</ele>
        <time>2022-07-09T12:26:08Z</time>
      </trkpt>
      <trkpt lat="46.11927" lon="1.87065">
        <ele>642.2</ele>
        <time>2022-07-09T12:26:13Z</time>
      </trkpt>
      <trkpt lat="46.11919" lon="1.87075">
        <ele>642.2</ele>
        <time>2022-07-09T12:26:15Z</time>
      </trkpt>
      <trkpt lat="46.11906" lon="1.8709">
        <ele>641.6</ele>
        <time>2022-07-09T12:26:18Z</time>
      </trkpt>
      <trkpt lat="46.11898" lon="1.87102">
        <ele>641.4</ele>
        <time>2022-07-09T12:26:20Z</time>
      </trkpt>
      <trkpt lat="46.11884" lon="1.87131">
        <ele>640.6</ele>
        <time>2022-07-09T12:26:24Z</time>
      </trkpt>
      <trkpt lat="46.1188" lon="1.87136">
        <ele>640.4</ele>
        <time>2022-07-09T12:26:25Z</time>
      </trkpt>
      <trkpt lat="46.11877" lon="1.87141">
        <ele>640.4</ele>
        <time>2022-07-09T12:26:26Z</time>
      </trkpt>
      <trkpt lat="46.11875" lon="1.87146">
        <ele>640.2</ele>
        <time>2022-07-09T12:26:27Z</time>
      </trkpt>
      <trkpt lat="46.11872" lon="1.87151">
        <ele>640</ele>
        <time>2022-07-09T12:26:28Z</time>
      </trkpt>
      <trkpt lat="46.11864" lon="1.87163">
        <ele>639.6</ele>
        <time>2022-07-09T12:26:30Z</time>
      </trkpt>
      <trkpt lat="46.11858" lon="1.87174">
        <ele>639.2</ele>
        <time>2022-07-09T12:26:33Z</time>
      </trkpt>
      <trkpt lat="46.11855" lon="1.87179">
        <ele>639</ele>
        <time>2022-07-09T12:26:35Z</time>
      </trkpt>
      <trkpt lat="46.11842" lon="1.87188">
        <ele>638.6</ele>
        <time>2022-07-09T12:26:40Z</time>
      </trkpt>
      <trkpt lat="46.11834" lon="1.87205">
        <ele>638.4</ele>
        <time>2022-07-09T12:26:44Z</time>
      </trkpt>
      <trkpt lat="46.11834" lon="1.87209">
        <ele>637.8</ele>
        <time>2022-07-09T12:26:45Z</time>
      </trkpt>
      <trkpt lat="46.11834" lon="1.87211">
        <ele>636.6</ele>
        <time>2022-07-09T12:26:48Z</time>
      </trkpt>
      <trkpt lat="46.11832" lon="1.87217">
        <ele>635.8</ele>
        <time>2022-07-09T12:26:54Z</time>
      </trkpt>
      <trkpt lat="46.1183" lon="1.87221">
        <ele>635.6</ele>
        <time>2022-07-09T12:26:55Z</time>
      </trkpt>
      <trkpt lat="46.11822" lon="1.87246">
        <ele>634.8</ele>
        <time>2022-07-09T12:26:59Z</time>
      </trkpt>
      <trkpt lat="46.11821" lon="1.87254">
        <ele>634.6</ele>
        <time>2022-07-09T12:27:00Z</time>
      </trkpt>
      <trkpt lat="46.11821" lon="1.8726">
        <ele>634.2</ele>
        <time>2022-07-09T12:27:01Z</time>
      </trkpt>
      <trkpt lat="46.11824" lon="1.87266">
        <ele>633.8</ele>
        <time>2022-07-09T12:27:02Z</time>
      </trkpt>
      <trkpt lat="46.11828" lon="1.87277">
        <ele>633.4</ele>
        <time>2022-07-09T12:27:04Z</time>
      </trkpt>
      <trkpt lat="46.11831" lon="1.87281">
        <ele>632.6</ele>
        <time>2022-07-09T12:27:06Z</time>
      </trkpt>
      <trkpt lat="46.11837" lon="1.87297">
        <ele>632.4</ele>
        <time>2022-07-09T12:27:12Z</time>
      </trkpt>
      <trkpt lat="46.11845" lon="1.87315">
        <ele>633.4</ele>
        <time>2022-07-09T12:27:19Z</time>
      </trkpt>
      <trkpt lat="46.11851" lon="1.87333">
        <ele>633.8</ele>
        <time>2022-07-09T12:27:24Z</time>
      </trkpt>
      <trkpt lat="46.11851" lon="1.87337">
        <ele>633.8</ele>
        <time>2022-07-09T12:27:25Z</time>
      </trkpt>
      <trkpt lat="46.11854" lon="1.87359">
        <ele>633.8</ele>
        <time>2022-07-09T12:27:30Z</time>
      </trkpt>
      <trkpt lat="46.11856" lon="1.87368">
        <ele>633.8</ele>
        <time>2022-07-09T12:27:32Z</time>
      </trkpt>
      <trkpt lat="46.11857" lon="1.87377">
        <ele>633.8</ele>
        <time>2022-07-09T12:27:34Z</time>
      </trkpt>
      <trkpt lat="46.11858" lon="1.87384">
        <ele>633.8</ele>
        <time>2022-07-09T12:27:36Z</time>
      </trkpt>
      <trkpt lat="46.11859" lon="1.87401">
        <ele>634</ele>
        <time>2022-07-09T12:27:39Z</time>
      </trkpt>
      <trkpt lat="46.11864" lon="1.87416">
        <ele>634.2</ele>
        <time>2022-07-09T12:27:42Z</time>
      </trkpt>
      <trkpt lat="46.11863" lon="1.8742">
        <ele>634.4</ele>
        <time>2022-07-09T12:27:43Z</time>
      </trkpt>
      <trkpt lat="46.11861" lon="1.87423">
        <ele>634.4</ele>
        <time>2022-07-09T12:27:44Z</time>
      </trkpt>
      <trkpt lat="46.11861" lon="1.87427">
        <ele>634.6</ele>
        <time>2022-07-09T12:27:46Z</time>
      </trkpt>
      <trkpt lat="46.11861" lon="1.87429">
        <ele>634.6</ele>
        <time>2022-07-09T12:27:47Z</time>
      </trkpt>
      <trkpt lat="46.11861" lon="1.87436">
        <ele>634.6</ele>
        <time>2022-07-09T12:27:50Z</time>
      </trkpt>
      <trkpt lat="46.11851" lon="1.87448">
        <ele>634.6</ele>
        <time>2022-07-09T12:27:54Z</time>
      </trkpt>
      <trkpt lat="46.11842" lon="1.87458">
        <ele>634.6</ele>
        <time>2022-07-09T12:27:58Z</time>
      </trkpt>
      <trkpt lat="46.1183" lon="1.87469">
        <ele>633.4</ele>
        <time>2022-07-09T12:28:02Z</time>
      </trkpt>
      <trkpt lat="46.11825" lon="1.87472">
        <ele>633</ele>
        <time>2022-07-09T12:28:03Z</time>
      </trkpt>
      <trkpt lat="46.1181" lon="1.87486">
        <ele>631.8</ele>
        <time>2022-07-09T12:28:06Z</time>
      </trkpt>
      <trkpt lat="46.11807" lon="1.8749">
        <ele>631.4</ele>
        <time>2022-07-09T12:28:07Z</time>
      </trkpt>
      <trkpt lat="46.11797" lon="1.87496">
        <ele>630.4</ele>
        <time>2022-07-09T12:28:09Z</time>
      </trkpt>
      <trkpt lat="46.11786" lon="1.87503">
        <ele>629.6</ele>
        <time>2022-07-09T12:28:11Z</time>
      </trkpt>
      <trkpt lat="46.11777" lon="1.87507">
        <ele>629.4</ele>
        <time>2022-07-09T12:28:12Z</time>
      </trkpt>
      <trkpt lat="46.11767" lon="1.87513">
        <ele>628.4</ele>
        <time>2022-07-09T12:28:14Z</time>
      </trkpt>
      <trkpt lat="46.11763" lon="1.87517">
        <ele>627.6</ele>
        <time>2022-07-09T12:28:15Z</time>
      </trkpt>
      <trkpt lat="46.11758" lon="1.87524">
        <ele>626.6</ele>
        <time>2022-07-09T12:28:18Z</time>
      </trkpt>
      <trkpt lat="46.11747" lon="1.87527">
        <ele>625.4</ele>
        <time>2022-07-09T12:28:23Z</time>
      </trkpt>
      <trkpt lat="46.11741" lon="1.87529">
        <ele>624.6</ele>
        <time>2022-07-09T12:28:26Z</time>
      </trkpt>
      <trkpt lat="46.1174" lon="1.87528">
        <ele>624.2</ele>
        <time>2022-07-09T12:28:27Z</time>
      </trkpt>
      <trkpt lat="46.11735" lon="1.87523">
        <ele>623.2</ele>
        <time>2022-07-09T12:28:31Z</time>
      </trkpt>
      <trkpt lat="46.11731" lon="1.87518">
        <ele>622.4</ele>
        <time>2022-07-09T12:28:34Z</time>
      </trkpt>
      <trkpt lat="46.11728" lon="1.87516">
        <ele>622.2</ele>
        <time>2022-07-09T12:28:35Z</time>
      </trkpt>
      <trkpt lat="46.11725" lon="1.87516">
        <ele>621.8</ele>
        <time>2022-07-09T12:28:36Z</time>
      </trkpt>
      <trkpt lat="46.11717" lon="1.87518">
        <ele>621</ele>
        <time>2022-07-09T12:28:39Z</time>
      </trkpt>
      <trkpt lat="46.11715" lon="1.87518">
        <ele>620.6</ele>
        <time>2022-07-09T12:28:40Z</time>
      </trkpt>
      <trkpt lat="46.11707" lon="1.87514">
        <ele>619.2</ele>
        <time>2022-07-09T12:28:43Z</time>
      </trkpt>
      <trkpt lat="46.11705" lon="1.87512">
        <ele>618.8</ele>
        <time>2022-07-09T12:28:44Z</time>
      </trkpt>
      <trkpt lat="46.11703" lon="1.8751">
        <ele>618.6</ele>
        <time>2022-07-09T12:28:45Z</time>
      </trkpt>
      <trkpt lat="46.11698" lon="1.87505">
        <ele>618</ele>
        <time>2022-07-09T12:28:47Z</time>
      </trkpt>
      <trkpt lat="46.11697" lon="1.87504">
        <ele>617.8</ele>
        <time>2022-07-09T12:28:48Z</time>
      </trkpt>
      <trkpt lat="46.11694" lon="1.87501">
        <ele>616.8</ele>
        <time>2022-07-09T12:28:50Z</time>
      </trkpt>
      <trkpt lat="46.11692" lon="1.875">
        <ele>616.8</ele>
        <time>2022-07-09T12:28:51Z</time>
      </trkpt>
      <trkpt lat="46.11681" lon="1.87497">
        <ele>615.8</ele>
        <time>2022-07-09T12:28:55Z</time>
      </trkpt>
      <trkpt lat="46.1168" lon="1.87497">
        <ele>614.6</ele>
        <time>2022-07-09T12:28:57Z</time>
      </trkpt>
      <trkpt lat="46.11665" lon="1.87494">
        <ele>613.2</ele>
        <time>2022-07-09T12:29:01Z</time>
      </trkpt>
      <trkpt lat="46.11648" lon="1.8749">
        <ele>612</ele>
        <time>2022-07-09T12:29:05Z</time>
      </trkpt>
      <trkpt lat="46.11631" lon="1.8749">
        <ele>611.2</ele>
        <time>2022-07-09T12:29:09Z</time>
      </trkpt>
      <trkpt lat="46.11627" lon="1.87489">
        <ele>610.8</ele>
        <time>2022-07-09T12:29:10Z</time>
      </trkpt>
      <trkpt lat="46.11614" lon="1.87486">
        <ele>609.8</ele>
        <time>2022-07-09T12:29:13Z</time>
      </trkpt>
      <trkpt lat="46.1161" lon="1.87486">
        <ele>609.6</ele>
        <time>2022-07-09T12:29:14Z</time>
      </trkpt>
      <trkpt lat="46.11597" lon="1.87487">
        <ele>608.2</ele>
        <time>2022-07-09T12:29:17Z</time>
      </trkpt>
      <trkpt lat="46.11581" lon="1.8749">
        <ele>607.2</ele>
        <time>2022-07-09T12:29:20Z</time>
      </trkpt>
      <trkpt lat="46.11563" lon="1.87494">
        <ele>606.2</ele>
        <time>2022-07-09T12:29:25Z</time>
      </trkpt>
      <trkpt lat="46.11559" lon="1.87495">
        <ele>605.8</ele>
        <time>2022-07-09T12:29:26Z</time>
      </trkpt>
      <trkpt lat="46.11549" lon="1.87496">
        <ele>604.8</ele>
        <time>2022-07-09T12:29:29Z</time>
      </trkpt>
      <trkpt lat="46.11539" lon="1.87498">
        <ele>604.4</ele>
        <time>2022-07-09T12:29:31Z</time>
      </trkpt>
      <trkpt lat="46.11528" lon="1.87499">
        <ele>604</ele>
        <time>2022-07-09T12:29:33Z</time>
      </trkpt>
      <trkpt lat="46.1152" lon="1.87504">
        <ele>603.8</ele>
        <time>2022-07-09T12:29:35Z</time>
      </trkpt>
      <trkpt lat="46.11517" lon="1.87507">
        <ele>603.6</ele>
        <time>2022-07-09T12:29:36Z</time>
      </trkpt>
      <trkpt lat="46.11501" lon="1.87519">
        <ele>603</ele>
        <time>2022-07-09T12:29:40Z</time>
      </trkpt>
      <trkpt lat="46.1149" lon="1.87526">
        <ele>602.6</ele>
        <time>2022-07-09T12:29:43Z</time>
      </trkpt>
      <trkpt lat="46.11482" lon="1.87529">
        <ele>602.4</ele>
        <time>2022-07-09T12:29:45Z</time>
      </trkpt>
      <trkpt lat="46.11468" lon="1.87535">
        <ele>601.2</ele>
        <time>2022-07-09T12:29:49Z</time>
      </trkpt>
      <trkpt lat="46.11458" lon="1.87541">
        <ele>600.2</ele>
        <time>2022-07-09T12:29:52Z</time>
      </trkpt>
      <trkpt lat="46.11443" lon="1.87551">
        <ele>599.8</ele>
        <time>2022-07-09T12:29:56Z</time>
      </trkpt>
      <trkpt lat="46.11439" lon="1.87558">
        <ele>599.8</ele>
        <time>2022-07-09T12:29:57Z</time>
      </trkpt>
      <trkpt lat="46.11431" lon="1.87569">
        <ele>599.4</ele>
        <time>2022-07-09T12:29:59Z</time>
      </trkpt>
      <trkpt lat="46.11418" lon="1.87582">
        <ele>598.2</ele>
        <time>2022-07-09T12:30:02Z</time>
      </trkpt>
      <trkpt lat="46.11414" lon="1.87585">
        <ele>598</ele>
        <time>2022-07-09T12:30:03Z</time>
      </trkpt>
      <trkpt lat="46.1141" lon="1.87587">
        <ele>597.6</ele>
        <time>2022-07-09T12:30:04Z</time>
      </trkpt>
      <trkpt lat="46.114" lon="1.87594">
        <ele>597.2</ele>
        <time>2022-07-09T12:30:06Z</time>
      </trkpt>
      <trkpt lat="46.11394" lon="1.876">
        <ele>597</ele>
        <time>2022-07-09T12:30:08Z</time>
      </trkpt>
      <trkpt lat="46.11386" lon="1.87611">
        <ele>596.2</ele>
        <time>2022-07-09T12:30:12Z</time>
      </trkpt>
      <trkpt lat="46.11379" lon="1.87619">
        <ele>595.8</ele>
        <time>2022-07-09T12:30:15Z</time>
      </trkpt>
      <trkpt lat="46.11374" lon="1.87625">
        <ele>595.4</ele>
        <time>2022-07-09T12:30:17Z</time>
      </trkpt>
      <trkpt lat="46.11364" lon="1.87644">
        <ele>595</ele>
        <time>2022-07-09T12:30:22Z</time>
      </trkpt>
      <trkpt lat="46.11358" lon="1.87652">
        <ele>594.8</ele>
        <time>2022-07-09T12:30:24Z</time>
      </trkpt>
      <trkpt lat="46.11348" lon="1.87666">
        <ele>594.2</ele>
        <time>2022-07-09T12:30:27Z</time>
      </trkpt>
      <trkpt lat="46.11339" lon="1.87683">
        <ele>593.8</ele>
        <time>2022-07-09T12:30:30Z</time>
      </trkpt>
      <trkpt lat="46.11332" lon="1.877">
        <ele>593.2</ele>
        <time>2022-07-09T12:30:33Z</time>
      </trkpt>
      <trkpt lat="46.11324" lon="1.87714">
        <ele>592.6</ele>
        <time>2022-07-09T12:30:36Z</time>
      </trkpt>
      <trkpt lat="46.11321" lon="1.87717">
        <ele>592.4</ele>
        <time>2022-07-09T12:30:37Z</time>
      </trkpt>
      <trkpt lat="46.11302" lon="1.87739">
        <ele>591.4</ele>
        <time>2022-07-09T12:30:42Z</time>
      </trkpt>
      <trkpt lat="46.11287" lon="1.87762">
        <ele>590.6</ele>
        <time>2022-07-09T12:30:47Z</time>
      </trkpt>
      <trkpt lat="46.11281" lon="1.87769">
        <ele>590.4</ele>
        <time>2022-07-09T12:30:49Z</time>
      </trkpt>
      <trkpt lat="46.11269" lon="1.87789">
        <ele>589.4</ele>
        <time>2022-07-09T12:30:53Z</time>
      </trkpt>
      <trkpt lat="46.11267" lon="1.87794">
        <ele>589</ele>
        <time>2022-07-09T12:30:54Z</time>
      </trkpt>
      <trkpt lat="46.11255" lon="1.87814">
        <ele>588.2</ele>
        <time>2022-07-09T12:30:58Z</time>
      </trkpt>
      <trkpt lat="46.1125" lon="1.8782">
        <ele>587.4</ele>
        <time>2022-07-09T12:31:00Z</time>
      </trkpt>
      <trkpt lat="46.11247" lon="1.87823">
        <ele>587</ele>
        <time>2022-07-09T12:31:01Z</time>
      </trkpt>
      <trkpt lat="46.11243" lon="1.87825">
        <ele>586.8</ele>
        <time>2022-07-09T12:31:02Z</time>
      </trkpt>
      <trkpt lat="46.11235" lon="1.87829">
        <ele>586.6</ele>
        <time>2022-07-09T12:31:04Z</time>
      </trkpt>
      <trkpt lat="46.11227" lon="1.87831">
        <ele>586</ele>
        <time>2022-07-09T12:31:06Z</time>
      </trkpt>
      <trkpt lat="46.11224" lon="1.87832">
        <ele>585.8</ele>
        <time>2022-07-09T12:31:07Z</time>
      </trkpt>
      <trkpt lat="46.11221" lon="1.87834">
        <ele>585.4</ele>
        <time>2022-07-09T12:31:08Z</time>
      </trkpt>
      <trkpt lat="46.11214" lon="1.87844">
        <ele>584.8</ele>
        <time>2022-07-09T12:31:11Z</time>
      </trkpt>
      <trkpt lat="46.11212" lon="1.87848">
        <ele>584.6</ele>
        <time>2022-07-09T12:31:12Z</time>
      </trkpt>
      <trkpt lat="46.11207" lon="1.87854">
        <ele>584.2</ele>
        <time>2022-07-09T12:31:14Z</time>
      </trkpt>
      <trkpt lat="46.11203" lon="1.87859">
        <ele>584</ele>
        <time>2022-07-09T12:31:15Z</time>
      </trkpt>
      <trkpt lat="46.11194" lon="1.87876">
        <ele>583.8</ele>
        <time>2022-07-09T12:31:18Z</time>
      </trkpt>
      <trkpt lat="46.11189" lon="1.8789">
        <ele>583.2</ele>
        <time>2022-07-09T12:31:21Z</time>
      </trkpt>
      <trkpt lat="46.11186" lon="1.87899">
        <ele>583</ele>
        <time>2022-07-09T12:31:23Z</time>
      </trkpt>
      <trkpt lat="46.11184" lon="1.87902">
        <ele>582.8</ele>
        <time>2022-07-09T12:31:24Z</time>
      </trkpt>
      <trkpt lat="46.1117" lon="1.87923">
        <ele>581.8</ele>
        <time>2022-07-09T12:31:30Z</time>
      </trkpt>
      <trkpt lat="46.11168" lon="1.87933">
        <ele>580.8</ele>
        <time>2022-07-09T12:31:35Z</time>
      </trkpt>
      <trkpt lat="46.11168" lon="1.87935">
        <ele>580.8</ele>
        <time>2022-07-09T12:31:36Z</time>
      </trkpt>
      <trkpt lat="46.11164" lon="1.87935">
        <ele>579.8</ele>
        <time>2022-07-09T12:31:38Z</time>
      </trkpt>
      <trkpt lat="46.11161" lon="1.87935">
        <ele>579.6</ele>
        <time>2022-07-09T12:31:39Z</time>
      </trkpt>
      <trkpt lat="46.11149" lon="1.87938">
        <ele>578.8</ele>
        <time>2022-07-09T12:31:43Z</time>
      </trkpt>
      <trkpt lat="46.11146" lon="1.8794">
        <ele>578.4</ele>
        <time>2022-07-09T12:31:44Z</time>
      </trkpt>
      <trkpt lat="46.11136" lon="1.87947">
        <ele>577</ele>
        <time>2022-07-09T12:31:47Z</time>
      </trkpt>
      <trkpt lat="46.11133" lon="1.87949">
        <ele>576.6</ele>
        <time>2022-07-09T12:31:48Z</time>
      </trkpt>
      <trkpt lat="46.11125" lon="1.87954">
        <ele>575.6</ele>
        <time>2022-07-09T12:31:51Z</time>
      </trkpt>
      <trkpt lat="46.11115" lon="1.87957">
        <ele>575.2</ele>
        <time>2022-07-09T12:31:54Z</time>
      </trkpt>
      <trkpt lat="46.111" lon="1.87957">
        <ele>574.4</ele>
        <time>2022-07-09T12:31:58Z</time>
      </trkpt>
      <trkpt lat="46.11099" lon="1.87956">
        <ele>574</ele>
        <time>2022-07-09T12:31:59Z</time>
      </trkpt>
      <trkpt lat="46.11097" lon="1.87954">
        <ele>573</ele>
        <time>2022-07-09T12:32:00Z</time>
      </trkpt>
      <trkpt lat="46.11096" lon="1.87952">
        <ele>572.6</ele>
        <time>2022-07-09T12:32:01Z</time>
      </trkpt>
      <trkpt lat="46.11094" lon="1.87945">
        <ele>572</ele>
        <time>2022-07-09T12:32:03Z</time>
      </trkpt>
      <trkpt lat="46.11093" lon="1.87943">
        <ele>571.8</ele>
        <time>2022-07-09T12:32:04Z</time>
      </trkpt>
      <trkpt lat="46.11092" lon="1.87938">
        <ele>571.4</ele>
        <time>2022-07-09T12:32:06Z</time>
      </trkpt>
      <trkpt lat="46.11088" lon="1.87936">
        <ele>570.6</ele>
        <time>2022-07-09T12:32:08Z</time>
      </trkpt>
      <trkpt lat="46.11068" lon="1.87929">
        <ele>569.2</ele>
        <time>2022-07-09T12:32:14Z</time>
      </trkpt>
      <trkpt lat="46.11064" lon="1.87927">
        <ele>568.4</ele>
        <time>2022-07-09T12:32:16Z</time>
      </trkpt>
      <trkpt lat="46.11063" lon="1.87925">
        <ele>568</ele>
        <time>2022-07-09T12:32:17Z</time>
      </trkpt>
      <trkpt lat="46.11058" lon="1.87921">
        <ele>567.6</ele>
        <time>2022-07-09T12:32:19Z</time>
      </trkpt>
      <trkpt lat="46.11051" lon="1.8792">
        <ele>566.8</ele>
        <time>2022-07-09T12:32:21Z</time>
      </trkpt>
      <trkpt lat="46.11043" lon="1.87915">
        <ele>565.8</ele>
        <time>2022-07-09T12:32:23Z</time>
      </trkpt>
      <trkpt lat="46.11034" lon="1.87907">
        <ele>564.4</ele>
        <time>2022-07-09T12:32:26Z</time>
      </trkpt>
      <trkpt lat="46.11029" lon="1.879">
        <ele>563.4</ele>
        <time>2022-07-09T12:32:28Z</time>
      </trkpt>
      <trkpt lat="46.11025" lon="1.87898">
        <ele>563</ele>
        <time>2022-07-09T12:32:29Z</time>
      </trkpt>
      <trkpt lat="46.11019" lon="1.87897">
        <ele>561.6</ele>
        <time>2022-07-09T12:32:31Z</time>
      </trkpt>
      <trkpt lat="46.11016" lon="1.87897">
        <ele>561.4</ele>
        <time>2022-07-09T12:32:32Z</time>
      </trkpt>
      <trkpt lat="46.11007" lon="1.87901">
        <ele>560.4</ele>
        <time>2022-07-09T12:32:34Z</time>
      </trkpt>
      <trkpt lat="46.11002" lon="1.87904">
        <ele>559.6</ele>
        <time>2022-07-09T12:32:35Z</time>
      </trkpt>
      <trkpt lat="46.10999" lon="1.87908">
        <ele>559.2</ele>
        <time>2022-07-09T12:32:36Z</time>
      </trkpt>
      <trkpt lat="46.10995" lon="1.87912">
        <ele>558.2</ele>
        <time>2022-07-09T12:32:37Z</time>
      </trkpt>
      <trkpt lat="46.10992" lon="1.87917">
        <ele>557.4</ele>
        <time>2022-07-09T12:32:38Z</time>
      </trkpt>
      <trkpt lat="46.1099" lon="1.87922">
        <ele>557</ele>
        <time>2022-07-09T12:32:39Z</time>
      </trkpt>
      <trkpt lat="46.10988" lon="1.87928">
        <ele>556.4</ele>
        <time>2022-07-09T12:32:40Z</time>
      </trkpt>
      <trkpt lat="46.10986" lon="1.87933">
        <ele>556.2</ele>
        <time>2022-07-09T12:32:41Z</time>
      </trkpt>
      <trkpt lat="46.10985" lon="1.87938">
        <ele>555.8</ele>
        <time>2022-07-09T12:32:42Z</time>
      </trkpt>
      <trkpt lat="46.10982" lon="1.87957">
        <ele>555.4</ele>
        <time>2022-07-09T12:32:46Z</time>
      </trkpt>
      <trkpt lat="46.10977" lon="1.87982">
        <ele>555.6</ele>
        <time>2022-07-09T12:32:52Z</time>
      </trkpt>
      <trkpt lat="46.10968" lon="1.88008">
        <ele>555.4</ele>
        <time>2022-07-09T12:32:59Z</time>
      </trkpt>
      <trkpt lat="46.10959" lon="1.8803">
        <ele>555.2</ele>
        <time>2022-07-09T12:33:04Z</time>
      </trkpt>
      <trkpt lat="46.10955" lon="1.88039">
        <ele>555</ele>
        <time>2022-07-09T12:33:06Z</time>
      </trkpt>
      <trkpt lat="46.10947" lon="1.88058">
        <ele>554.6</ele>
        <time>2022-07-09T12:33:10Z</time>
      </trkpt>
      <trkpt lat="46.10946" lon="1.88065">
        <ele>554.6</ele>
        <time>2022-07-09T12:33:11Z</time>
      </trkpt>
      <trkpt lat="46.10945" lon="1.8808">
        <ele>554.2</ele>
        <time>2022-07-09T12:33:13Z</time>
      </trkpt>
      <trkpt lat="46.10945" lon="1.88087">
        <ele>554</ele>
        <time>2022-07-09T12:33:14Z</time>
      </trkpt>
      <trkpt lat="46.10946" lon="1.88102">
        <ele>553.6</ele>
        <time>2022-07-09T12:33:16Z</time>
      </trkpt>
      <trkpt lat="46.1095" lon="1.8813">
        <ele>553.4</ele>
        <time>2022-07-09T12:33:20Z</time>
      </trkpt>
      <trkpt lat="46.1095" lon="1.88137">
        <ele>553.2</ele>
        <time>2022-07-09T12:33:21Z</time>
      </trkpt>
      <trkpt lat="46.10949" lon="1.88143">
        <ele>553.2</ele>
        <time>2022-07-09T12:33:22Z</time>
      </trkpt>
      <trkpt lat="46.10945" lon="1.88159">
        <ele>553</ele>
        <time>2022-07-09T12:33:25Z</time>
      </trkpt>
      <trkpt lat="46.10943" lon="1.88163">
        <ele>553</ele>
        <time>2022-07-09T12:33:26Z</time>
      </trkpt>
      <trkpt lat="46.10933" lon="1.88181">
        <ele>553</ele>
        <time>2022-07-09T12:33:31Z</time>
      </trkpt>
      <trkpt lat="46.1093" lon="1.88185">
        <ele>553.2</ele>
        <time>2022-07-09T12:33:33Z</time>
      </trkpt>
      <trkpt lat="46.10927" lon="1.88185">
        <ele>553.2</ele>
        <time>2022-07-09T12:33:35Z</time>
      </trkpt>
      <trkpt lat="46.10918" lon="1.88179">
        <ele>553.2</ele>
        <time>2022-07-09T12:33:40Z</time>
      </trkpt>
      <trkpt lat="46.10903" lon="1.88172">
        <ele>552.6</ele>
        <time>2022-07-09T12:33:46Z</time>
      </trkpt>
      <trkpt lat="46.10885" lon="1.88152">
        <ele>552.4</ele>
        <time>2022-07-09T12:33:53Z</time>
      </trkpt>
      <trkpt lat="46.1087" lon="1.88142">
        <ele>553</ele>
        <time>2022-07-09T12:33:59Z</time>
      </trkpt>
      <trkpt lat="46.10852" lon="1.88139">
        <ele>554</ele>
        <time>2022-07-09T12:34:06Z</time>
      </trkpt>
      <trkpt lat="46.10836" lon="1.8814">
        <ele>554</ele>
        <time>2022-07-09T12:34:11Z</time>
      </trkpt>
      <trkpt lat="46.10829" lon="1.88141">
        <ele>553.8</ele>
        <time>2022-07-09T12:34:14Z</time>
      </trkpt>
      <trkpt lat="46.10823" lon="1.88143">
        <ele>553.8</ele>
        <time>2022-07-09T12:34:16Z</time>
      </trkpt>
      <trkpt lat="46.10821" lon="1.88144">
        <ele>553.8</ele>
        <time>2022-07-09T12:34:17Z</time>
      </trkpt>
      <trkpt lat="46.10819" lon="1.88149">
        <ele>554.2</ele>
        <time>2022-07-09T12:34:19Z</time>
      </trkpt>
      <trkpt lat="46.10819" lon="1.88152">
        <ele>554.2</ele>
        <time>2022-07-09T12:34:20Z</time>
      </trkpt>
      <trkpt lat="46.10817" lon="1.88155">
        <ele>554.2</ele>
        <time>2022-07-09T12:34:21Z</time>
      </trkpt>
      <trkpt lat="46.1082" lon="1.88161">
        <ele>554.4</ele>
        <time>2022-07-09T12:34:24Z</time>
      </trkpt>
      <trkpt lat="46.1082" lon="1.88161">
        <ele>554.4</ele>
        <time>2022-07-09T12:34:25Z</time>
      </trkpt>
      <trkpt lat="46.10816" lon="1.88167">
        <ele>554.8</ele>
        <time>2022-07-09T12:34:30Z</time>
      </trkpt>
      <trkpt lat="46.10814" lon="1.88174">
        <ele>555.2</ele>
        <time>2022-07-09T12:34:34Z</time>
      </trkpt>
      <trkpt lat="46.10813" lon="1.88177">
        <ele>555.4</ele>
        <time>2022-07-09T12:34:35Z</time>
      </trkpt>
      <trkpt lat="46.1081" lon="1.88181">
        <ele>556</ele>
        <time>2022-07-09T12:34:39Z</time>
      </trkpt>
      <trkpt lat="46.10802" lon="1.88187">
        <ele>556.2</ele>
        <time>2022-07-09T12:34:42Z</time>
      </trkpt>
      <trkpt lat="46.10797" lon="1.88194">
        <ele>556.4</ele>
        <time>2022-07-09T12:34:44Z</time>
      </trkpt>
      <trkpt lat="46.10792" lon="1.88196">
        <ele>556.6</ele>
        <time>2022-07-09T12:34:47Z</time>
      </trkpt>
      <trkpt lat="46.10774" lon="1.88205">
        <ele>556.8</ele>
        <time>2022-07-09T12:34:52Z</time>
      </trkpt>
      <trkpt lat="46.1077" lon="1.88208">
        <ele>556.8</ele>
        <time>2022-07-09T12:34:53Z</time>
      </trkpt>
      <trkpt lat="46.1076" lon="1.88217">
        <ele>557</ele>
        <time>2022-07-09T12:34:57Z</time>
      </trkpt>
      <trkpt lat="46.10747" lon="1.88234">
        <ele>557.2</ele>
        <time>2022-07-09T12:35:03Z</time>
      </trkpt>
      <trkpt lat="46.10739" lon="1.8825">
        <ele>557.2</ele>
        <time>2022-07-09T12:35:09Z</time>
      </trkpt>
      <trkpt lat="46.10737" lon="1.88253">
        <ele>557.6</ele>
        <time>2022-07-09T12:35:11Z</time>
      </trkpt>
      <trkpt lat="46.10729" lon="1.88262">
        <ele>558.2</ele>
        <time>2022-07-09T12:35:17Z</time>
      </trkpt>
      <trkpt lat="46.10725" lon="1.88266">
        <ele>558.4</ele>
        <time>2022-07-09T12:35:20Z</time>
      </trkpt>
      <trkpt lat="46.1072" lon="1.88269">
        <ele>558.6</ele>
        <time>2022-07-09T12:35:23Z</time>
      </trkpt>
      <trkpt lat="46.10709" lon="1.88272">
        <ele>559.6</ele>
        <time>2022-07-09T12:35:30Z</time>
      </trkpt>
      <trkpt lat="46.107" lon="1.88277">
        <ele>560.6</ele>
        <time>2022-07-09T12:35:37Z</time>
      </trkpt>
      <trkpt lat="46.10698" lon="1.88278">
        <ele>560.6</ele>
        <time>2022-07-09T12:35:38Z</time>
      </trkpt>
      <trkpt lat="46.10688" lon="1.88279">
        <ele>561.8</ele>
        <time>2022-07-09T12:35:45Z</time>
      </trkpt>
      <trkpt lat="46.10687" lon="1.88279">
        <ele>562</ele>
        <time>2022-07-09T12:35:46Z</time>
      </trkpt>
      <trkpt lat="46.10681" lon="1.88279">
        <ele>562.4</ele>
        <time>2022-07-09T12:35:51Z</time>
      </trkpt>
      <trkpt lat="46.10677" lon="1.88277">
        <ele>562.8</ele>
        <time>2022-07-09T12:35:54Z</time>
      </trkpt>
      <trkpt lat="46.10674" lon="1.88276">
        <ele>563</ele>
        <time>2022-07-09T12:35:57Z</time>
      </trkpt>
      <trkpt lat="46.10671" lon="1.88275">
        <ele>563.4</ele>
        <time>2022-07-09T12:35:59Z</time>
      </trkpt>
      <trkpt lat="46.10665" lon="1.88275">
        <ele>564</ele>
        <time>2022-07-09T12:36:03Z</time>
      </trkpt>
      <trkpt lat="46.10658" lon="1.88276">
        <ele>564.2</ele>
        <time>2022-07-09T12:36:06Z</time>
      </trkpt>
      <trkpt lat="46.10652" lon="1.88276">
        <ele>564.2</ele>
        <time>2022-07-09T12:36:09Z</time>
      </trkpt>
      <trkpt lat="46.1065" lon="1.88276">
        <ele>564.2</ele>
        <time>2022-07-09T12:36:11Z</time>
      </trkpt>
      <trkpt lat="46.10648" lon="1.88276">
        <ele>564.2</ele>
        <time>2022-07-09T12:36:13Z</time>
      </trkpt>
      <trkpt lat="46.10648" lon="1.88276">
        <ele>564.2</ele>
        <time>2022-07-09T12:36:15Z</time>
      </trkpt>
      <trkpt lat="46.10645" lon="1.88274">
        <ele>565.6</ele>
        <time>2022-07-09T12:40:05Z</time>
      </trkpt>
      <trkpt lat="46.10643" lon="1.88273">
        <ele>565.6</ele>
        <time>2022-07-09T12:40:07Z</time>
      </trkpt>
      <trkpt lat="46.1064" lon="1.88271">
        <ele>565.4</ele>
        <time>2022-07-09T12:40:10Z</time>
      </trkpt>
      <trkpt lat="46.10636" lon="1.88269">
        <ele>565.4</ele>
        <time>2022-07-09T12:40:15Z</time>
      </trkpt>
      <trkpt lat="46.10628" lon="1.88266">
        <ele>565.6</ele>
        <time>2022-07-09T12:40:21Z</time>
      </trkpt>
      <trkpt lat="46.10623" lon="1.88264">
        <ele>565.8</ele>
        <time>2022-07-09T12:40:24Z</time>
      </trkpt>
      <trkpt lat="46.10614" lon="1.88258">
        <ele>566.4</ele>
        <time>2022-07-09T12:40:30Z</time>
      </trkpt>
      <trkpt lat="46.10603" lon="1.88247">
        <ele>567</ele>
        <time>2022-07-09T12:40:38Z</time>
      </trkpt>
      <trkpt lat="46.10602" lon="1.88246">
        <ele>567.2</ele>
        <time>2022-07-09T12:40:39Z</time>
      </trkpt>
      <trkpt lat="46.10594" lon="1.88238">
        <ele>568.2</ele>
        <time>2022-07-09T12:40:46Z</time>
      </trkpt>
      <trkpt lat="46.10592" lon="1.88237">
        <ele>568.4</ele>
        <time>2022-07-09T12:40:47Z</time>
      </trkpt>
      <trkpt lat="46.10579" lon="1.88225">
        <ele>569.2</ele>
        <time>2022-07-09T12:40:57Z</time>
      </trkpt>
      <trkpt lat="46.10578" lon="1.88225">
        <ele>569.4</ele>
        <time>2022-07-09T12:40:58Z</time>
      </trkpt>
      <trkpt lat="46.10572" lon="1.8822">
        <ele>569.8</ele>
        <time>2022-07-09T12:41:04Z</time>
      </trkpt>
      <trkpt lat="46.10563" lon="1.88212">
        <ele>570.2</ele>
        <time>2022-07-09T12:41:12Z</time>
      </trkpt>
      <trkpt lat="46.10554" lon="1.88204">
        <ele>571</ele>
        <time>2022-07-09T12:41:20Z</time>
      </trkpt>
      <trkpt lat="46.1055" lon="1.88201">
        <ele>571.4</ele>
        <time>2022-07-09T12:41:23Z</time>
      </trkpt>
      <trkpt lat="46.10544" lon="1.88196">
        <ele>571.8</ele>
        <time>2022-07-09T12:41:28Z</time>
      </trkpt>
      <trkpt lat="46.10539" lon="1.88194">
        <ele>572.4</ele>
        <time>2022-07-09T12:41:32Z</time>
      </trkpt>
      <trkpt lat="46.10537" lon="1.88192">
        <ele>572.8</ele>
        <time>2022-07-09T12:41:34Z</time>
      </trkpt>
      <trkpt lat="46.10534" lon="1.88191">
        <ele>573</ele>
        <time>2022-07-09T12:41:36Z</time>
      </trkpt>
      <trkpt lat="46.10531" lon="1.88192">
        <ele>573.2</ele>
        <time>2022-07-09T12:41:39Z</time>
      </trkpt>
      <trkpt lat="46.10528" lon="1.88189">
        <ele>573.8</ele>
        <time>2022-07-09T12:41:42Z</time>
      </trkpt>
      <trkpt lat="46.10527" lon="1.88188">
        <ele>573.8</ele>
        <time>2022-07-09T12:41:43Z</time>
      </trkpt>
      <trkpt lat="46.10524" lon="1.88188">
        <ele>574</ele>
        <time>2022-07-09T12:41:45Z</time>
      </trkpt>
      <trkpt lat="46.1052" lon="1.88186">
        <ele>574.8</ele>
        <time>2022-07-09T12:41:49Z</time>
      </trkpt>
      <trkpt lat="46.10513" lon="1.88185">
        <ele>575.2</ele>
        <time>2022-07-09T12:41:54Z</time>
      </trkpt>
      <trkpt lat="46.10513" lon="1.88184">
        <ele>575.2</ele>
        <time>2022-07-09T12:41:55Z</time>
      </trkpt>
      <trkpt lat="46.10511" lon="1.88182">
        <ele>575.4</ele>
        <time>2022-07-09T12:41:57Z</time>
      </trkpt>
      <trkpt lat="46.1051" lon="1.88181">
        <ele>575.6</ele>
        <time>2022-07-09T12:41:58Z</time>
      </trkpt>
      <trkpt lat="46.10508" lon="1.88181">
        <ele>575.8</ele>
        <time>2022-07-09T12:42:00Z</time>
      </trkpt>
      <trkpt lat="46.10506" lon="1.8818">
        <ele>576</ele>
        <time>2022-07-09T12:42:02Z</time>
      </trkpt>
      <trkpt lat="46.105" lon="1.88178">
        <ele>576.4</ele>
        <time>2022-07-09T12:42:07Z</time>
      </trkpt>
      <trkpt lat="46.10494" lon="1.88175">
        <ele>577</ele>
        <time>2022-07-09T12:42:13Z</time>
      </trkpt>
      <trkpt lat="46.1049" lon="1.88173">
        <ele>577.6</ele>
        <time>2022-07-09T12:42:16Z</time>
      </trkpt>
      <trkpt lat="46.10485" lon="1.88172">
        <ele>578.4</ele>
        <time>2022-07-09T12:42:21Z</time>
      </trkpt>
      <trkpt lat="46.10483" lon="1.88171">
        <ele>578.6</ele>
        <time>2022-07-09T12:42:23Z</time>
      </trkpt>
      <trkpt lat="46.10481" lon="1.88169">
        <ele>578.8</ele>
        <time>2022-07-09T12:42:25Z</time>
      </trkpt>
      <trkpt lat="46.10478" lon="1.88166">
        <ele>579.4</ele>
        <time>2022-07-09T12:42:27Z</time>
      </trkpt>
      <trkpt lat="46.10477" lon="1.88165">
        <ele>579.4</ele>
        <time>2022-07-09T12:42:28Z</time>
      </trkpt>
      <trkpt lat="46.10475" lon="1.88164">
        <ele>579.6</ele>
        <time>2022-07-09T12:42:29Z</time>
      </trkpt>
      <trkpt lat="46.10469" lon="1.88158">
        <ele>579.8</ele>
        <time>2022-07-09T12:42:34Z</time>
      </trkpt>
      <trkpt lat="46.10465" lon="1.88157">
        <ele>580.2</ele>
        <time>2022-07-09T12:42:37Z</time>
      </trkpt>
      <trkpt lat="46.10464" lon="1.88156">
        <ele>580.2</ele>
        <time>2022-07-09T12:42:38Z</time>
      </trkpt>
      <trkpt lat="46.10463" lon="1.88155">
        <ele>580.4</ele>
        <time>2022-07-09T12:42:39Z</time>
      </trkpt>
      <trkpt lat="46.10459" lon="1.88153">
        <ele>580.8</ele>
        <time>2022-07-09T12:42:42Z</time>
      </trkpt>
      <trkpt lat="46.10456" lon="1.88152">
        <ele>581.4</ele>
        <time>2022-07-09T12:42:44Z</time>
      </trkpt>
      <trkpt lat="46.10455" lon="1.88151">
        <ele>581.4</ele>
        <time>2022-07-09T12:42:45Z</time>
      </trkpt>
      <trkpt lat="46.10451" lon="1.88149">
        <ele>581.8</ele>
        <time>2022-07-09T12:42:49Z</time>
      </trkpt>
      <trkpt lat="46.10441" lon="1.88142">
        <ele>582.6</ele>
        <time>2022-07-09T12:42:55Z</time>
      </trkpt>
      <trkpt lat="46.10436" lon="1.88138">
        <ele>583.2</ele>
        <time>2022-07-09T12:42:59Z</time>
      </trkpt>
      <trkpt lat="46.10434" lon="1.88137">
        <ele>583.2</ele>
        <time>2022-07-09T12:43:00Z</time>
      </trkpt>
      <trkpt lat="46.10431" lon="1.88134">
        <ele>583.6</ele>
        <time>2022-07-09T12:43:03Z</time>
      </trkpt>
      <trkpt lat="46.10428" lon="1.88131">
        <ele>583.8</ele>
        <time>2022-07-09T12:43:05Z</time>
      </trkpt>
      <trkpt lat="46.10425" lon="1.88128">
        <ele>584.2</ele>
        <time>2022-07-09T12:43:08Z</time>
      </trkpt>
      <trkpt lat="46.10421" lon="1.88125">
        <ele>584.8</ele>
        <time>2022-07-09T12:43:11Z</time>
      </trkpt>
      <trkpt lat="46.10419" lon="1.88124">
        <ele>585</ele>
        <time>2022-07-09T12:43:13Z</time>
      </trkpt>
      <trkpt lat="46.10412" lon="1.88118">
        <ele>585.6</ele>
        <time>2022-07-09T12:43:18Z</time>
      </trkpt>
      <trkpt lat="46.10407" lon="1.88112">
        <ele>586</ele>
        <time>2022-07-09T12:43:22Z</time>
      </trkpt>
      <trkpt lat="46.10402" lon="1.88105">
        <ele>586.4</ele>
        <time>2022-07-09T12:43:27Z</time>
      </trkpt>
      <trkpt lat="46.10397" lon="1.881">
        <ele>586.6</ele>
        <time>2022-07-09T12:43:30Z</time>
      </trkpt>
      <trkpt lat="46.10393" lon="1.88095">
        <ele>586.8</ele>
        <time>2022-07-09T12:43:33Z</time>
      </trkpt>
      <trkpt lat="46.10388" lon="1.88086">
        <ele>587</ele>
        <time>2022-07-09T12:43:36Z</time>
      </trkpt>
      <trkpt lat="46.1038" lon="1.88076">
        <ele>587.2</ele>
        <time>2022-07-09T12:43:40Z</time>
      </trkpt>
      <trkpt lat="46.10369" lon="1.8806">
        <ele>587.6</ele>
        <time>2022-07-09T12:43:46Z</time>
      </trkpt>
      <trkpt lat="46.1036" lon="1.88049">
        <ele>588</ele>
        <time>2022-07-09T12:43:52Z</time>
      </trkpt>
      <trkpt lat="46.10358" lon="1.88048">
        <ele>588.2</ele>
        <time>2022-07-09T12:43:53Z</time>
      </trkpt>
      <trkpt lat="46.10348" lon="1.88044">
        <ele>588.8</ele>
        <time>2022-07-09T12:43:59Z</time>
      </trkpt>
      <trkpt lat="46.10339" lon="1.8804">
        <ele>589.4</ele>
        <time>2022-07-09T12:44:05Z</time>
      </trkpt>
      <trkpt lat="46.10338" lon="1.8804">
        <ele>589.4</ele>
        <time>2022-07-09T12:44:06Z</time>
      </trkpt>
      <trkpt lat="46.10326" lon="1.88037">
        <ele>590.4</ele>
        <time>2022-07-09T12:44:15Z</time>
      </trkpt>
      <trkpt lat="46.10324" lon="1.88036">
        <ele>590.4</ele>
        <time>2022-07-09T12:44:16Z</time>
      </trkpt>
      <trkpt lat="46.10315" lon="1.88029">
        <ele>591.2</ele>
        <time>2022-07-09T12:44:22Z</time>
      </trkpt>
      <trkpt lat="46.10307" lon="1.88024">
        <ele>591.4</ele>
        <time>2022-07-09T12:44:27Z</time>
      </trkpt>
      <trkpt lat="46.10303" lon="1.88022">
        <ele>592</ele>
        <time>2022-07-09T12:44:30Z</time>
      </trkpt>
      <trkpt lat="46.10302" lon="1.88021">
        <ele>592.4</ele>
        <time>2022-07-09T12:44:31Z</time>
      </trkpt>
      <trkpt lat="46.10295" lon="1.88016">
        <ele>593</ele>
        <time>2022-07-09T12:44:36Z</time>
      </trkpt>
      <trkpt lat="46.10291" lon="1.88012">
        <ele>593.2</ele>
        <time>2022-07-09T12:44:39Z</time>
      </trkpt>
      <trkpt lat="46.10287" lon="1.88011">
        <ele>593.6</ele>
        <time>2022-07-09T12:44:42Z</time>
      </trkpt>
      <trkpt lat="46.10281" lon="1.88007">
        <ele>594.2</ele>
        <time>2022-07-09T12:44:46Z</time>
      </trkpt>
      <trkpt lat="46.10276" lon="1.88004">
        <ele>594.8</ele>
        <time>2022-07-09T12:44:49Z</time>
      </trkpt>
      <trkpt lat="46.10267" lon="1.88">
        <ele>595.6</ele>
        <time>2022-07-09T12:44:55Z</time>
      </trkpt>
      <trkpt lat="46.10265" lon="1.87999">
        <ele>596</ele>
        <time>2022-07-09T12:44:56Z</time>
      </trkpt>
      <trkpt lat="46.10254" lon="1.87993">
        <ele>597.2</ele>
        <time>2022-07-09T12:45:03Z</time>
      </trkpt>
      <trkpt lat="46.10251" lon="1.87992">
        <ele>597.4</ele>
        <time>2022-07-09T12:45:05Z</time>
      </trkpt>
      <trkpt lat="46.10242" lon="1.87986">
        <ele>598.2</ele>
        <time>2022-07-09T12:45:11Z</time>
      </trkpt>
      <trkpt lat="46.10239" lon="1.87985">
        <ele>598.8</ele>
        <time>2022-07-09T12:45:13Z</time>
      </trkpt>
      <trkpt lat="46.10236" lon="1.87983">
        <ele>599</ele>
        <time>2022-07-09T12:45:15Z</time>
      </trkpt>
      <trkpt lat="46.10229" lon="1.87979">
        <ele>599.6</ele>
        <time>2022-07-09T12:45:19Z</time>
      </trkpt>
      <trkpt lat="46.10226" lon="1.87977">
        <ele>599.8</ele>
        <time>2022-07-09T12:45:21Z</time>
      </trkpt>
      <trkpt lat="46.10217" lon="1.87971">
        <ele>600.6</ele>
        <time>2022-07-09T12:45:26Z</time>
      </trkpt>
      <trkpt lat="46.10213" lon="1.87967">
        <ele>600.8</ele>
        <time>2022-07-09T12:45:29Z</time>
      </trkpt>
      <trkpt lat="46.10203" lon="1.87961">
        <ele>601.8</ele>
        <time>2022-07-09T12:45:35Z</time>
      </trkpt>
      <trkpt lat="46.10201" lon="1.8796">
        <ele>601.8</ele>
        <time>2022-07-09T12:45:36Z</time>
      </trkpt>
      <trkpt lat="46.1019" lon="1.87956">
        <ele>602.6</ele>
        <time>2022-07-09T12:45:42Z</time>
      </trkpt>
      <trkpt lat="46.10186" lon="1.87954">
        <ele>603</ele>
        <time>2022-07-09T12:45:44Z</time>
      </trkpt>
      <trkpt lat="46.10183" lon="1.87952">
        <ele>603.2</ele>
        <time>2022-07-09T12:45:46Z</time>
      </trkpt>
      <trkpt lat="46.10165" lon="1.87945">
        <ele>603.8</ele>
        <time>2022-07-09T12:45:55Z</time>
      </trkpt>
      <trkpt lat="46.10154" lon="1.87941">
        <ele>604</ele>
        <time>2022-07-09T12:46:00Z</time>
      </trkpt>
      <trkpt lat="46.10148" lon="1.87942">
        <ele>604.4</ele>
        <time>2022-07-09T12:46:03Z</time>
      </trkpt>
      <trkpt lat="46.10141" lon="1.87944">
        <ele>605</ele>
        <time>2022-07-09T12:46:07Z</time>
      </trkpt>
      <trkpt lat="46.10136" lon="1.87946">
        <ele>605.2</ele>
        <time>2022-07-09T12:46:09Z</time>
      </trkpt>
      <trkpt lat="46.10134" lon="1.87947">
        <ele>605.4</ele>
        <time>2022-07-09T12:46:10Z</time>
      </trkpt>
      <trkpt lat="46.10127" lon="1.87951">
        <ele>606.2</ele>
        <time>2022-07-09T12:46:14Z</time>
      </trkpt>
      <trkpt lat="46.10116" lon="1.87957">
        <ele>607.4</ele>
        <time>2022-07-09T12:46:20Z</time>
      </trkpt>
      <trkpt lat="46.10113" lon="1.8796">
        <ele>608</ele>
        <time>2022-07-09T12:46:22Z</time>
      </trkpt>
      <trkpt lat="46.10107" lon="1.8797">
        <ele>608.6</ele>
        <time>2022-07-09T12:46:26Z</time>
      </trkpt>
      <trkpt lat="46.10102" lon="1.8798">
        <ele>609.2</ele>
        <time>2022-07-09T12:46:30Z</time>
      </trkpt>
      <trkpt lat="46.10097" lon="1.87991">
        <ele>609.6</ele>
        <time>2022-07-09T12:46:34Z</time>
      </trkpt>
      <trkpt lat="46.10092" lon="1.88">
        <ele>610</ele>
        <time>2022-07-09T12:46:38Z</time>
      </trkpt>
      <trkpt lat="46.1008" lon="1.88013">
        <ele>610.6</ele>
        <time>2022-07-09T12:46:45Z</time>
      </trkpt>
      <trkpt lat="46.10071" lon="1.88017">
        <ele>611.2</ele>
        <time>2022-07-09T12:46:50Z</time>
      </trkpt>
      <trkpt lat="46.10069" lon="1.88016">
        <ele>611.2</ele>
        <time>2022-07-09T12:46:51Z</time>
      </trkpt>
      <trkpt lat="46.10066" lon="1.88014">
        <ele>611.6</ele>
        <time>2022-07-09T12:46:53Z</time>
      </trkpt>
      <trkpt lat="46.10065" lon="1.88013">
        <ele>612</ele>
        <time>2022-07-09T12:46:54Z</time>
      </trkpt>
      <trkpt lat="46.10062" lon="1.8801">
        <ele>612.2</ele>
        <time>2022-07-09T12:46:56Z</time>
      </trkpt>
      <trkpt lat="46.10056" lon="1.88006">
        <ele>613.2</ele>
        <time>2022-07-09T12:47:01Z</time>
      </trkpt>
      <trkpt lat="46.10054" lon="1.88006">
        <ele>613.2</ele>
        <time>2022-07-09T12:47:02Z</time>
      </trkpt>
      <trkpt lat="46.10053" lon="1.88005">
        <ele>613.4</ele>
        <time>2022-07-09T12:47:03Z</time>
      </trkpt>
      <trkpt lat="46.10042" lon="1.88009">
        <ele>614.2</ele>
        <time>2022-07-09T12:47:08Z</time>
      </trkpt>
      <trkpt lat="46.10039" lon="1.88012">
        <ele>614.2</ele>
        <time>2022-07-09T12:47:10Z</time>
      </trkpt>
      <trkpt lat="46.10026" lon="1.88022">
        <ele>614.6</ele>
        <time>2022-07-09T12:47:17Z</time>
      </trkpt>
      <trkpt lat="46.10012" lon="1.8803">
        <ele>614.8</ele>
        <time>2022-07-09T12:47:24Z</time>
      </trkpt>
      <trkpt lat="46.1001" lon="1.8803">
        <ele>614.8</ele>
        <time>2022-07-09T12:47:25Z</time>
      </trkpt>
      <trkpt lat="46.09998" lon="1.88036">
        <ele>615.2</ele>
        <time>2022-07-09T12:47:31Z</time>
      </trkpt>
      <trkpt lat="46.09995" lon="1.88036">
        <ele>615.2</ele>
        <time>2022-07-09T12:47:32Z</time>
      </trkpt>
      <trkpt lat="46.09983" lon="1.88041">
        <ele>615.6</ele>
        <time>2022-07-09T12:47:38Z</time>
      </trkpt>
      <trkpt lat="46.09972" lon="1.88048">
        <ele>616</ele>
        <time>2022-07-09T12:47:43Z</time>
      </trkpt>
      <trkpt lat="46.0997" lon="1.88049">
        <ele>616.2</ele>
        <time>2022-07-09T12:47:45Z</time>
      </trkpt>
      <trkpt lat="46.09964" lon="1.88048">
        <ele>616.2</ele>
        <time>2022-07-09T12:47:47Z</time>
      </trkpt>
      <trkpt lat="46.09953" lon="1.88052">
        <ele>616.4</ele>
        <time>2022-07-09T12:47:51Z</time>
      </trkpt>
      <trkpt lat="46.09942" lon="1.88058">
        <ele>616.6</ele>
        <time>2022-07-09T12:47:57Z</time>
      </trkpt>
      <trkpt lat="46.0993" lon="1.8806">
        <ele>616.6</ele>
        <time>2022-07-09T12:48:03Z</time>
      </trkpt>
      <trkpt lat="46.09917" lon="1.88057">
        <ele>616.8</ele>
        <time>2022-07-09T12:48:09Z</time>
      </trkpt>
      <trkpt lat="46.09902" lon="1.88063">
        <ele>617.2</ele>
        <time>2022-07-09T12:48:16Z</time>
      </trkpt>
      <trkpt lat="46.09899" lon="1.88064">
        <ele>617.2</ele>
        <time>2022-07-09T12:48:17Z</time>
      </trkpt>
      <trkpt lat="46.09884" lon="1.88067">
        <ele>618</ele>
        <time>2022-07-09T12:48:23Z</time>
      </trkpt>
      <trkpt lat="46.0986" lon="1.88077">
        <ele>618</ele>
        <time>2022-07-09T12:48:29Z</time>
      </trkpt>
      <trkpt lat="46.09843" lon="1.88085">
        <ele>616.8</ele>
        <time>2022-07-09T12:48:34Z</time>
      </trkpt>
      <trkpt lat="46.09834" lon="1.88093">
        <ele>616</ele>
        <time>2022-07-09T12:48:37Z</time>
      </trkpt>
      <trkpt lat="46.09827" lon="1.88103">
        <ele>615.6</ele>
        <time>2022-07-09T12:48:39Z</time>
      </trkpt>
      <trkpt lat="46.09819" lon="1.88111">
        <ele>614.4</ele>
        <time>2022-07-09T12:48:41Z</time>
      </trkpt>
      <trkpt lat="46.09816" lon="1.88115">
        <ele>614</ele>
        <time>2022-07-09T12:48:42Z</time>
      </trkpt>
      <trkpt lat="46.09814" lon="1.88116">
        <ele>613.6</ele>
        <time>2022-07-09T12:48:43Z</time>
      </trkpt>
      <trkpt lat="46.09811" lon="1.88119">
        <ele>613.2</ele>
        <time>2022-07-09T12:48:44Z</time>
      </trkpt>
      <trkpt lat="46.09809" lon="1.88122">
        <ele>613</ele>
        <time>2022-07-09T12:48:45Z</time>
      </trkpt>
      <trkpt lat="46.098" lon="1.8813">
        <ele>612</ele>
        <time>2022-07-09T12:48:48Z</time>
      </trkpt>
      <trkpt lat="46.09788" lon="1.88141">
        <ele>611</ele>
        <time>2022-07-09T12:48:51Z</time>
      </trkpt>
      <trkpt lat="46.09768" lon="1.88167">
        <ele>610.2</ele>
        <time>2022-07-09T12:48:56Z</time>
      </trkpt>
      <trkpt lat="46.09764" lon="1.88172">
        <ele>610</ele>
        <time>2022-07-09T12:48:57Z</time>
      </trkpt>
      <trkpt lat="46.09749" lon="1.88186">
        <ele>609.2</ele>
        <time>2022-07-09T12:49:01Z</time>
      </trkpt>
      <trkpt lat="46.09741" lon="1.88196">
        <ele>609</ele>
        <time>2022-07-09T12:49:04Z</time>
      </trkpt>
      <trkpt lat="46.09737" lon="1.88204">
        <ele>608.8</ele>
        <time>2022-07-09T12:49:06Z</time>
      </trkpt>
      <trkpt lat="46.09733" lon="1.88212">
        <ele>608.4</ele>
        <time>2022-07-09T12:49:09Z</time>
      </trkpt>
      <trkpt lat="46.09729" lon="1.88216">
        <ele>608</ele>
        <time>2022-07-09T12:49:12Z</time>
      </trkpt>
      <trkpt lat="46.09729" lon="1.88216">
        <ele>607.8</ele>
        <time>2022-07-09T12:49:13Z</time>
      </trkpt>
      <trkpt lat="46.09727" lon="1.88216">
        <ele>607.4</ele>
        <time>2022-07-09T12:49:18Z</time>
      </trkpt>
      <trkpt lat="46.09727" lon="1.88216">
        <ele>607.4</ele>
        <time>2022-07-09T12:49:19Z</time>
      </trkpt>
      <trkpt lat="46.09727" lon="1.88216">
        <ele>607.4</ele>
        <time>2022-07-09T12:49:20Z</time>
      </trkpt>
      <trkpt lat="46.09724" lon="1.88217">
        <ele>607.4</ele>
        <time>2022-07-09T12:49:23Z</time>
      </trkpt>
      <trkpt lat="46.09718" lon="1.8822">
        <ele>607.4</ele>
        <time>2022-07-09T12:49:26Z</time>
      </trkpt>
      <trkpt lat="46.09716" lon="1.88221">
        <ele>607.6</ele>
        <time>2022-07-09T12:49:27Z</time>
      </trkpt>
      <trkpt lat="46.09706" lon="1.88225">
        <ele>608.2</ele>
        <time>2022-07-09T12:49:33Z</time>
      </trkpt>
      <trkpt lat="46.09703" lon="1.88227">
        <ele>608.4</ele>
        <time>2022-07-09T12:49:35Z</time>
      </trkpt>
      <trkpt lat="46.09697" lon="1.88231">
        <ele>609</ele>
        <time>2022-07-09T12:49:38Z</time>
      </trkpt>
      <trkpt lat="46.0969" lon="1.8824">
        <ele>609.8</ele>
        <time>2022-07-09T12:49:43Z</time>
      </trkpt>
      <trkpt lat="46.0969" lon="1.88241">
        <ele>610</ele>
        <time>2022-07-09T12:49:45Z</time>
      </trkpt>
      <trkpt lat="46.0969" lon="1.88241">
        <ele>610</ele>
        <time>2022-07-09T12:49:46Z</time>
      </trkpt>
      <trkpt lat="46.09687" lon="1.88243">
        <ele>610</ele>
        <time>2022-07-09T12:50:24Z</time>
      </trkpt>
      <trkpt lat="46.09682" lon="1.88245">
        <ele>610</ele>
        <time>2022-07-09T12:50:27Z</time>
      </trkpt>
      <trkpt lat="46.09679" lon="1.88248">
        <ele>610</ele>
        <time>2022-07-09T12:50:30Z</time>
      </trkpt>
      <trkpt lat="46.09674" lon="1.88251">
        <ele>610</ele>
        <time>2022-07-09T12:50:33Z</time>
      </trkpt>
      <trkpt lat="46.09666" lon="1.88258">
        <ele>610.4</ele>
        <time>2022-07-09T12:50:38Z</time>
      </trkpt>
      <trkpt lat="46.09663" lon="1.88259">
        <ele>610.6</ele>
        <time>2022-07-09T12:50:40Z</time>
      </trkpt>
      <trkpt lat="46.09646" lon="1.88272">
        <ele>611</ele>
        <time>2022-07-09T12:50:47Z</time>
      </trkpt>
      <trkpt lat="46.0964" lon="1.88274">
        <ele>611.2</ele>
        <time>2022-07-09T12:50:49Z</time>
      </trkpt>
      <trkpt lat="46.09626" lon="1.88284">
        <ele>611.6</ele>
        <time>2022-07-09T12:50:54Z</time>
      </trkpt>
      <trkpt lat="46.0962" lon="1.88287">
        <ele>611.6</ele>
        <time>2022-07-09T12:50:56Z</time>
      </trkpt>
      <trkpt lat="46.09613" lon="1.88291">
        <ele>611.6</ele>
        <time>2022-07-09T12:50:58Z</time>
      </trkpt>
      <trkpt lat="46.09609" lon="1.88292">
        <ele>612</ele>
        <time>2022-07-09T12:51:00Z</time>
      </trkpt>
      <trkpt lat="46.09608" lon="1.88292">
        <ele>612.2</ele>
        <time>2022-07-09T12:51:01Z</time>
      </trkpt>
      <trkpt lat="46.09593" lon="1.88305">
        <ele>613.2</ele>
        <time>2022-07-09T12:51:08Z</time>
      </trkpt>
      <trkpt lat="46.09594" lon="1.8831">
        <ele>613.6</ele>
        <time>2022-07-09T12:51:10Z</time>
      </trkpt>
      <trkpt lat="46.09593" lon="1.88311">
        <ele>613.8</ele>
        <time>2022-07-09T12:51:12Z</time>
      </trkpt>
      <trkpt lat="46.09591" lon="1.88313">
        <ele>613.8</ele>
        <time>2022-07-09T12:51:13Z</time>
      </trkpt>
      <trkpt lat="46.09586" lon="1.88316">
        <ele>614.2</ele>
        <time>2022-07-09T12:51:16Z</time>
      </trkpt>
      <trkpt lat="46.09583" lon="1.88321">
        <ele>614.4</ele>
        <time>2022-07-09T12:51:18Z</time>
      </trkpt>
      <trkpt lat="46.09579" lon="1.88322">
        <ele>614.4</ele>
        <time>2022-07-09T12:51:20Z</time>
      </trkpt>
      <trkpt lat="46.09557" lon="1.88337">
        <ele>614.4</ele>
        <time>2022-07-09T12:51:25Z</time>
      </trkpt>
      <trkpt lat="46.09542" lon="1.88348">
        <ele>614</ele>
        <time>2022-07-09T12:51:29Z</time>
      </trkpt>
      <trkpt lat="46.09529" lon="1.88354">
        <ele>613.4</ele>
        <time>2022-07-09T12:51:33Z</time>
      </trkpt>
      <trkpt lat="46.09526" lon="1.88358">
        <ele>613.4</ele>
        <time>2022-07-09T12:51:34Z</time>
      </trkpt>
      <trkpt lat="46.09523" lon="1.88359">
        <ele>613.4</ele>
        <time>2022-07-09T12:51:36Z</time>
      </trkpt>
      <trkpt lat="46.09514" lon="1.88366">
        <ele>613.4</ele>
        <time>2022-07-09T12:51:39Z</time>
      </trkpt>
      <trkpt lat="46.09499" lon="1.88379">
        <ele>614</ele>
        <time>2022-07-09T12:51:46Z</time>
      </trkpt>
      <trkpt lat="46.09489" lon="1.88389">
        <ele>614.2</ele>
        <time>2022-07-09T12:51:51Z</time>
      </trkpt>
      <trkpt lat="46.09468" lon="1.88411">
        <ele>614.4</ele>
        <time>2022-07-09T12:51:59Z</time>
      </trkpt>
      <trkpt lat="46.09461" lon="1.88423">
        <ele>614</ele>
        <time>2022-07-09T12:52:02Z</time>
      </trkpt>
      <trkpt lat="46.09454" lon="1.8843">
        <ele>613.8</ele>
        <time>2022-07-09T12:52:05Z</time>
      </trkpt>
      <trkpt lat="46.0945" lon="1.88434">
        <ele>613.8</ele>
        <time>2022-07-09T12:52:06Z</time>
      </trkpt>
      <trkpt lat="46.09432" lon="1.88439">
        <ele>613.2</ele>
        <time>2022-07-09T12:52:12Z</time>
      </trkpt>
      <trkpt lat="46.09429" lon="1.8844">
        <ele>613.2</ele>
        <time>2022-07-09T12:52:13Z</time>
      </trkpt>
      <trkpt lat="46.09426" lon="1.88444">
        <ele>613.2</ele>
        <time>2022-07-09T12:52:14Z</time>
      </trkpt>
      <trkpt lat="46.09417" lon="1.88448">
        <ele>613</ele>
        <time>2022-07-09T12:52:18Z</time>
      </trkpt>
      <trkpt lat="46.09409" lon="1.88455">
        <ele>613</ele>
        <time>2022-07-09T12:52:21Z</time>
      </trkpt>
      <trkpt lat="46.094" lon="1.88454">
        <ele>612.8</ele>
        <time>2022-07-09T12:52:23Z</time>
      </trkpt>
      <trkpt lat="46.09393" lon="1.88455">
        <ele>612.8</ele>
        <time>2022-07-09T12:52:25Z</time>
      </trkpt>
      <trkpt lat="46.09386" lon="1.88455">
        <ele>612.2</ele>
        <time>2022-07-09T12:52:27Z</time>
      </trkpt>
      <trkpt lat="46.0938" lon="1.88451">
        <ele>610.8</ele>
        <time>2022-07-09T12:52:30Z</time>
      </trkpt>
      <trkpt lat="46.09375" lon="1.88449">
        <ele>610.4</ele>
        <time>2022-07-09T12:52:32Z</time>
      </trkpt>
      <trkpt lat="46.09373" lon="1.88449">
        <ele>610.4</ele>
        <time>2022-07-09T12:52:33Z</time>
      </trkpt>
      <trkpt lat="46.09368" lon="1.88449">
        <ele>610.2</ele>
        <time>2022-07-09T12:52:36Z</time>
      </trkpt>
      <trkpt lat="46.09367" lon="1.88449">
        <ele>610.2</ele>
        <time>2022-07-09T12:52:37Z</time>
      </trkpt>
      <trkpt lat="46.0936" lon="1.8844">
        <ele>610.4</ele>
        <time>2022-07-09T12:52:40Z</time>
      </trkpt>
      <trkpt lat="46.09357" lon="1.88438">
        <ele>610.6</ele>
        <time>2022-07-09T12:52:42Z</time>
      </trkpt>
      <trkpt lat="46.09336" lon="1.88433">
        <ele>611.4</ele>
        <time>2022-07-09T12:52:49Z</time>
      </trkpt>
      <trkpt lat="46.09334" lon="1.88432">
        <ele>611.4</ele>
        <time>2022-07-09T12:52:50Z</time>
      </trkpt>
      <trkpt lat="46.09333" lon="1.88431">
        <ele>611.6</ele>
        <time>2022-07-09T12:52:51Z</time>
      </trkpt>
      <trkpt lat="46.0933" lon="1.88432">
        <ele>611.6</ele>
        <time>2022-07-09T12:52:54Z</time>
      </trkpt>
      <trkpt lat="46.09326" lon="1.88435">
        <ele>612.2</ele>
        <time>2022-07-09T12:52:57Z</time>
      </trkpt>
      <trkpt lat="46.0932" lon="1.88431">
        <ele>612.8</ele>
        <time>2022-07-09T12:53:02Z</time>
      </trkpt>
      <trkpt lat="46.09316" lon="1.88429">
        <ele>612.8</ele>
        <time>2022-07-09T12:53:04Z</time>
      </trkpt>
      <trkpt lat="46.09312" lon="1.88427">
        <ele>613.2</ele>
        <time>2022-07-09T12:53:07Z</time>
      </trkpt>
      <trkpt lat="46.0931" lon="1.88428">
        <ele>613.2</ele>
        <time>2022-07-09T12:53:08Z</time>
      </trkpt>
      <trkpt lat="46.09309" lon="1.88427">
        <ele>613.4</ele>
        <time>2022-07-09T12:53:10Z</time>
      </trkpt>
      <trkpt lat="46.09305" lon="1.88421">
        <ele>613.8</ele>
        <time>2022-07-09T12:53:15Z</time>
      </trkpt>
      <trkpt lat="46.09305" lon="1.88421">
        <ele>614</ele>
        <time>2022-07-09T12:53:17Z</time>
      </trkpt>
      <trkpt lat="46.09304" lon="1.8842">
        <ele>614.2</ele>
        <time>2022-07-09T12:53:18Z</time>
      </trkpt>
      <trkpt lat="46.093" lon="1.88419">
        <ele>614.8</ele>
        <time>2022-07-09T12:53:21Z</time>
      </trkpt>
      <trkpt lat="46.09297" lon="1.88417">
        <ele>615</ele>
        <time>2022-07-09T12:53:23Z</time>
      </trkpt>
      <trkpt lat="46.09285" lon="1.88408">
        <ele>615.6</ele>
        <time>2022-07-09T12:53:28Z</time>
      </trkpt>
      <trkpt lat="46.09269" lon="1.88398">
        <ele>616</ele>
        <time>2022-07-09T12:53:34Z</time>
      </trkpt>
      <trkpt lat="46.09262" lon="1.88394">
        <ele>616</ele>
        <time>2022-07-09T12:53:36Z</time>
      </trkpt>
      <trkpt lat="46.09256" lon="1.8839">
        <ele>616.2</ele>
        <time>2022-07-09T12:53:38Z</time>
      </trkpt>
      <trkpt lat="46.09248" lon="1.88385">
        <ele>616.2</ele>
        <time>2022-07-09T12:53:40Z</time>
      </trkpt>
      <trkpt lat="46.09233" lon="1.88377">
        <ele>616.4</ele>
        <time>2022-07-09T12:53:46Z</time>
      </trkpt>
      <trkpt lat="46.09228" lon="1.88375">
        <ele>616.8</ele>
        <time>2022-07-09T12:53:48Z</time>
      </trkpt>
      <trkpt lat="46.09214" lon="1.88369">
        <ele>617.2</ele>
        <time>2022-07-09T12:53:51Z</time>
      </trkpt>
      <trkpt lat="46.09205" lon="1.88363">
        <ele>617.4</ele>
        <time>2022-07-09T12:53:54Z</time>
      </trkpt>
      <trkpt lat="46.09201" lon="1.8836">
        <ele>617.6</ele>
        <time>2022-07-09T12:53:56Z</time>
      </trkpt>
      <trkpt lat="46.09194" lon="1.88359">
        <ele>618.2</ele>
        <time>2022-07-09T12:53:59Z</time>
      </trkpt>
      <trkpt lat="46.09186" lon="1.88356">
        <ele>618.8</ele>
        <time>2022-07-09T12:54:03Z</time>
      </trkpt>
      <trkpt lat="46.09182" lon="1.88354">
        <ele>619.4</ele>
        <time>2022-07-09T12:54:09Z</time>
      </trkpt>
      <trkpt lat="46.0918" lon="1.88354">
        <ele>619.4</ele>
        <time>2022-07-09T12:54:10Z</time>
      </trkpt>
      <trkpt lat="46.09178" lon="1.88352">
        <ele>619.6</ele>
        <time>2022-07-09T12:54:11Z</time>
      </trkpt>
      <trkpt lat="46.09174" lon="1.88351">
        <ele>619.8</ele>
        <time>2022-07-09T12:54:13Z</time>
      </trkpt>
      <trkpt lat="46.0917" lon="1.88346">
        <ele>620</ele>
        <time>2022-07-09T12:54:15Z</time>
      </trkpt>
      <trkpt lat="46.09169" lon="1.88344">
        <ele>620</ele>
        <time>2022-07-09T12:54:16Z</time>
      </trkpt>
      <trkpt lat="46.09157" lon="1.8834">
        <ele>620.2</ele>
        <time>2022-07-09T12:54:22Z</time>
      </trkpt>
      <trkpt lat="46.09155" lon="1.88338">
        <ele>620.2</ele>
        <time>2022-07-09T12:54:23Z</time>
      </trkpt>
      <trkpt lat="46.09139" lon="1.88322">
        <ele>620.2</ele>
        <time>2022-07-09T12:54:27Z</time>
      </trkpt>
      <trkpt lat="46.09116" lon="1.88306">
        <ele>619.2</ele>
        <time>2022-07-09T12:54:33Z</time>
      </trkpt>
      <trkpt lat="46.09084" lon="1.88281">
        <ele>618.6</ele>
        <time>2022-07-09T12:54:40Z</time>
      </trkpt>
      <trkpt lat="46.0908" lon="1.88278">
        <ele>618.2</ele>
        <time>2022-07-09T12:54:41Z</time>
      </trkpt>
      <trkpt lat="46.09068" lon="1.88272">
        <ele>617.2</ele>
        <time>2022-07-09T12:54:44Z</time>
      </trkpt>
      <trkpt lat="46.09065" lon="1.8827">
        <ele>616.8</ele>
        <time>2022-07-09T12:54:45Z</time>
      </trkpt>
      <trkpt lat="46.09055" lon="1.88262">
        <ele>615.2</ele>
        <time>2022-07-09T12:54:48Z</time>
      </trkpt>
      <trkpt lat="46.09047" lon="1.88255">
        <ele>614</ele>
        <time>2022-07-09T12:54:50Z</time>
      </trkpt>
      <trkpt lat="46.0904" lon="1.88252">
        <ele>613</ele>
        <time>2022-07-09T12:54:52Z</time>
      </trkpt>
      <trkpt lat="46.09035" lon="1.8825">
        <ele>612.6</ele>
        <time>2022-07-09T12:54:53Z</time>
      </trkpt>
      <trkpt lat="46.09026" lon="1.88244">
        <ele>611.6</ele>
        <time>2022-07-09T12:54:55Z</time>
      </trkpt>
      <trkpt lat="46.0902" lon="1.88238">
        <ele>611</ele>
        <time>2022-07-09T12:54:56Z</time>
      </trkpt>
      <trkpt lat="46.09015" lon="1.88229">
        <ele>610.4</ele>
        <time>2022-07-09T12:54:57Z</time>
      </trkpt>
      <trkpt lat="46.0901" lon="1.88225">
        <ele>610.2</ele>
        <time>2022-07-09T12:54:58Z</time>
      </trkpt>
      <trkpt lat="46.08998" lon="1.88226">
        <ele>609.2</ele>
        <time>2022-07-09T12:55:00Z</time>
      </trkpt>
      <trkpt lat="46.08992" lon="1.88228">
        <ele>608.8</ele>
        <time>2022-07-09T12:55:01Z</time>
      </trkpt>
      <trkpt lat="46.08988" lon="1.88228">
        <ele>608</ele>
        <time>2022-07-09T12:55:02Z</time>
      </trkpt>
      <trkpt lat="46.08974" lon="1.88226">
        <ele>606.8</ele>
        <time>2022-07-09T12:55:05Z</time>
      </trkpt>
      <trkpt lat="46.08972" lon="1.88225">
        <ele>606.2</ele>
        <time>2022-07-09T12:55:06Z</time>
      </trkpt>
      <trkpt lat="46.0897" lon="1.88224">
        <ele>606</ele>
        <time>2022-07-09T12:55:07Z</time>
      </trkpt>
      <trkpt lat="46.08969" lon="1.88221">
        <ele>605.6</ele>
        <time>2022-07-09T12:55:08Z</time>
      </trkpt>
      <trkpt lat="46.08968" lon="1.88217">
        <ele>605.2</ele>
        <time>2022-07-09T12:55:09Z</time>
      </trkpt>
      <trkpt lat="46.08968" lon="1.88206">
        <ele>604.4</ele>
        <time>2022-07-09T12:55:12Z</time>
      </trkpt>
      <trkpt lat="46.08964" lon="1.88184">
        <ele>603.4</ele>
        <time>2022-07-09T12:55:17Z</time>
      </trkpt>
      <trkpt lat="46.08962" lon="1.88179">
        <ele>603.2</ele>
        <time>2022-07-09T12:55:18Z</time>
      </trkpt>
      <trkpt lat="46.08951" lon="1.88156">
        <ele>602.8</ele>
        <time>2022-07-09T12:55:25Z</time>
      </trkpt>
      <trkpt lat="46.08949" lon="1.8815">
        <ele>603</ele>
        <time>2022-07-09T12:55:30Z</time>
      </trkpt>
      <trkpt lat="46.08949" lon="1.8815">
        <ele>603.2</ele>
        <time>2022-07-09T12:55:33Z</time>
      </trkpt>
      <trkpt lat="46.08944" lon="1.88146">
        <ele>603.4</ele>
        <time>2022-07-09T12:56:52Z</time>
      </trkpt>
      <trkpt lat="46.08943" lon="1.88144">
        <ele>603.2</ele>
        <time>2022-07-09T12:56:53Z</time>
      </trkpt>
      <trkpt lat="46.0894" lon="1.88142">
        <ele>603</ele>
        <time>2022-07-09T12:56:55Z</time>
      </trkpt>
      <trkpt lat="46.0894" lon="1.88141">
        <ele>603</ele>
        <time>2022-07-09T12:56:58Z</time>
      </trkpt>
      <trkpt lat="46.08938" lon="1.8814">
        <ele>602.8</ele>
        <time>2022-07-09T12:57:04Z</time>
      </trkpt>
      <trkpt lat="46.08932" lon="1.88135">
        <ele>602.8</ele>
        <time>2022-07-09T12:57:07Z</time>
      </trkpt>
      <trkpt lat="46.08918" lon="1.88127">
        <ele>602.8</ele>
        <time>2022-07-09T12:57:13Z</time>
      </trkpt>
      <trkpt lat="46.08896" lon="1.88123">
        <ele>602.8</ele>
        <time>2022-07-09T12:57:20Z</time>
      </trkpt>
      <trkpt lat="46.08877" lon="1.88126">
        <ele>602.6</ele>
        <time>2022-07-09T12:57:26Z</time>
      </trkpt>
      <trkpt lat="46.08849" lon="1.88134">
        <ele>603</ele>
        <time>2022-07-09T12:57:36Z</time>
      </trkpt>
      <trkpt lat="46.08834" lon="1.88142">
        <ele>603.4</ele>
        <time>2022-07-09T12:57:42Z</time>
      </trkpt>
      <trkpt lat="46.08814" lon="1.88154">
        <ele>603.8</ele>
        <time>2022-07-09T12:57:50Z</time>
      </trkpt>
      <trkpt lat="46.08807" lon="1.88159">
        <ele>604</ele>
        <time>2022-07-09T12:57:53Z</time>
      </trkpt>
      <trkpt lat="46.08795" lon="1.88165">
        <ele>604.4</ele>
        <time>2022-07-09T12:57:58Z</time>
      </trkpt>
      <trkpt lat="46.0878" lon="1.88173">
        <ele>604.8</ele>
        <time>2022-07-09T12:58:05Z</time>
      </trkpt>
      <trkpt lat="46.08774" lon="1.88175">
        <ele>605.2</ele>
        <time>2022-07-09T12:58:08Z</time>
      </trkpt>
      <trkpt lat="46.08772" lon="1.88176">
        <ele>605.2</ele>
        <time>2022-07-09T12:58:09Z</time>
      </trkpt>
      <trkpt lat="46.08769" lon="1.88177">
        <ele>605.6</ele>
        <time>2022-07-09T12:58:11Z</time>
      </trkpt>
      <trkpt lat="46.08761" lon="1.88182">
        <ele>606.2</ele>
        <time>2022-07-09T12:58:16Z</time>
      </trkpt>
      <trkpt lat="46.08756" lon="1.88184">
        <ele>606.6</ele>
        <time>2022-07-09T12:58:19Z</time>
      </trkpt>
      <trkpt lat="46.08749" lon="1.88187">
        <ele>607.2</ele>
        <time>2022-07-09T12:58:23Z</time>
      </trkpt>
      <trkpt lat="46.08747" lon="1.88188">
        <ele>607.4</ele>
        <time>2022-07-09T12:58:24Z</time>
      </trkpt>
      <trkpt lat="46.08745" lon="1.88189">
        <ele>607.6</ele>
        <time>2022-07-09T12:58:26Z</time>
      </trkpt>
      <trkpt lat="46.08739" lon="1.8819">
        <ele>608.4</ele>
        <time>2022-07-09T12:58:31Z</time>
      </trkpt>
      <trkpt lat="46.08737" lon="1.88191">
        <ele>608.6</ele>
        <time>2022-07-09T12:58:32Z</time>
      </trkpt>
      <trkpt lat="46.08736" lon="1.88191">
        <ele>609</ele>
        <time>2022-07-09T12:58:33Z</time>
      </trkpt>
      <trkpt lat="46.08734" lon="1.88193">
        <ele>609.4</ele>
        <time>2022-07-09T12:58:35Z</time>
      </trkpt>
      <trkpt lat="46.08728" lon="1.88198">
        <ele>610</ele>
        <time>2022-07-09T12:58:39Z</time>
      </trkpt>
      <trkpt lat="46.08725" lon="1.88199">
        <ele>610.4</ele>
        <time>2022-07-09T12:58:41Z</time>
      </trkpt>
      <trkpt lat="46.08724" lon="1.882">
        <ele>610.6</ele>
        <time>2022-07-09T12:58:42Z</time>
      </trkpt>
      <trkpt lat="46.08721" lon="1.88202">
        <ele>610.8</ele>
        <time>2022-07-09T12:58:44Z</time>
      </trkpt>
      <trkpt lat="46.08717" lon="1.88206">
        <ele>611.2</ele>
        <time>2022-07-09T12:58:48Z</time>
      </trkpt>
      <trkpt lat="46.08715" lon="1.88207">
        <ele>611.2</ele>
        <time>2022-07-09T12:58:49Z</time>
      </trkpt>
      <trkpt lat="46.08714" lon="1.8821">
        <ele>611.8</ele>
        <time>2022-07-09T12:58:52Z</time>
      </trkpt>
      <trkpt lat="46.08711" lon="1.88216">
        <ele>612.4</ele>
        <time>2022-07-09T12:58:56Z</time>
      </trkpt>
      <trkpt lat="46.08709" lon="1.88218">
        <ele>613</ele>
        <time>2022-07-09T12:58:59Z</time>
      </trkpt>
      <trkpt lat="46.08706" lon="1.88222">
        <ele>613.8</ele>
        <time>2022-07-09T12:59:04Z</time>
      </trkpt>
      <trkpt lat="46.08703" lon="1.88226">
        <ele>614.2</ele>
        <time>2022-07-09T12:59:06Z</time>
      </trkpt>
      <trkpt lat="46.08698" lon="1.88232">
        <ele>614.8</ele>
        <time>2022-07-09T12:59:11Z</time>
      </trkpt>
      <trkpt lat="46.08697" lon="1.88233">
        <ele>615.2</ele>
        <time>2022-07-09T12:59:13Z</time>
      </trkpt>
      <trkpt lat="46.08693" lon="1.88234">
        <ele>615.6</ele>
        <time>2022-07-09T12:59:17Z</time>
      </trkpt>
      <trkpt lat="46.08691" lon="1.88234">
        <ele>615.6</ele>
        <time>2022-07-09T12:59:18Z</time>
      </trkpt>
      <trkpt lat="46.08686" lon="1.88236">
        <ele>616.2</ele>
        <time>2022-07-09T12:59:21Z</time>
      </trkpt>
      <trkpt lat="46.08683" lon="1.88238">
        <ele>616.6</ele>
        <time>2022-07-09T12:59:23Z</time>
      </trkpt>
      <trkpt lat="46.08677" lon="1.8824">
        <ele>617.4</ele>
        <time>2022-07-09T12:59:26Z</time>
      </trkpt>
      <trkpt lat="46.08673" lon="1.8824">
        <ele>617.8</ele>
        <time>2022-07-09T12:59:28Z</time>
      </trkpt>
      <trkpt lat="46.08671" lon="1.88241">
        <ele>618.2</ele>
        <time>2022-07-09T12:59:29Z</time>
      </trkpt>
      <trkpt lat="46.08664" lon="1.88244">
        <ele>618.4</ele>
        <time>2022-07-09T12:59:33Z</time>
      </trkpt>
      <trkpt lat="46.08652" lon="1.88243">
        <ele>619.2</ele>
        <time>2022-07-09T12:59:38Z</time>
      </trkpt>
      <trkpt lat="46.08643" lon="1.88243">
        <ele>619.4</ele>
        <time>2022-07-09T12:59:43Z</time>
      </trkpt>
      <trkpt lat="46.08641" lon="1.88244">
        <ele>619.6</ele>
        <time>2022-07-09T12:59:44Z</time>
      </trkpt>
      <trkpt lat="46.08641" lon="1.88244">
        <ele>619.6</ele>
        <time>2022-07-09T12:59:45Z</time>
      </trkpt>
      <trkpt lat="46.08638" lon="1.88243">
        <ele>619.8</ele>
        <time>2022-07-09T12:59:50Z</time>
      </trkpt>
      <trkpt lat="46.08638" lon="1.88243">
        <ele>619.8</ele>
        <time>2022-07-09T12:59:51Z</time>
      </trkpt>
      <trkpt lat="46.08635" lon="1.88244">
        <ele>619.8</ele>
        <time>2022-07-09T12:59:54Z</time>
      </trkpt>
      <trkpt lat="46.08631" lon="1.88245">
        <ele>619.8</ele>
        <time>2022-07-09T12:59:58Z</time>
      </trkpt>
      <trkpt lat="46.08629" lon="1.88246">
        <ele>619.6</ele>
        <time>2022-07-09T12:59:59Z</time>
      </trkpt>
      <trkpt lat="46.08622" lon="1.88247">
        <ele>619.2</ele>
        <time>2022-07-09T13:00:04Z</time>
      </trkpt>
      <trkpt lat="46.08614" lon="1.88248">
        <ele>619</ele>
        <time>2022-07-09T13:00:08Z</time>
      </trkpt>
      <trkpt lat="46.08611" lon="1.88246">
        <ele>618.8</ele>
        <time>2022-07-09T13:00:10Z</time>
      </trkpt>
      <trkpt lat="46.08609" lon="1.88245">
        <ele>618.2</ele>
        <time>2022-07-09T13:00:12Z</time>
      </trkpt>
      <trkpt lat="46.08598" lon="1.88244">
        <ele>617.6</ele>
        <time>2022-07-09T13:00:18Z</time>
      </trkpt>
      <trkpt lat="46.08592" lon="1.88241">
        <ele>617.2</ele>
        <time>2022-07-09T13:00:21Z</time>
      </trkpt>
      <trkpt lat="46.08584" lon="1.88239">
        <ele>617</ele>
        <time>2022-07-09T13:00:24Z</time>
      </trkpt>
      <trkpt lat="46.08569" lon="1.88237">
        <ele>616.8</ele>
        <time>2022-07-09T13:00:28Z</time>
      </trkpt>
      <trkpt lat="46.08561" lon="1.88233">
        <ele>616.2</ele>
        <time>2022-07-09T13:00:30Z</time>
      </trkpt>
      <trkpt lat="46.08557" lon="1.88232">
        <ele>616</ele>
        <time>2022-07-09T13:00:31Z</time>
      </trkpt>
      <trkpt lat="46.08532" lon="1.88221">
        <ele>614.8</ele>
        <time>2022-07-09T13:00:37Z</time>
      </trkpt>
      <trkpt lat="46.08521" lon="1.88212">
        <ele>614.2</ele>
        <time>2022-07-09T13:00:40Z</time>
      </trkpt>
      <trkpt lat="46.0851" lon="1.88193">
        <ele>613.6</ele>
        <time>2022-07-09T13:00:43Z</time>
      </trkpt>
      <trkpt lat="46.08496" lon="1.88179">
        <ele>612.2</ele>
        <time>2022-07-09T13:00:47Z</time>
      </trkpt>
      <trkpt lat="46.0849" lon="1.88171">
        <ele>611.6</ele>
        <time>2022-07-09T13:00:49Z</time>
      </trkpt>
      <trkpt lat="46.08482" lon="1.88161">
        <ele>611</ele>
        <time>2022-07-09T13:00:51Z</time>
      </trkpt>
      <trkpt lat="46.08469" lon="1.88149">
        <ele>609.4</ele>
        <time>2022-07-09T13:00:54Z</time>
      </trkpt>
      <trkpt lat="46.08456" lon="1.88135">
        <ele>608.4</ele>
        <time>2022-07-09T13:00:57Z</time>
      </trkpt>
      <trkpt lat="46.0845" lon="1.88136">
        <ele>607.4</ele>
        <time>2022-07-09T13:00:59Z</time>
      </trkpt>
      <trkpt lat="46.08446" lon="1.88136">
        <ele>606.6</ele>
        <time>2022-07-09T13:01:00Z</time>
      </trkpt>
      <trkpt lat="46.0844" lon="1.88136">
        <ele>606.2</ele>
        <time>2022-07-09T13:01:02Z</time>
      </trkpt>
      <trkpt lat="46.08437" lon="1.88134">
        <ele>605.4</ele>
        <time>2022-07-09T13:01:03Z</time>
      </trkpt>
      <trkpt lat="46.08435" lon="1.88134">
        <ele>605.2</ele>
        <time>2022-07-09T13:01:04Z</time>
      </trkpt>
      <trkpt lat="46.08433" lon="1.88133">
        <ele>604.4</ele>
        <time>2022-07-09T13:01:05Z</time>
      </trkpt>
      <trkpt lat="46.0843" lon="1.88129">
        <ele>603.2</ele>
        <time>2022-07-09T13:01:09Z</time>
      </trkpt>
      <trkpt lat="46.08424" lon="1.88127">
        <ele>598.6</ele>
        <time>2022-07-09T13:02:33Z</time>
      </trkpt>
      <trkpt lat="46.08416" lon="1.88127">
        <ele>598.8</ele>
        <time>2022-07-09T13:02:36Z</time>
      </trkpt>
      <trkpt lat="46.08414" lon="1.88125">
        <ele>598.8</ele>
        <time>2022-07-09T13:02:37Z</time>
      </trkpt>
      <trkpt lat="46.08396" lon="1.88112">
        <ele>598.8</ele>
        <time>2022-07-09T13:02:42Z</time>
      </trkpt>
      <trkpt lat="46.08374" lon="1.88085">
        <ele>597.6</ele>
        <time>2022-07-09T13:02:49Z</time>
      </trkpt>
      <trkpt lat="46.08355" lon="1.88066">
        <ele>597</ele>
        <time>2022-07-09T13:02:54Z</time>
      </trkpt>
      <trkpt lat="46.08344" lon="1.88061">
        <ele>596.6</ele>
        <time>2022-07-09T13:02:58Z</time>
      </trkpt>
      <trkpt lat="46.08342" lon="1.8806">
        <ele>596.6</ele>
        <time>2022-07-09T13:02:59Z</time>
      </trkpt>
      <trkpt lat="46.08328" lon="1.88052">
        <ele>596</ele>
        <time>2022-07-09T13:03:04Z</time>
      </trkpt>
      <trkpt lat="46.08316" lon="1.88044">
        <ele>595.6</ele>
        <time>2022-07-09T13:03:08Z</time>
      </trkpt>
      <trkpt lat="46.08302" lon="1.88039">
        <ele>595</ele>
        <time>2022-07-09T13:03:13Z</time>
      </trkpt>
      <trkpt lat="46.08287" lon="1.88029">
        <ele>594.6</ele>
        <time>2022-07-09T13:03:19Z</time>
      </trkpt>
      <trkpt lat="46.08272" lon="1.88022">
        <ele>594.6</ele>
        <time>2022-07-09T13:03:24Z</time>
      </trkpt>
      <trkpt lat="46.0827" lon="1.88019">
        <ele>594.8</ele>
        <time>2022-07-09T13:03:25Z</time>
      </trkpt>
      <trkpt lat="46.08252" lon="1.87999">
        <ele>595.2</ele>
        <time>2022-07-09T13:03:33Z</time>
      </trkpt>
      <trkpt lat="46.08241" lon="1.87986">
        <ele>595</ele>
        <time>2022-07-09T13:03:39Z</time>
      </trkpt>
      <trkpt lat="46.08239" lon="1.87984">
        <ele>595</ele>
        <time>2022-07-09T13:03:40Z</time>
      </trkpt>
      <trkpt lat="46.08232" lon="1.8798">
        <ele>595</ele>
        <time>2022-07-09T13:03:43Z</time>
      </trkpt>
      <trkpt lat="46.0823" lon="1.8798">
        <ele>594.8</ele>
        <time>2022-07-09T13:03:44Z</time>
      </trkpt>
      <trkpt lat="46.08226" lon="1.87985">
        <ele>594.8</ele>
        <time>2022-07-09T13:03:47Z</time>
      </trkpt>
      <trkpt lat="46.08225" lon="1.87986">
        <ele>594.8</ele>
        <time>2022-07-09T13:03:48Z</time>
      </trkpt>
      <trkpt lat="46.08223" lon="1.87993">
        <ele>594.8</ele>
        <time>2022-07-09T13:03:52Z</time>
      </trkpt>
      <trkpt lat="46.08223" lon="1.87997">
        <ele>595.2</ele>
        <time>2022-07-09T13:03:54Z</time>
      </trkpt>
      <trkpt lat="46.08223" lon="1.88">
        <ele>595.8</ele>
        <time>2022-07-09T13:03:57Z</time>
      </trkpt>
      <trkpt lat="46.08223" lon="1.88002">
        <ele>596</ele>
        <time>2022-07-09T13:03:58Z</time>
      </trkpt>
      <trkpt lat="46.08223" lon="1.88007">
        <ele>596.8</ele>
        <time>2022-07-09T13:04:01Z</time>
      </trkpt>
      <trkpt lat="46.08223" lon="1.88009">
        <ele>597</ele>
        <time>2022-07-09T13:04:02Z</time>
      </trkpt>
      <trkpt lat="46.08223" lon="1.88011">
        <ele>597.4</ele>
        <time>2022-07-09T13:04:04Z</time>
      </trkpt>
      <trkpt lat="46.08222" lon="1.88012">
        <ele>597.8</ele>
        <time>2022-07-09T13:04:05Z</time>
      </trkpt>
      <trkpt lat="46.08219" lon="1.88014">
        <ele>598.2</ele>
        <time>2022-07-09T13:04:07Z</time>
      </trkpt>
      <trkpt lat="46.08218" lon="1.88016">
        <ele>598.4</ele>
        <time>2022-07-09T13:04:08Z</time>
      </trkpt>
      <trkpt lat="46.08218" lon="1.88019">
        <ele>599.2</ele>
        <time>2022-07-09T13:04:11Z</time>
      </trkpt>
      <trkpt lat="46.08217" lon="1.8802">
        <ele>599.4</ele>
        <time>2022-07-09T13:04:12Z</time>
      </trkpt>
      <trkpt lat="46.08216" lon="1.88023">
        <ele>600.8</ele>
        <time>2022-07-09T13:04:18Z</time>
      </trkpt>
      <trkpt lat="46.08215" lon="1.88025">
        <ele>601</ele>
        <time>2022-07-09T13:04:19Z</time>
      </trkpt>
      <trkpt lat="46.08214" lon="1.88026">
        <ele>601.8</ele>
        <time>2022-07-09T13:04:22Z</time>
      </trkpt>
      <trkpt lat="46.08212" lon="1.88031">
        <ele>602.4</ele>
        <time>2022-07-09T13:04:25Z</time>
      </trkpt>
      <trkpt lat="46.0821" lon="1.88034">
        <ele>602.8</ele>
        <time>2022-07-09T13:04:28Z</time>
      </trkpt>
      <trkpt lat="46.08206" lon="1.88039">
        <ele>603.4</ele>
        <time>2022-07-09T13:04:32Z</time>
      </trkpt>
      <trkpt lat="46.08204" lon="1.8804">
        <ele>603.4</ele>
        <time>2022-07-09T13:04:33Z</time>
      </trkpt>
      <trkpt lat="46.08201" lon="1.88044">
        <ele>603.8</ele>
        <time>2022-07-09T13:04:37Z</time>
      </trkpt>
      <trkpt lat="46.082" lon="1.88045">
        <ele>604</ele>
        <time>2022-07-09T13:04:38Z</time>
      </trkpt>
      <trkpt lat="46.08197" lon="1.88047">
        <ele>604</ele>
        <time>2022-07-09T13:04:40Z</time>
      </trkpt>
      <trkpt lat="46.08191" lon="1.88051">
        <ele>604.4</ele>
        <time>2022-07-09T13:04:44Z</time>
      </trkpt>
      <trkpt lat="46.08187" lon="1.88052">
        <ele>604.6</ele>
        <time>2022-07-09T13:04:46Z</time>
      </trkpt>
      <trkpt lat="46.08182" lon="1.88055">
        <ele>604.8</ele>
        <time>2022-07-09T13:04:49Z</time>
      </trkpt>
      <trkpt lat="46.08182" lon="1.88055">
        <ele>605</ele>
        <time>2022-07-09T13:04:50Z</time>
      </trkpt>
      <trkpt lat="46.08177" lon="1.88054">
        <ele>605.4</ele>
        <time>2022-07-09T13:04:56Z</time>
      </trkpt>
      <trkpt lat="46.08173" lon="1.88054">
        <ele>606</ele>
        <time>2022-07-09T13:05:02Z</time>
      </trkpt>
      <trkpt lat="46.08159" lon="1.88049">
        <ele>606.8</ele>
        <time>2022-07-09T13:05:09Z</time>
      </trkpt>
      <trkpt lat="46.0815" lon="1.88047">
        <ele>607</ele>
        <time>2022-07-09T13:05:13Z</time>
      </trkpt>
      <trkpt lat="46.08145" lon="1.88046">
        <ele>607.4</ele>
        <time>2022-07-09T13:05:15Z</time>
      </trkpt>
      <trkpt lat="46.08139" lon="1.88046">
        <ele>608</ele>
        <time>2022-07-09T13:05:18Z</time>
      </trkpt>
      <trkpt lat="46.08126" lon="1.88042">
        <ele>608.4</ele>
        <time>2022-07-09T13:05:24Z</time>
      </trkpt>
      <trkpt lat="46.08117" lon="1.88039">
        <ele>609</ele>
        <time>2022-07-09T13:05:27Z</time>
      </trkpt>
      <trkpt lat="46.08107" lon="1.88035">
        <ele>609.8</ele>
        <time>2022-07-09T13:05:31Z</time>
      </trkpt>
      <trkpt lat="46.08103" lon="1.88032">
        <ele>610</ele>
        <time>2022-07-09T13:05:34Z</time>
      </trkpt>
      <trkpt lat="46.08094" lon="1.88028">
        <ele>610.6</ele>
        <time>2022-07-09T13:05:38Z</time>
      </trkpt>
      <trkpt lat="46.08088" lon="1.88027">
        <ele>610.8</ele>
        <time>2022-07-09T13:05:40Z</time>
      </trkpt>
      <trkpt lat="46.08083" lon="1.88026">
        <ele>611.2</ele>
        <time>2022-07-09T13:05:43Z</time>
      </trkpt>
      <trkpt lat="46.08082" lon="1.88025">
        <ele>611.6</ele>
        <time>2022-07-09T13:05:45Z</time>
      </trkpt>
      <trkpt lat="46.08072" lon="1.88026">
        <ele>612.2</ele>
        <time>2022-07-09T13:05:51Z</time>
      </trkpt>
      <trkpt lat="46.0807" lon="1.88028">
        <ele>612.6</ele>
        <time>2022-07-09T13:05:53Z</time>
      </trkpt>
      <trkpt lat="46.08066" lon="1.88029">
        <ele>612.8</ele>
        <time>2022-07-09T13:05:56Z</time>
      </trkpt>
      <trkpt lat="46.08062" lon="1.88028">
        <ele>613</ele>
        <time>2022-07-09T13:05:59Z</time>
      </trkpt>
      <trkpt lat="46.08061" lon="1.88029">
        <ele>613.2</ele>
        <time>2022-07-09T13:06:00Z</time>
      </trkpt>
      <trkpt lat="46.08059" lon="1.88028">
        <ele>613.4</ele>
        <time>2022-07-09T13:06:01Z</time>
      </trkpt>
      <trkpt lat="46.0805" lon="1.88027">
        <ele>613.8</ele>
        <time>2022-07-09T13:06:05Z</time>
      </trkpt>
      <trkpt lat="46.08045" lon="1.88028">
        <ele>614.2</ele>
        <time>2022-07-09T13:06:07Z</time>
      </trkpt>
      <trkpt lat="46.08033" lon="1.88029">
        <ele>614.8</ele>
        <time>2022-07-09T13:06:13Z</time>
      </trkpt>
      <trkpt lat="46.0802" lon="1.88032">
        <ele>615</ele>
        <time>2022-07-09T13:06:18Z</time>
      </trkpt>
      <trkpt lat="46.08018" lon="1.88037">
        <ele>615</ele>
        <time>2022-07-09T13:06:20Z</time>
      </trkpt>
      <trkpt lat="46.08013" lon="1.88053">
        <ele>614.8</ele>
        <time>2022-07-09T13:06:23Z</time>
      </trkpt>
      <trkpt lat="46.08013" lon="1.88057">
        <ele>614.6</ele>
        <time>2022-07-09T13:06:24Z</time>
      </trkpt>
      <trkpt lat="46.08009" lon="1.88071">
        <ele>614.2</ele>
        <time>2022-07-09T13:06:27Z</time>
      </trkpt>
      <trkpt lat="46.08008" lon="1.88073">
        <ele>613.4</ele>
        <time>2022-07-09T13:06:28Z</time>
      </trkpt>
      <trkpt lat="46.08003" lon="1.88077">
        <ele>613</ele>
        <time>2022-07-09T13:06:29Z</time>
      </trkpt>
      <trkpt lat="46.07997" lon="1.8808">
        <ele>612</ele>
        <time>2022-07-09T13:06:31Z</time>
      </trkpt>
      <trkpt lat="46.07989" lon="1.88081">
        <ele>610.8</ele>
        <time>2022-07-09T13:06:33Z</time>
      </trkpt>
      <trkpt lat="46.07979" lon="1.88086">
        <ele>609.6</ele>
        <time>2022-07-09T13:06:35Z</time>
      </trkpt>
      <trkpt lat="46.0796" lon="1.88098">
        <ele>607.8</ele>
        <time>2022-07-09T13:06:39Z</time>
      </trkpt>
      <trkpt lat="46.07948" lon="1.88104">
        <ele>607.4</ele>
        <time>2022-07-09T13:06:41Z</time>
      </trkpt>
      <trkpt lat="46.07938" lon="1.88106">
        <ele>606.6</ele>
        <time>2022-07-09T13:06:43Z</time>
      </trkpt>
      <trkpt lat="46.07925" lon="1.88116">
        <ele>605</ele>
        <time>2022-07-09T13:06:46Z</time>
      </trkpt>
      <trkpt lat="46.07916" lon="1.88119">
        <ele>604.2</ele>
        <time>2022-07-09T13:06:48Z</time>
      </trkpt>
      <trkpt lat="46.07912" lon="1.88119">
        <ele>603.6</ele>
        <time>2022-07-09T13:06:49Z</time>
      </trkpt>
      <trkpt lat="46.07905" lon="1.88124">
        <ele>602.4</ele>
        <time>2022-07-09T13:06:51Z</time>
      </trkpt>
      <trkpt lat="46.07894" lon="1.88128">
        <ele>601.8</ele>
        <time>2022-07-09T13:06:54Z</time>
      </trkpt>
      <trkpt lat="46.07888" lon="1.88131">
        <ele>601.4</ele>
        <time>2022-07-09T13:06:55Z</time>
      </trkpt>
      <trkpt lat="46.07874" lon="1.88141">
        <ele>599.8</ele>
        <time>2022-07-09T13:06:58Z</time>
      </trkpt>
      <trkpt lat="46.0787" lon="1.88143">
        <ele>599.4</ele>
        <time>2022-07-09T13:06:59Z</time>
      </trkpt>
      <trkpt lat="46.07853" lon="1.8815">
        <ele>598.8</ele>
        <time>2022-07-09T13:07:02Z</time>
      </trkpt>
      <trkpt lat="46.07849" lon="1.88154">
        <ele>598.6</ele>
        <time>2022-07-09T13:07:03Z</time>
      </trkpt>
      <trkpt lat="46.07844" lon="1.88157">
        <ele>596.8</ele>
        <time>2022-07-09T13:07:05Z</time>
      </trkpt>
      <trkpt lat="46.07842" lon="1.88155">
        <ele>596.2</ele>
        <time>2022-07-09T13:07:06Z</time>
      </trkpt>
      <trkpt lat="46.07838" lon="1.88155">
        <ele>595.4</ele>
        <time>2022-07-09T13:07:07Z</time>
      </trkpt>
      <trkpt lat="46.07824" lon="1.88158">
        <ele>594.2</ele>
        <time>2022-07-09T13:07:11Z</time>
      </trkpt>
      <trkpt lat="46.07818" lon="1.8816">
        <ele>592.8</ele>
        <time>2022-07-09T13:07:13Z</time>
      </trkpt>
      <trkpt lat="46.07809" lon="1.88164">
        <ele>591.6</ele>
        <time>2022-07-09T13:07:15Z</time>
      </trkpt>
      <trkpt lat="46.07806" lon="1.88166">
        <ele>590.4</ele>
        <time>2022-07-09T13:07:16Z</time>
      </trkpt>
      <trkpt lat="46.07802" lon="1.88169">
        <ele>589.8</ele>
        <time>2022-07-09T13:07:17Z</time>
      </trkpt>
      <trkpt lat="46.07797" lon="1.88172">
        <ele>589.2</ele>
        <time>2022-07-09T13:07:18Z</time>
      </trkpt>
      <trkpt lat="46.07783" lon="1.88179">
        <ele>587.6</ele>
        <time>2022-07-09T13:07:21Z</time>
      </trkpt>
      <trkpt lat="46.07777" lon="1.88179">
        <ele>585.6</ele>
        <time>2022-07-09T13:07:23Z</time>
      </trkpt>
      <trkpt lat="46.07774" lon="1.88179">
        <ele>584.8</ele>
        <time>2022-07-09T13:07:24Z</time>
      </trkpt>
      <trkpt lat="46.07771" lon="1.8818">
        <ele>583.6</ele>
        <time>2022-07-09T13:07:25Z</time>
      </trkpt>
      <trkpt lat="46.07765" lon="1.88182">
        <ele>582.2</ele>
        <time>2022-07-09T13:07:27Z</time>
      </trkpt>
      <trkpt lat="46.07755" lon="1.88194">
        <ele>581</ele>
        <time>2022-07-09T13:07:30Z</time>
      </trkpt>
      <trkpt lat="46.0774" lon="1.88209">
        <ele>580</ele>
        <time>2022-07-09T13:07:33Z</time>
      </trkpt>
      <trkpt lat="46.07729" lon="1.88225">
        <ele>578.8</ele>
        <time>2022-07-09T13:07:37Z</time>
      </trkpt>
      <trkpt lat="46.07729" lon="1.88231">
        <ele>578.6</ele>
        <time>2022-07-09T13:07:38Z</time>
      </trkpt>
      <trkpt lat="46.0773" lon="1.88241">
        <ele>578.2</ele>
        <time>2022-07-09T13:07:40Z</time>
      </trkpt>
      <trkpt lat="46.07734" lon="1.88263">
        <ele>577.8</ele>
        <time>2022-07-09T13:07:44Z</time>
      </trkpt>
      <trkpt lat="46.07732" lon="1.8827">
        <ele>577.4</ele>
        <time>2022-07-09T13:07:45Z</time>
      </trkpt>
      <trkpt lat="46.0773" lon="1.88273">
        <ele>577</ele>
        <time>2022-07-09T13:07:46Z</time>
      </trkpt>
      <trkpt lat="46.07725" lon="1.88275">
        <ele>576.4</ele>
        <time>2022-07-09T13:07:48Z</time>
      </trkpt>
      <trkpt lat="46.07713" lon="1.88277">
        <ele>575.6</ele>
        <time>2022-07-09T13:07:51Z</time>
      </trkpt>
      <trkpt lat="46.07711" lon="1.88278">
        <ele>575.2</ele>
        <time>2022-07-09T13:07:52Z</time>
      </trkpt>
      <trkpt lat="46.0771" lon="1.88283">
        <ele>574.8</ele>
        <time>2022-07-09T13:07:53Z</time>
      </trkpt>
      <trkpt lat="46.07708" lon="1.88291">
        <ele>574</ele>
        <time>2022-07-09T13:07:55Z</time>
      </trkpt>
      <trkpt lat="46.07705" lon="1.88313">
        <ele>573.2</ele>
        <time>2022-07-09T13:07:59Z</time>
      </trkpt>
      <trkpt lat="46.07705" lon="1.88322">
        <ele>572.8</ele>
        <time>2022-07-09T13:08:00Z</time>
      </trkpt>
      <trkpt lat="46.07699" lon="1.88335">
        <ele>572.4</ele>
        <time>2022-07-09T13:08:03Z</time>
      </trkpt>
      <trkpt lat="46.07695" lon="1.88344">
        <ele>571.6</ele>
        <time>2022-07-09T13:08:06Z</time>
      </trkpt>
      <trkpt lat="46.07695" lon="1.88351">
        <ele>570.8</ele>
        <time>2022-07-09T13:08:08Z</time>
      </trkpt>
      <trkpt lat="46.07696" lon="1.88354">
        <ele>570.4</ele>
        <time>2022-07-09T13:08:09Z</time>
      </trkpt>
      <trkpt lat="46.07696" lon="1.88357">
        <ele>570.2</ele>
        <time>2022-07-09T13:08:10Z</time>
      </trkpt>
      <trkpt lat="46.07695" lon="1.88365">
        <ele>569.2</ele>
        <time>2022-07-09T13:08:12Z</time>
      </trkpt>
      <trkpt lat="46.07692" lon="1.88372">
        <ele>567.4</ele>
        <time>2022-07-09T13:08:14Z</time>
      </trkpt>
      <trkpt lat="46.07689" lon="1.8838">
        <ele>566</ele>
        <time>2022-07-09T13:08:16Z</time>
      </trkpt>
      <trkpt lat="46.07686" lon="1.88388">
        <ele>565.2</ele>
        <time>2022-07-09T13:08:18Z</time>
      </trkpt>
      <trkpt lat="46.07685" lon="1.88391">
        <ele>565</ele>
        <time>2022-07-09T13:08:19Z</time>
      </trkpt>
      <trkpt lat="46.0768" lon="1.88403">
        <ele>564.2</ele>
        <time>2022-07-09T13:08:23Z</time>
      </trkpt>
      <trkpt lat="46.07678" lon="1.88408">
        <ele>564.2</ele>
        <time>2022-07-09T13:08:26Z</time>
      </trkpt>
      <trkpt lat="46.07676" lon="1.88414">
        <ele>564.2</ele>
        <time>2022-07-09T13:08:28Z</time>
      </trkpt>
      <trkpt lat="46.07675" lon="1.8842">
        <ele>564.6</ele>
        <time>2022-07-09T13:08:32Z</time>
      </trkpt>
      <trkpt lat="46.07672" lon="1.88422">
        <ele>564.8</ele>
        <time>2022-07-09T13:08:35Z</time>
      </trkpt>
      <trkpt lat="46.07669" lon="1.88422">
        <ele>565.6</ele>
        <time>2022-07-09T13:08:37Z</time>
      </trkpt>
      <trkpt lat="46.07667" lon="1.88423">
        <ele>566</ele>
        <time>2022-07-09T13:08:39Z</time>
      </trkpt>
      <trkpt lat="46.07665" lon="1.88425">
        <ele>566.2</ele>
        <time>2022-07-09T13:08:41Z</time>
      </trkpt>
      <trkpt lat="46.07659" lon="1.88428">
        <ele>566.6</ele>
        <time>2022-07-09T13:08:45Z</time>
      </trkpt>
      <trkpt lat="46.07658" lon="1.8843">
        <ele>567</ele>
        <time>2022-07-09T13:08:47Z</time>
      </trkpt>
      <trkpt lat="46.07658" lon="1.8843">
        <ele>567.4</ele>
        <time>2022-07-09T13:08:49Z</time>
      </trkpt>
      <trkpt lat="46.07653" lon="1.88431">
        <ele>568.2</ele>
        <time>2022-07-09T13:08:54Z</time>
      </trkpt>
      <trkpt lat="46.07652" lon="1.88432">
        <ele>568.4</ele>
        <time>2022-07-09T13:08:55Z</time>
      </trkpt>
      <trkpt lat="46.07649" lon="1.88432">
        <ele>568.6</ele>
        <time>2022-07-09T13:08:58Z</time>
      </trkpt>
      <trkpt lat="46.07646" lon="1.88433">
        <ele>569</ele>
        <time>2022-07-09T13:09:00Z</time>
      </trkpt>
      <trkpt lat="46.07642" lon="1.88433">
        <ele>569.4</ele>
        <time>2022-07-09T13:09:03Z</time>
      </trkpt>
      <trkpt lat="46.07633" lon="1.8844">
        <ele>570</ele>
        <time>2022-07-09T13:09:09Z</time>
      </trkpt>
      <trkpt lat="46.07629" lon="1.88446">
        <ele>570.2</ele>
        <time>2022-07-09T13:09:12Z</time>
      </trkpt>
      <trkpt lat="46.07628" lon="1.88447">
        <ele>570.4</ele>
        <time>2022-07-09T13:09:13Z</time>
      </trkpt>
      <trkpt lat="46.07625" lon="1.88448">
        <ele>570.8</ele>
        <time>2022-07-09T13:09:15Z</time>
      </trkpt>
      <trkpt lat="46.07624" lon="1.88449">
        <ele>570.8</ele>
        <time>2022-07-09T13:09:16Z</time>
      </trkpt>
      <trkpt lat="46.07618" lon="1.88456">
        <ele>571.6</ele>
        <time>2022-07-09T13:09:21Z</time>
      </trkpt>
      <trkpt lat="46.07616" lon="1.88457">
        <ele>571.8</ele>
        <time>2022-07-09T13:09:22Z</time>
      </trkpt>
      <trkpt lat="46.07608" lon="1.88463">
        <ele>572.2</ele>
        <time>2022-07-09T13:09:29Z</time>
      </trkpt>
      <trkpt lat="46.07606" lon="1.88465">
        <ele>572.4</ele>
        <time>2022-07-09T13:09:31Z</time>
      </trkpt>
      <trkpt lat="46.07603" lon="1.88469">
        <ele>572.8</ele>
        <time>2022-07-09T13:09:34Z</time>
      </trkpt>
      <trkpt lat="46.07601" lon="1.88471">
        <ele>572.8</ele>
        <time>2022-07-09T13:09:35Z</time>
      </trkpt>
      <trkpt lat="46.07599" lon="1.88473">
        <ele>572.8</ele>
        <time>2022-07-09T13:09:36Z</time>
      </trkpt>
      <trkpt lat="46.07591" lon="1.88479">
        <ele>573.4</ele>
        <time>2022-07-09T13:09:41Z</time>
      </trkpt>
      <trkpt lat="46.07585" lon="1.88484">
        <ele>573.8</ele>
        <time>2022-07-09T13:09:45Z</time>
      </trkpt>
      <trkpt lat="46.07576" lon="1.88489">
        <ele>574.6</ele>
        <time>2022-07-09T13:09:51Z</time>
      </trkpt>
      <trkpt lat="46.07576" lon="1.88489">
        <ele>574.8</ele>
        <time>2022-07-09T13:09:52Z</time>
      </trkpt>
      <trkpt lat="46.07571" lon="1.88495">
        <ele>575.6</ele>
        <time>2022-07-09T13:09:57Z</time>
      </trkpt>
      <trkpt lat="46.07568" lon="1.88499">
        <ele>576.2</ele>
        <time>2022-07-09T13:09:59Z</time>
      </trkpt>
      <trkpt lat="46.07566" lon="1.885">
        <ele>576.4</ele>
        <time>2022-07-09T13:10:00Z</time>
      </trkpt>
      <trkpt lat="46.07564" lon="1.885">
        <ele>576.8</ele>
        <time>2022-07-09T13:10:02Z</time>
      </trkpt>
      <trkpt lat="46.07562" lon="1.88501">
        <ele>576.8</ele>
        <time>2022-07-09T13:10:03Z</time>
      </trkpt>
      <trkpt lat="46.07561" lon="1.88503">
        <ele>577.2</ele>
        <time>2022-07-09T13:10:06Z</time>
      </trkpt>
      <trkpt lat="46.07559" lon="1.8851">
        <ele>577.8</ele>
        <time>2022-07-09T13:10:10Z</time>
      </trkpt>
      <trkpt lat="46.07558" lon="1.88512">
        <ele>578</ele>
        <time>2022-07-09T13:10:11Z</time>
      </trkpt>
      <trkpt lat="46.07557" lon="1.88514">
        <ele>578.4</ele>
        <time>2022-07-09T13:10:13Z</time>
      </trkpt>
      <trkpt lat="46.07555" lon="1.88517">
        <ele>578.6</ele>
        <time>2022-07-09T13:10:15Z</time>
      </trkpt>
      <trkpt lat="46.0755" lon="1.88521">
        <ele>579</ele>
        <time>2022-07-09T13:10:18Z</time>
      </trkpt>
      <trkpt lat="46.07547" lon="1.88524">
        <ele>579.4</ele>
        <time>2022-07-09T13:10:20Z</time>
      </trkpt>
      <trkpt lat="46.07546" lon="1.88526">
        <ele>579.6</ele>
        <time>2022-07-09T13:10:21Z</time>
      </trkpt>
      <trkpt lat="46.07538" lon="1.88531">
        <ele>580.4</ele>
        <time>2022-07-09T13:10:26Z</time>
      </trkpt>
      <trkpt lat="46.07533" lon="1.88535">
        <ele>581</ele>
        <time>2022-07-09T13:10:29Z</time>
      </trkpt>
      <trkpt lat="46.07532" lon="1.88536">
        <ele>581.2</ele>
        <time>2022-07-09T13:10:30Z</time>
      </trkpt>
      <trkpt lat="46.07531" lon="1.88539">
        <ele>581.6</ele>
        <time>2022-07-09T13:10:33Z</time>
      </trkpt>
      <trkpt lat="46.07531" lon="1.88539">
        <ele>581.8</ele>
        <time>2022-07-09T13:10:34Z</time>
      </trkpt>
      <trkpt lat="46.07528" lon="1.88542">
        <ele>582.6</ele>
        <time>2022-07-09T13:10:40Z</time>
      </trkpt>
      <trkpt lat="46.07526" lon="1.88544">
        <ele>583.2</ele>
        <time>2022-07-09T13:10:47Z</time>
      </trkpt>
      <trkpt lat="46.07524" lon="1.88546">
        <ele>583.4</ele>
        <time>2022-07-09T13:10:51Z</time>
      </trkpt>
      <trkpt lat="46.07517" lon="1.88552">
        <ele>584.4</ele>
        <time>2022-07-09T13:10:59Z</time>
      </trkpt>
      <trkpt lat="46.07515" lon="1.88555">
        <ele>584.4</ele>
        <time>2022-07-09T13:11:00Z</time>
      </trkpt>
      <trkpt lat="46.07513" lon="1.88557">
        <ele>584.6</ele>
        <time>2022-07-09T13:11:01Z</time>
      </trkpt>
      <trkpt lat="46.0751" lon="1.88559">
        <ele>585.2</ele>
        <time>2022-07-09T13:11:05Z</time>
      </trkpt>
      <trkpt lat="46.07509" lon="1.88559">
        <ele>585.4</ele>
        <time>2022-07-09T13:11:06Z</time>
      </trkpt>
      <trkpt lat="46.07501" lon="1.88564">
        <ele>586.4</ele>
        <time>2022-07-09T13:11:13Z</time>
      </trkpt>
      <trkpt lat="46.075" lon="1.88565">
        <ele>586.4</ele>
        <time>2022-07-09T13:11:14Z</time>
      </trkpt>
      <trkpt lat="46.07488" lon="1.8857">
        <ele>586.8</ele>
        <time>2022-07-09T13:11:20Z</time>
      </trkpt>
      <trkpt lat="46.07474" lon="1.88577">
        <ele>586.8</ele>
        <time>2022-07-09T13:11:25Z</time>
      </trkpt>
      <trkpt lat="46.07469" lon="1.88581">
        <ele>586.8</ele>
        <time>2022-07-09T13:11:27Z</time>
      </trkpt>
      <trkpt lat="46.07453" lon="1.88592">
        <ele>586.8</ele>
        <time>2022-07-09T13:11:33Z</time>
      </trkpt>
      <trkpt lat="46.07449" lon="1.88593">
        <ele>586.8</ele>
        <time>2022-07-09T13:11:34Z</time>
      </trkpt>
      <trkpt lat="46.07435" lon="1.88601">
        <ele>587</ele>
        <time>2022-07-09T13:11:38Z</time>
      </trkpt>
      <trkpt lat="46.07433" lon="1.886">
        <ele>587</ele>
        <time>2022-07-09T13:11:39Z</time>
      </trkpt>
      <trkpt lat="46.07425" lon="1.88598">
        <ele>587</ele>
        <time>2022-07-09T13:11:42Z</time>
      </trkpt>
      <trkpt lat="46.07408" lon="1.88598">
        <ele>587.2</ele>
        <time>2022-07-09T13:11:50Z</time>
      </trkpt>
      <trkpt lat="46.07406" lon="1.886">
        <ele>587.4</ele>
        <time>2022-07-09T13:11:53Z</time>
      </trkpt>
      <trkpt lat="46.07404" lon="1.88603">
        <ele>587.8</ele>
        <time>2022-07-09T13:11:57Z</time>
      </trkpt>
      <trkpt lat="46.07403" lon="1.88605">
        <ele>588</ele>
        <time>2022-07-09T13:11:58Z</time>
      </trkpt>
      <trkpt lat="46.07403" lon="1.88607">
        <ele>588.8</ele>
        <time>2022-07-09T13:12:01Z</time>
      </trkpt>
      <trkpt lat="46.07401" lon="1.88608">
        <ele>589.4</ele>
        <time>2022-07-09T13:12:04Z</time>
      </trkpt>
      <trkpt lat="46.07401" lon="1.88608">
        <ele>589.6</ele>
        <time>2022-07-09T13:12:05Z</time>
      </trkpt>
      <trkpt lat="46.07396" lon="1.88614">
        <ele>590.6</ele>
        <time>2022-07-09T13:12:10Z</time>
      </trkpt>
      <trkpt lat="46.07396" lon="1.88614">
        <ele>590.8</ele>
        <time>2022-07-09T13:12:11Z</time>
      </trkpt>
      <trkpt lat="46.07394" lon="1.88616">
        <ele>591</ele>
        <time>2022-07-09T13:12:13Z</time>
      </trkpt>
      <trkpt lat="46.07393" lon="1.88619">
        <ele>591.4</ele>
        <time>2022-07-09T13:12:17Z</time>
      </trkpt>
      <trkpt lat="46.07391" lon="1.88621">
        <ele>591.6</ele>
        <time>2022-07-09T13:12:19Z</time>
      </trkpt>
      <trkpt lat="46.07391" lon="1.88622">
        <ele>592.6</ele>
        <time>2022-07-09T13:12:24Z</time>
      </trkpt>
      <trkpt lat="46.07386" lon="1.88626">
        <ele>593.4</ele>
        <time>2022-07-09T13:12:28Z</time>
      </trkpt>
      <trkpt lat="46.07385" lon="1.8863">
        <ele>594.4</ele>
        <time>2022-07-09T13:12:33Z</time>
      </trkpt>
      <trkpt lat="46.07381" lon="1.88634">
        <ele>595.2</ele>
        <time>2022-07-09T13:12:38Z</time>
      </trkpt>
      <trkpt lat="46.0738" lon="1.88635">
        <ele>595.4</ele>
        <time>2022-07-09T13:12:40Z</time>
      </trkpt>
      <trkpt lat="46.07376" lon="1.88636">
        <ele>595.8</ele>
        <time>2022-07-09T13:12:42Z</time>
      </trkpt>
      <trkpt lat="46.07371" lon="1.88639">
        <ele>596</ele>
        <time>2022-07-09T13:12:44Z</time>
      </trkpt>
      <trkpt lat="46.07364" lon="1.88643">
        <ele>596.2</ele>
        <time>2022-07-09T13:12:47Z</time>
      </trkpt>
      <trkpt lat="46.07356" lon="1.88646">
        <ele>596.2</ele>
        <time>2022-07-09T13:12:50Z</time>
      </trkpt>
      <trkpt lat="46.07329" lon="1.88661">
        <ele>595.8</ele>
        <time>2022-07-09T13:12:58Z</time>
      </trkpt>
      <trkpt lat="46.07326" lon="1.88662">
        <ele>595.6</ele>
        <time>2022-07-09T13:12:59Z</time>
      </trkpt>
      <trkpt lat="46.0732" lon="1.88666">
        <ele>595.6</ele>
        <time>2022-07-09T13:13:01Z</time>
      </trkpt>
      <trkpt lat="46.07307" lon="1.8867">
        <ele>595.4</ele>
        <time>2022-07-09T13:13:07Z</time>
      </trkpt>
      <trkpt lat="46.07305" lon="1.88669">
        <ele>595</ele>
        <time>2022-07-09T13:13:08Z</time>
      </trkpt>
      <trkpt lat="46.07298" lon="1.88666">
        <ele>594.2</ele>
        <time>2022-07-09T13:13:11Z</time>
      </trkpt>
      <trkpt lat="46.07296" lon="1.88664">
        <ele>593.8</ele>
        <time>2022-07-09T13:13:12Z</time>
      </trkpt>
      <trkpt lat="46.07293" lon="1.88661">
        <ele>593.6</ele>
        <time>2022-07-09T13:13:13Z</time>
      </trkpt>
      <trkpt lat="46.07287" lon="1.88655">
        <ele>592.8</ele>
        <time>2022-07-09T13:13:16Z</time>
      </trkpt>
      <trkpt lat="46.07281" lon="1.8865">
        <ele>592</ele>
        <time>2022-07-09T13:13:18Z</time>
      </trkpt>
      <trkpt lat="46.07278" lon="1.88645">
        <ele>591.2</ele>
        <time>2022-07-09T13:13:19Z</time>
      </trkpt>
      <trkpt lat="46.07272" lon="1.88641">
        <ele>590</ele>
        <time>2022-07-09T13:13:21Z</time>
      </trkpt>
      <trkpt lat="46.07264" lon="1.88634">
        <ele>588.8</ele>
        <time>2022-07-09T13:13:24Z</time>
      </trkpt>
      <trkpt lat="46.07261" lon="1.88633">
        <ele>588.8</ele>
        <time>2022-07-09T13:13:25Z</time>
      </trkpt>
      <trkpt lat="46.07255" lon="1.88631">
        <ele>587.2</ele>
        <time>2022-07-09T13:13:27Z</time>
      </trkpt>
      <trkpt lat="46.07249" lon="1.88627">
        <ele>586.4</ele>
        <time>2022-07-09T13:13:29Z</time>
      </trkpt>
      <trkpt lat="46.07246" lon="1.88628">
        <ele>586.2</ele>
        <time>2022-07-09T13:13:30Z</time>
      </trkpt>
      <trkpt lat="46.07237" lon="1.88629">
        <ele>585</ele>
        <time>2022-07-09T13:13:32Z</time>
      </trkpt>
      <trkpt lat="46.0723" lon="1.88632">
        <ele>583.8</ele>
        <time>2022-07-09T13:13:34Z</time>
      </trkpt>
      <trkpt lat="46.07222" lon="1.88637">
        <ele>582.6</ele>
        <time>2022-07-09T13:13:36Z</time>
      </trkpt>
      <trkpt lat="46.07219" lon="1.8864">
        <ele>582.4</ele>
        <time>2022-07-09T13:13:37Z</time>
      </trkpt>
      <trkpt lat="46.07214" lon="1.88641">
        <ele>581.6</ele>
        <time>2022-07-09T13:13:39Z</time>
      </trkpt>
      <trkpt lat="46.07205" lon="1.88644">
        <ele>580.2</ele>
        <time>2022-07-09T13:13:43Z</time>
      </trkpt>
      <trkpt lat="46.072" lon="1.88644">
        <ele>579.2</ele>
        <time>2022-07-09T13:13:45Z</time>
      </trkpt>
      <trkpt lat="46.07188" lon="1.8865">
        <ele>578</ele>
        <time>2022-07-09T13:13:49Z</time>
      </trkpt>
      <trkpt lat="46.07179" lon="1.88657">
        <ele>576.4</ele>
        <time>2022-07-09T13:13:52Z</time>
      </trkpt>
      <trkpt lat="46.07177" lon="1.88659">
        <ele>576.2</ele>
        <time>2022-07-09T13:13:53Z</time>
      </trkpt>
      <trkpt lat="46.07173" lon="1.88663">
        <ele>575.2</ele>
        <time>2022-07-09T13:13:56Z</time>
      </trkpt>
      <trkpt lat="46.07172" lon="1.88663">
        <ele>574.6</ele>
        <time>2022-07-09T13:13:58Z</time>
      </trkpt>
      <trkpt lat="46.07171" lon="1.88662">
        <ele>574.2</ele>
        <time>2022-07-09T13:14:00Z</time>
      </trkpt>
      <trkpt lat="46.0717" lon="1.8866">
        <ele>573.8</ele>
        <time>2022-07-09T13:14:01Z</time>
      </trkpt>
      <trkpt lat="46.0717" lon="1.8866">
        <ele>573</ele>
        <time>2022-07-09T13:14:05Z</time>
      </trkpt>
      <trkpt lat="46.0717" lon="1.88655">
        <ele>572.6</ele>
        <time>2022-07-09T13:14:08Z</time>
      </trkpt>
      <trkpt lat="46.0717" lon="1.88652">
        <ele>572.6</ele>
        <time>2022-07-09T13:14:09Z</time>
      </trkpt>
      <trkpt lat="46.0717" lon="1.88634">
        <ele>571.2</ele>
        <time>2022-07-09T13:14:14Z</time>
      </trkpt>
      <trkpt lat="46.0717" lon="1.88632">
        <ele>570.8</ele>
        <time>2022-07-09T13:14:15Z</time>
      </trkpt>
      <trkpt lat="46.0717" lon="1.88629">
        <ele>570.4</ele>
        <time>2022-07-09T13:14:16Z</time>
      </trkpt>
      <trkpt lat="46.0717" lon="1.88627">
        <ele>569.8</ele>
        <time>2022-07-09T13:14:17Z</time>
      </trkpt>
      <trkpt lat="46.0717" lon="1.88627">
        <ele>569</ele>
        <time>2022-07-09T13:14:19Z</time>
      </trkpt>
      <trkpt lat="46.0717" lon="1.88627">
        <ele>568.4</ele>
        <time>2022-07-09T13:14:20Z</time>
      </trkpt>
      <trkpt lat="46.0717" lon="1.88628">
        <ele>566.8</ele>
        <time>2022-07-09T13:14:41Z</time>
      </trkpt>
      <trkpt lat="46.07169" lon="1.88629">
        <ele>566.8</ele>
        <time>2022-07-09T13:14:43Z</time>
      </trkpt>
      <trkpt lat="46.07166" lon="1.88635">
        <ele>569</ele>
        <time>2022-07-09T13:15:00Z</time>
      </trkpt>
      <trkpt lat="46.07165" lon="1.88637">
        <ele>570</ele>
        <time>2022-07-09T13:15:06Z</time>
      </trkpt>
      <trkpt lat="46.07165" lon="1.88646">
        <ele>571.2</ele>
        <time>2022-07-09T13:15:52Z</time>
      </trkpt>
      <trkpt lat="46.07166" lon="1.88646">
        <ele>571.6</ele>
        <time>2022-07-09T13:15:54Z</time>
      </trkpt>
      <trkpt lat="46.0717" lon="1.8864">
        <ele>571.8</ele>
        <time>2022-07-09T13:16:09Z</time>
      </trkpt>
      <trkpt lat="46.07175" lon="1.88634">
        <ele>571.8</ele>
        <time>2022-07-09T13:16:13Z</time>
      </trkpt>
      <trkpt lat="46.07177" lon="1.88632">
        <ele>571.8</ele>
        <time>2022-07-09T13:16:14Z</time>
      </trkpt>
      <trkpt lat="46.0719" lon="1.88616">
        <ele>571.8</ele>
        <time>2022-07-09T13:16:22Z</time>
      </trkpt>
      <trkpt lat="46.07193" lon="1.88614">
        <ele>571.8</ele>
        <time>2022-07-09T13:16:23Z</time>
      </trkpt>
      <trkpt lat="46.07199" lon="1.88605">
        <ele>571.8</ele>
        <time>2022-07-09T13:16:25Z</time>
      </trkpt>
      <trkpt lat="46.07204" lon="1.88599">
        <ele>571.6</ele>
        <time>2022-07-09T13:16:27Z</time>
      </trkpt>
      <trkpt lat="46.07206" lon="1.88596">
        <ele>571.6</ele>
        <time>2022-07-09T13:16:28Z</time>
      </trkpt>
      <trkpt lat="46.07212" lon="1.8859">
        <ele>571.6</ele>
        <time>2022-07-09T13:16:30Z</time>
      </trkpt>
      <trkpt lat="46.07223" lon="1.88575">
        <ele>571.6</ele>
        <time>2022-07-09T13:16:34Z</time>
      </trkpt>
      <trkpt lat="46.07227" lon="1.88567">
        <ele>571.4</ele>
        <time>2022-07-09T13:16:36Z</time>
      </trkpt>
      <trkpt lat="46.07239" lon="1.88546">
        <ele>571.2</ele>
        <time>2022-07-09T13:16:39Z</time>
      </trkpt>
      <trkpt lat="46.07242" lon="1.8852">
        <ele>570.8</ele>
        <time>2022-07-09T13:16:43Z</time>
      </trkpt>
      <trkpt lat="46.07233" lon="1.88493">
        <ele>570.2</ele>
        <time>2022-07-09T13:16:48Z</time>
      </trkpt>
      <trkpt lat="46.0723" lon="1.88489">
        <ele>570.2</ele>
        <time>2022-07-09T13:16:49Z</time>
      </trkpt>
      <trkpt lat="46.07218" lon="1.88477">
        <ele>570</ele>
        <time>2022-07-09T13:16:53Z</time>
      </trkpt>
      <trkpt lat="46.07195" lon="1.88457">
        <ele>569.6</ele>
        <time>2022-07-09T13:17:00Z</time>
      </trkpt>
      <trkpt lat="46.07174" lon="1.88458">
        <ele>569.2</ele>
        <time>2022-07-09T13:17:05Z</time>
      </trkpt>
      <trkpt lat="46.07146" lon="1.88465">
        <ele>568.6</ele>
        <time>2022-07-09T13:17:12Z</time>
      </trkpt>
      <trkpt lat="46.07126" lon="1.88458">
        <ele>568.4</ele>
        <time>2022-07-09T13:17:17Z</time>
      </trkpt>
      <trkpt lat="46.07107" lon="1.88441">
        <ele>568.2</ele>
        <time>2022-07-09T13:17:22Z</time>
      </trkpt>
      <trkpt lat="46.07097" lon="1.88424">
        <ele>568.2</ele>
        <time>2022-07-09T13:17:26Z</time>
      </trkpt>
      <trkpt lat="46.07094" lon="1.88417">
        <ele>568.2</ele>
        <time>2022-07-09T13:17:27Z</time>
      </trkpt>
      <trkpt lat="46.07087" lon="1.88386">
        <ele>568</ele>
        <time>2022-07-09T13:17:31Z</time>
      </trkpt>
      <trkpt lat="46.07091" lon="1.88348">
        <ele>568</ele>
        <time>2022-07-09T13:17:37Z</time>
      </trkpt>
      <trkpt lat="46.07097" lon="1.88311">
        <ele>567.2</ele>
        <time>2022-07-09T13:17:43Z</time>
      </trkpt>
      <trkpt lat="46.07097" lon="1.88304">
        <ele>567</ele>
        <time>2022-07-09T13:17:44Z</time>
      </trkpt>
      <trkpt lat="46.07091" lon="1.88271">
        <ele>566.6</ele>
        <time>2022-07-09T13:17:49Z</time>
      </trkpt>
      <trkpt lat="46.07081" lon="1.88233">
        <ele>566</ele>
        <time>2022-07-09T13:17:55Z</time>
      </trkpt>
      <trkpt lat="46.07077" lon="1.88212">
        <ele>565.4</ele>
        <time>2022-07-09T13:17:58Z</time>
      </trkpt>
      <trkpt lat="46.07075" lon="1.88205">
        <ele>565.2</ele>
        <time>2022-07-09T13:17:59Z</time>
      </trkpt>
      <trkpt lat="46.07071" lon="1.88186">
        <ele>565.2</ele>
        <time>2022-07-09T13:18:02Z</time>
      </trkpt>
      <trkpt lat="46.07064" lon="1.88156">
        <ele>564.6</ele>
        <time>2022-07-09T13:18:07Z</time>
      </trkpt>
      <trkpt lat="46.07053" lon="1.881">
        <ele>564.2</ele>
        <time>2022-07-09T13:18:16Z</time>
      </trkpt>
      <trkpt lat="46.07052" lon="1.88087">
        <ele>564.2</ele>
        <time>2022-07-09T13:18:18Z</time>
      </trkpt>
      <trkpt lat="46.07053" lon="1.88075">
        <ele>564.2</ele>
        <time>2022-07-09T13:18:20Z</time>
      </trkpt>
      <trkpt lat="46.07055" lon="1.88069">
        <ele>564.2</ele>
        <time>2022-07-09T13:18:21Z</time>
      </trkpt>
      <trkpt lat="46.07059" lon="1.8806">
        <ele>564.2</ele>
        <time>2022-07-09T13:18:23Z</time>
      </trkpt>
      <trkpt lat="46.07063" lon="1.88048">
        <ele>564.2</ele>
        <time>2022-07-09T13:18:26Z</time>
      </trkpt>
      <trkpt lat="46.07068" lon="1.88041">
        <ele>564.8</ele>
        <time>2022-07-09T13:18:30Z</time>
      </trkpt>
      <trkpt lat="46.07078" lon="1.88031">
        <ele>565</ele>
        <time>2022-07-09T13:18:36Z</time>
      </trkpt>
      <trkpt lat="46.07083" lon="1.88027">
        <ele>565.4</ele>
        <time>2022-07-09T13:18:39Z</time>
      </trkpt>
      <trkpt lat="46.07085" lon="1.88023">
        <ele>565.6</ele>
        <time>2022-07-09T13:18:41Z</time>
      </trkpt>
      <trkpt lat="46.07086" lon="1.88021">
        <ele>565.6</ele>
        <time>2022-07-09T13:18:42Z</time>
      </trkpt>
      <trkpt lat="46.07082" lon="1.88012">
        <ele>565.6</ele>
        <time>2022-07-09T13:18:45Z</time>
      </trkpt>
      <trkpt lat="46.0707" lon="1.87997">
        <ele>564.2</ele>
        <time>2022-07-09T13:18:49Z</time>
      </trkpt>
      <trkpt lat="46.07065" lon="1.8799">
        <ele>563.6</ele>
        <time>2022-07-09T13:18:51Z</time>
      </trkpt>
      <trkpt lat="46.07061" lon="1.87983">
        <ele>563</ele>
        <time>2022-07-09T13:18:53Z</time>
      </trkpt>
      <trkpt lat="46.07055" lon="1.87971">
        <ele>561.6</ele>
        <time>2022-07-09T13:18:56Z</time>
      </trkpt>
      <trkpt lat="46.07051" lon="1.8796">
        <ele>560.8</ele>
        <time>2022-07-09T13:18:59Z</time>
      </trkpt>
      <trkpt lat="46.0705" lon="1.87956">
        <ele>560.2</ele>
        <time>2022-07-09T13:19:00Z</time>
      </trkpt>
      <trkpt lat="46.07045" lon="1.87944">
        <ele>559.2</ele>
        <time>2022-07-09T13:19:03Z</time>
      </trkpt>
      <trkpt lat="46.07041" lon="1.87934">
        <ele>557.8</ele>
        <time>2022-07-09T13:19:07Z</time>
      </trkpt>
      <trkpt lat="46.07039" lon="1.8793">
        <ele>557</ele>
        <time>2022-07-09T13:19:09Z</time>
      </trkpt>
      <trkpt lat="46.07038" lon="1.87927">
        <ele>556.6</ele>
        <time>2022-07-09T13:19:10Z</time>
      </trkpt>
      <trkpt lat="46.07037" lon="1.87924">
        <ele>556</ele>
        <time>2022-07-09T13:19:12Z</time>
      </trkpt>
      <trkpt lat="46.07035" lon="1.8792">
        <ele>555.2</ele>
        <time>2022-07-09T13:19:14Z</time>
      </trkpt>
      <trkpt lat="46.07033" lon="1.8791">
        <ele>554.4</ele>
        <time>2022-07-09T13:19:17Z</time>
      </trkpt>
      <trkpt lat="46.07032" lon="1.87907">
        <ele>554.2</ele>
        <time>2022-07-09T13:19:18Z</time>
      </trkpt>
      <trkpt lat="46.07032" lon="1.87894">
        <ele>553.2</ele>
        <time>2022-07-09T13:19:22Z</time>
      </trkpt>
      <trkpt lat="46.07032" lon="1.87891">
        <ele>553</ele>
        <time>2022-07-09T13:19:23Z</time>
      </trkpt>
      <trkpt lat="46.07033" lon="1.87877">
        <ele>552.6</ele>
        <time>2022-07-09T13:19:27Z</time>
      </trkpt>
      <trkpt lat="46.07034" lon="1.87873">
        <ele>552.4</ele>
        <time>2022-07-09T13:19:29Z</time>
      </trkpt>
      <trkpt lat="46.07034" lon="1.87867">
        <ele>552</ele>
        <time>2022-07-09T13:19:31Z</time>
      </trkpt>
      <trkpt lat="46.07034" lon="1.87858">
        <ele>551.6</ele>
        <time>2022-07-09T13:19:34Z</time>
      </trkpt>
      <trkpt lat="46.07029" lon="1.87842">
        <ele>551</ele>
        <time>2022-07-09T13:19:41Z</time>
      </trkpt>
      <trkpt lat="46.07028" lon="1.87841">
        <ele>551</ele>
        <time>2022-07-09T13:19:42Z</time>
      </trkpt>
      <trkpt lat="46.07025" lon="1.8784">
        <ele>551</ele>
        <time>2022-07-09T13:19:44Z</time>
      </trkpt>
      <trkpt lat="46.07021" lon="1.8784">
        <ele>551</ele>
        <time>2022-07-09T13:19:47Z</time>
      </trkpt>
      <trkpt lat="46.07013" lon="1.87837">
        <ele>551.8</ele>
        <time>2022-07-09T13:19:53Z</time>
      </trkpt>
      <trkpt lat="46.07012" lon="1.87837">
        <ele>551.8</ele>
        <time>2022-07-09T13:19:54Z</time>
      </trkpt>
      <trkpt lat="46.07011" lon="1.87837">
        <ele>552</ele>
        <time>2022-07-09T13:19:55Z</time>
      </trkpt>
      <trkpt lat="46.07006" lon="1.87833">
        <ele>553</ele>
        <time>2022-07-09T13:20:01Z</time>
      </trkpt>
      <trkpt lat="46.07002" lon="1.87831">
        <ele>553.6</ele>
        <time>2022-07-09T13:20:04Z</time>
      </trkpt>
      <trkpt lat="46.06999" lon="1.87833">
        <ele>554.2</ele>
        <time>2022-07-09T13:20:07Z</time>
      </trkpt>
      <trkpt lat="46.06998" lon="1.87832">
        <ele>554.4</ele>
        <time>2022-07-09T13:20:08Z</time>
      </trkpt>
      <trkpt lat="46.06994" lon="1.87833">
        <ele>555.4</ele>
        <time>2022-07-09T13:20:12Z</time>
      </trkpt>
      <trkpt lat="46.06993" lon="1.87833">
        <ele>555.6</ele>
        <time>2022-07-09T13:20:13Z</time>
      </trkpt>
      <trkpt lat="46.06993" lon="1.87833">
        <ele>556.2</ele>
        <time>2022-07-09T13:20:16Z</time>
      </trkpt>
      <trkpt lat="46.06992" lon="1.87833">
        <ele>556.2</ele>
        <time>2022-07-09T13:20:17Z</time>
      </trkpt>
      <trkpt lat="46.0699" lon="1.87833">
        <ele>556.6</ele>
        <time>2022-07-09T13:20:19Z</time>
      </trkpt>
      <trkpt lat="46.06989" lon="1.87833">
        <ele>558</ele>
        <time>2022-07-09T13:20:23Z</time>
      </trkpt>
      <trkpt lat="46.06988" lon="1.87833">
        <ele>558.2</ele>
        <time>2022-07-09T13:20:25Z</time>
      </trkpt>
      <trkpt lat="46.06986" lon="1.87833">
        <ele>559.2</ele>
        <time>2022-07-09T13:20:30Z</time>
      </trkpt>
      <trkpt lat="46.06982" lon="1.87833">
        <ele>559.8</ele>
        <time>2022-07-09T13:20:35Z</time>
      </trkpt>
      <trkpt lat="46.0698" lon="1.87832">
        <ele>560.2</ele>
        <time>2022-07-09T13:20:39Z</time>
      </trkpt>
      <trkpt lat="46.06975" lon="1.87832">
        <ele>561.2</ele>
        <time>2022-07-09T13:20:44Z</time>
      </trkpt>
      <trkpt lat="46.06973" lon="1.87832">
        <ele>561.4</ele>
        <time>2022-07-09T13:20:46Z</time>
      </trkpt>
      <trkpt lat="46.06968" lon="1.87833">
        <ele>561.6</ele>
        <time>2022-07-09T13:20:49Z</time>
      </trkpt>
      <trkpt lat="46.06965" lon="1.87833">
        <ele>562.4</ele>
        <time>2022-07-09T13:20:54Z</time>
      </trkpt>
      <trkpt lat="46.06965" lon="1.87833">
        <ele>562.6</ele>
        <time>2022-07-09T13:20:55Z</time>
      </trkpt>
      <trkpt lat="46.06955" lon="1.87835">
        <ele>563.8</ele>
        <time>2022-07-09T13:21:02Z</time>
      </trkpt>
      <trkpt lat="46.06942" lon="1.87834">
        <ele>564.6</ele>
        <time>2022-07-09T13:21:11Z</time>
      </trkpt>
      <trkpt lat="46.06942" lon="1.87834">
        <ele>564.8</ele>
        <time>2022-07-09T13:21:14Z</time>
      </trkpt>
      <trkpt lat="46.0694" lon="1.87835">
        <ele>564.8</ele>
        <time>2022-07-09T13:21:15Z</time>
      </trkpt>
      <trkpt lat="46.06934" lon="1.87835">
        <ele>565</ele>
        <time>2022-07-09T13:21:17Z</time>
      </trkpt>
      <trkpt lat="46.06926" lon="1.87837">
        <ele>565.2</ele>
        <time>2022-07-09T13:21:21Z</time>
      </trkpt>
      <trkpt lat="46.0691" lon="1.87842">
        <ele>565.2</ele>
        <time>2022-07-09T13:21:26Z</time>
      </trkpt>
      <trkpt lat="46.06905" lon="1.87843">
        <ele>565.4</ele>
        <time>2022-07-09T13:21:28Z</time>
      </trkpt>
      <trkpt lat="46.06897" lon="1.87845">
        <ele>565.4</ele>
        <time>2022-07-09T13:21:32Z</time>
      </trkpt>
      <trkpt lat="46.06894" lon="1.87846">
        <ele>565.4</ele>
        <time>2022-07-09T13:21:34Z</time>
      </trkpt>
      <trkpt lat="46.0689" lon="1.87846">
        <ele>565.4</ele>
        <time>2022-07-09T13:21:36Z</time>
      </trkpt>
      <trkpt lat="46.06884" lon="1.87847">
        <ele>565.4</ele>
        <time>2022-07-09T13:21:38Z</time>
      </trkpt>
      <trkpt lat="46.0687" lon="1.87849">
        <ele>565.8</ele>
        <time>2022-07-09T13:21:44Z</time>
      </trkpt>
      <trkpt lat="46.06865" lon="1.87851">
        <ele>566.2</ele>
        <time>2022-07-09T13:21:46Z</time>
      </trkpt>
      <trkpt lat="46.06856" lon="1.87852">
        <ele>566.2</ele>
        <time>2022-07-09T13:21:50Z</time>
      </trkpt>
      <trkpt lat="46.0685" lon="1.87854">
        <ele>566.2</ele>
        <time>2022-07-09T13:21:53Z</time>
      </trkpt>
      <trkpt lat="46.06829" lon="1.87855">
        <ele>566</ele>
        <time>2022-07-09T13:22:02Z</time>
      </trkpt>
      <trkpt lat="46.06804" lon="1.87856">
        <ele>565.6</ele>
        <time>2022-07-09T13:22:09Z</time>
      </trkpt>
      <trkpt lat="46.06788" lon="1.87855">
        <ele>564.6</ele>
        <time>2022-07-09T13:22:13Z</time>
      </trkpt>
      <trkpt lat="46.06782" lon="1.87856">
        <ele>564.4</ele>
        <time>2022-07-09T13:22:14Z</time>
      </trkpt>
      <trkpt lat="46.06777" lon="1.87856">
        <ele>563.6</ele>
        <time>2022-07-09T13:22:15Z</time>
      </trkpt>
      <trkpt lat="46.06761" lon="1.87859">
        <ele>562.4</ele>
        <time>2022-07-09T13:22:18Z</time>
      </trkpt>
      <trkpt lat="46.06749" lon="1.87865">
        <ele>561.6</ele>
        <time>2022-07-09T13:22:20Z</time>
      </trkpt>
      <trkpt lat="46.06739" lon="1.87868">
        <ele>561.2</ele>
        <time>2022-07-09T13:22:22Z</time>
      </trkpt>
      <trkpt lat="46.06714" lon="1.87877">
        <ele>560</ele>
        <time>2022-07-09T13:22:27Z</time>
      </trkpt>
      <trkpt lat="46.06688" lon="1.87883">
        <ele>559</ele>
        <time>2022-07-09T13:22:33Z</time>
      </trkpt>
      <trkpt lat="46.06682" lon="1.87885">
        <ele>558.6</ele>
        <time>2022-07-09T13:22:34Z</time>
      </trkpt>
      <trkpt lat="46.06665" lon="1.8789">
        <ele>557.4</ele>
        <time>2022-07-09T13:22:38Z</time>
      </trkpt>
      <trkpt lat="46.06662" lon="1.8789">
        <ele>557.2</ele>
        <time>2022-07-09T13:22:39Z</time>
      </trkpt>
      <trkpt lat="46.06657" lon="1.8789">
        <ele>556.4</ele>
        <time>2022-07-09T13:22:41Z</time>
      </trkpt>
      <trkpt lat="46.06646" lon="1.87894">
        <ele>556</ele>
        <time>2022-07-09T13:22:44Z</time>
      </trkpt>
      <trkpt lat="46.06636" lon="1.87896">
        <ele>555.2</ele>
        <time>2022-07-09T13:22:47Z</time>
      </trkpt>
      <trkpt lat="46.06626" lon="1.87904">
        <ele>554.4</ele>
        <time>2022-07-09T13:22:51Z</time>
      </trkpt>
      <trkpt lat="46.06619" lon="1.87906">
        <ele>553.8</ele>
        <time>2022-07-09T13:22:54Z</time>
      </trkpt>
      <trkpt lat="46.06616" lon="1.87906">
        <ele>553.2</ele>
        <time>2022-07-09T13:22:57Z</time>
      </trkpt>
      <trkpt lat="46.06616" lon="1.87906">
        <ele>553</ele>
        <time>2022-07-09T13:22:59Z</time>
      </trkpt>
      <trkpt lat="46.06612" lon="1.87907">
        <ele>552.6</ele>
        <time>2022-07-09T13:23:23Z</time>
      </trkpt>
      <trkpt lat="46.0661" lon="1.87908">
        <ele>552.6</ele>
        <time>2022-07-09T13:23:24Z</time>
      </trkpt>
      <trkpt lat="46.06596" lon="1.87914">
        <ele>551.6</ele>
        <time>2022-07-09T13:23:29Z</time>
      </trkpt>
      <trkpt lat="46.06593" lon="1.87915">
        <ele>551.2</ele>
        <time>2022-07-09T13:23:30Z</time>
      </trkpt>
      <trkpt lat="46.06576" lon="1.87921">
        <ele>550.4</ele>
        <time>2022-07-09T13:23:34Z</time>
      </trkpt>
      <trkpt lat="46.06568" lon="1.87925">
        <ele>550</ele>
        <time>2022-07-09T13:23:36Z</time>
      </trkpt>
      <trkpt lat="46.06546" lon="1.87935">
        <ele>549.4</ele>
        <time>2022-07-09T13:23:41Z</time>
      </trkpt>
      <trkpt lat="46.06535" lon="1.8794">
        <ele>549</ele>
        <time>2022-07-09T13:23:43Z</time>
      </trkpt>
      <trkpt lat="46.0651" lon="1.87956">
        <ele>548.6</ele>
        <time>2022-07-09T13:23:49Z</time>
      </trkpt>
      <trkpt lat="46.06492" lon="1.87966">
        <ele>548.8</ele>
        <time>2022-07-09T13:23:54Z</time>
      </trkpt>
      <trkpt lat="46.06485" lon="1.87972">
        <ele>548.4</ele>
        <time>2022-07-09T13:23:56Z</time>
      </trkpt>
      <trkpt lat="46.06475" lon="1.87984">
        <ele>547.4</ele>
        <time>2022-07-09T13:24:00Z</time>
      </trkpt>
      <trkpt lat="46.06473" lon="1.87986">
        <ele>547.2</ele>
        <time>2022-07-09T13:24:01Z</time>
      </trkpt>
      <trkpt lat="46.06472" lon="1.87987">
        <ele>546.6</ele>
        <time>2022-07-09T13:24:03Z</time>
      </trkpt>
      <trkpt lat="46.06469" lon="1.87987">
        <ele>545.8</ele>
        <time>2022-07-09T13:24:05Z</time>
      </trkpt>
      <trkpt lat="46.06466" lon="1.87987">
        <ele>545.4</ele>
        <time>2022-07-09T13:24:06Z</time>
      </trkpt>
      <trkpt lat="46.0646" lon="1.87985">
        <ele>544.8</ele>
        <time>2022-07-09T13:24:09Z</time>
      </trkpt>
      <trkpt lat="46.06455" lon="1.87986">
        <ele>543.8</ele>
        <time>2022-07-09T13:24:12Z</time>
      </trkpt>
      <trkpt lat="46.06453" lon="1.87986">
        <ele>543.8</ele>
        <time>2022-07-09T13:24:13Z</time>
      </trkpt>
      <trkpt lat="46.06447" lon="1.87989">
        <ele>542.8</ele>
        <time>2022-07-09T13:24:16Z</time>
      </trkpt>
      <trkpt lat="46.06445" lon="1.87992">
        <ele>542.4</ele>
        <time>2022-07-09T13:24:17Z</time>
      </trkpt>
      <trkpt lat="46.06435" lon="1.88002">
        <ele>541.6</ele>
        <time>2022-07-09T13:24:21Z</time>
      </trkpt>
      <trkpt lat="46.06432" lon="1.88005">
        <ele>541.4</ele>
        <time>2022-07-09T13:24:22Z</time>
      </trkpt>
      <trkpt lat="46.06425" lon="1.88012">
        <ele>540.6</ele>
        <time>2022-07-09T13:24:25Z</time>
      </trkpt>
      <trkpt lat="46.06416" lon="1.88019">
        <ele>539.8</ele>
        <time>2022-07-09T13:24:28Z</time>
      </trkpt>
      <trkpt lat="46.06413" lon="1.88023">
        <ele>539.6</ele>
        <time>2022-07-09T13:24:29Z</time>
      </trkpt>
      <trkpt lat="46.06407" lon="1.88033">
        <ele>538.6</ele>
        <time>2022-07-09T13:24:31Z</time>
      </trkpt>
      <trkpt lat="46.06406" lon="1.88036">
        <ele>538.4</ele>
        <time>2022-07-09T13:24:32Z</time>
      </trkpt>
      <trkpt lat="46.06405" lon="1.88042">
        <ele>537.8</ele>
        <time>2022-07-09T13:24:35Z</time>
      </trkpt>
      <trkpt lat="46.06404" lon="1.88047">
        <ele>537.8</ele>
        <time>2022-07-09T13:24:37Z</time>
      </trkpt>
      <trkpt lat="46.06402" lon="1.88059">
        <ele>537.6</ele>
        <time>2022-07-09T13:24:41Z</time>
      </trkpt>
      <trkpt lat="46.06396" lon="1.88093">
        <ele>538.2</ele>
        <time>2022-07-09T13:24:49Z</time>
      </trkpt>
      <trkpt lat="46.0639" lon="1.88117">
        <ele>538.6</ele>
        <time>2022-07-09T13:24:57Z</time>
      </trkpt>
      <trkpt lat="46.06389" lon="1.88121">
        <ele>538.6</ele>
        <time>2022-07-09T13:24:58Z</time>
      </trkpt>
      <trkpt lat="46.06381" lon="1.88131">
        <ele>538.4</ele>
        <time>2022-07-09T13:25:02Z</time>
      </trkpt>
      <trkpt lat="46.06374" lon="1.88152">
        <ele>537.4</ele>
        <time>2022-07-09T13:25:07Z</time>
      </trkpt>
      <trkpt lat="46.06374" lon="1.88162">
        <ele>536</ele>
        <time>2022-07-09T13:25:10Z</time>
      </trkpt>
      <trkpt lat="46.06376" lon="1.88172">
        <ele>535.6</ele>
        <time>2022-07-09T13:25:12Z</time>
      </trkpt>
      <trkpt lat="46.06375" lon="1.88192">
        <ele>534.8</ele>
        <time>2022-07-09T13:25:16Z</time>
      </trkpt>
      <trkpt lat="46.06373" lon="1.88195">
        <ele>534.4</ele>
        <time>2022-07-09T13:25:17Z</time>
      </trkpt>
      <trkpt lat="46.06364" lon="1.88207">
        <ele>533.6</ele>
        <time>2022-07-09T13:25:21Z</time>
      </trkpt>
      <trkpt lat="46.0636" lon="1.88211">
        <ele>533.2</ele>
        <time>2022-07-09T13:25:23Z</time>
      </trkpt>
      <trkpt lat="46.06358" lon="1.88214">
        <ele>532.8</ele>
        <time>2022-07-09T13:25:25Z</time>
      </trkpt>
      <trkpt lat="46.06357" lon="1.88215">
        <ele>532.6</ele>
        <time>2022-07-09T13:25:26Z</time>
      </trkpt>
      <trkpt lat="46.06355" lon="1.88216">
        <ele>532.6</ele>
        <time>2022-07-09T13:25:27Z</time>
      </trkpt>
      <trkpt lat="46.06352" lon="1.88218">
        <ele>532.2</ele>
        <time>2022-07-09T13:25:29Z</time>
      </trkpt>
      <trkpt lat="46.06345" lon="1.88217">
        <ele>532.2</ele>
        <time>2022-07-09T13:25:32Z</time>
      </trkpt>
      <trkpt lat="46.06344" lon="1.88216">
        <ele>532.2</ele>
        <time>2022-07-09T13:25:33Z</time>
      </trkpt>
      <trkpt lat="46.06342" lon="1.88213">
        <ele>532.2</ele>
        <time>2022-07-09T13:25:35Z</time>
      </trkpt>
      <trkpt lat="46.0634" lon="1.88211">
        <ele>532.2</ele>
        <time>2022-07-09T13:25:37Z</time>
      </trkpt>
      <trkpt lat="46.06337" lon="1.8821">
        <ele>532.4</ele>
        <time>2022-07-09T13:25:39Z</time>
      </trkpt>
      <trkpt lat="46.06335" lon="1.88209">
        <ele>532.6</ele>
        <time>2022-07-09T13:25:41Z</time>
      </trkpt>
      <trkpt lat="46.06325" lon="1.88206">
        <ele>533.2</ele>
        <time>2022-07-09T13:25:47Z</time>
      </trkpt>
      <trkpt lat="46.06322" lon="1.88204">
        <ele>533.4</ele>
        <time>2022-07-09T13:25:49Z</time>
      </trkpt>
      <trkpt lat="46.06321" lon="1.88203">
        <ele>533.8</ele>
        <time>2022-07-09T13:25:51Z</time>
      </trkpt>
      <trkpt lat="46.06314" lon="1.88201">
        <ele>534.4</ele>
        <time>2022-07-09T13:25:57Z</time>
      </trkpt>
      <trkpt lat="46.06314" lon="1.88202">
        <ele>534.8</ele>
        <time>2022-07-09T13:25:58Z</time>
      </trkpt>
      <trkpt lat="46.0631" lon="1.88205">
        <ele>536</ele>
        <time>2022-07-09T13:26:05Z</time>
      </trkpt>
      <trkpt lat="46.0631" lon="1.88205">
        <ele>536.4</ele>
        <time>2022-07-09T13:26:09Z</time>
      </trkpt>
      <trkpt lat="46.06308" lon="1.88208">
        <ele>536.6</ele>
        <time>2022-07-09T13:26:35Z</time>
      </trkpt>
      <trkpt lat="46.06306" lon="1.88209">
        <ele>536.6</ele>
        <time>2022-07-09T13:26:36Z</time>
      </trkpt>
      <trkpt lat="46.063" lon="1.88217">
        <ele>537</ele>
        <time>2022-07-09T13:26:42Z</time>
      </trkpt>
      <trkpt lat="46.06298" lon="1.88219">
        <ele>537</ele>
        <time>2022-07-09T13:26:43Z</time>
      </trkpt>
      <trkpt lat="46.06295" lon="1.88223">
        <ele>537</ele>
        <time>2022-07-09T13:26:45Z</time>
      </trkpt>
      <trkpt lat="46.06291" lon="1.88227">
        <ele>537</ele>
        <time>2022-07-09T13:26:47Z</time>
      </trkpt>
      <trkpt lat="46.06287" lon="1.88232">
        <ele>537</ele>
        <time>2022-07-09T13:26:49Z</time>
      </trkpt>
      <trkpt lat="46.06284" lon="1.88234">
        <ele>537.2</ele>
        <time>2022-07-09T13:26:50Z</time>
      </trkpt>
      <trkpt lat="46.06277" lon="1.88254">
        <ele>537</ele>
        <time>2022-07-09T13:26:54Z</time>
      </trkpt>
      <trkpt lat="46.06271" lon="1.88279">
        <ele>536.4</ele>
        <time>2022-07-09T13:26:59Z</time>
      </trkpt>
      <trkpt lat="46.06269" lon="1.88285">
        <ele>536.2</ele>
        <time>2022-07-09T13:27:00Z</time>
      </trkpt>
      <trkpt lat="46.06265" lon="1.88286">
        <ele>536.2</ele>
        <time>2022-07-09T13:27:01Z</time>
      </trkpt>
      <trkpt lat="46.0626" lon="1.88288">
        <ele>535.8</ele>
        <time>2022-07-09T13:27:02Z</time>
      </trkpt>
      <trkpt lat="46.06255" lon="1.8829">
        <ele>535.6</ele>
        <time>2022-07-09T13:27:03Z</time>
      </trkpt>
      <trkpt lat="46.0624" lon="1.88294">
        <ele>535</ele>
        <time>2022-07-09T13:27:06Z</time>
      </trkpt>
      <trkpt lat="46.06235" lon="1.88298">
        <ele>535</ele>
        <time>2022-07-09T13:27:08Z</time>
      </trkpt>
      <trkpt lat="46.06228" lon="1.88307">
        <ele>535.2</ele>
        <time>2022-07-09T13:27:14Z</time>
      </trkpt>
      <trkpt lat="46.06226" lon="1.88307">
        <ele>535.6</ele>
        <time>2022-07-09T13:27:17Z</time>
      </trkpt>
      <trkpt lat="46.06225" lon="1.88308">
        <ele>536.2</ele>
        <time>2022-07-09T13:27:20Z</time>
      </trkpt>
      <trkpt lat="46.06224" lon="1.88307">
        <ele>536.4</ele>
        <time>2022-07-09T13:27:21Z</time>
      </trkpt>
      <trkpt lat="46.06217" lon="1.88306">
        <ele>536.8</ele>
        <time>2022-07-09T13:27:26Z</time>
      </trkpt>
      <trkpt lat="46.06215" lon="1.88305">
        <ele>537</ele>
        <time>2022-07-09T13:27:27Z</time>
      </trkpt>
      <trkpt lat="46.06214" lon="1.88305">
        <ele>537</ele>
        <time>2022-07-09T13:27:28Z</time>
      </trkpt>
      <trkpt lat="46.06212" lon="1.88307">
        <ele>537.4</ele>
        <time>2022-07-09T13:27:30Z</time>
      </trkpt>
      <trkpt lat="46.06212" lon="1.88309">
        <ele>537.8</ele>
        <time>2022-07-09T13:27:32Z</time>
      </trkpt>
      <trkpt lat="46.06212" lon="1.88311">
        <ele>538</ele>
        <time>2022-07-09T13:27:34Z</time>
      </trkpt>
      <trkpt lat="46.06212" lon="1.88316">
        <ele>538.6</ele>
        <time>2022-07-09T13:27:37Z</time>
      </trkpt>
      <trkpt lat="46.06212" lon="1.88324">
        <ele>539</ele>
        <time>2022-07-09T13:27:42Z</time>
      </trkpt>
      <trkpt lat="46.06212" lon="1.88324">
        <ele>539</ele>
        <time>2022-07-09T13:27:43Z</time>
      </trkpt>
      <trkpt lat="46.06209" lon="1.88327">
        <ele>539.8</ele>
        <time>2022-07-09T13:27:46Z</time>
      </trkpt>
      <trkpt lat="46.06208" lon="1.88328">
        <ele>540</ele>
        <time>2022-07-09T13:27:47Z</time>
      </trkpt>
      <trkpt lat="46.06204" lon="1.8833">
        <ele>540.8</ele>
        <time>2022-07-09T13:27:51Z</time>
      </trkpt>
      <trkpt lat="46.06202" lon="1.88331">
        <ele>541</ele>
        <time>2022-07-09T13:27:52Z</time>
      </trkpt>
      <trkpt lat="46.06194" lon="1.88337">
        <ele>542</ele>
        <time>2022-07-09T13:28:00Z</time>
      </trkpt>
      <trkpt lat="46.06186" lon="1.8834">
        <ele>542.8</ele>
        <time>2022-07-09T13:28:05Z</time>
      </trkpt>
      <trkpt lat="46.0618" lon="1.88342">
        <ele>543.2</ele>
        <time>2022-07-09T13:28:09Z</time>
      </trkpt>
      <trkpt lat="46.06175" lon="1.88343">
        <ele>543.4</ele>
        <time>2022-07-09T13:28:11Z</time>
      </trkpt>
      <trkpt lat="46.06165" lon="1.88347">
        <ele>544.2</ele>
        <time>2022-07-09T13:28:20Z</time>
      </trkpt>
      <trkpt lat="46.06158" lon="1.88354">
        <ele>545</ele>
        <time>2022-07-09T13:28:27Z</time>
      </trkpt>
      <trkpt lat="46.06158" lon="1.88355">
        <ele>545</ele>
        <time>2022-07-09T13:28:28Z</time>
      </trkpt>
      <trkpt lat="46.06157" lon="1.88359">
        <ele>545.2</ele>
        <time>2022-07-09T13:28:30Z</time>
      </trkpt>
      <trkpt lat="46.06155" lon="1.88364">
        <ele>545.8</ele>
        <time>2022-07-09T13:28:35Z</time>
      </trkpt>
      <trkpt lat="46.06151" lon="1.88369">
        <ele>546.6</ele>
        <time>2022-07-09T13:28:41Z</time>
      </trkpt>
      <trkpt lat="46.06149" lon="1.88371">
        <ele>547</ele>
        <time>2022-07-09T13:28:43Z</time>
      </trkpt>
      <trkpt lat="46.06141" lon="1.88379">
        <ele>547.8</ele>
        <time>2022-07-09T13:28:48Z</time>
      </trkpt>
      <trkpt lat="46.06141" lon="1.8838">
        <ele>547.8</ele>
        <time>2022-07-09T13:28:49Z</time>
      </trkpt>
      <trkpt lat="46.0614" lon="1.88382">
        <ele>548.2</ele>
        <time>2022-07-09T13:28:51Z</time>
      </trkpt>
      <trkpt lat="46.06137" lon="1.88388">
        <ele>548.8</ele>
        <time>2022-07-09T13:28:55Z</time>
      </trkpt>
      <trkpt lat="46.06134" lon="1.88394">
        <ele>549.2</ele>
        <time>2022-07-09T13:28:59Z</time>
      </trkpt>
      <trkpt lat="46.06133" lon="1.88398">
        <ele>549.8</ele>
        <time>2022-07-09T13:29:03Z</time>
      </trkpt>
      <trkpt lat="46.06133" lon="1.88398">
        <ele>550</ele>
        <time>2022-07-09T13:29:05Z</time>
      </trkpt>
      <trkpt lat="46.06129" lon="1.88405">
        <ele>551</ele>
        <time>2022-07-09T13:29:11Z</time>
      </trkpt>
      <trkpt lat="46.06128" lon="1.88405">
        <ele>551</ele>
        <time>2022-07-09T13:29:12Z</time>
      </trkpt>
      <trkpt lat="46.06128" lon="1.88406">
        <ele>551.2</ele>
        <time>2022-07-09T13:29:13Z</time>
      </trkpt>
      <trkpt lat="46.06122" lon="1.88421">
        <ele>552.2</ele>
        <time>2022-07-09T13:29:20Z</time>
      </trkpt>
      <trkpt lat="46.06121" lon="1.88422">
        <ele>552.2</ele>
        <time>2022-07-09T13:29:21Z</time>
      </trkpt>
      <trkpt lat="46.06116" lon="1.8843">
        <ele>553</ele>
        <time>2022-07-09T13:29:28Z</time>
      </trkpt>
      <trkpt lat="46.06115" lon="1.88433">
        <ele>553.2</ele>
        <time>2022-07-09T13:29:29Z</time>
      </trkpt>
      <trkpt lat="46.0611" lon="1.88444">
        <ele>553.6</ele>
        <time>2022-07-09T13:29:33Z</time>
      </trkpt>
      <trkpt lat="46.06099" lon="1.88462">
        <ele>554</ele>
        <time>2022-07-09T13:29:40Z</time>
      </trkpt>
      <trkpt lat="46.06095" lon="1.88465">
        <ele>553.6</ele>
        <time>2022-07-09T13:29:46Z</time>
      </trkpt>
      <trkpt lat="46.06092" lon="1.88467">
        <ele>553.2</ele>
        <time>2022-07-09T13:30:23Z</time>
      </trkpt>
      <trkpt lat="46.0609" lon="1.8847">
        <ele>553</ele>
        <time>2022-07-09T13:30:26Z</time>
      </trkpt>
      <trkpt lat="46.0609" lon="1.8847">
        <ele>552.8</ele>
        <time>2022-07-09T13:30:28Z</time>
      </trkpt>
      <trkpt lat="46.06085" lon="1.88476">
        <ele>551.8</ele>
        <time>2022-07-09T13:30:43Z</time>
      </trkpt>
      <trkpt lat="46.06077" lon="1.88479">
        <ele>551.6</ele>
        <time>2022-07-09T13:30:47Z</time>
      </trkpt>
      <trkpt lat="46.0607" lon="1.88487">
        <ele>551.4</ele>
        <time>2022-07-09T13:30:50Z</time>
      </trkpt>
      <trkpt lat="46.06066" lon="1.88495">
        <ele>551.2</ele>
        <time>2022-07-09T13:30:52Z</time>
      </trkpt>
      <trkpt lat="46.06061" lon="1.88502">
        <ele>550.6</ele>
        <time>2022-07-09T13:30:54Z</time>
      </trkpt>
      <trkpt lat="46.06056" lon="1.88507">
        <ele>550.2</ele>
        <time>2022-07-09T13:30:56Z</time>
      </trkpt>
      <trkpt lat="46.06046" lon="1.88516">
        <ele>549.2</ele>
        <time>2022-07-09T13:30:59Z</time>
      </trkpt>
      <trkpt lat="46.06037" lon="1.88527">
        <ele>548</ele>
        <time>2022-07-09T13:31:03Z</time>
      </trkpt>
      <trkpt lat="46.06021" lon="1.88552">
        <ele>547.2</ele>
        <time>2022-07-09T13:31:10Z</time>
      </trkpt>
      <trkpt lat="46.06019" lon="1.88557">
        <ele>547</ele>
        <time>2022-07-09T13:31:11Z</time>
      </trkpt>
      <trkpt lat="46.06013" lon="1.88574">
        <ele>546.8</ele>
        <time>2022-07-09T13:31:15Z</time>
      </trkpt>
      <trkpt lat="46.06014" lon="1.88597">
        <ele>546.2</ele>
        <time>2022-07-09T13:31:21Z</time>
      </trkpt>
      <trkpt lat="46.06011" lon="1.88615">
        <ele>546</ele>
        <time>2022-07-09T13:31:25Z</time>
      </trkpt>
      <trkpt lat="46.06011" lon="1.8862">
        <ele>546</ele>
        <time>2022-07-09T13:31:27Z</time>
      </trkpt>
      <trkpt lat="46.06006" lon="1.88639">
        <ele>546.6</ele>
        <time>2022-07-09T13:31:35Z</time>
      </trkpt>
      <trkpt lat="46.06003" lon="1.8865">
        <ele>547</ele>
        <time>2022-07-09T13:31:41Z</time>
      </trkpt>
      <trkpt lat="46.06002" lon="1.88654">
        <ele>547.4</ele>
        <time>2022-07-09T13:31:43Z</time>
      </trkpt>
      <trkpt lat="46.05999" lon="1.88665">
        <ele>547.6</ele>
        <time>2022-07-09T13:31:47Z</time>
      </trkpt>
      <trkpt lat="46.05998" lon="1.88674">
        <ele>548.2</ele>
        <time>2022-07-09T13:31:54Z</time>
      </trkpt>
      <trkpt lat="46.05997" lon="1.88677">
        <ele>548.4</ele>
        <time>2022-07-09T13:31:55Z</time>
      </trkpt>
      <trkpt lat="46.05996" lon="1.8868">
        <ele>548.6</ele>
        <time>2022-07-09T13:31:56Z</time>
      </trkpt>
      <trkpt lat="46.05988" lon="1.88696">
        <ele>549</ele>
        <time>2022-07-09T13:32:01Z</time>
      </trkpt>
      <trkpt lat="46.05982" lon="1.88721">
        <ele>549</ele>
        <time>2022-07-09T13:32:07Z</time>
      </trkpt>
      <trkpt lat="46.05978" lon="1.88732">
        <ele>548.4</ele>
        <time>2022-07-09T13:32:13Z</time>
      </trkpt>
      <trkpt lat="46.05974" lon="1.88743">
        <ele>548.4</ele>
        <time>2022-07-09T13:32:17Z</time>
      </trkpt>
      <trkpt lat="46.05974" lon="1.88743">
        <ele>548.4</ele>
        <time>2022-07-09T13:32:18Z</time>
      </trkpt>
      <trkpt lat="46.05974" lon="1.88743">
        <ele>548.4</ele>
        <time>2022-07-09T13:32:21Z</time>
      </trkpt>
      <trkpt lat="46.05975" lon="1.88741">
        <ele>548.6</ele>
        <time>2022-07-09T13:32:28Z</time>
      </trkpt>
      <trkpt lat="46.05975" lon="1.88739">
        <ele>548.6</ele>
        <time>2022-07-09T13:32:29Z</time>
      </trkpt>
      <trkpt lat="46.05975" lon="1.88734">
        <ele>548.4</ele>
        <time>2022-07-09T13:32:31Z</time>
      </trkpt>
      <trkpt lat="46.05974" lon="1.88729">
        <ele>548.2</ele>
        <time>2022-07-09T13:32:33Z</time>
      </trkpt>
      <trkpt lat="46.05973" lon="1.88727">
        <ele>548.2</ele>
        <time>2022-07-09T13:32:34Z</time>
      </trkpt>
      <trkpt lat="46.0597" lon="1.88727">
        <ele>547.4</ele>
        <time>2022-07-09T13:32:36Z</time>
      </trkpt>
      <trkpt lat="46.05969" lon="1.88728">
        <ele>547</ele>
        <time>2022-07-09T13:32:37Z</time>
      </trkpt>
      <trkpt lat="46.05963" lon="1.88737">
        <ele>546.4</ele>
        <time>2022-07-09T13:32:41Z</time>
      </trkpt>
      <trkpt lat="46.05961" lon="1.88737">
        <ele>546.2</ele>
        <time>2022-07-09T13:32:42Z</time>
      </trkpt>
      <trkpt lat="46.05959" lon="1.88736">
        <ele>545.6</ele>
        <time>2022-07-09T13:32:43Z</time>
      </trkpt>
      <trkpt lat="46.05956" lon="1.88732">
        <ele>544.8</ele>
        <time>2022-07-09T13:32:45Z</time>
      </trkpt>
      <trkpt lat="46.05954" lon="1.88729">
        <ele>543.8</ele>
        <time>2022-07-09T13:32:47Z</time>
      </trkpt>
      <trkpt lat="46.05952" lon="1.88728">
        <ele>543.8</ele>
        <time>2022-07-09T13:32:48Z</time>
      </trkpt>
      <trkpt lat="46.0595" lon="1.88727">
        <ele>543.6</ele>
        <time>2022-07-09T13:32:49Z</time>
      </trkpt>
      <trkpt lat="46.0594" lon="1.88727">
        <ele>542.8</ele>
        <time>2022-07-09T13:32:53Z</time>
      </trkpt>
      <trkpt lat="46.05938" lon="1.88727">
        <ele>542.6</ele>
        <time>2022-07-09T13:32:54Z</time>
      </trkpt>
      <trkpt lat="46.05936" lon="1.88727">
        <ele>542.2</ele>
        <time>2022-07-09T13:32:55Z</time>
      </trkpt>
      <trkpt lat="46.05932" lon="1.88725">
        <ele>541.4</ele>
        <time>2022-07-09T13:32:57Z</time>
      </trkpt>
      <trkpt lat="46.05931" lon="1.88724">
        <ele>541.2</ele>
        <time>2022-07-09T13:32:58Z</time>
      </trkpt>
      <trkpt lat="46.05929" lon="1.88724">
        <ele>541</ele>
        <time>2022-07-09T13:32:59Z</time>
      </trkpt>
      <trkpt lat="46.05922" lon="1.88721">
        <ele>540</ele>
        <time>2022-07-09T13:33:03Z</time>
      </trkpt>
      <trkpt lat="46.05918" lon="1.88719">
        <ele>539.4</ele>
        <time>2022-07-09T13:33:05Z</time>
      </trkpt>
      <trkpt lat="46.05906" lon="1.88705">
        <ele>538.8</ele>
        <time>2022-07-09T13:33:09Z</time>
      </trkpt>
      <trkpt lat="46.05903" lon="1.88702">
        <ele>538.6</ele>
        <time>2022-07-09T13:33:10Z</time>
      </trkpt>
      <trkpt lat="46.05896" lon="1.88693">
        <ele>537.6</ele>
        <time>2022-07-09T13:33:13Z</time>
      </trkpt>
      <trkpt lat="46.05894" lon="1.88691">
        <ele>537.4</ele>
        <time>2022-07-09T13:33:14Z</time>
      </trkpt>
      <trkpt lat="46.05879" lon="1.88678">
        <ele>536.6</ele>
        <time>2022-07-09T13:33:20Z</time>
      </trkpt>
      <trkpt lat="46.05866" lon="1.88665">
        <ele>536</ele>
        <time>2022-07-09T13:33:26Z</time>
      </trkpt>
      <trkpt lat="46.05849" lon="1.88649">
        <ele>535.6</ele>
        <time>2022-07-09T13:33:32Z</time>
      </trkpt>
      <trkpt lat="46.05833" lon="1.88638">
        <ele>534.4</ele>
        <time>2022-07-09T13:33:38Z</time>
      </trkpt>
      <trkpt lat="46.05828" lon="1.88637">
        <ele>534.2</ele>
        <time>2022-07-09T13:33:42Z</time>
      </trkpt>
      <trkpt lat="46.05827" lon="1.88636">
        <ele>534.2</ele>
        <time>2022-07-09T13:33:43Z</time>
      </trkpt>
      <trkpt lat="46.05818" lon="1.88634">
        <ele>534</ele>
        <time>2022-07-09T13:33:48Z</time>
      </trkpt>
      <trkpt lat="46.05815" lon="1.88632">
        <ele>534</ele>
        <time>2022-07-09T13:33:50Z</time>
      </trkpt>
      <trkpt lat="46.0581" lon="1.88626">
        <ele>533.8</ele>
        <time>2022-07-09T13:33:53Z</time>
      </trkpt>
      <trkpt lat="46.05807" lon="1.8862">
        <ele>533.8</ele>
        <time>2022-07-09T13:33:55Z</time>
      </trkpt>
      <trkpt lat="46.05794" lon="1.88596">
        <ele>534.6</ele>
        <time>2022-07-09T13:34:03Z</time>
      </trkpt>
      <trkpt lat="46.05785" lon="1.88589">
        <ele>535.8</ele>
        <time>2022-07-09T13:34:08Z</time>
      </trkpt>
      <trkpt lat="46.05784" lon="1.88588">
        <ele>535.8</ele>
        <time>2022-07-09T13:34:09Z</time>
      </trkpt>
      <trkpt lat="46.05782" lon="1.88587">
        <ele>537</ele>
        <time>2022-07-09T13:34:12Z</time>
      </trkpt>
      <trkpt lat="46.05781" lon="1.88587">
        <ele>537.4</ele>
        <time>2022-07-09T13:34:13Z</time>
      </trkpt>
      <trkpt lat="46.05779" lon="1.88588">
        <ele>538.2</ele>
        <time>2022-07-09T13:34:15Z</time>
      </trkpt>
      <trkpt lat="46.05774" lon="1.88588">
        <ele>539.6</ele>
        <time>2022-07-09T13:34:19Z</time>
      </trkpt>
      <trkpt lat="46.05772" lon="1.88588">
        <ele>540.2</ele>
        <time>2022-07-09T13:34:21Z</time>
      </trkpt>
      <trkpt lat="46.05771" lon="1.88588">
        <ele>540.4</ele>
        <time>2022-07-09T13:34:22Z</time>
      </trkpt>
      <trkpt lat="46.05769" lon="1.88586">
        <ele>540.8</ele>
        <time>2022-07-09T13:34:25Z</time>
      </trkpt>
      <trkpt lat="46.05768" lon="1.88584">
        <ele>541.4</ele>
        <time>2022-07-09T13:34:29Z</time>
      </trkpt>
      <trkpt lat="46.05767" lon="1.88583">
        <ele>541.8</ele>
        <time>2022-07-09T13:34:31Z</time>
      </trkpt>
      <trkpt lat="46.0576" lon="1.88575">
        <ele>543</ele>
        <time>2022-07-09T13:34:38Z</time>
      </trkpt>
      <trkpt lat="46.05759" lon="1.88574">
        <ele>543</ele>
        <time>2022-07-09T13:34:39Z</time>
      </trkpt>
      <trkpt lat="46.05758" lon="1.88574">
        <ele>543</ele>
        <time>2022-07-09T13:34:40Z</time>
      </trkpt>
      <trkpt lat="46.05748" lon="1.88577">
        <ele>543.2</ele>
        <time>2022-07-09T13:34:46Z</time>
      </trkpt>
      <trkpt lat="46.05742" lon="1.88576">
        <ele>543.8</ele>
        <time>2022-07-09T13:34:53Z</time>
      </trkpt>
      <trkpt lat="46.0574" lon="1.88576">
        <ele>544</ele>
        <time>2022-07-09T13:34:55Z</time>
      </trkpt>
      <trkpt lat="46.05733" lon="1.88577">
        <ele>544.6</ele>
        <time>2022-07-09T13:34:59Z</time>
      </trkpt>
      <trkpt lat="46.05724" lon="1.88577">
        <ele>545</ele>
        <time>2022-07-09T13:35:03Z</time>
      </trkpt>
      <trkpt lat="46.05722" lon="1.88579">
        <ele>545.2</ele>
        <time>2022-07-09T13:35:05Z</time>
      </trkpt>
      <trkpt lat="46.05721" lon="1.8858">
        <ele>545.2</ele>
        <time>2022-07-09T13:35:06Z</time>
      </trkpt>
      <trkpt lat="46.05716" lon="1.88581">
        <ele>546</ele>
        <time>2022-07-09T13:35:12Z</time>
      </trkpt>
      <trkpt lat="46.05716" lon="1.88581">
        <ele>546.2</ele>
        <time>2022-07-09T13:35:13Z</time>
      </trkpt>
      <trkpt lat="46.0571" lon="1.88583">
        <ele>546.6</ele>
        <time>2022-07-09T13:35:20Z</time>
      </trkpt>
      <trkpt lat="46.05697" lon="1.8859">
        <ele>547</ele>
        <time>2022-07-09T13:35:25Z</time>
      </trkpt>
      <trkpt lat="46.05695" lon="1.8859">
        <ele>547</ele>
        <time>2022-07-09T13:35:26Z</time>
      </trkpt>
      <trkpt lat="46.05681" lon="1.88593">
        <ele>547.8</ele>
        <time>2022-07-09T13:35:33Z</time>
      </trkpt>
      <trkpt lat="46.05676" lon="1.88595">
        <ele>548.2</ele>
        <time>2022-07-09T13:35:35Z</time>
      </trkpt>
      <trkpt lat="46.0567" lon="1.88599">
        <ele>548.6</ele>
        <time>2022-07-09T13:35:37Z</time>
      </trkpt>
      <trkpt lat="46.05665" lon="1.886">
        <ele>549</ele>
        <time>2022-07-09T13:35:40Z</time>
      </trkpt>
      <trkpt lat="46.05663" lon="1.886">
        <ele>549.2</ele>
        <time>2022-07-09T13:35:41Z</time>
      </trkpt>
      <trkpt lat="46.05646" lon="1.88606">
        <ele>550.2</ele>
        <time>2022-07-09T13:35:47Z</time>
      </trkpt>
      <trkpt lat="46.0564" lon="1.88607">
        <ele>550.6</ele>
        <time>2022-07-09T13:35:50Z</time>
      </trkpt>
      <trkpt lat="46.05633" lon="1.88609">
        <ele>551.4</ele>
        <time>2022-07-09T13:35:53Z</time>
      </trkpt>
      <trkpt lat="46.05633" lon="1.88609">
        <ele>551.6</ele>
        <time>2022-07-09T13:35:54Z</time>
      </trkpt>
      <trkpt lat="46.05632" lon="1.88609">
        <ele>551.8</ele>
        <time>2022-07-09T13:35:57Z</time>
      </trkpt>
      <trkpt lat="46.05631" lon="1.88609">
        <ele>552.6</ele>
        <time>2022-07-09T13:36:01Z</time>
      </trkpt>
      <trkpt lat="46.0563" lon="1.8861">
        <ele>552.6</ele>
        <time>2022-07-09T13:36:02Z</time>
      </trkpt>
      <trkpt lat="46.05629" lon="1.88611">
        <ele>552.8</ele>
        <time>2022-07-09T13:36:03Z</time>
      </trkpt>
      <trkpt lat="46.05627" lon="1.88612">
        <ele>553.8</ele>
        <time>2022-07-09T13:36:08Z</time>
      </trkpt>
      <trkpt lat="46.05625" lon="1.88613">
        <ele>554.2</ele>
        <time>2022-07-09T13:36:10Z</time>
      </trkpt>
      <trkpt lat="46.05621" lon="1.88613">
        <ele>554.8</ele>
        <time>2022-07-09T13:36:18Z</time>
      </trkpt>
      <trkpt lat="46.05615" lon="1.88615">
        <ele>556</ele>
        <time>2022-07-09T13:36:26Z</time>
      </trkpt>
      <trkpt lat="46.05609" lon="1.88618">
        <ele>556</ele>
        <time>2022-07-09T13:36:30Z</time>
      </trkpt>
      <trkpt lat="46.05602" lon="1.88624">
        <ele>556.6</ele>
        <time>2022-07-09T13:36:36Z</time>
      </trkpt>
      <trkpt lat="46.05599" lon="1.88626">
        <ele>556.8</ele>
        <time>2022-07-09T13:36:38Z</time>
      </trkpt>
      <trkpt lat="46.05586" lon="1.88635">
        <ele>557</ele>
        <time>2022-07-09T13:36:45Z</time>
      </trkpt>
      <trkpt lat="46.05581" lon="1.88638">
        <ele>557.4</ele>
        <time>2022-07-09T13:36:51Z</time>
      </trkpt>
      <trkpt lat="46.05581" lon="1.88638">
        <ele>557.8</ele>
        <time>2022-07-09T13:36:53Z</time>
      </trkpt>
      <trkpt lat="46.05578" lon="1.8864">
        <ele>558.8</ele>
        <time>2022-07-09T13:37:00Z</time>
      </trkpt>
      <trkpt lat="46.05576" lon="1.88641">
        <ele>559</ele>
        <time>2022-07-09T13:37:01Z</time>
      </trkpt>
      <trkpt lat="46.05572" lon="1.88644">
        <ele>559.8</ele>
        <time>2022-07-09T13:37:07Z</time>
      </trkpt>
      <trkpt lat="46.0557" lon="1.88646">
        <ele>560</ele>
        <time>2022-07-09T13:37:09Z</time>
      </trkpt>
      <trkpt lat="46.05568" lon="1.88647">
        <ele>560.8</ele>
        <time>2022-07-09T13:37:13Z</time>
      </trkpt>
      <trkpt lat="46.05568" lon="1.88647">
        <ele>561.4</ele>
        <time>2022-07-09T13:37:15Z</time>
      </trkpt>
      <trkpt lat="46.05567" lon="1.88647">
        <ele>562</ele>
        <time>2022-07-09T13:37:17Z</time>
      </trkpt>
      <trkpt lat="46.05563" lon="1.8865">
        <ele>563.2</ele>
        <time>2022-07-09T13:37:23Z</time>
      </trkpt>
      <trkpt lat="46.05556" lon="1.88654">
        <ele>563.6</ele>
        <time>2022-07-09T13:37:28Z</time>
      </trkpt>
      <trkpt lat="46.0555" lon="1.88658">
        <ele>564.2</ele>
        <time>2022-07-09T13:37:32Z</time>
      </trkpt>
      <trkpt lat="46.05547" lon="1.88661">
        <ele>564.4</ele>
        <time>2022-07-09T13:37:34Z</time>
      </trkpt>
      <trkpt lat="46.05542" lon="1.88669">
        <ele>565.2</ele>
        <time>2022-07-09T13:37:41Z</time>
      </trkpt>
      <trkpt lat="46.0554" lon="1.88672">
        <ele>565.2</ele>
        <time>2022-07-09T13:37:43Z</time>
      </trkpt>
      <trkpt lat="46.0554" lon="1.88672">
        <ele>565.6</ele>
        <time>2022-07-09T13:37:44Z</time>
      </trkpt>
      <trkpt lat="46.05535" lon="1.88678">
        <ele>566.2</ele>
        <time>2022-07-09T13:37:49Z</time>
      </trkpt>
      <trkpt lat="46.05533" lon="1.88679">
        <ele>566.4</ele>
        <time>2022-07-09T13:37:52Z</time>
      </trkpt>
      <trkpt lat="46.05526" lon="1.88685">
        <ele>567</ele>
        <time>2022-07-09T13:37:55Z</time>
      </trkpt>
      <trkpt lat="46.05522" lon="1.88691">
        <ele>567.2</ele>
        <time>2022-07-09T13:37:57Z</time>
      </trkpt>
      <trkpt lat="46.0552" lon="1.88694">
        <ele>567.4</ele>
        <time>2022-07-09T13:37:58Z</time>
      </trkpt>
      <trkpt lat="46.05509" lon="1.88712">
        <ele>568.4</ele>
        <time>2022-07-09T13:38:04Z</time>
      </trkpt>
      <trkpt lat="46.05504" lon="1.88718">
        <ele>569</ele>
        <time>2022-07-09T13:38:07Z</time>
      </trkpt>
      <trkpt lat="46.055" lon="1.88723">
        <ele>569.4</ele>
        <time>2022-07-09T13:38:11Z</time>
      </trkpt>
      <trkpt lat="46.05499" lon="1.88726">
        <ele>569.8</ele>
        <time>2022-07-09T13:38:12Z</time>
      </trkpt>
      <trkpt lat="46.0549" lon="1.88737">
        <ele>570.6</ele>
        <time>2022-07-09T13:38:16Z</time>
      </trkpt>
      <trkpt lat="46.05487" lon="1.8874">
        <ele>571</ele>
        <time>2022-07-09T13:38:17Z</time>
      </trkpt>
      <trkpt lat="46.05485" lon="1.88742">
        <ele>571</ele>
        <time>2022-07-09T13:38:18Z</time>
      </trkpt>
      <trkpt lat="46.05482" lon="1.88745">
        <ele>571.4</ele>
        <time>2022-07-09T13:38:20Z</time>
      </trkpt>
      <trkpt lat="46.05479" lon="1.8875">
        <ele>571.6</ele>
        <time>2022-07-09T13:38:22Z</time>
      </trkpt>
      <trkpt lat="46.05477" lon="1.88753">
        <ele>571.8</ele>
        <time>2022-07-09T13:38:23Z</time>
      </trkpt>
      <trkpt lat="46.0547" lon="1.88758">
        <ele>572</ele>
        <time>2022-07-09T13:38:27Z</time>
      </trkpt>
      <trkpt lat="46.05461" lon="1.88766">
        <ele>572.2</ele>
        <time>2022-07-09T13:38:32Z</time>
      </trkpt>
      <trkpt lat="46.05458" lon="1.88768">
        <ele>572.4</ele>
        <time>2022-07-09T13:38:35Z</time>
      </trkpt>
      <trkpt lat="46.05452" lon="1.88771">
        <ele>572.8</ele>
        <time>2022-07-09T13:38:39Z</time>
      </trkpt>
      <trkpt lat="46.05448" lon="1.88775">
        <ele>573.8</ele>
        <time>2022-07-09T13:38:46Z</time>
      </trkpt>
      <trkpt lat="46.05447" lon="1.88775">
        <ele>573.8</ele>
        <time>2022-07-09T13:38:48Z</time>
      </trkpt>
      <trkpt lat="46.05447" lon="1.88775">
        <ele>574.4</ele>
        <time>2022-07-09T13:38:52Z</time>
      </trkpt>
      <trkpt lat="46.05441" lon="1.8878">
        <ele>575.2</ele>
        <time>2022-07-09T13:38:56Z</time>
      </trkpt>
      <trkpt lat="46.05426" lon="1.88791">
        <ele>575.4</ele>
        <time>2022-07-09T13:38:59Z</time>
      </trkpt>
      <trkpt lat="46.05425" lon="1.88793">
        <ele>576</ele>
        <time>2022-07-09T13:39:02Z</time>
      </trkpt>
      <trkpt lat="46.05422" lon="1.88795">
        <ele>576.6</ele>
        <time>2022-07-09T13:39:05Z</time>
      </trkpt>
      <trkpt lat="46.0541" lon="1.88805">
        <ele>577.4</ele>
        <time>2022-07-09T13:39:09Z</time>
      </trkpt>
      <trkpt lat="46.05403" lon="1.88813">
        <ele>577.8</ele>
        <time>2022-07-09T13:39:14Z</time>
      </trkpt>
      <trkpt lat="46.05395" lon="1.8882">
        <ele>578.4</ele>
        <time>2022-07-09T13:39:18Z</time>
      </trkpt>
      <trkpt lat="46.05395" lon="1.8882">
        <ele>578.6</ele>
        <time>2022-07-09T13:39:21Z</time>
      </trkpt>
      <trkpt lat="46.05393" lon="1.88823">
        <ele>579</ele>
        <time>2022-07-09T13:41:17Z</time>
      </trkpt>
      <trkpt lat="46.0539" lon="1.88825">
        <ele>579.2</ele>
        <time>2022-07-09T13:41:18Z</time>
      </trkpt>
      <trkpt lat="46.05372" lon="1.88843">
        <ele>579.4</ele>
        <time>2022-07-09T13:41:25Z</time>
      </trkpt>
      <trkpt lat="46.05364" lon="1.8885">
        <ele>579.6</ele>
        <time>2022-07-09T13:41:30Z</time>
      </trkpt>
      <trkpt lat="46.05363" lon="1.88852">
        <ele>579.6</ele>
        <time>2022-07-09T13:41:31Z</time>
      </trkpt>
      <trkpt lat="46.0536" lon="1.88857">
        <ele>579.8</ele>
        <time>2022-07-09T13:41:34Z</time>
      </trkpt>
      <trkpt lat="46.05359" lon="1.88859">
        <ele>580</ele>
        <time>2022-07-09T13:41:36Z</time>
      </trkpt>
      <trkpt lat="46.05357" lon="1.88863">
        <ele>580</ele>
        <time>2022-07-09T13:41:38Z</time>
      </trkpt>
      <trkpt lat="46.05351" lon="1.8887">
        <ele>580.4</ele>
        <time>2022-07-09T13:41:41Z</time>
      </trkpt>
      <trkpt lat="46.05351" lon="1.88872">
        <ele>580.6</ele>
        <time>2022-07-09T13:41:42Z</time>
      </trkpt>
      <trkpt lat="46.05348" lon="1.88877">
        <ele>581.6</ele>
        <time>2022-07-09T13:41:47Z</time>
      </trkpt>
      <trkpt lat="46.05346" lon="1.88881">
        <ele>581.8</ele>
        <time>2022-07-09T13:41:48Z</time>
      </trkpt>
      <trkpt lat="46.05337" lon="1.88893">
        <ele>582.4</ele>
        <time>2022-07-09T13:41:53Z</time>
      </trkpt>
      <trkpt lat="46.05334" lon="1.889">
        <ele>582.8</ele>
        <time>2022-07-09T13:41:56Z</time>
      </trkpt>
      <trkpt lat="46.05329" lon="1.8891">
        <ele>583.4</ele>
        <time>2022-07-09T13:42:00Z</time>
      </trkpt>
      <trkpt lat="46.05323" lon="1.88925">
        <ele>583.8</ele>
        <time>2022-07-09T13:42:05Z</time>
      </trkpt>
      <trkpt lat="46.0532" lon="1.88929">
        <ele>584</ele>
        <time>2022-07-09T13:42:07Z</time>
      </trkpt>
      <trkpt lat="46.0532" lon="1.88931">
        <ele>584.6</ele>
        <time>2022-07-09T13:42:11Z</time>
      </trkpt>
      <trkpt lat="46.05319" lon="1.88935">
        <ele>585</ele>
        <time>2022-07-09T13:42:13Z</time>
      </trkpt>
      <trkpt lat="46.05319" lon="1.88942">
        <ele>585.4</ele>
        <time>2022-07-09T13:42:15Z</time>
      </trkpt>
      <trkpt lat="46.0532" lon="1.88952">
        <ele>586.2</ele>
        <time>2022-07-09T13:42:22Z</time>
      </trkpt>
      <trkpt lat="46.05319" lon="1.88954">
        <ele>586.2</ele>
        <time>2022-07-09T13:42:23Z</time>
      </trkpt>
      <trkpt lat="46.05315" lon="1.88959">
        <ele>586.8</ele>
        <time>2022-07-09T13:42:27Z</time>
      </trkpt>
      <trkpt lat="46.05312" lon="1.88961">
        <ele>587</ele>
        <time>2022-07-09T13:42:29Z</time>
      </trkpt>
      <trkpt lat="46.05309" lon="1.88963">
        <ele>587.2</ele>
        <time>2022-07-09T13:42:31Z</time>
      </trkpt>
      <trkpt lat="46.05301" lon="1.88965">
        <ele>588</ele>
        <time>2022-07-09T13:42:37Z</time>
      </trkpt>
      <trkpt lat="46.053" lon="1.88966">
        <ele>588.2</ele>
        <time>2022-07-09T13:42:38Z</time>
      </trkpt>
      <trkpt lat="46.05294" lon="1.88964">
        <ele>588.8</ele>
        <time>2022-07-09T13:42:42Z</time>
      </trkpt>
      <trkpt lat="46.05285" lon="1.88964">
        <ele>589.4</ele>
        <time>2022-07-09T13:42:47Z</time>
      </trkpt>
      <trkpt lat="46.05284" lon="1.88964">
        <ele>589.4</ele>
        <time>2022-07-09T13:42:48Z</time>
      </trkpt>
      <trkpt lat="46.05284" lon="1.8897">
        <ele>589.8</ele>
        <time>2022-07-09T13:42:51Z</time>
      </trkpt>
      <trkpt lat="46.05296" lon="1.88988">
        <ele>590.4</ele>
        <time>2022-07-09T13:43:01Z</time>
      </trkpt>
      <trkpt lat="46.05296" lon="1.8899">
        <ele>590.4</ele>
        <time>2022-07-09T13:43:02Z</time>
      </trkpt>
      <trkpt lat="46.05295" lon="1.88991">
        <ele>590.4</ele>
        <time>2022-07-09T13:43:03Z</time>
      </trkpt>
      <trkpt lat="46.05293" lon="1.88993">
        <ele>590.4</ele>
        <time>2022-07-09T13:43:06Z</time>
      </trkpt>
      <trkpt lat="46.05289" lon="1.88996">
        <ele>590.6</ele>
        <time>2022-07-09T13:43:09Z</time>
      </trkpt>
      <trkpt lat="46.05283" lon="1.89">
        <ele>590.8</ele>
        <time>2022-07-09T13:43:13Z</time>
      </trkpt>
      <trkpt lat="46.0528" lon="1.89003">
        <ele>591.4</ele>
        <time>2022-07-09T13:43:16Z</time>
      </trkpt>
      <trkpt lat="46.05274" lon="1.89007">
        <ele>592.2</ele>
        <time>2022-07-09T13:43:20Z</time>
      </trkpt>
      <trkpt lat="46.05272" lon="1.89008">
        <ele>592.6</ele>
        <time>2022-07-09T13:43:22Z</time>
      </trkpt>
      <trkpt lat="46.05271" lon="1.89009">
        <ele>592.6</ele>
        <time>2022-07-09T13:43:23Z</time>
      </trkpt>
      <trkpt lat="46.0527" lon="1.8901">
        <ele>593</ele>
        <time>2022-07-09T13:43:25Z</time>
      </trkpt>
      <trkpt lat="46.05267" lon="1.89012">
        <ele>593.2</ele>
        <time>2022-07-09T13:43:27Z</time>
      </trkpt>
      <trkpt lat="46.05266" lon="1.89013">
        <ele>593.6</ele>
        <time>2022-07-09T13:43:28Z</time>
      </trkpt>
      <trkpt lat="46.05264" lon="1.89015">
        <ele>593.8</ele>
        <time>2022-07-09T13:43:29Z</time>
      </trkpt>
      <trkpt lat="46.05256" lon="1.89021">
        <ele>594.4</ele>
        <time>2022-07-09T13:43:34Z</time>
      </trkpt>
      <trkpt lat="46.05255" lon="1.89022">
        <ele>594.6</ele>
        <time>2022-07-09T13:43:35Z</time>
      </trkpt>
      <trkpt lat="46.05251" lon="1.89024">
        <ele>594.8</ele>
        <time>2022-07-09T13:43:37Z</time>
      </trkpt>
      <trkpt lat="46.05244" lon="1.8903">
        <ele>595</ele>
        <time>2022-07-09T13:43:41Z</time>
      </trkpt>
      <trkpt lat="46.05232" lon="1.8904">
        <ele>595.6</ele>
        <time>2022-07-09T13:43:48Z</time>
      </trkpt>
      <trkpt lat="46.05228" lon="1.89043">
        <ele>595.8</ele>
        <time>2022-07-09T13:43:49Z</time>
      </trkpt>
      <trkpt lat="46.05215" lon="1.89051">
        <ele>596.2</ele>
        <time>2022-07-09T13:43:56Z</time>
      </trkpt>
      <trkpt lat="46.05203" lon="1.89059">
        <ele>596.4</ele>
        <time>2022-07-09T13:44:03Z</time>
      </trkpt>
      <trkpt lat="46.05193" lon="1.89058">
        <ele>596.2</ele>
        <time>2022-07-09T13:44:08Z</time>
      </trkpt>
      <trkpt lat="46.05179" lon="1.89058">
        <ele>595.6</ele>
        <time>2022-07-09T13:44:13Z</time>
      </trkpt>
      <trkpt lat="46.05173" lon="1.89055">
        <ele>594.8</ele>
        <time>2022-07-09T13:44:15Z</time>
      </trkpt>
      <trkpt lat="46.05171" lon="1.89054">
        <ele>594.6</ele>
        <time>2022-07-09T13:44:16Z</time>
      </trkpt>
      <trkpt lat="46.05169" lon="1.89054">
        <ele>594.4</ele>
        <time>2022-07-09T13:44:17Z</time>
      </trkpt>
      <trkpt lat="46.05165" lon="1.89056">
        <ele>593.4</ele>
        <time>2022-07-09T13:44:19Z</time>
      </trkpt>
      <trkpt lat="46.05164" lon="1.89057">
        <ele>593.2</ele>
        <time>2022-07-09T13:44:20Z</time>
      </trkpt>
      <trkpt lat="46.05162" lon="1.89059">
        <ele>592.8</ele>
        <time>2022-07-09T13:44:21Z</time>
      </trkpt>
      <trkpt lat="46.05157" lon="1.89062">
        <ele>592.4</ele>
        <time>2022-07-09T13:44:23Z</time>
      </trkpt>
      <trkpt lat="46.05153" lon="1.89064">
        <ele>592.2</ele>
        <time>2022-07-09T13:44:24Z</time>
      </trkpt>
      <trkpt lat="46.05131" lon="1.89081">
        <ele>591.4</ele>
        <time>2022-07-09T13:44:29Z</time>
      </trkpt>
      <trkpt lat="46.05126" lon="1.89084">
        <ele>591.4</ele>
        <time>2022-07-09T13:44:30Z</time>
      </trkpt>
      <trkpt lat="46.05121" lon="1.89087">
        <ele>591.2</ele>
        <time>2022-07-09T13:44:31Z</time>
      </trkpt>
      <trkpt lat="46.05108" lon="1.89097">
        <ele>591</ele>
        <time>2022-07-09T13:44:34Z</time>
      </trkpt>
      <trkpt lat="46.05095" lon="1.89107">
        <ele>590.2</ele>
        <time>2022-07-09T13:44:37Z</time>
      </trkpt>
      <trkpt lat="46.05088" lon="1.89116">
        <ele>590</ele>
        <time>2022-07-09T13:44:39Z</time>
      </trkpt>
      <trkpt lat="46.05075" lon="1.89133">
        <ele>589.2</ele>
        <time>2022-07-09T13:44:42Z</time>
      </trkpt>
      <trkpt lat="46.05064" lon="1.89145">
        <ele>587.8</ele>
        <time>2022-07-09T13:44:45Z</time>
      </trkpt>
      <trkpt lat="46.05051" lon="1.89156">
        <ele>586.8</ele>
        <time>2022-07-09T13:44:48Z</time>
      </trkpt>
      <trkpt lat="46.05044" lon="1.8916">
        <ele>586.2</ele>
        <time>2022-07-09T13:44:50Z</time>
      </trkpt>
      <trkpt lat="46.05018" lon="1.89176">
        <ele>585.6</ele>
        <time>2022-07-09T13:44:56Z</time>
      </trkpt>
      <trkpt lat="46.0501" lon="1.89181">
        <ele>585.4</ele>
        <time>2022-07-09T13:44:58Z</time>
      </trkpt>
      <trkpt lat="46.05" lon="1.89185">
        <ele>584.8</ele>
        <time>2022-07-09T13:45:01Z</time>
      </trkpt>
      <trkpt lat="46.04997" lon="1.89185">
        <ele>584.6</ele>
        <time>2022-07-09T13:45:02Z</time>
      </trkpt>
      <trkpt lat="46.04994" lon="1.89184">
        <ele>584.4</ele>
        <time>2022-07-09T13:45:03Z</time>
      </trkpt>
      <trkpt lat="46.0498" lon="1.89179">
        <ele>583.4</ele>
        <time>2022-07-09T13:45:07Z</time>
      </trkpt>
      <trkpt lat="46.04975" lon="1.89177">
        <ele>583.2</ele>
        <time>2022-07-09T13:45:08Z</time>
      </trkpt>
      <trkpt lat="46.04961" lon="1.89171">
        <ele>582.2</ele>
        <time>2022-07-09T13:45:12Z</time>
      </trkpt>
      <trkpt lat="46.04955" lon="1.89168">
        <ele>581.2</ele>
        <time>2022-07-09T13:45:14Z</time>
      </trkpt>
      <trkpt lat="46.04952" lon="1.89167">
        <ele>580.4</ele>
        <time>2022-07-09T13:45:15Z</time>
      </trkpt>
      <trkpt lat="46.04941" lon="1.8916">
        <ele>579.4</ele>
        <time>2022-07-09T13:45:18Z</time>
      </trkpt>
      <trkpt lat="46.04929" lon="1.89154">
        <ele>577.8</ele>
        <time>2022-07-09T13:45:21Z</time>
      </trkpt>
      <trkpt lat="46.04919" lon="1.89153">
        <ele>576.4</ele>
        <time>2022-07-09T13:45:24Z</time>
      </trkpt>
      <trkpt lat="46.04913" lon="1.8915">
        <ele>575.2</ele>
        <time>2022-07-09T13:45:27Z</time>
      </trkpt>
      <trkpt lat="46.04905" lon="1.8914">
        <ele>574.4</ele>
        <time>2022-07-09T13:45:32Z</time>
      </trkpt>
      <trkpt lat="46.04904" lon="1.89136">
        <ele>574.2</ele>
        <time>2022-07-09T13:45:33Z</time>
      </trkpt>
      <trkpt lat="46.04902" lon="1.89132">
        <ele>574</ele>
        <time>2022-07-09T13:45:34Z</time>
      </trkpt>
      <trkpt lat="46.04894" lon="1.89127">
        <ele>573</ele>
        <time>2022-07-09T13:45:37Z</time>
      </trkpt>
      <trkpt lat="46.0489" lon="1.89127">
        <ele>572.6</ele>
        <time>2022-07-09T13:45:38Z</time>
      </trkpt>
      <trkpt lat="46.0488" lon="1.89122">
        <ele>571.4</ele>
        <time>2022-07-09T13:45:41Z</time>
      </trkpt>
      <trkpt lat="46.04877" lon="1.89119">
        <ele>570.8</ele>
        <time>2022-07-09T13:45:42Z</time>
      </trkpt>
      <trkpt lat="46.0487" lon="1.89103">
        <ele>570</ele>
        <time>2022-07-09T13:45:45Z</time>
      </trkpt>
      <trkpt lat="46.04867" lon="1.89096">
        <ele>569.8</ele>
        <time>2022-07-09T13:45:46Z</time>
      </trkpt>
      <trkpt lat="46.04865" lon="1.8909">
        <ele>569.4</ele>
        <time>2022-07-09T13:45:47Z</time>
      </trkpt>
      <trkpt lat="46.04862" lon="1.89077">
        <ele>568.8</ele>
        <time>2022-07-09T13:45:49Z</time>
      </trkpt>
      <trkpt lat="46.04863" lon="1.89072">
        <ele>568.4</ele>
        <time>2022-07-09T13:45:50Z</time>
      </trkpt>
      <trkpt lat="46.04864" lon="1.89069">
        <ele>567.4</ele>
        <time>2022-07-09T13:45:51Z</time>
      </trkpt>
      <trkpt lat="46.04866" lon="1.89067">
        <ele>566.2</ele>
        <time>2022-07-09T13:45:52Z</time>
      </trkpt>
      <trkpt lat="46.04868" lon="1.89064">
        <ele>565.8</ele>
        <time>2022-07-09T13:45:53Z</time>
      </trkpt>
      <trkpt lat="46.04869" lon="1.8906">
        <ele>565.4</ele>
        <time>2022-07-09T13:45:54Z</time>
      </trkpt>
      <trkpt lat="46.0487" lon="1.89052">
        <ele>565</ele>
        <time>2022-07-09T13:45:56Z</time>
      </trkpt>
      <trkpt lat="46.0487" lon="1.89047">
        <ele>565</ele>
        <time>2022-07-09T13:45:57Z</time>
      </trkpt>
      <trkpt lat="46.04867" lon="1.89008">
        <ele>564.6</ele>
        <time>2022-07-09T13:46:05Z</time>
      </trkpt>
      <trkpt lat="46.04866" lon="1.88985">
        <ele>565</ele>
        <time>2022-07-09T13:46:11Z</time>
      </trkpt>
      <trkpt lat="46.04865" lon="1.88967">
        <ele>565.4</ele>
        <time>2022-07-09T13:46:17Z</time>
      </trkpt>
      <trkpt lat="46.04869" lon="1.88952">
        <ele>565.8</ele>
        <time>2022-07-09T13:46:23Z</time>
      </trkpt>
      <trkpt lat="46.0487" lon="1.8895">
        <ele>566.2</ele>
        <time>2022-07-09T13:46:24Z</time>
      </trkpt>
      <trkpt lat="46.04875" lon="1.88938">
        <ele>567</ele>
        <time>2022-07-09T13:46:31Z</time>
      </trkpt>
      <trkpt lat="46.04877" lon="1.88936">
        <ele>567.4</ele>
        <time>2022-07-09T13:46:33Z</time>
      </trkpt>
      <trkpt lat="46.04879" lon="1.88932">
        <ele>568</ele>
        <time>2022-07-09T13:46:36Z</time>
      </trkpt>
      <trkpt lat="46.04879" lon="1.8893">
        <ele>568.4</ele>
        <time>2022-07-09T13:46:38Z</time>
      </trkpt>
      <trkpt lat="46.04879" lon="1.88925">
        <ele>569.4</ele>
        <time>2022-07-09T13:46:44Z</time>
      </trkpt>
      <trkpt lat="46.04877" lon="1.88916">
        <ele>570.2</ele>
        <time>2022-07-09T13:46:52Z</time>
      </trkpt>
      <trkpt lat="46.04876" lon="1.88916">
        <ele>570.2</ele>
        <time>2022-07-09T13:46:53Z</time>
      </trkpt>
      <trkpt lat="46.04876" lon="1.88913">
        <ele>570.6</ele>
        <time>2022-07-09T13:46:56Z</time>
      </trkpt>
      <trkpt lat="46.04875" lon="1.88904">
        <ele>571.6</ele>
        <time>2022-07-09T13:47:03Z</time>
      </trkpt>
      <trkpt lat="46.04875" lon="1.88903">
        <ele>571.8</ele>
        <time>2022-07-09T13:47:04Z</time>
      </trkpt>
      <trkpt lat="46.04875" lon="1.88898">
        <ele>572.2</ele>
        <time>2022-07-09T13:47:10Z</time>
      </trkpt>
      <trkpt lat="46.04875" lon="1.88895">
        <ele>572.2</ele>
        <time>2022-07-09T13:47:12Z</time>
      </trkpt>
      <trkpt lat="46.04875" lon="1.88893">
        <ele>572.6</ele>
        <time>2022-07-09T13:47:14Z</time>
      </trkpt>
      <trkpt lat="46.04875" lon="1.88892">
        <ele>572.6</ele>
        <time>2022-07-09T13:47:15Z</time>
      </trkpt>
      <trkpt lat="46.04875" lon="1.88887">
        <ele>573.6</ele>
        <time>2022-07-09T13:47:19Z</time>
      </trkpt>
      <trkpt lat="46.04875" lon="1.88885">
        <ele>573.8</ele>
        <time>2022-07-09T13:47:20Z</time>
      </trkpt>
      <trkpt lat="46.04874" lon="1.88884">
        <ele>573.8</ele>
        <time>2022-07-09T13:47:21Z</time>
      </trkpt>
      <trkpt lat="46.04875" lon="1.88881">
        <ele>574.8</ele>
        <time>2022-07-09T13:47:28Z</time>
      </trkpt>
      <trkpt lat="46.04874" lon="1.88879">
        <ele>574.8</ele>
        <time>2022-07-09T13:47:29Z</time>
      </trkpt>
      <trkpt lat="46.04873" lon="1.88873">
        <ele>575.4</ele>
        <time>2022-07-09T13:47:33Z</time>
      </trkpt>
      <trkpt lat="46.04872" lon="1.88872">
        <ele>575.4</ele>
        <time>2022-07-09T13:47:34Z</time>
      </trkpt>
      <trkpt lat="46.04872" lon="1.88869">
        <ele>575.8</ele>
        <time>2022-07-09T13:47:38Z</time>
      </trkpt>
      <trkpt lat="46.04871" lon="1.88868">
        <ele>576.6</ele>
        <time>2022-07-09T13:47:43Z</time>
      </trkpt>
      <trkpt lat="46.04871" lon="1.88867">
        <ele>576.8</ele>
        <time>2022-07-09T13:47:44Z</time>
      </trkpt>
      <trkpt lat="46.04871" lon="1.88862">
        <ele>577.4</ele>
        <time>2022-07-09T13:47:47Z</time>
      </trkpt>
      <trkpt lat="46.04871" lon="1.88861">
        <ele>577.6</ele>
        <time>2022-07-09T13:47:48Z</time>
      </trkpt>
      <trkpt lat="46.04869" lon="1.88856">
        <ele>578</ele>
        <time>2022-07-09T13:47:51Z</time>
      </trkpt>
      <trkpt lat="46.04868" lon="1.88853">
        <ele>578.4</ele>
        <time>2022-07-09T13:47:55Z</time>
      </trkpt>
      <trkpt lat="46.04868" lon="1.88851">
        <ele>579</ele>
        <time>2022-07-09T13:47:58Z</time>
      </trkpt>
      <trkpt lat="46.04866" lon="1.8885">
        <ele>579.4</ele>
        <time>2022-07-09T13:48:00Z</time>
      </trkpt>
      <trkpt lat="46.04864" lon="1.88848">
        <ele>580</ele>
        <time>2022-07-09T13:48:04Z</time>
      </trkpt>
      <trkpt lat="46.04864" lon="1.88848">
        <ele>580.2</ele>
        <time>2022-07-09T13:48:05Z</time>
      </trkpt>
      <trkpt lat="46.04858" lon="1.88843">
        <ele>581.2</ele>
        <time>2022-07-09T13:48:12Z</time>
      </trkpt>
      <trkpt lat="46.04857" lon="1.88843">
        <ele>581.6</ele>
        <time>2022-07-09T13:48:17Z</time>
      </trkpt>
      <trkpt lat="46.04853" lon="1.88838">
        <ele>582.2</ele>
        <time>2022-07-09T13:48:25Z</time>
      </trkpt>
      <trkpt lat="46.04853" lon="1.88836">
        <ele>582</ele>
        <time>2022-07-09T13:48:26Z</time>
      </trkpt>
      <trkpt lat="46.04846" lon="1.88821">
        <ele>582</ele>
        <time>2022-07-09T13:48:31Z</time>
      </trkpt>
      <trkpt lat="46.04842" lon="1.88814">
        <ele>582.2</ele>
        <time>2022-07-09T13:48:34Z</time>
      </trkpt>
      <trkpt lat="46.04838" lon="1.88806">
        <ele>582.4</ele>
        <time>2022-07-09T13:48:37Z</time>
      </trkpt>
      <trkpt lat="46.0483" lon="1.88792">
        <ele>582.6</ele>
        <time>2022-07-09T13:48:41Z</time>
      </trkpt>
      <trkpt lat="46.04819" lon="1.8877">
        <ele>583</ele>
        <time>2022-07-09T13:48:48Z</time>
      </trkpt>
      <trkpt lat="46.04814" lon="1.88746">
        <ele>583.4</ele>
        <time>2022-07-09T13:48:55Z</time>
      </trkpt>
      <trkpt lat="46.04813" lon="1.88743">
        <ele>583.6</ele>
        <time>2022-07-09T13:48:56Z</time>
      </trkpt>
      <trkpt lat="46.04813" lon="1.88731">
        <ele>584.2</ele>
        <time>2022-07-09T13:49:01Z</time>
      </trkpt>
      <trkpt lat="46.04813" lon="1.88728">
        <ele>584.4</ele>
        <time>2022-07-09T13:49:03Z</time>
      </trkpt>
      <trkpt lat="46.04813" lon="1.88726">
        <ele>584.6</ele>
        <time>2022-07-09T13:49:04Z</time>
      </trkpt>
      <trkpt lat="46.04813" lon="1.88726">
        <ele>584.6</ele>
        <time>2022-07-09T13:49:06Z</time>
      </trkpt>
      <trkpt lat="46.0481" lon="1.88719">
        <ele>585.4</ele>
        <time>2022-07-09T13:49:12Z</time>
      </trkpt>
      <trkpt lat="46.0481" lon="1.88719">
        <ele>585.6</ele>
        <time>2022-07-09T13:49:13Z</time>
      </trkpt>
      <trkpt lat="46.04807" lon="1.88711">
        <ele>586.6</ele>
        <time>2022-07-09T13:49:20Z</time>
      </trkpt>
      <trkpt lat="46.04803" lon="1.88706">
        <ele>587.8</ele>
        <time>2022-07-09T13:49:25Z</time>
      </trkpt>
      <trkpt lat="46.04803" lon="1.88705">
        <ele>587.8</ele>
        <time>2022-07-09T13:49:26Z</time>
      </trkpt>
      <trkpt lat="46.04804" lon="1.887">
        <ele>588.8</ele>
        <time>2022-07-09T13:49:33Z</time>
      </trkpt>
      <trkpt lat="46.04804" lon="1.88696">
        <ele>589</ele>
        <time>2022-07-09T13:49:35Z</time>
      </trkpt>
      <trkpt lat="46.04804" lon="1.8869">
        <ele>589.8</ele>
        <time>2022-07-09T13:49:41Z</time>
      </trkpt>
      <trkpt lat="46.04804" lon="1.88687">
        <ele>589.8</ele>
        <time>2022-07-09T13:49:42Z</time>
      </trkpt>
      <trkpt lat="46.04804" lon="1.88682">
        <ele>590.8</ele>
        <time>2022-07-09T13:49:48Z</time>
      </trkpt>
      <trkpt lat="46.04806" lon="1.88672">
        <ele>591</ele>
        <time>2022-07-09T13:49:53Z</time>
      </trkpt>
      <trkpt lat="46.04806" lon="1.8867">
        <ele>591.2</ele>
        <time>2022-07-09T13:49:54Z</time>
      </trkpt>
      <trkpt lat="46.04806" lon="1.88668">
        <ele>591.4</ele>
        <time>2022-07-09T13:49:57Z</time>
      </trkpt>
      <trkpt lat="46.04804" lon="1.88662">
        <ele>591.8</ele>
        <time>2022-07-09T13:49:59Z</time>
      </trkpt>
      <trkpt lat="46.04803" lon="1.88658">
        <ele>591.8</ele>
        <time>2022-07-09T13:50:00Z</time>
      </trkpt>
      <trkpt lat="46.04802" lon="1.88642">
        <ele>593</ele>
        <time>2022-07-09T13:50:06Z</time>
      </trkpt>
      <trkpt lat="46.04803" lon="1.88637">
        <ele>593</ele>
        <time>2022-07-09T13:50:08Z</time>
      </trkpt>
      <trkpt lat="46.04803" lon="1.88636">
        <ele>593.2</ele>
        <time>2022-07-09T13:50:09Z</time>
      </trkpt>
      <trkpt lat="46.04803" lon="1.88634">
        <ele>593.4</ele>
        <time>2022-07-09T13:50:10Z</time>
      </trkpt>
      <trkpt lat="46.04803" lon="1.88631">
        <ele>593.6</ele>
        <time>2022-07-09T13:50:12Z</time>
      </trkpt>
      <trkpt lat="46.04805" lon="1.88621">
        <ele>594.2</ele>
        <time>2022-07-09T13:50:17Z</time>
      </trkpt>
      <trkpt lat="46.04806" lon="1.88617">
        <ele>594.2</ele>
        <time>2022-07-09T13:50:18Z</time>
      </trkpt>
      <trkpt lat="46.04808" lon="1.8861">
        <ele>594.4</ele>
        <time>2022-07-09T13:50:20Z</time>
      </trkpt>
      <trkpt lat="46.04811" lon="1.88602">
        <ele>594.6</ele>
        <time>2022-07-09T13:50:23Z</time>
      </trkpt>
      <trkpt lat="46.04815" lon="1.8859">
        <ele>595.2</ele>
        <time>2022-07-09T13:50:27Z</time>
      </trkpt>
      <trkpt lat="46.04817" lon="1.88583">
        <ele>595.4</ele>
        <time>2022-07-09T13:50:29Z</time>
      </trkpt>
      <trkpt lat="46.04817" lon="1.88579">
        <ele>595.6</ele>
        <time>2022-07-09T13:50:30Z</time>
      </trkpt>
      <trkpt lat="46.04814" lon="1.88567">
        <ele>596</ele>
        <time>2022-07-09T13:50:33Z</time>
      </trkpt>
      <trkpt lat="46.04812" lon="1.88563">
        <ele>596.4</ele>
        <time>2022-07-09T13:50:34Z</time>
      </trkpt>
      <trkpt lat="46.04799" lon="1.88544">
        <ele>596.8</ele>
        <time>2022-07-09T13:50:41Z</time>
      </trkpt>
      <trkpt lat="46.04782" lon="1.88532">
        <ele>596.2</ele>
        <time>2022-07-09T13:50:48Z</time>
      </trkpt>
      <trkpt lat="46.04767" lon="1.88527">
        <ele>595.8</ele>
        <time>2022-07-09T13:50:54Z</time>
      </trkpt>
      <trkpt lat="46.04758" lon="1.88521">
        <ele>595.6</ele>
        <time>2022-07-09T13:50:58Z</time>
      </trkpt>
      <trkpt lat="46.04753" lon="1.88516">
        <ele>595.4</ele>
        <time>2022-07-09T13:51:00Z</time>
      </trkpt>
      <trkpt lat="46.04732" lon="1.88495">
        <ele>595.4</ele>
        <time>2022-07-09T13:51:09Z</time>
      </trkpt>
      <trkpt lat="46.04721" lon="1.88482">
        <ele>595.6</ele>
        <time>2022-07-09T13:51:15Z</time>
      </trkpt>
      <trkpt lat="46.04715" lon="1.88468">
        <ele>596.4</ele>
        <time>2022-07-09T13:51:20Z</time>
      </trkpt>
      <trkpt lat="46.04713" lon="1.88462">
        <ele>596.6</ele>
        <time>2022-07-09T13:51:22Z</time>
      </trkpt>
      <trkpt lat="46.04705" lon="1.88449">
        <ele>597.4</ele>
        <time>2022-07-09T13:51:28Z</time>
      </trkpt>
      <trkpt lat="46.04702" lon="1.88444">
        <ele>597.6</ele>
        <time>2022-07-09T13:51:30Z</time>
      </trkpt>
      <trkpt lat="46.04696" lon="1.88432">
        <ele>598.2</ele>
        <time>2022-07-09T13:51:35Z</time>
      </trkpt>
      <trkpt lat="46.04692" lon="1.88424">
        <ele>598.8</ele>
        <time>2022-07-09T13:51:38Z</time>
      </trkpt>
      <trkpt lat="46.04684" lon="1.88412">
        <ele>599.8</ele>
        <time>2022-07-09T13:51:43Z</time>
      </trkpt>
      <trkpt lat="46.04672" lon="1.88389">
        <ele>601</ele>
        <time>2022-07-09T13:51:51Z</time>
      </trkpt>
      <trkpt lat="46.0467" lon="1.88385">
        <ele>601.2</ele>
        <time>2022-07-09T13:51:52Z</time>
      </trkpt>
      <trkpt lat="46.04657" lon="1.8836">
        <ele>601.4</ele>
        <time>2022-07-09T13:51:58Z</time>
      </trkpt>
      <trkpt lat="46.04655" lon="1.88355">
        <ele>601.4</ele>
        <time>2022-07-09T13:51:59Z</time>
      </trkpt>
      <trkpt lat="46.04647" lon="1.88337">
        <ele>601.4</ele>
        <time>2022-07-09T13:52:02Z</time>
      </trkpt>
      <trkpt lat="46.04645" lon="1.88331">
        <ele>601.2</ele>
        <time>2022-07-09T13:52:03Z</time>
      </trkpt>
      <trkpt lat="46.04641" lon="1.88318">
        <ele>601.2</ele>
        <time>2022-07-09T13:52:05Z</time>
      </trkpt>
      <trkpt lat="46.04635" lon="1.88297">
        <ele>601</ele>
        <time>2022-07-09T13:52:08Z</time>
      </trkpt>
      <trkpt lat="46.04634" lon="1.88277">
        <ele>600.8</ele>
        <time>2022-07-09T13:52:11Z</time>
      </trkpt>
      <trkpt lat="46.04633" lon="1.88262">
        <ele>600.6</ele>
        <time>2022-07-09T13:52:14Z</time>
      </trkpt>
      <trkpt lat="46.04633" lon="1.88242">
        <ele>600.6</ele>
        <time>2022-07-09T13:52:19Z</time>
      </trkpt>
      <trkpt lat="46.04633" lon="1.88217">
        <ele>600.8</ele>
        <time>2022-07-09T13:52:26Z</time>
      </trkpt>
      <trkpt lat="46.0463" lon="1.88183">
        <ele>602.2</ele>
        <time>2022-07-09T13:52:35Z</time>
      </trkpt>
      <trkpt lat="46.04628" lon="1.88162">
        <ele>603.4</ele>
        <time>2022-07-09T13:52:41Z</time>
      </trkpt>
      <trkpt lat="46.04622" lon="1.88147">
        <ele>604</ele>
        <time>2022-07-09T13:52:47Z</time>
      </trkpt>
      <trkpt lat="46.04614" lon="1.88146">
        <ele>604.4</ele>
        <time>2022-07-09T13:52:51Z</time>
      </trkpt>
      <trkpt lat="46.04611" lon="1.88147">
        <ele>604.6</ele>
        <time>2022-07-09T13:52:53Z</time>
      </trkpt>
      <trkpt lat="46.04609" lon="1.88147">
        <ele>604.8</ele>
        <time>2022-07-09T13:52:55Z</time>
      </trkpt>
      <trkpt lat="46.04604" lon="1.88145">
        <ele>605.2</ele>
        <time>2022-07-09T13:52:58Z</time>
      </trkpt>
      <trkpt lat="46.04601" lon="1.88145">
        <ele>605.2</ele>
        <time>2022-07-09T13:53:00Z</time>
      </trkpt>
      <trkpt lat="46.04599" lon="1.88145">
        <ele>605.4</ele>
        <time>2022-07-09T13:53:01Z</time>
      </trkpt>
      <trkpt lat="46.04593" lon="1.88146">
        <ele>605.6</ele>
        <time>2022-07-09T13:53:04Z</time>
      </trkpt>
      <trkpt lat="46.04578" lon="1.8815">
        <ele>605.6</ele>
        <time>2022-07-09T13:53:11Z</time>
      </trkpt>
      <trkpt lat="46.04564" lon="1.88159">
        <ele>605.6</ele>
        <time>2022-07-09T13:53:16Z</time>
      </trkpt>
      <trkpt lat="46.04557" lon="1.88158">
        <ele>605.2</ele>
        <time>2022-07-09T13:53:20Z</time>
      </trkpt>
      <trkpt lat="46.0455" lon="1.88157">
        <ele>604.8</ele>
        <time>2022-07-09T13:53:23Z</time>
      </trkpt>
      <trkpt lat="46.04545" lon="1.88155">
        <ele>604.8</ele>
        <time>2022-07-09T13:53:26Z</time>
      </trkpt>
      <trkpt lat="46.0454" lon="1.88149">
        <ele>604.8</ele>
        <time>2022-07-09T13:53:29Z</time>
      </trkpt>
      <trkpt lat="46.04538" lon="1.88149">
        <ele>604.8</ele>
        <time>2022-07-09T13:53:30Z</time>
      </trkpt>
      <trkpt lat="46.04525" lon="1.88145">
        <ele>605</ele>
        <time>2022-07-09T13:53:35Z</time>
      </trkpt>
      <trkpt lat="46.04509" lon="1.88145">
        <ele>605.6</ele>
        <time>2022-07-09T13:53:40Z</time>
      </trkpt>
      <trkpt lat="46.04506" lon="1.88145">
        <ele>606</ele>
        <time>2022-07-09T13:53:42Z</time>
      </trkpt>
      <trkpt lat="46.04505" lon="1.88145">
        <ele>606.2</ele>
        <time>2022-07-09T13:53:46Z</time>
      </trkpt>
      <trkpt lat="46.04503" lon="1.88145">
        <ele>606.4</ele>
        <time>2022-07-09T13:53:48Z</time>
      </trkpt>
      <trkpt lat="46.04502" lon="1.88145">
        <ele>606.6</ele>
        <time>2022-07-09T13:53:49Z</time>
      </trkpt>
      <trkpt lat="46.04502" lon="1.88145">
        <ele>606.8</ele>
        <time>2022-07-09T13:53:50Z</time>
      </trkpt>
      <trkpt lat="46.04495" lon="1.88143">
        <ele>607.8</ele>
        <time>2022-07-09T13:53:58Z</time>
      </trkpt>
      <trkpt lat="46.04495" lon="1.88143">
        <ele>608.2</ele>
        <time>2022-07-09T13:54:00Z</time>
      </trkpt>
      <trkpt lat="46.04491" lon="1.88142">
        <ele>609.4</ele>
        <time>2022-07-09T13:54:22Z</time>
      </trkpt>
      <trkpt lat="46.04489" lon="1.88141">
        <ele>609.4</ele>
        <time>2022-07-09T13:54:25Z</time>
      </trkpt>
      <trkpt lat="46.04483" lon="1.88139">
        <ele>610.2</ele>
        <time>2022-07-09T13:54:31Z</time>
      </trkpt>
      <trkpt lat="46.0448" lon="1.88138">
        <ele>610.4</ele>
        <time>2022-07-09T13:54:33Z</time>
      </trkpt>
      <trkpt lat="46.04471" lon="1.88133">
        <ele>611.4</ele>
        <time>2022-07-09T13:54:38Z</time>
      </trkpt>
      <trkpt lat="46.04471" lon="1.88133">
        <ele>611.6</ele>
        <time>2022-07-09T13:54:39Z</time>
      </trkpt>
      <trkpt lat="46.04465" lon="1.88131">
        <ele>612.6</ele>
        <time>2022-07-09T13:54:44Z</time>
      </trkpt>
      <trkpt lat="46.04464" lon="1.8813">
        <ele>612.8</ele>
        <time>2022-07-09T13:54:45Z</time>
      </trkpt>
      <trkpt lat="46.04453" lon="1.88127">
        <ele>613.6</ele>
        <time>2022-07-09T13:54:52Z</time>
      </trkpt>
      <trkpt lat="46.0445" lon="1.88127">
        <ele>613.6</ele>
        <time>2022-07-09T13:54:53Z</time>
      </trkpt>
      <trkpt lat="46.04447" lon="1.88127">
        <ele>613.8</ele>
        <time>2022-07-09T13:54:54Z</time>
      </trkpt>
      <trkpt lat="46.04432" lon="1.88121">
        <ele>614.2</ele>
        <time>2022-07-09T13:55:00Z</time>
      </trkpt>
      <trkpt lat="46.04422" lon="1.88112">
        <ele>614</ele>
        <time>2022-07-09T13:55:05Z</time>
      </trkpt>
      <trkpt lat="46.04421" lon="1.88111">
        <ele>614</ele>
        <time>2022-07-09T13:55:06Z</time>
      </trkpt>
      <trkpt lat="46.04419" lon="1.8811">
        <ele>613.6</ele>
        <time>2022-07-09T13:55:08Z</time>
      </trkpt>
      <trkpt lat="46.04411" lon="1.88111">
        <ele>613.2</ele>
        <time>2022-07-09T13:55:11Z</time>
      </trkpt>
      <trkpt lat="46.04399" lon="1.88115">
        <ele>612.6</ele>
        <time>2022-07-09T13:55:14Z</time>
      </trkpt>
      <trkpt lat="46.04396" lon="1.88115">
        <ele>612.6</ele>
        <time>2022-07-09T13:55:15Z</time>
      </trkpt>
      <trkpt lat="46.04378" lon="1.88112">
        <ele>611.4</ele>
        <time>2022-07-09T13:55:20Z</time>
      </trkpt>
      <trkpt lat="46.04378" lon="1.88112">
        <ele>610.4</ele>
        <time>2022-07-09T13:55:23Z</time>
      </trkpt>
      <trkpt lat="46.04374" lon="1.88114">
        <ele>609.6</ele>
        <time>2022-07-09T13:56:56Z</time>
      </trkpt>
      <trkpt lat="46.04359" lon="1.88119">
        <ele>609.4</ele>
        <time>2022-07-09T13:57:01Z</time>
      </trkpt>
      <trkpt lat="46.0434" lon="1.88126">
        <ele>608.4</ele>
        <time>2022-07-09T13:57:06Z</time>
      </trkpt>
      <trkpt lat="46.04334" lon="1.88125">
        <ele>608.2</ele>
        <time>2022-07-09T13:57:07Z</time>
      </trkpt>
      <trkpt lat="46.0431" lon="1.88126">
        <ele>607.6</ele>
        <time>2022-07-09T13:57:11Z</time>
      </trkpt>
      <trkpt lat="46.04305" lon="1.88127">
        <ele>607.2</ele>
        <time>2022-07-09T13:57:12Z</time>
      </trkpt>
      <trkpt lat="46.04297" lon="1.88131">
        <ele>606.2</ele>
        <time>2022-07-09T13:57:14Z</time>
      </trkpt>
      <trkpt lat="46.04294" lon="1.88131">
        <ele>605.8</ele>
        <time>2022-07-09T13:57:15Z</time>
      </trkpt>
      <trkpt lat="46.04284" lon="1.88127">
        <ele>604.6</ele>
        <time>2022-07-09T13:57:18Z</time>
      </trkpt>
      <trkpt lat="46.0428" lon="1.88123">
        <ele>604</ele>
        <time>2022-07-09T13:57:20Z</time>
      </trkpt>
      <trkpt lat="46.04274" lon="1.88117">
        <ele>603</ele>
        <time>2022-07-09T13:57:23Z</time>
      </trkpt>
      <trkpt lat="46.04266" lon="1.8811">
        <ele>602.2</ele>
        <time>2022-07-09T13:57:26Z</time>
      </trkpt>
      <trkpt lat="46.04258" lon="1.88107">
        <ele>601.8</ele>
        <time>2022-07-09T13:57:28Z</time>
      </trkpt>
      <trkpt lat="46.04245" lon="1.88106">
        <ele>601</ele>
        <time>2022-07-09T13:57:31Z</time>
      </trkpt>
      <trkpt lat="46.04242" lon="1.88105">
        <ele>600.6</ele>
        <time>2022-07-09T13:57:32Z</time>
      </trkpt>
      <trkpt lat="46.04238" lon="1.88103">
        <ele>600.4</ele>
        <time>2022-07-09T13:57:33Z</time>
      </trkpt>
      <trkpt lat="46.04232" lon="1.88099">
        <ele>599.6</ele>
        <time>2022-07-09T13:57:35Z</time>
      </trkpt>
      <trkpt lat="46.04229" lon="1.88096">
        <ele>599.4</ele>
        <time>2022-07-09T13:57:37Z</time>
      </trkpt>
      <trkpt lat="46.04226" lon="1.88088">
        <ele>599</ele>
        <time>2022-07-09T13:57:39Z</time>
      </trkpt>
      <trkpt lat="46.04223" lon="1.88072">
        <ele>598.2</ele>
        <time>2022-07-09T13:57:44Z</time>
      </trkpt>
      <trkpt lat="46.04219" lon="1.88061">
        <ele>596.8</ele>
        <time>2022-07-09T13:57:47Z</time>
      </trkpt>
      <trkpt lat="46.04218" lon="1.88058">
        <ele>596</ele>
        <time>2022-07-09T13:57:48Z</time>
      </trkpt>
      <trkpt lat="46.04215" lon="1.88056">
        <ele>595.8</ele>
        <time>2022-07-09T13:57:49Z</time>
      </trkpt>
      <trkpt lat="46.04205" lon="1.88048">
        <ele>594.2</ele>
        <time>2022-07-09T13:57:53Z</time>
      </trkpt>
      <trkpt lat="46.04202" lon="1.88046">
        <ele>594</ele>
        <time>2022-07-09T13:57:54Z</time>
      </trkpt>
      <trkpt lat="46.04193" lon="1.88037">
        <ele>592.8</ele>
        <time>2022-07-09T13:57:57Z</time>
      </trkpt>
      <trkpt lat="46.04181" lon="1.88029">
        <ele>591.8</ele>
        <time>2022-07-09T13:58:00Z</time>
      </trkpt>
      <trkpt lat="46.04161" lon="1.88015">
        <ele>590.6</ele>
        <time>2022-07-09T13:58:05Z</time>
      </trkpt>
      <trkpt lat="46.0416" lon="1.88013">
        <ele>590</ele>
        <time>2022-07-09T13:58:06Z</time>
      </trkpt>
      <trkpt lat="46.04156" lon="1.88002">
        <ele>589.4</ele>
        <time>2022-07-09T13:58:08Z</time>
      </trkpt>
      <trkpt lat="46.04148" lon="1.87983">
        <ele>587.6</ele>
        <time>2022-07-09T13:58:11Z</time>
      </trkpt>
      <trkpt lat="46.04146" lon="1.87981">
        <ele>586.6</ele>
        <time>2022-07-09T13:58:13Z</time>
      </trkpt>
      <trkpt lat="46.04144" lon="1.8798">
        <ele>586.2</ele>
        <time>2022-07-09T13:58:14Z</time>
      </trkpt>
      <trkpt lat="46.04141" lon="1.87978">
        <ele>585.8</ele>
        <time>2022-07-09T13:58:15Z</time>
      </trkpt>
      <trkpt lat="46.04133" lon="1.8797">
        <ele>585.2</ele>
        <time>2022-07-09T13:58:17Z</time>
      </trkpt>
      <trkpt lat="46.04131" lon="1.87967">
        <ele>585</ele>
        <time>2022-07-09T13:58:18Z</time>
      </trkpt>
      <trkpt lat="46.04115" lon="1.87957">
        <ele>584.2</ele>
        <time>2022-07-09T13:58:21Z</time>
      </trkpt>
      <trkpt lat="46.04108" lon="1.87954">
        <ele>584</ele>
        <time>2022-07-09T13:58:22Z</time>
      </trkpt>
      <trkpt lat="46.04103" lon="1.87951">
        <ele>583.6</ele>
        <time>2022-07-09T13:58:23Z</time>
      </trkpt>
      <trkpt lat="46.0409" lon="1.87941">
        <ele>583.2</ele>
        <time>2022-07-09T13:58:26Z</time>
      </trkpt>
      <trkpt lat="46.04079" lon="1.8793">
        <ele>582.4</ele>
        <time>2022-07-09T13:58:29Z</time>
      </trkpt>
      <trkpt lat="46.04076" lon="1.87927">
        <ele>582</ele>
        <time>2022-07-09T13:58:30Z</time>
      </trkpt>
      <trkpt lat="46.04073" lon="1.87925">
        <ele>581.6</ele>
        <time>2022-07-09T13:58:31Z</time>
      </trkpt>
      <trkpt lat="46.0407" lon="1.87923">
        <ele>581.4</ele>
        <time>2022-07-09T13:58:32Z</time>
      </trkpt>
      <trkpt lat="46.04066" lon="1.87921">
        <ele>581.2</ele>
        <time>2022-07-09T13:58:33Z</time>
      </trkpt>
      <trkpt lat="46.0406" lon="1.87911">
        <ele>580</ele>
        <time>2022-07-09T13:58:36Z</time>
      </trkpt>
      <trkpt lat="46.04059" lon="1.87909">
        <ele>579.4</ele>
        <time>2022-07-09T13:58:37Z</time>
      </trkpt>
      <trkpt lat="46.04054" lon="1.87904">
        <ele>578.4</ele>
        <time>2022-07-09T13:58:39Z</time>
      </trkpt>
      <trkpt lat="46.0405" lon="1.87899">
        <ele>577.8</ele>
        <time>2022-07-09T13:58:41Z</time>
      </trkpt>
      <trkpt lat="46.04048" lon="1.87897">
        <ele>577.8</ele>
        <time>2022-07-09T13:58:42Z</time>
      </trkpt>
      <trkpt lat="46.04046" lon="1.87894">
        <ele>577.6</ele>
        <time>2022-07-09T13:58:43Z</time>
      </trkpt>
      <trkpt lat="46.04046" lon="1.87889">
        <ele>577.2</ele>
        <time>2022-07-09T13:58:45Z</time>
      </trkpt>
      <trkpt lat="46.04044" lon="1.87879">
        <ele>577</ele>
        <time>2022-07-09T13:58:48Z</time>
      </trkpt>
      <trkpt lat="46.04044" lon="1.87873">
        <ele>576.8</ele>
        <time>2022-07-09T13:58:50Z</time>
      </trkpt>
      <trkpt lat="46.04044" lon="1.8787">
        <ele>576.8</ele>
        <time>2022-07-09T13:58:51Z</time>
      </trkpt>
      <trkpt lat="46.04044" lon="1.87862">
        <ele>576.6</ele>
        <time>2022-07-09T13:58:53Z</time>
      </trkpt>
      <trkpt lat="46.04043" lon="1.87852">
        <ele>576.6</ele>
        <time>2022-07-09T13:58:56Z</time>
      </trkpt>
      <trkpt lat="46.04042" lon="1.8785">
        <ele>576.6</ele>
        <time>2022-07-09T13:58:57Z</time>
      </trkpt>
      <trkpt lat="46.0404" lon="1.87846">
        <ele>576.6</ele>
        <time>2022-07-09T13:58:59Z</time>
      </trkpt>
      <trkpt lat="46.04041" lon="1.87841">
        <ele>576.8</ele>
        <time>2022-07-09T13:59:01Z</time>
      </trkpt>
      <trkpt lat="46.04037" lon="1.87835">
        <ele>576.8</ele>
        <time>2022-07-09T13:59:03Z</time>
      </trkpt>
      <trkpt lat="46.04038" lon="1.87831">
        <ele>576.8</ele>
        <time>2022-07-09T13:59:05Z</time>
      </trkpt>
      <trkpt lat="46.0404" lon="1.8782">
        <ele>577</ele>
        <time>2022-07-09T13:59:09Z</time>
      </trkpt>
      <trkpt lat="46.04043" lon="1.87813">
        <ele>577</ele>
        <time>2022-07-09T13:59:11Z</time>
      </trkpt>
      <trkpt lat="46.04044" lon="1.87809">
        <ele>577.2</ele>
        <time>2022-07-09T13:59:12Z</time>
      </trkpt>
      <trkpt lat="46.04043" lon="1.87803">
        <ele>577.2</ele>
        <time>2022-07-09T13:59:14Z</time>
      </trkpt>
      <trkpt lat="46.04041" lon="1.878">
        <ele>577.2</ele>
        <time>2022-07-09T13:59:15Z</time>
      </trkpt>
      <trkpt lat="46.04038" lon="1.87795">
        <ele>577.4</ele>
        <time>2022-07-09T13:59:17Z</time>
      </trkpt>
      <trkpt lat="46.04034" lon="1.87789">
        <ele>577.8</ele>
        <time>2022-07-09T13:59:21Z</time>
      </trkpt>
      <trkpt lat="46.0403" lon="1.87785">
        <ele>578</ele>
        <time>2022-07-09T13:59:23Z</time>
      </trkpt>
      <trkpt lat="46.04034" lon="1.87779">
        <ele>578.2</ele>
        <time>2022-07-09T13:59:25Z</time>
      </trkpt>
      <trkpt lat="46.04033" lon="1.87775">
        <ele>578.4</ele>
        <time>2022-07-09T13:59:26Z</time>
      </trkpt>
      <trkpt lat="46.0403" lon="1.87767">
        <ele>578.4</ele>
        <time>2022-07-09T13:59:28Z</time>
      </trkpt>
      <trkpt lat="46.0403" lon="1.87765">
        <ele>578.6</ele>
        <time>2022-07-09T13:59:30Z</time>
      </trkpt>
      <trkpt lat="46.04031" lon="1.87761">
        <ele>579</ele>
        <time>2022-07-09T13:59:34Z</time>
      </trkpt>
      <trkpt lat="46.04031" lon="1.87756">
        <ele>579</ele>
        <time>2022-07-09T13:59:36Z</time>
      </trkpt>
      <trkpt lat="46.04031" lon="1.87747">
        <ele>579.2</ele>
        <time>2022-07-09T13:59:38Z</time>
      </trkpt>
      <trkpt lat="46.04027" lon="1.87734">
        <ele>579</ele>
        <time>2022-07-09T13:59:41Z</time>
      </trkpt>
      <trkpt lat="46.04027" lon="1.87734">
        <ele>579</ele>
        <time>2022-07-09T13:59:44Z</time>
      </trkpt>
      <trkpt lat="46.04026" lon="1.8773">
        <ele>578.4</ele>
        <time>2022-07-09T14:03:06Z</time>
      </trkpt>
      <trkpt lat="46.04026" lon="1.8773">
        <ele>578.2</ele>
        <time>2022-07-09T14:03:08Z</time>
      </trkpt>
      <trkpt lat="46.04028" lon="1.87729">
        <ele>577.8</ele>
        <time>2022-07-09T14:08:09Z</time>
      </trkpt>
      <trkpt lat="46.04028" lon="1.87729">
        <ele>577.8</ele>
        <time>2022-07-09T14:08:11Z</time>
      </trkpt>
      <trkpt lat="46.04027" lon="1.87725">
        <ele>577.8</ele>
        <time>2022-07-09T14:08:16Z</time>
      </trkpt>
      <trkpt lat="46.04026" lon="1.87719">
        <ele>577.8</ele>
        <time>2022-07-09T14:08:19Z</time>
      </trkpt>
      <trkpt lat="46.04022" lon="1.8771">
        <ele>577.8</ele>
        <time>2022-07-09T14:08:25Z</time>
      </trkpt>
      <trkpt lat="46.04019" lon="1.87701">
        <ele>577.8</ele>
        <time>2022-07-09T14:08:28Z</time>
      </trkpt>
      <trkpt lat="46.04017" lon="1.87695">
        <ele>577.8</ele>
        <time>2022-07-09T14:08:30Z</time>
      </trkpt>
      <trkpt lat="46.04016" lon="1.87692">
        <ele>577.8</ele>
        <time>2022-07-09T14:08:31Z</time>
      </trkpt>
      <trkpt lat="46.04015" lon="1.8769">
        <ele>577.8</ele>
        <time>2022-07-09T14:08:34Z</time>
      </trkpt>
      <trkpt lat="46.04015" lon="1.8768">
        <ele>577.6</ele>
        <time>2022-07-09T14:08:37Z</time>
      </trkpt>
      <trkpt lat="46.0402" lon="1.87659">
        <ele>577</ele>
        <time>2022-07-09T14:08:42Z</time>
      </trkpt>
      <trkpt lat="46.04025" lon="1.87645">
        <ele>576.8</ele>
        <time>2022-07-09T14:08:44Z</time>
      </trkpt>
      <trkpt lat="46.04031" lon="1.87624">
        <ele>576</ele>
        <time>2022-07-09T14:08:47Z</time>
      </trkpt>
      <trkpt lat="46.04033" lon="1.8761">
        <ele>575.8</ele>
        <time>2022-07-09T14:08:48Z</time>
      </trkpt>
      <trkpt lat="46.04034" lon="1.876">
        <ele>575</ele>
        <time>2022-07-09T14:08:50Z</time>
      </trkpt>
      <trkpt lat="46.04034" lon="1.87595">
        <ele>574.6</ele>
        <time>2022-07-09T14:08:51Z</time>
      </trkpt>
      <trkpt lat="46.04035" lon="1.8758">
        <ele>573.8</ele>
        <time>2022-07-09T14:08:53Z</time>
      </trkpt>
      <trkpt lat="46.04035" lon="1.87574">
        <ele>573.4</ele>
        <time>2022-07-09T14:08:54Z</time>
      </trkpt>
      <trkpt lat="46.04035" lon="1.87569">
        <ele>573.2</ele>
        <time>2022-07-09T14:08:55Z</time>
      </trkpt>
      <trkpt lat="46.0404" lon="1.87545">
        <ele>572</ele>
        <time>2022-07-09T14:08:58Z</time>
      </trkpt>
      <trkpt lat="46.04042" lon="1.87529">
        <ele>571.6</ele>
        <time>2022-07-09T14:09:00Z</time>
      </trkpt>
      <trkpt lat="46.04043" lon="1.87525">
        <ele>571.4</ele>
        <time>2022-07-09T14:09:01Z</time>
      </trkpt>
      <trkpt lat="46.04044" lon="1.87517">
        <ele>571.2</ele>
        <time>2022-07-09T14:09:03Z</time>
      </trkpt>
      <trkpt lat="46.04045" lon="1.87512">
        <ele>571.2</ele>
        <time>2022-07-09T14:09:04Z</time>
      </trkpt>
      <trkpt lat="46.0405" lon="1.87491">
        <ele>569.8</ele>
        <time>2022-07-09T14:09:07Z</time>
      </trkpt>
      <trkpt lat="46.04055" lon="1.87488">
        <ele>569.2</ele>
        <time>2022-07-09T14:09:08Z</time>
      </trkpt>
      <trkpt lat="46.04056" lon="1.87485">
        <ele>568.2</ele>
        <time>2022-07-09T14:09:10Z</time>
      </trkpt>
      <trkpt lat="46.04056" lon="1.87484">
        <ele>567.2</ele>
        <time>2022-07-09T14:09:12Z</time>
      </trkpt>
      <trkpt lat="46.04057" lon="1.87483">
        <ele>566.4</ele>
        <time>2022-07-09T14:09:14Z</time>
      </trkpt>
      <trkpt lat="46.04058" lon="1.87481">
        <ele>566</ele>
        <time>2022-07-09T14:09:15Z</time>
      </trkpt>
      <trkpt lat="46.0406" lon="1.87478">
        <ele>565.8</ele>
        <time>2022-07-09T14:09:16Z</time>
      </trkpt>
      <trkpt lat="46.04064" lon="1.87471">
        <ele>565</ele>
        <time>2022-07-09T14:09:19Z</time>
      </trkpt>
      <trkpt lat="46.04063" lon="1.87471">
        <ele>564.8</ele>
        <time>2022-07-09T14:09:20Z</time>
      </trkpt>
      <trkpt lat="46.04064" lon="1.8747">
        <ele>564.2</ele>
        <time>2022-07-09T14:09:21Z</time>
      </trkpt>
      <trkpt lat="46.04067" lon="1.87466">
        <ele>563.6</ele>
        <time>2022-07-09T14:09:23Z</time>
      </trkpt>
      <trkpt lat="46.0407" lon="1.87463">
        <ele>562.8</ele>
        <time>2022-07-09T14:09:24Z</time>
      </trkpt>
      <trkpt lat="46.04072" lon="1.8746">
        <ele>562.6</ele>
        <time>2022-07-09T14:09:25Z</time>
      </trkpt>
      <trkpt lat="46.04073" lon="1.87458">
        <ele>562</ele>
        <time>2022-07-09T14:09:26Z</time>
      </trkpt>
      <trkpt lat="46.04077" lon="1.87451">
        <ele>561</ele>
        <time>2022-07-09T14:09:28Z</time>
      </trkpt>
      <trkpt lat="46.04082" lon="1.87446">
        <ele>559.6</ele>
        <time>2022-07-09T14:09:31Z</time>
      </trkpt>
      <trkpt lat="46.04083" lon="1.87444">
        <ele>559.2</ele>
        <time>2022-07-09T14:09:32Z</time>
      </trkpt>
      <trkpt lat="46.04083" lon="1.87444">
        <ele>558.6</ele>
        <time>2022-07-09T14:09:33Z</time>
      </trkpt>
      <trkpt lat="46.04084" lon="1.87442">
        <ele>558.6</ele>
        <time>2022-07-09T14:09:34Z</time>
      </trkpt>
      <trkpt lat="46.04088" lon="1.87436">
        <ele>558</ele>
        <time>2022-07-09T14:09:36Z</time>
      </trkpt>
      <trkpt lat="46.04089" lon="1.87434">
        <ele>557.4</ele>
        <time>2022-07-09T14:09:37Z</time>
      </trkpt>
      <trkpt lat="46.04091" lon="1.87425">
        <ele>556.4</ele>
        <time>2022-07-09T14:09:40Z</time>
      </trkpt>
      <trkpt lat="46.0409" lon="1.87415">
        <ele>556.2</ele>
        <time>2022-07-09T14:09:43Z</time>
      </trkpt>
      <trkpt lat="46.0409" lon="1.87403">
        <ele>555.2</ele>
        <time>2022-07-09T14:09:46Z</time>
      </trkpt>
      <trkpt lat="46.04089" lon="1.874">
        <ele>554.8</ele>
        <time>2022-07-09T14:09:47Z</time>
      </trkpt>
      <trkpt lat="46.0409" lon="1.87394">
        <ele>554</ele>
        <time>2022-07-09T14:09:49Z</time>
      </trkpt>
      <trkpt lat="46.04094" lon="1.87385">
        <ele>553.6</ele>
        <time>2022-07-09T14:09:51Z</time>
      </trkpt>
      <trkpt lat="46.04095" lon="1.87376">
        <ele>553.4</ele>
        <time>2022-07-09T14:09:53Z</time>
      </trkpt>
      <trkpt lat="46.04096" lon="1.8737">
        <ele>553.4</ele>
        <time>2022-07-09T14:09:55Z</time>
      </trkpt>
      <trkpt lat="46.04095" lon="1.87363">
        <ele>553.6</ele>
        <time>2022-07-09T14:09:57Z</time>
      </trkpt>
      <trkpt lat="46.04094" lon="1.8735">
        <ele>553.6</ele>
        <time>2022-07-09T14:10:00Z</time>
      </trkpt>
      <trkpt lat="46.04098" lon="1.87337">
        <ele>553.8</ele>
        <time>2022-07-09T14:10:03Z</time>
      </trkpt>
      <trkpt lat="46.04109" lon="1.87307">
        <ele>552.6</ele>
        <time>2022-07-09T14:10:10Z</time>
      </trkpt>
      <trkpt lat="46.0411" lon="1.873">
        <ele>552</ele>
        <time>2022-07-09T14:10:12Z</time>
      </trkpt>
      <trkpt lat="46.04114" lon="1.87292">
        <ele>551.4</ele>
        <time>2022-07-09T14:10:14Z</time>
      </trkpt>
      <trkpt lat="46.04121" lon="1.87285">
        <ele>551</ele>
        <time>2022-07-09T14:10:16Z</time>
      </trkpt>
      <trkpt lat="46.04124" lon="1.87281">
        <ele>550.4</ele>
        <time>2022-07-09T14:10:17Z</time>
      </trkpt>
      <trkpt lat="46.04123" lon="1.87277">
        <ele>550.6</ele>
        <time>2022-07-09T14:10:18Z</time>
      </trkpt>
      <trkpt lat="46.04129" lon="1.87272">
        <ele>550.4</ele>
        <time>2022-07-09T14:10:19Z</time>
      </trkpt>
      <trkpt lat="46.04132" lon="1.87266">
        <ele>550.4</ele>
        <time>2022-07-09T14:10:20Z</time>
      </trkpt>
      <trkpt lat="46.04143" lon="1.8724">
        <ele>549.8</ele>
        <time>2022-07-09T14:10:26Z</time>
      </trkpt>
      <trkpt lat="46.04143" lon="1.87234">
        <ele>549.4</ele>
        <time>2022-07-09T14:10:29Z</time>
      </trkpt>
      <trkpt lat="46.04143" lon="1.87234">
        <ele>549.2</ele>
        <time>2022-07-09T14:10:31Z</time>
      </trkpt>
      <trkpt lat="46.04143" lon="1.87234">
        <ele>549</ele>
        <time>2022-07-09T14:10:34Z</time>
      </trkpt>
      <trkpt lat="46.04142" lon="1.87235">
        <ele>549</ele>
        <time>2022-07-09T14:10:36Z</time>
      </trkpt>
      <trkpt lat="46.04143" lon="1.87236">
        <ele>549</ele>
        <time>2022-07-09T14:10:37Z</time>
      </trkpt>
      <trkpt lat="46.04141" lon="1.87239">
        <ele>548.8</ele>
        <time>2022-07-09T14:10:40Z</time>
      </trkpt>
      <trkpt lat="46.0414" lon="1.87241">
        <ele>548.8</ele>
        <time>2022-07-09T14:10:42Z</time>
      </trkpt>
      <trkpt lat="46.0414" lon="1.87243">
        <ele>548.8</ele>
        <time>2022-07-09T14:10:43Z</time>
      </trkpt>
      <trkpt lat="46.0414" lon="1.87245">
        <ele>549</ele>
        <time>2022-07-09T14:10:45Z</time>
      </trkpt>
      <trkpt lat="46.04139" lon="1.87246">
        <ele>549</ele>
        <time>2022-07-09T14:10:46Z</time>
      </trkpt>
      <trkpt lat="46.04136" lon="1.87248">
        <ele>549</ele>
        <time>2022-07-09T14:10:52Z</time>
      </trkpt>
      <trkpt lat="46.04134" lon="1.87249">
        <ele>549</ele>
        <time>2022-07-09T14:10:53Z</time>
      </trkpt>
      <trkpt lat="46.04133" lon="1.8725">
        <ele>549.2</ele>
        <time>2022-07-09T14:10:54Z</time>
      </trkpt>
      <trkpt lat="46.04127" lon="1.87251">
        <ele>549.6</ele>
        <time>2022-07-09T14:10:59Z</time>
      </trkpt>
      <trkpt lat="46.04127" lon="1.8725">
        <ele>550</ele>
        <time>2022-07-09T14:11:01Z</time>
      </trkpt>
      <trkpt lat="46.04128" lon="1.8725">
        <ele>550.4</ele>
        <time>2022-07-09T14:11:06Z</time>
      </trkpt>
      <trkpt lat="46.04127" lon="1.87247">
        <ele>550.8</ele>
        <time>2022-07-09T14:11:08Z</time>
      </trkpt>
      <trkpt lat="46.04124" lon="1.87245">
        <ele>551.6</ele>
        <time>2022-07-09T14:11:14Z</time>
      </trkpt>
      <trkpt lat="46.04119" lon="1.87242">
        <ele>553.2</ele>
        <time>2022-07-09T14:11:24Z</time>
      </trkpt>
      <trkpt lat="46.04118" lon="1.87242">
        <ele>553.8</ele>
        <time>2022-07-09T14:11:26Z</time>
      </trkpt>
      <trkpt lat="46.04106" lon="1.87233">
        <ele>557.6</ele>
        <time>2022-07-09T14:11:57Z</time>
      </trkpt>
      <trkpt lat="46.04105" lon="1.87231">
        <ele>557.8</ele>
        <time>2022-07-09T14:11:58Z</time>
      </trkpt>
      <trkpt lat="46.041" lon="1.87226">
        <ele>558.2</ele>
        <time>2022-07-09T14:12:03Z</time>
      </trkpt>
      <trkpt lat="46.04095" lon="1.8722">
        <ele>558.4</ele>
        <time>2022-07-09T14:12:08Z</time>
      </trkpt>
      <trkpt lat="46.04087" lon="1.87215">
        <ele>558.4</ele>
        <time>2022-07-09T14:12:13Z</time>
      </trkpt>
      <trkpt lat="46.04084" lon="1.87214">
        <ele>558.8</ele>
        <time>2022-07-09T14:12:17Z</time>
      </trkpt>
      <trkpt lat="46.04079" lon="1.87209">
        <ele>559</ele>
        <time>2022-07-09T14:12:20Z</time>
      </trkpt>
      <trkpt lat="46.04077" lon="1.87207">
        <ele>559.2</ele>
        <time>2022-07-09T14:12:21Z</time>
      </trkpt>
      <trkpt lat="46.04075" lon="1.87205">
        <ele>560</ele>
        <time>2022-07-09T14:12:26Z</time>
      </trkpt>
      <trkpt lat="46.04073" lon="1.87202">
        <ele>560.4</ele>
        <time>2022-07-09T14:12:27Z</time>
      </trkpt>
      <trkpt lat="46.04072" lon="1.872">
        <ele>561.4</ele>
        <time>2022-07-09T14:12:32Z</time>
      </trkpt>
      <trkpt lat="46.04066" lon="1.8719">
        <ele>561.8</ele>
        <time>2022-07-09T14:12:40Z</time>
      </trkpt>
      <trkpt lat="46.04064" lon="1.87186">
        <ele>562</ele>
        <time>2022-07-09T14:12:43Z</time>
      </trkpt>
      <trkpt lat="46.0406" lon="1.87179">
        <ele>562</ele>
        <time>2022-07-09T14:12:45Z</time>
      </trkpt>
      <trkpt lat="46.04056" lon="1.87174">
        <ele>562</ele>
        <time>2022-07-09T14:12:46Z</time>
      </trkpt>
      <trkpt lat="46.04048" lon="1.87161">
        <ele>562</ele>
        <time>2022-07-09T14:12:48Z</time>
      </trkpt>
      <trkpt lat="46.04043" lon="1.87149">
        <ele>561.8</ele>
        <time>2022-07-09T14:12:50Z</time>
      </trkpt>
      <trkpt lat="46.04038" lon="1.87131">
        <ele>561.6</ele>
        <time>2022-07-09T14:12:52Z</time>
      </trkpt>
      <trkpt lat="46.04036" lon="1.87128">
        <ele>561.4</ele>
        <time>2022-07-09T14:12:54Z</time>
      </trkpt>
      <trkpt lat="46.04036" lon="1.87128">
        <ele>560.8</ele>
        <time>2022-07-09T14:12:56Z</time>
      </trkpt>
      <trkpt lat="46.03975" lon="1.87122">
        <ele>574.6</ele>
        <time>2022-07-09T14:14:45Z</time>
      </trkpt>
      <trkpt lat="46.03974" lon="1.87122">
        <ele>574.8</ele>
        <time>2022-07-09T14:14:46Z</time>
      </trkpt>
      <trkpt lat="46.03974" lon="1.87122">
        <ele>574.8</ele>
        <time>2022-07-09T14:14:47Z</time>
      </trkpt>
      <trkpt lat="46.03946" lon="1.87131">
        <ele>579.4</ele>
        <time>2022-07-09T14:15:18Z</time>
      </trkpt>
      <trkpt lat="46.03943" lon="1.87131">
        <ele>579.8</ele>
        <time>2022-07-09T14:15:21Z</time>
      </trkpt>
      <trkpt lat="46.03931" lon="1.87135">
        <ele>580.4</ele>
        <time>2022-07-09T14:15:26Z</time>
      </trkpt>
      <trkpt lat="46.03927" lon="1.87137">
        <ele>580.6</ele>
        <time>2022-07-09T14:15:28Z</time>
      </trkpt>
      <trkpt lat="46.03922" lon="1.87138">
        <ele>581.4</ele>
        <time>2022-07-09T14:15:33Z</time>
      </trkpt>
      <trkpt lat="46.0392" lon="1.87145">
        <ele>582</ele>
        <time>2022-07-09T14:15:36Z</time>
      </trkpt>
      <trkpt lat="46.0392" lon="1.87145">
        <ele>582.4</ele>
        <time>2022-07-09T14:15:40Z</time>
      </trkpt>
      <trkpt lat="46.0392" lon="1.87145">
        <ele>582.8</ele>
        <time>2022-07-09T14:15:42Z</time>
      </trkpt>
      <trkpt lat="46.0392" lon="1.87145">
        <ele>583</ele>
        <time>2022-07-09T14:15:44Z</time>
      </trkpt>
      <trkpt lat="46.0392" lon="1.87151">
        <ele>583.6</ele>
        <time>2022-07-09T14:15:49Z</time>
      </trkpt>
      <trkpt lat="46.0392" lon="1.87156">
        <ele>583.6</ele>
        <time>2022-07-09T14:15:51Z</time>
      </trkpt>
      <trkpt lat="46.03918" lon="1.87163">
        <ele>584.6</ele>
        <time>2022-07-09T14:15:57Z</time>
      </trkpt>
      <trkpt lat="46.03918" lon="1.87163">
        <ele>584.8</ele>
        <time>2022-07-09T14:15:58Z</time>
      </trkpt>
      <trkpt lat="46.03918" lon="1.87163">
        <ele>585</ele>
        <time>2022-07-09T14:15:59Z</time>
      </trkpt>
      <trkpt lat="46.03918" lon="1.87166">
        <ele>585.4</ele>
        <time>2022-07-09T14:16:01Z</time>
      </trkpt>
      <trkpt lat="46.03919" lon="1.87172">
        <ele>586</ele>
        <time>2022-07-09T14:16:04Z</time>
      </trkpt>
      <trkpt lat="46.03919" lon="1.87175">
        <ele>586</ele>
        <time>2022-07-09T14:16:05Z</time>
      </trkpt>
      <trkpt lat="46.03919" lon="1.8718">
        <ele>586.8</ele>
        <time>2022-07-09T14:16:10Z</time>
      </trkpt>
      <trkpt lat="46.03919" lon="1.8718">
        <ele>587</ele>
        <time>2022-07-09T14:16:11Z</time>
      </trkpt>
      <trkpt lat="46.03918" lon="1.87184">
        <ele>587.6</ele>
        <time>2022-07-09T14:16:15Z</time>
      </trkpt>
      <trkpt lat="46.03918" lon="1.87188">
        <ele>588.2</ele>
        <time>2022-07-09T14:16:20Z</time>
      </trkpt>
      <trkpt lat="46.03918" lon="1.87188">
        <ele>588.2</ele>
        <time>2022-07-09T14:16:21Z</time>
      </trkpt>
      <trkpt lat="46.03918" lon="1.8719">
        <ele>588.8</ele>
        <time>2022-07-09T14:16:34Z</time>
      </trkpt>
      <trkpt lat="46.03917" lon="1.8719">
        <ele>588.6</ele>
        <time>2022-07-09T14:16:38Z</time>
      </trkpt>
      <trkpt lat="46.03919" lon="1.87193">
        <ele>588.2</ele>
        <time>2022-07-09T14:17:14Z</time>
      </trkpt>
      <trkpt lat="46.03918" lon="1.87198">
        <ele>588.2</ele>
        <time>2022-07-09T14:17:17Z</time>
      </trkpt>
      <trkpt lat="46.03915" lon="1.87206">
        <ele>588.8</ele>
        <time>2022-07-09T14:17:21Z</time>
      </trkpt>
      <trkpt lat="46.03914" lon="1.87208">
        <ele>589</ele>
        <time>2022-07-09T14:17:23Z</time>
      </trkpt>
      <trkpt lat="46.03912" lon="1.8721">
        <ele>589.6</ele>
        <time>2022-07-09T14:17:27Z</time>
      </trkpt>
      <trkpt lat="46.03908" lon="1.87218">
        <ele>591.6</ele>
        <time>2022-07-09T14:17:42Z</time>
      </trkpt>
      <trkpt lat="46.03906" lon="1.8722">
        <ele>592</ele>
        <time>2022-07-09T14:17:45Z</time>
      </trkpt>
      <trkpt lat="46.039" lon="1.87225">
        <ele>592.8</ele>
        <time>2022-07-09T14:17:50Z</time>
      </trkpt>
      <trkpt lat="46.039" lon="1.87226">
        <ele>593</ele>
        <time>2022-07-09T14:17:52Z</time>
      </trkpt>
      <trkpt lat="46.03897" lon="1.87229">
        <ele>593.6</ele>
        <time>2022-07-09T14:17:57Z</time>
      </trkpt>
      <trkpt lat="46.03894" lon="1.87231">
        <ele>594</ele>
        <time>2022-07-09T14:18:00Z</time>
      </trkpt>
      <trkpt lat="46.03894" lon="1.87231">
        <ele>594.8</ele>
        <time>2022-07-09T14:18:04Z</time>
      </trkpt>
      <trkpt lat="46.03891" lon="1.87233">
        <ele>595.2</ele>
        <time>2022-07-09T14:18:07Z</time>
      </trkpt>
      <trkpt lat="46.03891" lon="1.87233">
        <ele>595.8</ele>
        <time>2022-07-09T14:18:11Z</time>
      </trkpt>
      <trkpt lat="46.0389" lon="1.87236">
        <ele>596.6</ele>
        <time>2022-07-09T14:18:17Z</time>
      </trkpt>
      <trkpt lat="46.03888" lon="1.87239">
        <ele>597</ele>
        <time>2022-07-09T14:18:21Z</time>
      </trkpt>
      <trkpt lat="46.03885" lon="1.87241">
        <ele>597.6</ele>
        <time>2022-07-09T14:18:25Z</time>
      </trkpt>
      <trkpt lat="46.03882" lon="1.87243">
        <ele>597.8</ele>
        <time>2022-07-09T14:18:29Z</time>
      </trkpt>
      <trkpt lat="46.03871" lon="1.87252">
        <ele>598.6</ele>
        <time>2022-07-09T14:18:35Z</time>
      </trkpt>
      <trkpt lat="46.03869" lon="1.87254">
        <ele>599.2</ele>
        <time>2022-07-09T14:18:39Z</time>
      </trkpt>
      <trkpt lat="46.03864" lon="1.87259">
        <ele>599.8</ele>
        <time>2022-07-09T14:18:43Z</time>
      </trkpt>
      <trkpt lat="46.03864" lon="1.87259">
        <ele>599.8</ele>
        <time>2022-07-09T14:18:45Z</time>
      </trkpt>
      <trkpt lat="46.03854" lon="1.87272">
        <ele>602.2</ele>
        <time>2022-07-09T14:19:24Z</time>
      </trkpt>
      <trkpt lat="46.03852" lon="1.87272">
        <ele>603</ele>
        <time>2022-07-09T14:19:32Z</time>
      </trkpt>
      <trkpt lat="46.03845" lon="1.87278">
        <ele>603.2</ele>
        <time>2022-07-09T14:19:37Z</time>
      </trkpt>
      <trkpt lat="46.03839" lon="1.8728">
        <ele>603.4</ele>
        <time>2022-07-09T14:19:45Z</time>
      </trkpt>
      <trkpt lat="46.03823" lon="1.87285">
        <ele>604.2</ele>
        <time>2022-07-09T14:19:53Z</time>
      </trkpt>
      <trkpt lat="46.0382" lon="1.87285">
        <ele>604.4</ele>
        <time>2022-07-09T14:19:55Z</time>
      </trkpt>
      <trkpt lat="46.03809" lon="1.87288">
        <ele>605.2</ele>
        <time>2022-07-09T14:20:02Z</time>
      </trkpt>
      <trkpt lat="46.03803" lon="1.8729">
        <ele>606.4</ele>
        <time>2022-07-09T14:20:09Z</time>
      </trkpt>
      <trkpt lat="46.03801" lon="1.87292">
        <ele>606.6</ele>
        <time>2022-07-09T14:20:10Z</time>
      </trkpt>
      <trkpt lat="46.0379" lon="1.87298">
        <ele>607.4</ele>
        <time>2022-07-09T14:20:17Z</time>
      </trkpt>
      <trkpt lat="46.03787" lon="1.87299">
        <ele>607.6</ele>
        <time>2022-07-09T14:20:18Z</time>
      </trkpt>
      <trkpt lat="46.03782" lon="1.87302">
        <ele>608.2</ele>
        <time>2022-07-09T14:20:24Z</time>
      </trkpt>
      <trkpt lat="46.03774" lon="1.87307">
        <ele>608.6</ele>
        <time>2022-07-09T14:20:27Z</time>
      </trkpt>
      <trkpt lat="46.03771" lon="1.8731">
        <ele>608.8</ele>
        <time>2022-07-09T14:20:29Z</time>
      </trkpt>
      <trkpt lat="46.03769" lon="1.8731">
        <ele>609</ele>
        <time>2022-07-09T14:20:30Z</time>
      </trkpt>
      <trkpt lat="46.03765" lon="1.87313">
        <ele>609.2</ele>
        <time>2022-07-09T14:20:32Z</time>
      </trkpt>
      <trkpt lat="46.0376" lon="1.87315">
        <ele>609.4</ele>
        <time>2022-07-09T14:20:34Z</time>
      </trkpt>
      <trkpt lat="46.03755" lon="1.87315">
        <ele>609.4</ele>
        <time>2022-07-09T14:20:36Z</time>
      </trkpt>
      <trkpt lat="46.03752" lon="1.87315">
        <ele>609.4</ele>
        <time>2022-07-09T14:20:37Z</time>
      </trkpt>
      <trkpt lat="46.03747" lon="1.87314">
        <ele>609.6</ele>
        <time>2022-07-09T14:20:40Z</time>
      </trkpt>
      <trkpt lat="46.03739" lon="1.87312">
        <ele>609.8</ele>
        <time>2022-07-09T14:20:43Z</time>
      </trkpt>
      <trkpt lat="46.03735" lon="1.87311">
        <ele>609.8</ele>
        <time>2022-07-09T14:20:45Z</time>
      </trkpt>
      <trkpt lat="46.03731" lon="1.87312">
        <ele>610</ele>
        <time>2022-07-09T14:20:48Z</time>
      </trkpt>
      <trkpt lat="46.03729" lon="1.87314">
        <ele>610.4</ele>
        <time>2022-07-09T14:20:53Z</time>
      </trkpt>
      <trkpt lat="46.03726" lon="1.87314">
        <ele>610.8</ele>
        <time>2022-07-09T14:20:55Z</time>
      </trkpt>
      <trkpt lat="46.03725" lon="1.87315">
        <ele>611.2</ele>
        <time>2022-07-09T14:20:59Z</time>
      </trkpt>
      <trkpt lat="46.0372" lon="1.87318">
        <ele>611.8</ele>
        <time>2022-07-09T14:21:03Z</time>
      </trkpt>
      <trkpt lat="46.03713" lon="1.87318">
        <ele>612.4</ele>
        <time>2022-07-09T14:21:08Z</time>
      </trkpt>
      <trkpt lat="46.03707" lon="1.87318">
        <ele>612.8</ele>
        <time>2022-07-09T14:21:12Z</time>
      </trkpt>
      <trkpt lat="46.03705" lon="1.87319">
        <ele>613.6</ele>
        <time>2022-07-09T14:21:16Z</time>
      </trkpt>
      <trkpt lat="46.03704" lon="1.87319">
        <ele>613.8</ele>
        <time>2022-07-09T14:21:18Z</time>
      </trkpt>
      <trkpt lat="46.03693" lon="1.87321">
        <ele>614.8</ele>
        <time>2022-07-09T14:21:24Z</time>
      </trkpt>
      <trkpt lat="46.03689" lon="1.87321">
        <ele>615</ele>
        <time>2022-07-09T14:21:26Z</time>
      </trkpt>
      <trkpt lat="46.03679" lon="1.87321">
        <ele>616</ele>
        <time>2022-07-09T14:21:31Z</time>
      </trkpt>
      <trkpt lat="46.03676" lon="1.8732">
        <ele>616</ele>
        <time>2022-07-09T14:21:33Z</time>
      </trkpt>
      <trkpt lat="46.03676" lon="1.8732">
        <ele>616.2</ele>
        <time>2022-07-09T14:21:35Z</time>
      </trkpt>
      <trkpt lat="46.03672" lon="1.87318">
        <ele>616.2</ele>
        <time>2022-07-09T14:21:38Z</time>
      </trkpt>
      <trkpt lat="46.03671" lon="1.87317">
        <ele>616.4</ele>
        <time>2022-07-09T14:21:39Z</time>
      </trkpt>
      <trkpt lat="46.03669" lon="1.87314">
        <ele>616.6</ele>
        <time>2022-07-09T14:21:42Z</time>
      </trkpt>
      <trkpt lat="46.03668" lon="1.87312">
        <ele>616.8</ele>
        <time>2022-07-09T14:21:44Z</time>
      </trkpt>
      <trkpt lat="46.03668" lon="1.87312">
        <ele>616.8</ele>
        <time>2022-07-09T14:21:45Z</time>
      </trkpt>
      <trkpt lat="46.03659" lon="1.87303">
        <ele>617.2</ele>
        <time>2022-07-09T14:21:49Z</time>
      </trkpt>
      <trkpt lat="46.03653" lon="1.87297">
        <ele>617.4</ele>
        <time>2022-07-09T14:21:52Z</time>
      </trkpt>
      <trkpt lat="46.03652" lon="1.87296">
        <ele>617.4</ele>
        <time>2022-07-09T14:21:53Z</time>
      </trkpt>
      <trkpt lat="46.03648" lon="1.87289">
        <ele>617.8</ele>
        <time>2022-07-09T14:21:56Z</time>
      </trkpt>
      <trkpt lat="46.03643" lon="1.87286">
        <ele>617.8</ele>
        <time>2022-07-09T14:21:57Z</time>
      </trkpt>
      <trkpt lat="46.03633" lon="1.87282">
        <ele>618</ele>
        <time>2022-07-09T14:21:59Z</time>
      </trkpt>
      <trkpt lat="46.0362" lon="1.87273">
        <ele>618</ele>
        <time>2022-07-09T14:22:02Z</time>
      </trkpt>
      <trkpt lat="46.03617" lon="1.8727">
        <ele>618</ele>
        <time>2022-07-09T14:22:03Z</time>
      </trkpt>
      <trkpt lat="46.03594" lon="1.87245">
        <ele>617.4</ele>
        <time>2022-07-09T14:22:09Z</time>
      </trkpt>
      <trkpt lat="46.0357" lon="1.87231">
        <ele>617</ele>
        <time>2022-07-09T14:22:15Z</time>
      </trkpt>
      <trkpt lat="46.0355" lon="1.87219">
        <ele>616.2</ele>
        <time>2022-07-09T14:22:20Z</time>
      </trkpt>
      <trkpt lat="46.03545" lon="1.87216">
        <ele>615.6</ele>
        <time>2022-07-09T14:22:22Z</time>
      </trkpt>
      <trkpt lat="46.0354" lon="1.87211">
        <ele>615.2</ele>
        <time>2022-07-09T14:22:24Z</time>
      </trkpt>
      <trkpt lat="46.03539" lon="1.87209">
        <ele>615.2</ele>
        <time>2022-07-09T14:22:25Z</time>
      </trkpt>
      <trkpt lat="46.03527" lon="1.87196">
        <ele>615</ele>
        <time>2022-07-09T14:22:31Z</time>
      </trkpt>
      <trkpt lat="46.03515" lon="1.87183">
        <ele>615.6</ele>
        <time>2022-07-09T14:22:38Z</time>
      </trkpt>
      <trkpt lat="46.03507" lon="1.87174">
        <ele>616.2</ele>
        <time>2022-07-09T14:22:44Z</time>
      </trkpt>
      <trkpt lat="46.03505" lon="1.87173">
        <ele>616.4</ele>
        <time>2022-07-09T14:22:45Z</time>
      </trkpt>
      <trkpt lat="46.03502" lon="1.87172">
        <ele>616.4</ele>
        <time>2022-07-09T14:22:46Z</time>
      </trkpt>
      <trkpt lat="46.03499" lon="1.8717">
        <ele>616.6</ele>
        <time>2022-07-09T14:22:48Z</time>
      </trkpt>
      <trkpt lat="46.03494" lon="1.87167">
        <ele>617.4</ele>
        <time>2022-07-09T14:22:53Z</time>
      </trkpt>
      <trkpt lat="46.03494" lon="1.87167">
        <ele>617.4</ele>
        <time>2022-07-09T14:22:54Z</time>
      </trkpt>
      <trkpt lat="46.03492" lon="1.87166">
        <ele>618</ele>
        <time>2022-07-09T14:22:58Z</time>
      </trkpt>
      <trkpt lat="46.03491" lon="1.87165">
        <ele>618.6</ele>
        <time>2022-07-09T14:23:01Z</time>
      </trkpt>
      <trkpt lat="46.03491" lon="1.87164">
        <ele>619</ele>
        <time>2022-07-09T14:23:03Z</time>
      </trkpt>
      <trkpt lat="46.03488" lon="1.8716">
        <ele>619.8</ele>
        <time>2022-07-09T14:23:09Z</time>
      </trkpt>
      <trkpt lat="46.03488" lon="1.8716">
        <ele>620.2</ele>
        <time>2022-07-09T14:23:11Z</time>
      </trkpt>
      <trkpt lat="46.03482" lon="1.87155">
        <ele>621.2</ele>
        <time>2022-07-09T14:23:19Z</time>
      </trkpt>
      <trkpt lat="46.0348" lon="1.87153">
        <ele>622</ele>
        <time>2022-07-09T14:23:26Z</time>
      </trkpt>
      <trkpt lat="46.03477" lon="1.87152">
        <ele>622.2</ele>
        <time>2022-07-09T14:23:28Z</time>
      </trkpt>
      <trkpt lat="46.03477" lon="1.87152">
        <ele>622.4</ele>
        <time>2022-07-09T14:23:30Z</time>
      </trkpt>
      <trkpt lat="46.03473" lon="1.87146">
        <ele>624.8</ele>
        <time>2022-07-09T14:24:01Z</time>
      </trkpt>
      <trkpt lat="46.03472" lon="1.87143">
        <ele>625.2</ele>
        <time>2022-07-09T14:24:03Z</time>
      </trkpt>
      <trkpt lat="46.0347" lon="1.8714">
        <ele>625.8</ele>
        <time>2022-07-09T14:24:08Z</time>
      </trkpt>
      <trkpt lat="46.0347" lon="1.8714">
        <ele>625.8</ele>
        <time>2022-07-09T14:24:09Z</time>
      </trkpt>
      <trkpt lat="46.03468" lon="1.87138">
        <ele>626.4</ele>
        <time>2022-07-09T14:24:14Z</time>
      </trkpt>
      <trkpt lat="46.03468" lon="1.87138">
        <ele>626.8</ele>
        <time>2022-07-09T14:24:19Z</time>
      </trkpt>
      <trkpt lat="46.03444" lon="1.87119">
        <ele>629.8</ele>
        <time>2022-07-09T14:24:59Z</time>
      </trkpt>
      <trkpt lat="46.03437" lon="1.87114">
        <ele>630</ele>
        <time>2022-07-09T14:25:01Z</time>
      </trkpt>
      <trkpt lat="46.03425" lon="1.87104">
        <ele>630.8</ele>
        <time>2022-07-09T14:25:08Z</time>
      </trkpt>
      <trkpt lat="46.03425" lon="1.87104">
        <ele>630.8</ele>
        <time>2022-07-09T14:25:09Z</time>
      </trkpt>
      <trkpt lat="46.03419" lon="1.87099">
        <ele>631.2</ele>
        <time>2022-07-09T14:25:13Z</time>
      </trkpt>
      <trkpt lat="46.03406" lon="1.8709">
        <ele>631.8</ele>
        <time>2022-07-09T14:25:19Z</time>
      </trkpt>
      <trkpt lat="46.03393" lon="1.87091">
        <ele>632.4</ele>
        <time>2022-07-09T14:25:23Z</time>
      </trkpt>
      <trkpt lat="46.0339" lon="1.87091">
        <ele>632.6</ele>
        <time>2022-07-09T14:25:25Z</time>
      </trkpt>
      <trkpt lat="46.03383" lon="1.8709">
        <ele>633</ele>
        <time>2022-07-09T14:25:28Z</time>
      </trkpt>
      <trkpt lat="46.03373" lon="1.87085">
        <ele>633.4</ele>
        <time>2022-07-09T14:25:34Z</time>
      </trkpt>
      <trkpt lat="46.03372" lon="1.87083">
        <ele>633.4</ele>
        <time>2022-07-09T14:25:35Z</time>
      </trkpt>
      <trkpt lat="46.03365" lon="1.87072">
        <ele>634</ele>
        <time>2022-07-09T14:25:40Z</time>
      </trkpt>
      <trkpt lat="46.03364" lon="1.8707">
        <ele>634</ele>
        <time>2022-07-09T14:25:41Z</time>
      </trkpt>
      <trkpt lat="46.03354" lon="1.87051">
        <ele>634.6</ele>
        <time>2022-07-09T14:25:48Z</time>
      </trkpt>
      <trkpt lat="46.03349" lon="1.87044">
        <ele>635</ele>
        <time>2022-07-09T14:25:51Z</time>
      </trkpt>
      <trkpt lat="46.03347" lon="1.87038">
        <ele>635.4</ele>
        <time>2022-07-09T14:25:54Z</time>
      </trkpt>
      <trkpt lat="46.03346" lon="1.87027">
        <ele>635.8</ele>
        <time>2022-07-09T14:25:57Z</time>
      </trkpt>
      <trkpt lat="46.03347" lon="1.87021">
        <ele>635.6</ele>
        <time>2022-07-09T14:25:59Z</time>
      </trkpt>
      <trkpt lat="46.03347" lon="1.87005">
        <ele>635.8</ele>
        <time>2022-07-09T14:26:03Z</time>
      </trkpt>
      <trkpt lat="46.03348" lon="1.87003">
        <ele>635.8</ele>
        <time>2022-07-09T14:26:04Z</time>
      </trkpt>
      <trkpt lat="46.03346" lon="1.86999">
        <ele>635.8</ele>
        <time>2022-07-09T14:26:05Z</time>
      </trkpt>
      <trkpt lat="46.03348" lon="1.86988">
        <ele>635.8</ele>
        <time>2022-07-09T14:26:09Z</time>
      </trkpt>
      <trkpt lat="46.03348" lon="1.86985">
        <ele>635.8</ele>
        <time>2022-07-09T14:26:10Z</time>
      </trkpt>
      <trkpt lat="46.0335" lon="1.86977">
        <ele>635.8</ele>
        <time>2022-07-09T14:26:12Z</time>
      </trkpt>
      <trkpt lat="46.03352" lon="1.8697">
        <ele>635.8</ele>
        <time>2022-07-09T14:26:14Z</time>
      </trkpt>
      <trkpt lat="46.03351" lon="1.86956">
        <ele>636</ele>
        <time>2022-07-09T14:26:19Z</time>
      </trkpt>
      <trkpt lat="46.03355" lon="1.8695">
        <ele>636.4</ele>
        <time>2022-07-09T14:26:22Z</time>
      </trkpt>
      <trkpt lat="46.03355" lon="1.86948">
        <ele>637</ele>
        <time>2022-07-09T14:26:25Z</time>
      </trkpt>
      <trkpt lat="46.03356" lon="1.86946">
        <ele>637.2</ele>
        <time>2022-07-09T14:26:28Z</time>
      </trkpt>
      <trkpt lat="46.03356" lon="1.86942">
        <ele>638</ele>
        <time>2022-07-09T14:26:32Z</time>
      </trkpt>
      <trkpt lat="46.03358" lon="1.86938">
        <ele>638.6</ele>
        <time>2022-07-09T14:26:34Z</time>
      </trkpt>
      <trkpt lat="46.03358" lon="1.86932">
        <ele>639.4</ele>
        <time>2022-07-09T14:26:38Z</time>
      </trkpt>
      <trkpt lat="46.03358" lon="1.86928">
        <ele>639.8</ele>
        <time>2022-07-09T14:26:41Z</time>
      </trkpt>
      <trkpt lat="46.03358" lon="1.86927">
        <ele>640</ele>
        <time>2022-07-09T14:26:42Z</time>
      </trkpt>
      <trkpt lat="46.03358" lon="1.86925">
        <ele>640.2</ele>
        <time>2022-07-09T14:26:43Z</time>
      </trkpt>
      <trkpt lat="46.03358" lon="1.86917">
        <ele>641</ele>
        <time>2022-07-09T14:26:47Z</time>
      </trkpt>
      <trkpt lat="46.03359" lon="1.86915">
        <ele>641.2</ele>
        <time>2022-07-09T14:26:48Z</time>
      </trkpt>
      <trkpt lat="46.0336" lon="1.86914">
        <ele>641.4</ele>
        <time>2022-07-09T14:26:49Z</time>
      </trkpt>
      <trkpt lat="46.03361" lon="1.86909">
        <ele>642</ele>
        <time>2022-07-09T14:26:52Z</time>
      </trkpt>
      <trkpt lat="46.03362" lon="1.86906">
        <ele>642.6</ele>
        <time>2022-07-09T14:26:55Z</time>
      </trkpt>
      <trkpt lat="46.03362" lon="1.86903">
        <ele>642.6</ele>
        <time>2022-07-09T14:26:57Z</time>
      </trkpt>
      <trkpt lat="46.03365" lon="1.86892">
        <ele>643.6</ele>
        <time>2022-07-09T14:27:03Z</time>
      </trkpt>
      <trkpt lat="46.03365" lon="1.86889">
        <ele>643.8</ele>
        <time>2022-07-09T14:27:04Z</time>
      </trkpt>
      <trkpt lat="46.03369" lon="1.86879">
        <ele>644.8</ele>
        <time>2022-07-09T14:27:09Z</time>
      </trkpt>
      <trkpt lat="46.0337" lon="1.86877">
        <ele>644.8</ele>
        <time>2022-07-09T14:27:10Z</time>
      </trkpt>
      <trkpt lat="46.03371" lon="1.86873">
        <ele>645</ele>
        <time>2022-07-09T14:27:16Z</time>
      </trkpt>
      <trkpt lat="46.03373" lon="1.8687">
        <ele>644.4</ele>
        <time>2022-07-09T14:27:49Z</time>
      </trkpt>
      <trkpt lat="46.03376" lon="1.86868">
        <ele>644.2</ele>
        <time>2022-07-09T14:27:57Z</time>
      </trkpt>
      <trkpt lat="46.03376" lon="1.86868">
        <ele>644.2</ele>
        <time>2022-07-09T14:27:58Z</time>
      </trkpt>
      <trkpt lat="46.03376" lon="1.86865">
        <ele>644.4</ele>
        <time>2022-07-09T14:29:10Z</time>
      </trkpt>
      <trkpt lat="46.03376" lon="1.86863">
        <ele>644.2</ele>
        <time>2022-07-09T14:29:13Z</time>
      </trkpt>
      <trkpt lat="46.03376" lon="1.86863">
        <ele>644</ele>
        <time>2022-07-09T14:29:15Z</time>
      </trkpt>
      <trkpt lat="46.03378" lon="1.86858">
        <ele>643.6</ele>
        <time>2022-07-09T14:29:27Z</time>
      </trkpt>
      <trkpt lat="46.03381" lon="1.86855">
        <ele>643.4</ele>
        <time>2022-07-09T14:29:29Z</time>
      </trkpt>
      <trkpt lat="46.03382" lon="1.86853">
        <ele>643.4</ele>
        <time>2022-07-09T14:29:30Z</time>
      </trkpt>
      <trkpt lat="46.03389" lon="1.86843">
        <ele>643.4</ele>
        <time>2022-07-09T14:29:34Z</time>
      </trkpt>
      <trkpt lat="46.03401" lon="1.86823">
        <ele>643.2</ele>
        <time>2022-07-09T14:29:38Z</time>
      </trkpt>
      <trkpt lat="46.03403" lon="1.86817">
        <ele>643</ele>
        <time>2022-07-09T14:29:39Z</time>
      </trkpt>
      <trkpt lat="46.03409" lon="1.86796">
        <ele>642.4</ele>
        <time>2022-07-09T14:29:42Z</time>
      </trkpt>
      <trkpt lat="46.03413" lon="1.86782">
        <ele>641.8</ele>
        <time>2022-07-09T14:29:44Z</time>
      </trkpt>
      <trkpt lat="46.03414" lon="1.86768">
        <ele>641</ele>
        <time>2022-07-09T14:29:46Z</time>
      </trkpt>
      <trkpt lat="46.03415" lon="1.86761">
        <ele>640.6</ele>
        <time>2022-07-09T14:29:47Z</time>
      </trkpt>
      <trkpt lat="46.03416" lon="1.86755">
        <ele>640.2</ele>
        <time>2022-07-09T14:29:48Z</time>
      </trkpt>
      <trkpt lat="46.03418" lon="1.86743">
        <ele>639.6</ele>
        <time>2022-07-09T14:29:50Z</time>
      </trkpt>
      <trkpt lat="46.0342" lon="1.86733">
        <ele>638.8</ele>
        <time>2022-07-09T14:29:52Z</time>
      </trkpt>
      <trkpt lat="46.03421" lon="1.8672">
        <ele>638.4</ele>
        <time>2022-07-09T14:29:54Z</time>
      </trkpt>
      <trkpt lat="46.03423" lon="1.86707">
        <ele>637.4</ele>
        <time>2022-07-09T14:29:56Z</time>
      </trkpt>
      <trkpt lat="46.03423" lon="1.86701">
        <ele>637.2</ele>
        <time>2022-07-09T14:29:57Z</time>
      </trkpt>
      <trkpt lat="46.03426" lon="1.86682">
        <ele>636</ele>
        <time>2022-07-09T14:30:00Z</time>
      </trkpt>
      <trkpt lat="46.03427" lon="1.86676">
        <ele>635.6</ele>
        <time>2022-07-09T14:30:01Z</time>
      </trkpt>
      <trkpt lat="46.03427" lon="1.8667">
        <ele>634.6</ele>
        <time>2022-07-09T14:30:02Z</time>
      </trkpt>
      <trkpt lat="46.03426" lon="1.86656">
        <ele>633.6</ele>
        <time>2022-07-09T14:30:04Z</time>
      </trkpt>
      <trkpt lat="46.03425" lon="1.86649">
        <ele>633.2</ele>
        <time>2022-07-09T14:30:05Z</time>
      </trkpt>
      <trkpt lat="46.03422" lon="1.86636">
        <ele>631.8</ele>
        <time>2022-07-09T14:30:07Z</time>
      </trkpt>
      <trkpt lat="46.03419" lon="1.86623">
        <ele>630.4</ele>
        <time>2022-07-09T14:30:09Z</time>
      </trkpt>
      <trkpt lat="46.03415" lon="1.8661">
        <ele>629.4</ele>
        <time>2022-07-09T14:30:11Z</time>
      </trkpt>
      <trkpt lat="46.03414" lon="1.86603">
        <ele>628.8</ele>
        <time>2022-07-09T14:30:12Z</time>
      </trkpt>
      <trkpt lat="46.03413" lon="1.86597">
        <ele>628</ele>
        <time>2022-07-09T14:30:13Z</time>
      </trkpt>
      <trkpt lat="46.03412" lon="1.86586">
        <ele>627.4</ele>
        <time>2022-07-09T14:30:15Z</time>
      </trkpt>
      <trkpt lat="46.03412" lon="1.8658">
        <ele>627</ele>
        <time>2022-07-09T14:30:16Z</time>
      </trkpt>
      <trkpt lat="46.03412" lon="1.86575">
        <ele>626.6</ele>
        <time>2022-07-09T14:30:17Z</time>
      </trkpt>
      <trkpt lat="46.03416" lon="1.86562">
        <ele>625.8</ele>
        <time>2022-07-09T14:30:19Z</time>
      </trkpt>
      <trkpt lat="46.03416" lon="1.86557">
        <ele>625.2</ele>
        <time>2022-07-09T14:30:20Z</time>
      </trkpt>
      <trkpt lat="46.03415" lon="1.86553">
        <ele>624.8</ele>
        <time>2022-07-09T14:30:21Z</time>
      </trkpt>
      <trkpt lat="46.03414" lon="1.86552">
        <ele>624.6</ele>
        <time>2022-07-09T14:30:22Z</time>
      </trkpt>
      <trkpt lat="46.0341" lon="1.8655">
        <ele>623.8</ele>
        <time>2022-07-09T14:30:24Z</time>
      </trkpt>
      <trkpt lat="46.03406" lon="1.86549">
        <ele>623.4</ele>
        <time>2022-07-09T14:30:25Z</time>
      </trkpt>
      <trkpt lat="46.034" lon="1.86547">
        <ele>623.2</ele>
        <time>2022-07-09T14:30:30Z</time>
      </trkpt>
      <trkpt lat="46.03399" lon="1.86547">
        <ele>623.2</ele>
        <time>2022-07-09T14:30:31Z</time>
      </trkpt>
      <trkpt lat="46.0339" lon="1.86549">
        <ele>623.8</ele>
        <time>2022-07-09T14:30:39Z</time>
      </trkpt>
      <trkpt lat="46.03389" lon="1.8655">
        <ele>623.8</ele>
        <time>2022-07-09T14:30:40Z</time>
      </trkpt>
      <trkpt lat="46.03384" lon="1.8655">
        <ele>624.2</ele>
        <time>2022-07-09T14:30:45Z</time>
      </trkpt>
      <trkpt lat="46.03382" lon="1.8655">
        <ele>624.2</ele>
        <time>2022-07-09T14:30:46Z</time>
      </trkpt>
      <trkpt lat="46.03377" lon="1.86548">
        <ele>624.4</ele>
        <time>2022-07-09T14:30:49Z</time>
      </trkpt>
      <trkpt lat="46.03373" lon="1.86547">
        <ele>624.6</ele>
        <time>2022-07-09T14:30:51Z</time>
      </trkpt>
      <trkpt lat="46.03369" lon="1.86545">
        <ele>624.8</ele>
        <time>2022-07-09T14:30:52Z</time>
      </trkpt>
      <trkpt lat="46.03367" lon="1.86545">
        <ele>624.8</ele>
        <time>2022-07-09T14:30:53Z</time>
      </trkpt>
      <trkpt lat="46.03358" lon="1.86546">
        <ele>625.2</ele>
        <time>2022-07-09T14:30:57Z</time>
      </trkpt>
      <trkpt lat="46.03355" lon="1.86546">
        <ele>625.2</ele>
        <time>2022-07-09T14:30:58Z</time>
      </trkpt>
      <trkpt lat="46.03342" lon="1.86545">
        <ele>625.4</ele>
        <time>2022-07-09T14:31:02Z</time>
      </trkpt>
      <trkpt lat="46.03336" lon="1.86553">
        <ele>625.8</ele>
        <time>2022-07-09T14:31:06Z</time>
      </trkpt>
      <trkpt lat="46.03331" lon="1.86552">
        <ele>626.2</ele>
        <time>2022-07-09T14:31:08Z</time>
      </trkpt>
      <trkpt lat="46.03328" lon="1.86551">
        <ele>626.2</ele>
        <time>2022-07-09T14:31:09Z</time>
      </trkpt>
      <trkpt lat="46.03324" lon="1.86552">
        <ele>626.2</ele>
        <time>2022-07-09T14:31:12Z</time>
      </trkpt>
      <trkpt lat="46.03323" lon="1.86551">
        <ele>626.4</ele>
        <time>2022-07-09T14:31:13Z</time>
      </trkpt>
      <trkpt lat="46.03321" lon="1.86553">
        <ele>626.8</ele>
        <time>2022-07-09T14:31:19Z</time>
      </trkpt>
      <trkpt lat="46.03321" lon="1.86554">
        <ele>627.2</ele>
        <time>2022-07-09T14:31:20Z</time>
      </trkpt>
      <trkpt lat="46.03319" lon="1.86556">
        <ele>628</ele>
        <time>2022-07-09T14:31:23Z</time>
      </trkpt>
      <trkpt lat="46.03319" lon="1.86556">
        <ele>628.4</ele>
        <time>2022-07-09T14:31:25Z</time>
      </trkpt>
      <trkpt lat="46.03319" lon="1.86556">
        <ele>628.4</ele>
        <time>2022-07-09T14:31:26Z</time>
      </trkpt>
      <trkpt lat="46.0332" lon="1.86556">
        <ele>628.8</ele>
        <time>2022-07-09T14:31:32Z</time>
      </trkpt>
      <trkpt lat="46.03321" lon="1.86556">
        <ele>628.8</ele>
        <time>2022-07-09T14:31:34Z</time>
      </trkpt>
      <trkpt lat="46.03321" lon="1.86556">
        <ele>628.8</ele>
        <time>2022-07-09T14:31:36Z</time>
      </trkpt>
      <trkpt lat="46.03322" lon="1.86554">
        <ele>628.8</ele>
        <time>2022-07-09T14:31:39Z</time>
      </trkpt>
      <trkpt lat="46.03322" lon="1.86554">
        <ele>628.6</ele>
        <time>2022-07-09T14:31:42Z</time>
      </trkpt>
      <trkpt lat="46.03322" lon="1.86554">
        <ele>628.4</ele>
        <time>2022-07-09T14:31:43Z</time>
      </trkpt>
      <trkpt lat="46.03321" lon="1.8655">
        <ele>627.8</ele>
        <time>2022-07-09T14:31:54Z</time>
      </trkpt>
      <trkpt lat="46.03319" lon="1.86547">
        <ele>627.6</ele>
        <time>2022-07-09T14:31:57Z</time>
      </trkpt>
      <trkpt lat="46.03314" lon="1.86547">
        <ele>627.6</ele>
        <time>2022-07-09T14:32:03Z</time>
      </trkpt>
      <trkpt lat="46.03313" lon="1.86547">
        <ele>627.6</ele>
        <time>2022-07-09T14:32:06Z</time>
      </trkpt>
      <trkpt lat="46.0331" lon="1.86551">
        <ele>628</ele>
        <time>2022-07-09T14:32:11Z</time>
      </trkpt>
      <trkpt lat="46.03309" lon="1.86555">
        <ele>628.6</ele>
        <time>2022-07-09T14:32:18Z</time>
      </trkpt>
      <trkpt lat="46.03307" lon="1.86556">
        <ele>628.8</ele>
        <time>2022-07-09T14:32:19Z</time>
      </trkpt>
      <trkpt lat="46.03305" lon="1.86558">
        <ele>629.2</ele>
        <time>2022-07-09T14:32:24Z</time>
      </trkpt>
      <trkpt lat="46.03304" lon="1.86559">
        <ele>629.4</ele>
        <time>2022-07-09T14:32:25Z</time>
      </trkpt>
      <trkpt lat="46.03302" lon="1.86561">
        <ele>629.8</ele>
        <time>2022-07-09T14:32:29Z</time>
      </trkpt>
      <trkpt lat="46.03302" lon="1.86561">
        <ele>630</ele>
        <time>2022-07-09T14:32:30Z</time>
      </trkpt>
      <trkpt lat="46.03299" lon="1.86563">
        <ele>630.6</ele>
        <time>2022-07-09T14:32:39Z</time>
      </trkpt>
      <trkpt lat="46.03298" lon="1.86563">
        <ele>630.8</ele>
        <time>2022-07-09T14:32:42Z</time>
      </trkpt>
      <trkpt lat="46.03297" lon="1.86564">
        <ele>631</ele>
        <time>2022-07-09T14:32:46Z</time>
      </trkpt>
      <trkpt lat="46.03285" lon="1.86564">
        <ele>631.6</ele>
        <time>2022-07-09T14:32:53Z</time>
      </trkpt>
      <trkpt lat="46.03279" lon="1.86564">
        <ele>631.6</ele>
        <time>2022-07-09T14:32:55Z</time>
      </trkpt>
      <trkpt lat="46.03278" lon="1.86564">
        <ele>631.6</ele>
        <time>2022-07-09T14:32:56Z</time>
      </trkpt>
      <trkpt lat="46.03276" lon="1.86566">
        <ele>632.2</ele>
        <time>2022-07-09T14:32:59Z</time>
      </trkpt>
      <trkpt lat="46.03268" lon="1.86568">
        <ele>632.8</ele>
        <time>2022-07-09T14:33:03Z</time>
      </trkpt>
      <trkpt lat="46.03258" lon="1.86572">
        <ele>633.4</ele>
        <time>2022-07-09T14:33:07Z</time>
      </trkpt>
      <trkpt lat="46.03257" lon="1.86573">
        <ele>633.6</ele>
        <time>2022-07-09T14:33:08Z</time>
      </trkpt>
      <trkpt lat="46.03253" lon="1.86573">
        <ele>633.8</ele>
        <time>2022-07-09T14:33:10Z</time>
      </trkpt>
      <trkpt lat="46.03251" lon="1.86573">
        <ele>633.8</ele>
        <time>2022-07-09T14:33:11Z</time>
      </trkpt>
      <trkpt lat="46.03244" lon="1.86575">
        <ele>634.4</ele>
        <time>2022-07-09T14:33:15Z</time>
      </trkpt>
      <trkpt lat="46.0324" lon="1.86577">
        <ele>634.8</ele>
        <time>2022-07-09T14:33:21Z</time>
      </trkpt>
      <trkpt lat="46.0324" lon="1.86577">
        <ele>635.2</ele>
        <time>2022-07-09T14:33:24Z</time>
      </trkpt>
      <trkpt lat="46.0323" lon="1.86578">
        <ele>635.2</ele>
        <time>2022-07-09T14:33:27Z</time>
      </trkpt>
      <trkpt lat="46.03221" lon="1.86578">
        <ele>635.2</ele>
        <time>2022-07-09T14:33:29Z</time>
      </trkpt>
      <trkpt lat="46.03217" lon="1.86579">
        <ele>635.2</ele>
        <time>2022-07-09T14:33:30Z</time>
      </trkpt>
      <trkpt lat="46.03197" lon="1.86581">
        <ele>635.2</ele>
        <time>2022-07-09T14:33:35Z</time>
      </trkpt>
      <trkpt lat="46.03169" lon="1.86585">
        <ele>634.6</ele>
        <time>2022-07-09T14:33:41Z</time>
      </trkpt>
      <trkpt lat="46.03157" lon="1.8659">
        <ele>634.4</ele>
        <time>2022-07-09T14:33:43Z</time>
      </trkpt>
      <trkpt lat="46.03151" lon="1.86597">
        <ele>634.2</ele>
        <time>2022-07-09T14:33:45Z</time>
      </trkpt>
      <trkpt lat="46.03148" lon="1.86598">
        <ele>633.8</ele>
        <time>2022-07-09T14:33:46Z</time>
      </trkpt>
      <trkpt lat="46.03148" lon="1.866">
        <ele>633.6</ele>
        <time>2022-07-09T14:33:47Z</time>
      </trkpt>
      <trkpt lat="46.03146" lon="1.86602">
        <ele>633.2</ele>
        <time>2022-07-09T14:33:49Z</time>
      </trkpt>
      <trkpt lat="46.03135" lon="1.86608">
        <ele>632.8</ele>
        <time>2022-07-09T14:33:52Z</time>
      </trkpt>
      <trkpt lat="46.03129" lon="1.86612">
        <ele>632.4</ele>
        <time>2022-07-09T14:33:54Z</time>
      </trkpt>
      <trkpt lat="46.03126" lon="1.86615">
        <ele>632.2</ele>
        <time>2022-07-09T14:33:55Z</time>
      </trkpt>
      <trkpt lat="46.03122" lon="1.86618">
        <ele>631.4</ele>
        <time>2022-07-09T14:33:57Z</time>
      </trkpt>
      <trkpt lat="46.03119" lon="1.86621">
        <ele>631.2</ele>
        <time>2022-07-09T14:33:58Z</time>
      </trkpt>
      <trkpt lat="46.03117" lon="1.86623">
        <ele>630.6</ele>
        <time>2022-07-09T14:33:59Z</time>
      </trkpt>
      <trkpt lat="46.03117" lon="1.86625">
        <ele>630.4</ele>
        <time>2022-07-09T14:34:00Z</time>
      </trkpt>
      <trkpt lat="46.03117" lon="1.86626">
        <ele>630.2</ele>
        <time>2022-07-09T14:34:01Z</time>
      </trkpt>
      <trkpt lat="46.03115" lon="1.86626">
        <ele>629.6</ele>
        <time>2022-07-09T14:34:03Z</time>
      </trkpt>
      <trkpt lat="46.03114" lon="1.86628">
        <ele>629.2</ele>
        <time>2022-07-09T14:34:04Z</time>
      </trkpt>
      <trkpt lat="46.03113" lon="1.8663">
        <ele>629.2</ele>
        <time>2022-07-09T14:34:05Z</time>
      </trkpt>
      <trkpt lat="46.03112" lon="1.86633">
        <ele>628.6</ele>
        <time>2022-07-09T14:34:06Z</time>
      </trkpt>
      <trkpt lat="46.03109" lon="1.86639">
        <ele>628</ele>
        <time>2022-07-09T14:34:08Z</time>
      </trkpt>
      <trkpt lat="46.03104" lon="1.86645">
        <ele>627.2</ele>
        <time>2022-07-09T14:34:10Z</time>
      </trkpt>
      <trkpt lat="46.03099" lon="1.86648">
        <ele>626.8</ele>
        <time>2022-07-09T14:34:11Z</time>
      </trkpt>
      <trkpt lat="46.03095" lon="1.86651">
        <ele>626.6</ele>
        <time>2022-07-09T14:34:12Z</time>
      </trkpt>
      <trkpt lat="46.03092" lon="1.86653">
        <ele>626.6</ele>
        <time>2022-07-09T14:34:13Z</time>
      </trkpt>
      <trkpt lat="46.03073" lon="1.86661">
        <ele>625.8</ele>
        <time>2022-07-09T14:34:18Z</time>
      </trkpt>
      <trkpt lat="46.03068" lon="1.86667">
        <ele>624.8</ele>
        <time>2022-07-09T14:34:20Z</time>
      </trkpt>
      <trkpt lat="46.03064" lon="1.8667">
        <ele>624.6</ele>
        <time>2022-07-09T14:34:21Z</time>
      </trkpt>
      <trkpt lat="46.03059" lon="1.86674">
        <ele>624.4</ele>
        <time>2022-07-09T14:34:22Z</time>
      </trkpt>
      <trkpt lat="46.03049" lon="1.8669">
        <ele>623.8</ele>
        <time>2022-07-09T14:34:26Z</time>
      </trkpt>
      <trkpt lat="46.03046" lon="1.86693">
        <ele>623.8</ele>
        <time>2022-07-09T14:34:27Z</time>
      </trkpt>
      <trkpt lat="46.03035" lon="1.86708">
        <ele>623.4</ele>
        <time>2022-07-09T14:34:30Z</time>
      </trkpt>
      <trkpt lat="46.03022" lon="1.86721">
        <ele>623.2</ele>
        <time>2022-07-09T14:34:33Z</time>
      </trkpt>
      <trkpt lat="46.03011" lon="1.86733">
        <ele>622.2</ele>
        <time>2022-07-09T14:34:36Z</time>
      </trkpt>
      <trkpt lat="46.03008" lon="1.86735">
        <ele>622</ele>
        <time>2022-07-09T14:34:37Z</time>
      </trkpt>
      <trkpt lat="46.03002" lon="1.86738">
        <ele>621.2</ele>
        <time>2022-07-09T14:34:39Z</time>
      </trkpt>
      <trkpt lat="46.03002" lon="1.86739">
        <ele>620.8</ele>
        <time>2022-07-09T14:34:40Z</time>
      </trkpt>
      <trkpt lat="46.03001" lon="1.8674">
        <ele>620.4</ele>
        <time>2022-07-09T14:34:41Z</time>
      </trkpt>
      <trkpt lat="46.03001" lon="1.8674">
        <ele>619.4</ele>
        <time>2022-07-09T14:34:43Z</time>
      </trkpt>
      <trkpt lat="46.03" lon="1.8674">
        <ele>618.8</ele>
        <time>2022-07-09T14:34:44Z</time>
      </trkpt>
      <trkpt lat="46.03" lon="1.86741">
        <ele>617.8</ele>
        <time>2022-07-09T14:34:45Z</time>
      </trkpt>
      <trkpt lat="46.02997" lon="1.86746">
        <ele>616.8</ele>
        <time>2022-07-09T14:34:48Z</time>
      </trkpt>
      <trkpt lat="46.02996" lon="1.86749">
        <ele>616.4</ele>
        <time>2022-07-09T14:34:49Z</time>
      </trkpt>
      <trkpt lat="46.02994" lon="1.86752">
        <ele>616.4</ele>
        <time>2022-07-09T14:34:50Z</time>
      </trkpt>
      <trkpt lat="46.0299" lon="1.86758">
        <ele>616</ele>
        <time>2022-07-09T14:34:52Z</time>
      </trkpt>
      <trkpt lat="46.02989" lon="1.86763">
        <ele>616</ele>
        <time>2022-07-09T14:34:53Z</time>
      </trkpt>
      <trkpt lat="46.02988" lon="1.86767">
        <ele>615.4</ele>
        <time>2022-07-09T14:34:54Z</time>
      </trkpt>
      <trkpt lat="46.02986" lon="1.86769">
        <ele>615.4</ele>
        <time>2022-07-09T14:34:55Z</time>
      </trkpt>
      <trkpt lat="46.02986" lon="1.8677">
        <ele>614.8</ele>
        <time>2022-07-09T14:34:57Z</time>
      </trkpt>
      <trkpt lat="46.02985" lon="1.8677">
        <ele>614.6</ele>
        <time>2022-07-09T14:35:00Z</time>
      </trkpt>
      <trkpt lat="46.02985" lon="1.86769">
        <ele>614.6</ele>
        <time>2022-07-09T14:35:02Z</time>
      </trkpt>
      <trkpt lat="46.02984" lon="1.86767">
        <ele>614.6</ele>
        <time>2022-07-09T14:35:08Z</time>
      </trkpt>
      <trkpt lat="46.02984" lon="1.86765">
        <ele>614.8</ele>
        <time>2022-07-09T14:35:18Z</time>
      </trkpt>
      <trkpt lat="46.02984" lon="1.86762">
        <ele>615</ele>
        <time>2022-07-09T14:35:23Z</time>
      </trkpt>
      <trkpt lat="46.02985" lon="1.86759">
        <ele>615.6</ele>
        <time>2022-07-09T14:35:29Z</time>
      </trkpt>
      <trkpt lat="46.02985" lon="1.86759">
        <ele>615.6</ele>
        <time>2022-07-09T14:35:30Z</time>
      </trkpt>
      <trkpt lat="46.02985" lon="1.86758">
        <ele>616</ele>
        <time>2022-07-09T14:35:34Z</time>
      </trkpt>
      <trkpt lat="46.02985" lon="1.86756">
        <ele>616.2</ele>
        <time>2022-07-09T14:35:36Z</time>
      </trkpt>
      <trkpt lat="46.02985" lon="1.86756">
        <ele>616.4</ele>
        <time>2022-07-09T14:35:38Z</time>
      </trkpt>
      <trkpt lat="46.02985" lon="1.86751">
        <ele>616.4</ele>
        <time>2022-07-09T14:35:41Z</time>
      </trkpt>
      <trkpt lat="46.02984" lon="1.86751">
        <ele>616.2</ele>
        <time>2022-07-09T14:35:44Z</time>
      </trkpt>
      <trkpt lat="46.02984" lon="1.86751">
        <ele>615.2</ele>
        <time>2022-07-09T14:35:48Z</time>
      </trkpt>
      <trkpt lat="46.02982" lon="1.8675">
        <ele>613.4</ele>
        <time>2022-07-09T14:36:01Z</time>
      </trkpt>
      <trkpt lat="46.02982" lon="1.8675">
        <ele>613.4</ele>
        <time>2022-07-09T14:36:02Z</time>
      </trkpt>
      <trkpt lat="46.02981" lon="1.86751">
        <ele>612.4</ele>
        <time>2022-07-09T14:36:07Z</time>
      </trkpt>
      <trkpt lat="46.02981" lon="1.86752">
        <ele>611.4</ele>
        <time>2022-07-09T14:36:12Z</time>
      </trkpt>
      <trkpt lat="46.02977" lon="1.86751">
        <ele>610.6</ele>
        <time>2022-07-09T14:37:01Z</time>
      </trkpt>
      <trkpt lat="46.02973" lon="1.86748">
        <ele>609.4</ele>
        <time>2022-07-09T14:37:06Z</time>
      </trkpt>
      <trkpt lat="46.02971" lon="1.86746">
        <ele>609.2</ele>
        <time>2022-07-09T14:37:07Z</time>
      </trkpt>
      <trkpt lat="46.02969" lon="1.86744">
        <ele>608.6</ele>
        <time>2022-07-09T14:37:09Z</time>
      </trkpt>
      <trkpt lat="46.02967" lon="1.86744">
        <ele>608</ele>
        <time>2022-07-09T14:37:10Z</time>
      </trkpt>
      <trkpt lat="46.02963" lon="1.86743">
        <ele>606.6</ele>
        <time>2022-07-09T14:37:12Z</time>
      </trkpt>
      <trkpt lat="46.02963" lon="1.86743">
        <ele>606</ele>
        <time>2022-07-09T14:37:13Z</time>
      </trkpt>
      <trkpt lat="46.02962" lon="1.86742">
        <ele>605</ele>
        <time>2022-07-09T14:37:15Z</time>
      </trkpt>
      <trkpt lat="46.02953" lon="1.86742">
        <ele>603.8</ele>
        <time>2022-07-09T14:37:18Z</time>
      </trkpt>
      <trkpt lat="46.02952" lon="1.86743">
        <ele>602.8</ele>
        <time>2022-07-09T14:37:19Z</time>
      </trkpt>
      <trkpt lat="46.02952" lon="1.86743">
        <ele>602.2</ele>
        <time>2022-07-09T14:37:20Z</time>
      </trkpt>
      <trkpt lat="46.02952" lon="1.86743">
        <ele>601.2</ele>
        <time>2022-07-09T14:37:22Z</time>
      </trkpt>
      <trkpt lat="46.02945" lon="1.8674">
        <ele>598.6</ele>
        <time>2022-07-09T14:37:34Z</time>
      </trkpt>
      <trkpt lat="46.02943" lon="1.8674">
        <ele>598.2</ele>
        <time>2022-07-09T14:37:36Z</time>
      </trkpt>
      <trkpt lat="46.02943" lon="1.8674">
        <ele>597.6</ele>
        <time>2022-07-09T14:37:38Z</time>
      </trkpt>
      <trkpt lat="46.02939" lon="1.86735">
        <ele>596.6</ele>
        <time>2022-07-09T14:37:42Z</time>
      </trkpt>
      <trkpt lat="46.02938" lon="1.86732">
        <ele>596.2</ele>
        <time>2022-07-09T14:37:43Z</time>
      </trkpt>
      <trkpt lat="46.02937" lon="1.8673">
        <ele>596.2</ele>
        <time>2022-07-09T14:37:44Z</time>
      </trkpt>
      <trkpt lat="46.02937" lon="1.8673">
        <ele>595.2</ele>
        <time>2022-07-09T14:37:45Z</time>
      </trkpt>
      <trkpt lat="46.02937" lon="1.8673">
        <ele>594.2</ele>
        <time>2022-07-09T14:37:47Z</time>
      </trkpt>
      <trkpt lat="46.02935" lon="1.86728">
        <ele>593.6</ele>
        <time>2022-07-09T14:37:49Z</time>
      </trkpt>
      <trkpt lat="46.02935" lon="1.86728">
        <ele>593</ele>
        <time>2022-07-09T14:37:50Z</time>
      </trkpt>
      <trkpt lat="46.02931" lon="1.86722">
        <ele>591.6</ele>
        <time>2022-07-09T14:37:54Z</time>
      </trkpt>
      <trkpt lat="46.02929" lon="1.86719">
        <ele>590.4</ele>
        <time>2022-07-09T14:37:58Z</time>
      </trkpt>
      <trkpt lat="46.02927" lon="1.86716">
        <ele>590.2</ele>
        <time>2022-07-09T14:37:59Z</time>
      </trkpt>
      <trkpt lat="46.02925" lon="1.86711">
        <ele>589.4</ele>
        <time>2022-07-09T14:38:02Z</time>
      </trkpt>
      <trkpt lat="46.02921" lon="1.86704">
        <ele>589</ele>
        <time>2022-07-09T14:38:04Z</time>
      </trkpt>
      <trkpt lat="46.02915" lon="1.86692">
        <ele>588.2</ele>
        <time>2022-07-09T14:38:06Z</time>
      </trkpt>
      <trkpt lat="46.02913" lon="1.86682">
        <ele>587.6</ele>
        <time>2022-07-09T14:38:08Z</time>
      </trkpt>
      <trkpt lat="46.0291" lon="1.86671">
        <ele>586.8</ele>
        <time>2022-07-09T14:38:10Z</time>
      </trkpt>
      <trkpt lat="46.02905" lon="1.86656">
        <ele>585.4</ele>
        <time>2022-07-09T14:38:15Z</time>
      </trkpt>
      <trkpt lat="46.02902" lon="1.86647">
        <ele>584.4</ele>
        <time>2022-07-09T14:38:17Z</time>
      </trkpt>
      <trkpt lat="46.029" lon="1.86638">
        <ele>584.2</ele>
        <time>2022-07-09T14:38:18Z</time>
      </trkpt>
      <trkpt lat="46.02897" lon="1.8663">
        <ele>583.2</ele>
        <time>2022-07-09T14:38:21Z</time>
      </trkpt>
      <trkpt lat="46.02897" lon="1.8663">
        <ele>582.8</ele>
        <time>2022-07-09T14:38:22Z</time>
      </trkpt>
      <trkpt lat="46.02897" lon="1.8663">
        <ele>581.6</ele>
        <time>2022-07-09T14:38:25Z</time>
      </trkpt>
      <trkpt lat="46.02895" lon="1.86625">
        <ele>580.8</ele>
        <time>2022-07-09T14:38:27Z</time>
      </trkpt>
      <trkpt lat="46.0289" lon="1.86619">
        <ele>580.2</ele>
        <time>2022-07-09T14:38:29Z</time>
      </trkpt>
      <trkpt lat="46.02886" lon="1.86612">
        <ele>579.6</ele>
        <time>2022-07-09T14:38:31Z</time>
      </trkpt>
      <trkpt lat="46.02879" lon="1.86608">
        <ele>579</ele>
        <time>2022-07-09T14:38:33Z</time>
      </trkpt>
      <trkpt lat="46.02879" lon="1.86608">
        <ele>578.8</ele>
        <time>2022-07-09T14:38:34Z</time>
      </trkpt>
      <trkpt lat="46.02877" lon="1.86606">
        <ele>577.8</ele>
        <time>2022-07-09T14:38:42Z</time>
      </trkpt>
      <trkpt lat="46.02875" lon="1.86605">
        <ele>577.8</ele>
        <time>2022-07-09T14:38:43Z</time>
      </trkpt>
      <trkpt lat="46.02871" lon="1.86596">
        <ele>576.8</ele>
        <time>2022-07-09T14:38:48Z</time>
      </trkpt>
      <trkpt lat="46.02871" lon="1.86596">
        <ele>576.2</ele>
        <time>2022-07-09T14:38:49Z</time>
      </trkpt>
      <trkpt lat="46.02871" lon="1.86596">
        <ele>575.6</ele>
        <time>2022-07-09T14:38:51Z</time>
      </trkpt>
      <trkpt lat="46.02868" lon="1.86588">
        <ele>574.2</ele>
        <time>2022-07-09T14:38:54Z</time>
      </trkpt>
      <trkpt lat="46.02868" lon="1.86588">
        <ele>573.2</ele>
        <time>2022-07-09T14:38:57Z</time>
      </trkpt>
      <trkpt lat="46.02868" lon="1.86588">
        <ele>573</ele>
        <time>2022-07-09T14:38:58Z</time>
      </trkpt>
      <trkpt lat="46.02862" lon="1.86581">
        <ele>571.4</ele>
        <time>2022-07-09T14:39:15Z</time>
      </trkpt>
      <trkpt lat="46.02861" lon="1.86578">
        <ele>571.4</ele>
        <time>2022-07-09T14:39:18Z</time>
      </trkpt>
      <trkpt lat="46.02861" lon="1.86578">
        <ele>572.4</ele>
        <time>2022-07-09T14:39:26Z</time>
      </trkpt>
      <trkpt lat="46.02861" lon="1.86578">
        <ele>572.6</ele>
        <time>2022-07-09T14:39:27Z</time>
      </trkpt>
      <trkpt lat="46.02849" lon="1.86544">
        <ele>573.6</ele>
        <time>2022-07-09T14:39:39Z</time>
      </trkpt>
      <trkpt lat="46.02846" lon="1.86532">
        <ele>574</ele>
        <time>2022-07-09T14:39:43Z</time>
      </trkpt>
      <trkpt lat="46.02843" lon="1.86516">
        <ele>574.4</ele>
        <time>2022-07-09T14:39:50Z</time>
      </trkpt>
      <trkpt lat="46.02841" lon="1.86495">
        <ele>574.6</ele>
        <time>2022-07-09T14:39:57Z</time>
      </trkpt>
      <trkpt lat="46.02839" lon="1.86493">
        <ele>574.6</ele>
        <time>2022-07-09T14:39:58Z</time>
      </trkpt>
      <trkpt lat="46.02841" lon="1.86484">
        <ele>575.4</ele>
        <time>2022-07-09T14:40:05Z</time>
      </trkpt>
      <trkpt lat="46.02841" lon="1.86484">
        <ele>575.6</ele>
        <time>2022-07-09T14:40:06Z</time>
      </trkpt>
      <trkpt lat="46.02842" lon="1.86473">
        <ele>576.6</ele>
        <time>2022-07-09T14:40:20Z</time>
      </trkpt>
      <trkpt lat="46.02842" lon="1.8647">
        <ele>576.4</ele>
        <time>2022-07-09T14:40:24Z</time>
      </trkpt>
      <trkpt lat="46.02838" lon="1.86448">
        <ele>576.2</ele>
        <time>2022-07-09T14:40:33Z</time>
      </trkpt>
      <trkpt lat="46.02828" lon="1.86412">
        <ele>576.2</ele>
        <time>2022-07-09T14:40:40Z</time>
      </trkpt>
      <trkpt lat="46.02822" lon="1.86392">
        <ele>576.6</ele>
        <time>2022-07-09T14:40:48Z</time>
      </trkpt>
      <trkpt lat="46.02822" lon="1.86389">
        <ele>576.6</ele>
        <time>2022-07-09T14:40:49Z</time>
      </trkpt>
      <trkpt lat="46.02821" lon="1.86382">
        <ele>576.8</ele>
        <time>2022-07-09T14:40:51Z</time>
      </trkpt>
      <trkpt lat="46.0282" lon="1.86373">
        <ele>577</ele>
        <time>2022-07-09T14:40:53Z</time>
      </trkpt>
      <trkpt lat="46.02818" lon="1.86369">
        <ele>577.2</ele>
        <time>2022-07-09T14:40:54Z</time>
      </trkpt>
      <trkpt lat="46.02814" lon="1.86349">
        <ele>577.8</ele>
        <time>2022-07-09T14:41:01Z</time>
      </trkpt>
      <trkpt lat="46.02813" lon="1.86338">
        <ele>578</ele>
        <time>2022-07-09T14:41:05Z</time>
      </trkpt>
      <trkpt lat="46.02813" lon="1.86335">
        <ele>578.2</ele>
        <time>2022-07-09T14:41:06Z</time>
      </trkpt>
      <trkpt lat="46.02815" lon="1.86329">
        <ele>578.4</ele>
        <time>2022-07-09T14:41:08Z</time>
      </trkpt>
      <trkpt lat="46.02815" lon="1.86326">
        <ele>578.4</ele>
        <time>2022-07-09T14:41:10Z</time>
      </trkpt>
      <trkpt lat="46.02817" lon="1.86321">
        <ele>578.8</ele>
        <time>2022-07-09T14:41:13Z</time>
      </trkpt>
      <trkpt lat="46.02818" lon="1.86317">
        <ele>579</ele>
        <time>2022-07-09T14:41:15Z</time>
      </trkpt>
      <trkpt lat="46.0282" lon="1.86308">
        <ele>579.2</ele>
        <time>2022-07-09T14:41:20Z</time>
      </trkpt>
      <trkpt lat="46.0282" lon="1.86308">
        <ele>579.4</ele>
        <time>2022-07-09T14:41:23Z</time>
      </trkpt>
      <trkpt lat="46.02821" lon="1.86304">
        <ele>579.4</ele>
        <time>2022-07-09T14:41:26Z</time>
      </trkpt>
      <trkpt lat="46.02821" lon="1.86301">
        <ele>579.6</ele>
        <time>2022-07-09T14:41:27Z</time>
      </trkpt>
      <trkpt lat="46.02824" lon="1.86292">
        <ele>579.6</ele>
        <time>2022-07-09T14:41:35Z</time>
      </trkpt>
      <trkpt lat="46.02825" lon="1.86282">
        <ele>579.6</ele>
        <time>2022-07-09T14:41:38Z</time>
      </trkpt>
      <trkpt lat="46.02826" lon="1.86279">
        <ele>579.6</ele>
        <time>2022-07-09T14:41:41Z</time>
      </trkpt>
      <trkpt lat="46.02827" lon="1.86272">
        <ele>579.8</ele>
        <time>2022-07-09T14:41:47Z</time>
      </trkpt>
      <trkpt lat="46.02828" lon="1.86271">
        <ele>580</ele>
        <time>2022-07-09T14:41:49Z</time>
      </trkpt>
      <trkpt lat="46.02836" lon="1.86257">
        <ele>580.8</ele>
        <time>2022-07-09T14:41:57Z</time>
      </trkpt>
      <trkpt lat="46.02839" lon="1.86252">
        <ele>582</ele>
        <time>2022-07-09T14:42:04Z</time>
      </trkpt>
      <trkpt lat="46.02842" lon="1.86242">
        <ele>582.6</ele>
        <time>2022-07-09T14:42:08Z</time>
      </trkpt>
      <trkpt lat="46.02844" lon="1.86235">
        <ele>582.8</ele>
        <time>2022-07-09T14:42:10Z</time>
      </trkpt>
      <trkpt lat="46.02845" lon="1.86224">
        <ele>582.8</ele>
        <time>2022-07-09T14:42:13Z</time>
      </trkpt>
      <trkpt lat="46.02842" lon="1.86199">
        <ele>581.8</ele>
        <time>2022-07-09T14:42:18Z</time>
      </trkpt>
      <trkpt lat="46.02831" lon="1.86172">
        <ele>580.4</ele>
        <time>2022-07-09T14:42:22Z</time>
      </trkpt>
      <trkpt lat="46.02829" lon="1.86155">
        <ele>579</ele>
        <time>2022-07-09T14:42:25Z</time>
      </trkpt>
      <trkpt lat="46.02828" lon="1.86148">
        <ele>578.6</ele>
        <time>2022-07-09T14:42:26Z</time>
      </trkpt>
      <trkpt lat="46.02826" lon="1.86142">
        <ele>577.4</ele>
        <time>2022-07-09T14:42:27Z</time>
      </trkpt>
      <trkpt lat="46.02819" lon="1.86113">
        <ele>576.2</ele>
        <time>2022-07-09T14:42:31Z</time>
      </trkpt>
      <trkpt lat="46.02818" lon="1.86106">
        <ele>576</ele>
        <time>2022-07-09T14:42:32Z</time>
      </trkpt>
      <trkpt lat="46.02815" lon="1.86077">
        <ele>575.2</ele>
        <time>2022-07-09T14:42:36Z</time>
      </trkpt>
      <trkpt lat="46.02814" lon="1.8607">
        <ele>575</ele>
        <time>2022-07-09T14:42:37Z</time>
      </trkpt>
      <trkpt lat="46.02812" lon="1.86043">
        <ele>574</ele>
        <time>2022-07-09T14:42:41Z</time>
      </trkpt>
      <trkpt lat="46.02811" lon="1.86022">
        <ele>573.2</ele>
        <time>2022-07-09T14:42:44Z</time>
      </trkpt>
      <trkpt lat="46.02811" lon="1.86015">
        <ele>572.2</ele>
        <time>2022-07-09T14:42:45Z</time>
      </trkpt>
      <trkpt lat="46.02811" lon="1.85991">
        <ele>571</ele>
        <time>2022-07-09T14:42:48Z</time>
      </trkpt>
      <trkpt lat="46.0281" lon="1.85976">
        <ele>570.2</ele>
        <time>2022-07-09T14:42:50Z</time>
      </trkpt>
      <trkpt lat="46.02809" lon="1.8597">
        <ele>569.8</ele>
        <time>2022-07-09T14:42:51Z</time>
      </trkpt>
      <trkpt lat="46.02808" lon="1.85964">
        <ele>568.8</ele>
        <time>2022-07-09T14:42:52Z</time>
      </trkpt>
      <trkpt lat="46.02802" lon="1.85954">
        <ele>567.4</ele>
        <time>2022-07-09T14:42:54Z</time>
      </trkpt>
      <trkpt lat="46.02801" lon="1.8595">
        <ele>566.6</ele>
        <time>2022-07-09T14:42:55Z</time>
      </trkpt>
      <trkpt lat="46.02798" lon="1.85941">
        <ele>566</ele>
        <time>2022-07-09T14:42:57Z</time>
      </trkpt>
      <trkpt lat="46.02795" lon="1.85935">
        <ele>565.8</ele>
        <time>2022-07-09T14:42:58Z</time>
      </trkpt>
      <trkpt lat="46.02791" lon="1.85929">
        <ele>565.2</ele>
        <time>2022-07-09T14:42:59Z</time>
      </trkpt>
      <trkpt lat="46.02788" lon="1.85924">
        <ele>564.6</ele>
        <time>2022-07-09T14:43:00Z</time>
      </trkpt>
      <trkpt lat="46.0278" lon="1.85911">
        <ele>562.6</ele>
        <time>2022-07-09T14:43:02Z</time>
      </trkpt>
      <trkpt lat="46.02776" lon="1.85905">
        <ele>562.2</ele>
        <time>2022-07-09T14:43:03Z</time>
      </trkpt>
      <trkpt lat="46.02768" lon="1.85896">
        <ele>561.2</ele>
        <time>2022-07-09T14:43:05Z</time>
      </trkpt>
      <trkpt lat="46.02765" lon="1.85894">
        <ele>559.6</ele>
        <time>2022-07-09T14:43:06Z</time>
      </trkpt>
      <trkpt lat="46.02756" lon="1.8589">
        <ele>558.8</ele>
        <time>2022-07-09T14:43:08Z</time>
      </trkpt>
      <trkpt lat="46.02745" lon="1.85884">
        <ele>557.8</ele>
        <time>2022-07-09T14:43:10Z</time>
      </trkpt>
      <trkpt lat="46.02741" lon="1.85881">
        <ele>556.8</ele>
        <time>2022-07-09T14:43:11Z</time>
      </trkpt>
      <trkpt lat="46.02734" lon="1.85873">
        <ele>555.6</ele>
        <time>2022-07-09T14:43:13Z</time>
      </trkpt>
      <trkpt lat="46.0273" lon="1.85864">
        <ele>554</ele>
        <time>2022-07-09T14:43:15Z</time>
      </trkpt>
      <trkpt lat="46.02729" lon="1.85851">
        <ele>553</ele>
        <time>2022-07-09T14:43:17Z</time>
      </trkpt>
      <trkpt lat="46.02727" lon="1.85844">
        <ele>551.4</ele>
        <time>2022-07-09T14:43:20Z</time>
      </trkpt>
      <trkpt lat="46.02725" lon="1.85846">
        <ele>549.8</ele>
        <time>2022-07-09T14:43:22Z</time>
      </trkpt>
      <trkpt lat="46.02723" lon="1.85847">
        <ele>549.6</ele>
        <time>2022-07-09T14:43:23Z</time>
      </trkpt>
      <trkpt lat="46.0272" lon="1.85848">
        <ele>548.4</ele>
        <time>2022-07-09T14:43:25Z</time>
      </trkpt>
      <trkpt lat="46.02718" lon="1.85849">
        <ele>548.2</ele>
        <time>2022-07-09T14:43:26Z</time>
      </trkpt>
      <trkpt lat="46.02703" lon="1.85849">
        <ele>548</ele>
        <time>2022-07-09T14:43:35Z</time>
      </trkpt>
      <trkpt lat="46.02703" lon="1.85849">
        <ele>548.2</ele>
        <time>2022-07-09T14:43:37Z</time>
      </trkpt>
      <trkpt lat="46.02699" lon="1.85848">
        <ele>549.4</ele>
        <time>2022-07-09T14:44:16Z</time>
      </trkpt>
      <trkpt lat="46.02697" lon="1.85848">
        <ele>549.4</ele>
        <time>2022-07-09T14:44:17Z</time>
      </trkpt>
      <trkpt lat="46.02682" lon="1.85852">
        <ele>549.2</ele>
        <time>2022-07-09T14:44:22Z</time>
      </trkpt>
      <trkpt lat="46.02658" lon="1.85869">
        <ele>548.6</ele>
        <time>2022-07-09T14:44:29Z</time>
      </trkpt>
      <trkpt lat="46.0264" lon="1.85897">
        <ele>548</ele>
        <time>2022-07-09T14:44:35Z</time>
      </trkpt>
      <trkpt lat="46.0263" lon="1.85923">
        <ele>547.8</ele>
        <time>2022-07-09T14:44:39Z</time>
      </trkpt>
      <trkpt lat="46.02623" lon="1.85937">
        <ele>547.4</ele>
        <time>2022-07-09T14:44:41Z</time>
      </trkpt>
      <trkpt lat="46.02613" lon="1.85948">
        <ele>547</ele>
        <time>2022-07-09T14:44:43Z</time>
      </trkpt>
      <trkpt lat="46.026" lon="1.85956">
        <ele>546.2</ele>
        <time>2022-07-09T14:44:45Z</time>
      </trkpt>
      <trkpt lat="46.02586" lon="1.85959">
        <ele>545.6</ele>
        <time>2022-07-09T14:44:47Z</time>
      </trkpt>
      <trkpt lat="46.02578" lon="1.85957">
        <ele>545.2</ele>
        <time>2022-07-09T14:44:48Z</time>
      </trkpt>
      <trkpt lat="46.02546" lon="1.85948">
        <ele>543.8</ele>
        <time>2022-07-09T14:44:52Z</time>
      </trkpt>
      <trkpt lat="46.0253" lon="1.85947">
        <ele>543.4</ele>
        <time>2022-07-09T14:44:54Z</time>
      </trkpt>
      <trkpt lat="46.02515" lon="1.85949">
        <ele>542.8</ele>
        <time>2022-07-09T14:44:56Z</time>
      </trkpt>
      <trkpt lat="46.02508" lon="1.85952">
        <ele>542.4</ele>
        <time>2022-07-09T14:44:57Z</time>
      </trkpt>
      <trkpt lat="46.02501" lon="1.85955">
        <ele>542.2</ele>
        <time>2022-07-09T14:44:58Z</time>
      </trkpt>
      <trkpt lat="46.02495" lon="1.8596">
        <ele>541.8</ele>
        <time>2022-07-09T14:44:59Z</time>
      </trkpt>
      <trkpt lat="46.02468" lon="1.85983">
        <ele>541</ele>
        <time>2022-07-09T14:45:04Z</time>
      </trkpt>
      <trkpt lat="46.02447" lon="1.86">
        <ele>540.8</ele>
        <time>2022-07-09T14:45:08Z</time>
      </trkpt>
      <trkpt lat="46.0243" lon="1.86014">
        <ele>540.4</ele>
        <time>2022-07-09T14:45:11Z</time>
      </trkpt>
      <trkpt lat="46.02418" lon="1.86024">
        <ele>540</ele>
        <time>2022-07-09T14:45:13Z</time>
      </trkpt>
      <trkpt lat="46.02397" lon="1.8604">
        <ele>539.6</ele>
        <time>2022-07-09T14:45:16Z</time>
      </trkpt>
      <trkpt lat="46.02365" lon="1.86058">
        <ele>538.2</ele>
        <time>2022-07-09T14:45:20Z</time>
      </trkpt>
      <trkpt lat="46.02341" lon="1.86069">
        <ele>537.2</ele>
        <time>2022-07-09T14:45:23Z</time>
      </trkpt>
      <trkpt lat="46.02335" lon="1.86076">
        <ele>536.6</ele>
        <time>2022-07-09T14:45:24Z</time>
      </trkpt>
      <trkpt lat="46.0233" lon="1.86083">
        <ele>536.4</ele>
        <time>2022-07-09T14:45:25Z</time>
      </trkpt>
      <trkpt lat="46.02326" lon="1.8609">
        <ele>536</ele>
        <time>2022-07-09T14:45:26Z</time>
      </trkpt>
      <trkpt lat="46.02323" lon="1.86099">
        <ele>535.4</ele>
        <time>2022-07-09T14:45:27Z</time>
      </trkpt>
      <trkpt lat="46.02315" lon="1.86137">
        <ele>535.2</ele>
        <time>2022-07-09T14:45:32Z</time>
      </trkpt>
      <trkpt lat="46.02312" lon="1.86148">
        <ele>535.2</ele>
        <time>2022-07-09T14:45:34Z</time>
      </trkpt>
      <trkpt lat="46.02304" lon="1.86163">
        <ele>535.4</ele>
        <time>2022-07-09T14:45:37Z</time>
      </trkpt>
      <trkpt lat="46.02299" lon="1.86172">
        <ele>535.6</ele>
        <time>2022-07-09T14:45:39Z</time>
      </trkpt>
      <trkpt lat="46.02283" lon="1.86199">
        <ele>536</ele>
        <time>2022-07-09T14:45:45Z</time>
      </trkpt>
      <trkpt lat="46.02263" lon="1.86231">
        <ele>537</ele>
        <time>2022-07-09T14:45:53Z</time>
      </trkpt>
      <trkpt lat="46.02259" lon="1.86238">
        <ele>537.4</ele>
        <time>2022-07-09T14:45:55Z</time>
      </trkpt>
      <trkpt lat="46.02248" lon="1.86255">
        <ele>538</ele>
        <time>2022-07-09T14:46:00Z</time>
      </trkpt>
      <trkpt lat="46.02243" lon="1.86264">
        <ele>538.4</ele>
        <time>2022-07-09T14:46:03Z</time>
      </trkpt>
      <trkpt lat="46.02239" lon="1.86273">
        <ele>538.8</ele>
        <time>2022-07-09T14:46:06Z</time>
      </trkpt>
      <trkpt lat="46.02232" lon="1.86284">
        <ele>539.4</ele>
        <time>2022-07-09T14:46:10Z</time>
      </trkpt>
      <trkpt lat="46.02228" lon="1.86295">
        <ele>540.2</ele>
        <time>2022-07-09T14:46:14Z</time>
      </trkpt>
      <trkpt lat="46.02225" lon="1.86303">
        <ele>540.6</ele>
        <time>2022-07-09T14:46:17Z</time>
      </trkpt>
      <trkpt lat="46.02222" lon="1.86316">
        <ele>541.4</ele>
        <time>2022-07-09T14:46:22Z</time>
      </trkpt>
      <trkpt lat="46.02221" lon="1.86321">
        <ele>541.8</ele>
        <time>2022-07-09T14:46:24Z</time>
      </trkpt>
      <trkpt lat="46.02221" lon="1.86324">
        <ele>542</ele>
        <time>2022-07-09T14:46:25Z</time>
      </trkpt>
      <trkpt lat="46.02219" lon="1.86338">
        <ele>542.8</ele>
        <time>2022-07-09T14:46:30Z</time>
      </trkpt>
      <trkpt lat="46.02219" lon="1.8634">
        <ele>543</ele>
        <time>2022-07-09T14:46:31Z</time>
      </trkpt>
      <trkpt lat="46.02214" lon="1.86353">
        <ele>544</ele>
        <time>2022-07-09T14:46:37Z</time>
      </trkpt>
      <trkpt lat="46.02213" lon="1.86355">
        <ele>544.2</ele>
        <time>2022-07-09T14:46:38Z</time>
      </trkpt>
      <trkpt lat="46.02207" lon="1.86366">
        <ele>545.2</ele>
        <time>2022-07-09T14:46:43Z</time>
      </trkpt>
      <trkpt lat="46.02204" lon="1.8637">
        <ele>545.4</ele>
        <time>2022-07-09T14:46:45Z</time>
      </trkpt>
      <trkpt lat="46.02203" lon="1.86372">
        <ele>545.6</ele>
        <time>2022-07-09T14:46:46Z</time>
      </trkpt>
      <trkpt lat="46.02198" lon="1.86376">
        <ele>546.2</ele>
        <time>2022-07-09T14:46:49Z</time>
      </trkpt>
      <trkpt lat="46.02194" lon="1.86382">
        <ele>546.6</ele>
        <time>2022-07-09T14:46:52Z</time>
      </trkpt>
      <trkpt lat="46.02192" lon="1.86383">
        <ele>546.6</ele>
        <time>2022-07-09T14:46:53Z</time>
      </trkpt>
      <trkpt lat="46.02185" lon="1.86386">
        <ele>546.8</ele>
        <time>2022-07-09T14:46:56Z</time>
      </trkpt>
      <trkpt lat="46.02171" lon="1.86394">
        <ele>547.4</ele>
        <time>2022-07-09T14:47:02Z</time>
      </trkpt>
      <trkpt lat="46.02168" lon="1.86395">
        <ele>547.8</ele>
        <time>2022-07-09T14:47:03Z</time>
      </trkpt>
      <trkpt lat="46.02146" lon="1.86407">
        <ele>548.2</ele>
        <time>2022-07-09T14:47:10Z</time>
      </trkpt>
      <trkpt lat="46.02141" lon="1.86412">
        <ele>548.2</ele>
        <time>2022-07-09T14:47:12Z</time>
      </trkpt>
      <trkpt lat="46.02121" lon="1.86435">
        <ele>548.8</ele>
        <time>2022-07-09T14:47:20Z</time>
      </trkpt>
      <trkpt lat="46.0211" lon="1.86448">
        <ele>549</ele>
        <time>2022-07-09T14:47:24Z</time>
      </trkpt>
      <trkpt lat="46.02096" lon="1.86461">
        <ele>549.4</ele>
        <time>2022-07-09T14:47:29Z</time>
      </trkpt>
      <trkpt lat="46.02071" lon="1.86478">
        <ele>549.2</ele>
        <time>2022-07-09T14:47:36Z</time>
      </trkpt>
      <trkpt lat="46.02053" lon="1.86487">
        <ele>549</ele>
        <time>2022-07-09T14:47:40Z</time>
      </trkpt>
      <trkpt lat="46.02038" lon="1.86495">
        <ele>548.6</ele>
        <time>2022-07-09T14:47:43Z</time>
      </trkpt>
      <trkpt lat="46.02008" lon="1.86511">
        <ele>548</ele>
        <time>2022-07-09T14:47:49Z</time>
      </trkpt>
      <trkpt lat="46.02003" lon="1.86514">
        <ele>548</ele>
        <time>2022-07-09T14:47:50Z</time>
      </trkpt>
      <trkpt lat="46.01998" lon="1.86517">
        <ele>547.8</ele>
        <time>2022-07-09T14:47:51Z</time>
      </trkpt>
      <trkpt lat="46.01967" lon="1.86534">
        <ele>547.4</ele>
        <time>2022-07-09T14:47:57Z</time>
      </trkpt>
      <trkpt lat="46.01951" lon="1.86543">
        <ele>546.8</ele>
        <time>2022-07-09T14:48:00Z</time>
      </trkpt>
      <trkpt lat="46.01917" lon="1.86562">
        <ele>545.8</ele>
        <time>2022-07-09T14:48:06Z</time>
      </trkpt>
      <trkpt lat="46.01911" lon="1.86566">
        <ele>545.8</ele>
        <time>2022-07-09T14:48:07Z</time>
      </trkpt>
      <trkpt lat="46.01892" lon="1.86576">
        <ele>544.8</ele>
        <time>2022-07-09T14:48:10Z</time>
      </trkpt>
      <trkpt lat="46.01886" lon="1.86579">
        <ele>544.6</ele>
        <time>2022-07-09T14:48:11Z</time>
      </trkpt>
      <trkpt lat="46.01867" lon="1.86587">
        <ele>543.8</ele>
        <time>2022-07-09T14:48:14Z</time>
      </trkpt>
      <trkpt lat="46.01861" lon="1.86589">
        <ele>543.6</ele>
        <time>2022-07-09T14:48:15Z</time>
      </trkpt>
      <trkpt lat="46.01821" lon="1.866">
        <ele>542.8</ele>
        <time>2022-07-09T14:48:21Z</time>
      </trkpt>
      <trkpt lat="46.01815" lon="1.86602">
        <ele>542.6</ele>
        <time>2022-07-09T14:48:22Z</time>
      </trkpt>
      <trkpt lat="46.01803" lon="1.86608">
        <ele>542.2</ele>
        <time>2022-07-09T14:48:24Z</time>
      </trkpt>
      <trkpt lat="46.01793" lon="1.86617">
        <ele>542.2</ele>
        <time>2022-07-09T14:48:26Z</time>
      </trkpt>
      <trkpt lat="46.01768" lon="1.86647">
        <ele>541.8</ele>
        <time>2022-07-09T14:48:32Z</time>
      </trkpt>
      <trkpt lat="46.01744" lon="1.86675">
        <ele>541.8</ele>
        <time>2022-07-09T14:48:39Z</time>
      </trkpt>
      <trkpt lat="46.01738" lon="1.86683">
        <ele>542</ele>
        <time>2022-07-09T14:48:41Z</time>
      </trkpt>
      <trkpt lat="46.01724" lon="1.86701">
        <ele>542.6</ele>
        <time>2022-07-09T14:48:46Z</time>
      </trkpt>
      <trkpt lat="46.01722" lon="1.86703">
        <ele>542.6</ele>
        <time>2022-07-09T14:48:47Z</time>
      </trkpt>
      <trkpt lat="46.017" lon="1.8673">
        <ele>543</ele>
        <time>2022-07-09T14:48:55Z</time>
      </trkpt>
      <trkpt lat="46.01677" lon="1.86761">
        <ele>544</ele>
        <time>2022-07-09T14:49:04Z</time>
      </trkpt>
      <trkpt lat="46.01674" lon="1.86764">
        <ele>544.2</ele>
        <time>2022-07-09T14:49:05Z</time>
      </trkpt>
      <trkpt lat="46.01655" lon="1.86796">
        <ele>545</ele>
        <time>2022-07-09T14:49:14Z</time>
      </trkpt>
      <trkpt lat="46.01653" lon="1.868">
        <ele>545</ele>
        <time>2022-07-09T14:49:15Z</time>
      </trkpt>
      <trkpt lat="46.01634" lon="1.86843">
        <ele>546</ele>
        <time>2022-07-09T14:49:25Z</time>
      </trkpt>
      <trkpt lat="46.01625" lon="1.86862">
        <ele>546.4</ele>
        <time>2022-07-09T14:49:29Z</time>
      </trkpt>
      <trkpt lat="46.01614" lon="1.86885">
        <ele>546.6</ele>
        <time>2022-07-09T14:49:34Z</time>
      </trkpt>
      <trkpt lat="46.01607" lon="1.869">
        <ele>547</ele>
        <time>2022-07-09T14:49:38Z</time>
      </trkpt>
      <trkpt lat="46.016" lon="1.86921">
        <ele>547.2</ele>
        <time>2022-07-09T14:49:42Z</time>
      </trkpt>
      <trkpt lat="46.0159" lon="1.86944">
        <ele>547.4</ele>
        <time>2022-07-09T14:49:46Z</time>
      </trkpt>
      <trkpt lat="46.01584" lon="1.86956">
        <ele>547.2</ele>
        <time>2022-07-09T14:49:48Z</time>
      </trkpt>
      <trkpt lat="46.01575" lon="1.86967">
        <ele>547.2</ele>
        <time>2022-07-09T14:49:50Z</time>
      </trkpt>
      <trkpt lat="46.01569" lon="1.86971">
        <ele>547</ele>
        <time>2022-07-09T14:49:51Z</time>
      </trkpt>
      <trkpt lat="46.0156" lon="1.86977">
        <ele>546.6</ele>
        <time>2022-07-09T14:49:53Z</time>
      </trkpt>
      <trkpt lat="46.01539" lon="1.86986">
        <ele>546.2</ele>
        <time>2022-07-09T14:49:57Z</time>
      </trkpt>
      <trkpt lat="46.01533" lon="1.86987">
        <ele>546.2</ele>
        <time>2022-07-09T14:49:58Z</time>
      </trkpt>
      <trkpt lat="46.01527" lon="1.86988">
        <ele>546</ele>
        <time>2022-07-09T14:49:59Z</time>
      </trkpt>
      <trkpt lat="46.01515" lon="1.86994">
        <ele>545.6</ele>
        <time>2022-07-09T14:50:01Z</time>
      </trkpt>
      <trkpt lat="46.01511" lon="1.86998">
        <ele>545.4</ele>
        <time>2022-07-09T14:50:02Z</time>
      </trkpt>
      <trkpt lat="46.01506" lon="1.87003">
        <ele>545.4</ele>
        <time>2022-07-09T14:50:03Z</time>
      </trkpt>
      <trkpt lat="46.01501" lon="1.87009">
        <ele>545.2</ele>
        <time>2022-07-09T14:50:04Z</time>
      </trkpt>
      <trkpt lat="46.0149" lon="1.87016">
        <ele>544.8</ele>
        <time>2022-07-09T14:50:06Z</time>
      </trkpt>
      <trkpt lat="46.01485" lon="1.8702">
        <ele>544.8</ele>
        <time>2022-07-09T14:50:07Z</time>
      </trkpt>
      <trkpt lat="46.01456" lon="1.87049">
        <ele>544.2</ele>
        <time>2022-07-09T14:50:11Z</time>
      </trkpt>
      <trkpt lat="46.01425" lon="1.87077">
        <ele>543</ele>
        <time>2022-07-09T14:50:15Z</time>
      </trkpt>
      <trkpt lat="46.01409" lon="1.8709">
        <ele>542.2</ele>
        <time>2022-07-09T14:50:17Z</time>
      </trkpt>
      <trkpt lat="46.01399" lon="1.87093">
        <ele>541.8</ele>
        <time>2022-07-09T14:50:18Z</time>
      </trkpt>
      <trkpt lat="46.0139" lon="1.87095">
        <ele>541.8</ele>
        <time>2022-07-09T14:50:19Z</time>
      </trkpt>
      <trkpt lat="46.0137" lon="1.87093">
        <ele>541.4</ele>
        <time>2022-07-09T14:50:21Z</time>
      </trkpt>
      <trkpt lat="46.01362" lon="1.87089">
        <ele>540.6</ele>
        <time>2022-07-09T14:50:22Z</time>
      </trkpt>
      <trkpt lat="46.01353" lon="1.87083">
        <ele>540.2</ele>
        <time>2022-07-09T14:50:23Z</time>
      </trkpt>
      <trkpt lat="46.01345" lon="1.87077">
        <ele>539.4</ele>
        <time>2022-07-09T14:50:24Z</time>
      </trkpt>
      <trkpt lat="46.01337" lon="1.87073">
        <ele>538.8</ele>
        <time>2022-07-09T14:50:25Z</time>
      </trkpt>
      <trkpt lat="46.01321" lon="1.87072">
        <ele>537.8</ele>
        <time>2022-07-09T14:50:27Z</time>
      </trkpt>
      <trkpt lat="46.01312" lon="1.87072">
        <ele>537.4</ele>
        <time>2022-07-09T14:50:28Z</time>
      </trkpt>
      <trkpt lat="46.01305" lon="1.87076">
        <ele>536.8</ele>
        <time>2022-07-09T14:50:29Z</time>
      </trkpt>
      <trkpt lat="46.01299" lon="1.87084">
        <ele>536.2</ele>
        <time>2022-07-09T14:50:30Z</time>
      </trkpt>
      <trkpt lat="46.01296" lon="1.87098">
        <ele>535.4</ele>
        <time>2022-07-09T14:50:31Z</time>
      </trkpt>
      <trkpt lat="46.01292" lon="1.87114">
        <ele>534.8</ele>
        <time>2022-07-09T14:50:32Z</time>
      </trkpt>
      <trkpt lat="46.0129" lon="1.87128">
        <ele>533.8</ele>
        <time>2022-07-09T14:50:33Z</time>
      </trkpt>
      <trkpt lat="46.01287" lon="1.87155">
        <ele>532.6</ele>
        <time>2022-07-09T14:50:35Z</time>
      </trkpt>
      <trkpt lat="46.01282" lon="1.87183">
        <ele>531.6</ele>
        <time>2022-07-09T14:50:37Z</time>
      </trkpt>
      <trkpt lat="46.01279" lon="1.87197">
        <ele>530.8</ele>
        <time>2022-07-09T14:50:38Z</time>
      </trkpt>
      <trkpt lat="46.01271" lon="1.87221">
        <ele>529.6</ele>
        <time>2022-07-09T14:50:40Z</time>
      </trkpt>
      <trkpt lat="46.01255" lon="1.87231">
        <ele>528.6</ele>
        <time>2022-07-09T14:50:42Z</time>
      </trkpt>
      <trkpt lat="46.01229" lon="1.8724">
        <ele>526.8</ele>
        <time>2022-07-09T14:50:45Z</time>
      </trkpt>
      <trkpt lat="46.01206" lon="1.87246">
        <ele>525.8</ele>
        <time>2022-07-09T14:50:48Z</time>
      </trkpt>
      <trkpt lat="46.01175" lon="1.87255">
        <ele>525</ele>
        <time>2022-07-09T14:50:53Z</time>
      </trkpt>
      <trkpt lat="46.01154" lon="1.87261">
        <ele>525.2</ele>
        <time>2022-07-09T14:50:58Z</time>
      </trkpt>
      <trkpt lat="46.01134" lon="1.87266">
        <ele>526</ele>
        <time>2022-07-09T14:51:04Z</time>
      </trkpt>
      <trkpt lat="46.01116" lon="1.87271">
        <ele>526.4</ele>
        <time>2022-07-09T14:51:10Z</time>
      </trkpt>
      <trkpt lat="46.01104" lon="1.87275">
        <ele>526.8</ele>
        <time>2022-07-09T14:51:14Z</time>
      </trkpt>
      <trkpt lat="46.011" lon="1.87275">
        <ele>527</ele>
        <time>2022-07-09T14:51:16Z</time>
      </trkpt>
      <trkpt lat="46.0109" lon="1.87283">
        <ele>527.6</ele>
        <time>2022-07-09T14:51:21Z</time>
      </trkpt>
      <trkpt lat="46.01083" lon="1.87291">
        <ele>528</ele>
        <time>2022-07-09T14:51:24Z</time>
      </trkpt>
      <trkpt lat="46.01075" lon="1.87302">
        <ele>529</ele>
        <time>2022-07-09T14:51:29Z</time>
      </trkpt>
      <trkpt lat="46.01073" lon="1.87304">
        <ele>529.2</ele>
        <time>2022-07-09T14:51:30Z</time>
      </trkpt>
      <trkpt lat="46.01066" lon="1.87317">
        <ele>529.6</ele>
        <time>2022-07-09T14:51:35Z</time>
      </trkpt>
      <trkpt lat="46.01057" lon="1.87329">
        <ele>530</ele>
        <time>2022-07-09T14:51:41Z</time>
      </trkpt>
      <trkpt lat="46.0105" lon="1.87338">
        <ele>530.2</ele>
        <time>2022-07-09T14:51:45Z</time>
      </trkpt>
      <trkpt lat="46.01044" lon="1.87347">
        <ele>530.8</ele>
        <time>2022-07-09T14:51:49Z</time>
      </trkpt>
      <trkpt lat="46.01038" lon="1.87353">
        <ele>531.2</ele>
        <time>2022-07-09T14:51:53Z</time>
      </trkpt>
      <trkpt lat="46.01033" lon="1.87359">
        <ele>531.8</ele>
        <time>2022-07-09T14:51:56Z</time>
      </trkpt>
      <trkpt lat="46.01028" lon="1.87366">
        <ele>532.4</ele>
        <time>2022-07-09T14:52:00Z</time>
      </trkpt>
      <trkpt lat="46.01022" lon="1.87375">
        <ele>533.2</ele>
        <time>2022-07-09T14:52:04Z</time>
      </trkpt>
      <trkpt lat="46.01018" lon="1.87379">
        <ele>533.4</ele>
        <time>2022-07-09T14:52:06Z</time>
      </trkpt>
      <trkpt lat="46.01012" lon="1.87385">
        <ele>534.2</ele>
        <time>2022-07-09T14:52:10Z</time>
      </trkpt>
      <trkpt lat="46.01007" lon="1.87391">
        <ele>534.4</ele>
        <time>2022-07-09T14:52:13Z</time>
      </trkpt>
      <trkpt lat="46.01005" lon="1.87393">
        <ele>534.6</ele>
        <time>2022-07-09T14:52:14Z</time>
      </trkpt>
      <trkpt lat="46.01004" lon="1.87396">
        <ele>534.6</ele>
        <time>2022-07-09T14:52:15Z</time>
      </trkpt>
      <trkpt lat="46.01002" lon="1.87397">
        <ele>534.8</ele>
        <time>2022-07-09T14:52:16Z</time>
      </trkpt>
      <trkpt lat="46.00997" lon="1.87405">
        <ele>535</ele>
        <time>2022-07-09T14:52:19Z</time>
      </trkpt>
      <trkpt lat="46.0099" lon="1.87411">
        <ele>535.4</ele>
        <time>2022-07-09T14:52:22Z</time>
      </trkpt>
      <trkpt lat="46.00982" lon="1.87421">
        <ele>536</ele>
        <time>2022-07-09T14:52:26Z</time>
      </trkpt>
      <trkpt lat="46.00979" lon="1.87429">
        <ele>536.4</ele>
        <time>2022-07-09T14:52:30Z</time>
      </trkpt>
      <trkpt lat="46.00972" lon="1.87436">
        <ele>536.8</ele>
        <time>2022-07-09T14:52:33Z</time>
      </trkpt>
      <trkpt lat="46.00962" lon="1.87448">
        <ele>537.4</ele>
        <time>2022-07-09T14:52:39Z</time>
      </trkpt>
      <trkpt lat="46.00961" lon="1.8745">
        <ele>537.6</ele>
        <time>2022-07-09T14:52:40Z</time>
      </trkpt>
      <trkpt lat="46.00954" lon="1.87465">
        <ele>538</ele>
        <time>2022-07-09T14:52:45Z</time>
      </trkpt>
      <trkpt lat="46.00951" lon="1.87472">
        <ele>538.2</ele>
        <time>2022-07-09T14:52:47Z</time>
      </trkpt>
      <trkpt lat="46.0095" lon="1.87477">
        <ele>538.6</ele>
        <time>2022-07-09T14:52:48Z</time>
      </trkpt>
      <trkpt lat="46.00945" lon="1.87483">
        <ele>538.8</ele>
        <time>2022-07-09T14:52:50Z</time>
      </trkpt>
      <trkpt lat="46.00942" lon="1.87489">
        <ele>539.2</ele>
        <time>2022-07-09T14:52:52Z</time>
      </trkpt>
      <trkpt lat="46.00938" lon="1.87498">
        <ele>539.8</ele>
        <time>2022-07-09T14:52:55Z</time>
      </trkpt>
      <trkpt lat="46.00936" lon="1.87504">
        <ele>539.8</ele>
        <time>2022-07-09T14:52:57Z</time>
      </trkpt>
      <trkpt lat="46.00925" lon="1.87522">
        <ele>540.4</ele>
        <time>2022-07-09T14:53:03Z</time>
      </trkpt>
      <trkpt lat="46.0092" lon="1.87528">
        <ele>540.6</ele>
        <time>2022-07-09T14:53:05Z</time>
      </trkpt>
      <trkpt lat="46.00911" lon="1.87541">
        <ele>541</ele>
        <time>2022-07-09T14:53:10Z</time>
      </trkpt>
      <trkpt lat="46.009" lon="1.87552">
        <ele>541.6</ele>
        <time>2022-07-09T14:53:16Z</time>
      </trkpt>
      <trkpt lat="46.00889" lon="1.87561">
        <ele>542.2</ele>
        <time>2022-07-09T14:53:21Z</time>
      </trkpt>
      <trkpt lat="46.00881" lon="1.87575">
        <ele>542.6</ele>
        <time>2022-07-09T14:53:25Z</time>
      </trkpt>
      <trkpt lat="46.00873" lon="1.87586">
        <ele>543</ele>
        <time>2022-07-09T14:53:29Z</time>
      </trkpt>
      <trkpt lat="46.0087" lon="1.87591">
        <ele>543.2</ele>
        <time>2022-07-09T14:53:31Z</time>
      </trkpt>
      <trkpt lat="46.00866" lon="1.87597">
        <ele>543.4</ele>
        <time>2022-07-09T14:53:34Z</time>
      </trkpt>
      <trkpt lat="46.0086" lon="1.87605">
        <ele>543.6</ele>
        <time>2022-07-09T14:53:37Z</time>
      </trkpt>
      <trkpt lat="46.00856" lon="1.87607">
        <ele>543.8</ele>
        <time>2022-07-09T14:53:39Z</time>
      </trkpt>
      <trkpt lat="46.00854" lon="1.87609">
        <ele>543.8</ele>
        <time>2022-07-09T14:53:40Z</time>
      </trkpt>
      <trkpt lat="46.00847" lon="1.87615">
        <ele>544.6</ele>
        <time>2022-07-09T14:53:43Z</time>
      </trkpt>
      <trkpt lat="46.00845" lon="1.87616">
        <ele>544.8</ele>
        <time>2022-07-09T14:53:44Z</time>
      </trkpt>
      <trkpt lat="46.00837" lon="1.87626">
        <ele>545.4</ele>
        <time>2022-07-09T14:53:48Z</time>
      </trkpt>
      <trkpt lat="46.00828" lon="1.87634">
        <ele>546</ele>
        <time>2022-07-09T14:53:52Z</time>
      </trkpt>
      <trkpt lat="46.00819" lon="1.87642">
        <ele>546.6</ele>
        <time>2022-07-09T14:53:56Z</time>
      </trkpt>
      <trkpt lat="46.00817" lon="1.87643">
        <ele>546.8</ele>
        <time>2022-07-09T14:53:57Z</time>
      </trkpt>
      <trkpt lat="46.00814" lon="1.87645">
        <ele>547.2</ele>
        <time>2022-07-09T14:53:59Z</time>
      </trkpt>
      <trkpt lat="46.00811" lon="1.87646">
        <ele>547.2</ele>
        <time>2022-07-09T14:54:00Z</time>
      </trkpt>
      <trkpt lat="46.00796" lon="1.87655">
        <ele>548.2</ele>
        <time>2022-07-09T14:54:07Z</time>
      </trkpt>
      <trkpt lat="46.00794" lon="1.87657">
        <ele>548.4</ele>
        <time>2022-07-09T14:54:08Z</time>
      </trkpt>
      <trkpt lat="46.00782" lon="1.87668">
        <ele>549</ele>
        <time>2022-07-09T14:54:14Z</time>
      </trkpt>
      <trkpt lat="46.0078" lon="1.87669">
        <ele>549.2</ele>
        <time>2022-07-09T14:54:15Z</time>
      </trkpt>
      <trkpt lat="46.0077" lon="1.87672">
        <ele>549.8</ele>
        <time>2022-07-09T14:54:20Z</time>
      </trkpt>
      <trkpt lat="46.00765" lon="1.87671">
        <ele>550.2</ele>
        <time>2022-07-09T14:54:22Z</time>
      </trkpt>
      <trkpt lat="46.00763" lon="1.8767">
        <ele>550.4</ele>
        <time>2022-07-09T14:54:23Z</time>
      </trkpt>
      <trkpt lat="46.00759" lon="1.87669">
        <ele>550.6</ele>
        <time>2022-07-09T14:54:25Z</time>
      </trkpt>
      <trkpt lat="46.00743" lon="1.87657">
        <ele>551.4</ele>
        <time>2022-07-09T14:54:31Z</time>
      </trkpt>
      <trkpt lat="46.0074" lon="1.87656">
        <ele>551.6</ele>
        <time>2022-07-09T14:54:32Z</time>
      </trkpt>
      <trkpt lat="46.00724" lon="1.87646">
        <ele>552.4</ele>
        <time>2022-07-09T14:54:39Z</time>
      </trkpt>
      <trkpt lat="46.00703" lon="1.87646">
        <ele>552.8</ele>
        <time>2022-07-09T14:54:45Z</time>
      </trkpt>
      <trkpt lat="46.00699" lon="1.87647">
        <ele>552.8</ele>
        <time>2022-07-09T14:54:46Z</time>
      </trkpt>
      <trkpt lat="46.00678" lon="1.87652">
        <ele>552.4</ele>
        <time>2022-07-09T14:54:50Z</time>
      </trkpt>
      <trkpt lat="46.00652" lon="1.87666">
        <ele>551.6</ele>
        <time>2022-07-09T14:54:54Z</time>
      </trkpt>
      <trkpt lat="46.00645" lon="1.8767">
        <ele>551.2</ele>
        <time>2022-07-09T14:54:55Z</time>
      </trkpt>
      <trkpt lat="46.00631" lon="1.87682">
        <ele>550.4</ele>
        <time>2022-07-09T14:54:57Z</time>
      </trkpt>
      <trkpt lat="46.00609" lon="1.87701">
        <ele>549</ele>
        <time>2022-07-09T14:55:00Z</time>
      </trkpt>
      <trkpt lat="46.00593" lon="1.87717">
        <ele>548</ele>
        <time>2022-07-09T14:55:02Z</time>
      </trkpt>
      <trkpt lat="46.00586" lon="1.87726">
        <ele>547.6</ele>
        <time>2022-07-09T14:55:03Z</time>
      </trkpt>
      <trkpt lat="46.00571" lon="1.87743">
        <ele>546.6</ele>
        <time>2022-07-09T14:55:05Z</time>
      </trkpt>
      <trkpt lat="46.00555" lon="1.87757">
        <ele>545.6</ele>
        <time>2022-07-09T14:55:07Z</time>
      </trkpt>
      <trkpt lat="46.00546" lon="1.87761">
        <ele>545</ele>
        <time>2022-07-09T14:55:08Z</time>
      </trkpt>
      <trkpt lat="46.00537" lon="1.87762">
        <ele>544.6</ele>
        <time>2022-07-09T14:55:09Z</time>
      </trkpt>
      <trkpt lat="46.00528" lon="1.87761">
        <ele>544.2</ele>
        <time>2022-07-09T14:55:10Z</time>
      </trkpt>
      <trkpt lat="46.00519" lon="1.87761">
        <ele>543.4</ele>
        <time>2022-07-09T14:55:11Z</time>
      </trkpt>
      <trkpt lat="46.0051" lon="1.87761">
        <ele>542.8</ele>
        <time>2022-07-09T14:55:12Z</time>
      </trkpt>
      <trkpt lat="46.00494" lon="1.87766">
        <ele>541.8</ele>
        <time>2022-07-09T14:55:14Z</time>
      </trkpt>
      <trkpt lat="46.00487" lon="1.87769">
        <ele>541</ele>
        <time>2022-07-09T14:55:15Z</time>
      </trkpt>
      <trkpt lat="46.00474" lon="1.87777">
        <ele>540.4</ele>
        <time>2022-07-09T14:55:17Z</time>
      </trkpt>
      <trkpt lat="46.00458" lon="1.87787">
        <ele>540.2</ele>
        <time>2022-07-09T14:55:20Z</time>
      </trkpt>
      <trkpt lat="46.00454" lon="1.8779">
        <ele>540.2</ele>
        <time>2022-07-09T14:55:21Z</time>
      </trkpt>
      <trkpt lat="46.00445" lon="1.87801">
        <ele>540.4</ele>
        <time>2022-07-09T14:55:24Z</time>
      </trkpt>
      <trkpt lat="46.00418" lon="1.87833">
        <ele>541.4</ele>
        <time>2022-07-09T14:55:32Z</time>
      </trkpt>
      <trkpt lat="46.00407" lon="1.87845">
        <ele>541.6</ele>
        <time>2022-07-09T14:55:35Z</time>
      </trkpt>
      <trkpt lat="46.00388" lon="1.87868">
        <ele>541.8</ele>
        <time>2022-07-09T14:55:40Z</time>
      </trkpt>
      <trkpt lat="46.0037" lon="1.8789">
        <ele>541.2</ele>
        <time>2022-07-09T14:55:45Z</time>
      </trkpt>
      <trkpt lat="46.00364" lon="1.879">
        <ele>541.2</ele>
        <time>2022-07-09T14:55:47Z</time>
      </trkpt>
      <trkpt lat="46.00362" lon="1.87906">
        <ele>541.2</ele>
        <time>2022-07-09T14:55:48Z</time>
      </trkpt>
      <trkpt lat="46.00358" lon="1.87925">
        <ele>541</ele>
        <time>2022-07-09T14:55:51Z</time>
      </trkpt>
      <trkpt lat="46.00352" lon="1.87978">
        <ele>540.8</ele>
        <time>2022-07-09T14:55:59Z</time>
      </trkpt>
      <trkpt lat="46.00347" lon="1.88027">
        <ele>541</ele>
        <time>2022-07-09T14:56:07Z</time>
      </trkpt>
      <trkpt lat="46.00344" lon="1.88038">
        <ele>541.2</ele>
        <time>2022-07-09T14:56:09Z</time>
      </trkpt>
      <trkpt lat="46.00339" lon="1.88046">
        <ele>541.2</ele>
        <time>2022-07-09T14:56:11Z</time>
      </trkpt>
      <trkpt lat="46.0032" lon="1.88052">
        <ele>541.2</ele>
        <time>2022-07-09T14:56:16Z</time>
      </trkpt>
      <trkpt lat="46.00292" lon="1.88063">
        <ele>541</ele>
        <time>2022-07-09T14:56:23Z</time>
      </trkpt>
      <trkpt lat="46.00275" lon="1.88069">
        <ele>541</ele>
        <time>2022-07-09T14:56:27Z</time>
      </trkpt>
      <trkpt lat="46.00258" lon="1.88075">
        <ele>541.2</ele>
        <time>2022-07-09T14:56:31Z</time>
      </trkpt>
      <trkpt lat="46.00231" lon="1.88086">
        <ele>541.4</ele>
        <time>2022-07-09T14:56:38Z</time>
      </trkpt>
      <trkpt lat="46.00227" lon="1.88087">
        <ele>541.4</ele>
        <time>2022-07-09T14:56:39Z</time>
      </trkpt>
      <trkpt lat="46.00223" lon="1.88087">
        <ele>541.6</ele>
        <time>2022-07-09T14:56:40Z</time>
      </trkpt>
      <trkpt lat="46.00197" lon="1.88095">
        <ele>542.4</ele>
        <time>2022-07-09T14:56:47Z</time>
      </trkpt>
      <trkpt lat="46.00182" lon="1.881">
        <ele>543</ele>
        <time>2022-07-09T14:56:51Z</time>
      </trkpt>
      <trkpt lat="46.00161" lon="1.88107">
        <ele>543.6</ele>
        <time>2022-07-09T14:56:57Z</time>
      </trkpt>
      <trkpt lat="46.0012" lon="1.88123">
        <ele>543.8</ele>
        <time>2022-07-09T14:57:07Z</time>
      </trkpt>
      <trkpt lat="46.001" lon="1.88133">
        <ele>543.4</ele>
        <time>2022-07-09T14:57:12Z</time>
      </trkpt>
      <trkpt lat="46.00092" lon="1.88133">
        <ele>543</ele>
        <time>2022-07-09T14:57:14Z</time>
      </trkpt>
      <trkpt lat="46.00079" lon="1.88133">
        <ele>542.4</ele>
        <time>2022-07-09T14:57:17Z</time>
      </trkpt>
      <trkpt lat="46.00075" lon="1.88134">
        <ele>542.2</ele>
        <time>2022-07-09T14:57:18Z</time>
      </trkpt>
      <trkpt lat="46.0007" lon="1.88136">
        <ele>542.2</ele>
        <time>2022-07-09T14:57:19Z</time>
      </trkpt>
      <trkpt lat="46.00066" lon="1.88138">
        <ele>542</ele>
        <time>2022-07-09T14:57:20Z</time>
      </trkpt>
      <trkpt lat="46.00058" lon="1.88142">
        <ele>541.8</ele>
        <time>2022-07-09T14:57:22Z</time>
      </trkpt>
      <trkpt lat="46.00049" lon="1.88147">
        <ele>541.6</ele>
        <time>2022-07-09T14:57:24Z</time>
      </trkpt>
      <trkpt lat="46.00041" lon="1.88153">
        <ele>541.4</ele>
        <time>2022-07-09T14:57:26Z</time>
      </trkpt>
      <trkpt lat="46.00033" lon="1.88159">
        <ele>541.2</ele>
        <time>2022-07-09T14:57:28Z</time>
      </trkpt>
      <trkpt lat="46.00029" lon="1.88162">
        <ele>541.2</ele>
        <time>2022-07-09T14:57:29Z</time>
      </trkpt>
      <trkpt lat="46.00024" lon="1.88165">
        <ele>541</ele>
        <time>2022-07-09T14:57:30Z</time>
      </trkpt>
      <trkpt lat="46.00015" lon="1.88169">
        <ele>541</ele>
        <time>2022-07-09T14:57:32Z</time>
      </trkpt>
      <trkpt lat="45.99992" lon="1.88183">
        <ele>540.6</ele>
        <time>2022-07-09T14:57:37Z</time>
      </trkpt>
      <trkpt lat="45.99988" lon="1.88187">
        <ele>540.8</ele>
        <time>2022-07-09T14:57:38Z</time>
      </trkpt>
      <trkpt lat="45.99978" lon="1.88193">
        <ele>540.2</ele>
        <time>2022-07-09T14:57:40Z</time>
      </trkpt>
      <trkpt lat="45.99953" lon="1.88208">
        <ele>539</ele>
        <time>2022-07-09T14:57:45Z</time>
      </trkpt>
      <trkpt lat="45.9993" lon="1.88221">
        <ele>538</ele>
        <time>2022-07-09T14:57:49Z</time>
      </trkpt>
      <trkpt lat="45.99924" lon="1.88224">
        <ele>538</ele>
        <time>2022-07-09T14:57:50Z</time>
      </trkpt>
      <trkpt lat="45.99919" lon="1.88227">
        <ele>537.8</ele>
        <time>2022-07-09T14:57:51Z</time>
      </trkpt>
      <trkpt lat="45.99907" lon="1.88233">
        <ele>537.4</ele>
        <time>2022-07-09T14:57:53Z</time>
      </trkpt>
      <trkpt lat="45.99897" lon="1.88236">
        <ele>536.8</ele>
        <time>2022-07-09T14:57:55Z</time>
      </trkpt>
      <trkpt lat="45.99892" lon="1.88238">
        <ele>536.6</ele>
        <time>2022-07-09T14:57:56Z</time>
      </trkpt>
      <trkpt lat="45.99887" lon="1.8824">
        <ele>536.4</ele>
        <time>2022-07-09T14:57:57Z</time>
      </trkpt>
      <trkpt lat="45.99875" lon="1.88247">
        <ele>535.4</ele>
        <time>2022-07-09T14:58:00Z</time>
      </trkpt>
      <trkpt lat="45.99871" lon="1.88249">
        <ele>535.4</ele>
        <time>2022-07-09T14:58:01Z</time>
      </trkpt>
      <trkpt lat="45.99859" lon="1.88253">
        <ele>534.2</ele>
        <time>2022-07-09T14:58:05Z</time>
      </trkpt>
      <trkpt lat="45.99849" lon="1.88259">
        <ele>533.6</ele>
        <time>2022-07-09T14:58:09Z</time>
      </trkpt>
      <trkpt lat="45.99844" lon="1.88263">
        <ele>533.2</ele>
        <time>2022-07-09T14:58:11Z</time>
      </trkpt>
      <trkpt lat="45.9984" lon="1.88266">
        <ele>533.2</ele>
        <time>2022-07-09T14:58:12Z</time>
      </trkpt>
      <trkpt lat="45.99818" lon="1.88277">
        <ele>532.2</ele>
        <time>2022-07-09T14:58:17Z</time>
      </trkpt>
      <trkpt lat="45.99815" lon="1.88279">
        <ele>532</ele>
        <time>2022-07-09T14:58:18Z</time>
      </trkpt>
      <trkpt lat="45.99809" lon="1.88281">
        <ele>531.8</ele>
        <time>2022-07-09T14:58:19Z</time>
      </trkpt>
      <trkpt lat="45.99791" lon="1.88292">
        <ele>530.4</ele>
        <time>2022-07-09T14:58:23Z</time>
      </trkpt>
      <trkpt lat="45.99787" lon="1.88295">
        <ele>530.2</ele>
        <time>2022-07-09T14:58:24Z</time>
      </trkpt>
      <trkpt lat="45.99777" lon="1.88303">
        <ele>529.8</ele>
        <time>2022-07-09T14:58:27Z</time>
      </trkpt>
      <trkpt lat="45.99749" lon="1.88319">
        <ele>529.6</ele>
        <time>2022-07-09T14:58:34Z</time>
      </trkpt>
      <trkpt lat="45.9974" lon="1.88325">
        <ele>529.4</ele>
        <time>2022-07-09T14:58:36Z</time>
      </trkpt>
      <trkpt lat="45.99713" lon="1.88341">
        <ele>529</ele>
        <time>2022-07-09T14:58:42Z</time>
      </trkpt>
      <trkpt lat="45.99708" lon="1.88344">
        <ele>528.8</ele>
        <time>2022-07-09T14:58:43Z</time>
      </trkpt>
      <trkpt lat="45.99699" lon="1.88348">
        <ele>528.8</ele>
        <time>2022-07-09T14:58:45Z</time>
      </trkpt>
      <trkpt lat="45.99691" lon="1.88354">
        <ele>528.6</ele>
        <time>2022-07-09T14:58:47Z</time>
      </trkpt>
      <trkpt lat="45.99677" lon="1.88362">
        <ele>528.4</ele>
        <time>2022-07-09T14:58:50Z</time>
      </trkpt>
      <trkpt lat="45.99668" lon="1.88366">
        <ele>528</ele>
        <time>2022-07-09T14:58:52Z</time>
      </trkpt>
      <trkpt lat="45.9965" lon="1.88372">
        <ele>527.6</ele>
        <time>2022-07-09T14:58:56Z</time>
      </trkpt>
      <trkpt lat="45.99646" lon="1.88374">
        <ele>527.4</ele>
        <time>2022-07-09T14:58:57Z</time>
      </trkpt>
      <trkpt lat="45.99615" lon="1.8839">
        <ele>526.8</ele>
        <time>2022-07-09T14:59:04Z</time>
      </trkpt>
      <trkpt lat="45.99595" lon="1.88407">
        <ele>526.6</ele>
        <time>2022-07-09T14:59:10Z</time>
      </trkpt>
      <trkpt lat="45.9959" lon="1.88411">
        <ele>526.4</ele>
        <time>2022-07-09T14:59:13Z</time>
      </trkpt>
      <trkpt lat="45.9959" lon="1.88411">
        <ele>526.2</ele>
        <time>2022-07-09T14:59:15Z</time>
      </trkpt>
      <trkpt lat="45.99588" lon="1.88414">
        <ele>526.2</ele>
        <time>2022-07-09T15:00:02Z</time>
      </trkpt>
      <trkpt lat="45.99583" lon="1.88419">
        <ele>526</ele>
        <time>2022-07-09T15:00:04Z</time>
      </trkpt>
      <trkpt lat="45.99566" lon="1.88434">
        <ele>525.8</ele>
        <time>2022-07-09T15:00:09Z</time>
      </trkpt>
      <trkpt lat="45.99562" lon="1.88437">
        <ele>525.8</ele>
        <time>2022-07-09T15:00:10Z</time>
      </trkpt>
      <trkpt lat="45.99544" lon="1.88449">
        <ele>525.4</ele>
        <time>2022-07-09T15:00:14Z</time>
      </trkpt>
      <trkpt lat="45.99534" lon="1.88454">
        <ele>525.2</ele>
        <time>2022-07-09T15:00:16Z</time>
      </trkpt>
      <trkpt lat="45.99509" lon="1.88465">
        <ele>524</ele>
        <time>2022-07-09T15:00:21Z</time>
      </trkpt>
      <trkpt lat="45.99495" lon="1.88472">
        <ele>523.6</ele>
        <time>2022-07-09T15:00:24Z</time>
      </trkpt>
      <trkpt lat="45.9948" lon="1.8848">
        <ele>523.2</ele>
        <time>2022-07-09T15:00:27Z</time>
      </trkpt>
      <trkpt lat="45.99455" lon="1.88492">
        <ele>522.4</ele>
        <time>2022-07-09T15:00:33Z</time>
      </trkpt>
      <trkpt lat="45.99421" lon="1.88507">
        <ele>522.2</ele>
        <time>2022-07-09T15:00:42Z</time>
      </trkpt>
      <trkpt lat="45.99397" lon="1.88516">
        <ele>522.2</ele>
        <time>2022-07-09T15:00:49Z</time>
      </trkpt>
      <trkpt lat="45.99377" lon="1.88527">
        <ele>522.2</ele>
        <time>2022-07-09T15:00:54Z</time>
      </trkpt>
      <trkpt lat="45.99369" lon="1.88532">
        <ele>522</ele>
        <time>2022-07-09T15:00:56Z</time>
      </trkpt>
      <trkpt lat="45.99325" lon="1.88563">
        <ele>521.8</ele>
        <time>2022-07-09T15:01:07Z</time>
      </trkpt>
      <trkpt lat="45.99298" lon="1.88587">
        <ele>522</ele>
        <time>2022-07-09T15:01:15Z</time>
      </trkpt>
      <trkpt lat="45.99293" lon="1.88592">
        <ele>521.6</ele>
        <time>2022-07-09T15:01:17Z</time>
      </trkpt>
      <trkpt lat="45.9928" lon="1.88597">
        <ele>521.8</ele>
        <time>2022-07-09T15:01:22Z</time>
      </trkpt>
      <trkpt lat="45.99266" lon="1.88607">
        <ele>522.4</ele>
        <time>2022-07-09T15:01:28Z</time>
      </trkpt>
      <trkpt lat="45.99244" lon="1.88627">
        <ele>523.2</ele>
        <time>2022-07-09T15:01:37Z</time>
      </trkpt>
      <trkpt lat="45.9924" lon="1.88631">
        <ele>523.4</ele>
        <time>2022-07-09T15:01:39Z</time>
      </trkpt>
      <trkpt lat="45.99222" lon="1.88646">
        <ele>523.4</ele>
        <time>2022-07-09T15:01:44Z</time>
      </trkpt>
      <trkpt lat="45.99199" lon="1.88661">
        <ele>523.4</ele>
        <time>2022-07-09T15:01:50Z</time>
      </trkpt>
      <trkpt lat="45.99176" lon="1.8867">
        <ele>522.8</ele>
        <time>2022-07-09T15:01:55Z</time>
      </trkpt>
      <trkpt lat="45.99165" lon="1.88677">
        <ele>522.4</ele>
        <time>2022-07-09T15:01:57Z</time>
      </trkpt>
      <trkpt lat="45.99152" lon="1.88681">
        <ele>522</ele>
        <time>2022-07-09T15:01:59Z</time>
      </trkpt>
      <trkpt lat="45.99134" lon="1.88685">
        <ele>521</ele>
        <time>2022-07-09T15:02:02Z</time>
      </trkpt>
      <trkpt lat="45.99128" lon="1.88686">
        <ele>520.8</ele>
        <time>2022-07-09T15:02:03Z</time>
      </trkpt>
      <trkpt lat="45.99122" lon="1.88686">
        <ele>520.2</ele>
        <time>2022-07-09T15:02:04Z</time>
      </trkpt>
      <trkpt lat="45.99117" lon="1.88687">
        <ele>520</ele>
        <time>2022-07-09T15:02:05Z</time>
      </trkpt>
      <trkpt lat="45.99112" lon="1.88689">
        <ele>519.6</ele>
        <time>2022-07-09T15:02:06Z</time>
      </trkpt>
      <trkpt lat="45.99096" lon="1.88694">
        <ele>518.6</ele>
        <time>2022-07-09T15:02:09Z</time>
      </trkpt>
      <trkpt lat="45.99079" lon="1.88698">
        <ele>517.4</ele>
        <time>2022-07-09T15:02:12Z</time>
      </trkpt>
      <trkpt lat="45.99074" lon="1.88699">
        <ele>517</ele>
        <time>2022-07-09T15:02:13Z</time>
      </trkpt>
      <trkpt lat="45.99065" lon="1.88702">
        <ele>516.6</ele>
        <time>2022-07-09T15:02:15Z</time>
      </trkpt>
      <trkpt lat="45.99061" lon="1.88704">
        <ele>516.4</ele>
        <time>2022-07-09T15:02:16Z</time>
      </trkpt>
      <trkpt lat="45.99056" lon="1.88705">
        <ele>516.2</ele>
        <time>2022-07-09T15:02:17Z</time>
      </trkpt>
      <trkpt lat="45.99046" lon="1.88705">
        <ele>515.4</ele>
        <time>2022-07-09T15:02:19Z</time>
      </trkpt>
      <trkpt lat="45.99042" lon="1.88707">
        <ele>514.4</ele>
        <time>2022-07-09T15:02:20Z</time>
      </trkpt>
      <trkpt lat="45.99037" lon="1.88709">
        <ele>514.2</ele>
        <time>2022-07-09T15:02:21Z</time>
      </trkpt>
      <trkpt lat="45.9903" lon="1.88716">
        <ele>513.2</ele>
        <time>2022-07-09T15:02:23Z</time>
      </trkpt>
      <trkpt lat="45.99024" lon="1.88722">
        <ele>512.6</ele>
        <time>2022-07-09T15:02:25Z</time>
      </trkpt>
      <trkpt lat="45.99017" lon="1.8873">
        <ele>512.2</ele>
        <time>2022-07-09T15:02:27Z</time>
      </trkpt>
      <trkpt lat="45.99013" lon="1.88733">
        <ele>512</ele>
        <time>2022-07-09T15:02:28Z</time>
      </trkpt>
      <trkpt lat="45.99005" lon="1.88741">
        <ele>510.8</ele>
        <time>2022-07-09T15:02:30Z</time>
      </trkpt>
      <trkpt lat="45.98995" lon="1.88755">
        <ele>509.8</ele>
        <time>2022-07-09T15:02:33Z</time>
      </trkpt>
      <trkpt lat="45.98987" lon="1.88763">
        <ele>509.2</ele>
        <time>2022-07-09T15:02:35Z</time>
      </trkpt>
      <trkpt lat="45.98984" lon="1.88769">
        <ele>508.4</ele>
        <time>2022-07-09T15:02:36Z</time>
      </trkpt>
      <trkpt lat="45.98975" lon="1.88782">
        <ele>507.2</ele>
        <time>2022-07-09T15:02:39Z</time>
      </trkpt>
      <trkpt lat="45.98969" lon="1.88789">
        <ele>505.6</ele>
        <time>2022-07-09T15:02:41Z</time>
      </trkpt>
      <trkpt lat="45.98961" lon="1.888">
        <ele>504.2</ele>
        <time>2022-07-09T15:02:44Z</time>
      </trkpt>
      <trkpt lat="45.98958" lon="1.88803">
        <ele>503.8</ele>
        <time>2022-07-09T15:02:45Z</time>
      </trkpt>
      <trkpt lat="45.98953" lon="1.88813">
        <ele>503</ele>
        <time>2022-07-09T15:02:47Z</time>
      </trkpt>
      <trkpt lat="45.98946" lon="1.88834">
        <ele>501.8</ele>
        <time>2022-07-09T15:02:50Z</time>
      </trkpt>
      <trkpt lat="45.98941" lon="1.88845">
        <ele>500.6</ele>
        <time>2022-07-09T15:02:53Z</time>
      </trkpt>
      <trkpt lat="45.98939" lon="1.88847">
        <ele>500</ele>
        <time>2022-07-09T15:02:54Z</time>
      </trkpt>
      <trkpt lat="45.98933" lon="1.88858">
        <ele>499.4</ele>
        <time>2022-07-09T15:02:56Z</time>
      </trkpt>
      <trkpt lat="45.98926" lon="1.88866">
        <ele>498.6</ele>
        <time>2022-07-09T15:02:58Z</time>
      </trkpt>
      <trkpt lat="45.98921" lon="1.88872">
        <ele>498.2</ele>
        <time>2022-07-09T15:02:59Z</time>
      </trkpt>
      <trkpt lat="45.9891" lon="1.88887">
        <ele>497</ele>
        <time>2022-07-09T15:03:02Z</time>
      </trkpt>
      <trkpt lat="45.98903" lon="1.88893">
        <ele>495.8</ele>
        <time>2022-07-09T15:03:04Z</time>
      </trkpt>
      <trkpt lat="45.98899" lon="1.88894">
        <ele>495.4</ele>
        <time>2022-07-09T15:03:05Z</time>
      </trkpt>
      <trkpt lat="45.98895" lon="1.88897">
        <ele>494.8</ele>
        <time>2022-07-09T15:03:06Z</time>
      </trkpt>
      <trkpt lat="45.9888" lon="1.88912">
        <ele>493.6</ele>
        <time>2022-07-09T15:03:11Z</time>
      </trkpt>
      <trkpt lat="45.98873" lon="1.88918">
        <ele>492.2</ele>
        <time>2022-07-09T15:03:13Z</time>
      </trkpt>
      <trkpt lat="45.98864" lon="1.88925">
        <ele>491.2</ele>
        <time>2022-07-09T15:03:16Z</time>
      </trkpt>
      <trkpt lat="45.98859" lon="1.88928">
        <ele>490.2</ele>
        <time>2022-07-09T15:03:18Z</time>
      </trkpt>
      <trkpt lat="45.9885" lon="1.88934">
        <ele>489</ele>
        <time>2022-07-09T15:03:21Z</time>
      </trkpt>
      <trkpt lat="45.98843" lon="1.88938">
        <ele>488.4</ele>
        <time>2022-07-09T15:03:23Z</time>
      </trkpt>
      <trkpt lat="45.98836" lon="1.88944">
        <ele>487.6</ele>
        <time>2022-07-09T15:03:25Z</time>
      </trkpt>
      <trkpt lat="45.98823" lon="1.88954">
        <ele>486.6</ele>
        <time>2022-07-09T15:03:29Z</time>
      </trkpt>
      <trkpt lat="45.98819" lon="1.88955">
        <ele>486.4</ele>
        <time>2022-07-09T15:03:30Z</time>
      </trkpt>
      <trkpt lat="45.98811" lon="1.88959">
        <ele>485.4</ele>
        <time>2022-07-09T15:03:32Z</time>
      </trkpt>
      <trkpt lat="45.98799" lon="1.88967">
        <ele>484.2</ele>
        <time>2022-07-09T15:03:35Z</time>
      </trkpt>
      <trkpt lat="45.98794" lon="1.8897">
        <ele>484</ele>
        <time>2022-07-09T15:03:36Z</time>
      </trkpt>
      <trkpt lat="45.98784" lon="1.88975">
        <ele>483</ele>
        <time>2022-07-09T15:03:38Z</time>
      </trkpt>
      <trkpt lat="45.98778" lon="1.88978">
        <ele>482.6</ele>
        <time>2022-07-09T15:03:39Z</time>
      </trkpt>
      <trkpt lat="45.98772" lon="1.8898">
        <ele>481.6</ele>
        <time>2022-07-09T15:03:40Z</time>
      </trkpt>
      <trkpt lat="45.9876" lon="1.88986">
        <ele>480.6</ele>
        <time>2022-07-09T15:03:42Z</time>
      </trkpt>
      <trkpt lat="45.98755" lon="1.88988">
        <ele>480.4</ele>
        <time>2022-07-09T15:03:43Z</time>
      </trkpt>
      <trkpt lat="45.98745" lon="1.8899">
        <ele>479.2</ele>
        <time>2022-07-09T15:03:45Z</time>
      </trkpt>
      <trkpt lat="45.98735" lon="1.88991">
        <ele>478.8</ele>
        <time>2022-07-09T15:03:47Z</time>
      </trkpt>
      <trkpt lat="45.98724" lon="1.88993">
        <ele>478.4</ele>
        <time>2022-07-09T15:03:49Z</time>
      </trkpt>
      <trkpt lat="45.98714" lon="1.88994">
        <ele>478</ele>
        <time>2022-07-09T15:03:51Z</time>
      </trkpt>
      <trkpt lat="45.98699" lon="1.88994">
        <ele>477.6</ele>
        <time>2022-07-09T15:03:54Z</time>
      </trkpt>
      <trkpt lat="45.98686" lon="1.88997">
        <ele>477.6</ele>
        <time>2022-07-09T15:03:57Z</time>
      </trkpt>
      <trkpt lat="45.9868" lon="1.88999">
        <ele>477.6</ele>
        <time>2022-07-09T15:03:59Z</time>
      </trkpt>
      <trkpt lat="45.98675" lon="1.89">
        <ele>477.4</ele>
        <time>2022-07-09T15:04:01Z</time>
      </trkpt>
      <trkpt lat="45.98665" lon="1.88999">
        <ele>477.6</ele>
        <time>2022-07-09T15:04:05Z</time>
      </trkpt>
      <trkpt lat="45.98654" lon="1.88998">
        <ele>477.8</ele>
        <time>2022-07-09T15:04:10Z</time>
      </trkpt>
      <trkpt lat="45.98652" lon="1.88999">
        <ele>477.8</ele>
        <time>2022-07-09T15:04:11Z</time>
      </trkpt>
      <trkpt lat="45.98641" lon="1.89002">
        <ele>478</ele>
        <time>2022-07-09T15:04:16Z</time>
      </trkpt>
      <trkpt lat="45.98627" lon="1.89009">
        <ele>478</ele>
        <time>2022-07-09T15:04:22Z</time>
      </trkpt>
      <trkpt lat="45.98605" lon="1.89016">
        <ele>478.6</ele>
        <time>2022-07-09T15:04:29Z</time>
      </trkpt>
      <trkpt lat="45.98577" lon="1.89021">
        <ele>479</ele>
        <time>2022-07-09T15:04:36Z</time>
      </trkpt>
      <trkpt lat="45.98574" lon="1.89021">
        <ele>479</ele>
        <time>2022-07-09T15:04:37Z</time>
      </trkpt>
      <trkpt lat="45.98568" lon="1.8902">
        <ele>479.2</ele>
        <time>2022-07-09T15:04:39Z</time>
      </trkpt>
      <trkpt lat="45.98555" lon="1.89026">
        <ele>479.6</ele>
        <time>2022-07-09T15:04:43Z</time>
      </trkpt>
      <trkpt lat="45.98552" lon="1.89027">
        <ele>479.6</ele>
        <time>2022-07-09T15:04:44Z</time>
      </trkpt>
      <trkpt lat="45.98541" lon="1.89029">
        <ele>480</ele>
        <time>2022-07-09T15:04:48Z</time>
      </trkpt>
      <trkpt lat="45.98536" lon="1.8903">
        <ele>480.2</ele>
        <time>2022-07-09T15:04:50Z</time>
      </trkpt>
      <trkpt lat="45.98532" lon="1.8903">
        <ele>480.4</ele>
        <time>2022-07-09T15:04:51Z</time>
      </trkpt>
      <trkpt lat="45.98523" lon="1.89031">
        <ele>480.6</ele>
        <time>2022-07-09T15:04:54Z</time>
      </trkpt>
      <trkpt lat="45.98506" lon="1.89036">
        <ele>481.4</ele>
        <time>2022-07-09T15:05:00Z</time>
      </trkpt>
      <trkpt lat="45.985" lon="1.89037">
        <ele>481.4</ele>
        <time>2022-07-09T15:05:02Z</time>
      </trkpt>
      <trkpt lat="45.98493" lon="1.8904">
        <ele>481.8</ele>
        <time>2022-07-09T15:05:05Z</time>
      </trkpt>
      <trkpt lat="45.98486" lon="1.89044">
        <ele>482.4</ele>
        <time>2022-07-09T15:05:10Z</time>
      </trkpt>
      <trkpt lat="45.98481" lon="1.89047">
        <ele>483</ele>
        <time>2022-07-09T15:05:13Z</time>
      </trkpt>
      <trkpt lat="45.98478" lon="1.89049">
        <ele>483</ele>
        <time>2022-07-09T15:05:14Z</time>
      </trkpt>
      <trkpt lat="45.98466" lon="1.89061">
        <ele>483.2</ele>
        <time>2022-07-09T15:05:18Z</time>
      </trkpt>
      <trkpt lat="45.9845" lon="1.89089">
        <ele>483.2</ele>
        <time>2022-07-09T15:05:23Z</time>
      </trkpt>
      <trkpt lat="45.98446" lon="1.89094">
        <ele>482.8</ele>
        <time>2022-07-09T15:05:24Z</time>
      </trkpt>
      <trkpt lat="45.98439" lon="1.89106">
        <ele>482.2</ele>
        <time>2022-07-09T15:05:26Z</time>
      </trkpt>
      <trkpt lat="45.98432" lon="1.89118">
        <ele>481.4</ele>
        <time>2022-07-09T15:05:28Z</time>
      </trkpt>
      <trkpt lat="45.98409" lon="1.89166">
        <ele>480.4</ele>
        <time>2022-07-09T15:05:35Z</time>
      </trkpt>
      <trkpt lat="45.98375" lon="1.89213">
        <ele>479.4</ele>
        <time>2022-07-09T15:05:43Z</time>
      </trkpt>
      <trkpt lat="45.9836" lon="1.89228">
        <ele>478.6</ele>
        <time>2022-07-09T15:05:46Z</time>
      </trkpt>
      <trkpt lat="45.98355" lon="1.89233">
        <ele>478.4</ele>
        <time>2022-07-09T15:05:47Z</time>
      </trkpt>
      <trkpt lat="45.9835" lon="1.89237">
        <ele>478.2</ele>
        <time>2022-07-09T15:05:48Z</time>
      </trkpt>
      <trkpt lat="45.98321" lon="1.89253">
        <ele>477.4</ele>
        <time>2022-07-09T15:05:53Z</time>
      </trkpt>
      <trkpt lat="45.98315" lon="1.89257">
        <ele>477.2</ele>
        <time>2022-07-09T15:05:54Z</time>
      </trkpt>
      <trkpt lat="45.9828" lon="1.89279">
        <ele>476.2</ele>
        <time>2022-07-09T15:06:00Z</time>
      </trkpt>
      <trkpt lat="45.98269" lon="1.89288">
        <ele>476</ele>
        <time>2022-07-09T15:06:02Z</time>
      </trkpt>
      <trkpt lat="45.9826" lon="1.89298">
        <ele>475.8</ele>
        <time>2022-07-09T15:06:04Z</time>
      </trkpt>
      <trkpt lat="45.98251" lon="1.8931">
        <ele>475.6</ele>
        <time>2022-07-09T15:06:06Z</time>
      </trkpt>
      <trkpt lat="45.98244" lon="1.89325">
        <ele>475.4</ele>
        <time>2022-07-09T15:06:08Z</time>
      </trkpt>
      <trkpt lat="45.9824" lon="1.89341">
        <ele>475.2</ele>
        <time>2022-07-09T15:06:10Z</time>
      </trkpt>
      <trkpt lat="45.98239" lon="1.8935">
        <ele>475</ele>
        <time>2022-07-09T15:06:11Z</time>
      </trkpt>
      <trkpt lat="45.98239" lon="1.89358">
        <ele>475</ele>
        <time>2022-07-09T15:06:12Z</time>
      </trkpt>
      <trkpt lat="45.98241" lon="1.89373">
        <ele>474.8</ele>
        <time>2022-07-09T15:06:14Z</time>
      </trkpt>
      <trkpt lat="45.98242" lon="1.89381">
        <ele>474.8</ele>
        <time>2022-07-09T15:06:15Z</time>
      </trkpt>
      <trkpt lat="45.98249" lon="1.89407">
        <ele>474.6</ele>
        <time>2022-07-09T15:06:19Z</time>
      </trkpt>
      <trkpt lat="45.98251" lon="1.89412">
        <ele>474.6</ele>
        <time>2022-07-09T15:06:20Z</time>
      </trkpt>
      <trkpt lat="45.98261" lon="1.89434">
        <ele>474.6</ele>
        <time>2022-07-09T15:06:25Z</time>
      </trkpt>
      <trkpt lat="45.98271" lon="1.89462">
        <ele>474.6</ele>
        <time>2022-07-09T15:06:32Z</time>
      </trkpt>
      <trkpt lat="45.98276" lon="1.89483">
        <ele>474.4</ele>
        <time>2022-07-09T15:06:37Z</time>
      </trkpt>
      <trkpt lat="45.98276" lon="1.89509">
        <ele>474.2</ele>
        <time>2022-07-09T15:06:42Z</time>
      </trkpt>
      <trkpt lat="45.98278" lon="1.89543">
        <ele>474.2</ele>
        <time>2022-07-09T15:06:49Z</time>
      </trkpt>
      <trkpt lat="45.98276" lon="1.89559">
        <ele>474</ele>
        <time>2022-07-09T15:06:55Z</time>
      </trkpt>
      <trkpt lat="45.98275" lon="1.89564">
        <ele>474</ele>
        <time>2022-07-09T15:07:01Z</time>
      </trkpt>
      <trkpt lat="45.98276" lon="1.89571">
        <ele>474.4</ele>
        <time>2022-07-09T15:07:07Z</time>
      </trkpt>
      <trkpt lat="45.9828" lon="1.89582">
        <ele>474.2</ele>
        <time>2022-07-09T15:07:14Z</time>
      </trkpt>
      <trkpt lat="45.9828" lon="1.89582">
        <ele>474.2</ele>
        <time>2022-07-09T15:07:15Z</time>
      </trkpt>
      <trkpt lat="45.9828" lon="1.89586">
        <ele>474.4</ele>
        <time>2022-07-09T15:07:22Z</time>
      </trkpt>
      <trkpt lat="45.9828" lon="1.89584">
        <ele>474.4</ele>
        <time>2022-07-09T15:07:28Z</time>
      </trkpt>
      <trkpt lat="45.9828" lon="1.89584">
        <ele>474.4</ele>
        <time>2022-07-09T15:07:30Z</time>
      </trkpt>
      <trkpt lat="45.9828" lon="1.89583">
        <ele>474.2</ele>
        <time>2022-07-09T15:07:35Z</time>
      </trkpt>
      <trkpt lat="45.9828" lon="1.89582">
        <ele>474.2</ele>
        <time>2022-07-09T15:07:37Z</time>
      </trkpt>
      <trkpt lat="45.9828" lon="1.89578">
        <ele>474</ele>
        <time>2022-07-09T15:07:40Z</time>
      </trkpt>
      <trkpt lat="45.98281" lon="1.89573">
        <ele>473.8</ele>
        <time>2022-07-09T15:07:42Z</time>
      </trkpt>
      <trkpt lat="45.98279" lon="1.89562">
        <ele>473.6</ele>
        <time>2022-07-09T15:07:45Z</time>
      </trkpt>
      <trkpt lat="45.98277" lon="1.89561">
        <ele>473.6</ele>
        <time>2022-07-09T15:07:46Z</time>
      </trkpt>
      <trkpt lat="45.98259" lon="1.89555">
        <ele>473.8</ele>
        <time>2022-07-09T15:07:52Z</time>
      </trkpt>
      <trkpt lat="45.98233" lon="1.89548">
        <ele>474</ele>
        <time>2022-07-09T15:07:59Z</time>
      </trkpt>
      <trkpt lat="45.98213" lon="1.89543">
        <ele>473.6</ele>
        <time>2022-07-09T15:08:04Z</time>
      </trkpt>
      <trkpt lat="45.98205" lon="1.8954">
        <ele>473.4</ele>
        <time>2022-07-09T15:08:06Z</time>
      </trkpt>
      <trkpt lat="45.98181" lon="1.89529">
        <ele>473.2</ele>
        <time>2022-07-09T15:08:13Z</time>
      </trkpt>
      <trkpt lat="45.98168" lon="1.89518">
        <ele>473</ele>
        <time>2022-07-09T15:08:18Z</time>
      </trkpt>
      <trkpt lat="45.98166" lon="1.89518">
        <ele>473</ele>
        <time>2022-07-09T15:08:19Z</time>
      </trkpt>
      <trkpt lat="45.98164" lon="1.89519">
        <ele>473</ele>
        <time>2022-07-09T15:08:20Z</time>
      </trkpt>
      <trkpt lat="45.98165" lon="1.89523">
        <ele>473</ele>
        <time>2022-07-09T15:08:22Z</time>
      </trkpt>
      <trkpt lat="45.98167" lon="1.89525">
        <ele>473</ele>
        <time>2022-07-09T15:08:23Z</time>
      </trkpt>
      <trkpt lat="45.98169" lon="1.89526">
        <ele>472.8</ele>
        <time>2022-07-09T15:08:25Z</time>
      </trkpt>
      <trkpt lat="45.98171" lon="1.89526">
        <ele>472.8</ele>
        <time>2022-07-09T15:08:26Z</time>
      </trkpt>
      <trkpt lat="45.98171" lon="1.89526">
        <ele>473</ele>
        <time>2022-07-09T15:08:29Z</time>
      </trkpt>
      <trkpt lat="45.98174" lon="1.89528">
        <ele>472.8</ele>
        <time>2022-07-09T15:08:35Z</time>
      </trkpt>
      <trkpt lat="45.98176" lon="1.89529">
        <ele>472.8</ele>
        <time>2022-07-09T15:08:36Z</time>
      </trkpt>
      <trkpt lat="45.98191" lon="1.89539">
        <ele>472.8</ele>
        <time>2022-07-09T15:08:41Z</time>
      </trkpt>
      <trkpt lat="45.98214" lon="1.89549">
        <ele>473</ele>
        <time>2022-07-09T15:08:48Z</time>
      </trkpt>
      <trkpt lat="45.98216" lon="1.89552">
        <ele>473.2</ele>
        <time>2022-07-09T15:08:49Z</time>
      </trkpt>
      <trkpt lat="45.98221" lon="1.89561">
        <ele>473.2</ele>
        <time>2022-07-09T15:08:52Z</time>
      </trkpt>
      <trkpt lat="45.98227" lon="1.8957">
        <ele>473.2</ele>
        <time>2022-07-09T15:08:55Z</time>
      </trkpt>
      <trkpt lat="45.98233" lon="1.89574">
        <ele>473.2</ele>
        <time>2022-07-09T15:08:57Z</time>
      </trkpt>
      <trkpt lat="45.98249" lon="1.89589">
        <ele>473.8</ele>
        <time>2022-07-09T15:09:03Z</time>
      </trkpt>
      <trkpt lat="45.98259" lon="1.89606">
        <ele>474.2</ele>
        <time>2022-07-09T15:09:08Z</time>
      </trkpt>
      <trkpt lat="45.98273" lon="1.8962">
        <ele>474.6</ele>
        <time>2022-07-09T15:09:14Z</time>
      </trkpt>
      <trkpt lat="45.98275" lon="1.89623">
        <ele>474.6</ele>
        <time>2022-07-09T15:09:15Z</time>
      </trkpt>
      <trkpt lat="45.98277" lon="1.89631">
        <ele>475</ele>
        <time>2022-07-09T15:09:17Z</time>
      </trkpt>
      <trkpt lat="45.98277" lon="1.89634">
        <ele>475</ele>
        <time>2022-07-09T15:09:18Z</time>
      </trkpt>
      <trkpt lat="45.98278" lon="1.89649">
        <ele>475</ele>
        <time>2022-07-09T15:09:22Z</time>
      </trkpt>
      <trkpt lat="45.9828" lon="1.89683">
        <ele>474.8</ele>
        <time>2022-07-09T15:09:30Z</time>
      </trkpt>
      <trkpt lat="45.98289" lon="1.89697">
        <ele>475.4</ele>
        <time>2022-07-09T15:09:35Z</time>
      </trkpt>
      <trkpt lat="45.98297" lon="1.89721">
        <ele>475.6</ele>
        <time>2022-07-09T15:09:41Z</time>
      </trkpt>
      <trkpt lat="45.983" lon="1.89744">
        <ele>475.6</ele>
        <time>2022-07-09T15:09:48Z</time>
      </trkpt>
      <trkpt lat="45.98295" lon="1.89747">
        <ele>475.6</ele>
        <time>2022-07-09T15:09:51Z</time>
      </trkpt>
      <trkpt lat="45.98293" lon="1.89749">
        <ele>475.6</ele>
        <time>2022-07-09T15:09:52Z</time>
      </trkpt>
      <trkpt lat="45.98295" lon="1.89754">
        <ele>475.8</ele>
        <time>2022-07-09T15:09:54Z</time>
      </trkpt>
      <trkpt lat="45.98297" lon="1.89754">
        <ele>475.8</ele>
        <time>2022-07-09T15:09:55Z</time>
      </trkpt>
      <trkpt lat="45.983" lon="1.8975">
        <ele>475.8</ele>
        <time>2022-07-09T15:09:57Z</time>
      </trkpt>
      <trkpt lat="45.98313" lon="1.89743">
        <ele>475.8</ele>
        <time>2022-07-09T15:10:02Z</time>
      </trkpt>
      <trkpt lat="45.98318" lon="1.89746">
        <ele>475.6</ele>
        <time>2022-07-09T15:10:04Z</time>
      </trkpt>
      <trkpt lat="45.98324" lon="1.89753">
        <ele>475.6</ele>
        <time>2022-07-09T15:10:06Z</time>
      </trkpt>
      <trkpt lat="45.98336" lon="1.89773">
        <ele>475.6</ele>
        <time>2022-07-09T15:10:13Z</time>
      </trkpt>
      <trkpt lat="45.98338" lon="1.8979">
        <ele>475.8</ele>
        <time>2022-07-09T15:10:19Z</time>
      </trkpt>
      <trkpt lat="45.98338" lon="1.89808">
        <ele>476</ele>
        <time>2022-07-09T15:10:24Z</time>
      </trkpt>
      <trkpt lat="45.98339" lon="1.89826">
        <ele>476.2</ele>
        <time>2022-07-09T15:10:28Z</time>
      </trkpt>
      <trkpt lat="45.98341" lon="1.89833">
        <ele>476.4</ele>
        <time>2022-07-09T15:10:30Z</time>
      </trkpt>
      <trkpt lat="45.98352" lon="1.89857">
        <ele>477</ele>
        <time>2022-07-09T15:10:36Z</time>
      </trkpt>
      <trkpt lat="45.98365" lon="1.89869">
        <ele>477.2</ele>
        <time>2022-07-09T15:10:41Z</time>
      </trkpt>
      <trkpt lat="45.98368" lon="1.89871">
        <ele>477.2</ele>
        <time>2022-07-09T15:10:42Z</time>
      </trkpt>
      <trkpt lat="45.9838" lon="1.89883">
        <ele>478</ele>
        <time>2022-07-09T15:10:47Z</time>
      </trkpt>
      <trkpt lat="45.98386" lon="1.89888">
        <ele>478.4</ele>
        <time>2022-07-09T15:10:50Z</time>
      </trkpt>
      <trkpt lat="45.98392" lon="1.89893">
        <ele>478.8</ele>
        <time>2022-07-09T15:10:52Z</time>
      </trkpt>
      <trkpt lat="45.98399" lon="1.89902">
        <ele>479.6</ele>
        <time>2022-07-09T15:10:56Z</time>
      </trkpt>
      <trkpt lat="45.98405" lon="1.89907">
        <ele>480.2</ele>
        <time>2022-07-09T15:10:59Z</time>
      </trkpt>
      <trkpt lat="45.98411" lon="1.89916">
        <ele>481</ele>
        <time>2022-07-09T15:11:04Z</time>
      </trkpt>
      <trkpt lat="45.98413" lon="1.8992">
        <ele>481.4</ele>
        <time>2022-07-09T15:11:06Z</time>
      </trkpt>
      <trkpt lat="45.98419" lon="1.89929">
        <ele>482.2</ele>
        <time>2022-07-09T15:11:11Z</time>
      </trkpt>
      <trkpt lat="45.98423" lon="1.89937">
        <ele>483</ele>
        <time>2022-07-09T15:11:15Z</time>
      </trkpt>
      <trkpt lat="45.98427" lon="1.89942">
        <ele>483.4</ele>
        <time>2022-07-09T15:11:18Z</time>
      </trkpt>
      <trkpt lat="45.98431" lon="1.89948">
        <ele>484</ele>
        <time>2022-07-09T15:11:22Z</time>
      </trkpt>
      <trkpt lat="45.98435" lon="1.89955">
        <ele>484.6</ele>
        <time>2022-07-09T15:11:26Z</time>
      </trkpt>
      <trkpt lat="45.98442" lon="1.89967">
        <ele>485.2</ele>
        <time>2022-07-09T15:11:32Z</time>
      </trkpt>
      <trkpt lat="45.98448" lon="1.89975">
        <ele>485.6</ele>
        <time>2022-07-09T15:11:36Z</time>
      </trkpt>
      <trkpt lat="45.98456" lon="1.8999">
        <ele>486.4</ele>
        <time>2022-07-09T15:11:43Z</time>
      </trkpt>
      <trkpt lat="45.9846" lon="1.89994">
        <ele>486.6</ele>
        <time>2022-07-09T15:11:45Z</time>
      </trkpt>
      <trkpt lat="45.98467" lon="1.90006">
        <ele>487.4</ele>
        <time>2022-07-09T15:11:50Z</time>
      </trkpt>
      <trkpt lat="45.98471" lon="1.90014">
        <ele>487.8</ele>
        <time>2022-07-09T15:11:53Z</time>
      </trkpt>
      <trkpt lat="45.98482" lon="1.90029">
        <ele>488</ele>
        <time>2022-07-09T15:11:59Z</time>
      </trkpt>
      <trkpt lat="45.98499" lon="1.90051">
        <ele>489</ele>
        <time>2022-07-09T15:12:08Z</time>
      </trkpt>
      <trkpt lat="45.98517" lon="1.90071">
        <ele>490</ele>
        <time>2022-07-09T15:12:17Z</time>
      </trkpt>
      <trkpt lat="45.98519" lon="1.90073">
        <ele>490.2</ele>
        <time>2022-07-09T15:12:18Z</time>
      </trkpt>
      <trkpt lat="45.98531" lon="1.90083">
        <ele>491.2</ele>
        <time>2022-07-09T15:12:24Z</time>
      </trkpt>
      <trkpt lat="45.9854" lon="1.90094">
        <ele>492.4</ele>
        <time>2022-07-09T15:12:29Z</time>
      </trkpt>
      <trkpt lat="45.98541" lon="1.90097">
        <ele>492.4</ele>
        <time>2022-07-09T15:12:30Z</time>
      </trkpt>
      <trkpt lat="45.98552" lon="1.90118">
        <ele>493.4</ele>
        <time>2022-07-09T15:12:37Z</time>
      </trkpt>
      <trkpt lat="45.98554" lon="1.90121">
        <ele>493.8</ele>
        <time>2022-07-09T15:12:38Z</time>
      </trkpt>
      <trkpt lat="45.9856" lon="1.90143">
        <ele>494.8</ele>
        <time>2022-07-09T15:12:45Z</time>
      </trkpt>
      <trkpt lat="45.9856" lon="1.90146">
        <ele>495</ele>
        <time>2022-07-09T15:12:46Z</time>
      </trkpt>
      <trkpt lat="45.9856" lon="1.90154">
        <ele>496</ele>
        <time>2022-07-09T15:12:49Z</time>
      </trkpt>
      <trkpt lat="45.98559" lon="1.90167">
        <ele>496.8</ele>
        <time>2022-07-09T15:12:54Z</time>
      </trkpt>
      <trkpt lat="45.98559" lon="1.90172">
        <ele>497</ele>
        <time>2022-07-09T15:12:56Z</time>
      </trkpt>
      <trkpt lat="45.9856" lon="1.90193">
        <ele>497.8</ele>
        <time>2022-07-09T15:13:03Z</time>
      </trkpt>
      <trkpt lat="45.98558" lon="1.90216">
        <ele>498</ele>
        <time>2022-07-09T15:13:11Z</time>
      </trkpt>
      <trkpt lat="45.98557" lon="1.9022">
        <ele>498</ele>
        <time>2022-07-09T15:13:13Z</time>
      </trkpt>
      <trkpt lat="45.98557" lon="1.9023">
        <ele>498.2</ele>
        <time>2022-07-09T15:13:18Z</time>
      </trkpt>
      <trkpt lat="45.98556" lon="1.90252">
        <ele>498.6</ele>
        <time>2022-07-09T15:13:26Z</time>
      </trkpt>
      <trkpt lat="45.98558" lon="1.90272">
        <ele>499</ele>
        <time>2022-07-09T15:13:32Z</time>
      </trkpt>
      <trkpt lat="45.98559" lon="1.90278">
        <ele>499</ele>
        <time>2022-07-09T15:13:34Z</time>
      </trkpt>
      <trkpt lat="45.98561" lon="1.90286">
        <ele>499</ele>
        <time>2022-07-09T15:13:37Z</time>
      </trkpt>
      <trkpt lat="45.98565" lon="1.90301">
        <ele>499.6</ele>
        <time>2022-07-09T15:13:42Z</time>
      </trkpt>
      <trkpt lat="45.9857" lon="1.90318">
        <ele>500</ele>
        <time>2022-07-09T15:13:48Z</time>
      </trkpt>
      <trkpt lat="45.9857" lon="1.90319">
        <ele>500.4</ele>
        <time>2022-07-09T15:13:49Z</time>
      </trkpt>
      <trkpt lat="45.9857" lon="1.90319">
        <ele>500.4</ele>
        <time>2022-07-09T15:13:51Z</time>
      </trkpt>
      <trkpt lat="45.98571" lon="1.9032">
        <ele>500.6</ele>
        <time>2022-07-09T15:13:53Z</time>
      </trkpt>
      <trkpt lat="45.98571" lon="1.9032">
        <ele>501</ele>
        <time>2022-07-09T15:13:55Z</time>
      </trkpt>
      <trkpt lat="45.98572" lon="1.9032">
        <ele>501.4</ele>
        <time>2022-07-09T15:15:28Z</time>
      </trkpt>
      <trkpt lat="45.98572" lon="1.9032">
        <ele>501.4</ele>
        <time>2022-07-09T15:15:29Z</time>
      </trkpt>
      <trkpt lat="45.98572" lon="1.9032">
        <ele>501.6</ele>
        <time>2022-07-09T15:15:30Z</time>
      </trkpt>
      <trkpt lat="45.98571" lon="1.90316">
        <ele>501.6</ele>
        <time>2022-07-09T15:18:57Z</time>
      </trkpt>
      <trkpt lat="45.9857" lon="1.90314">
        <ele>501.6</ele>
        <time>2022-07-09T15:18:58Z</time>
      </trkpt>
      <trkpt lat="45.98568" lon="1.90309">
        <ele>501.6</ele>
        <time>2022-07-09T15:19:00Z</time>
      </trkpt>
      <trkpt lat="45.98562" lon="1.90288">
        <ele>501.2</ele>
        <time>2022-07-09T15:19:05Z</time>
      </trkpt>
      <trkpt lat="45.98559" lon="1.90277">
        <ele>501</ele>
        <time>2022-07-09T15:19:07Z</time>
      </trkpt>
      <trkpt lat="45.98555" lon="1.90258">
        <ele>500.6</ele>
        <time>2022-07-09T15:19:10Z</time>
      </trkpt>
      <trkpt lat="45.98556" lon="1.90233">
        <ele>500.2</ele>
        <time>2022-07-09T15:19:14Z</time>
      </trkpt>
      <trkpt lat="45.98557" lon="1.90196">
        <ele>500.2</ele>
        <time>2022-07-09T15:19:18Z</time>
      </trkpt>
      <trkpt lat="45.98559" lon="1.90157">
        <ele>499.4</ele>
        <time>2022-07-09T15:19:23Z</time>
      </trkpt>
      <trkpt lat="45.9856" lon="1.90152">
        <ele>499</ele>
        <time>2022-07-09T15:19:24Z</time>
      </trkpt>
      <trkpt lat="45.98558" lon="1.90137">
        <ele>498.6</ele>
        <time>2022-07-09T15:19:27Z</time>
      </trkpt>
      <trkpt lat="45.98557" lon="1.90131">
        <ele>498</ele>
        <time>2022-07-09T15:19:28Z</time>
      </trkpt>
      <trkpt lat="45.98553" lon="1.90118">
        <ele>497.2</ele>
        <time>2022-07-09T15:19:30Z</time>
      </trkpt>
      <trkpt lat="45.9855" lon="1.90111">
        <ele>497</ele>
        <time>2022-07-09T15:19:31Z</time>
      </trkpt>
      <trkpt lat="45.98546" lon="1.90105">
        <ele>496.6</ele>
        <time>2022-07-09T15:19:32Z</time>
      </trkpt>
      <trkpt lat="45.98535" lon="1.90088">
        <ele>495.4</ele>
        <time>2022-07-09T15:19:35Z</time>
      </trkpt>
      <trkpt lat="45.9853" lon="1.90083">
        <ele>495.2</ele>
        <time>2022-07-09T15:19:36Z</time>
      </trkpt>
      <trkpt lat="45.98516" lon="1.90068">
        <ele>494.2</ele>
        <time>2022-07-09T15:19:39Z</time>
      </trkpt>
      <trkpt lat="45.98498" lon="1.90048">
        <ele>493.4</ele>
        <time>2022-07-09T15:19:42Z</time>
      </trkpt>
      <trkpt lat="45.98486" lon="1.90033">
        <ele>493.2</ele>
        <time>2022-07-09T15:19:44Z</time>
      </trkpt>
      <trkpt lat="45.98475" lon="1.90018">
        <ele>492</ele>
        <time>2022-07-09T15:19:46Z</time>
      </trkpt>
      <trkpt lat="45.98465" lon="1.90003">
        <ele>491.2</ele>
        <time>2022-07-09T15:19:48Z</time>
      </trkpt>
      <trkpt lat="45.9846" lon="1.89995">
        <ele>490.4</ele>
        <time>2022-07-09T15:19:49Z</time>
      </trkpt>
      <trkpt lat="45.98455" lon="1.89987">
        <ele>490.2</ele>
        <time>2022-07-09T15:19:50Z</time>
      </trkpt>
      <trkpt lat="45.9844" lon="1.89962">
        <ele>489</ele>
        <time>2022-07-09T15:19:53Z</time>
      </trkpt>
      <trkpt lat="45.9842" lon="1.89928">
        <ele>487.6</ele>
        <time>2022-07-09T15:19:57Z</time>
      </trkpt>
      <trkpt lat="45.98404" lon="1.89905">
        <ele>485.6</ele>
        <time>2022-07-09T15:20:00Z</time>
      </trkpt>
      <trkpt lat="45.98397" lon="1.89898">
        <ele>485.2</ele>
        <time>2022-07-09T15:20:01Z</time>
      </trkpt>
      <trkpt lat="45.98389" lon="1.89892">
        <ele>484.6</ele>
        <time>2022-07-09T15:20:02Z</time>
      </trkpt>
      <trkpt lat="45.98373" lon="1.89882">
        <ele>483.4</ele>
        <time>2022-07-09T15:20:04Z</time>
      </trkpt>
      <trkpt lat="45.98359" lon="1.8987">
        <ele>482.4</ele>
        <time>2022-07-09T15:20:06Z</time>
      </trkpt>
      <trkpt lat="45.98352" lon="1.89863">
        <ele>481.2</ele>
        <time>2022-07-09T15:20:07Z</time>
      </trkpt>
      <trkpt lat="45.98347" lon="1.89856">
        <ele>481</ele>
        <time>2022-07-09T15:20:08Z</time>
      </trkpt>
      <trkpt lat="45.98343" lon="1.89846">
        <ele>480.4</ele>
        <time>2022-07-09T15:20:09Z</time>
      </trkpt>
      <trkpt lat="45.98341" lon="1.89837">
        <ele>480</ele>
        <time>2022-07-09T15:20:10Z</time>
      </trkpt>
      <trkpt lat="45.9834" lon="1.89827">
        <ele>479.2</ele>
        <time>2022-07-09T15:20:11Z</time>
      </trkpt>
      <trkpt lat="45.9834" lon="1.89816">
        <ele>478.6</ele>
        <time>2022-07-09T15:20:12Z</time>
      </trkpt>
      <trkpt lat="45.98337" lon="1.89777">
        <ele>477.8</ele>
        <time>2022-07-09T15:20:16Z</time>
      </trkpt>
      <trkpt lat="45.98332" lon="1.89761">
        <ele>477.6</ele>
        <time>2022-07-09T15:20:18Z</time>
      </trkpt>
      <trkpt lat="45.98328" lon="1.89754">
        <ele>477.6</ele>
        <time>2022-07-09T15:20:19Z</time>
      </trkpt>
      <trkpt lat="45.98325" lon="1.89748">
        <ele>477.4</ele>
        <time>2022-07-09T15:20:20Z</time>
      </trkpt>
      <trkpt lat="45.98317" lon="1.8974">
        <ele>477.2</ele>
        <time>2022-07-09T15:20:22Z</time>
      </trkpt>
      <trkpt lat="45.98312" lon="1.89741">
        <ele>477.2</ele>
        <time>2022-07-09T15:20:23Z</time>
      </trkpt>
      <trkpt lat="45.98298" lon="1.89744">
        <ele>477</ele>
        <time>2022-07-09T15:20:26Z</time>
      </trkpt>
      <trkpt lat="45.9829" lon="1.89746">
        <ele>476.8</ele>
        <time>2022-07-09T15:20:28Z</time>
      </trkpt>
      <trkpt lat="45.98286" lon="1.89747">
        <ele>476.8</ele>
        <time>2022-07-09T15:20:29Z</time>
      </trkpt>
      <trkpt lat="45.98284" lon="1.89747">
        <ele>476.8</ele>
        <time>2022-07-09T15:20:30Z</time>
      </trkpt>
      <trkpt lat="45.98281" lon="1.89741">
        <ele>476.8</ele>
        <time>2022-07-09T15:20:32Z</time>
      </trkpt>
      <trkpt lat="45.98281" lon="1.8972">
        <ele>476.8</ele>
        <time>2022-07-09T15:20:35Z</time>
      </trkpt>
      <trkpt lat="45.98281" lon="1.89713">
        <ele>476.8</ele>
        <time>2022-07-09T15:20:36Z</time>
      </trkpt>
      <trkpt lat="45.98281" lon="1.89698">
        <ele>476.8</ele>
        <time>2022-07-09T15:20:38Z</time>
      </trkpt>
      <trkpt lat="45.98281" lon="1.89673">
        <ele>476.6</ele>
        <time>2022-07-09T15:20:41Z</time>
      </trkpt>
      <trkpt lat="45.98281" lon="1.89664">
        <ele>476.6</ele>
        <time>2022-07-09T15:20:42Z</time>
      </trkpt>
      <trkpt lat="45.98281" lon="1.89599">
        <ele>476</ele>
        <time>2022-07-09T15:20:50Z</time>
      </trkpt>
      <trkpt lat="45.98281" lon="1.8957">
        <ele>475.8</ele>
        <time>2022-07-09T15:20:54Z</time>
      </trkpt>
      <trkpt lat="45.9828" lon="1.89564">
        <ele>475.6</ele>
        <time>2022-07-09T15:20:55Z</time>
      </trkpt>
      <trkpt lat="45.98277" lon="1.89558">
        <ele>475.6</ele>
        <time>2022-07-09T15:20:56Z</time>
      </trkpt>
      <trkpt lat="45.98273" lon="1.89555">
        <ele>475.6</ele>
        <time>2022-07-09T15:20:57Z</time>
      </trkpt>
      <trkpt lat="45.98269" lon="1.89553">
        <ele>475.6</ele>
        <time>2022-07-09T15:20:58Z</time>
      </trkpt>
      <trkpt lat="45.98229" lon="1.89546">
        <ele>475.2</ele>
        <time>2022-07-09T15:21:06Z</time>
      </trkpt>
      <trkpt lat="45.98218" lon="1.89544">
        <ele>475.2</ele>
        <time>2022-07-09T15:21:08Z</time>
      </trkpt>
      <trkpt lat="45.98197" lon="1.89536">
        <ele>475</ele>
        <time>2022-07-09T15:21:12Z</time>
      </trkpt>
      <trkpt lat="45.98187" lon="1.89531">
        <ele>474.6</ele>
        <time>2022-07-09T15:21:14Z</time>
      </trkpt>
      <trkpt lat="45.9817" lon="1.89517">
        <ele>474.2</ele>
        <time>2022-07-09T15:21:18Z</time>
      </trkpt>
      <trkpt lat="45.98161" lon="1.89509">
        <ele>474</ele>
        <time>2022-07-09T15:21:22Z</time>
      </trkpt>
      <trkpt lat="45.98161" lon="1.89509">
        <ele>474</ele>
        <time>2022-07-09T15:21:24Z</time>
      </trkpt>
      <trkpt lat="45.98158" lon="1.89508">
        <ele>474.6</ele>
        <time>2022-07-09T15:23:04Z</time>
      </trkpt>
      <trkpt lat="45.98157" lon="1.89508">
        <ele>474.6</ele>
        <time>2022-07-09T15:23:05Z</time>
      </trkpt>
      <trkpt lat="45.9815" lon="1.89501">
        <ele>474.6</ele>
        <time>2022-07-09T15:23:11Z</time>
      </trkpt>
      <trkpt lat="45.98146" lon="1.89498">
        <ele>474.6</ele>
        <time>2022-07-09T15:23:14Z</time>
      </trkpt>
      <trkpt lat="45.9814" lon="1.89491">
        <ele>474.8</ele>
        <time>2022-07-09T15:23:17Z</time>
      </trkpt>
      <trkpt lat="45.98124" lon="1.89475">
        <ele>474.8</ele>
        <time>2022-07-09T15:23:23Z</time>
      </trkpt>
      <trkpt lat="45.9811" lon="1.89455">
        <ele>474.8</ele>
        <time>2022-07-09T15:23:28Z</time>
      </trkpt>
      <trkpt lat="45.98108" lon="1.8945">
        <ele>474.8</ele>
        <time>2022-07-09T15:23:29Z</time>
      </trkpt>
      <trkpt lat="45.98104" lon="1.89437">
        <ele>474.8</ele>
        <time>2022-07-09T15:23:31Z</time>
      </trkpt>
      <trkpt lat="45.98102" lon="1.89417">
        <ele>474.6</ele>
        <time>2022-07-09T15:23:34Z</time>
      </trkpt>
      <trkpt lat="45.98105" lon="1.89381">
        <ele>474.2</ele>
        <time>2022-07-09T15:23:39Z</time>
      </trkpt>
      <trkpt lat="45.98107" lon="1.89367">
        <ele>474.2</ele>
        <time>2022-07-09T15:23:41Z</time>
      </trkpt>
      <trkpt lat="45.98109" lon="1.89354">
        <ele>474</ele>
        <time>2022-07-09T15:23:43Z</time>
      </trkpt>
      <trkpt lat="45.98109" lon="1.89348">
        <ele>474</ele>
        <time>2022-07-09T15:23:44Z</time>
      </trkpt>
      <trkpt lat="45.98109" lon="1.89336">
        <ele>474</ele>
        <time>2022-07-09T15:23:46Z</time>
      </trkpt>
      <trkpt lat="45.98108" lon="1.8933">
        <ele>474</ele>
        <time>2022-07-09T15:23:47Z</time>
      </trkpt>
      <trkpt lat="45.98101" lon="1.89302">
        <ele>473.8</ele>
        <time>2022-07-09T15:23:53Z</time>
      </trkpt>
      <trkpt lat="45.98087" lon="1.89271">
        <ele>474.4</ele>
        <time>2022-07-09T15:24:01Z</time>
      </trkpt>
      <trkpt lat="45.98071" lon="1.89253">
        <ele>474.8</ele>
        <time>2022-07-09T15:24:08Z</time>
      </trkpt>
      <trkpt lat="45.98058" lon="1.89247">
        <ele>475.4</ele>
        <time>2022-07-09T15:24:14Z</time>
      </trkpt>
      <trkpt lat="45.98055" lon="1.89247">
        <ele>475.4</ele>
        <time>2022-07-09T15:24:15Z</time>
      </trkpt>
      <trkpt lat="45.98041" lon="1.89245">
        <ele>476.4</ele>
        <time>2022-07-09T15:24:21Z</time>
      </trkpt>
      <trkpt lat="45.98039" lon="1.89246">
        <ele>476.6</ele>
        <time>2022-07-09T15:24:22Z</time>
      </trkpt>
      <trkpt lat="45.98027" lon="1.89249">
        <ele>477.2</ele>
        <time>2022-07-09T15:24:29Z</time>
      </trkpt>
      <trkpt lat="45.98024" lon="1.89248">
        <ele>477.6</ele>
        <time>2022-07-09T15:24:31Z</time>
      </trkpt>
      <trkpt lat="45.98022" lon="1.89249">
        <ele>477.8</ele>
        <time>2022-07-09T15:24:34Z</time>
      </trkpt>
      <trkpt lat="45.98022" lon="1.89249">
        <ele>478.2</ele>
        <time>2022-07-09T15:24:36Z</time>
      </trkpt>
      <trkpt lat="45.9802" lon="1.89253">
        <ele>479</ele>
        <time>2022-07-09T15:25:14Z</time>
      </trkpt>
      <trkpt lat="45.98019" lon="1.89256">
        <ele>479.2</ele>
        <time>2022-07-09T15:25:15Z</time>
      </trkpt>
      <trkpt lat="45.9801" lon="1.8926">
        <ele>479.8</ele>
        <time>2022-07-09T15:25:20Z</time>
      </trkpt>
      <trkpt lat="45.98006" lon="1.89264">
        <ele>480</ele>
        <time>2022-07-09T15:25:22Z</time>
      </trkpt>
      <trkpt lat="45.98005" lon="1.89265">
        <ele>480.2</ele>
        <time>2022-07-09T15:25:23Z</time>
      </trkpt>
      <trkpt lat="45.98002" lon="1.89266">
        <ele>480.6</ele>
        <time>2022-07-09T15:25:25Z</time>
      </trkpt>
      <trkpt lat="45.98" lon="1.89268">
        <ele>480.8</ele>
        <time>2022-07-09T15:25:26Z</time>
      </trkpt>
      <trkpt lat="45.97995" lon="1.89274">
        <ele>481.2</ele>
        <time>2022-07-09T15:25:30Z</time>
      </trkpt>
      <trkpt lat="45.97993" lon="1.89275">
        <ele>481.4</ele>
        <time>2022-07-09T15:25:31Z</time>
      </trkpt>
      <trkpt lat="45.97985" lon="1.89283">
        <ele>482.2</ele>
        <time>2022-07-09T15:25:37Z</time>
      </trkpt>
      <trkpt lat="45.97975" lon="1.8929">
        <ele>483.4</ele>
        <time>2022-07-09T15:25:44Z</time>
      </trkpt>
      <trkpt lat="45.97972" lon="1.89292">
        <ele>483.8</ele>
        <time>2022-07-09T15:25:46Z</time>
      </trkpt>
      <trkpt lat="45.97964" lon="1.89295">
        <ele>484.4</ele>
        <time>2022-07-09T15:25:51Z</time>
      </trkpt>
      <trkpt lat="45.97963" lon="1.89296">
        <ele>484.6</ele>
        <time>2022-07-09T15:25:52Z</time>
      </trkpt>
      <trkpt lat="45.97958" lon="1.89296">
        <ele>485</ele>
        <time>2022-07-09T15:25:55Z</time>
      </trkpt>
      <trkpt lat="45.97957" lon="1.89297">
        <ele>485.2</ele>
        <time>2022-07-09T15:25:56Z</time>
      </trkpt>
      <trkpt lat="45.97954" lon="1.89298">
        <ele>485.4</ele>
        <time>2022-07-09T15:25:58Z</time>
      </trkpt>
      <trkpt lat="45.97943" lon="1.893">
        <ele>486.2</ele>
        <time>2022-07-09T15:26:05Z</time>
      </trkpt>
      <trkpt lat="45.97938" lon="1.893">
        <ele>486.6</ele>
        <time>2022-07-09T15:26:08Z</time>
      </trkpt>
      <trkpt lat="45.97933" lon="1.89301">
        <ele>486.8</ele>
        <time>2022-07-09T15:26:11Z</time>
      </trkpt>
      <trkpt lat="45.9793" lon="1.89301">
        <ele>487.2</ele>
        <time>2022-07-09T15:26:13Z</time>
      </trkpt>
      <trkpt lat="45.97927" lon="1.89301">
        <ele>487.6</ele>
        <time>2022-07-09T15:26:15Z</time>
      </trkpt>
      <trkpt lat="45.97916" lon="1.89307">
        <ele>488.8</ele>
        <time>2022-07-09T15:26:21Z</time>
      </trkpt>
      <trkpt lat="45.97914" lon="1.89309">
        <ele>488.8</ele>
        <time>2022-07-09T15:26:22Z</time>
      </trkpt>
      <trkpt lat="45.97905" lon="1.89309">
        <ele>489.6</ele>
        <time>2022-07-09T15:26:27Z</time>
      </trkpt>
      <trkpt lat="45.97899" lon="1.89312">
        <ele>489.8</ele>
        <time>2022-07-09T15:26:30Z</time>
      </trkpt>
      <trkpt lat="45.9789" lon="1.89315">
        <ele>490.6</ele>
        <time>2022-07-09T15:26:35Z</time>
      </trkpt>
      <trkpt lat="45.97884" lon="1.89313">
        <ele>491</ele>
        <time>2022-07-09T15:26:39Z</time>
      </trkpt>
      <trkpt lat="45.97871" lon="1.89317">
        <ele>491.8</ele>
        <time>2022-07-09T15:26:46Z</time>
      </trkpt>
      <trkpt lat="45.97867" lon="1.89318">
        <ele>492.2</ele>
        <time>2022-07-09T15:26:48Z</time>
      </trkpt>
      <trkpt lat="45.97857" lon="1.8932">
        <ele>493</ele>
        <time>2022-07-09T15:26:54Z</time>
      </trkpt>
      <trkpt lat="45.97855" lon="1.89321">
        <ele>493.2</ele>
        <time>2022-07-09T15:26:55Z</time>
      </trkpt>
      <trkpt lat="45.97845" lon="1.89324">
        <ele>494</ele>
        <time>2022-07-09T15:27:01Z</time>
      </trkpt>
      <trkpt lat="45.97839" lon="1.89324">
        <ele>494.2</ele>
        <time>2022-07-09T15:27:04Z</time>
      </trkpt>
      <trkpt lat="45.97831" lon="1.89326">
        <ele>494.8</ele>
        <time>2022-07-09T15:27:09Z</time>
      </trkpt>
      <trkpt lat="45.97825" lon="1.89328">
        <ele>495.4</ele>
        <time>2022-07-09T15:27:13Z</time>
      </trkpt>
      <trkpt lat="45.97818" lon="1.89331">
        <ele>495.8</ele>
        <time>2022-07-09T15:27:17Z</time>
      </trkpt>
      <trkpt lat="45.97809" lon="1.89335">
        <ele>496.6</ele>
        <time>2022-07-09T15:27:22Z</time>
      </trkpt>
      <trkpt lat="45.97801" lon="1.89338">
        <ele>497.4</ele>
        <time>2022-07-09T15:27:27Z</time>
      </trkpt>
      <trkpt lat="45.97797" lon="1.8934">
        <ele>497.6</ele>
        <time>2022-07-09T15:27:29Z</time>
      </trkpt>
      <trkpt lat="45.97783" lon="1.89341">
        <ele>498.6</ele>
        <time>2022-07-09T15:27:36Z</time>
      </trkpt>
      <trkpt lat="45.97781" lon="1.89341">
        <ele>498.6</ele>
        <time>2022-07-09T15:27:37Z</time>
      </trkpt>
      <trkpt lat="45.9777" lon="1.89336">
        <ele>499.4</ele>
        <time>2022-07-09T15:27:44Z</time>
      </trkpt>
      <trkpt lat="45.97767" lon="1.89335">
        <ele>499.8</ele>
        <time>2022-07-09T15:27:46Z</time>
      </trkpt>
      <trkpt lat="45.97751" lon="1.8933">
        <ele>500.8</ele>
        <time>2022-07-09T15:27:54Z</time>
      </trkpt>
      <trkpt lat="45.97733" lon="1.89331">
        <ele>501.8</ele>
        <time>2022-07-09T15:28:03Z</time>
      </trkpt>
      <trkpt lat="45.97731" lon="1.89332">
        <ele>502</ele>
        <time>2022-07-09T15:28:04Z</time>
      </trkpt>
      <trkpt lat="45.97716" lon="1.89342">
        <ele>502.8</ele>
        <time>2022-07-09T15:28:12Z</time>
      </trkpt>
      <trkpt lat="45.97715" lon="1.89344">
        <ele>502.8</ele>
        <time>2022-07-09T15:28:13Z</time>
      </trkpt>
      <trkpt lat="45.97697" lon="1.89362">
        <ele>503.6</ele>
        <time>2022-07-09T15:28:22Z</time>
      </trkpt>
      <trkpt lat="45.97684" lon="1.89373">
        <ele>504</ele>
        <time>2022-07-09T15:28:27Z</time>
      </trkpt>
      <trkpt lat="45.97675" lon="1.89378">
        <ele>504</ele>
        <time>2022-07-09T15:28:30Z</time>
      </trkpt>
      <trkpt lat="45.97646" lon="1.89386">
        <ele>504.2</ele>
        <time>2022-07-09T15:28:39Z</time>
      </trkpt>
      <trkpt lat="45.97612" lon="1.89395">
        <ele>504.4</ele>
        <time>2022-07-09T15:28:48Z</time>
      </trkpt>
      <trkpt lat="45.9759" lon="1.89396">
        <ele>504.2</ele>
        <time>2022-07-09T15:28:53Z</time>
      </trkpt>
      <trkpt lat="45.97581" lon="1.89395">
        <ele>504</ele>
        <time>2022-07-09T15:28:55Z</time>
      </trkpt>
      <trkpt lat="45.97568" lon="1.89392">
        <ele>503.8</ele>
        <time>2022-07-09T15:28:58Z</time>
      </trkpt>
      <trkpt lat="45.97545" lon="1.89381">
        <ele>503.2</ele>
        <time>2022-07-09T15:29:03Z</time>
      </trkpt>
      <trkpt lat="45.97522" lon="1.89365">
        <ele>502.8</ele>
        <time>2022-07-09T15:29:08Z</time>
      </trkpt>
      <trkpt lat="45.97518" lon="1.8936">
        <ele>502.6</ele>
        <time>2022-07-09T15:29:09Z</time>
      </trkpt>
      <trkpt lat="45.97495" lon="1.89332">
        <ele>502.2</ele>
        <time>2022-07-09T15:29:15Z</time>
      </trkpt>
      <trkpt lat="45.97473" lon="1.89301">
        <ele>502.2</ele>
        <time>2022-07-09T15:29:21Z</time>
      </trkpt>
      <trkpt lat="45.97457" lon="1.89282">
        <ele>501.6</ele>
        <time>2022-07-09T15:29:25Z</time>
      </trkpt>
      <trkpt lat="45.97448" lon="1.89273">
        <ele>501.4</ele>
        <time>2022-07-09T15:29:27Z</time>
      </trkpt>
      <trkpt lat="45.97419" lon="1.89243">
        <ele>501</ele>
        <time>2022-07-09T15:29:34Z</time>
      </trkpt>
      <trkpt lat="45.974" lon="1.89229">
        <ele>501</ele>
        <time>2022-07-09T15:29:39Z</time>
      </trkpt>
      <trkpt lat="45.97361" lon="1.89214">
        <ele>501.8</ele>
        <time>2022-07-09T15:29:48Z</time>
      </trkpt>
      <trkpt lat="45.97335" lon="1.89202">
        <ele>501.8</ele>
        <time>2022-07-09T15:29:54Z</time>
      </trkpt>
      <trkpt lat="45.97331" lon="1.89199">
        <ele>502</ele>
        <time>2022-07-09T15:29:55Z</time>
      </trkpt>
      <trkpt lat="45.97316" lon="1.89188">
        <ele>502</ele>
        <time>2022-07-09T15:29:59Z</time>
      </trkpt>
      <trkpt lat="45.97309" lon="1.89182">
        <ele>502.2</ele>
        <time>2022-07-09T15:30:01Z</time>
      </trkpt>
      <trkpt lat="45.97292" lon="1.89168">
        <ele>502.6</ele>
        <time>2022-07-09T15:30:06Z</time>
      </trkpt>
      <trkpt lat="45.97276" lon="1.89155">
        <ele>503</ele>
        <time>2022-07-09T15:30:11Z</time>
      </trkpt>
      <trkpt lat="45.97245" lon="1.8913">
        <ele>503.8</ele>
        <time>2022-07-09T15:30:20Z</time>
      </trkpt>
      <trkpt lat="45.9722" lon="1.89111">
        <ele>504.2</ele>
        <time>2022-07-09T15:30:27Z</time>
      </trkpt>
      <trkpt lat="45.97193" lon="1.89092">
        <ele>504.8</ele>
        <time>2022-07-09T15:30:35Z</time>
      </trkpt>
      <trkpt lat="45.9719" lon="1.8909">
        <ele>505</ele>
        <time>2022-07-09T15:30:36Z</time>
      </trkpt>
      <trkpt lat="45.97162" lon="1.89069">
        <ele>505.8</ele>
        <time>2022-07-09T15:30:45Z</time>
      </trkpt>
      <trkpt lat="45.97151" lon="1.89063">
        <ele>505.8</ele>
        <time>2022-07-09T15:30:48Z</time>
      </trkpt>
      <trkpt lat="45.97134" lon="1.89054">
        <ele>506.2</ele>
        <time>2022-07-09T15:30:53Z</time>
      </trkpt>
      <trkpt lat="45.97099" lon="1.89036">
        <ele>507</ele>
        <time>2022-07-09T15:31:03Z</time>
      </trkpt>
      <trkpt lat="45.97088" lon="1.8903">
        <ele>507</ele>
        <time>2022-07-09T15:31:06Z</time>
      </trkpt>
      <trkpt lat="45.97073" lon="1.89023">
        <ele>507.2</ele>
        <time>2022-07-09T15:31:10Z</time>
      </trkpt>
      <trkpt lat="45.97069" lon="1.89021">
        <ele>507.2</ele>
        <time>2022-07-09T15:31:11Z</time>
      </trkpt>
      <trkpt lat="45.97058" lon="1.89014">
        <ele>507.6</ele>
        <time>2022-07-09T15:31:14Z</time>
      </trkpt>
      <trkpt lat="45.97044" lon="1.89006">
        <ele>507.6</ele>
        <time>2022-07-09T15:31:18Z</time>
      </trkpt>
      <trkpt lat="45.97016" lon="1.88983">
        <ele>507.8</ele>
        <time>2022-07-09T15:31:26Z</time>
      </trkpt>
      <trkpt lat="45.97013" lon="1.8898">
        <ele>507.8</ele>
        <time>2022-07-09T15:31:27Z</time>
      </trkpt>
      <trkpt lat="45.96989" lon="1.8897">
        <ele>507.8</ele>
        <time>2022-07-09T15:31:33Z</time>
      </trkpt>
      <trkpt lat="45.9697" lon="1.88964">
        <ele>508</ele>
        <time>2022-07-09T15:31:38Z</time>
      </trkpt>
      <trkpt lat="45.9695" lon="1.88959">
        <ele>508.6</ele>
        <time>2022-07-09T15:31:43Z</time>
      </trkpt>
      <trkpt lat="45.96934" lon="1.88956">
        <ele>509.4</ele>
        <time>2022-07-09T15:31:47Z</time>
      </trkpt>
      <trkpt lat="45.96926" lon="1.88954">
        <ele>509.4</ele>
        <time>2022-07-09T15:31:49Z</time>
      </trkpt>
      <trkpt lat="45.96909" lon="1.88949">
        <ele>509.6</ele>
        <time>2022-07-09T15:31:53Z</time>
      </trkpt>
      <trkpt lat="45.9689" lon="1.88942">
        <ele>510</ele>
        <time>2022-07-09T15:31:58Z</time>
      </trkpt>
      <trkpt lat="45.96879" lon="1.88939">
        <ele>510</ele>
        <time>2022-07-09T15:32:01Z</time>
      </trkpt>
      <trkpt lat="45.96859" lon="1.88942">
        <ele>510.2</ele>
        <time>2022-07-09T15:32:07Z</time>
      </trkpt>
      <trkpt lat="45.96858" lon="1.88943">
        <ele>510.4</ele>
        <time>2022-07-09T15:32:08Z</time>
      </trkpt>
      <trkpt lat="45.96856" lon="1.88943">
        <ele>510.4</ele>
        <time>2022-07-09T15:32:11Z</time>
      </trkpt>
      <trkpt lat="45.96853" lon="1.88942">
        <ele>510.4</ele>
        <time>2022-07-09T15:32:17Z</time>
      </trkpt>
      <trkpt lat="45.96847" lon="1.8894">
        <ele>510.4</ele>
        <time>2022-07-09T15:32:20Z</time>
      </trkpt>
      <trkpt lat="45.96829" lon="1.88937">
        <ele>510.4</ele>
        <time>2022-07-09T15:32:26Z</time>
      </trkpt>
      <trkpt lat="45.96825" lon="1.88936">
        <ele>510.4</ele>
        <time>2022-07-09T15:32:27Z</time>
      </trkpt>
      <trkpt lat="45.96811" lon="1.88926">
        <ele>511</ele>
        <time>2022-07-09T15:32:32Z</time>
      </trkpt>
      <trkpt lat="45.96806" lon="1.88916">
        <ele>511.4</ele>
        <time>2022-07-09T15:32:35Z</time>
      </trkpt>
      <trkpt lat="45.96796" lon="1.88898">
        <ele>512.6</ele>
        <time>2022-07-09T15:32:41Z</time>
      </trkpt>
      <trkpt lat="45.96778" lon="1.88882">
        <ele>513.6</ele>
        <time>2022-07-09T15:32:48Z</time>
      </trkpt>
      <trkpt lat="45.96776" lon="1.8888">
        <ele>513.8</ele>
        <time>2022-07-09T15:32:49Z</time>
      </trkpt>
      <trkpt lat="45.96761" lon="1.88878">
        <ele>514.6</ele>
        <time>2022-07-09T15:32:54Z</time>
      </trkpt>
      <trkpt lat="45.96758" lon="1.88878">
        <ele>514.8</ele>
        <time>2022-07-09T15:32:55Z</time>
      </trkpt>
      <trkpt lat="45.96743" lon="1.88886">
        <ele>515.4</ele>
        <time>2022-07-09T15:33:01Z</time>
      </trkpt>
      <trkpt lat="45.96739" lon="1.88891">
        <ele>515.6</ele>
        <time>2022-07-09T15:33:03Z</time>
      </trkpt>
      <trkpt lat="45.96726" lon="1.88893">
        <ele>516.4</ele>
        <time>2022-07-09T15:33:07Z</time>
      </trkpt>
      <trkpt lat="45.96712" lon="1.88898">
        <ele>516.6</ele>
        <time>2022-07-09T15:33:11Z</time>
      </trkpt>
      <trkpt lat="45.96702" lon="1.88901">
        <ele>517</ele>
        <time>2022-07-09T15:33:14Z</time>
      </trkpt>
      <trkpt lat="45.96687" lon="1.88901">
        <ele>517</ele>
        <time>2022-07-09T15:33:18Z</time>
      </trkpt>
      <trkpt lat="45.96668" lon="1.88898">
        <ele>516.6</ele>
        <time>2022-07-09T15:33:23Z</time>
      </trkpt>
      <trkpt lat="45.96664" lon="1.88899">
        <ele>516</ele>
        <time>2022-07-09T15:33:25Z</time>
      </trkpt>
      <trkpt lat="45.96663" lon="1.889">
        <ele>515.6</ele>
        <time>2022-07-09T15:33:26Z</time>
      </trkpt>
      <trkpt lat="45.96662" lon="1.889">
        <ele>515</ele>
        <time>2022-07-09T15:33:27Z</time>
      </trkpt>
      <trkpt lat="45.96662" lon="1.88902">
        <ele>514.4</ele>
        <time>2022-07-09T15:33:28Z</time>
      </trkpt>
      <trkpt lat="45.96661" lon="1.88903">
        <ele>514.2</ele>
        <time>2022-07-09T15:33:29Z</time>
      </trkpt>
      <trkpt lat="45.96655" lon="1.88904">
        <ele>513.6</ele>
        <time>2022-07-09T15:33:32Z</time>
      </trkpt>
      <trkpt lat="45.96654" lon="1.88905">
        <ele>513.4</ele>
        <time>2022-07-09T15:33:33Z</time>
      </trkpt>
      <trkpt lat="45.9665" lon="1.88905">
        <ele>512.2</ele>
        <time>2022-07-09T15:33:36Z</time>
      </trkpt>
      <trkpt lat="45.9665" lon="1.88905">
        <ele>511</ele>
        <time>2022-07-09T15:33:39Z</time>
      </trkpt>
      <trkpt lat="45.96648" lon="1.88905">
        <ele>510.6</ele>
        <time>2022-07-09T15:33:41Z</time>
      </trkpt>
      <trkpt lat="45.96647" lon="1.88906">
        <ele>510.4</ele>
        <time>2022-07-09T15:33:42Z</time>
      </trkpt>
      <trkpt lat="45.96641" lon="1.8891">
        <ele>510</ele>
        <time>2022-07-09T15:33:45Z</time>
      </trkpt>
      <trkpt lat="45.96639" lon="1.88912">
        <ele>509.8</ele>
        <time>2022-07-09T15:33:46Z</time>
      </trkpt>
      <trkpt lat="45.9663" lon="1.8892">
        <ele>509.6</ele>
        <time>2022-07-09T15:33:50Z</time>
      </trkpt>
      <trkpt lat="45.96621" lon="1.88921">
        <ele>509.2</ele>
        <time>2022-07-09T15:33:55Z</time>
      </trkpt>
      <trkpt lat="45.96619" lon="1.88921">
        <ele>509.2</ele>
        <time>2022-07-09T15:33:56Z</time>
      </trkpt>
      <trkpt lat="45.96615" lon="1.8892">
        <ele>509.2</ele>
        <time>2022-07-09T15:33:59Z</time>
      </trkpt>
      <trkpt lat="45.96604" lon="1.88919">
        <ele>509.6</ele>
        <time>2022-07-09T15:34:06Z</time>
      </trkpt>
      <trkpt lat="45.96599" lon="1.88923">
        <ele>509.8</ele>
        <time>2022-07-09T15:34:09Z</time>
      </trkpt>
      <trkpt lat="45.96595" lon="1.88926">
        <ele>510</ele>
        <time>2022-07-09T15:34:12Z</time>
      </trkpt>
      <trkpt lat="45.96586" lon="1.8893">
        <ele>511</ele>
        <time>2022-07-09T15:34:18Z</time>
      </trkpt>
      <trkpt lat="45.96583" lon="1.88932">
        <ele>511.4</ele>
        <time>2022-07-09T15:34:22Z</time>
      </trkpt>
      <trkpt lat="45.96576" lon="1.88939">
        <ele>512.2</ele>
        <time>2022-07-09T15:34:29Z</time>
      </trkpt>
      <trkpt lat="45.96575" lon="1.8894">
        <ele>512.2</ele>
        <time>2022-07-09T15:34:30Z</time>
      </trkpt>
      <trkpt lat="45.96567" lon="1.88947">
        <ele>513</ele>
        <time>2022-07-09T15:34:38Z</time>
      </trkpt>
      <trkpt lat="45.96565" lon="1.88948">
        <ele>513.2</ele>
        <time>2022-07-09T15:34:40Z</time>
      </trkpt>
      <trkpt lat="45.96558" lon="1.88954">
        <ele>513.6</ele>
        <time>2022-07-09T15:34:46Z</time>
      </trkpt>
      <trkpt lat="45.96549" lon="1.88961">
        <ele>514</ele>
        <time>2022-07-09T15:34:54Z</time>
      </trkpt>
      <trkpt lat="45.96543" lon="1.88964">
        <ele>514.2</ele>
        <time>2022-07-09T15:34:59Z</time>
      </trkpt>
      <trkpt lat="45.96538" lon="1.88966">
        <ele>514.6</ele>
        <time>2022-07-09T15:35:03Z</time>
      </trkpt>
      <trkpt lat="45.96525" lon="1.88974">
        <ele>515</ele>
        <time>2022-07-09T15:35:13Z</time>
      </trkpt>
      <trkpt lat="45.9652" lon="1.88977">
        <ele>515.4</ele>
        <time>2022-07-09T15:35:17Z</time>
      </trkpt>
      <trkpt lat="45.96515" lon="1.88979">
        <ele>516.2</ele>
        <time>2022-07-09T15:35:21Z</time>
      </trkpt>
      <trkpt lat="45.96513" lon="1.88981">
        <ele>516.6</ele>
        <time>2022-07-09T15:35:24Z</time>
      </trkpt>
      <trkpt lat="45.96512" lon="1.88982">
        <ele>516.8</ele>
        <time>2022-07-09T15:35:25Z</time>
      </trkpt>
      <trkpt lat="45.96508" lon="1.88983">
        <ele>517</ele>
        <time>2022-07-09T15:35:29Z</time>
      </trkpt>
      <trkpt lat="45.96506" lon="1.88984">
        <ele>517.2</ele>
        <time>2022-07-09T15:35:32Z</time>
      </trkpt>
      <trkpt lat="45.96503" lon="1.88983">
        <ele>517.4</ele>
        <time>2022-07-09T15:35:34Z</time>
      </trkpt>
      <trkpt lat="45.96501" lon="1.88984">
        <ele>517.6</ele>
        <time>2022-07-09T15:35:36Z</time>
      </trkpt>
      <trkpt lat="45.96493" lon="1.88987">
        <ele>518</ele>
        <time>2022-07-09T15:35:41Z</time>
      </trkpt>
      <trkpt lat="45.96487" lon="1.8899">
        <ele>518.8</ele>
        <time>2022-07-09T15:35:47Z</time>
      </trkpt>
      <trkpt lat="45.96481" lon="1.88992">
        <ele>519.2</ele>
        <time>2022-07-09T15:35:51Z</time>
      </trkpt>
      <trkpt lat="45.96474" lon="1.88995">
        <ele>519.8</ele>
        <time>2022-07-09T15:35:56Z</time>
      </trkpt>
      <trkpt lat="45.96467" lon="1.88997">
        <ele>520.2</ele>
        <time>2022-07-09T15:36:00Z</time>
      </trkpt>
      <trkpt lat="45.96458" lon="1.89">
        <ele>520.8</ele>
        <time>2022-07-09T15:36:05Z</time>
      </trkpt>
      <trkpt lat="45.96451" lon="1.89005">
        <ele>521.6</ele>
        <time>2022-07-09T15:36:12Z</time>
      </trkpt>
      <trkpt lat="45.96448" lon="1.89007">
        <ele>521.8</ele>
        <time>2022-07-09T15:36:15Z</time>
      </trkpt>
      <trkpt lat="45.96438" lon="1.89012">
        <ele>523</ele>
        <time>2022-07-09T15:36:24Z</time>
      </trkpt>
      <trkpt lat="45.9643" lon="1.89015">
        <ele>523.8</ele>
        <time>2022-07-09T15:36:32Z</time>
      </trkpt>
      <trkpt lat="45.96425" lon="1.89016">
        <ele>524.2</ele>
        <time>2022-07-09T15:36:35Z</time>
      </trkpt>
      <trkpt lat="45.96424" lon="1.89017">
        <ele>524.2</ele>
        <time>2022-07-09T15:36:36Z</time>
      </trkpt>
      <trkpt lat="45.96421" lon="1.89016">
        <ele>524.4</ele>
        <time>2022-07-09T15:36:38Z</time>
      </trkpt>
      <trkpt lat="45.96415" lon="1.89017">
        <ele>524.8</ele>
        <time>2022-07-09T15:36:42Z</time>
      </trkpt>
      <trkpt lat="45.96411" lon="1.89023">
        <ele>524.8</ele>
        <time>2022-07-09T15:36:45Z</time>
      </trkpt>
      <trkpt lat="45.96405" lon="1.89036">
        <ele>525.2</ele>
        <time>2022-07-09T15:36:50Z</time>
      </trkpt>
      <trkpt lat="45.96404" lon="1.89039">
        <ele>525.6</ele>
        <time>2022-07-09T15:36:51Z</time>
      </trkpt>
      <trkpt lat="45.96396" lon="1.89043">
        <ele>526</ele>
        <time>2022-07-09T15:36:55Z</time>
      </trkpt>
      <trkpt lat="45.96394" lon="1.89042">
        <ele>526</ele>
        <time>2022-07-09T15:36:56Z</time>
      </trkpt>
      <trkpt lat="45.96377" lon="1.89027">
        <ele>526.2</ele>
        <time>2022-07-09T15:37:04Z</time>
      </trkpt>
      <trkpt lat="45.96365" lon="1.89013">
        <ele>526.6</ele>
        <time>2022-07-09T15:37:11Z</time>
      </trkpt>
      <trkpt lat="45.96363" lon="1.8901">
        <ele>526.6</ele>
        <time>2022-07-09T15:37:12Z</time>
      </trkpt>
      <trkpt lat="45.96347" lon="1.89007">
        <ele>527</ele>
        <time>2022-07-09T15:37:18Z</time>
      </trkpt>
      <trkpt lat="45.96344" lon="1.89007">
        <ele>527</ele>
        <time>2022-07-09T15:37:20Z</time>
      </trkpt>
      <trkpt lat="45.96342" lon="1.89008">
        <ele>527.4</ele>
        <time>2022-07-09T15:37:22Z</time>
      </trkpt>
      <trkpt lat="45.9634" lon="1.8901">
        <ele>527.4</ele>
        <time>2022-07-09T15:37:24Z</time>
      </trkpt>
      <trkpt lat="45.9634" lon="1.8901">
        <ele>527.6</ele>
        <time>2022-07-09T15:37:25Z</time>
      </trkpt>
      <trkpt lat="45.96339" lon="1.89008">
        <ele>527.6</ele>
        <time>2022-07-09T15:37:26Z</time>
      </trkpt>
      <trkpt lat="45.96338" lon="1.89003">
        <ele>528</ele>
        <time>2022-07-09T15:37:32Z</time>
      </trkpt>
      <trkpt lat="45.96336" lon="1.88999">
        <ele>528.6</ele>
        <time>2022-07-09T15:38:13Z</time>
      </trkpt>
      <trkpt lat="45.96332" lon="1.88993">
        <ele>528.8</ele>
        <time>2022-07-09T15:38:16Z</time>
      </trkpt>
      <trkpt lat="45.96326" lon="1.88985">
        <ele>529.6</ele>
        <time>2022-07-09T15:38:22Z</time>
      </trkpt>
      <trkpt lat="45.96324" lon="1.88981">
        <ele>529.8</ele>
        <time>2022-07-09T15:38:24Z</time>
      </trkpt>
      <trkpt lat="45.96323" lon="1.88979">
        <ele>529.8</ele>
        <time>2022-07-09T15:38:25Z</time>
      </trkpt>
      <trkpt lat="45.96313" lon="1.88968">
        <ele>530.4</ele>
        <time>2022-07-09T15:38:31Z</time>
      </trkpt>
      <trkpt lat="45.96309" lon="1.88962">
        <ele>530.6</ele>
        <time>2022-07-09T15:38:34Z</time>
      </trkpt>
      <trkpt lat="45.96305" lon="1.88957">
        <ele>531</ele>
        <time>2022-07-09T15:38:36Z</time>
      </trkpt>
      <trkpt lat="45.96304" lon="1.88955">
        <ele>531</ele>
        <time>2022-07-09T15:38:37Z</time>
      </trkpt>
      <trkpt lat="45.96291" lon="1.88941">
        <ele>531.2</ele>
        <time>2022-07-09T15:38:44Z</time>
      </trkpt>
      <trkpt lat="45.96282" lon="1.88929">
        <ele>531.2</ele>
        <time>2022-07-09T15:38:51Z</time>
      </trkpt>
      <trkpt lat="45.96279" lon="1.88925">
        <ele>531.2</ele>
        <time>2022-07-09T15:38:53Z</time>
      </trkpt>
      <trkpt lat="45.96273" lon="1.88918">
        <ele>531.6</ele>
        <time>2022-07-09T15:38:58Z</time>
      </trkpt>
      <trkpt lat="45.96262" lon="1.88905">
        <ele>531.8</ele>
        <time>2022-07-09T15:39:06Z</time>
      </trkpt>
      <trkpt lat="45.96261" lon="1.88904">
        <ele>532</ele>
        <time>2022-07-09T15:39:07Z</time>
      </trkpt>
      <trkpt lat="45.96249" lon="1.88892">
        <ele>532.6</ele>
        <time>2022-07-09T15:39:15Z</time>
      </trkpt>
      <trkpt lat="45.96244" lon="1.88886">
        <ele>533</ele>
        <time>2022-07-09T15:39:20Z</time>
      </trkpt>
      <trkpt lat="45.9624" lon="1.88882">
        <ele>533.2</ele>
        <time>2022-07-09T15:39:23Z</time>
      </trkpt>
      <trkpt lat="45.96232" lon="1.88873">
        <ele>533.6</ele>
        <time>2022-07-09T15:39:31Z</time>
      </trkpt>
      <trkpt lat="45.9623" lon="1.88871">
        <ele>533.8</ele>
        <time>2022-07-09T15:39:36Z</time>
      </trkpt>
      <trkpt lat="45.96227" lon="1.88868">
        <ele>534.4</ele>
        <time>2022-07-09T15:40:11Z</time>
      </trkpt>
      <trkpt lat="45.96217" lon="1.88858">
        <ele>534.6</ele>
        <time>2022-07-09T15:40:17Z</time>
      </trkpt>
      <trkpt lat="45.96204" lon="1.88846">
        <ele>535</ele>
        <time>2022-07-09T15:40:25Z</time>
      </trkpt>
      <trkpt lat="45.962" lon="1.88843">
        <ele>535.8</ele>
        <time>2022-07-09T15:40:29Z</time>
      </trkpt>
      <trkpt lat="45.96199" lon="1.88842">
        <ele>536</ele>
        <time>2022-07-09T15:40:30Z</time>
      </trkpt>
      <trkpt lat="45.96189" lon="1.88835">
        <ele>537</ele>
        <time>2022-07-09T15:40:37Z</time>
      </trkpt>
      <trkpt lat="45.96175" lon="1.88824">
        <ele>537.4</ele>
        <time>2022-07-09T15:40:44Z</time>
      </trkpt>
      <trkpt lat="45.96166" lon="1.88817">
        <ele>538</ele>
        <time>2022-07-09T15:40:49Z</time>
      </trkpt>
      <trkpt lat="45.9616" lon="1.88815">
        <ele>538.4</ele>
        <time>2022-07-09T15:40:52Z</time>
      </trkpt>
      <trkpt lat="45.96152" lon="1.88811">
        <ele>539</ele>
        <time>2022-07-09T15:40:56Z</time>
      </trkpt>
      <trkpt lat="45.9615" lon="1.88812">
        <ele>539.4</ele>
        <time>2022-07-09T15:40:58Z</time>
      </trkpt>
      <trkpt lat="45.96148" lon="1.88809">
        <ele>539.6</ele>
        <time>2022-07-09T15:41:00Z</time>
      </trkpt>
      <trkpt lat="45.96136" lon="1.88801">
        <ele>540.2</ele>
        <time>2022-07-09T15:41:05Z</time>
      </trkpt>
      <trkpt lat="45.96134" lon="1.888">
        <ele>540.4</ele>
        <time>2022-07-09T15:41:08Z</time>
      </trkpt>
      <trkpt lat="45.96134" lon="1.888">
        <ele>540.4</ele>
        <time>2022-07-09T15:41:09Z</time>
      </trkpt>
      <trkpt lat="45.96131" lon="1.88798">
        <ele>540.6</ele>
        <time>2022-07-09T15:41:11Z</time>
      </trkpt>
      <trkpt lat="45.96128" lon="1.88795">
        <ele>541</ele>
        <time>2022-07-09T15:41:13Z</time>
      </trkpt>
      <trkpt lat="45.96125" lon="1.88793">
        <ele>541.2</ele>
        <time>2022-07-09T15:41:15Z</time>
      </trkpt>
      <trkpt lat="45.96124" lon="1.88792">
        <ele>541.4</ele>
        <time>2022-07-09T15:41:17Z</time>
      </trkpt>
      <trkpt lat="45.96116" lon="1.88786">
        <ele>541.6</ele>
        <time>2022-07-09T15:41:23Z</time>
      </trkpt>
      <trkpt lat="45.96102" lon="1.88777">
        <ele>542</ele>
        <time>2022-07-09T15:41:30Z</time>
      </trkpt>
      <trkpt lat="45.96099" lon="1.88776">
        <ele>542.6</ele>
        <time>2022-07-09T15:41:33Z</time>
      </trkpt>
      <trkpt lat="45.96095" lon="1.88773">
        <ele>543.2</ele>
        <time>2022-07-09T15:41:38Z</time>
      </trkpt>
      <trkpt lat="45.96092" lon="1.88772">
        <ele>543.6</ele>
        <time>2022-07-09T15:41:40Z</time>
      </trkpt>
      <trkpt lat="45.96083" lon="1.88766">
        <ele>544</ele>
        <time>2022-07-09T15:41:45Z</time>
      </trkpt>
      <trkpt lat="45.96077" lon="1.88762">
        <ele>544.2</ele>
        <time>2022-07-09T15:41:48Z</time>
      </trkpt>
      <trkpt lat="45.96074" lon="1.8876">
        <ele>544.2</ele>
        <time>2022-07-09T15:41:49Z</time>
      </trkpt>
      <trkpt lat="45.96067" lon="1.88758">
        <ele>544.4</ele>
        <time>2022-07-09T15:41:52Z</time>
      </trkpt>
      <trkpt lat="45.96062" lon="1.88757">
        <ele>545.2</ele>
        <time>2022-07-09T15:41:58Z</time>
      </trkpt>
      <trkpt lat="45.96059" lon="1.88757">
        <ele>546</ele>
        <time>2022-07-09T15:42:02Z</time>
      </trkpt>
      <trkpt lat="45.96053" lon="1.88755">
        <ele>547</ele>
        <time>2022-07-09T15:42:07Z</time>
      </trkpt>
      <trkpt lat="45.96053" lon="1.88755">
        <ele>547.2</ele>
        <time>2022-07-09T15:42:09Z</time>
      </trkpt>
      <trkpt lat="45.96046" lon="1.88751">
        <ele>548.2</ele>
        <time>2022-07-09T15:42:14Z</time>
      </trkpt>
      <trkpt lat="45.9604" lon="1.88751">
        <ele>548.8</ele>
        <time>2022-07-09T15:42:17Z</time>
      </trkpt>
      <trkpt lat="45.96036" lon="1.88751">
        <ele>549.2</ele>
        <time>2022-07-09T15:42:19Z</time>
      </trkpt>
      <trkpt lat="45.96032" lon="1.88751">
        <ele>549.6</ele>
        <time>2022-07-09T15:42:21Z</time>
      </trkpt>
      <trkpt lat="45.96025" lon="1.88751">
        <ele>550</ele>
        <time>2022-07-09T15:42:25Z</time>
      </trkpt>
      <trkpt lat="45.96023" lon="1.8875">
        <ele>550.4</ele>
        <time>2022-07-09T15:42:27Z</time>
      </trkpt>
      <trkpt lat="45.96017" lon="1.88751">
        <ele>551.4</ele>
        <time>2022-07-09T15:42:32Z</time>
      </trkpt>
      <trkpt lat="45.96015" lon="1.88752">
        <ele>551.6</ele>
        <time>2022-07-09T15:42:33Z</time>
      </trkpt>
      <trkpt lat="45.96015" lon="1.88752">
        <ele>552</ele>
        <time>2022-07-09T15:42:35Z</time>
      </trkpt>
      <trkpt lat="45.96006" lon="1.88758">
        <ele>552.2</ele>
        <time>2022-07-09T15:42:41Z</time>
      </trkpt>
      <trkpt lat="45.96004" lon="1.88758">
        <ele>552.2</ele>
        <time>2022-07-09T15:42:42Z</time>
      </trkpt>
      <trkpt lat="45.95999" lon="1.88758">
        <ele>552.4</ele>
        <time>2022-07-09T15:42:44Z</time>
      </trkpt>
      <trkpt lat="45.95996" lon="1.88759">
        <ele>552.8</ele>
        <time>2022-07-09T15:42:46Z</time>
      </trkpt>
      <trkpt lat="45.95993" lon="1.88757">
        <ele>553.4</ele>
        <time>2022-07-09T15:42:48Z</time>
      </trkpt>
      <trkpt lat="45.95993" lon="1.88756">
        <ele>553.4</ele>
        <time>2022-07-09T15:42:49Z</time>
      </trkpt>
      <trkpt lat="45.95992" lon="1.88754">
        <ele>554.2</ele>
        <time>2022-07-09T15:42:51Z</time>
      </trkpt>
      <trkpt lat="45.95993" lon="1.88751">
        <ele>554.6</ele>
        <time>2022-07-09T15:42:53Z</time>
      </trkpt>
      <trkpt lat="45.95992" lon="1.88747">
        <ele>554.8</ele>
        <time>2022-07-09T15:42:56Z</time>
      </trkpt>
      <trkpt lat="45.95992" lon="1.88741">
        <ele>555.6</ele>
        <time>2022-07-09T15:43:00Z</time>
      </trkpt>
      <trkpt lat="45.95992" lon="1.88738">
        <ele>556</ele>
        <time>2022-07-09T15:43:03Z</time>
      </trkpt>
      <trkpt lat="45.95993" lon="1.88734">
        <ele>556.6</ele>
        <time>2022-07-09T15:43:06Z</time>
      </trkpt>
      <trkpt lat="45.95993" lon="1.88733">
        <ele>556.8</ele>
        <time>2022-07-09T15:43:07Z</time>
      </trkpt>
      <trkpt lat="45.95992" lon="1.88725">
        <ele>557.8</ele>
        <time>2022-07-09T15:43:14Z</time>
      </trkpt>
      <trkpt lat="45.95991" lon="1.88717">
        <ele>559</ele>
        <time>2022-07-09T15:43:21Z</time>
      </trkpt>
      <trkpt lat="45.95991" lon="1.88716">
        <ele>559</ele>
        <time>2022-07-09T15:43:22Z</time>
      </trkpt>
      <trkpt lat="45.95991" lon="1.88704">
        <ele>560</ele>
        <time>2022-07-09T15:43:29Z</time>
      </trkpt>
      <trkpt lat="45.95989" lon="1.88697">
        <ele>561.2</ele>
        <time>2022-07-09T15:43:37Z</time>
      </trkpt>
      <trkpt lat="45.9599" lon="1.88694">
        <ele>561.4</ele>
        <time>2022-07-09T15:43:39Z</time>
      </trkpt>
      <trkpt lat="45.95988" lon="1.88683">
        <ele>562.2</ele>
        <time>2022-07-09T15:43:45Z</time>
      </trkpt>
      <trkpt lat="45.95988" lon="1.88683">
        <ele>562.8</ele>
        <time>2022-07-09T15:43:48Z</time>
      </trkpt>
      <trkpt lat="45.95985" lon="1.88663">
        <ele>565.6</ele>
        <time>2022-07-09T15:44:09Z</time>
      </trkpt>
      <trkpt lat="45.95985" lon="1.88658">
        <ele>565.8</ele>
        <time>2022-07-09T15:44:12Z</time>
      </trkpt>
      <trkpt lat="45.95983" lon="1.88653">
        <ele>566.6</ele>
        <time>2022-07-09T15:44:16Z</time>
      </trkpt>
      <trkpt lat="45.95982" lon="1.88645">
        <ele>567</ele>
        <time>2022-07-09T15:44:20Z</time>
      </trkpt>
      <trkpt lat="45.95981" lon="1.88637">
        <ele>567.6</ele>
        <time>2022-07-09T15:44:24Z</time>
      </trkpt>
      <trkpt lat="45.95978" lon="1.88631">
        <ele>567.8</ele>
        <time>2022-07-09T15:44:28Z</time>
      </trkpt>
      <trkpt lat="45.95976" lon="1.88627">
        <ele>568.6</ele>
        <time>2022-07-09T15:44:32Z</time>
      </trkpt>
      <trkpt lat="45.95973" lon="1.8862">
        <ele>569.2</ele>
        <time>2022-07-09T15:44:38Z</time>
      </trkpt>
      <trkpt lat="45.95971" lon="1.88617">
        <ele>569.6</ele>
        <time>2022-07-09T15:44:41Z</time>
      </trkpt>
      <trkpt lat="45.9597" lon="1.88613">
        <ele>569.8</ele>
        <time>2022-07-09T15:44:43Z</time>
      </trkpt>
      <trkpt lat="45.95968" lon="1.88608">
        <ele>570.4</ele>
        <time>2022-07-09T15:44:46Z</time>
      </trkpt>
      <trkpt lat="45.95967" lon="1.88606">
        <ele>570.6</ele>
        <time>2022-07-09T15:44:48Z</time>
      </trkpt>
      <trkpt lat="45.95966" lon="1.88603">
        <ele>570.8</ele>
        <time>2022-07-09T15:44:50Z</time>
      </trkpt>
      <trkpt lat="45.95966" lon="1.88603">
        <ele>570.8</ele>
        <time>2022-07-09T15:44:51Z</time>
      </trkpt>
      <trkpt lat="45.95963" lon="1.88598">
        <ele>571.6</ele>
        <time>2022-07-09T15:44:57Z</time>
      </trkpt>
      <trkpt lat="45.95963" lon="1.88596">
        <ele>572</ele>
        <time>2022-07-09T15:44:59Z</time>
      </trkpt>
      <trkpt lat="45.95959" lon="1.88593">
        <ele>572.6</ele>
        <time>2022-07-09T15:45:04Z</time>
      </trkpt>
      <trkpt lat="45.95959" lon="1.8859">
        <ele>573</ele>
        <time>2022-07-09T15:45:06Z</time>
      </trkpt>
      <trkpt lat="45.95958" lon="1.88588">
        <ele>573.4</ele>
        <time>2022-07-09T15:45:09Z</time>
      </trkpt>
      <trkpt lat="45.95956" lon="1.88585">
        <ele>574.2</ele>
        <time>2022-07-09T15:45:13Z</time>
      </trkpt>
      <trkpt lat="45.95956" lon="1.88584">
        <ele>574.4</ele>
        <time>2022-07-09T15:45:15Z</time>
      </trkpt>
      <trkpt lat="45.95954" lon="1.8858">
        <ele>575</ele>
        <time>2022-07-09T15:45:20Z</time>
      </trkpt>
      <trkpt lat="45.95954" lon="1.88578">
        <ele>575.2</ele>
        <time>2022-07-09T15:45:21Z</time>
      </trkpt>
      <trkpt lat="45.95952" lon="1.88571">
        <ele>576.2</ele>
        <time>2022-07-09T15:45:29Z</time>
      </trkpt>
      <trkpt lat="45.95951" lon="1.88568">
        <ele>577.4</ele>
        <time>2022-07-09T15:45:36Z</time>
      </trkpt>
      <trkpt lat="45.95951" lon="1.88567">
        <ele>578.4</ele>
        <time>2022-07-09T15:45:42Z</time>
      </trkpt>
      <trkpt lat="45.9595" lon="1.88561">
        <ele>578.8</ele>
        <time>2022-07-09T15:45:46Z</time>
      </trkpt>
      <trkpt lat="45.9595" lon="1.8856">
        <ele>579</ele>
        <time>2022-07-09T15:45:47Z</time>
      </trkpt>
      <trkpt lat="45.95948" lon="1.88557">
        <ele>579.8</ele>
        <time>2022-07-09T15:45:52Z</time>
      </trkpt>
      <trkpt lat="45.95947" lon="1.88556">
        <ele>580.6</ele>
        <time>2022-07-09T15:45:57Z</time>
      </trkpt>
      <trkpt lat="45.95946" lon="1.88549">
        <ele>581</ele>
        <time>2022-07-09T15:46:00Z</time>
      </trkpt>
      <trkpt lat="45.95944" lon="1.88543">
        <ele>581.4</ele>
        <time>2022-07-09T15:46:03Z</time>
      </trkpt>
      <trkpt lat="45.95943" lon="1.8854">
        <ele>582</ele>
        <time>2022-07-09T15:46:08Z</time>
      </trkpt>
      <trkpt lat="45.95941" lon="1.88533">
        <ele>583</ele>
        <time>2022-07-09T15:46:13Z</time>
      </trkpt>
      <trkpt lat="45.95941" lon="1.88528">
        <ele>583.2</ele>
        <time>2022-07-09T15:46:15Z</time>
      </trkpt>
      <trkpt lat="45.95941" lon="1.88524">
        <ele>583.6</ele>
        <time>2022-07-09T15:46:19Z</time>
      </trkpt>
      <trkpt lat="45.95941" lon="1.88522">
        <ele>583.8</ele>
        <time>2022-07-09T15:46:20Z</time>
      </trkpt>
      <trkpt lat="45.95941" lon="1.88516">
        <ele>584.2</ele>
        <time>2022-07-09T15:46:23Z</time>
      </trkpt>
      <trkpt lat="45.95941" lon="1.88514">
        <ele>584.2</ele>
        <time>2022-07-09T15:46:24Z</time>
      </trkpt>
      <trkpt lat="45.95942" lon="1.88508">
        <ele>584.6</ele>
        <time>2022-07-09T15:46:26Z</time>
      </trkpt>
      <trkpt lat="45.95943" lon="1.88498">
        <ele>585</ele>
        <time>2022-07-09T15:46:32Z</time>
      </trkpt>
      <trkpt lat="45.95944" lon="1.88495">
        <ele>585.4</ele>
        <time>2022-07-09T15:46:36Z</time>
      </trkpt>
      <trkpt lat="45.95945" lon="1.88492">
        <ele>585.6</ele>
        <time>2022-07-09T15:46:39Z</time>
      </trkpt>
      <trkpt lat="45.95946" lon="1.88481">
        <ele>586.4</ele>
        <time>2022-07-09T15:46:46Z</time>
      </trkpt>
      <trkpt lat="45.95946" lon="1.88479">
        <ele>586.4</ele>
        <time>2022-07-09T15:46:47Z</time>
      </trkpt>
      <trkpt lat="45.95949" lon="1.88469">
        <ele>587.2</ele>
        <time>2022-07-09T15:46:55Z</time>
      </trkpt>
      <trkpt lat="45.95949" lon="1.88466">
        <ele>587.6</ele>
        <time>2022-07-09T15:46:57Z</time>
      </trkpt>
      <trkpt lat="45.95951" lon="1.88461">
        <ele>588.6</ele>
        <time>2022-07-09T15:47:02Z</time>
      </trkpt>
      <trkpt lat="45.95951" lon="1.8846">
        <ele>588.8</ele>
        <time>2022-07-09T15:47:03Z</time>
      </trkpt>
      <trkpt lat="45.95951" lon="1.88458">
        <ele>589</ele>
        <time>2022-07-09T15:47:04Z</time>
      </trkpt>
      <trkpt lat="45.95953" lon="1.88453">
        <ele>589.6</ele>
        <time>2022-07-09T15:47:10Z</time>
      </trkpt>
      <trkpt lat="45.95953" lon="1.88453">
        <ele>589.8</ele>
        <time>2022-07-09T15:47:11Z</time>
      </trkpt>
      <trkpt lat="45.95954" lon="1.88448">
        <ele>590.4</ele>
        <time>2022-07-09T15:47:16Z</time>
      </trkpt>
      <trkpt lat="45.95954" lon="1.88448">
        <ele>590.6</ele>
        <time>2022-07-09T15:47:17Z</time>
      </trkpt>
      <trkpt lat="45.95955" lon="1.88445">
        <ele>590.8</ele>
        <time>2022-07-09T15:47:19Z</time>
      </trkpt>
      <trkpt lat="45.95956" lon="1.88438">
        <ele>591.6</ele>
        <time>2022-07-09T15:47:26Z</time>
      </trkpt>
      <trkpt lat="45.95956" lon="1.88437">
        <ele>591.8</ele>
        <time>2022-07-09T15:47:27Z</time>
      </trkpt>
      <trkpt lat="45.95954" lon="1.8843">
        <ele>593.2</ele>
        <time>2022-07-09T15:47:34Z</time>
      </trkpt>
      <trkpt lat="45.95954" lon="1.88429">
        <ele>593.2</ele>
        <time>2022-07-09T15:47:35Z</time>
      </trkpt>
      <trkpt lat="45.95952" lon="1.88425">
        <ele>594.2</ele>
        <time>2022-07-09T15:47:42Z</time>
      </trkpt>
      <trkpt lat="45.95952" lon="1.88423">
        <ele>594.4</ele>
        <time>2022-07-09T15:47:44Z</time>
      </trkpt>
      <trkpt lat="45.95952" lon="1.8842">
        <ele>595.4</ele>
        <time>2022-07-09T15:47:49Z</time>
      </trkpt>
      <trkpt lat="45.95951" lon="1.88418">
        <ele>596.4</ele>
        <time>2022-07-09T15:47:56Z</time>
      </trkpt>
      <trkpt lat="45.9595" lon="1.88416">
        <ele>596.8</ele>
        <time>2022-07-09T15:47:58Z</time>
      </trkpt>
      <trkpt lat="45.95946" lon="1.88407">
        <ele>597.6</ele>
        <time>2022-07-09T15:48:03Z</time>
      </trkpt>
      <trkpt lat="45.95945" lon="1.88405">
        <ele>597.8</ele>
        <time>2022-07-09T15:48:05Z</time>
      </trkpt>
      <trkpt lat="45.95945" lon="1.88404">
        <ele>598</ele>
        <time>2022-07-09T15:48:06Z</time>
      </trkpt>
      <trkpt lat="45.95943" lon="1.88399">
        <ele>598.8</ele>
        <time>2022-07-09T15:48:10Z</time>
      </trkpt>
      <trkpt lat="45.95942" lon="1.88399">
        <ele>599.2</ele>
        <time>2022-07-09T15:48:12Z</time>
      </trkpt>
      <trkpt lat="45.95939" lon="1.88393">
        <ele>599.8</ele>
        <time>2022-07-09T15:48:18Z</time>
      </trkpt>
      <trkpt lat="45.95939" lon="1.88392">
        <ele>600</ele>
        <time>2022-07-09T15:48:19Z</time>
      </trkpt>
      <trkpt lat="45.95935" lon="1.88385">
        <ele>600.6</ele>
        <time>2022-07-09T15:48:25Z</time>
      </trkpt>
      <trkpt lat="45.95933" lon="1.88383">
        <ele>600.8</ele>
        <time>2022-07-09T15:48:27Z</time>
      </trkpt>
      <trkpt lat="45.95929" lon="1.88374">
        <ele>601.8</ele>
        <time>2022-07-09T15:48:34Z</time>
      </trkpt>
      <trkpt lat="45.95929" lon="1.88372">
        <ele>601.8</ele>
        <time>2022-07-09T15:48:35Z</time>
      </trkpt>
      <trkpt lat="45.95929" lon="1.88371">
        <ele>602.2</ele>
        <time>2022-07-09T15:48:38Z</time>
      </trkpt>
      <trkpt lat="45.95928" lon="1.88364">
        <ele>603</ele>
        <time>2022-07-09T15:48:47Z</time>
      </trkpt>
      <trkpt lat="45.95927" lon="1.88362">
        <ele>603</ele>
        <time>2022-07-09T15:48:48Z</time>
      </trkpt>
      <trkpt lat="45.95923" lon="1.88354">
        <ele>603.2</ele>
        <time>2022-07-09T15:48:53Z</time>
      </trkpt>
      <trkpt lat="45.95919" lon="1.88351">
        <ele>603.6</ele>
        <time>2022-07-09T15:48:56Z</time>
      </trkpt>
      <trkpt lat="45.95916" lon="1.88345">
        <ele>604</ele>
        <time>2022-07-09T15:48:58Z</time>
      </trkpt>
      <trkpt lat="45.95915" lon="1.88343">
        <ele>604.2</ele>
        <time>2022-07-09T15:48:59Z</time>
      </trkpt>
      <trkpt lat="45.95908" lon="1.88326">
        <ele>605</ele>
        <time>2022-07-09T15:49:06Z</time>
      </trkpt>
      <trkpt lat="45.95906" lon="1.88323">
        <ele>605</ele>
        <time>2022-07-09T15:49:07Z</time>
      </trkpt>
      <trkpt lat="45.95905" lon="1.88314">
        <ele>605.6</ele>
        <time>2022-07-09T15:49:10Z</time>
      </trkpt>
      <trkpt lat="45.95903" lon="1.88309">
        <ele>605.8</ele>
        <time>2022-07-09T15:49:12Z</time>
      </trkpt>
      <trkpt lat="45.95899" lon="1.88301">
        <ele>606</ele>
        <time>2022-07-09T15:49:15Z</time>
      </trkpt>
      <trkpt lat="45.95895" lon="1.88293">
        <ele>606.2</ele>
        <time>2022-07-09T15:49:18Z</time>
      </trkpt>
      <trkpt lat="45.95889" lon="1.88284">
        <ele>606.2</ele>
        <time>2022-07-09T15:49:21Z</time>
      </trkpt>
      <trkpt lat="45.95876" lon="1.88269">
        <ele>606</ele>
        <time>2022-07-09T15:49:27Z</time>
      </trkpt>
      <trkpt lat="45.95859" lon="1.8826">
        <ele>605.6</ele>
        <time>2022-07-09T15:49:33Z</time>
      </trkpt>
      <trkpt lat="45.95853" lon="1.8826">
        <ele>605.6</ele>
        <time>2022-07-09T15:49:34Z</time>
      </trkpt>
      <trkpt lat="45.95846" lon="1.88258">
        <ele>605.6</ele>
        <time>2022-07-09T15:49:36Z</time>
      </trkpt>
      <trkpt lat="45.95841" lon="1.88253">
        <ele>605.4</ele>
        <time>2022-07-09T15:49:39Z</time>
      </trkpt>
      <trkpt lat="45.9584" lon="1.8825">
        <ele>605.4</ele>
        <time>2022-07-09T15:49:41Z</time>
      </trkpt>
      <trkpt lat="45.95834" lon="1.88246">
        <ele>605.2</ele>
        <time>2022-07-09T15:49:44Z</time>
      </trkpt>
      <trkpt lat="45.95823" lon="1.8824">
        <ele>605.2</ele>
        <time>2022-07-09T15:49:49Z</time>
      </trkpt>
      <trkpt lat="45.9582" lon="1.88239">
        <ele>605.2</ele>
        <time>2022-07-09T15:49:50Z</time>
      </trkpt>
      <trkpt lat="45.95807" lon="1.88234">
        <ele>605.8</ele>
        <time>2022-07-09T15:49:55Z</time>
      </trkpt>
      <trkpt lat="45.95801" lon="1.88234">
        <ele>606</ele>
        <time>2022-07-09T15:50:00Z</time>
      </trkpt>
      <trkpt lat="45.95795" lon="1.88237">
        <ele>606.6</ele>
        <time>2022-07-09T15:50:04Z</time>
      </trkpt>
      <trkpt lat="45.95794" lon="1.88239">
        <ele>606.8</ele>
        <time>2022-07-09T15:50:06Z</time>
      </trkpt>
      <trkpt lat="45.95792" lon="1.88239">
        <ele>606.8</ele>
        <time>2022-07-09T15:50:07Z</time>
      </trkpt>
      <trkpt lat="45.9579" lon="1.88241">
        <ele>607</ele>
        <time>2022-07-09T15:50:08Z</time>
      </trkpt>
      <trkpt lat="45.95787" lon="1.88244">
        <ele>607.4</ele>
        <time>2022-07-09T15:50:10Z</time>
      </trkpt>
      <trkpt lat="45.95785" lon="1.88244">
        <ele>607.4</ele>
        <time>2022-07-09T15:50:11Z</time>
      </trkpt>
      <trkpt lat="45.95782" lon="1.88245">
        <ele>608</ele>
        <time>2022-07-09T15:50:13Z</time>
      </trkpt>
      <trkpt lat="45.95779" lon="1.88245">
        <ele>608.2</ele>
        <time>2022-07-09T15:50:15Z</time>
      </trkpt>
      <trkpt lat="45.95777" lon="1.88245">
        <ele>608.2</ele>
        <time>2022-07-09T15:50:16Z</time>
      </trkpt>
      <trkpt lat="45.95769" lon="1.88242">
        <ele>609</ele>
        <time>2022-07-09T15:50:20Z</time>
      </trkpt>
      <trkpt lat="45.9576" lon="1.88242">
        <ele>609.2</ele>
        <time>2022-07-09T15:50:24Z</time>
      </trkpt>
      <trkpt lat="45.9575" lon="1.88243">
        <ele>609.2</ele>
        <time>2022-07-09T15:50:29Z</time>
      </trkpt>
      <trkpt lat="45.95749" lon="1.88244">
        <ele>609.2</ele>
        <time>2022-07-09T15:50:30Z</time>
      </trkpt>
      <trkpt lat="45.9574" lon="1.88245">
        <ele>609.8</ele>
        <time>2022-07-09T15:50:36Z</time>
      </trkpt>
      <trkpt lat="45.95739" lon="1.88244">
        <ele>610</ele>
        <time>2022-07-09T15:50:37Z</time>
      </trkpt>
      <trkpt lat="45.95732" lon="1.88244">
        <ele>610.4</ele>
        <time>2022-07-09T15:50:41Z</time>
      </trkpt>
      <trkpt lat="45.95723" lon="1.88245">
        <ele>611</ele>
        <time>2022-07-09T15:50:46Z</time>
      </trkpt>
      <trkpt lat="45.9572" lon="1.88246">
        <ele>611</ele>
        <time>2022-07-09T15:50:48Z</time>
      </trkpt>
      <trkpt lat="45.95719" lon="1.88246">
        <ele>611.2</ele>
        <time>2022-07-09T15:50:49Z</time>
      </trkpt>
      <trkpt lat="45.95712" lon="1.88247">
        <ele>611.8</ele>
        <time>2022-07-09T15:50:55Z</time>
      </trkpt>
      <trkpt lat="45.95709" lon="1.88248">
        <ele>611.8</ele>
        <time>2022-07-09T15:50:56Z</time>
      </trkpt>
      <trkpt lat="45.95707" lon="1.88249">
        <ele>612</ele>
        <time>2022-07-09T15:50:57Z</time>
      </trkpt>
      <trkpt lat="45.95699" lon="1.88249">
        <ele>612.2</ele>
        <time>2022-07-09T15:51:01Z</time>
      </trkpt>
      <trkpt lat="45.95692" lon="1.88245">
        <ele>612.4</ele>
        <time>2022-07-09T15:51:05Z</time>
      </trkpt>
      <trkpt lat="45.95687" lon="1.88245">
        <ele>612.6</ele>
        <time>2022-07-09T15:51:07Z</time>
      </trkpt>
      <trkpt lat="45.95685" lon="1.88245">
        <ele>612.8</ele>
        <time>2022-07-09T15:51:08Z</time>
      </trkpt>
      <trkpt lat="45.95679" lon="1.88245">
        <ele>613.2</ele>
        <time>2022-07-09T15:51:11Z</time>
      </trkpt>
      <trkpt lat="45.95678" lon="1.88245">
        <ele>613.2</ele>
        <time>2022-07-09T15:51:13Z</time>
      </trkpt>
      <trkpt lat="45.95671" lon="1.88245">
        <ele>613.8</ele>
        <time>2022-07-09T15:51:18Z</time>
      </trkpt>
      <trkpt lat="45.95669" lon="1.88246">
        <ele>614.2</ele>
        <time>2022-07-09T15:51:20Z</time>
      </trkpt>
      <trkpt lat="45.9566" lon="1.88245">
        <ele>615</ele>
        <time>2022-07-09T15:51:25Z</time>
      </trkpt>
      <trkpt lat="45.95656" lon="1.88245">
        <ele>615</ele>
        <time>2022-07-09T15:51:26Z</time>
      </trkpt>
      <trkpt lat="45.95652" lon="1.88244">
        <ele>615</ele>
        <time>2022-07-09T15:51:27Z</time>
      </trkpt>
      <trkpt lat="45.95644" lon="1.88242">
        <ele>615.2</ele>
        <time>2022-07-09T15:51:30Z</time>
      </trkpt>
      <trkpt lat="45.95639" lon="1.88243">
        <ele>615.4</ele>
        <time>2022-07-09T15:51:32Z</time>
      </trkpt>
      <trkpt lat="45.95634" lon="1.8824">
        <ele>615.6</ele>
        <time>2022-07-09T15:51:34Z</time>
      </trkpt>
      <trkpt lat="45.95628" lon="1.88239">
        <ele>615.8</ele>
        <time>2022-07-09T15:51:36Z</time>
      </trkpt>
      <trkpt lat="45.95623" lon="1.88238">
        <ele>615.8</ele>
        <time>2022-07-09T15:51:37Z</time>
      </trkpt>
      <trkpt lat="45.95617" lon="1.88241">
        <ele>616.2</ele>
        <time>2022-07-09T15:51:40Z</time>
      </trkpt>
      <trkpt lat="45.95605" lon="1.88241">
        <ele>616.4</ele>
        <time>2022-07-09T15:51:43Z</time>
      </trkpt>
      <trkpt lat="45.95596" lon="1.88242">
        <ele>616.8</ele>
        <time>2022-07-09T15:51:47Z</time>
      </trkpt>
      <trkpt lat="45.95593" lon="1.88243">
        <ele>616.8</ele>
        <time>2022-07-09T15:51:48Z</time>
      </trkpt>
      <trkpt lat="45.95591" lon="1.88244">
        <ele>616.8</ele>
        <time>2022-07-09T15:51:49Z</time>
      </trkpt>
      <trkpt lat="45.95578" lon="1.88241">
        <ele>617.2</ele>
        <time>2022-07-09T15:51:56Z</time>
      </trkpt>
      <trkpt lat="45.95569" lon="1.88238">
        <ele>617.2</ele>
        <time>2022-07-09T15:51:59Z</time>
      </trkpt>
      <trkpt lat="45.95563" lon="1.88236">
        <ele>617</ele>
        <time>2022-07-09T15:52:01Z</time>
      </trkpt>
      <trkpt lat="45.95542" lon="1.88229">
        <ele>616.6</ele>
        <time>2022-07-09T15:52:08Z</time>
      </trkpt>
      <trkpt lat="45.95527" lon="1.88225">
        <ele>616.2</ele>
        <time>2022-07-09T15:52:14Z</time>
      </trkpt>
      <trkpt lat="45.95508" lon="1.88218">
        <ele>616.4</ele>
        <time>2022-07-09T15:52:21Z</time>
      </trkpt>
      <trkpt lat="45.95487" lon="1.88206">
        <ele>616.4</ele>
        <time>2022-07-09T15:52:28Z</time>
      </trkpt>
      <trkpt lat="45.9547" lon="1.88195">
        <ele>615.8</ele>
        <time>2022-07-09T15:52:33Z</time>
      </trkpt>
      <trkpt lat="45.95455" lon="1.88185">
        <ele>614.6</ele>
        <time>2022-07-09T15:52:38Z</time>
      </trkpt>
      <trkpt lat="45.95447" lon="1.88181">
        <ele>613.4</ele>
        <time>2022-07-09T15:52:40Z</time>
      </trkpt>
      <trkpt lat="45.95435" lon="1.88165">
        <ele>612.6</ele>
        <time>2022-07-09T15:52:44Z</time>
      </trkpt>
      <trkpt lat="45.95434" lon="1.8816">
        <ele>612.2</ele>
        <time>2022-07-09T15:52:45Z</time>
      </trkpt>
      <trkpt lat="45.95436" lon="1.88142">
        <ele>611.2</ele>
        <time>2022-07-09T15:52:49Z</time>
      </trkpt>
      <trkpt lat="45.95433" lon="1.8813">
        <ele>610.2</ele>
        <time>2022-07-09T15:52:51Z</time>
      </trkpt>
      <trkpt lat="45.9543" lon="1.88112">
        <ele>609.2</ele>
        <time>2022-07-09T15:52:54Z</time>
      </trkpt>
      <trkpt lat="45.95427" lon="1.88103">
        <ele>609</ele>
        <time>2022-07-09T15:52:56Z</time>
      </trkpt>
      <trkpt lat="45.95427" lon="1.88089">
        <ele>608.8</ele>
        <time>2022-07-09T15:52:59Z</time>
      </trkpt>
      <trkpt lat="45.95427" lon="1.88076">
        <ele>608.6</ele>
        <time>2022-07-09T15:53:03Z</time>
      </trkpt>
      <trkpt lat="45.95427" lon="1.8807">
        <ele>608.4</ele>
        <time>2022-07-09T15:53:08Z</time>
      </trkpt>
      <trkpt lat="45.95426" lon="1.88067">
        <ele>607.4</ele>
        <time>2022-07-09T15:53:41Z</time>
      </trkpt>
      <trkpt lat="45.95422" lon="1.88069">
        <ele>607.2</ele>
        <time>2022-07-09T15:53:44Z</time>
      </trkpt>
      <trkpt lat="45.95412" lon="1.88077">
        <ele>607.6</ele>
        <time>2022-07-09T15:53:50Z</time>
      </trkpt>
      <trkpt lat="45.95401" lon="1.88079">
        <ele>608</ele>
        <time>2022-07-09T15:53:57Z</time>
      </trkpt>
      <trkpt lat="45.9539" lon="1.88082">
        <ele>607.8</ele>
        <time>2022-07-09T15:54:02Z</time>
      </trkpt>
      <trkpt lat="45.95374" lon="1.88088">
        <ele>607.4</ele>
        <time>2022-07-09T15:54:09Z</time>
      </trkpt>
      <trkpt lat="45.95359" lon="1.88095">
        <ele>606.6</ele>
        <time>2022-07-09T15:54:15Z</time>
      </trkpt>
      <trkpt lat="45.95356" lon="1.88096">
        <ele>606.6</ele>
        <time>2022-07-09T15:54:16Z</time>
      </trkpt>
      <trkpt lat="45.95353" lon="1.88097">
        <ele>606.6</ele>
        <time>2022-07-09T15:54:17Z</time>
      </trkpt>
      <trkpt lat="45.95345" lon="1.88103">
        <ele>606.4</ele>
        <time>2022-07-09T15:54:21Z</time>
      </trkpt>
      <trkpt lat="45.95345" lon="1.88104">
        <ele>606.2</ele>
        <time>2022-07-09T15:54:23Z</time>
      </trkpt>
      <trkpt lat="45.95342" lon="1.88106">
        <ele>605.2</ele>
        <time>2022-07-09T15:54:40Z</time>
      </trkpt>
      <trkpt lat="45.9534" lon="1.88107">
        <ele>605.2</ele>
        <time>2022-07-09T15:54:41Z</time>
      </trkpt>
      <trkpt lat="45.95339" lon="1.88109">
        <ele>605.2</ele>
        <time>2022-07-09T15:54:42Z</time>
      </trkpt>
      <trkpt lat="45.95328" lon="1.88116">
        <ele>605</ele>
        <time>2022-07-09T15:54:48Z</time>
      </trkpt>
      <trkpt lat="45.95315" lon="1.88123">
        <ele>604.8</ele>
        <time>2022-07-09T15:54:55Z</time>
      </trkpt>
      <trkpt lat="45.95301" lon="1.88128">
        <ele>604.6</ele>
        <time>2022-07-09T15:55:00Z</time>
      </trkpt>
      <trkpt lat="45.95299" lon="1.88128">
        <ele>604.6</ele>
        <time>2022-07-09T15:55:01Z</time>
      </trkpt>
      <trkpt lat="45.95293" lon="1.88127">
        <ele>604.2</ele>
        <time>2022-07-09T15:55:03Z</time>
      </trkpt>
      <trkpt lat="45.95289" lon="1.88128">
        <ele>604</ele>
        <time>2022-07-09T15:55:05Z</time>
      </trkpt>
      <trkpt lat="45.95275" lon="1.88133">
        <ele>603.2</ele>
        <time>2022-07-09T15:55:11Z</time>
      </trkpt>
      <trkpt lat="45.95275" lon="1.88133">
        <ele>603</ele>
        <time>2022-07-09T15:55:12Z</time>
      </trkpt>
      <trkpt lat="45.95275" lon="1.88133">
        <ele>602.8</ele>
        <time>2022-07-09T15:55:13Z</time>
      </trkpt>
      <trkpt lat="45.95271" lon="1.88133">
        <ele>602</ele>
        <time>2022-07-09T15:55:22Z</time>
      </trkpt>
      <trkpt lat="45.95269" lon="1.88133">
        <ele>602</ele>
        <time>2022-07-09T15:55:23Z</time>
      </trkpt>
      <trkpt lat="45.95267" lon="1.88132">
        <ele>601.6</ele>
        <time>2022-07-09T15:55:25Z</time>
      </trkpt>
      <trkpt lat="45.95259" lon="1.88128">
        <ele>600.8</ele>
        <time>2022-07-09T15:55:30Z</time>
      </trkpt>
      <trkpt lat="45.9525" lon="1.88122">
        <ele>600</ele>
        <time>2022-07-09T15:55:34Z</time>
      </trkpt>
      <trkpt lat="45.9525" lon="1.88121">
        <ele>599.6</ele>
        <time>2022-07-09T15:55:35Z</time>
      </trkpt>
      <trkpt lat="45.9525" lon="1.88121">
        <ele>598.8</ele>
        <time>2022-07-09T15:55:37Z</time>
      </trkpt>
      <trkpt lat="45.95245" lon="1.8812">
        <ele>598.2</ele>
        <time>2022-07-09T15:55:39Z</time>
      </trkpt>
      <trkpt lat="45.95243" lon="1.88121">
        <ele>597.8</ele>
        <time>2022-07-09T15:55:40Z</time>
      </trkpt>
      <trkpt lat="45.95239" lon="1.88125">
        <ele>597.4</ele>
        <time>2022-07-09T15:55:42Z</time>
      </trkpt>
      <trkpt lat="45.95232" lon="1.88131">
        <ele>597</ele>
        <time>2022-07-09T15:55:44Z</time>
      </trkpt>
      <trkpt lat="45.95219" lon="1.88138">
        <ele>596</ele>
        <time>2022-07-09T15:55:48Z</time>
      </trkpt>
      <trkpt lat="45.95215" lon="1.8814">
        <ele>595.6</ele>
        <time>2022-07-09T15:55:49Z</time>
      </trkpt>
      <trkpt lat="45.95206" lon="1.88145">
        <ele>594</ele>
        <time>2022-07-09T15:55:52Z</time>
      </trkpt>
      <trkpt lat="45.95199" lon="1.88148">
        <ele>593</ele>
        <time>2022-07-09T15:55:54Z</time>
      </trkpt>
      <trkpt lat="45.95185" lon="1.88157">
        <ele>591.8</ele>
        <time>2022-07-09T15:55:58Z</time>
      </trkpt>
      <trkpt lat="45.9518" lon="1.88161">
        <ele>590.8</ele>
        <time>2022-07-09T15:55:59Z</time>
      </trkpt>
      <trkpt lat="45.95172" lon="1.88165">
        <ele>589.6</ele>
        <time>2022-07-09T15:56:01Z</time>
      </trkpt>
      <trkpt lat="45.95161" lon="1.88168">
        <ele>589</ele>
        <time>2022-07-09T15:56:04Z</time>
      </trkpt>
      <trkpt lat="45.95156" lon="1.88171">
        <ele>588.2</ele>
        <time>2022-07-09T15:56:05Z</time>
      </trkpt>
      <trkpt lat="45.95149" lon="1.88172">
        <ele>587.6</ele>
        <time>2022-07-09T15:56:06Z</time>
      </trkpt>
      <trkpt lat="45.9514" lon="1.88172">
        <ele>587</ele>
        <time>2022-07-09T15:56:08Z</time>
      </trkpt>
      <trkpt lat="45.95125" lon="1.88175">
        <ele>585.8</ele>
        <time>2022-07-09T15:56:12Z</time>
      </trkpt>
      <trkpt lat="45.95123" lon="1.88177">
        <ele>585.6</ele>
        <time>2022-07-09T15:56:13Z</time>
      </trkpt>
      <trkpt lat="45.95117" lon="1.88177">
        <ele>584.4</ele>
        <time>2022-07-09T15:56:15Z</time>
      </trkpt>
      <trkpt lat="45.95109" lon="1.88178">
        <ele>583.2</ele>
        <time>2022-07-09T15:56:18Z</time>
      </trkpt>
      <trkpt lat="45.95105" lon="1.88182">
        <ele>582.6</ele>
        <time>2022-07-09T15:56:19Z</time>
      </trkpt>
      <trkpt lat="45.951" lon="1.88188">
        <ele>582</ele>
        <time>2022-07-09T15:56:21Z</time>
      </trkpt>
      <trkpt lat="45.95096" lon="1.88202">
        <ele>580.8</ele>
        <time>2022-07-09T15:56:24Z</time>
      </trkpt>
      <trkpt lat="45.95095" lon="1.88205">
        <ele>580.6</ele>
        <time>2022-07-09T15:56:25Z</time>
      </trkpt>
      <trkpt lat="45.95094" lon="1.88208">
        <ele>580.2</ele>
        <time>2022-07-09T15:56:26Z</time>
      </trkpt>
      <trkpt lat="45.95092" lon="1.88215">
        <ele>579.6</ele>
        <time>2022-07-09T15:56:28Z</time>
      </trkpt>
      <trkpt lat="45.95088" lon="1.88224">
        <ele>579.2</ele>
        <time>2022-07-09T15:56:30Z</time>
      </trkpt>
      <trkpt lat="45.95084" lon="1.88231">
        <ele>578.6</ele>
        <time>2022-07-09T15:56:32Z</time>
      </trkpt>
      <trkpt lat="45.95078" lon="1.88245">
        <ele>577.4</ele>
        <time>2022-07-09T15:56:36Z</time>
      </trkpt>
      <trkpt lat="45.95075" lon="1.88249">
        <ele>576.8</ele>
        <time>2022-07-09T15:56:38Z</time>
      </trkpt>
      <trkpt lat="45.95071" lon="1.88258">
        <ele>576.2</ele>
        <time>2022-07-09T15:56:40Z</time>
      </trkpt>
      <trkpt lat="45.9507" lon="1.88262">
        <ele>576</ele>
        <time>2022-07-09T15:56:41Z</time>
      </trkpt>
      <trkpt lat="45.95065" lon="1.88274">
        <ele>574.4</ele>
        <time>2022-07-09T15:56:44Z</time>
      </trkpt>
      <trkpt lat="45.95064" lon="1.88283">
        <ele>574</ele>
        <time>2022-07-09T15:56:46Z</time>
      </trkpt>
      <trkpt lat="45.95062" lon="1.88289">
        <ele>573.8</ele>
        <time>2022-07-09T15:56:47Z</time>
      </trkpt>
      <trkpt lat="45.95059" lon="1.88294">
        <ele>573.4</ele>
        <time>2022-07-09T15:56:48Z</time>
      </trkpt>
      <trkpt lat="45.95059" lon="1.88296">
        <ele>572.2</ele>
        <time>2022-07-09T15:56:50Z</time>
      </trkpt>
      <trkpt lat="45.95058" lon="1.88297">
        <ele>571.6</ele>
        <time>2022-07-09T15:56:51Z</time>
      </trkpt>
      <trkpt lat="45.95058" lon="1.883">
        <ele>571.2</ele>
        <time>2022-07-09T15:56:52Z</time>
      </trkpt>
      <trkpt lat="45.95058" lon="1.88303">
        <ele>571</ele>
        <time>2022-07-09T15:56:53Z</time>
      </trkpt>
      <trkpt lat="45.95056" lon="1.8831">
        <ele>570.4</ele>
        <time>2022-07-09T15:56:55Z</time>
      </trkpt>
      <trkpt lat="45.95051" lon="1.88318">
        <ele>570.2</ele>
        <time>2022-07-09T15:56:57Z</time>
      </trkpt>
      <trkpt lat="45.9505" lon="1.88321">
        <ele>570.2</ele>
        <time>2022-07-09T15:56:58Z</time>
      </trkpt>
      <trkpt lat="45.95045" lon="1.88336">
        <ele>569</ele>
        <time>2022-07-09T15:57:01Z</time>
      </trkpt>
      <trkpt lat="45.95045" lon="1.8834">
        <ele>569</ele>
        <time>2022-07-09T15:57:02Z</time>
      </trkpt>
      <trkpt lat="45.9504" lon="1.88353">
        <ele>567.8</ele>
        <time>2022-07-09T15:57:05Z</time>
      </trkpt>
      <trkpt lat="45.95033" lon="1.88372">
        <ele>566.8</ele>
        <time>2022-07-09T15:57:08Z</time>
      </trkpt>
      <trkpt lat="45.95028" lon="1.88386">
        <ele>566.4</ele>
        <time>2022-07-09T15:57:10Z</time>
      </trkpt>
      <trkpt lat="45.95024" lon="1.88395">
        <ele>566.2</ele>
        <time>2022-07-09T15:57:11Z</time>
      </trkpt>
      <trkpt lat="45.95007" lon="1.88424">
        <ele>565.4</ele>
        <time>2022-07-09T15:57:15Z</time>
      </trkpt>
      <trkpt lat="45.95004" lon="1.88429">
        <ele>565.2</ele>
        <time>2022-07-09T15:57:16Z</time>
      </trkpt>
      <trkpt lat="45.94995" lon="1.88441">
        <ele>564.2</ele>
        <time>2022-07-09T15:57:19Z</time>
      </trkpt>
      <trkpt lat="45.94992" lon="1.88443">
        <ele>564</ele>
        <time>2022-07-09T15:57:20Z</time>
      </trkpt>
      <trkpt lat="45.94985" lon="1.88449">
        <ele>563.4</ele>
        <time>2022-07-09T15:57:22Z</time>
      </trkpt>
      <trkpt lat="45.94976" lon="1.88454">
        <ele>563</ele>
        <time>2022-07-09T15:57:24Z</time>
      </trkpt>
      <trkpt lat="45.94972" lon="1.88458">
        <ele>562.6</ele>
        <time>2022-07-09T15:57:25Z</time>
      </trkpt>
      <trkpt lat="45.94968" lon="1.88462">
        <ele>561.8</ele>
        <time>2022-07-09T15:57:26Z</time>
      </trkpt>
      <trkpt lat="45.94963" lon="1.88468">
        <ele>560.8</ele>
        <time>2022-07-09T15:57:28Z</time>
      </trkpt>
      <trkpt lat="45.94957" lon="1.8847">
        <ele>560.4</ele>
        <time>2022-07-09T15:57:30Z</time>
      </trkpt>
      <trkpt lat="45.94952" lon="1.88474">
        <ele>560.4</ele>
        <time>2022-07-09T15:57:32Z</time>
      </trkpt>
      <trkpt lat="45.94949" lon="1.88475">
        <ele>559.6</ele>
        <time>2022-07-09T15:57:33Z</time>
      </trkpt>
      <trkpt lat="45.94947" lon="1.88474">
        <ele>559.4</ele>
        <time>2022-07-09T15:57:34Z</time>
      </trkpt>
      <trkpt lat="45.9494" lon="1.88468">
        <ele>558.6</ele>
        <time>2022-07-09T15:57:37Z</time>
      </trkpt>
      <trkpt lat="45.94934" lon="1.88462">
        <ele>558.4</ele>
        <time>2022-07-09T15:57:39Z</time>
      </trkpt>
      <trkpt lat="45.94927" lon="1.88455">
        <ele>557.6</ele>
        <time>2022-07-09T15:57:41Z</time>
      </trkpt>
      <trkpt lat="45.94921" lon="1.88453">
        <ele>556.2</ele>
        <time>2022-07-09T15:57:43Z</time>
      </trkpt>
      <trkpt lat="45.94919" lon="1.88452">
        <ele>555.2</ele>
        <time>2022-07-09T15:57:44Z</time>
      </trkpt>
      <trkpt lat="45.94917" lon="1.88452">
        <ele>554.8</ele>
        <time>2022-07-09T15:57:45Z</time>
      </trkpt>
      <trkpt lat="45.94911" lon="1.88452">
        <ele>553.6</ele>
        <time>2022-07-09T15:57:48Z</time>
      </trkpt>
      <trkpt lat="45.94907" lon="1.88453">
        <ele>553</ele>
        <time>2022-07-09T15:57:49Z</time>
      </trkpt>
      <trkpt lat="45.94905" lon="1.88452">
        <ele>552.6</ele>
        <time>2022-07-09T15:57:50Z</time>
      </trkpt>
      <trkpt lat="45.94902" lon="1.8845">
        <ele>551.4</ele>
        <time>2022-07-09T15:57:51Z</time>
      </trkpt>
      <trkpt lat="45.94891" lon="1.88441">
        <ele>550</ele>
        <time>2022-07-09T15:57:54Z</time>
      </trkpt>
      <trkpt lat="45.94884" lon="1.88436">
        <ele>549.2</ele>
        <time>2022-07-09T15:57:56Z</time>
      </trkpt>
      <trkpt lat="45.94881" lon="1.88432">
        <ele>548.8</ele>
        <time>2022-07-09T15:57:57Z</time>
      </trkpt>
      <trkpt lat="45.94876" lon="1.88427">
        <ele>548</ele>
        <time>2022-07-09T15:57:58Z</time>
      </trkpt>
      <trkpt lat="45.94871" lon="1.88423">
        <ele>547.6</ele>
        <time>2022-07-09T15:57:59Z</time>
      </trkpt>
      <trkpt lat="45.94864" lon="1.88418">
        <ele>546.4</ele>
        <time>2022-07-09T15:58:01Z</time>
      </trkpt>
      <trkpt lat="45.94862" lon="1.88417">
        <ele>546.4</ele>
        <time>2022-07-09T15:58:02Z</time>
      </trkpt>
      <trkpt lat="45.94858" lon="1.88415">
        <ele>546.2</ele>
        <time>2022-07-09T15:58:07Z</time>
      </trkpt>
      <trkpt lat="45.94852" lon="1.88413">
        <ele>547.6</ele>
        <time>2022-07-09T15:58:12Z</time>
      </trkpt>
      <trkpt lat="45.94852" lon="1.88412">
        <ele>547.6</ele>
        <time>2022-07-09T15:58:13Z</time>
      </trkpt>
      <trkpt lat="45.94851" lon="1.88411">
        <ele>548</ele>
        <time>2022-07-09T15:58:14Z</time>
      </trkpt>
      <trkpt lat="45.94849" lon="1.88411">
        <ele>548.8</ele>
        <time>2022-07-09T15:58:17Z</time>
      </trkpt>
      <trkpt lat="45.94847" lon="1.88411">
        <ele>549.2</ele>
        <time>2022-07-09T15:58:19Z</time>
      </trkpt>
      <trkpt lat="45.9484" lon="1.88412">
        <ele>549.8</ele>
        <time>2022-07-09T15:58:25Z</time>
      </trkpt>
      <trkpt lat="45.94838" lon="1.88411">
        <ele>550</ele>
        <time>2022-07-09T15:58:26Z</time>
      </trkpt>
      <trkpt lat="45.94835" lon="1.88411">
        <ele>550</ele>
        <time>2022-07-09T15:58:28Z</time>
      </trkpt>
      <trkpt lat="45.94833" lon="1.88412">
        <ele>550.2</ele>
        <time>2022-07-09T15:58:30Z</time>
      </trkpt>
      <trkpt lat="45.9483" lon="1.88411">
        <ele>550.4</ele>
        <time>2022-07-09T15:58:32Z</time>
      </trkpt>
      <trkpt lat="45.94814" lon="1.88405">
        <ele>550</ele>
        <time>2022-07-09T15:58:39Z</time>
      </trkpt>
      <trkpt lat="45.948" lon="1.88412">
        <ele>549.4</ele>
        <time>2022-07-09T15:58:45Z</time>
      </trkpt>
      <trkpt lat="45.94798" lon="1.88412">
        <ele>549.4</ele>
        <time>2022-07-09T15:58:46Z</time>
      </trkpt>
      <trkpt lat="45.94786" lon="1.88416">
        <ele>549.4</ele>
        <time>2022-07-09T15:58:52Z</time>
      </trkpt>
      <trkpt lat="45.94785" lon="1.88419">
        <ele>549.6</ele>
        <time>2022-07-09T15:58:53Z</time>
      </trkpt>
      <trkpt lat="45.94765" lon="1.88437">
        <ele>550.2</ele>
        <time>2022-07-09T15:59:02Z</time>
      </trkpt>
      <trkpt lat="45.94762" lon="1.88438">
        <ele>550.4</ele>
        <time>2022-07-09T15:59:04Z</time>
      </trkpt>
      <trkpt lat="45.94759" lon="1.88438">
        <ele>551</ele>
        <time>2022-07-09T15:59:08Z</time>
      </trkpt>
      <trkpt lat="45.94758" lon="1.88437">
        <ele>551</ele>
        <time>2022-07-09T15:59:09Z</time>
      </trkpt>
      <trkpt lat="45.94752" lon="1.88434">
        <ele>552</ele>
        <time>2022-07-09T15:59:14Z</time>
      </trkpt>
      <trkpt lat="45.9475" lon="1.88433">
        <ele>552.2</ele>
        <time>2022-07-09T15:59:15Z</time>
      </trkpt>
      <trkpt lat="45.94745" lon="1.88431">
        <ele>553</ele>
        <time>2022-07-09T15:59:19Z</time>
      </trkpt>
      <trkpt lat="45.94737" lon="1.88427">
        <ele>553.8</ele>
        <time>2022-07-09T15:59:23Z</time>
      </trkpt>
      <trkpt lat="45.94734" lon="1.88426">
        <ele>554</ele>
        <time>2022-07-09T15:59:24Z</time>
      </trkpt>
      <trkpt lat="45.94732" lon="1.88424">
        <ele>554</ele>
        <time>2022-07-09T15:59:25Z</time>
      </trkpt>
      <trkpt lat="45.94726" lon="1.88419">
        <ele>554.2</ele>
        <time>2022-07-09T15:59:28Z</time>
      </trkpt>
      <trkpt lat="45.94716" lon="1.88405">
        <ele>554.4</ele>
        <time>2022-07-09T15:59:32Z</time>
      </trkpt>
      <trkpt lat="45.94701" lon="1.88391">
        <ele>554.2</ele>
        <time>2022-07-09T15:59:37Z</time>
      </trkpt>
      <trkpt lat="45.9468" lon="1.8838">
        <ele>554</ele>
        <time>2022-07-09T15:59:43Z</time>
      </trkpt>
      <trkpt lat="45.94662" lon="1.8837">
        <ele>553.8</ele>
        <time>2022-07-09T15:59:49Z</time>
      </trkpt>
      <trkpt lat="45.94643" lon="1.8837">
        <ele>553.6</ele>
        <time>2022-07-09T15:59:54Z</time>
      </trkpt>
      <trkpt lat="45.94627" lon="1.88392">
        <ele>553.6</ele>
        <time>2022-07-09T15:59:59Z</time>
      </trkpt>
      <trkpt lat="45.94602" lon="1.88423">
        <ele>553.2</ele>
        <time>2022-07-09T16:00:08Z</time>
      </trkpt>
      <trkpt lat="45.94592" lon="1.88443">
        <ele>552.8</ele>
        <time>2022-07-09T16:00:12Z</time>
      </trkpt>
      <trkpt lat="45.94588" lon="1.88454">
        <ele>552.8</ele>
        <time>2022-07-09T16:00:14Z</time>
      </trkpt>
      <trkpt lat="45.94579" lon="1.88494">
        <ele>552.4</ele>
        <time>2022-07-09T16:00:21Z</time>
      </trkpt>
      <trkpt lat="45.94568" lon="1.88522">
        <ele>552.2</ele>
        <time>2022-07-09T16:00:27Z</time>
      </trkpt>
      <trkpt lat="45.94559" lon="1.88526">
        <ele>552</ele>
        <time>2022-07-09T16:00:31Z</time>
      </trkpt>
      <trkpt lat="45.94547" lon="1.88525">
        <ele>553.4</ele>
        <time>2022-07-09T16:00:37Z</time>
      </trkpt>
      <trkpt lat="45.9454" lon="1.88522">
        <ele>554</ele>
        <time>2022-07-09T16:00:40Z</time>
      </trkpt>
      <trkpt lat="45.94532" lon="1.8852">
        <ele>554.8</ele>
        <time>2022-07-09T16:00:44Z</time>
      </trkpt>
      <trkpt lat="45.94529" lon="1.88519">
        <ele>555.2</ele>
        <time>2022-07-09T16:00:45Z</time>
      </trkpt>
      <trkpt lat="45.94513" lon="1.88512">
        <ele>556</ele>
        <time>2022-07-09T16:00:52Z</time>
      </trkpt>
      <trkpt lat="45.94507" lon="1.88512">
        <ele>556.2</ele>
        <time>2022-07-09T16:00:54Z</time>
      </trkpt>
      <trkpt lat="45.94494" lon="1.88512">
        <ele>556.8</ele>
        <time>2022-07-09T16:00:59Z</time>
      </trkpt>
      <trkpt lat="45.94477" lon="1.88519">
        <ele>557.2</ele>
        <time>2022-07-09T16:01:05Z</time>
      </trkpt>
      <trkpt lat="45.9447" lon="1.88521">
        <ele>557.2</ele>
        <time>2022-07-09T16:01:07Z</time>
      </trkpt>
      <trkpt lat="45.94455" lon="1.88526">
        <ele>557.4</ele>
        <time>2022-07-09T16:01:12Z</time>
      </trkpt>
      <trkpt lat="45.94429" lon="1.88533">
        <ele>557.6</ele>
        <time>2022-07-09T16:01:20Z</time>
      </trkpt>
      <trkpt lat="45.94409" lon="1.88531">
        <ele>557.2</ele>
        <time>2022-07-09T16:01:25Z</time>
      </trkpt>
      <trkpt lat="45.94399" lon="1.88525">
        <ele>556.6</ele>
        <time>2022-07-09T16:01:27Z</time>
      </trkpt>
      <trkpt lat="45.9439" lon="1.88516">
        <ele>556.2</ele>
        <time>2022-07-09T16:01:29Z</time>
      </trkpt>
      <trkpt lat="45.94377" lon="1.88498">
        <ele>555.8</ele>
        <time>2022-07-09T16:01:33Z</time>
      </trkpt>
      <trkpt lat="45.94369" lon="1.88492">
        <ele>555.8</ele>
        <time>2022-07-09T16:01:35Z</time>
      </trkpt>
      <trkpt lat="45.94365" lon="1.88491">
        <ele>555.8</ele>
        <time>2022-07-09T16:01:36Z</time>
      </trkpt>
      <trkpt lat="45.94349" lon="1.88496">
        <ele>555.8</ele>
        <time>2022-07-09T16:01:40Z</time>
      </trkpt>
      <trkpt lat="45.94343" lon="1.88508">
        <ele>555.6</ele>
        <time>2022-07-09T16:01:42Z</time>
      </trkpt>
      <trkpt lat="45.94337" lon="1.88524">
        <ele>555.6</ele>
        <time>2022-07-09T16:01:44Z</time>
      </trkpt>
      <trkpt lat="45.94329" lon="1.8855">
        <ele>555.2</ele>
        <time>2022-07-09T16:01:47Z</time>
      </trkpt>
      <trkpt lat="45.94328" lon="1.88559">
        <ele>555</ele>
        <time>2022-07-09T16:01:48Z</time>
      </trkpt>
      <trkpt lat="45.94325" lon="1.88574">
        <ele>554.4</ele>
        <time>2022-07-09T16:01:50Z</time>
      </trkpt>
      <trkpt lat="45.94323" lon="1.8858">
        <ele>554.2</ele>
        <time>2022-07-09T16:01:51Z</time>
      </trkpt>
      <trkpt lat="45.9432" lon="1.88587">
        <ele>553.8</ele>
        <time>2022-07-09T16:01:52Z</time>
      </trkpt>
      <trkpt lat="45.94317" lon="1.88594">
        <ele>553.8</ele>
        <time>2022-07-09T16:01:53Z</time>
      </trkpt>
      <trkpt lat="45.94313" lon="1.88601">
        <ele>553.6</ele>
        <time>2022-07-09T16:01:54Z</time>
      </trkpt>
      <trkpt lat="45.94303" lon="1.88617">
        <ele>553</ele>
        <time>2022-07-09T16:01:56Z</time>
      </trkpt>
      <trkpt lat="45.94291" lon="1.88636">
        <ele>552.8</ele>
        <time>2022-07-09T16:01:58Z</time>
      </trkpt>
      <trkpt lat="45.94274" lon="1.88667">
        <ele>551.6</ele>
        <time>2022-07-09T16:02:01Z</time>
      </trkpt>
      <trkpt lat="45.94267" lon="1.88678">
        <ele>551</ele>
        <time>2022-07-09T16:02:02Z</time>
      </trkpt>
      <trkpt lat="45.94262" lon="1.88686">
        <ele>549.8</ele>
        <time>2022-07-09T16:02:03Z</time>
      </trkpt>
      <trkpt lat="45.94254" lon="1.88701">
        <ele>547.6</ele>
        <time>2022-07-09T16:02:05Z</time>
      </trkpt>
      <trkpt lat="45.94253" lon="1.88708">
        <ele>546.2</ele>
        <time>2022-07-09T16:02:06Z</time>
      </trkpt>
      <trkpt lat="45.94252" lon="1.88714">
        <ele>545.8</ele>
        <time>2022-07-09T16:02:07Z</time>
      </trkpt>
      <trkpt lat="45.94252" lon="1.88727">
        <ele>544.8</ele>
        <time>2022-07-09T16:02:09Z</time>
      </trkpt>
      <trkpt lat="45.94252" lon="1.88732">
        <ele>544.4</ele>
        <time>2022-07-09T16:02:10Z</time>
      </trkpt>
      <trkpt lat="45.9425" lon="1.88761">
        <ele>544.2</ele>
        <time>2022-07-09T16:02:16Z</time>
      </trkpt>
      <trkpt lat="45.94246" lon="1.88785">
        <ele>544.2</ele>
        <time>2022-07-09T16:02:19Z</time>
      </trkpt>
      <trkpt lat="45.94246" lon="1.88797">
        <ele>544.2</ele>
        <time>2022-07-09T16:02:21Z</time>
      </trkpt>
      <trkpt lat="45.94245" lon="1.88823">
        <ele>545</ele>
        <time>2022-07-09T16:02:27Z</time>
      </trkpt>
      <trkpt lat="45.94241" lon="1.88846">
        <ele>546</ele>
        <time>2022-07-09T16:02:33Z</time>
      </trkpt>
      <trkpt lat="45.9424" lon="1.88852">
        <ele>546.2</ele>
        <time>2022-07-09T16:02:34Z</time>
      </trkpt>
      <trkpt lat="45.94236" lon="1.88874">
        <ele>547.2</ele>
        <time>2022-07-09T16:02:40Z</time>
      </trkpt>
      <trkpt lat="45.94233" lon="1.88887">
        <ele>547.6</ele>
        <time>2022-07-09T16:02:43Z</time>
      </trkpt>
      <trkpt lat="45.94224" lon="1.88906">
        <ele>548.2</ele>
        <time>2022-07-09T16:02:50Z</time>
      </trkpt>
      <trkpt lat="45.94223" lon="1.88908">
        <ele>548.2</ele>
        <time>2022-07-09T16:02:51Z</time>
      </trkpt>
      <trkpt lat="45.94221" lon="1.88912">
        <ele>548.2</ele>
        <time>2022-07-09T16:02:53Z</time>
      </trkpt>
      <trkpt lat="45.94222" lon="1.88916">
        <ele>548.4</ele>
        <time>2022-07-09T16:02:54Z</time>
      </trkpt>
      <trkpt lat="45.94217" lon="1.8893">
        <ele>548.4</ele>
        <time>2022-07-09T16:02:56Z</time>
      </trkpt>
      <trkpt lat="45.94211" lon="1.88947">
        <ele>548.8</ele>
        <time>2022-07-09T16:03:01Z</time>
      </trkpt>
      <trkpt lat="45.94198" lon="1.8897">
        <ele>549.2</ele>
        <time>2022-07-09T16:03:07Z</time>
      </trkpt>
      <trkpt lat="45.94195" lon="1.88976">
        <ele>549.4</ele>
        <time>2022-07-09T16:03:08Z</time>
      </trkpt>
      <trkpt lat="45.94188" lon="1.88993">
        <ele>550</ele>
        <time>2022-07-09T16:03:13Z</time>
      </trkpt>
      <trkpt lat="45.94179" lon="1.89005">
        <ele>550.4</ele>
        <time>2022-07-09T16:03:19Z</time>
      </trkpt>
      <trkpt lat="45.94174" lon="1.8901">
        <ele>550.6</ele>
        <time>2022-07-09T16:03:22Z</time>
      </trkpt>
      <trkpt lat="45.9417" lon="1.89014">
        <ele>550.2</ele>
        <time>2022-07-09T16:03:27Z</time>
      </trkpt>
      <trkpt lat="45.9417" lon="1.89014">
        <ele>550.2</ele>
        <time>2022-07-09T16:03:28Z</time>
      </trkpt>
      <trkpt lat="45.94167" lon="1.89017">
        <ele>549.8</ele>
        <time>2022-07-09T16:04:22Z</time>
      </trkpt>
      <trkpt lat="45.94165" lon="1.89017">
        <ele>549.8</ele>
        <time>2022-07-09T16:04:23Z</time>
      </trkpt>
      <trkpt lat="45.94163" lon="1.89017">
        <ele>549.8</ele>
        <time>2022-07-09T16:04:24Z</time>
      </trkpt>
      <trkpt lat="45.94148" lon="1.89012">
        <ele>549.6</ele>
        <time>2022-07-09T16:04:31Z</time>
      </trkpt>
      <trkpt lat="45.94128" lon="1.89004">
        <ele>550.8</ele>
        <time>2022-07-09T16:04:40Z</time>
      </trkpt>
      <trkpt lat="45.94123" lon="1.89001">
        <ele>551.4</ele>
        <time>2022-07-09T16:04:43Z</time>
      </trkpt>
      <trkpt lat="45.9412" lon="1.89">
        <ele>551.6</ele>
        <time>2022-07-09T16:04:45Z</time>
      </trkpt>
      <trkpt lat="45.94119" lon="1.89">
        <ele>551.6</ele>
        <time>2022-07-09T16:04:46Z</time>
      </trkpt>
      <trkpt lat="45.94113" lon="1.88996">
        <ele>552.4</ele>
        <time>2022-07-09T16:04:50Z</time>
      </trkpt>
      <trkpt lat="45.94107" lon="1.8899">
        <ele>552.8</ele>
        <time>2022-07-09T16:04:54Z</time>
      </trkpt>
      <trkpt lat="45.94099" lon="1.88981">
        <ele>553.4</ele>
        <time>2022-07-09T16:05:00Z</time>
      </trkpt>
      <trkpt lat="45.94098" lon="1.88978">
        <ele>553.6</ele>
        <time>2022-07-09T16:05:01Z</time>
      </trkpt>
      <trkpt lat="45.94095" lon="1.88972">
        <ele>553.8</ele>
        <time>2022-07-09T16:05:04Z</time>
      </trkpt>
      <trkpt lat="45.94094" lon="1.88971">
        <ele>554</ele>
        <time>2022-07-09T16:05:05Z</time>
      </trkpt>
      <trkpt lat="45.94091" lon="1.88966">
        <ele>554.6</ele>
        <time>2022-07-09T16:05:08Z</time>
      </trkpt>
      <trkpt lat="45.94087" lon="1.88961">
        <ele>554.8</ele>
        <time>2022-07-09T16:05:11Z</time>
      </trkpt>
      <trkpt lat="45.94083" lon="1.88954">
        <ele>555.8</ele>
        <time>2022-07-09T16:05:15Z</time>
      </trkpt>
      <trkpt lat="45.94079" lon="1.88946">
        <ele>556.2</ele>
        <time>2022-07-09T16:05:19Z</time>
      </trkpt>
      <trkpt lat="45.94077" lon="1.88945">
        <ele>556.4</ele>
        <time>2022-07-09T16:05:21Z</time>
      </trkpt>
      <trkpt lat="45.94073" lon="1.8894">
        <ele>556.8</ele>
        <time>2022-07-09T16:05:24Z</time>
      </trkpt>
      <trkpt lat="45.94068" lon="1.88936">
        <ele>557</ele>
        <time>2022-07-09T16:05:27Z</time>
      </trkpt>
      <trkpt lat="45.94052" lon="1.88921">
        <ele>557.8</ele>
        <time>2022-07-09T16:05:37Z</time>
      </trkpt>
      <trkpt lat="45.94043" lon="1.88915">
        <ele>558.4</ele>
        <time>2022-07-09T16:05:42Z</time>
      </trkpt>
      <trkpt lat="45.94032" lon="1.88905">
        <ele>558.8</ele>
        <time>2022-07-09T16:05:50Z</time>
      </trkpt>
      <trkpt lat="45.9403" lon="1.88904">
        <ele>559</ele>
        <time>2022-07-09T16:05:51Z</time>
      </trkpt>
      <trkpt lat="45.94028" lon="1.88903">
        <ele>559</ele>
        <time>2022-07-09T16:05:52Z</time>
      </trkpt>
      <trkpt lat="45.94023" lon="1.889">
        <ele>560</ele>
        <time>2022-07-09T16:05:56Z</time>
      </trkpt>
      <trkpt lat="45.9402" lon="1.88898">
        <ele>560.4</ele>
        <time>2022-07-09T16:05:58Z</time>
      </trkpt>
      <trkpt lat="45.94014" lon="1.88893">
        <ele>561</ele>
        <time>2022-07-09T16:06:02Z</time>
      </trkpt>
      <trkpt lat="45.94007" lon="1.8889">
        <ele>561.6</ele>
        <time>2022-07-09T16:06:06Z</time>
      </trkpt>
      <trkpt lat="45.94001" lon="1.88888">
        <ele>562</ele>
        <time>2022-07-09T16:06:09Z</time>
      </trkpt>
      <trkpt lat="45.93993" lon="1.88885">
        <ele>562.6</ele>
        <time>2022-07-09T16:06:14Z</time>
      </trkpt>
      <trkpt lat="45.93989" lon="1.88884">
        <ele>562.8</ele>
        <time>2022-07-09T16:06:16Z</time>
      </trkpt>
      <trkpt lat="45.93987" lon="1.88884">
        <ele>563</ele>
        <time>2022-07-09T16:06:17Z</time>
      </trkpt>
      <trkpt lat="45.9398" lon="1.88883">
        <ele>563.8</ele>
        <time>2022-07-09T16:06:23Z</time>
      </trkpt>
      <trkpt lat="45.93977" lon="1.88884">
        <ele>563.8</ele>
        <time>2022-07-09T16:06:25Z</time>
      </trkpt>
      <trkpt lat="45.9397" lon="1.88889">
        <ele>564.4</ele>
        <time>2022-07-09T16:06:30Z</time>
      </trkpt>
      <trkpt lat="45.93965" lon="1.88893">
        <ele>565</ele>
        <time>2022-07-09T16:06:33Z</time>
      </trkpt>
      <trkpt lat="45.93957" lon="1.88902">
        <ele>565.6</ele>
        <time>2022-07-09T16:06:39Z</time>
      </trkpt>
      <trkpt lat="45.93953" lon="1.88903">
        <ele>566.2</ele>
        <time>2022-07-09T16:06:41Z</time>
      </trkpt>
      <trkpt lat="45.93945" lon="1.88903">
        <ele>566.6</ele>
        <time>2022-07-09T16:06:46Z</time>
      </trkpt>
      <trkpt lat="45.93938" lon="1.88902">
        <ele>567.4</ele>
        <time>2022-07-09T16:06:50Z</time>
      </trkpt>
      <trkpt lat="45.93931" lon="1.88901">
        <ele>567.8</ele>
        <time>2022-07-09T16:06:54Z</time>
      </trkpt>
      <trkpt lat="45.93925" lon="1.88898">
        <ele>568.4</ele>
        <time>2022-07-09T16:06:58Z</time>
      </trkpt>
      <trkpt lat="45.93917" lon="1.88895">
        <ele>569</ele>
        <time>2022-07-09T16:07:02Z</time>
      </trkpt>
      <trkpt lat="45.93911" lon="1.88891">
        <ele>569.4</ele>
        <time>2022-07-09T16:07:06Z</time>
      </trkpt>
      <trkpt lat="45.9391" lon="1.8889">
        <ele>569.6</ele>
        <time>2022-07-09T16:07:07Z</time>
      </trkpt>
      <trkpt lat="45.93908" lon="1.88889">
        <ele>569.6</ele>
        <time>2022-07-09T16:07:08Z</time>
      </trkpt>
      <trkpt lat="45.93901" lon="1.88886">
        <ele>570.4</ele>
        <time>2022-07-09T16:07:12Z</time>
      </trkpt>
      <trkpt lat="45.93899" lon="1.88885">
        <ele>570.6</ele>
        <time>2022-07-09T16:07:13Z</time>
      </trkpt>
      <trkpt lat="45.93885" lon="1.88879">
        <ele>571.4</ele>
        <time>2022-07-09T16:07:21Z</time>
      </trkpt>
      <trkpt lat="45.93881" lon="1.88878">
        <ele>571.6</ele>
        <time>2022-07-09T16:07:23Z</time>
      </trkpt>
      <trkpt lat="45.9387" lon="1.88874">
        <ele>572.2</ele>
        <time>2022-07-09T16:07:29Z</time>
      </trkpt>
      <trkpt lat="45.93862" lon="1.8887">
        <ele>572.4</ele>
        <time>2022-07-09T16:07:34Z</time>
      </trkpt>
      <trkpt lat="45.93856" lon="1.88867">
        <ele>572.8</ele>
        <time>2022-07-09T16:07:37Z</time>
      </trkpt>
      <trkpt lat="45.93845" lon="1.88861">
        <ele>573.4</ele>
        <time>2022-07-09T16:07:43Z</time>
      </trkpt>
      <trkpt lat="45.93841" lon="1.8886">
        <ele>573.6</ele>
        <time>2022-07-09T16:07:45Z</time>
      </trkpt>
      <trkpt lat="45.93832" lon="1.88857">
        <ele>574</ele>
        <time>2022-07-09T16:07:51Z</time>
      </trkpt>
      <trkpt lat="45.93827" lon="1.88855">
        <ele>574.2</ele>
        <time>2022-07-09T16:07:54Z</time>
      </trkpt>
      <trkpt lat="45.93823" lon="1.88851">
        <ele>574.6</ele>
        <time>2022-07-09T16:07:57Z</time>
      </trkpt>
      <trkpt lat="45.93821" lon="1.88849">
        <ele>574.6</ele>
        <time>2022-07-09T16:07:59Z</time>
      </trkpt>
      <trkpt lat="45.93817" lon="1.88849">
        <ele>575</ele>
        <time>2022-07-09T16:08:02Z</time>
      </trkpt>
      <trkpt lat="45.93813" lon="1.88842">
        <ele>575.4</ele>
        <time>2022-07-09T16:08:07Z</time>
      </trkpt>
      <trkpt lat="45.93811" lon="1.88839">
        <ele>575.6</ele>
        <time>2022-07-09T16:08:09Z</time>
      </trkpt>
      <trkpt lat="45.93805" lon="1.88837">
        <ele>576.4</ele>
        <time>2022-07-09T16:08:13Z</time>
      </trkpt>
      <trkpt lat="45.938" lon="1.88836">
        <ele>577</ele>
        <time>2022-07-09T16:08:16Z</time>
      </trkpt>
      <trkpt lat="45.93795" lon="1.88832">
        <ele>577.6</ele>
        <time>2022-07-09T16:08:20Z</time>
      </trkpt>
      <trkpt lat="45.9379" lon="1.88828">
        <ele>578.4</ele>
        <time>2022-07-09T16:08:25Z</time>
      </trkpt>
      <trkpt lat="45.93788" lon="1.88826">
        <ele>578.8</ele>
        <time>2022-07-09T16:08:27Z</time>
      </trkpt>
      <trkpt lat="45.93782" lon="1.88824">
        <ele>579.4</ele>
        <time>2022-07-09T16:08:32Z</time>
      </trkpt>
      <trkpt lat="45.93778" lon="1.88822">
        <ele>579.8</ele>
        <time>2022-07-09T16:08:35Z</time>
      </trkpt>
      <trkpt lat="45.93773" lon="1.88823">
        <ele>581</ele>
        <time>2022-07-09T16:08:40Z</time>
      </trkpt>
      <trkpt lat="45.93767" lon="1.88822">
        <ele>581.8</ele>
        <time>2022-07-09T16:08:45Z</time>
      </trkpt>
      <trkpt lat="45.93765" lon="1.88822">
        <ele>582</ele>
        <time>2022-07-09T16:08:47Z</time>
      </trkpt>
      <trkpt lat="45.93763" lon="1.88822">
        <ele>582.4</ele>
        <time>2022-07-09T16:08:49Z</time>
      </trkpt>
      <trkpt lat="45.93761" lon="1.88823">
        <ele>583</ele>
        <time>2022-07-09T16:08:51Z</time>
      </trkpt>
      <trkpt lat="45.93755" lon="1.88829">
        <ele>584</ele>
        <time>2022-07-09T16:08:57Z</time>
      </trkpt>
      <trkpt lat="45.93754" lon="1.8883">
        <ele>584</ele>
        <time>2022-07-09T16:08:58Z</time>
      </trkpt>
      <trkpt lat="45.93747" lon="1.8884">
        <ele>585</ele>
        <time>2022-07-09T16:09:05Z</time>
      </trkpt>
      <trkpt lat="45.93745" lon="1.88842">
        <ele>585.4</ele>
        <time>2022-07-09T16:09:06Z</time>
      </trkpt>
      <trkpt lat="45.93738" lon="1.88846">
        <ele>586</ele>
        <time>2022-07-09T16:09:11Z</time>
      </trkpt>
      <trkpt lat="45.93735" lon="1.88846">
        <ele>586</ele>
        <time>2022-07-09T16:09:13Z</time>
      </trkpt>
      <trkpt lat="45.9373" lon="1.88846">
        <ele>586.4</ele>
        <time>2022-07-09T16:09:16Z</time>
      </trkpt>
      <trkpt lat="45.93726" lon="1.88843">
        <ele>586.8</ele>
        <time>2022-07-09T16:09:19Z</time>
      </trkpt>
      <trkpt lat="45.93724" lon="1.88842">
        <ele>587</ele>
        <time>2022-07-09T16:09:20Z</time>
      </trkpt>
      <trkpt lat="45.93713" lon="1.88836">
        <ele>587.6</ele>
        <time>2022-07-09T16:09:27Z</time>
      </trkpt>
      <trkpt lat="45.93708" lon="1.88833">
        <ele>588</ele>
        <time>2022-07-09T16:09:30Z</time>
      </trkpt>
      <trkpt lat="45.93701" lon="1.88829">
        <ele>588.8</ele>
        <time>2022-07-09T16:09:34Z</time>
      </trkpt>
      <trkpt lat="45.93695" lon="1.88826">
        <ele>589</ele>
        <time>2022-07-09T16:09:38Z</time>
      </trkpt>
      <trkpt lat="45.9369" lon="1.88822">
        <ele>589.6</ele>
        <time>2022-07-09T16:09:41Z</time>
      </trkpt>
      <trkpt lat="45.93688" lon="1.88819">
        <ele>590</ele>
        <time>2022-07-09T16:09:43Z</time>
      </trkpt>
      <trkpt lat="45.93684" lon="1.88818">
        <ele>590.2</ele>
        <time>2022-07-09T16:09:45Z</time>
      </trkpt>
      <trkpt lat="45.93671" lon="1.88809">
        <ele>591.4</ele>
        <time>2022-07-09T16:09:54Z</time>
      </trkpt>
      <trkpt lat="45.93664" lon="1.88802">
        <ele>592.4</ele>
        <time>2022-07-09T16:09:59Z</time>
      </trkpt>
      <trkpt lat="45.93662" lon="1.888">
        <ele>592.8</ele>
        <time>2022-07-09T16:10:01Z</time>
      </trkpt>
      <trkpt lat="45.93654" lon="1.88791">
        <ele>593.6</ele>
        <time>2022-07-09T16:10:07Z</time>
      </trkpt>
      <trkpt lat="45.93648" lon="1.88784">
        <ele>594.6</ele>
        <time>2022-07-09T16:10:12Z</time>
      </trkpt>
      <trkpt lat="45.93646" lon="1.88783">
        <ele>594.8</ele>
        <time>2022-07-09T16:10:13Z</time>
      </trkpt>
      <trkpt lat="45.93643" lon="1.8878">
        <ele>595.2</ele>
        <time>2022-07-09T16:10:16Z</time>
      </trkpt>
      <trkpt lat="45.93637" lon="1.88774">
        <ele>595.8</ele>
        <time>2022-07-09T16:10:21Z</time>
      </trkpt>
      <trkpt lat="45.93633" lon="1.8877">
        <ele>596.4</ele>
        <time>2022-07-09T16:10:24Z</time>
      </trkpt>
      <trkpt lat="45.93627" lon="1.88765">
        <ele>596.8</ele>
        <time>2022-07-09T16:10:28Z</time>
      </trkpt>
      <trkpt lat="45.93622" lon="1.88761">
        <ele>597</ele>
        <time>2022-07-09T16:10:31Z</time>
      </trkpt>
      <trkpt lat="45.93618" lon="1.88756">
        <ele>597.2</ele>
        <time>2022-07-09T16:10:34Z</time>
      </trkpt>
      <trkpt lat="45.93615" lon="1.88753">
        <ele>597.4</ele>
        <time>2022-07-09T16:10:36Z</time>
      </trkpt>
      <trkpt lat="45.93609" lon="1.88747">
        <ele>597.8</ele>
        <time>2022-07-09T16:10:40Z</time>
      </trkpt>
      <trkpt lat="45.93602" lon="1.8874">
        <ele>598.2</ele>
        <time>2022-07-09T16:10:45Z</time>
      </trkpt>
      <trkpt lat="45.93599" lon="1.88735">
        <ele>598.4</ele>
        <time>2022-07-09T16:10:48Z</time>
      </trkpt>
      <trkpt lat="45.93595" lon="1.88732">
        <ele>598.8</ele>
        <time>2022-07-09T16:10:51Z</time>
      </trkpt>
      <trkpt lat="45.93594" lon="1.88731">
        <ele>599</ele>
        <time>2022-07-09T16:10:52Z</time>
      </trkpt>
      <trkpt lat="45.93592" lon="1.8873">
        <ele>599</ele>
        <time>2022-07-09T16:10:53Z</time>
      </trkpt>
      <trkpt lat="45.93586" lon="1.88723">
        <ele>600</ele>
        <time>2022-07-09T16:10:59Z</time>
      </trkpt>
      <trkpt lat="45.93584" lon="1.8872">
        <ele>600.4</ele>
        <time>2022-07-09T16:11:01Z</time>
      </trkpt>
      <trkpt lat="45.93581" lon="1.88713">
        <ele>601</ele>
        <time>2022-07-09T16:11:05Z</time>
      </trkpt>
      <trkpt lat="45.9358" lon="1.88712">
        <ele>601.2</ele>
        <time>2022-07-09T16:11:06Z</time>
      </trkpt>
      <trkpt lat="45.93574" lon="1.88701">
        <ele>602.4</ele>
        <time>2022-07-09T16:11:14Z</time>
      </trkpt>
      <trkpt lat="45.93567" lon="1.8869">
        <ele>603.4</ele>
        <time>2022-07-09T16:11:22Z</time>
      </trkpt>
      <trkpt lat="45.93565" lon="1.88688">
        <ele>603.6</ele>
        <time>2022-07-09T16:11:24Z</time>
      </trkpt>
      <trkpt lat="45.9356" lon="1.88684">
        <ele>604.2</ele>
        <time>2022-07-09T16:11:28Z</time>
      </trkpt>
      <trkpt lat="45.93558" lon="1.88681">
        <ele>604.4</ele>
        <time>2022-07-09T16:11:30Z</time>
      </trkpt>
      <trkpt lat="45.93555" lon="1.88679">
        <ele>604.6</ele>
        <time>2022-07-09T16:11:32Z</time>
      </trkpt>
      <trkpt lat="45.93551" lon="1.88673">
        <ele>605</ele>
        <time>2022-07-09T16:11:35Z</time>
      </trkpt>
      <trkpt lat="45.93545" lon="1.88665">
        <ele>605</ele>
        <time>2022-07-09T16:11:38Z</time>
      </trkpt>
      <trkpt lat="45.93533" lon="1.88647">
        <ele>605</ele>
        <time>2022-07-09T16:11:45Z</time>
      </trkpt>
      <trkpt lat="45.9352" lon="1.88637">
        <ele>605</ele>
        <time>2022-07-09T16:11:52Z</time>
      </trkpt>
      <trkpt lat="45.93509" lon="1.88631">
        <ele>605.4</ele>
        <time>2022-07-09T16:11:58Z</time>
      </trkpt>
      <trkpt lat="45.93505" lon="1.88629">
        <ele>606.2</ele>
        <time>2022-07-09T16:12:03Z</time>
      </trkpt>
      <trkpt lat="45.93504" lon="1.88629">
        <ele>606.4</ele>
        <time>2022-07-09T16:12:04Z</time>
      </trkpt>
      <trkpt lat="45.93502" lon="1.88628">
        <ele>606.6</ele>
        <time>2022-07-09T16:12:05Z</time>
      </trkpt>
      <trkpt lat="45.935" lon="1.88627">
        <ele>607</ele>
        <time>2022-07-09T16:12:07Z</time>
      </trkpt>
      <trkpt lat="45.93498" lon="1.88627">
        <ele>607.2</ele>
        <time>2022-07-09T16:12:09Z</time>
      </trkpt>
      <trkpt lat="45.93497" lon="1.88626">
        <ele>607.4</ele>
        <time>2022-07-09T16:12:10Z</time>
      </trkpt>
      <trkpt lat="45.93495" lon="1.88625">
        <ele>607.4</ele>
        <time>2022-07-09T16:12:11Z</time>
      </trkpt>
      <trkpt lat="45.93494" lon="1.88625">
        <ele>607.8</ele>
        <time>2022-07-09T16:12:12Z</time>
      </trkpt>
      <trkpt lat="45.9349" lon="1.88624">
        <ele>608</ele>
        <time>2022-07-09T16:12:15Z</time>
      </trkpt>
      <trkpt lat="45.93487" lon="1.88623">
        <ele>608.6</ele>
        <time>2022-07-09T16:12:17Z</time>
      </trkpt>
      <trkpt lat="45.93479" lon="1.88617">
        <ele>609.4</ele>
        <time>2022-07-09T16:12:24Z</time>
      </trkpt>
      <trkpt lat="45.93478" lon="1.88616">
        <ele>609.6</ele>
        <time>2022-07-09T16:12:25Z</time>
      </trkpt>
      <trkpt lat="45.93473" lon="1.88614">
        <ele>610.6</ele>
        <time>2022-07-09T16:12:30Z</time>
      </trkpt>
      <trkpt lat="45.93472" lon="1.88613">
        <ele>610.6</ele>
        <time>2022-07-09T16:12:31Z</time>
      </trkpt>
      <trkpt lat="45.93468" lon="1.8861">
        <ele>611.2</ele>
        <time>2022-07-09T16:12:34Z</time>
      </trkpt>
      <trkpt lat="45.93467" lon="1.88609">
        <ele>611</ele>
        <time>2022-07-09T16:12:35Z</time>
      </trkpt>
      <trkpt lat="45.93465" lon="1.88608">
        <ele>611.4</ele>
        <time>2022-07-09T16:12:37Z</time>
      </trkpt>
      <trkpt lat="45.93464" lon="1.88607">
        <ele>611.6</ele>
        <time>2022-07-09T16:12:39Z</time>
      </trkpt>
      <trkpt lat="45.93462" lon="1.88605">
        <ele>612.2</ele>
        <time>2022-07-09T16:12:42Z</time>
      </trkpt>
      <trkpt lat="45.9346" lon="1.88602">
        <ele>612.6</ele>
        <time>2022-07-09T16:12:45Z</time>
      </trkpt>
      <trkpt lat="45.93459" lon="1.886">
        <ele>612.8</ele>
        <time>2022-07-09T16:12:46Z</time>
      </trkpt>
      <trkpt lat="45.93458" lon="1.88598">
        <ele>613</ele>
        <time>2022-07-09T16:12:48Z</time>
      </trkpt>
      <trkpt lat="45.93456" lon="1.88592">
        <ele>613.8</ele>
        <time>2022-07-09T16:12:53Z</time>
      </trkpt>
      <trkpt lat="45.93455" lon="1.88591">
        <ele>613.8</ele>
        <time>2022-07-09T16:12:54Z</time>
      </trkpt>
      <trkpt lat="45.93452" lon="1.88584">
        <ele>614.4</ele>
        <time>2022-07-09T16:12:59Z</time>
      </trkpt>
      <trkpt lat="45.93451" lon="1.88581">
        <ele>614.8</ele>
        <time>2022-07-09T16:13:01Z</time>
      </trkpt>
      <trkpt lat="45.9345" lon="1.8858">
        <ele>615</ele>
        <time>2022-07-09T16:13:02Z</time>
      </trkpt>
      <trkpt lat="45.93449" lon="1.88578">
        <ele>615.2</ele>
        <time>2022-07-09T16:13:03Z</time>
      </trkpt>
      <trkpt lat="45.93449" lon="1.88574">
        <ele>615.6</ele>
        <time>2022-07-09T16:13:06Z</time>
      </trkpt>
      <trkpt lat="45.93449" lon="1.88573">
        <ele>615.8</ele>
        <time>2022-07-09T16:13:08Z</time>
      </trkpt>
      <trkpt lat="45.93449" lon="1.88573">
        <ele>616</ele>
        <time>2022-07-09T16:13:09Z</time>
      </trkpt>
      <trkpt lat="45.93448" lon="1.8857">
        <ele>616.2</ele>
        <time>2022-07-09T16:13:12Z</time>
      </trkpt>
      <trkpt lat="45.93451" lon="1.88564">
        <ele>616.8</ele>
        <time>2022-07-09T16:13:19Z</time>
      </trkpt>
      <trkpt lat="45.93451" lon="1.88563">
        <ele>617.2</ele>
        <time>2022-07-09T16:13:21Z</time>
      </trkpt>
      <trkpt lat="45.93453" lon="1.88558">
        <ele>617.8</ele>
        <time>2022-07-09T16:13:27Z</time>
      </trkpt>
      <trkpt lat="45.93454" lon="1.88555">
        <ele>618.2</ele>
        <time>2022-07-09T16:13:30Z</time>
      </trkpt>
      <trkpt lat="45.93454" lon="1.88555">
        <ele>618.4</ele>
        <time>2022-07-09T16:13:32Z</time>
      </trkpt>
      <trkpt lat="45.93456" lon="1.88551">
        <ele>619.2</ele>
        <time>2022-07-09T16:13:37Z</time>
      </trkpt>
      <trkpt lat="45.93457" lon="1.88547">
        <ele>619.8</ele>
        <time>2022-07-09T16:13:44Z</time>
      </trkpt>
      <trkpt lat="45.93457" lon="1.88546">
        <ele>620.2</ele>
        <time>2022-07-09T16:13:46Z</time>
      </trkpt>
      <trkpt lat="45.93458" lon="1.88538">
        <ele>621.2</ele>
        <time>2022-07-09T16:13:54Z</time>
      </trkpt>
      <trkpt lat="45.93458" lon="1.88537">
        <ele>621.4</ele>
        <time>2022-07-09T16:13:55Z</time>
      </trkpt>
      <trkpt lat="45.9346" lon="1.88531">
        <ele>622.4</ele>
        <time>2022-07-09T16:14:02Z</time>
      </trkpt>
      <trkpt lat="45.93463" lon="1.88526">
        <ele>623.4</ele>
        <time>2022-07-09T16:14:10Z</time>
      </trkpt>
      <trkpt lat="45.93464" lon="1.88523">
        <ele>624</ele>
        <time>2022-07-09T16:14:13Z</time>
      </trkpt>
      <trkpt lat="45.93467" lon="1.8852">
        <ele>624.6</ele>
        <time>2022-07-09T16:14:16Z</time>
      </trkpt>
      <trkpt lat="45.93469" lon="1.88517">
        <ele>625</ele>
        <time>2022-07-09T16:14:20Z</time>
      </trkpt>
      <trkpt lat="45.93471" lon="1.88513">
        <ele>625.6</ele>
        <time>2022-07-09T16:14:24Z</time>
      </trkpt>
      <trkpt lat="45.93473" lon="1.8851">
        <ele>626</ele>
        <time>2022-07-09T16:14:28Z</time>
      </trkpt>
      <trkpt lat="45.93476" lon="1.88504">
        <ele>626.8</ele>
        <time>2022-07-09T16:14:33Z</time>
      </trkpt>
      <trkpt lat="45.93479" lon="1.88497">
        <ele>627.4</ele>
        <time>2022-07-09T16:14:40Z</time>
      </trkpt>
      <trkpt lat="45.93481" lon="1.88495">
        <ele>627.8</ele>
        <time>2022-07-09T16:14:42Z</time>
      </trkpt>
      <trkpt lat="45.93482" lon="1.88487">
        <ele>628.4</ele>
        <time>2022-07-09T16:14:48Z</time>
      </trkpt>
      <trkpt lat="45.93485" lon="1.88482">
        <ele>629</ele>
        <time>2022-07-09T16:14:52Z</time>
      </trkpt>
      <trkpt lat="45.93488" lon="1.88477">
        <ele>629.4</ele>
        <time>2022-07-09T16:14:56Z</time>
      </trkpt>
      <trkpt lat="45.93488" lon="1.88476">
        <ele>629.6</ele>
        <time>2022-07-09T16:14:59Z</time>
      </trkpt>
      <trkpt lat="45.93488" lon="1.88473">
        <ele>629.8</ele>
        <time>2022-07-09T16:15:10Z</time>
      </trkpt>
      <trkpt lat="45.93488" lon="1.8847">
        <ele>629.8</ele>
        <time>2022-07-09T16:15:12Z</time>
      </trkpt>
      <trkpt lat="45.93492" lon="1.88461">
        <ele>630</ele>
        <time>2022-07-09T16:15:17Z</time>
      </trkpt>
      <trkpt lat="45.93493" lon="1.88456">
        <ele>630.2</ele>
        <time>2022-07-09T16:15:19Z</time>
      </trkpt>
      <trkpt lat="45.93496" lon="1.88445">
        <ele>630.8</ele>
        <time>2022-07-09T16:15:26Z</time>
      </trkpt>
      <trkpt lat="45.93497" lon="1.88441">
        <ele>631.2</ele>
        <time>2022-07-09T16:15:29Z</time>
      </trkpt>
      <trkpt lat="45.93498" lon="1.88437">
        <ele>631.2</ele>
        <time>2022-07-09T16:15:31Z</time>
      </trkpt>
      <trkpt lat="45.93495" lon="1.88431">
        <ele>631.4</ele>
        <time>2022-07-09T16:15:33Z</time>
      </trkpt>
      <trkpt lat="45.93484" lon="1.88422">
        <ele>631.6</ele>
        <time>2022-07-09T16:15:39Z</time>
      </trkpt>
      <trkpt lat="45.93472" lon="1.88413">
        <ele>632.2</ele>
        <time>2022-07-09T16:15:45Z</time>
      </trkpt>
      <trkpt lat="45.93455" lon="1.88405">
        <ele>632.8</ele>
        <time>2022-07-09T16:15:52Z</time>
      </trkpt>
      <trkpt lat="45.93446" lon="1.88399">
        <ele>633.2</ele>
        <time>2022-07-09T16:15:56Z</time>
      </trkpt>
      <trkpt lat="45.93437" lon="1.88394">
        <ele>633.6</ele>
        <time>2022-07-09T16:16:00Z</time>
      </trkpt>
      <trkpt lat="45.93412" lon="1.88381">
        <ele>634.2</ele>
        <time>2022-07-09T16:16:09Z</time>
      </trkpt>
      <trkpt lat="45.93394" lon="1.88374">
        <ele>634.6</ele>
        <time>2022-07-09T16:16:16Z</time>
      </trkpt>
      <trkpt lat="45.93389" lon="1.88372">
        <ele>634.6</ele>
        <time>2022-07-09T16:16:18Z</time>
      </trkpt>
      <trkpt lat="45.93374" lon="1.88364">
        <ele>635.4</ele>
        <time>2022-07-09T16:16:25Z</time>
      </trkpt>
      <trkpt lat="45.9337" lon="1.88361">
        <ele>635.6</ele>
        <time>2022-07-09T16:16:27Z</time>
      </trkpt>
      <trkpt lat="45.93359" lon="1.88357">
        <ele>636.6</ele>
        <time>2022-07-09T16:16:33Z</time>
      </trkpt>
      <trkpt lat="45.93357" lon="1.88357">
        <ele>636.8</ele>
        <time>2022-07-09T16:16:34Z</time>
      </trkpt>
      <trkpt lat="45.93346" lon="1.88352">
        <ele>637.8</ele>
        <time>2022-07-09T16:16:41Z</time>
      </trkpt>
      <trkpt lat="45.93344" lon="1.88351">
        <ele>637.8</ele>
        <time>2022-07-09T16:16:42Z</time>
      </trkpt>
      <trkpt lat="45.93335" lon="1.88345">
        <ele>639</ele>
        <time>2022-07-09T16:16:49Z</time>
      </trkpt>
      <trkpt lat="45.93326" lon="1.88341">
        <ele>639.4</ele>
        <time>2022-07-09T16:16:54Z</time>
      </trkpt>
      <trkpt lat="45.93314" lon="1.88336">
        <ele>639.8</ele>
        <time>2022-07-09T16:17:00Z</time>
      </trkpt>
      <trkpt lat="45.93305" lon="1.88333">
        <ele>639.8</ele>
        <time>2022-07-09T16:17:04Z</time>
      </trkpt>
      <trkpt lat="45.93303" lon="1.88332">
        <ele>640</ele>
        <time>2022-07-09T16:17:05Z</time>
      </trkpt>
      <trkpt lat="45.93288" lon="1.88325">
        <ele>640.8</ele>
        <time>2022-07-09T16:17:12Z</time>
      </trkpt>
      <trkpt lat="45.93266" lon="1.88314">
        <ele>640.8</ele>
        <time>2022-07-09T16:17:22Z</time>
      </trkpt>
      <trkpt lat="45.9325" lon="1.883">
        <ele>640.6</ele>
        <time>2022-07-09T16:17:28Z</time>
      </trkpt>
      <trkpt lat="45.93229" lon="1.88278">
        <ele>640</ele>
        <time>2022-07-09T16:17:34Z</time>
      </trkpt>
      <trkpt lat="45.93214" lon="1.88263">
        <ele>639.6</ele>
        <time>2022-07-09T16:17:39Z</time>
      </trkpt>
      <trkpt lat="45.932" lon="1.88242">
        <ele>639.6</ele>
        <time>2022-07-09T16:17:47Z</time>
      </trkpt>
      <trkpt lat="45.93189" lon="1.88226">
        <ele>640.2</ele>
        <time>2022-07-09T16:17:54Z</time>
      </trkpt>
      <trkpt lat="45.93181" lon="1.88214">
        <ele>641</ele>
        <time>2022-07-09T16:18:00Z</time>
      </trkpt>
      <trkpt lat="45.93178" lon="1.88208">
        <ele>641.8</ele>
        <time>2022-07-09T16:18:04Z</time>
      </trkpt>
      <trkpt lat="45.93177" lon="1.88206">
        <ele>642.2</ele>
        <time>2022-07-09T16:18:06Z</time>
      </trkpt>
      <trkpt lat="45.93174" lon="1.88202">
        <ele>642.8</ele>
        <time>2022-07-09T16:18:11Z</time>
      </trkpt>
      <trkpt lat="45.93173" lon="1.88201">
        <ele>643</ele>
        <time>2022-07-09T16:18:13Z</time>
      </trkpt>
      <trkpt lat="45.93172" lon="1.882">
        <ele>643.4</ele>
        <time>2022-07-09T16:18:14Z</time>
      </trkpt>
      <trkpt lat="45.93167" lon="1.88192">
        <ele>644.6</ele>
        <time>2022-07-09T16:18:20Z</time>
      </trkpt>
      <trkpt lat="45.93166" lon="1.88191">
        <ele>644.6</ele>
        <time>2022-07-09T16:18:21Z</time>
      </trkpt>
      <trkpt lat="45.93156" lon="1.88185">
        <ele>645.4</ele>
        <time>2022-07-09T16:18:28Z</time>
      </trkpt>
      <trkpt lat="45.93155" lon="1.88184">
        <ele>645.8</ele>
        <time>2022-07-09T16:18:29Z</time>
      </trkpt>
      <trkpt lat="45.93148" lon="1.88179">
        <ele>646.6</ele>
        <time>2022-07-09T16:18:34Z</time>
      </trkpt>
      <trkpt lat="45.93146" lon="1.88178">
        <ele>646.6</ele>
        <time>2022-07-09T16:18:35Z</time>
      </trkpt>
      <trkpt lat="45.93138" lon="1.88178">
        <ele>646.8</ele>
        <time>2022-07-09T16:18:39Z</time>
      </trkpt>
      <trkpt lat="45.93126" lon="1.88181">
        <ele>647.4</ele>
        <time>2022-07-09T16:18:44Z</time>
      </trkpt>
      <trkpt lat="45.93104" lon="1.88189">
        <ele>647.8</ele>
        <time>2022-07-09T16:18:53Z</time>
      </trkpt>
      <trkpt lat="45.93093" lon="1.88191">
        <ele>647.8</ele>
        <time>2022-07-09T16:18:57Z</time>
      </trkpt>
      <trkpt lat="45.93082" lon="1.88195">
        <ele>648.2</ele>
        <time>2022-07-09T16:19:02Z</time>
      </trkpt>
      <trkpt lat="45.93071" lon="1.88203">
        <ele>648.8</ele>
        <time>2022-07-09T16:19:07Z</time>
      </trkpt>
      <trkpt lat="45.93068" lon="1.88205">
        <ele>649</ele>
        <time>2022-07-09T16:19:08Z</time>
      </trkpt>
      <trkpt lat="45.93052" lon="1.88217">
        <ele>649.8</ele>
        <time>2022-07-09T16:19:16Z</time>
      </trkpt>
      <trkpt lat="45.9305" lon="1.88219">
        <ele>650</ele>
        <time>2022-07-09T16:19:17Z</time>
      </trkpt>
      <trkpt lat="45.93037" lon="1.88231">
        <ele>650.4</ele>
        <time>2022-07-09T16:19:23Z</time>
      </trkpt>
      <trkpt lat="45.93025" lon="1.8824">
        <ele>651.2</ele>
        <time>2022-07-09T16:19:29Z</time>
      </trkpt>
      <trkpt lat="45.93023" lon="1.8824">
        <ele>651.2</ele>
        <time>2022-07-09T16:19:30Z</time>
      </trkpt>
      <trkpt lat="45.93012" lon="1.88246">
        <ele>651.6</ele>
        <time>2022-07-09T16:19:36Z</time>
      </trkpt>
      <trkpt lat="45.93012" lon="1.88246">
        <ele>652</ele>
        <time>2022-07-09T16:19:40Z</time>
      </trkpt>
      <trkpt lat="45.93009" lon="1.88246">
        <ele>652</ele>
        <time>2022-07-09T16:20:05Z</time>
      </trkpt>
      <trkpt lat="45.93008" lon="1.88247">
        <ele>652</ele>
        <time>2022-07-09T16:20:06Z</time>
      </trkpt>
      <trkpt lat="45.92999" lon="1.88244">
        <ele>652</ele>
        <time>2022-07-09T16:20:10Z</time>
      </trkpt>
      <trkpt lat="45.92981" lon="1.88241">
        <ele>651.8</ele>
        <time>2022-07-09T16:20:18Z</time>
      </trkpt>
      <trkpt lat="45.92979" lon="1.8824">
        <ele>651.8</ele>
        <time>2022-07-09T16:20:19Z</time>
      </trkpt>
      <trkpt lat="45.92968" lon="1.8824">
        <ele>652</ele>
        <time>2022-07-09T16:20:22Z</time>
      </trkpt>
      <trkpt lat="45.92952" lon="1.8824">
        <ele>652.8</ele>
        <time>2022-07-09T16:20:28Z</time>
      </trkpt>
      <trkpt lat="45.92947" lon="1.88243">
        <ele>653.2</ele>
        <time>2022-07-09T16:20:31Z</time>
      </trkpt>
      <trkpt lat="45.9294" lon="1.88243">
        <ele>653</ele>
        <time>2022-07-09T16:20:34Z</time>
      </trkpt>
      <trkpt lat="45.92927" lon="1.88237">
        <ele>653.8</ele>
        <time>2022-07-09T16:20:40Z</time>
      </trkpt>
      <trkpt lat="45.92922" lon="1.88233">
        <ele>653.8</ele>
        <time>2022-07-09T16:20:43Z</time>
      </trkpt>
      <trkpt lat="45.92921" lon="1.88231">
        <ele>654</ele>
        <time>2022-07-09T16:20:44Z</time>
      </trkpt>
      <trkpt lat="45.92916" lon="1.88226">
        <ele>654.2</ele>
        <time>2022-07-09T16:20:47Z</time>
      </trkpt>
      <trkpt lat="45.9291" lon="1.88223">
        <ele>655</ele>
        <time>2022-07-09T16:20:51Z</time>
      </trkpt>
      <trkpt lat="45.92908" lon="1.88222">
        <ele>655.2</ele>
        <time>2022-07-09T16:20:52Z</time>
      </trkpt>
      <trkpt lat="45.92904" lon="1.88219">
        <ele>655.6</ele>
        <time>2022-07-09T16:20:55Z</time>
      </trkpt>
      <trkpt lat="45.92902" lon="1.88215">
        <ele>656.2</ele>
        <time>2022-07-09T16:20:58Z</time>
      </trkpt>
      <trkpt lat="45.92901" lon="1.88215">
        <ele>656.4</ele>
        <time>2022-07-09T16:20:59Z</time>
      </trkpt>
      <trkpt lat="45.929" lon="1.88215">
        <ele>656.4</ele>
        <time>2022-07-09T16:21:00Z</time>
      </trkpt>
      <trkpt lat="45.92897" lon="1.88213">
        <ele>657</ele>
        <time>2022-07-09T16:21:04Z</time>
      </trkpt>
      <trkpt lat="45.92896" lon="1.88212">
        <ele>657.2</ele>
        <time>2022-07-09T16:21:07Z</time>
      </trkpt>
      <trkpt lat="45.92892" lon="1.8821">
        <ele>658</ele>
        <time>2022-07-09T16:21:13Z</time>
      </trkpt>
      <trkpt lat="45.92889" lon="1.88208">
        <ele>658.4</ele>
        <time>2022-07-09T16:21:15Z</time>
      </trkpt>
      <trkpt lat="45.92883" lon="1.88204">
        <ele>659.2</ele>
        <time>2022-07-09T16:21:20Z</time>
      </trkpt>
      <trkpt lat="45.92881" lon="1.88204">
        <ele>659.2</ele>
        <time>2022-07-09T16:21:21Z</time>
      </trkpt>
      <trkpt lat="45.92878" lon="1.88202">
        <ele>659.4</ele>
        <time>2022-07-09T16:21:23Z</time>
      </trkpt>
      <trkpt lat="45.92874" lon="1.88201">
        <ele>659.6</ele>
        <time>2022-07-09T16:21:25Z</time>
      </trkpt>
      <trkpt lat="45.92867" lon="1.88196">
        <ele>660.2</ele>
        <time>2022-07-09T16:21:30Z</time>
      </trkpt>
      <trkpt lat="45.92866" lon="1.88196">
        <ele>660</ele>
        <time>2022-07-09T16:21:31Z</time>
      </trkpt>
      <trkpt lat="45.92865" lon="1.88195">
        <ele>660</ele>
        <time>2022-07-09T16:21:32Z</time>
      </trkpt>
      <trkpt lat="45.92864" lon="1.88194">
        <ele>660.2</ele>
        <time>2022-07-09T16:21:34Z</time>
      </trkpt>
      <trkpt lat="45.92862" lon="1.88193">
        <ele>660.6</ele>
        <time>2022-07-09T16:21:36Z</time>
      </trkpt>
      <trkpt lat="45.92859" lon="1.8819">
        <ele>660.6</ele>
        <time>2022-07-09T16:21:38Z</time>
      </trkpt>
      <trkpt lat="45.92856" lon="1.88188">
        <ele>661</ele>
        <time>2022-07-09T16:21:41Z</time>
      </trkpt>
      <trkpt lat="45.92853" lon="1.88188">
        <ele>661.4</ele>
        <time>2022-07-09T16:21:44Z</time>
      </trkpt>
      <trkpt lat="45.92851" lon="1.88187">
        <ele>661.4</ele>
        <time>2022-07-09T16:21:46Z</time>
      </trkpt>
      <trkpt lat="45.92844" lon="1.88183">
        <ele>662</ele>
        <time>2022-07-09T16:21:53Z</time>
      </trkpt>
      <trkpt lat="45.92842" lon="1.88183">
        <ele>662.4</ele>
        <time>2022-07-09T16:21:54Z</time>
      </trkpt>
      <trkpt lat="45.92841" lon="1.88181">
        <ele>662.4</ele>
        <time>2022-07-09T16:21:55Z</time>
      </trkpt>
      <trkpt lat="45.92839" lon="1.88181">
        <ele>662.6</ele>
        <time>2022-07-09T16:21:56Z</time>
      </trkpt>
      <trkpt lat="45.92837" lon="1.8818">
        <ele>662.8</ele>
        <time>2022-07-09T16:21:58Z</time>
      </trkpt>
      <trkpt lat="45.92835" lon="1.88179">
        <ele>663.4</ele>
        <time>2022-07-09T16:22:01Z</time>
      </trkpt>
      <trkpt lat="45.92832" lon="1.88178">
        <ele>663.8</ele>
        <time>2022-07-09T16:22:05Z</time>
      </trkpt>
      <trkpt lat="45.92826" lon="1.88174">
        <ele>664.4</ele>
        <time>2022-07-09T16:22:10Z</time>
      </trkpt>
      <trkpt lat="45.92822" lon="1.88173">
        <ele>664.8</ele>
        <time>2022-07-09T16:22:12Z</time>
      </trkpt>
      <trkpt lat="45.9282" lon="1.88172">
        <ele>665.2</ele>
        <time>2022-07-09T16:22:14Z</time>
      </trkpt>
      <trkpt lat="45.92815" lon="1.8817">
        <ele>665.8</ele>
        <time>2022-07-09T16:22:19Z</time>
      </trkpt>
      <trkpt lat="45.92814" lon="1.8817">
        <ele>666.2</ele>
        <time>2022-07-09T16:22:22Z</time>
      </trkpt>
      <trkpt lat="45.92806" lon="1.88169">
        <ele>666.8</ele>
        <time>2022-07-09T16:22:27Z</time>
      </trkpt>
      <trkpt lat="45.92804" lon="1.88169">
        <ele>667</ele>
        <time>2022-07-09T16:22:28Z</time>
      </trkpt>
      <trkpt lat="45.92802" lon="1.88169">
        <ele>667</ele>
        <time>2022-07-09T16:22:29Z</time>
      </trkpt>
      <trkpt lat="45.92795" lon="1.88166">
        <ele>667.4</ele>
        <time>2022-07-09T16:22:32Z</time>
      </trkpt>
      <trkpt lat="45.92787" lon="1.88165">
        <ele>667.6</ele>
        <time>2022-07-09T16:22:35Z</time>
      </trkpt>
      <trkpt lat="45.9278" lon="1.88162">
        <ele>667.8</ele>
        <time>2022-07-09T16:22:38Z</time>
      </trkpt>
      <trkpt lat="45.92774" lon="1.88162">
        <ele>668</ele>
        <time>2022-07-09T16:22:40Z</time>
      </trkpt>
      <trkpt lat="45.92771" lon="1.88162">
        <ele>668</ele>
        <time>2022-07-09T16:22:41Z</time>
      </trkpt>
      <trkpt lat="45.92769" lon="1.88162">
        <ele>668</ele>
        <time>2022-07-09T16:22:42Z</time>
      </trkpt>
      <trkpt lat="45.92758" lon="1.88166">
        <ele>668.8</ele>
        <time>2022-07-09T16:22:47Z</time>
      </trkpt>
      <trkpt lat="45.92755" lon="1.88167">
        <ele>669</ele>
        <time>2022-07-09T16:22:49Z</time>
      </trkpt>
      <trkpt lat="45.92746" lon="1.88168">
        <ele>669.6</ele>
        <time>2022-07-09T16:22:56Z</time>
      </trkpt>
      <trkpt lat="45.92741" lon="1.88169">
        <ele>670</ele>
        <time>2022-07-09T16:23:00Z</time>
      </trkpt>
      <trkpt lat="45.92738" lon="1.8817">
        <ele>670.4</ele>
        <time>2022-07-09T16:23:02Z</time>
      </trkpt>
      <trkpt lat="45.9273" lon="1.8817">
        <ele>671</ele>
        <time>2022-07-09T16:23:06Z</time>
      </trkpt>
      <trkpt lat="45.92728" lon="1.88169">
        <ele>671</ele>
        <time>2022-07-09T16:23:07Z</time>
      </trkpt>
      <trkpt lat="45.92725" lon="1.88168">
        <ele>671.2</ele>
        <time>2022-07-09T16:23:08Z</time>
      </trkpt>
      <trkpt lat="45.92717" lon="1.88164">
        <ele>671.6</ele>
        <time>2022-07-09T16:23:12Z</time>
      </trkpt>
      <trkpt lat="45.92715" lon="1.8816">
        <ele>672.2</ele>
        <time>2022-07-09T16:23:16Z</time>
      </trkpt>
      <trkpt lat="45.92714" lon="1.88159">
        <ele>672.2</ele>
        <time>2022-07-09T16:23:17Z</time>
      </trkpt>
      <trkpt lat="45.9271" lon="1.88156">
        <ele>672.6</ele>
        <time>2022-07-09T16:23:21Z</time>
      </trkpt>
      <trkpt lat="45.9271" lon="1.88156">
        <ele>672.8</ele>
        <time>2022-07-09T16:23:23Z</time>
      </trkpt>
      <trkpt lat="45.92706" lon="1.88154">
        <ele>673</ele>
        <time>2022-07-09T16:24:40Z</time>
      </trkpt>
      <trkpt lat="45.92705" lon="1.88153">
        <ele>673</ele>
        <time>2022-07-09T16:24:41Z</time>
      </trkpt>
      <trkpt lat="45.927" lon="1.88149">
        <ele>673.4</ele>
        <time>2022-07-09T16:24:46Z</time>
      </trkpt>
      <trkpt lat="45.92699" lon="1.88148">
        <ele>673.4</ele>
        <time>2022-07-09T16:24:47Z</time>
      </trkpt>
      <trkpt lat="45.92692" lon="1.88142">
        <ele>674</ele>
        <time>2022-07-09T16:24:51Z</time>
      </trkpt>
      <trkpt lat="45.92691" lon="1.88141">
        <ele>674</ele>
        <time>2022-07-09T16:24:52Z</time>
      </trkpt>
      <trkpt lat="45.92683" lon="1.88133">
        <ele>674.6</ele>
        <time>2022-07-09T16:24:57Z</time>
      </trkpt>
      <trkpt lat="45.9268" lon="1.88129">
        <ele>674.8</ele>
        <time>2022-07-09T16:24:59Z</time>
      </trkpt>
      <trkpt lat="45.92676" lon="1.88124">
        <ele>675.2</ele>
        <time>2022-07-09T16:25:02Z</time>
      </trkpt>
      <trkpt lat="45.92673" lon="1.8812">
        <ele>675.6</ele>
        <time>2022-07-09T16:25:05Z</time>
      </trkpt>
      <trkpt lat="45.92669" lon="1.88108">
        <ele>676</ele>
        <time>2022-07-09T16:25:12Z</time>
      </trkpt>
      <trkpt lat="45.92669" lon="1.88108">
        <ele>676.4</ele>
        <time>2022-07-09T16:25:15Z</time>
      </trkpt>
      <trkpt lat="45.9267" lon="1.88105">
        <ele>677</ele>
        <time>2022-07-09T16:25:19Z</time>
      </trkpt>
      <trkpt lat="45.92672" lon="1.88104">
        <ele>677.4</ele>
        <time>2022-07-09T16:25:23Z</time>
      </trkpt>
      <trkpt lat="45.92674" lon="1.88101">
        <ele>678</ele>
        <time>2022-07-09T16:25:28Z</time>
      </trkpt>
      <trkpt lat="45.9268" lon="1.88095">
        <ele>678.4</ele>
        <time>2022-07-09T16:25:32Z</time>
      </trkpt>
      <trkpt lat="45.92684" lon="1.88091">
        <ele>678.4</ele>
        <time>2022-07-09T16:25:34Z</time>
      </trkpt>
      <trkpt lat="45.92687" lon="1.88089">
        <ele>678.6</ele>
        <time>2022-07-09T16:25:36Z</time>
      </trkpt>
      <trkpt lat="45.92693" lon="1.88083">
        <ele>679.2</ele>
        <time>2022-07-09T16:25:40Z</time>
      </trkpt>
      <trkpt lat="45.92705" lon="1.88074">
        <ele>679.4</ele>
        <time>2022-07-09T16:25:46Z</time>
      </trkpt>
      <trkpt lat="45.92709" lon="1.88071">
        <ele>679.6</ele>
        <time>2022-07-09T16:25:47Z</time>
      </trkpt>
      <trkpt lat="45.92713" lon="1.88065">
        <ele>680</ele>
        <time>2022-07-09T16:25:52Z</time>
      </trkpt>
      <trkpt lat="45.92717" lon="1.8806">
        <ele>680</ele>
        <time>2022-07-09T16:25:54Z</time>
      </trkpt>
      <trkpt lat="45.92722" lon="1.88053">
        <ele>680.4</ele>
        <time>2022-07-09T16:25:58Z</time>
      </trkpt>
      <trkpt lat="45.92723" lon="1.88052">
        <ele>680.4</ele>
        <time>2022-07-09T16:25:59Z</time>
      </trkpt>
      <trkpt lat="45.92724" lon="1.88051">
        <ele>680.6</ele>
        <time>2022-07-09T16:26:00Z</time>
      </trkpt>
      <trkpt lat="45.92726" lon="1.88049">
        <ele>680.8</ele>
        <time>2022-07-09T16:26:02Z</time>
      </trkpt>
      <trkpt lat="45.92728" lon="1.88047">
        <ele>681</ele>
        <time>2022-07-09T16:26:06Z</time>
      </trkpt>
      <trkpt lat="45.92733" lon="1.88043">
        <ele>681</ele>
        <time>2022-07-09T16:26:09Z</time>
      </trkpt>
      <trkpt lat="45.92736" lon="1.8804">
        <ele>681</ele>
        <time>2022-07-09T16:26:11Z</time>
      </trkpt>
      <trkpt lat="45.92736" lon="1.8804">
        <ele>681.2</ele>
        <time>2022-07-09T16:26:12Z</time>
      </trkpt>
      <trkpt lat="45.92741" lon="1.88035">
        <ele>681.6</ele>
        <time>2022-07-09T16:26:18Z</time>
      </trkpt>
      <trkpt lat="45.92744" lon="1.88032">
        <ele>681.6</ele>
        <time>2022-07-09T16:26:19Z</time>
      </trkpt>
      <trkpt lat="45.92746" lon="1.88029">
        <ele>681.8</ele>
        <time>2022-07-09T16:26:20Z</time>
      </trkpt>
      <trkpt lat="45.92752" lon="1.88022">
        <ele>682</ele>
        <time>2022-07-09T16:26:23Z</time>
      </trkpt>
      <trkpt lat="45.9276" lon="1.88014">
        <ele>682.2</ele>
        <time>2022-07-09T16:26:26Z</time>
      </trkpt>
      <trkpt lat="45.92766" lon="1.88008">
        <ele>682.6</ele>
        <time>2022-07-09T16:26:31Z</time>
      </trkpt>
      <trkpt lat="45.92767" lon="1.88007">
        <ele>682.8</ele>
        <time>2022-07-09T16:26:32Z</time>
      </trkpt>
      <trkpt lat="45.9278" lon="1.87995">
        <ele>683.2</ele>
        <time>2022-07-09T16:26:38Z</time>
      </trkpt>
      <trkpt lat="45.92785" lon="1.87989">
        <ele>683.8</ele>
        <time>2022-07-09T16:26:43Z</time>
      </trkpt>
      <trkpt lat="45.92788" lon="1.87986">
        <ele>684.2</ele>
        <time>2022-07-09T16:26:46Z</time>
      </trkpt>
      <trkpt lat="45.92792" lon="1.87981">
        <ele>684.2</ele>
        <time>2022-07-09T16:26:48Z</time>
      </trkpt>
      <trkpt lat="45.92797" lon="1.87973">
        <ele>684.4</ele>
        <time>2022-07-09T16:26:52Z</time>
      </trkpt>
      <trkpt lat="45.92799" lon="1.87968">
        <ele>684.6</ele>
        <time>2022-07-09T16:26:54Z</time>
      </trkpt>
      <trkpt lat="45.92802" lon="1.87958">
        <ele>685</ele>
        <time>2022-07-09T16:26:59Z</time>
      </trkpt>
      <trkpt lat="45.92808" lon="1.87951">
        <ele>685.4</ele>
        <time>2022-07-09T16:27:02Z</time>
      </trkpt>
      <trkpt lat="45.92808" lon="1.8795">
        <ele>685.8</ele>
        <time>2022-07-09T16:27:05Z</time>
      </trkpt>
      <trkpt lat="45.92811" lon="1.87944">
        <ele>686.6</ele>
        <time>2022-07-09T16:27:12Z</time>
      </trkpt>
      <trkpt lat="45.92812" lon="1.87941">
        <ele>687</ele>
        <time>2022-07-09T16:27:14Z</time>
      </trkpt>
      <trkpt lat="45.92812" lon="1.87939">
        <ele>687.4</ele>
        <time>2022-07-09T16:27:17Z</time>
      </trkpt>
      <trkpt lat="45.92814" lon="1.87933">
        <ele>688</ele>
        <time>2022-07-09T16:27:21Z</time>
      </trkpt>
      <trkpt lat="45.92815" lon="1.87932">
        <ele>688.2</ele>
        <time>2022-07-09T16:27:22Z</time>
      </trkpt>
      <trkpt lat="45.92816" lon="1.87921">
        <ele>688.8</ele>
        <time>2022-07-09T16:27:27Z</time>
      </trkpt>
      <trkpt lat="45.92814" lon="1.87912">
        <ele>689.2</ele>
        <time>2022-07-09T16:27:31Z</time>
      </trkpt>
      <trkpt lat="45.92812" lon="1.87909">
        <ele>689.4</ele>
        <time>2022-07-09T16:27:33Z</time>
      </trkpt>
      <trkpt lat="45.92811" lon="1.87904">
        <ele>690</ele>
        <time>2022-07-09T16:27:38Z</time>
      </trkpt>
      <trkpt lat="45.92811" lon="1.87904">
        <ele>690</ele>
        <time>2022-07-09T16:27:39Z</time>
      </trkpt>
      <trkpt lat="45.92811" lon="1.87903">
        <ele>690.4</ele>
        <time>2022-07-09T16:27:41Z</time>
      </trkpt>
      <trkpt lat="45.9281" lon="1.87901">
        <ele>690.6</ele>
        <time>2022-07-09T16:27:45Z</time>
      </trkpt>
      <trkpt lat="45.92803" lon="1.87893">
        <ele>691.4</ele>
        <time>2022-07-09T16:27:53Z</time>
      </trkpt>
      <trkpt lat="45.92802" lon="1.87892">
        <ele>691.6</ele>
        <time>2022-07-09T16:27:54Z</time>
      </trkpt>
      <trkpt lat="45.92798" lon="1.87885">
        <ele>692.4</ele>
        <time>2022-07-09T16:27:58Z</time>
      </trkpt>
      <trkpt lat="45.92792" lon="1.87878">
        <ele>692.8</ele>
        <time>2022-07-09T16:28:02Z</time>
      </trkpt>
      <trkpt lat="45.92789" lon="1.87874">
        <ele>693</ele>
        <time>2022-07-09T16:28:03Z</time>
      </trkpt>
      <trkpt lat="45.92782" lon="1.87866">
        <ele>693.4</ele>
        <time>2022-07-09T16:28:08Z</time>
      </trkpt>
      <trkpt lat="45.92778" lon="1.87862">
        <ele>694.6</ele>
        <time>2022-07-09T16:28:16Z</time>
      </trkpt>
      <trkpt lat="45.92776" lon="1.87858">
        <ele>695.6</ele>
        <time>2022-07-09T16:28:22Z</time>
      </trkpt>
      <trkpt lat="45.92772" lon="1.87852">
        <ele>696.2</ele>
        <time>2022-07-09T16:28:26Z</time>
      </trkpt>
      <trkpt lat="45.92769" lon="1.87847">
        <ele>696.6</ele>
        <time>2022-07-09T16:28:29Z</time>
      </trkpt>
      <trkpt lat="45.92764" lon="1.87844">
        <ele>697.6</ele>
        <time>2022-07-09T16:28:35Z</time>
      </trkpt>
      <trkpt lat="45.92764" lon="1.87843">
        <ele>697.6</ele>
        <time>2022-07-09T16:28:36Z</time>
      </trkpt>
      <trkpt lat="45.92763" lon="1.87843">
        <ele>697.8</ele>
        <time>2022-07-09T16:28:37Z</time>
      </trkpt>
      <trkpt lat="45.92755" lon="1.87834">
        <ele>698.4</ele>
        <time>2022-07-09T16:28:42Z</time>
      </trkpt>
      <trkpt lat="45.9275" lon="1.8783">
        <ele>698.8</ele>
        <time>2022-07-09T16:28:45Z</time>
      </trkpt>
      <trkpt lat="45.92747" lon="1.87825">
        <ele>699.2</ele>
        <time>2022-07-09T16:28:48Z</time>
      </trkpt>
      <trkpt lat="45.92745" lon="1.87823">
        <ele>699.8</ele>
        <time>2022-07-09T16:28:51Z</time>
      </trkpt>
      <trkpt lat="45.92743" lon="1.87819">
        <ele>700.6</ele>
        <time>2022-07-09T16:28:56Z</time>
      </trkpt>
      <trkpt lat="45.92742" lon="1.87818">
        <ele>700.8</ele>
        <time>2022-07-09T16:28:58Z</time>
      </trkpt>
      <trkpt lat="45.92741" lon="1.87816">
        <ele>701.6</ele>
        <time>2022-07-09T16:29:03Z</time>
      </trkpt>
      <trkpt lat="45.92739" lon="1.87812">
        <ele>702.2</ele>
        <time>2022-07-09T16:29:10Z</time>
      </trkpt>
      <trkpt lat="45.92739" lon="1.8781">
        <ele>702.6</ele>
        <time>2022-07-09T16:29:15Z</time>
      </trkpt>
      <trkpt lat="45.92737" lon="1.87809">
        <ele>703.2</ele>
        <time>2022-07-09T16:29:20Z</time>
      </trkpt>
      <trkpt lat="45.92737" lon="1.87809">
        <ele>703.4</ele>
        <time>2022-07-09T16:29:21Z</time>
      </trkpt>
      <trkpt lat="45.92726" lon="1.87797">
        <ele>704.6</ele>
        <time>2022-07-09T16:29:35Z</time>
      </trkpt>
      <trkpt lat="45.9272" lon="1.8779">
        <ele>705.2</ele>
        <time>2022-07-09T16:29:40Z</time>
      </trkpt>
      <trkpt lat="45.92713" lon="1.87785">
        <ele>705.6</ele>
        <time>2022-07-09T16:29:44Z</time>
      </trkpt>
      <trkpt lat="45.92705" lon="1.87775">
        <ele>706.2</ele>
        <time>2022-07-09T16:29:50Z</time>
      </trkpt>
      <trkpt lat="45.92705" lon="1.87774">
        <ele>706.8</ele>
        <time>2022-07-09T16:29:54Z</time>
      </trkpt>
      <trkpt lat="45.92704" lon="1.87773">
        <ele>707</ele>
        <time>2022-07-09T16:29:57Z</time>
      </trkpt>
      <trkpt lat="45.92702" lon="1.87769">
        <ele>707.6</ele>
        <time>2022-07-09T16:30:00Z</time>
      </trkpt>
      <trkpt lat="45.927" lon="1.87766">
        <ele>707.6</ele>
        <time>2022-07-09T16:30:04Z</time>
      </trkpt>
      <trkpt lat="45.92699" lon="1.87765">
        <ele>708.2</ele>
        <time>2022-07-09T16:30:05Z</time>
      </trkpt>
      <trkpt lat="45.92694" lon="1.87761">
        <ele>708.8</ele>
        <time>2022-07-09T16:30:16Z</time>
      </trkpt>
      <trkpt lat="45.92693" lon="1.87758">
        <ele>709.2</ele>
        <time>2022-07-09T16:30:19Z</time>
      </trkpt>
      <trkpt lat="45.92691" lon="1.87757">
        <ele>709.6</ele>
        <time>2022-07-09T16:30:22Z</time>
      </trkpt>
      <trkpt lat="45.92683" lon="1.87749">
        <ele>710.4</ele>
        <time>2022-07-09T16:30:29Z</time>
      </trkpt>
      <trkpt lat="45.92677" lon="1.87741">
        <ele>711</ele>
        <time>2022-07-09T16:30:33Z</time>
      </trkpt>
      <trkpt lat="45.92669" lon="1.87734">
        <ele>711.4</ele>
        <time>2022-07-09T16:30:40Z</time>
      </trkpt>
      <trkpt lat="45.92668" lon="1.87733">
        <ele>711.4</ele>
        <time>2022-07-09T16:30:41Z</time>
      </trkpt>
      <trkpt lat="45.92667" lon="1.87732">
        <ele>711.8</ele>
        <time>2022-07-09T16:30:45Z</time>
      </trkpt>
      <trkpt lat="45.92664" lon="1.8773">
        <ele>712</ele>
        <time>2022-07-09T16:30:48Z</time>
      </trkpt>
      <trkpt lat="45.9266" lon="1.87722">
        <ele>712.4</ele>
        <time>2022-07-09T16:30:56Z</time>
      </trkpt>
      <trkpt lat="45.92654" lon="1.87711">
        <ele>712.6</ele>
        <time>2022-07-09T16:31:01Z</time>
      </trkpt>
      <trkpt lat="45.92654" lon="1.8771">
        <ele>712.6</ele>
        <time>2022-07-09T16:31:02Z</time>
      </trkpt>
      <trkpt lat="45.92653" lon="1.87707">
        <ele>712.8</ele>
        <time>2022-07-09T16:31:04Z</time>
      </trkpt>
      <trkpt lat="45.92651" lon="1.87703">
        <ele>713</ele>
        <time>2022-07-09T16:31:06Z</time>
      </trkpt>
      <trkpt lat="45.92647" lon="1.87697">
        <ele>713.4</ele>
        <time>2022-07-09T16:31:08Z</time>
      </trkpt>
      <trkpt lat="45.92641" lon="1.87681">
        <ele>713.8</ele>
        <time>2022-07-09T16:31:14Z</time>
      </trkpt>
      <trkpt lat="45.92624" lon="1.87655">
        <ele>714.6</ele>
        <time>2022-07-09T16:31:26Z</time>
      </trkpt>
      <trkpt lat="45.92621" lon="1.87651">
        <ele>714.8</ele>
        <time>2022-07-09T16:31:28Z</time>
      </trkpt>
      <trkpt lat="45.92613" lon="1.87646">
        <ele>715</ele>
        <time>2022-07-09T16:31:33Z</time>
      </trkpt>
      <trkpt lat="45.92602" lon="1.87644">
        <ele>715</ele>
        <time>2022-07-09T16:31:40Z</time>
      </trkpt>
      <trkpt lat="45.92592" lon="1.87638">
        <ele>716</ele>
        <time>2022-07-09T16:31:47Z</time>
      </trkpt>
      <trkpt lat="45.92591" lon="1.87637">
        <ele>716</ele>
        <time>2022-07-09T16:31:48Z</time>
      </trkpt>
      <trkpt lat="45.92585" lon="1.87633">
        <ele>717</ele>
        <time>2022-07-09T16:31:54Z</time>
      </trkpt>
      <trkpt lat="45.92584" lon="1.87632">
        <ele>717.2</ele>
        <time>2022-07-09T16:31:55Z</time>
      </trkpt>
      <trkpt lat="45.92571" lon="1.87623">
        <ele>718</ele>
        <time>2022-07-09T16:32:02Z</time>
      </trkpt>
      <trkpt lat="45.92569" lon="1.87622">
        <ele>718</ele>
        <time>2022-07-09T16:32:03Z</time>
      </trkpt>
      <trkpt lat="45.92564" lon="1.8761">
        <ele>718.6</ele>
        <time>2022-07-09T16:32:08Z</time>
      </trkpt>
      <trkpt lat="45.9255" lon="1.87598">
        <ele>719</ele>
        <time>2022-07-09T16:32:17Z</time>
      </trkpt>
      <trkpt lat="45.92546" lon="1.87596">
        <ele>719.2</ele>
        <time>2022-07-09T16:32:19Z</time>
      </trkpt>
      <trkpt lat="45.92536" lon="1.87592">
        <ele>719.2</ele>
        <time>2022-07-09T16:32:23Z</time>
      </trkpt>
      <trkpt lat="45.92515" lon="1.87588">
        <ele>719.2</ele>
        <time>2022-07-09T16:32:31Z</time>
      </trkpt>
      <trkpt lat="45.92496" lon="1.87588">
        <ele>719</ele>
        <time>2022-07-09T16:32:37Z</time>
      </trkpt>
      <trkpt lat="45.92481" lon="1.87573">
        <ele>718.6</ele>
        <time>2022-07-09T16:32:41Z</time>
      </trkpt>
      <trkpt lat="45.92469" lon="1.87548">
        <ele>718.2</ele>
        <time>2022-07-09T16:32:48Z</time>
      </trkpt>
      <trkpt lat="45.92458" lon="1.87528">
        <ele>718.8</ele>
        <time>2022-07-09T16:32:55Z</time>
      </trkpt>
      <trkpt lat="45.9245" lon="1.87515">
        <ele>718.8</ele>
        <time>2022-07-09T16:33:01Z</time>
      </trkpt>
      <trkpt lat="45.92438" lon="1.87505">
        <ele>719.4</ele>
        <time>2022-07-09T16:33:08Z</time>
      </trkpt>
      <trkpt lat="45.92427" lon="1.87499">
        <ele>719.8</ele>
        <time>2022-07-09T16:33:15Z</time>
      </trkpt>
      <trkpt lat="45.92422" lon="1.87499">
        <ele>720</ele>
        <time>2022-07-09T16:33:17Z</time>
      </trkpt>
      <trkpt lat="45.92421" lon="1.87499">
        <ele>720</ele>
        <time>2022-07-09T16:33:18Z</time>
      </trkpt>
      <trkpt lat="45.92417" lon="1.87498">
        <ele>720.2</ele>
        <time>2022-07-09T16:33:20Z</time>
      </trkpt>
      <trkpt lat="45.92412" lon="1.87498">
        <ele>720.4</ele>
        <time>2022-07-09T16:33:24Z</time>
      </trkpt>
      <trkpt lat="45.9241" lon="1.87497">
        <ele>720.4</ele>
        <time>2022-07-09T16:33:26Z</time>
      </trkpt>
      <trkpt lat="45.92404" lon="1.87496">
        <ele>720.8</ele>
        <time>2022-07-09T16:33:30Z</time>
      </trkpt>
      <trkpt lat="45.92403" lon="1.87496">
        <ele>720.8</ele>
        <time>2022-07-09T16:33:31Z</time>
      </trkpt>
      <trkpt lat="45.92401" lon="1.87497">
        <ele>721</ele>
        <time>2022-07-09T16:33:32Z</time>
      </trkpt>
      <trkpt lat="45.92389" lon="1.87501">
        <ele>721.8</ele>
        <time>2022-07-09T16:33:40Z</time>
      </trkpt>
      <trkpt lat="45.92388" lon="1.87501">
        <ele>722</ele>
        <time>2022-07-09T16:33:41Z</time>
      </trkpt>
      <trkpt lat="45.92375" lon="1.87497">
        <ele>723</ele>
        <time>2022-07-09T16:33:48Z</time>
      </trkpt>
      <trkpt lat="45.92372" lon="1.87497">
        <ele>723.2</ele>
        <time>2022-07-09T16:33:50Z</time>
      </trkpt>
      <trkpt lat="45.92369" lon="1.87498">
        <ele>724</ele>
        <time>2022-07-09T16:33:55Z</time>
      </trkpt>
      <trkpt lat="45.92363" lon="1.875">
        <ele>724.6</ele>
        <time>2022-07-09T16:33:59Z</time>
      </trkpt>
      <trkpt lat="45.92361" lon="1.875">
        <ele>724.6</ele>
        <time>2022-07-09T16:34:00Z</time>
      </trkpt>
      <trkpt lat="45.92359" lon="1.875">
        <ele>725</ele>
        <time>2022-07-09T16:34:04Z</time>
      </trkpt>
      <trkpt lat="45.92358" lon="1.87501">
        <ele>725</ele>
        <time>2022-07-09T16:34:05Z</time>
      </trkpt>
      <trkpt lat="45.92356" lon="1.87501">
        <ele>725.2</ele>
        <time>2022-07-09T16:34:06Z</time>
      </trkpt>
      <trkpt lat="45.92348" lon="1.87504">
        <ele>725.8</ele>
        <time>2022-07-09T16:34:11Z</time>
      </trkpt>
      <trkpt lat="45.92343" lon="1.87504">
        <ele>726</ele>
        <time>2022-07-09T16:34:15Z</time>
      </trkpt>
      <trkpt lat="45.92342" lon="1.87504">
        <ele>726</ele>
        <time>2022-07-09T16:34:16Z</time>
      </trkpt>
      <trkpt lat="45.9234" lon="1.87504">
        <ele>726.2</ele>
        <time>2022-07-09T16:34:17Z</time>
      </trkpt>
      <trkpt lat="45.92338" lon="1.87504">
        <ele>726.2</ele>
        <time>2022-07-09T16:34:18Z</time>
      </trkpt>
      <trkpt lat="45.92334" lon="1.87505">
        <ele>726.8</ele>
        <time>2022-07-09T16:34:20Z</time>
      </trkpt>
      <trkpt lat="45.92329" lon="1.87507">
        <ele>727</ele>
        <time>2022-07-09T16:34:23Z</time>
      </trkpt>
      <trkpt lat="45.92326" lon="1.87507">
        <ele>727.2</ele>
        <time>2022-07-09T16:34:25Z</time>
      </trkpt>
      <trkpt lat="45.92323" lon="1.87508">
        <ele>727.4</ele>
        <time>2022-07-09T16:34:28Z</time>
      </trkpt>
      <trkpt lat="45.92317" lon="1.8751">
        <ele>728</ele>
        <time>2022-07-09T16:34:33Z</time>
      </trkpt>
      <trkpt lat="45.92316" lon="1.87511">
        <ele>728</ele>
        <time>2022-07-09T16:34:34Z</time>
      </trkpt>
      <trkpt lat="45.92311" lon="1.87512">
        <ele>729</ele>
        <time>2022-07-09T16:34:40Z</time>
      </trkpt>
      <trkpt lat="45.92311" lon="1.87512">
        <ele>729.4</ele>
        <time>2022-07-09T16:34:41Z</time>
      </trkpt>
      <trkpt lat="45.92304" lon="1.87511">
        <ele>730.4</ele>
        <time>2022-07-09T16:34:47Z</time>
      </trkpt>
      <trkpt lat="45.92303" lon="1.87512">
        <ele>730.6</ele>
        <time>2022-07-09T16:34:48Z</time>
      </trkpt>
      <trkpt lat="45.92298" lon="1.87515">
        <ele>731.4</ele>
        <time>2022-07-09T16:34:54Z</time>
      </trkpt>
      <trkpt lat="45.92295" lon="1.87516">
        <ele>732</ele>
        <time>2022-07-09T16:34:57Z</time>
      </trkpt>
      <trkpt lat="45.92289" lon="1.87517">
        <ele>732.4</ele>
        <time>2022-07-09T16:35:01Z</time>
      </trkpt>
      <trkpt lat="45.92282" lon="1.87518">
        <ele>732.8</ele>
        <time>2022-07-09T16:35:05Z</time>
      </trkpt>
      <trkpt lat="45.92279" lon="1.87518">
        <ele>733.4</ele>
        <time>2022-07-09T16:35:08Z</time>
      </trkpt>
      <trkpt lat="45.92273" lon="1.8752">
        <ele>734.4</ele>
        <time>2022-07-09T16:35:12Z</time>
      </trkpt>
      <trkpt lat="45.92272" lon="1.87521">
        <ele>734.6</ele>
        <time>2022-07-09T16:35:13Z</time>
      </trkpt>
      <trkpt lat="45.92271" lon="1.87521">
        <ele>735</ele>
        <time>2022-07-09T16:35:16Z</time>
      </trkpt>
      <trkpt lat="45.9227" lon="1.87518">
        <ele>735.6</ele>
        <time>2022-07-09T16:36:23Z</time>
      </trkpt>
      <trkpt lat="45.92269" lon="1.87517">
        <ele>735.6</ele>
        <time>2022-07-09T16:36:24Z</time>
      </trkpt>
      <trkpt lat="45.92263" lon="1.87512">
        <ele>736</ele>
        <time>2022-07-09T16:36:29Z</time>
      </trkpt>
      <trkpt lat="45.92261" lon="1.87509">
        <ele>736.2</ele>
        <time>2022-07-09T16:36:31Z</time>
      </trkpt>
      <trkpt lat="45.92258" lon="1.87505">
        <ele>737</ele>
        <time>2022-07-09T16:36:34Z</time>
      </trkpt>
      <trkpt lat="45.92257" lon="1.87504">
        <ele>737.2</ele>
        <time>2022-07-09T16:36:35Z</time>
      </trkpt>
      <trkpt lat="45.92253" lon="1.87495">
        <ele>738</ele>
        <time>2022-07-09T16:36:40Z</time>
      </trkpt>
      <trkpt lat="45.9225" lon="1.87488">
        <ele>738.8</ele>
        <time>2022-07-09T16:36:44Z</time>
      </trkpt>
      <trkpt lat="45.92249" lon="1.87485">
        <ele>739</ele>
        <time>2022-07-09T16:36:46Z</time>
      </trkpt>
      <trkpt lat="45.92241" lon="1.87469">
        <ele>740.2</ele>
        <time>2022-07-09T16:36:55Z</time>
      </trkpt>
      <trkpt lat="45.92231" lon="1.87458">
        <ele>741</ele>
        <time>2022-07-09T16:37:03Z</time>
      </trkpt>
      <trkpt lat="45.92228" lon="1.87455">
        <ele>741.2</ele>
        <time>2022-07-09T16:37:05Z</time>
      </trkpt>
      <trkpt lat="45.9222" lon="1.87443">
        <ele>742</ele>
        <time>2022-07-09T16:37:11Z</time>
      </trkpt>
      <trkpt lat="45.92214" lon="1.87434">
        <ele>742.4</ele>
        <time>2022-07-09T16:37:15Z</time>
      </trkpt>
      <trkpt lat="45.92207" lon="1.87429">
        <ele>742.6</ele>
        <time>2022-07-09T16:37:18Z</time>
      </trkpt>
      <trkpt lat="45.9219" lon="1.87414">
        <ele>743.2</ele>
        <time>2022-07-09T16:37:26Z</time>
      </trkpt>
      <trkpt lat="45.92183" lon="1.87406">
        <ele>743.4</ele>
        <time>2022-07-09T16:37:30Z</time>
      </trkpt>
      <trkpt lat="45.92178" lon="1.87402">
        <ele>743.6</ele>
        <time>2022-07-09T16:37:33Z</time>
      </trkpt>
      <trkpt lat="45.92177" lon="1.87401">
        <ele>743.4</ele>
        <time>2022-07-09T16:37:36Z</time>
      </trkpt>
      <trkpt lat="45.92173" lon="1.87399">
        <ele>744.2</ele>
        <time>2022-07-09T16:38:50Z</time>
      </trkpt>
      <trkpt lat="45.92161" lon="1.87393">
        <ele>744.2</ele>
        <time>2022-07-09T16:38:55Z</time>
      </trkpt>
      <trkpt lat="45.92146" lon="1.87384">
        <ele>744.4</ele>
        <time>2022-07-09T16:39:01Z</time>
      </trkpt>
      <trkpt lat="45.92142" lon="1.87382">
        <ele>744.4</ele>
        <time>2022-07-09T16:39:02Z</time>
      </trkpt>
      <trkpt lat="45.92136" lon="1.8738">
        <ele>744.4</ele>
        <time>2022-07-09T16:39:04Z</time>
      </trkpt>
      <trkpt lat="45.92113" lon="1.87367">
        <ele>744</ele>
        <time>2022-07-09T16:39:11Z</time>
      </trkpt>
      <trkpt lat="45.9209" lon="1.87358">
        <ele>743.8</ele>
        <time>2022-07-09T16:39:17Z</time>
      </trkpt>
      <trkpt lat="45.92067" lon="1.8735">
        <ele>743.2</ele>
        <time>2022-07-09T16:39:23Z</time>
      </trkpt>
      <trkpt lat="45.92064" lon="1.87349">
        <ele>743</ele>
        <time>2022-07-09T16:39:24Z</time>
      </trkpt>
      <trkpt lat="45.92038" lon="1.87349">
        <ele>742.8</ele>
        <time>2022-07-09T16:39:30Z</time>
      </trkpt>
      <trkpt lat="45.92022" lon="1.87353">
        <ele>742.8</ele>
        <time>2022-07-09T16:39:34Z</time>
      </trkpt>
      <trkpt lat="45.92006" lon="1.87357">
        <ele>743</ele>
        <time>2022-07-09T16:39:38Z</time>
      </trkpt>
      <trkpt lat="45.91976" lon="1.87368">
        <ele>742.6</ele>
        <time>2022-07-09T16:39:46Z</time>
      </trkpt>
      <trkpt lat="45.91939" lon="1.87381">
        <ele>743</ele>
        <time>2022-07-09T16:39:55Z</time>
      </trkpt>
      <trkpt lat="45.919" lon="1.87397">
        <ele>741.8</ele>
        <time>2022-07-09T16:40:03Z</time>
      </trkpt>
      <trkpt lat="45.91891" lon="1.87404">
        <ele>741.6</ele>
        <time>2022-07-09T16:40:05Z</time>
      </trkpt>
      <trkpt lat="45.91873" lon="1.87422">
        <ele>741.4</ele>
        <time>2022-07-09T16:40:09Z</time>
      </trkpt>
      <trkpt lat="45.91869" lon="1.87427">
        <ele>741.2</ele>
        <time>2022-07-09T16:40:10Z</time>
      </trkpt>
      <trkpt lat="45.91864" lon="1.87433">
        <ele>741.4</ele>
        <time>2022-07-09T16:40:11Z</time>
      </trkpt>
      <trkpt lat="45.91849" lon="1.87455">
        <ele>741</ele>
        <time>2022-07-09T16:40:15Z</time>
      </trkpt>
      <trkpt lat="45.91839" lon="1.87472">
        <ele>740.6</ele>
        <time>2022-07-09T16:40:18Z</time>
      </trkpt>
      <trkpt lat="45.91821" lon="1.87496">
        <ele>740.2</ele>
        <time>2022-07-09T16:40:23Z</time>
      </trkpt>
      <trkpt lat="45.91812" lon="1.87505">
        <ele>740</ele>
        <time>2022-07-09T16:40:25Z</time>
      </trkpt>
      <trkpt lat="45.91808" lon="1.87507">
        <ele>740</ele>
        <time>2022-07-09T16:40:26Z</time>
      </trkpt>
      <trkpt lat="45.91803" lon="1.8751">
        <ele>739.8</ele>
        <time>2022-07-09T16:40:27Z</time>
      </trkpt>
      <trkpt lat="45.91792" lon="1.87514">
        <ele>739.4</ele>
        <time>2022-07-09T16:40:29Z</time>
      </trkpt>
      <trkpt lat="45.91787" lon="1.87515">
        <ele>739.4</ele>
        <time>2022-07-09T16:40:30Z</time>
      </trkpt>
      <trkpt lat="45.9178" lon="1.87515">
        <ele>738.8</ele>
        <time>2022-07-09T16:40:32Z</time>
      </trkpt>
      <trkpt lat="45.91776" lon="1.87515">
        <ele>738.6</ele>
        <time>2022-07-09T16:40:33Z</time>
      </trkpt>
      <trkpt lat="45.9176" lon="1.87516">
        <ele>738.4</ele>
        <time>2022-07-09T16:40:37Z</time>
      </trkpt>
      <trkpt lat="45.91736" lon="1.87517">
        <ele>738.6</ele>
        <time>2022-07-09T16:40:44Z</time>
      </trkpt>
      <trkpt lat="45.91722" lon="1.87517">
        <ele>739</ele>
        <time>2022-07-09T16:40:49Z</time>
      </trkpt>
      <trkpt lat="45.91711" lon="1.87519">
        <ele>739.8</ele>
        <time>2022-07-09T16:40:52Z</time>
      </trkpt>
      <trkpt lat="45.91701" lon="1.87519">
        <ele>740.4</ele>
        <time>2022-07-09T16:40:55Z</time>
      </trkpt>
      <trkpt lat="45.91693" lon="1.87519">
        <ele>740.8</ele>
        <time>2022-07-09T16:40:58Z</time>
      </trkpt>
      <trkpt lat="45.9168" lon="1.87522">
        <ele>741.6</ele>
        <time>2022-07-09T16:41:03Z</time>
      </trkpt>
      <trkpt lat="45.91676" lon="1.87522">
        <ele>741.8</ele>
        <time>2022-07-09T16:41:04Z</time>
      </trkpt>
      <trkpt lat="45.91658" lon="1.87526">
        <ele>742.8</ele>
        <time>2022-07-09T16:41:11Z</time>
      </trkpt>
      <trkpt lat="45.91646" lon="1.87527">
        <ele>743</ele>
        <time>2022-07-09T16:41:15Z</time>
      </trkpt>
      <trkpt lat="45.91637" lon="1.87528">
        <ele>743.4</ele>
        <time>2022-07-09T16:41:18Z</time>
      </trkpt>
      <trkpt lat="45.91622" lon="1.87523">
        <ele>743.6</ele>
        <time>2022-07-09T16:41:24Z</time>
      </trkpt>
      <trkpt lat="45.91617" lon="1.87519">
        <ele>744</ele>
        <time>2022-07-09T16:41:26Z</time>
      </trkpt>
      <trkpt lat="45.91607" lon="1.87512">
        <ele>744.2</ele>
        <time>2022-07-09T16:41:30Z</time>
      </trkpt>
      <trkpt lat="45.91585" lon="1.87502">
        <ele>744.8</ele>
        <time>2022-07-09T16:41:37Z</time>
      </trkpt>
      <trkpt lat="45.91562" lon="1.87496">
        <ele>744.6</ele>
        <time>2022-07-09T16:41:43Z</time>
      </trkpt>
      <trkpt lat="45.91557" lon="1.87495">
        <ele>744.4</ele>
        <time>2022-07-09T16:41:44Z</time>
      </trkpt>
      <trkpt lat="45.91538" lon="1.87495">
        <ele>743.8</ele>
        <time>2022-07-09T16:41:48Z</time>
      </trkpt>
      <trkpt lat="45.91529" lon="1.87496">
        <ele>743.4</ele>
        <time>2022-07-09T16:41:50Z</time>
      </trkpt>
      <trkpt lat="45.91515" lon="1.87498">
        <ele>743</ele>
        <time>2022-07-09T16:41:53Z</time>
      </trkpt>
      <trkpt lat="45.9151" lon="1.87497">
        <ele>742.8</ele>
        <time>2022-07-09T16:41:54Z</time>
      </trkpt>
      <trkpt lat="45.91494" lon="1.87494">
        <ele>742.2</ele>
        <time>2022-07-09T16:41:57Z</time>
      </trkpt>
      <trkpt lat="45.91482" lon="1.87492">
        <ele>741.8</ele>
        <time>2022-07-09T16:41:59Z</time>
      </trkpt>
      <trkpt lat="45.91469" lon="1.87487">
        <ele>740.6</ele>
        <time>2022-07-09T16:42:02Z</time>
      </trkpt>
      <trkpt lat="45.91465" lon="1.87485">
        <ele>740.2</ele>
        <time>2022-07-09T16:42:03Z</time>
      </trkpt>
      <trkpt lat="45.91459" lon="1.87484">
        <ele>739.8</ele>
        <time>2022-07-09T16:42:04Z</time>
      </trkpt>
      <trkpt lat="45.91448" lon="1.87481">
        <ele>739.2</ele>
        <time>2022-07-09T16:42:06Z</time>
      </trkpt>
      <trkpt lat="45.91441" lon="1.87479">
        <ele>738.8</ele>
        <time>2022-07-09T16:42:07Z</time>
      </trkpt>
      <trkpt lat="45.91433" lon="1.87478">
        <ele>737.8</ele>
        <time>2022-07-09T16:42:08Z</time>
      </trkpt>
      <trkpt lat="45.91425" lon="1.87476">
        <ele>737</ele>
        <time>2022-07-09T16:42:09Z</time>
      </trkpt>
      <trkpt lat="45.91419" lon="1.87475">
        <ele>736.8</ele>
        <time>2022-07-09T16:42:10Z</time>
      </trkpt>
      <trkpt lat="45.91387" lon="1.87459">
        <ele>735.4</ele>
        <time>2022-07-09T16:42:15Z</time>
      </trkpt>
      <trkpt lat="45.91362" lon="1.87449">
        <ele>733.8</ele>
        <time>2022-07-09T16:42:19Z</time>
      </trkpt>
      <trkpt lat="45.91352" lon="1.87444">
        <ele>733</ele>
        <time>2022-07-09T16:42:21Z</time>
      </trkpt>
      <trkpt lat="45.91348" lon="1.8744">
        <ele>732.4</ele>
        <time>2022-07-09T16:42:22Z</time>
      </trkpt>
      <trkpt lat="45.91339" lon="1.87433">
        <ele>731.8</ele>
        <time>2022-07-09T16:42:24Z</time>
      </trkpt>
      <trkpt lat="45.91335" lon="1.8743">
        <ele>731.4</ele>
        <time>2022-07-09T16:42:25Z</time>
      </trkpt>
      <trkpt lat="45.9133" lon="1.87426">
        <ele>731.2</ele>
        <time>2022-07-09T16:42:26Z</time>
      </trkpt>
      <trkpt lat="45.91318" lon="1.87408">
        <ele>730.2</ele>
        <time>2022-07-09T16:42:29Z</time>
      </trkpt>
      <trkpt lat="45.91304" lon="1.87383">
        <ele>729.4</ele>
        <time>2022-07-09T16:42:33Z</time>
      </trkpt>
      <trkpt lat="45.91302" lon="1.87378">
        <ele>729.2</ele>
        <time>2022-07-09T16:42:34Z</time>
      </trkpt>
      <trkpt lat="45.91299" lon="1.87366">
        <ele>728.2</ele>
        <time>2022-07-09T16:42:37Z</time>
      </trkpt>
      <trkpt lat="45.91298" lon="1.87363">
        <ele>728</ele>
        <time>2022-07-09T16:42:38Z</time>
      </trkpt>
      <trkpt lat="45.91299" lon="1.87358">
        <ele>726.8</ele>
        <time>2022-07-09T16:42:41Z</time>
      </trkpt>
      <trkpt lat="45.91299" lon="1.87358">
        <ele>726.2</ele>
        <time>2022-07-09T16:42:43Z</time>
      </trkpt>
      <trkpt lat="45.91298" lon="1.8736">
        <ele>725.8</ele>
        <time>2022-07-09T16:42:56Z</time>
      </trkpt>
      <trkpt lat="45.91298" lon="1.87361">
        <ele>725.8</ele>
        <time>2022-07-09T16:42:57Z</time>
      </trkpt>
      <trkpt lat="45.913" lon="1.87366">
        <ele>725.8</ele>
        <time>2022-07-09T16:43:01Z</time>
      </trkpt>
      <trkpt lat="45.91301" lon="1.87369">
        <ele>725.8</ele>
        <time>2022-07-09T16:43:03Z</time>
      </trkpt>
      <trkpt lat="45.91302" lon="1.87375">
        <ele>726</ele>
        <time>2022-07-09T16:43:07Z</time>
      </trkpt>
      <trkpt lat="45.91302" lon="1.87378">
        <ele>726.2</ele>
        <time>2022-07-09T16:43:09Z</time>
      </trkpt>
      <trkpt lat="45.91302" lon="1.87379">
        <ele>726.2</ele>
        <time>2022-07-09T16:43:10Z</time>
      </trkpt>
      <trkpt lat="45.91305" lon="1.87384">
        <ele>726.4</ele>
        <time>2022-07-09T16:43:17Z</time>
      </trkpt>
      <trkpt lat="45.91307" lon="1.87387">
        <ele>726.6</ele>
        <time>2022-07-09T16:43:19Z</time>
      </trkpt>
      <trkpt lat="45.91308" lon="1.87389">
        <ele>726.8</ele>
        <time>2022-07-09T16:43:20Z</time>
      </trkpt>
      <trkpt lat="45.9131" lon="1.87391">
        <ele>727</ele>
        <time>2022-07-09T16:43:22Z</time>
      </trkpt>
      <trkpt lat="45.91311" lon="1.87395">
        <ele>727.2</ele>
        <time>2022-07-09T16:43:23Z</time>
      </trkpt>
      <trkpt lat="45.91315" lon="1.87404">
        <ele>727.6</ele>
        <time>2022-07-09T16:43:27Z</time>
      </trkpt>
      <trkpt lat="45.91317" lon="1.87407">
        <ele>728</ele>
        <time>2022-07-09T16:43:30Z</time>
      </trkpt>
      <trkpt lat="45.91325" lon="1.87424">
        <ele>728.8</ele>
        <time>2022-07-09T16:43:35Z</time>
      </trkpt>
      <trkpt lat="45.91325" lon="1.87424">
        <ele>728.8</ele>
        <time>2022-07-09T16:43:36Z</time>
      </trkpt>
      <trkpt lat="45.91326" lon="1.87425">
        <ele>729</ele>
        <time>2022-07-09T16:43:37Z</time>
      </trkpt>
      <trkpt lat="45.9133" lon="1.8743">
        <ele>729.2</ele>
        <time>2022-07-09T16:43:39Z</time>
      </trkpt>
      <trkpt lat="45.91332" lon="1.87432">
        <ele>729.4</ele>
        <time>2022-07-09T16:43:40Z</time>
      </trkpt>
      <trkpt lat="45.91344" lon="1.87444">
        <ele>730</ele>
        <time>2022-07-09T16:43:46Z</time>
      </trkpt>
      <trkpt lat="45.91344" lon="1.87444">
        <ele>730.2</ele>
        <time>2022-07-09T16:43:49Z</time>
      </trkpt>
      <trkpt lat="45.91347" lon="1.87442">
        <ele>730.6</ele>
        <time>2022-07-09T16:44:19Z</time>
      </trkpt>
      <trkpt lat="45.91347" lon="1.87441">
        <ele>730.6</ele>
        <time>2022-07-09T16:44:20Z</time>
      </trkpt>
      <trkpt lat="45.91343" lon="1.87439">
        <ele>730.6</ele>
        <time>2022-07-09T16:44:24Z</time>
      </trkpt>
      <trkpt lat="45.91341" lon="1.8744">
        <ele>730.6</ele>
        <time>2022-07-09T16:44:25Z</time>
      </trkpt>
      <trkpt lat="45.91338" lon="1.87439">
        <ele>730.4</ele>
        <time>2022-07-09T16:44:27Z</time>
      </trkpt>
      <trkpt lat="45.91335" lon="1.87436">
        <ele>730.2</ele>
        <time>2022-07-09T16:44:29Z</time>
      </trkpt>
      <trkpt lat="45.91319" lon="1.87416">
        <ele>729.6</ele>
        <time>2022-07-09T16:44:35Z</time>
      </trkpt>
      <trkpt lat="45.91311" lon="1.87405">
        <ele>729</ele>
        <time>2022-07-09T16:44:38Z</time>
      </trkpt>
      <trkpt lat="45.91301" lon="1.87382">
        <ele>728.6</ele>
        <time>2022-07-09T16:44:41Z</time>
      </trkpt>
      <trkpt lat="45.91295" lon="1.87361">
        <ele>728.2</ele>
        <time>2022-07-09T16:44:45Z</time>
      </trkpt>
      <trkpt lat="45.91294" lon="1.87341">
        <ele>727.8</ele>
        <time>2022-07-09T16:44:47Z</time>
      </trkpt>
      <trkpt lat="45.91296" lon="1.87325">
        <ele>727.4</ele>
        <time>2022-07-09T16:44:49Z</time>
      </trkpt>
      <trkpt lat="45.91294" lon="1.87318">
        <ele>727.2</ele>
        <time>2022-07-09T16:44:50Z</time>
      </trkpt>
      <trkpt lat="45.91294" lon="1.87311">
        <ele>726.8</ele>
        <time>2022-07-09T16:44:51Z</time>
      </trkpt>
      <trkpt lat="45.91292" lon="1.87283">
        <ele>725.8</ele>
        <time>2022-07-09T16:44:55Z</time>
      </trkpt>
      <trkpt lat="45.91291" lon="1.87275">
        <ele>725.4</ele>
        <time>2022-07-09T16:44:56Z</time>
      </trkpt>
      <trkpt lat="45.91289" lon="1.87244">
        <ele>724.6</ele>
        <time>2022-07-09T16:45:01Z</time>
      </trkpt>
      <trkpt lat="45.91289" lon="1.87235">
        <ele>724.4</ele>
        <time>2022-07-09T16:45:03Z</time>
      </trkpt>
      <trkpt lat="45.91289" lon="1.87229">
        <ele>724.2</ele>
        <time>2022-07-09T16:45:05Z</time>
      </trkpt>
      <trkpt lat="45.91288" lon="1.87226">
        <ele>724.2</ele>
        <time>2022-07-09T16:45:06Z</time>
      </trkpt>
      <trkpt lat="45.91287" lon="1.87225">
        <ele>724</ele>
        <time>2022-07-09T16:45:07Z</time>
      </trkpt>
      <trkpt lat="45.91284" lon="1.87214">
        <ele>724</ele>
        <time>2022-07-09T16:45:10Z</time>
      </trkpt>
      <trkpt lat="45.91277" lon="1.87199">
        <ele>724</ele>
        <time>2022-07-09T16:45:14Z</time>
      </trkpt>
      <trkpt lat="45.91275" lon="1.87197">
        <ele>723.8</ele>
        <time>2022-07-09T16:45:15Z</time>
      </trkpt>
      <trkpt lat="45.9126" lon="1.87188">
        <ele>723.6</ele>
        <time>2022-07-09T16:45:20Z</time>
      </trkpt>
      <trkpt lat="45.91236" lon="1.87179">
        <ele>723.4</ele>
        <time>2022-07-09T16:45:27Z</time>
      </trkpt>
      <trkpt lat="45.91208" lon="1.8717">
        <ele>723.8</ele>
        <time>2022-07-09T16:45:33Z</time>
      </trkpt>
      <trkpt lat="45.91199" lon="1.87167">
        <ele>723.6</ele>
        <time>2022-07-09T16:45:35Z</time>
      </trkpt>
      <trkpt lat="45.91181" lon="1.87158">
        <ele>723.4</ele>
        <time>2022-07-09T16:45:40Z</time>
      </trkpt>
      <trkpt lat="45.91174" lon="1.87154">
        <ele>723.2</ele>
        <time>2022-07-09T16:45:42Z</time>
      </trkpt>
      <trkpt lat="45.91152" lon="1.8715">
        <ele>723</ele>
        <time>2022-07-09T16:45:47Z</time>
      </trkpt>
      <trkpt lat="45.91141" lon="1.87145">
        <ele>722.8</ele>
        <time>2022-07-09T16:45:49Z</time>
      </trkpt>
      <trkpt lat="45.91137" lon="1.8714">
        <ele>722.6</ele>
        <time>2022-07-09T16:45:50Z</time>
      </trkpt>
      <trkpt lat="45.91133" lon="1.87135">
        <ele>722.2</ele>
        <time>2022-07-09T16:45:51Z</time>
      </trkpt>
      <trkpt lat="45.9112" lon="1.87118">
        <ele>721</ele>
        <time>2022-07-09T16:45:55Z</time>
      </trkpt>
      <trkpt lat="45.91109" lon="1.87107">
        <ele>720</ele>
        <time>2022-07-09T16:45:59Z</time>
      </trkpt>
      <trkpt lat="45.91106" lon="1.87105">
        <ele>719.6</ele>
        <time>2022-07-09T16:46:00Z</time>
      </trkpt>
      <trkpt lat="45.91095" lon="1.87103">
        <ele>718.8</ele>
        <time>2022-07-09T16:46:04Z</time>
      </trkpt>
      <trkpt lat="45.91093" lon="1.87103">
        <ele>718.4</ele>
        <time>2022-07-09T16:46:05Z</time>
      </trkpt>
      <trkpt lat="45.91087" lon="1.8711">
        <ele>717.8</ele>
        <time>2022-07-09T16:46:08Z</time>
      </trkpt>
      <trkpt lat="45.91084" lon="1.87113">
        <ele>717.6</ele>
        <time>2022-07-09T16:46:09Z</time>
      </trkpt>
      <trkpt lat="45.91073" lon="1.87125">
        <ele>717.4</ele>
        <time>2022-07-09T16:46:12Z</time>
      </trkpt>
      <trkpt lat="45.91053" lon="1.87143">
        <ele>716.8</ele>
        <time>2022-07-09T16:46:16Z</time>
      </trkpt>
      <trkpt lat="45.91047" lon="1.87148">
        <ele>716.6</ele>
        <time>2022-07-09T16:46:17Z</time>
      </trkpt>
      <trkpt lat="45.91033" lon="1.87155">
        <ele>716</ele>
        <time>2022-07-09T16:46:19Z</time>
      </trkpt>
      <trkpt lat="45.91026" lon="1.87159">
        <ele>715.6</ele>
        <time>2022-07-09T16:46:20Z</time>
      </trkpt>
      <trkpt lat="45.91018" lon="1.87163">
        <ele>715.2</ele>
        <time>2022-07-09T16:46:21Z</time>
      </trkpt>
      <trkpt lat="45.91002" lon="1.87173">
        <ele>714.6</ele>
        <time>2022-07-09T16:46:23Z</time>
      </trkpt>
      <trkpt lat="45.90988" lon="1.87187">
        <ele>713.8</ele>
        <time>2022-07-09T16:46:25Z</time>
      </trkpt>
      <trkpt lat="45.90981" lon="1.87195">
        <ele>713.4</ele>
        <time>2022-07-09T16:46:26Z</time>
      </trkpt>
      <trkpt lat="45.90968" lon="1.87212">
        <ele>712</ele>
        <time>2022-07-09T16:46:28Z</time>
      </trkpt>
      <trkpt lat="45.90957" lon="1.87229">
        <ele>711</ele>
        <time>2022-07-09T16:46:30Z</time>
      </trkpt>
      <trkpt lat="45.90952" lon="1.87237">
        <ele>711</ele>
        <time>2022-07-09T16:46:31Z</time>
      </trkpt>
      <trkpt lat="45.90933" lon="1.87264">
        <ele>710.6</ele>
        <time>2022-07-09T16:46:35Z</time>
      </trkpt>
      <trkpt lat="45.90915" lon="1.8729">
        <ele>711</ele>
        <time>2022-07-09T16:46:40Z</time>
      </trkpt>
      <trkpt lat="45.90911" lon="1.87294">
        <ele>711.4</ele>
        <time>2022-07-09T16:46:41Z</time>
      </trkpt>
      <trkpt lat="45.90908" lon="1.87297">
        <ele>711.6</ele>
        <time>2022-07-09T16:46:42Z</time>
      </trkpt>
      <trkpt lat="45.90899" lon="1.87302">
        <ele>711.8</ele>
        <time>2022-07-09T16:46:44Z</time>
      </trkpt>
      <trkpt lat="45.90889" lon="1.87306">
        <ele>711.8</ele>
        <time>2022-07-09T16:46:46Z</time>
      </trkpt>
      <trkpt lat="45.90867" lon="1.8731">
        <ele>711.8</ele>
        <time>2022-07-09T16:46:50Z</time>
      </trkpt>
      <trkpt lat="45.90855" lon="1.87311">
        <ele>711.6</ele>
        <time>2022-07-09T16:46:52Z</time>
      </trkpt>
      <trkpt lat="45.90831" lon="1.87316">
        <ele>711.2</ele>
        <time>2022-07-09T16:46:56Z</time>
      </trkpt>
      <trkpt lat="45.90814" lon="1.87323">
        <ele>711</ele>
        <time>2022-07-09T16:46:59Z</time>
      </trkpt>
      <trkpt lat="45.9078" lon="1.87342">
        <ele>710.2</ele>
        <time>2022-07-09T16:47:05Z</time>
      </trkpt>
      <trkpt lat="45.90748" lon="1.87363">
        <ele>710</ele>
        <time>2022-07-09T16:47:11Z</time>
      </trkpt>
      <trkpt lat="45.90729" lon="1.87378">
        <ele>709.6</ele>
        <time>2022-07-09T16:47:15Z</time>
      </trkpt>
      <trkpt lat="45.90716" lon="1.87392">
        <ele>709.4</ele>
        <time>2022-07-09T16:47:18Z</time>
      </trkpt>
      <trkpt lat="45.9069" lon="1.8743">
        <ele>709</ele>
        <time>2022-07-09T16:47:25Z</time>
      </trkpt>
      <trkpt lat="45.90658" lon="1.87466">
        <ele>709</ele>
        <time>2022-07-09T16:47:32Z</time>
      </trkpt>
      <trkpt lat="45.90648" lon="1.87472">
        <ele>708.8</ele>
        <time>2022-07-09T16:47:34Z</time>
      </trkpt>
      <trkpt lat="45.90636" lon="1.87476">
        <ele>708.4</ele>
        <time>2022-07-09T16:47:36Z</time>
      </trkpt>
      <trkpt lat="45.9062" lon="1.87478">
        <ele>707.8</ele>
        <time>2022-07-09T16:47:39Z</time>
      </trkpt>
      <trkpt lat="45.90615" lon="1.87478">
        <ele>707.6</ele>
        <time>2022-07-09T16:47:40Z</time>
      </trkpt>
      <trkpt lat="45.90611" lon="1.87477">
        <ele>707.4</ele>
        <time>2022-07-09T16:47:41Z</time>
      </trkpt>
      <trkpt lat="45.90587" lon="1.87473">
        <ele>707</ele>
        <time>2022-07-09T16:47:46Z</time>
      </trkpt>
      <trkpt lat="45.90539" lon="1.87455">
        <ele>707</ele>
        <time>2022-07-09T16:47:56Z</time>
      </trkpt>
      <trkpt lat="45.90509" lon="1.87435">
        <ele>706.6</ele>
        <time>2022-07-09T16:48:02Z</time>
      </trkpt>
      <trkpt lat="45.90504" lon="1.87432">
        <ele>706.6</ele>
        <time>2022-07-09T16:48:03Z</time>
      </trkpt>
      <trkpt lat="45.90474" lon="1.87402">
        <ele>706</ele>
        <time>2022-07-09T16:48:10Z</time>
      </trkpt>
      <trkpt lat="45.90444" lon="1.87369">
        <ele>706.4</ele>
        <time>2022-07-09T16:48:18Z</time>
      </trkpt>
      <trkpt lat="45.90436" lon="1.87361">
        <ele>706.8</ele>
        <time>2022-07-09T16:48:20Z</time>
      </trkpt>
      <trkpt lat="45.90413" lon="1.87342">
        <ele>707.4</ele>
        <time>2022-07-09T16:48:26Z</time>
      </trkpt>
      <trkpt lat="45.90402" lon="1.87334">
        <ele>707.8</ele>
        <time>2022-07-09T16:48:29Z</time>
      </trkpt>
      <trkpt lat="45.90398" lon="1.87332">
        <ele>708.2</ele>
        <time>2022-07-09T16:48:30Z</time>
      </trkpt>
      <trkpt lat="45.90387" lon="1.87326">
        <ele>709</ele>
        <time>2022-07-09T16:48:33Z</time>
      </trkpt>
      <trkpt lat="45.90355" lon="1.87316">
        <ele>710</ele>
        <time>2022-07-09T16:48:41Z</time>
      </trkpt>
      <trkpt lat="45.90347" lon="1.87314">
        <ele>710.2</ele>
        <time>2022-07-09T16:48:43Z</time>
      </trkpt>
      <trkpt lat="45.90306" lon="1.87311">
        <ele>710.4</ele>
        <time>2022-07-09T16:48:52Z</time>
      </trkpt>
      <trkpt lat="45.90273" lon="1.87307">
        <ele>710.2</ele>
        <time>2022-07-09T16:48:58Z</time>
      </trkpt>
      <trkpt lat="45.90242" lon="1.87301">
        <ele>709.4</ele>
        <time>2022-07-09T16:49:03Z</time>
      </trkpt>
      <trkpt lat="45.90227" lon="1.87296">
        <ele>708.8</ele>
        <time>2022-07-09T16:49:05Z</time>
      </trkpt>
      <trkpt lat="45.90195" lon="1.87285">
        <ele>707.8</ele>
        <time>2022-07-09T16:49:09Z</time>
      </trkpt>
      <trkpt lat="45.90168" lon="1.87276">
        <ele>706.8</ele>
        <time>2022-07-09T16:49:12Z</time>
      </trkpt>
      <trkpt lat="45.90159" lon="1.87272">
        <ele>706.4</ele>
        <time>2022-07-09T16:49:13Z</time>
      </trkpt>
      <trkpt lat="45.90149" lon="1.87269">
        <ele>705.6</ele>
        <time>2022-07-09T16:49:14Z</time>
      </trkpt>
      <trkpt lat="45.90129" lon="1.87262">
        <ele>704.4</ele>
        <time>2022-07-09T16:49:16Z</time>
      </trkpt>
      <trkpt lat="45.90108" lon="1.87257">
        <ele>703.2</ele>
        <time>2022-07-09T16:49:18Z</time>
      </trkpt>
      <trkpt lat="45.90088" lon="1.87252">
        <ele>702.2</ele>
        <time>2022-07-09T16:49:20Z</time>
      </trkpt>
      <trkpt lat="45.90067" lon="1.87252">
        <ele>701</ele>
        <time>2022-07-09T16:49:22Z</time>
      </trkpt>
      <trkpt lat="45.90056" lon="1.87254">
        <ele>700.2</ele>
        <time>2022-07-09T16:49:23Z</time>
      </trkpt>
      <trkpt lat="45.90046" lon="1.87256">
        <ele>699.8</ele>
        <time>2022-07-09T16:49:24Z</time>
      </trkpt>
      <trkpt lat="45.90026" lon="1.87259">
        <ele>698</ele>
        <time>2022-07-09T16:49:26Z</time>
      </trkpt>
      <trkpt lat="45.90014" lon="1.87259">
        <ele>696.8</ele>
        <time>2022-07-09T16:49:27Z</time>
      </trkpt>
      <trkpt lat="45.90003" lon="1.87256">
        <ele>696.2</ele>
        <time>2022-07-09T16:49:28Z</time>
      </trkpt>
      <trkpt lat="45.89993" lon="1.87253">
        <ele>695.8</ele>
        <time>2022-07-09T16:49:29Z</time>
      </trkpt>
      <trkpt lat="45.89971" lon="1.87247">
        <ele>694.4</ele>
        <time>2022-07-09T16:49:31Z</time>
      </trkpt>
      <trkpt lat="45.89961" lon="1.87244">
        <ele>693.2</ele>
        <time>2022-07-09T16:49:32Z</time>
      </trkpt>
      <trkpt lat="45.8994" lon="1.87238">
        <ele>691.8</ele>
        <time>2022-07-09T16:49:34Z</time>
      </trkpt>
      <trkpt lat="45.8993" lon="1.87234">
        <ele>691.2</ele>
        <time>2022-07-09T16:49:35Z</time>
      </trkpt>
      <trkpt lat="45.8992" lon="1.87231">
        <ele>691</ele>
        <time>2022-07-09T16:49:36Z</time>
      </trkpt>
      <trkpt lat="45.8991" lon="1.87228">
        <ele>690.2</ele>
        <time>2022-07-09T16:49:37Z</time>
      </trkpt>
      <trkpt lat="45.89882" lon="1.87218">
        <ele>689.2</ele>
        <time>2022-07-09T16:49:40Z</time>
      </trkpt>
      <trkpt lat="45.89873" lon="1.87215">
        <ele>688.4</ele>
        <time>2022-07-09T16:49:41Z</time>
      </trkpt>
      <trkpt lat="45.89863" lon="1.87212">
        <ele>688</ele>
        <time>2022-07-09T16:49:42Z</time>
      </trkpt>
      <trkpt lat="45.89845" lon="1.87205">
        <ele>686.6</ele>
        <time>2022-07-09T16:49:44Z</time>
      </trkpt>
      <trkpt lat="45.8982" lon="1.87193">
        <ele>685.6</ele>
        <time>2022-07-09T16:49:47Z</time>
      </trkpt>
      <trkpt lat="45.89813" lon="1.87189">
        <ele>685.2</ele>
        <time>2022-07-09T16:49:48Z</time>
      </trkpt>
      <trkpt lat="45.89785" lon="1.87176">
        <ele>684.6</ele>
        <time>2022-07-09T16:49:52Z</time>
      </trkpt>
      <trkpt lat="45.89759" lon="1.87159">
        <ele>684.2</ele>
        <time>2022-07-09T16:49:56Z</time>
      </trkpt>
      <trkpt lat="45.89752" lon="1.87156">
        <ele>684.2</ele>
        <time>2022-07-09T16:49:57Z</time>
      </trkpt>
      <trkpt lat="45.89733" lon="1.87149">
        <ele>683.4</ele>
        <time>2022-07-09T16:50:00Z</time>
      </trkpt>
      <trkpt lat="45.89727" lon="1.87145">
        <ele>683.2</ele>
        <time>2022-07-09T16:50:01Z</time>
      </trkpt>
      <trkpt lat="45.89723" lon="1.87139">
        <ele>682.8</ele>
        <time>2022-07-09T16:50:02Z</time>
      </trkpt>
      <trkpt lat="45.8972" lon="1.87131">
        <ele>682.6</ele>
        <time>2022-07-09T16:50:03Z</time>
      </trkpt>
      <trkpt lat="45.89719" lon="1.87121">
        <ele>681.8</ele>
        <time>2022-07-09T16:50:04Z</time>
      </trkpt>
      <trkpt lat="45.89719" lon="1.8711">
        <ele>681.8</ele>
        <time>2022-07-09T16:50:05Z</time>
      </trkpt>
      <trkpt lat="45.89719" lon="1.8709">
        <ele>680</ele>
        <time>2022-07-09T16:50:07Z</time>
      </trkpt>
      <trkpt lat="45.89721" lon="1.87047">
        <ele>679</ele>
        <time>2022-07-09T16:50:11Z</time>
      </trkpt>
      <trkpt lat="45.89722" lon="1.87015">
        <ele>678.4</ele>
        <time>2022-07-09T16:50:14Z</time>
      </trkpt>
      <trkpt lat="45.89724" lon="1.86974">
        <ele>678</ele>
        <time>2022-07-09T16:50:18Z</time>
      </trkpt>
      <trkpt lat="45.89724" lon="1.86944">
        <ele>677.8</ele>
        <time>2022-07-09T16:50:21Z</time>
      </trkpt>
      <trkpt lat="45.89723" lon="1.86917">
        <ele>677.8</ele>
        <time>2022-07-09T16:50:24Z</time>
      </trkpt>
      <trkpt lat="45.89719" lon="1.86892">
        <ele>677.8</ele>
        <time>2022-07-09T16:50:27Z</time>
      </trkpt>
      <trkpt lat="45.89712" lon="1.86856">
        <ele>678.8</ele>
        <time>2022-07-09T16:50:32Z</time>
      </trkpt>
      <trkpt lat="45.89708" lon="1.86836">
        <ele>679</ele>
        <time>2022-07-09T16:50:35Z</time>
      </trkpt>
      <trkpt lat="45.89707" lon="1.8683">
        <ele>679.2</ele>
        <time>2022-07-09T16:50:36Z</time>
      </trkpt>
      <trkpt lat="45.89705" lon="1.86818">
        <ele>679.2</ele>
        <time>2022-07-09T16:50:38Z</time>
      </trkpt>
      <trkpt lat="45.897" lon="1.86787">
        <ele>680.2</ele>
        <time>2022-07-09T16:50:44Z</time>
      </trkpt>
      <trkpt lat="45.89693" lon="1.86759">
        <ele>681.2</ele>
        <time>2022-07-09T16:50:50Z</time>
      </trkpt>
      <trkpt lat="45.89692" lon="1.8675">
        <ele>681.6</ele>
        <time>2022-07-09T16:50:52Z</time>
      </trkpt>
      <trkpt lat="45.8969" lon="1.86737">
        <ele>682.4</ele>
        <time>2022-07-09T16:50:55Z</time>
      </trkpt>
      <trkpt lat="45.89686" lon="1.86724">
        <ele>683</ele>
        <time>2022-07-09T16:50:58Z</time>
      </trkpt>
      <trkpt lat="45.89685" lon="1.86688">
        <ele>682.8</ele>
        <time>2022-07-09T16:51:07Z</time>
      </trkpt>
      <trkpt lat="45.89685" lon="1.86686">
        <ele>682.8</ele>
        <time>2022-07-09T16:51:08Z</time>
      </trkpt>
      <trkpt lat="45.89685" lon="1.86684">
        <ele>682.6</ele>
        <time>2022-07-09T16:51:10Z</time>
      </trkpt>
      <trkpt lat="45.89685" lon="1.86682">
        <ele>682.4</ele>
        <time>2022-07-09T16:51:11Z</time>
      </trkpt>
      <trkpt lat="45.89683" lon="1.86669">
        <ele>682</ele>
        <time>2022-07-09T16:51:15Z</time>
      </trkpt>
      <trkpt lat="45.89683" lon="1.86644">
        <ele>681.6</ele>
        <time>2022-07-09T16:51:20Z</time>
      </trkpt>
      <trkpt lat="45.89683" lon="1.86641">
        <ele>681.6</ele>
        <time>2022-07-09T16:51:21Z</time>
      </trkpt>
      <trkpt lat="45.8968" lon="1.86614">
        <ele>681.2</ele>
        <time>2022-07-09T16:51:28Z</time>
      </trkpt>
      <trkpt lat="45.89667" lon="1.86582">
        <ele>681</ele>
        <time>2022-07-09T16:51:34Z</time>
      </trkpt>
      <trkpt lat="45.89656" lon="1.86558">
        <ele>680.2</ele>
        <time>2022-07-09T16:51:37Z</time>
      </trkpt>
      <trkpt lat="45.89646" lon="1.86532">
        <ele>679.2</ele>
        <time>2022-07-09T16:51:40Z</time>
      </trkpt>
      <trkpt lat="45.89642" lon="1.86524">
        <ele>678.6</ele>
        <time>2022-07-09T16:51:41Z</time>
      </trkpt>
      <trkpt lat="45.89639" lon="1.86516">
        <ele>678.2</ele>
        <time>2022-07-09T16:51:42Z</time>
      </trkpt>
      <trkpt lat="45.89631" lon="1.86502">
        <ele>677</ele>
        <time>2022-07-09T16:51:44Z</time>
      </trkpt>
      <trkpt lat="45.89623" lon="1.86488">
        <ele>675.2</ele>
        <time>2022-07-09T16:51:46Z</time>
      </trkpt>
      <trkpt lat="45.89618" lon="1.86482">
        <ele>674.8</ele>
        <time>2022-07-09T16:51:47Z</time>
      </trkpt>
      <trkpt lat="45.89612" lon="1.86476">
        <ele>674.2</ele>
        <time>2022-07-09T16:51:48Z</time>
      </trkpt>
      <trkpt lat="45.896" lon="1.86464">
        <ele>673.2</ele>
        <time>2022-07-09T16:51:50Z</time>
      </trkpt>
      <trkpt lat="45.89581" lon="1.86444">
        <ele>671.8</ele>
        <time>2022-07-09T16:51:53Z</time>
      </trkpt>
      <trkpt lat="45.89553" lon="1.86416">
        <ele>670.4</ele>
        <time>2022-07-09T16:51:57Z</time>
      </trkpt>
      <trkpt lat="45.89546" lon="1.86408">
        <ele>670.2</ele>
        <time>2022-07-09T16:51:58Z</time>
      </trkpt>
      <trkpt lat="45.8954" lon="1.864">
        <ele>669.2</ele>
        <time>2022-07-09T16:51:59Z</time>
      </trkpt>
      <trkpt lat="45.89534" lon="1.86392">
        <ele>668.6</ele>
        <time>2022-07-09T16:52:00Z</time>
      </trkpt>
      <trkpt lat="45.89524" lon="1.86372">
        <ele>667.6</ele>
        <time>2022-07-09T16:52:02Z</time>
      </trkpt>
      <trkpt lat="45.8952" lon="1.86335">
        <ele>666.6</ele>
        <time>2022-07-09T16:52:05Z</time>
      </trkpt>
      <trkpt lat="45.89521" lon="1.86285">
        <ele>665.6</ele>
        <time>2022-07-09T16:52:09Z</time>
      </trkpt>
      <trkpt lat="45.89522" lon="1.86273">
        <ele>665.4</ele>
        <time>2022-07-09T16:52:10Z</time>
      </trkpt>
      <trkpt lat="45.89537" lon="1.86229">
        <ele>664.4</ele>
        <time>2022-07-09T16:52:14Z</time>
      </trkpt>
      <trkpt lat="45.89543" lon="1.86205">
        <ele>663.6</ele>
        <time>2022-07-09T16:52:16Z</time>
      </trkpt>
      <trkpt lat="45.89543" lon="1.86179">
        <ele>663</ele>
        <time>2022-07-09T16:52:18Z</time>
      </trkpt>
      <trkpt lat="45.89537" lon="1.86153">
        <ele>662.4</ele>
        <time>2022-07-09T16:52:20Z</time>
      </trkpt>
      <trkpt lat="45.89532" lon="1.86141">
        <ele>662</ele>
        <time>2022-07-09T16:52:21Z</time>
      </trkpt>
      <trkpt lat="45.89527" lon="1.86129">
        <ele>661.2</ele>
        <time>2022-07-09T16:52:22Z</time>
      </trkpt>
      <trkpt lat="45.89509" lon="1.86093">
        <ele>659.8</ele>
        <time>2022-07-09T16:52:25Z</time>
      </trkpt>
      <trkpt lat="45.89497" lon="1.86069">
        <ele>658.8</ele>
        <time>2022-07-09T16:52:27Z</time>
      </trkpt>
      <trkpt lat="45.89477" lon="1.86034">
        <ele>657.2</ele>
        <time>2022-07-09T16:52:30Z</time>
      </trkpt>
      <trkpt lat="45.89464" lon="1.86012">
        <ele>656.4</ele>
        <time>2022-07-09T16:52:32Z</time>
      </trkpt>
      <trkpt lat="45.89458" lon="1.86002">
        <ele>656</ele>
        <time>2022-07-09T16:52:33Z</time>
      </trkpt>
      <trkpt lat="45.89452" lon="1.85993">
        <ele>655.4</ele>
        <time>2022-07-09T16:52:34Z</time>
      </trkpt>
      <trkpt lat="45.89446" lon="1.85986">
        <ele>654.8</ele>
        <time>2022-07-09T16:52:35Z</time>
      </trkpt>
      <trkpt lat="45.8944" lon="1.8598">
        <ele>653.6</ele>
        <time>2022-07-09T16:52:36Z</time>
      </trkpt>
      <trkpt lat="45.89431" lon="1.8597">
        <ele>652.6</ele>
        <time>2022-07-09T16:52:38Z</time>
      </trkpt>
      <trkpt lat="45.89427" lon="1.85966">
        <ele>651.6</ele>
        <time>2022-07-09T16:52:39Z</time>
      </trkpt>
      <trkpt lat="45.89423" lon="1.85963">
        <ele>651.4</ele>
        <time>2022-07-09T16:52:40Z</time>
      </trkpt>
      <trkpt lat="45.89418" lon="1.85959">
        <ele>650</ele>
        <time>2022-07-09T16:52:42Z</time>
      </trkpt>
      <trkpt lat="45.89416" lon="1.85957">
        <ele>648.8</ele>
        <time>2022-07-09T16:52:43Z</time>
      </trkpt>
      <trkpt lat="45.89413" lon="1.85956">
        <ele>647.8</ele>
        <time>2022-07-09T16:52:45Z</time>
      </trkpt>
      <trkpt lat="45.89413" lon="1.85956">
        <ele>647.2</ele>
        <time>2022-07-09T16:52:46Z</time>
      </trkpt>
      <trkpt lat="45.8941" lon="1.85954">
        <ele>646.6</ele>
        <time>2022-07-09T16:55:02Z</time>
      </trkpt>
      <trkpt lat="45.89408" lon="1.85956">
        <ele>646.6</ele>
        <time>2022-07-09T16:55:03Z</time>
      </trkpt>
      <trkpt lat="45.89402" lon="1.85955">
        <ele>646.6</ele>
        <time>2022-07-09T16:55:05Z</time>
      </trkpt>
      <trkpt lat="45.89383" lon="1.85952">
        <ele>646.6</ele>
        <time>2022-07-09T16:55:11Z</time>
      </trkpt>
      <trkpt lat="45.89367" lon="1.85955">
        <ele>646.8</ele>
        <time>2022-07-09T16:55:17Z</time>
      </trkpt>
      <trkpt lat="45.89348" lon="1.85959">
        <ele>647.8</ele>
        <time>2022-07-09T16:55:25Z</time>
      </trkpt>
      <trkpt lat="45.89345" lon="1.8596">
        <ele>648</ele>
        <time>2022-07-09T16:55:26Z</time>
      </trkpt>
      <trkpt lat="45.89327" lon="1.85968">
        <ele>648.8</ele>
        <time>2022-07-09T16:55:34Z</time>
      </trkpt>
      <trkpt lat="45.89323" lon="1.8597">
        <ele>649</ele>
        <time>2022-07-09T16:55:36Z</time>
      </trkpt>
      <trkpt lat="45.89312" lon="1.85975">
        <ele>649.4</ele>
        <time>2022-07-09T16:55:41Z</time>
      </trkpt>
      <trkpt lat="45.89299" lon="1.8598">
        <ele>650</ele>
        <time>2022-07-09T16:55:47Z</time>
      </trkpt>
      <trkpt lat="45.89295" lon="1.85982">
        <ele>650.4</ele>
        <time>2022-07-09T16:55:49Z</time>
      </trkpt>
      <trkpt lat="45.89286" lon="1.85986">
        <ele>650.6</ele>
        <time>2022-07-09T16:55:53Z</time>
      </trkpt>
      <trkpt lat="45.89278" lon="1.85993">
        <ele>651.2</ele>
        <time>2022-07-09T16:55:57Z</time>
      </trkpt>
      <trkpt lat="45.89274" lon="1.85995">
        <ele>651.4</ele>
        <time>2022-07-09T16:55:59Z</time>
      </trkpt>
      <trkpt lat="45.89258" lon="1.86002">
        <ele>652.2</ele>
        <time>2022-07-09T16:56:06Z</time>
      </trkpt>
      <trkpt lat="45.89242" lon="1.86006">
        <ele>653.4</ele>
        <time>2022-07-09T16:56:13Z</time>
      </trkpt>
      <trkpt lat="45.8924" lon="1.86006">
        <ele>653.6</ele>
        <time>2022-07-09T16:56:14Z</time>
      </trkpt>
      <trkpt lat="45.89223" lon="1.86008">
        <ele>654.6</ele>
        <time>2022-07-09T16:56:21Z</time>
      </trkpt>
      <trkpt lat="45.89218" lon="1.86008">
        <ele>655</ele>
        <time>2022-07-09T16:56:23Z</time>
      </trkpt>
      <trkpt lat="45.89202" lon="1.86012">
        <ele>655.6</ele>
        <time>2022-07-09T16:56:30Z</time>
      </trkpt>
      <trkpt lat="45.89199" lon="1.86014">
        <ele>655.8</ele>
        <time>2022-07-09T16:56:31Z</time>
      </trkpt>
      <trkpt lat="45.89188" lon="1.86018">
        <ele>656.4</ele>
        <time>2022-07-09T16:56:36Z</time>
      </trkpt>
      <trkpt lat="45.89177" lon="1.86024">
        <ele>656.8</ele>
        <time>2022-07-09T16:56:41Z</time>
      </trkpt>
      <trkpt lat="45.89173" lon="1.86026">
        <ele>657.2</ele>
        <time>2022-07-09T16:56:43Z</time>
      </trkpt>
      <trkpt lat="45.89165" lon="1.8603">
        <ele>658</ele>
        <time>2022-07-09T16:56:48Z</time>
      </trkpt>
      <trkpt lat="45.89163" lon="1.86031">
        <ele>658</ele>
        <time>2022-07-09T16:56:49Z</time>
      </trkpt>
      <trkpt lat="45.8916" lon="1.86033">
        <ele>658.4</ele>
        <time>2022-07-09T16:56:52Z</time>
      </trkpt>
      <trkpt lat="45.89154" lon="1.86033">
        <ele>658.6</ele>
        <time>2022-07-09T16:56:55Z</time>
      </trkpt>
      <trkpt lat="45.89144" lon="1.86036">
        <ele>659.2</ele>
        <time>2022-07-09T16:56:59Z</time>
      </trkpt>
      <trkpt lat="45.89138" lon="1.86037">
        <ele>659.6</ele>
        <time>2022-07-09T16:57:01Z</time>
      </trkpt>
      <trkpt lat="45.89135" lon="1.86039">
        <ele>659.8</ele>
        <time>2022-07-09T16:57:02Z</time>
      </trkpt>
      <trkpt lat="45.89128" lon="1.86039">
        <ele>660.2</ele>
        <time>2022-07-09T16:57:05Z</time>
      </trkpt>
      <trkpt lat="45.89121" lon="1.8604">
        <ele>660.4</ele>
        <time>2022-07-09T16:57:07Z</time>
      </trkpt>
      <trkpt lat="45.89101" lon="1.86047">
        <ele>661.2</ele>
        <time>2022-07-09T16:57:14Z</time>
      </trkpt>
      <trkpt lat="45.89099" lon="1.86047">
        <ele>661.4</ele>
        <time>2022-07-09T16:57:15Z</time>
      </trkpt>
      <trkpt lat="45.89091" lon="1.86052">
        <ele>661.8</ele>
        <time>2022-07-09T16:57:18Z</time>
      </trkpt>
      <trkpt lat="45.89082" lon="1.86053">
        <ele>662.2</ele>
        <time>2022-07-09T16:57:22Z</time>
      </trkpt>
      <trkpt lat="45.89059" lon="1.86055">
        <ele>663.2</ele>
        <time>2022-07-09T16:57:31Z</time>
      </trkpt>
      <trkpt lat="45.89038" lon="1.8606">
        <ele>664.2</ele>
        <time>2022-07-09T16:57:40Z</time>
      </trkpt>
      <trkpt lat="45.89032" lon="1.86062">
        <ele>664.6</ele>
        <time>2022-07-09T16:57:43Z</time>
      </trkpt>
      <trkpt lat="45.8903" lon="1.86062">
        <ele>664.8</ele>
        <time>2022-07-09T16:57:45Z</time>
      </trkpt>
      <trkpt lat="45.89022" lon="1.86068">
        <ele>665.6</ele>
        <time>2022-07-09T16:57:50Z</time>
      </trkpt>
      <trkpt lat="45.89018" lon="1.86071">
        <ele>665.8</ele>
        <time>2022-07-09T16:57:52Z</time>
      </trkpt>
      <trkpt lat="45.89005" lon="1.8608">
        <ele>666.6</ele>
        <time>2022-07-09T16:57:58Z</time>
      </trkpt>
      <trkpt lat="45.89003" lon="1.86081">
        <ele>666.8</ele>
        <time>2022-07-09T16:57:59Z</time>
      </trkpt>
      <trkpt lat="45.8898" lon="1.86097">
        <ele>667.8</ele>
        <time>2022-07-09T16:58:09Z</time>
      </trkpt>
      <trkpt lat="45.88965" lon="1.86107">
        <ele>668.8</ele>
        <time>2022-07-09T16:58:15Z</time>
      </trkpt>
      <trkpt lat="45.88964" lon="1.86109">
        <ele>669</ele>
        <time>2022-07-09T16:58:16Z</time>
      </trkpt>
      <trkpt lat="45.88947" lon="1.86124">
        <ele>669.8</ele>
        <time>2022-07-09T16:58:23Z</time>
      </trkpt>
      <trkpt lat="45.88944" lon="1.86126">
        <ele>670</ele>
        <time>2022-07-09T16:58:24Z</time>
      </trkpt>
      <trkpt lat="45.88929" lon="1.86136">
        <ele>671</ele>
        <time>2022-07-09T16:58:31Z</time>
      </trkpt>
      <trkpt lat="45.88927" lon="1.86137">
        <ele>671</ele>
        <time>2022-07-09T16:58:32Z</time>
      </trkpt>
      <trkpt lat="45.88912" lon="1.86151">
        <ele>671.8</ele>
        <time>2022-07-09T16:58:39Z</time>
      </trkpt>
      <trkpt lat="45.88907" lon="1.86154">
        <ele>672.2</ele>
        <time>2022-07-09T16:58:41Z</time>
      </trkpt>
      <trkpt lat="45.88895" lon="1.86161">
        <ele>672.6</ele>
        <time>2022-07-09T16:58:46Z</time>
      </trkpt>
      <trkpt lat="45.88892" lon="1.86163">
        <ele>672.6</ele>
        <time>2022-07-09T16:58:47Z</time>
      </trkpt>
      <trkpt lat="45.88881" lon="1.8617">
        <ele>673.2</ele>
        <time>2022-07-09T16:58:52Z</time>
      </trkpt>
      <trkpt lat="45.88876" lon="1.86174">
        <ele>673.4</ele>
        <time>2022-07-09T16:58:54Z</time>
      </trkpt>
      <trkpt lat="45.88859" lon="1.8619">
        <ele>674.4</ele>
        <time>2022-07-09T16:59:02Z</time>
      </trkpt>
      <trkpt lat="45.88857" lon="1.86192">
        <ele>674.6</ele>
        <time>2022-07-09T16:59:03Z</time>
      </trkpt>
      <trkpt lat="45.88845" lon="1.86208">
        <ele>675</ele>
        <time>2022-07-09T16:59:09Z</time>
      </trkpt>
      <trkpt lat="45.8884" lon="1.86216">
        <ele>675.4</ele>
        <time>2022-07-09T16:59:12Z</time>
      </trkpt>
      <trkpt lat="45.88835" lon="1.8622">
        <ele>675.8</ele>
        <time>2022-07-09T16:59:15Z</time>
      </trkpt>
      <trkpt lat="45.88828" lon="1.86224">
        <ele>676</ele>
        <time>2022-07-09T16:59:18Z</time>
      </trkpt>
      <trkpt lat="45.8882" lon="1.86226">
        <ele>676</ele>
        <time>2022-07-09T16:59:21Z</time>
      </trkpt>
      <trkpt lat="45.88796" lon="1.86226">
        <ele>676.2</ele>
        <time>2022-07-09T16:59:26Z</time>
      </trkpt>
      <trkpt lat="45.88788" lon="1.86223">
        <ele>676.2</ele>
        <time>2022-07-09T16:59:28Z</time>
      </trkpt>
      <trkpt lat="45.88782" lon="1.86217">
        <ele>676.2</ele>
        <time>2022-07-09T16:59:30Z</time>
      </trkpt>
      <trkpt lat="45.88767" lon="1.86191">
        <ele>676.4</ele>
        <time>2022-07-09T16:59:35Z</time>
      </trkpt>
      <trkpt lat="45.88765" lon="1.86188">
        <ele>676.4</ele>
        <time>2022-07-09T16:59:36Z</time>
      </trkpt>
      <trkpt lat="45.88762" lon="1.86185">
        <ele>676.6</ele>
        <time>2022-07-09T16:59:37Z</time>
      </trkpt>
      <trkpt lat="45.88751" lon="1.86177">
        <ele>676.8</ele>
        <time>2022-07-09T16:59:40Z</time>
      </trkpt>
      <trkpt lat="45.88748" lon="1.86175">
        <ele>676.8</ele>
        <time>2022-07-09T16:59:41Z</time>
      </trkpt>
      <trkpt lat="45.88723" lon="1.86169">
        <ele>677.4</ele>
        <time>2022-07-09T16:59:47Z</time>
      </trkpt>
      <trkpt lat="45.88714" lon="1.86168">
        <ele>677.6</ele>
        <time>2022-07-09T16:59:49Z</time>
      </trkpt>
      <trkpt lat="45.88686" lon="1.86163">
        <ele>678</ele>
        <time>2022-07-09T16:59:56Z</time>
      </trkpt>
      <trkpt lat="45.88663" lon="1.86162">
        <ele>678.2</ele>
        <time>2022-07-09T17:00:02Z</time>
      </trkpt>
      <trkpt lat="45.88647" lon="1.86164">
        <ele>678.6</ele>
        <time>2022-07-09T17:00:07Z</time>
      </trkpt>
      <trkpt lat="45.88644" lon="1.86165">
        <ele>678.6</ele>
        <time>2022-07-09T17:00:08Z</time>
      </trkpt>
      <trkpt lat="45.88629" lon="1.86169">
        <ele>678.8</ele>
        <time>2022-07-09T17:00:13Z</time>
      </trkpt>
      <trkpt lat="45.88589" lon="1.86174">
        <ele>679.2</ele>
        <time>2022-07-09T17:00:23Z</time>
      </trkpt>
      <trkpt lat="45.8856" lon="1.86174">
        <ele>679.4</ele>
        <time>2022-07-09T17:00:30Z</time>
      </trkpt>
      <trkpt lat="45.88535" lon="1.86175">
        <ele>679.6</ele>
        <time>2022-07-09T17:00:37Z</time>
      </trkpt>
      <trkpt lat="45.88515" lon="1.86176">
        <ele>679.8</ele>
        <time>2022-07-09T17:00:42Z</time>
      </trkpt>
      <trkpt lat="45.88483" lon="1.86177">
        <ele>680.2</ele>
        <time>2022-07-09T17:00:50Z</time>
      </trkpt>
      <trkpt lat="45.88468" lon="1.86178">
        <ele>680.6</ele>
        <time>2022-07-09T17:00:54Z</time>
      </trkpt>
      <trkpt lat="45.88455" lon="1.86179">
        <ele>680.6</ele>
        <time>2022-07-09T17:00:57Z</time>
      </trkpt>
      <trkpt lat="45.88413" lon="1.8618">
        <ele>680.8</ele>
        <time>2022-07-09T17:01:07Z</time>
      </trkpt>
      <trkpt lat="45.88392" lon="1.8618">
        <ele>680.8</ele>
        <time>2022-07-09T17:01:12Z</time>
      </trkpt>
      <trkpt lat="45.88383" lon="1.8618">
        <ele>681</ele>
        <time>2022-07-09T17:01:14Z</time>
      </trkpt>
      <trkpt lat="45.88375" lon="1.86182">
        <ele>681</ele>
        <time>2022-07-09T17:01:16Z</time>
      </trkpt>
      <trkpt lat="45.88358" lon="1.86191">
        <ele>681.2</ele>
        <time>2022-07-09T17:01:20Z</time>
      </trkpt>
      <trkpt lat="45.88354" lon="1.86194">
        <ele>681.2</ele>
        <time>2022-07-09T17:01:21Z</time>
      </trkpt>
      <trkpt lat="45.88339" lon="1.86206">
        <ele>681.4</ele>
        <time>2022-07-09T17:01:25Z</time>
      </trkpt>
      <trkpt lat="45.88336" lon="1.86209">
        <ele>681.4</ele>
        <time>2022-07-09T17:01:26Z</time>
      </trkpt>
      <trkpt lat="45.88322" lon="1.86219">
        <ele>681.6</ele>
        <time>2022-07-09T17:01:30Z</time>
      </trkpt>
      <trkpt lat="45.88319" lon="1.86221">
        <ele>681.8</ele>
        <time>2022-07-09T17:01:31Z</time>
      </trkpt>
      <trkpt lat="45.88315" lon="1.86222">
        <ele>681.8</ele>
        <time>2022-07-09T17:01:32Z</time>
      </trkpt>
      <trkpt lat="45.88301" lon="1.86219">
        <ele>682.4</ele>
        <time>2022-07-09T17:01:37Z</time>
      </trkpt>
      <trkpt lat="45.88285" lon="1.86215">
        <ele>683</ele>
        <time>2022-07-09T17:01:42Z</time>
      </trkpt>
      <trkpt lat="45.88276" lon="1.86214">
        <ele>683</ele>
        <time>2022-07-09T17:01:44Z</time>
      </trkpt>
      <trkpt lat="45.88271" lon="1.86214">
        <ele>683</ele>
        <time>2022-07-09T17:01:45Z</time>
      </trkpt>
      <trkpt lat="45.88258" lon="1.86213">
        <ele>683.2</ele>
        <time>2022-07-09T17:01:48Z</time>
      </trkpt>
      <trkpt lat="45.88234" lon="1.86218">
        <ele>683.2</ele>
        <time>2022-07-09T17:01:54Z</time>
      </trkpt>
      <trkpt lat="45.88222" lon="1.86216">
        <ele>683.4</ele>
        <time>2022-07-09T17:01:58Z</time>
      </trkpt>
      <trkpt lat="45.88199" lon="1.86208">
        <ele>683.6</ele>
        <time>2022-07-09T17:02:03Z</time>
      </trkpt>
      <trkpt lat="45.88177" lon="1.86198">
        <ele>683.8</ele>
        <time>2022-07-09T17:02:08Z</time>
      </trkpt>
      <trkpt lat="45.88166" lon="1.8619">
        <ele>684</ele>
        <time>2022-07-09T17:02:11Z</time>
      </trkpt>
      <trkpt lat="45.8815" lon="1.86183">
        <ele>684.2</ele>
        <time>2022-07-09T17:02:15Z</time>
      </trkpt>
      <trkpt lat="45.88124" lon="1.86177">
        <ele>684.6</ele>
        <time>2022-07-09T17:02:21Z</time>
      </trkpt>
      <trkpt lat="45.88108" lon="1.8617">
        <ele>684.8</ele>
        <time>2022-07-09T17:02:26Z</time>
      </trkpt>
      <trkpt lat="45.8809" lon="1.86162">
        <ele>684.8</ele>
        <time>2022-07-09T17:02:31Z</time>
      </trkpt>
      <trkpt lat="45.88064" lon="1.86158">
        <ele>684.8</ele>
        <time>2022-07-09T17:02:37Z</time>
      </trkpt>
      <trkpt lat="45.88057" lon="1.86154">
        <ele>685</ele>
        <time>2022-07-09T17:02:39Z</time>
      </trkpt>
      <trkpt lat="45.88052" lon="1.86149">
        <ele>685</ele>
        <time>2022-07-09T17:02:41Z</time>
      </trkpt>
      <trkpt lat="45.88034" lon="1.86156">
        <ele>685</ele>
        <time>2022-07-09T17:02:45Z</time>
      </trkpt>
      <trkpt lat="45.88025" lon="1.86155">
        <ele>685.2</ele>
        <time>2022-07-09T17:02:47Z</time>
      </trkpt>
      <trkpt lat="45.88005" lon="1.86153">
        <ele>685.4</ele>
        <time>2022-07-09T17:02:52Z</time>
      </trkpt>
      <trkpt lat="45.87984" lon="1.86164">
        <ele>685.8</ele>
        <time>2022-07-09T17:02:57Z</time>
      </trkpt>
      <trkpt lat="45.87969" lon="1.86174">
        <ele>685.8</ele>
        <time>2022-07-09T17:03:01Z</time>
      </trkpt>
      <trkpt lat="45.87955" lon="1.86183">
        <ele>686</ele>
        <time>2022-07-09T17:03:05Z</time>
      </trkpt>
      <trkpt lat="45.87951" lon="1.86186">
        <ele>686.2</ele>
        <time>2022-07-09T17:03:06Z</time>
      </trkpt>
      <trkpt lat="45.87936" lon="1.86196">
        <ele>686.4</ele>
        <time>2022-07-09T17:03:10Z</time>
      </trkpt>
      <trkpt lat="45.87933" lon="1.862">
        <ele>686.4</ele>
        <time>2022-07-09T17:03:11Z</time>
      </trkpt>
      <trkpt lat="45.87926" lon="1.86205">
        <ele>686.6</ele>
        <time>2022-07-09T17:03:13Z</time>
      </trkpt>
      <trkpt lat="45.87915" lon="1.86214">
        <ele>686.6</ele>
        <time>2022-07-09T17:03:16Z</time>
      </trkpt>
      <trkpt lat="45.87911" lon="1.86216">
        <ele>686.6</ele>
        <time>2022-07-09T17:03:17Z</time>
      </trkpt>
      <trkpt lat="45.87899" lon="1.86224">
        <ele>686.8</ele>
        <time>2022-07-09T17:03:20Z</time>
      </trkpt>
      <trkpt lat="45.87886" lon="1.86239">
        <ele>686.8</ele>
        <time>2022-07-09T17:03:24Z</time>
      </trkpt>
      <trkpt lat="45.87878" lon="1.86251">
        <ele>687.2</ele>
        <time>2022-07-09T17:03:27Z</time>
      </trkpt>
      <trkpt lat="45.87867" lon="1.86265">
        <ele>687.6</ele>
        <time>2022-07-09T17:03:31Z</time>
      </trkpt>
      <trkpt lat="45.87851" lon="1.86283">
        <ele>688</ele>
        <time>2022-07-09T17:03:37Z</time>
      </trkpt>
      <trkpt lat="45.87846" lon="1.86288">
        <ele>688.2</ele>
        <time>2022-07-09T17:03:39Z</time>
      </trkpt>
      <trkpt lat="45.87829" lon="1.86294">
        <ele>688.8</ele>
        <time>2022-07-09T17:03:44Z</time>
      </trkpt>
      <trkpt lat="45.87816" lon="1.86299">
        <ele>689.4</ele>
        <time>2022-07-09T17:03:48Z</time>
      </trkpt>
      <trkpt lat="45.87812" lon="1.863">
        <ele>689.4</ele>
        <time>2022-07-09T17:03:49Z</time>
      </trkpt>
      <trkpt lat="45.87793" lon="1.86311">
        <ele>690.4</ele>
        <time>2022-07-09T17:03:55Z</time>
      </trkpt>
      <trkpt lat="45.87791" lon="1.86314">
        <ele>690.4</ele>
        <time>2022-07-09T17:03:56Z</time>
      </trkpt>
      <trkpt lat="45.8777" lon="1.86335">
        <ele>691.4</ele>
        <time>2022-07-09T17:04:04Z</time>
      </trkpt>
      <trkpt lat="45.87767" lon="1.86338">
        <ele>691.6</ele>
        <time>2022-07-09T17:04:05Z</time>
      </trkpt>
      <trkpt lat="45.87753" lon="1.86356">
        <ele>692.6</ele>
        <time>2022-07-09T17:04:11Z</time>
      </trkpt>
      <trkpt lat="45.87741" lon="1.86383">
        <ele>693.6</ele>
        <time>2022-07-09T17:04:18Z</time>
      </trkpt>
      <trkpt lat="45.87738" lon="1.86395">
        <ele>694</ele>
        <time>2022-07-09T17:04:21Z</time>
      </trkpt>
      <trkpt lat="45.87728" lon="1.86415">
        <ele>694.6</ele>
        <time>2022-07-09T17:04:27Z</time>
      </trkpt>
      <trkpt lat="45.87725" lon="1.86421">
        <ele>695</ele>
        <time>2022-07-09T17:04:29Z</time>
      </trkpt>
      <trkpt lat="45.87719" lon="1.86438">
        <ele>695.8</ele>
        <time>2022-07-09T17:04:34Z</time>
      </trkpt>
      <trkpt lat="45.87718" lon="1.86442">
        <ele>695.8</ele>
        <time>2022-07-09T17:04:35Z</time>
      </trkpt>
      <trkpt lat="45.87713" lon="1.86459">
        <ele>696.2</ele>
        <time>2022-07-09T17:04:40Z</time>
      </trkpt>
      <trkpt lat="45.87706" lon="1.86477">
        <ele>696.8</ele>
        <time>2022-07-09T17:04:45Z</time>
      </trkpt>
      <trkpt lat="45.87706" lon="1.8648">
        <ele>696.8</ele>
        <time>2022-07-09T17:04:46Z</time>
      </trkpt>
      <trkpt lat="45.877" lon="1.865">
        <ele>697.8</ele>
        <time>2022-07-09T17:04:53Z</time>
      </trkpt>
      <trkpt lat="45.877" lon="1.86505">
        <ele>698.2</ele>
        <time>2022-07-09T17:04:55Z</time>
      </trkpt>
      <trkpt lat="45.87699" lon="1.86506">
        <ele>698.4</ele>
        <time>2022-07-09T17:04:57Z</time>
      </trkpt>
      <trkpt lat="45.87698" lon="1.86507">
        <ele>698.4</ele>
        <time>2022-07-09T17:04:58Z</time>
      </trkpt>
      <trkpt lat="45.87691" lon="1.86506">
        <ele>699</ele>
        <time>2022-07-09T17:05:01Z</time>
      </trkpt>
      <trkpt lat="45.87684" lon="1.86505">
        <ele>699.6</ele>
        <time>2022-07-09T17:05:04Z</time>
      </trkpt>
      <trkpt lat="45.87678" lon="1.86504">
        <ele>700.2</ele>
        <time>2022-07-09T17:05:07Z</time>
      </trkpt>
      <trkpt lat="45.87668" lon="1.86503">
        <ele>700.6</ele>
        <time>2022-07-09T17:05:11Z</time>
      </trkpt>
      <trkpt lat="45.87659" lon="1.86502">
        <ele>701.4</ele>
        <time>2022-07-09T17:05:15Z</time>
      </trkpt>
      <trkpt lat="45.87655" lon="1.86503">
        <ele>701.6</ele>
        <time>2022-07-09T17:05:17Z</time>
      </trkpt>
      <trkpt lat="45.87637" lon="1.86505">
        <ele>702.2</ele>
        <time>2022-07-09T17:05:25Z</time>
      </trkpt>
      <trkpt lat="45.87633" lon="1.86506">
        <ele>702.6</ele>
        <time>2022-07-09T17:05:27Z</time>
      </trkpt>
      <trkpt lat="45.87622" lon="1.86508">
        <ele>703.2</ele>
        <time>2022-07-09T17:05:32Z</time>
      </trkpt>
      <trkpt lat="45.87615" lon="1.86509">
        <ele>703.6</ele>
        <time>2022-07-09T17:05:35Z</time>
      </trkpt>
      <trkpt lat="45.87601" lon="1.86512">
        <ele>704.2</ele>
        <time>2022-07-09T17:05:40Z</time>
      </trkpt>
      <trkpt lat="45.87595" lon="1.86511">
        <ele>704.6</ele>
        <time>2022-07-09T17:05:42Z</time>
      </trkpt>
      <trkpt lat="45.87589" lon="1.86509">
        <ele>704.8</ele>
        <time>2022-07-09T17:05:44Z</time>
      </trkpt>
      <trkpt lat="45.87584" lon="1.86507">
        <ele>705</ele>
        <time>2022-07-09T17:05:46Z</time>
      </trkpt>
      <trkpt lat="45.8757" lon="1.86499">
        <ele>705.6</ele>
        <time>2022-07-09T17:05:51Z</time>
      </trkpt>
      <trkpt lat="45.87562" lon="1.86495">
        <ele>705.8</ele>
        <time>2022-07-09T17:05:54Z</time>
      </trkpt>
      <trkpt lat="45.87541" lon="1.86484">
        <ele>706.4</ele>
        <time>2022-07-09T17:06:00Z</time>
      </trkpt>
      <trkpt lat="45.87527" lon="1.86476">
        <ele>706.8</ele>
        <time>2022-07-09T17:06:04Z</time>
      </trkpt>
      <trkpt lat="45.87521" lon="1.86473">
        <ele>707</ele>
        <time>2022-07-09T17:06:06Z</time>
      </trkpt>
      <trkpt lat="45.87499" lon="1.86456">
        <ele>707.4</ele>
        <time>2022-07-09T17:06:13Z</time>
      </trkpt>
      <trkpt lat="45.87484" lon="1.86448">
        <ele>707.8</ele>
        <time>2022-07-09T17:06:18Z</time>
      </trkpt>
      <trkpt lat="45.87481" lon="1.86446">
        <ele>707.8</ele>
        <time>2022-07-09T17:06:19Z</time>
      </trkpt>
      <trkpt lat="45.87478" lon="1.86445">
        <ele>707.8</ele>
        <time>2022-07-09T17:06:20Z</time>
      </trkpt>
      <trkpt lat="45.87457" lon="1.8643">
        <ele>707.6</ele>
        <time>2022-07-09T17:06:26Z</time>
      </trkpt>
      <trkpt lat="45.87436" lon="1.86417">
        <ele>706.6</ele>
        <time>2022-07-09T17:06:31Z</time>
      </trkpt>
      <trkpt lat="45.87432" lon="1.86415">
        <ele>706.2</ele>
        <time>2022-07-09T17:06:32Z</time>
      </trkpt>
      <trkpt lat="45.87415" lon="1.86405">
        <ele>705.6</ele>
        <time>2022-07-09T17:06:37Z</time>
      </trkpt>
      <trkpt lat="45.87409" lon="1.86402">
        <ele>704.8</ele>
        <time>2022-07-09T17:06:39Z</time>
      </trkpt>
      <trkpt lat="45.87399" lon="1.86402">
        <ele>704.4</ele>
        <time>2022-07-09T17:06:42Z</time>
      </trkpt>
      <trkpt lat="45.87396" lon="1.86403">
        <ele>704.2</ele>
        <time>2022-07-09T17:06:44Z</time>
      </trkpt>
      <trkpt lat="45.87386" lon="1.86413">
        <ele>703.8</ele>
        <time>2022-07-09T17:06:50Z</time>
      </trkpt>
      <trkpt lat="45.87373" lon="1.86428">
        <ele>703.8</ele>
        <time>2022-07-09T17:06:54Z</time>
      </trkpt>
      <trkpt lat="45.87353" lon="1.86434">
        <ele>703.8</ele>
        <time>2022-07-09T17:06:59Z</time>
      </trkpt>
      <trkpt lat="45.87338" lon="1.86425">
        <ele>704</ele>
        <time>2022-07-09T17:07:04Z</time>
      </trkpt>
      <trkpt lat="45.8733" lon="1.86411">
        <ele>704</ele>
        <time>2022-07-09T17:07:08Z</time>
      </trkpt>
      <trkpt lat="45.8733" lon="1.86406">
        <ele>704.2</ele>
        <time>2022-07-09T17:07:09Z</time>
      </trkpt>
      <trkpt lat="45.87324" lon="1.8638">
        <ele>704.6</ele>
        <time>2022-07-09T17:07:15Z</time>
      </trkpt>
      <trkpt lat="45.87316" lon="1.86363">
        <ele>705.4</ele>
        <time>2022-07-09T17:07:20Z</time>
      </trkpt>
      <trkpt lat="45.87315" lon="1.8636">
        <ele>705.6</ele>
        <time>2022-07-09T17:07:21Z</time>
      </trkpt>
      <trkpt lat="45.87307" lon="1.86342">
        <ele>706.6</ele>
        <time>2022-07-09T17:07:27Z</time>
      </trkpt>
      <trkpt lat="45.87305" lon="1.86338">
        <ele>706.8</ele>
        <time>2022-07-09T17:07:29Z</time>
      </trkpt>
      <trkpt lat="45.87305" lon="1.86336">
        <ele>707</ele>
        <time>2022-07-09T17:07:30Z</time>
      </trkpt>
      <trkpt lat="45.87305" lon="1.86336">
        <ele>707.2</ele>
        <time>2022-07-09T17:07:33Z</time>
      </trkpt>
      <trkpt lat="45.87304" lon="1.86333">
        <ele>707.2</ele>
        <time>2022-07-09T17:07:52Z</time>
      </trkpt>
      <trkpt lat="45.87303" lon="1.86326">
        <ele>707.2</ele>
        <time>2022-07-09T17:07:54Z</time>
      </trkpt>
      <trkpt lat="45.87293" lon="1.8629">
        <ele>707.2</ele>
        <time>2022-07-09T17:08:02Z</time>
      </trkpt>
      <trkpt lat="45.87285" lon="1.86263">
        <ele>707</ele>
        <time>2022-07-09T17:08:08Z</time>
      </trkpt>
      <trkpt lat="45.87275" lon="1.86245">
        <ele>707.2</ele>
        <time>2022-07-09T17:08:13Z</time>
      </trkpt>
      <trkpt lat="45.87256" lon="1.86223">
        <ele>707.2</ele>
        <time>2022-07-09T17:08:20Z</time>
      </trkpt>
      <trkpt lat="45.87245" lon="1.8621">
        <ele>707.4</ele>
        <time>2022-07-09T17:08:25Z</time>
      </trkpt>
      <trkpt lat="45.87229" lon="1.86193">
        <ele>707.4</ele>
        <time>2022-07-09T17:08:30Z</time>
      </trkpt>
      <trkpt lat="45.87208" lon="1.86174">
        <ele>707.6</ele>
        <time>2022-07-09T17:08:36Z</time>
      </trkpt>
      <trkpt lat="45.87201" lon="1.86167">
        <ele>707.6</ele>
        <time>2022-07-09T17:08:38Z</time>
      </trkpt>
      <trkpt lat="45.87179" lon="1.86146">
        <ele>707.4</ele>
        <time>2022-07-09T17:08:44Z</time>
      </trkpt>
      <trkpt lat="45.87163" lon="1.86132">
        <ele>707.4</ele>
        <time>2022-07-09T17:08:48Z</time>
      </trkpt>
      <trkpt lat="45.87155" lon="1.86126">
        <ele>707.2</ele>
        <time>2022-07-09T17:08:50Z</time>
      </trkpt>
      <trkpt lat="45.87152" lon="1.86123">
        <ele>707.2</ele>
        <time>2022-07-09T17:08:51Z</time>
      </trkpt>
      <trkpt lat="45.87142" lon="1.86117">
        <ele>707.2</ele>
        <time>2022-07-09T17:08:54Z</time>
      </trkpt>
      <trkpt lat="45.87139" lon="1.86114">
        <ele>707.2</ele>
        <time>2022-07-09T17:08:55Z</time>
      </trkpt>
      <trkpt lat="45.87126" lon="1.86108">
        <ele>707.2</ele>
        <time>2022-07-09T17:08:58Z</time>
      </trkpt>
      <trkpt lat="45.87104" lon="1.86097">
        <ele>707</ele>
        <time>2022-07-09T17:09:03Z</time>
      </trkpt>
      <trkpt lat="45.87096" lon="1.86093">
        <ele>707</ele>
        <time>2022-07-09T17:09:05Z</time>
      </trkpt>
      <trkpt lat="45.87091" lon="1.86091">
        <ele>707</ele>
        <time>2022-07-09T17:09:06Z</time>
      </trkpt>
      <trkpt lat="45.87073" lon="1.86086">
        <ele>707.2</ele>
        <time>2022-07-09T17:09:10Z</time>
      </trkpt>
      <trkpt lat="45.87069" lon="1.86084">
        <ele>707.4</ele>
        <time>2022-07-09T17:09:11Z</time>
      </trkpt>
      <trkpt lat="45.87049" lon="1.86073">
        <ele>707.8</ele>
        <time>2022-07-09T17:09:16Z</time>
      </trkpt>
      <trkpt lat="45.87028" lon="1.86066">
        <ele>708</ele>
        <time>2022-07-09T17:09:21Z</time>
      </trkpt>
      <trkpt lat="45.87002" lon="1.86065">
        <ele>708.8</ele>
        <time>2022-07-09T17:09:27Z</time>
      </trkpt>
      <trkpt lat="45.86998" lon="1.86066">
        <ele>709</ele>
        <time>2022-07-09T17:09:28Z</time>
      </trkpt>
      <trkpt lat="45.8697" lon="1.86078">
        <ele>709.6</ele>
        <time>2022-07-09T17:09:36Z</time>
      </trkpt>
      <trkpt lat="45.86962" lon="1.86084">
        <ele>710</ele>
        <time>2022-07-09T17:09:39Z</time>
      </trkpt>
      <trkpt lat="45.86951" lon="1.86094">
        <ele>710.6</ele>
        <time>2022-07-09T17:09:43Z</time>
      </trkpt>
      <trkpt lat="45.86943" lon="1.86101">
        <ele>711</ele>
        <time>2022-07-09T17:09:46Z</time>
      </trkpt>
      <trkpt lat="45.86934" lon="1.86109">
        <ele>711.8</ele>
        <time>2022-07-09T17:09:50Z</time>
      </trkpt>
      <trkpt lat="45.86929" lon="1.86112">
        <ele>712.2</ele>
        <time>2022-07-09T17:09:52Z</time>
      </trkpt>
      <trkpt lat="45.86915" lon="1.86123">
        <ele>713.2</ele>
        <time>2022-07-09T17:09:58Z</time>
      </trkpt>
      <trkpt lat="45.86913" lon="1.86125">
        <ele>713.4</ele>
        <time>2022-07-09T17:09:59Z</time>
      </trkpt>
      <trkpt lat="45.86896" lon="1.86139">
        <ele>714.4</ele>
        <time>2022-07-09T17:10:07Z</time>
      </trkpt>
      <trkpt lat="45.86894" lon="1.8614">
        <ele>714.8</ele>
        <time>2022-07-09T17:10:08Z</time>
      </trkpt>
      <trkpt lat="45.86875" lon="1.86153">
        <ele>715.6</ele>
        <time>2022-07-09T17:10:16Z</time>
      </trkpt>
      <trkpt lat="45.86873" lon="1.86155">
        <ele>715.6</ele>
        <time>2022-07-09T17:10:17Z</time>
      </trkpt>
      <trkpt lat="45.86844" lon="1.86178">
        <ele>716</ele>
        <time>2022-07-09T17:10:28Z</time>
      </trkpt>
      <trkpt lat="45.86823" lon="1.86206">
        <ele>716.4</ele>
        <time>2022-07-09T17:10:37Z</time>
      </trkpt>
      <trkpt lat="45.86814" lon="1.8623">
        <ele>716.4</ele>
        <time>2022-07-09T17:10:43Z</time>
      </trkpt>
      <trkpt lat="45.86809" lon="1.86241">
        <ele>716.6</ele>
        <time>2022-07-09T17:10:46Z</time>
      </trkpt>
      <trkpt lat="45.86803" lon="1.86263">
        <ele>717</ele>
        <time>2022-07-09T17:10:51Z</time>
      </trkpt>
      <trkpt lat="45.86805" lon="1.86289">
        <ele>717.4</ele>
        <time>2022-07-09T17:10:56Z</time>
      </trkpt>
      <trkpt lat="45.86823" lon="1.86332">
        <ele>717.4</ele>
        <time>2022-07-09T17:11:04Z</time>
      </trkpt>
      <trkpt lat="45.86827" lon="1.86344">
        <ele>717.2</ele>
        <time>2022-07-09T17:11:06Z</time>
      </trkpt>
      <trkpt lat="45.86828" lon="1.86364">
        <ele>716.8</ele>
        <time>2022-07-09T17:11:09Z</time>
      </trkpt>
      <trkpt lat="45.86828" lon="1.86377">
        <ele>716.6</ele>
        <time>2022-07-09T17:11:11Z</time>
      </trkpt>
      <trkpt lat="45.86825" lon="1.86397">
        <ele>716.4</ele>
        <time>2022-07-09T17:11:14Z</time>
      </trkpt>
      <trkpt lat="45.86825" lon="1.86403">
        <ele>716.4</ele>
        <time>2022-07-09T17:11:15Z</time>
      </trkpt>
      <trkpt lat="45.86824" lon="1.86408">
        <ele>716.2</ele>
        <time>2022-07-09T17:11:16Z</time>
      </trkpt>
      <trkpt lat="45.86822" lon="1.86419">
        <ele>716.2</ele>
        <time>2022-07-09T17:11:18Z</time>
      </trkpt>
      <trkpt lat="45.86818" lon="1.86443">
        <ele>716</ele>
        <time>2022-07-09T17:11:23Z</time>
      </trkpt>
      <trkpt lat="45.86817" lon="1.86464">
        <ele>716</ele>
        <time>2022-07-09T17:11:28Z</time>
      </trkpt>
      <trkpt lat="45.86818" lon="1.86488">
        <ele>716.4</ele>
        <time>2022-07-09T17:11:33Z</time>
      </trkpt>
      <trkpt lat="45.86817" lon="1.86511">
        <ele>717.2</ele>
        <time>2022-07-09T17:11:38Z</time>
      </trkpt>
      <trkpt lat="45.86817" lon="1.86524">
        <ele>717.6</ele>
        <time>2022-07-09T17:11:41Z</time>
      </trkpt>
      <trkpt lat="45.86818" lon="1.86532">
        <ele>717.8</ele>
        <time>2022-07-09T17:11:43Z</time>
      </trkpt>
      <trkpt lat="45.86819" lon="1.86536">
        <ele>718</ele>
        <time>2022-07-09T17:11:44Z</time>
      </trkpt>
      <trkpt lat="45.86815" lon="1.8656">
        <ele>718.8</ele>
        <time>2022-07-09T17:11:50Z</time>
      </trkpt>
      <trkpt lat="45.86814" lon="1.86563">
        <ele>718.8</ele>
        <time>2022-07-09T17:11:51Z</time>
      </trkpt>
      <trkpt lat="45.86805" lon="1.86573">
        <ele>719</ele>
        <time>2022-07-09T17:11:54Z</time>
      </trkpt>
      <trkpt lat="45.86801" lon="1.86576">
        <ele>719</ele>
        <time>2022-07-09T17:11:55Z</time>
      </trkpt>
      <trkpt lat="45.86793" lon="1.86582">
        <ele>719</ele>
        <time>2022-07-09T17:11:57Z</time>
      </trkpt>
      <trkpt lat="45.86788" lon="1.86583">
        <ele>719</ele>
        <time>2022-07-09T17:11:58Z</time>
      </trkpt>
      <trkpt lat="45.86779" lon="1.86584">
        <ele>718.8</ele>
        <time>2022-07-09T17:12:00Z</time>
      </trkpt>
      <trkpt lat="45.86763" lon="1.86591">
        <ele>717.6</ele>
        <time>2022-07-09T17:12:03Z</time>
      </trkpt>
      <trkpt lat="45.86744" lon="1.86596">
        <ele>716.4</ele>
        <time>2022-07-09T17:12:06Z</time>
      </trkpt>
      <trkpt lat="45.86739" lon="1.86598">
        <ele>716.2</ele>
        <time>2022-07-09T17:12:07Z</time>
      </trkpt>
      <trkpt lat="45.8673" lon="1.86607">
        <ele>715.2</ele>
        <time>2022-07-09T17:12:09Z</time>
      </trkpt>
      <trkpt lat="45.86722" lon="1.86616">
        <ele>714.6</ele>
        <time>2022-07-09T17:12:11Z</time>
      </trkpt>
      <trkpt lat="45.86714" lon="1.86623">
        <ele>714.4</ele>
        <time>2022-07-09T17:12:13Z</time>
      </trkpt>
      <trkpt lat="45.86697" lon="1.86633">
        <ele>714.2</ele>
        <time>2022-07-09T17:12:17Z</time>
      </trkpt>
      <trkpt lat="45.86693" lon="1.86635">
        <ele>714</ele>
        <time>2022-07-09T17:12:18Z</time>
      </trkpt>
      <trkpt lat="45.86675" lon="1.86644">
        <ele>713.8</ele>
        <time>2022-07-09T17:12:22Z</time>
      </trkpt>
      <trkpt lat="45.86661" lon="1.86653">
        <ele>713</ele>
        <time>2022-07-09T17:12:25Z</time>
      </trkpt>
      <trkpt lat="45.86656" lon="1.86656">
        <ele>713</ele>
        <time>2022-07-09T17:12:26Z</time>
      </trkpt>
      <trkpt lat="45.86622" lon="1.86672">
        <ele>712</ele>
        <time>2022-07-09T17:12:33Z</time>
      </trkpt>
      <trkpt lat="45.86617" lon="1.86673">
        <ele>712</ele>
        <time>2022-07-09T17:12:34Z</time>
      </trkpt>
      <trkpt lat="45.86578" lon="1.8669">
        <ele>711.4</ele>
        <time>2022-07-09T17:12:42Z</time>
      </trkpt>
      <trkpt lat="45.8657" lon="1.86697">
        <ele>711</ele>
        <time>2022-07-09T17:12:44Z</time>
      </trkpt>
      <trkpt lat="45.86565" lon="1.867">
        <ele>711</ele>
        <time>2022-07-09T17:12:45Z</time>
      </trkpt>
      <trkpt lat="45.86561" lon="1.86704">
        <ele>710.8</ele>
        <time>2022-07-09T17:12:46Z</time>
      </trkpt>
      <trkpt lat="45.86542" lon="1.86724">
        <ele>710.2</ele>
        <time>2022-07-09T17:12:51Z</time>
      </trkpt>
      <trkpt lat="45.86539" lon="1.86728">
        <ele>710.2</ele>
        <time>2022-07-09T17:12:52Z</time>
      </trkpt>
      <trkpt lat="45.86536" lon="1.86732">
        <ele>710</ele>
        <time>2022-07-09T17:12:53Z</time>
      </trkpt>
      <trkpt lat="45.86523" lon="1.86746">
        <ele>709.2</ele>
        <time>2022-07-09T17:12:56Z</time>
      </trkpt>
      <trkpt lat="45.8651" lon="1.86748">
        <ele>709</ele>
        <time>2022-07-09T17:12:58Z</time>
      </trkpt>
      <trkpt lat="45.86504" lon="1.86746">
        <ele>708.8</ele>
        <time>2022-07-09T17:12:59Z</time>
      </trkpt>
      <trkpt lat="45.86498" lon="1.86743">
        <ele>708.8</ele>
        <time>2022-07-09T17:13:00Z</time>
      </trkpt>
      <trkpt lat="45.86488" lon="1.86733">
        <ele>708.6</ele>
        <time>2022-07-09T17:13:02Z</time>
      </trkpt>
      <trkpt lat="45.8648" lon="1.86722">
        <ele>708.2</ele>
        <time>2022-07-09T17:13:04Z</time>
      </trkpt>
      <trkpt lat="45.86475" lon="1.86707">
        <ele>708</ele>
        <time>2022-07-09T17:13:06Z</time>
      </trkpt>
      <trkpt lat="45.86473" lon="1.86701">
        <ele>707.8</ele>
        <time>2022-07-09T17:13:07Z</time>
      </trkpt>
      <trkpt lat="45.86471" lon="1.86695">
        <ele>707.8</ele>
        <time>2022-07-09T17:13:08Z</time>
      </trkpt>
      <trkpt lat="45.86466" lon="1.86683">
        <ele>707.6</ele>
        <time>2022-07-09T17:13:10Z</time>
      </trkpt>
      <trkpt lat="45.86465" lon="1.86674">
        <ele>707.4</ele>
        <time>2022-07-09T17:13:11Z</time>
      </trkpt>
      <trkpt lat="45.86462" lon="1.86664">
        <ele>707.4</ele>
        <time>2022-07-09T17:13:12Z</time>
      </trkpt>
      <trkpt lat="45.86454" lon="1.86646">
        <ele>706.8</ele>
        <time>2022-07-09T17:13:14Z</time>
      </trkpt>
      <trkpt lat="45.86443" lon="1.86625">
        <ele>706.4</ele>
        <time>2022-07-09T17:13:16Z</time>
      </trkpt>
      <trkpt lat="45.86433" lon="1.86608">
        <ele>705.6</ele>
        <time>2022-07-09T17:13:18Z</time>
      </trkpt>
      <trkpt lat="45.86422" lon="1.86589">
        <ele>704.6</ele>
        <time>2022-07-09T17:13:20Z</time>
      </trkpt>
      <trkpt lat="45.86416" lon="1.86581">
        <ele>704.2</ele>
        <time>2022-07-09T17:13:21Z</time>
      </trkpt>
      <trkpt lat="45.86403" lon="1.86565">
        <ele>703.4</ele>
        <time>2022-07-09T17:13:23Z</time>
      </trkpt>
      <trkpt lat="45.8639" lon="1.86548">
        <ele>702.8</ele>
        <time>2022-07-09T17:13:25Z</time>
      </trkpt>
      <trkpt lat="45.86374" lon="1.8653">
        <ele>702</ele>
        <time>2022-07-09T17:13:27Z</time>
      </trkpt>
      <trkpt lat="45.86366" lon="1.86525">
        <ele>701.6</ele>
        <time>2022-07-09T17:13:28Z</time>
      </trkpt>
      <trkpt lat="45.86358" lon="1.8652">
        <ele>700.8</ele>
        <time>2022-07-09T17:13:29Z</time>
      </trkpt>
      <trkpt lat="45.86343" lon="1.86511">
        <ele>700.2</ele>
        <time>2022-07-09T17:13:31Z</time>
      </trkpt>
      <trkpt lat="45.86336" lon="1.86505">
        <ele>699.8</ele>
        <time>2022-07-09T17:13:32Z</time>
      </trkpt>
      <trkpt lat="45.86321" lon="1.86495">
        <ele>699</ele>
        <time>2022-07-09T17:13:34Z</time>
      </trkpt>
      <trkpt lat="45.86314" lon="1.86491">
        <ele>698.8</ele>
        <time>2022-07-09T17:13:35Z</time>
      </trkpt>
      <trkpt lat="45.86287" lon="1.86478">
        <ele>697.2</ele>
        <time>2022-07-09T17:13:38Z</time>
      </trkpt>
      <trkpt lat="45.86275" lon="1.86472">
        <ele>696.8</ele>
        <time>2022-07-09T17:13:39Z</time>
      </trkpt>
      <trkpt lat="45.86267" lon="1.86466">
        <ele>696.6</ele>
        <time>2022-07-09T17:13:40Z</time>
      </trkpt>
      <trkpt lat="45.86259" lon="1.8646">
        <ele>696</ele>
        <time>2022-07-09T17:13:41Z</time>
      </trkpt>
      <trkpt lat="45.86242" lon="1.86447">
        <ele>694.8</ele>
        <time>2022-07-09T17:13:43Z</time>
      </trkpt>
      <trkpt lat="45.86224" lon="1.86425">
        <ele>694</ele>
        <time>2022-07-09T17:13:45Z</time>
      </trkpt>
      <trkpt lat="45.86216" lon="1.86419">
        <ele>693.6</ele>
        <time>2022-07-09T17:13:46Z</time>
      </trkpt>
      <trkpt lat="45.86203" lon="1.86396">
        <ele>692.6</ele>
        <time>2022-07-09T17:13:48Z</time>
      </trkpt>
      <trkpt lat="45.86198" lon="1.86385">
        <ele>692.4</ele>
        <time>2022-07-09T17:13:49Z</time>
      </trkpt>
      <trkpt lat="45.86188" lon="1.86362">
        <ele>691.2</ele>
        <time>2022-07-09T17:13:51Z</time>
      </trkpt>
      <trkpt lat="45.8617" lon="1.86328">
        <ele>690</ele>
        <time>2022-07-09T17:13:54Z</time>
      </trkpt>
      <trkpt lat="45.8616" lon="1.86327">
        <ele>689.4</ele>
        <time>2022-07-09T17:13:55Z</time>
      </trkpt>
      <trkpt lat="45.86152" lon="1.86326">
        <ele>689.2</ele>
        <time>2022-07-09T17:13:56Z</time>
      </trkpt>
      <trkpt lat="45.86144" lon="1.86324">
        <ele>688.8</ele>
        <time>2022-07-09T17:13:57Z</time>
      </trkpt>
      <trkpt lat="45.86132" lon="1.86328">
        <ele>688.6</ele>
        <time>2022-07-09T17:13:58Z</time>
      </trkpt>
      <trkpt lat="45.86124" lon="1.86328">
        <ele>687.6</ele>
        <time>2022-07-09T17:13:59Z</time>
      </trkpt>
      <trkpt lat="45.86108" lon="1.86325">
        <ele>686.4</ele>
        <time>2022-07-09T17:14:01Z</time>
      </trkpt>
      <trkpt lat="45.861" lon="1.8632">
        <ele>685.8</ele>
        <time>2022-07-09T17:14:02Z</time>
      </trkpt>
      <trkpt lat="45.86092" lon="1.86315">
        <ele>685.6</ele>
        <time>2022-07-09T17:14:03Z</time>
      </trkpt>
      <trkpt lat="45.86084" lon="1.86307">
        <ele>685</ele>
        <time>2022-07-09T17:14:04Z</time>
      </trkpt>
      <trkpt lat="45.86056" lon="1.86288">
        <ele>683.6</ele>
        <time>2022-07-09T17:14:07Z</time>
      </trkpt>
      <trkpt lat="45.86037" lon="1.86281">
        <ele>682.4</ele>
        <time>2022-07-09T17:14:09Z</time>
      </trkpt>
      <trkpt lat="45.86017" lon="1.86275">
        <ele>681.4</ele>
        <time>2022-07-09T17:14:11Z</time>
      </trkpt>
      <trkpt lat="45.86008" lon="1.86274">
        <ele>681.2</ele>
        <time>2022-07-09T17:14:12Z</time>
      </trkpt>
      <trkpt lat="45.85979" lon="1.86278">
        <ele>679.6</ele>
        <time>2022-07-09T17:14:15Z</time>
      </trkpt>
      <trkpt lat="45.85956" lon="1.86286">
        <ele>678.2</ele>
        <time>2022-07-09T17:14:17Z</time>
      </trkpt>
      <trkpt lat="45.85929" lon="1.86295">
        <ele>676.8</ele>
        <time>2022-07-09T17:14:20Z</time>
      </trkpt>
      <trkpt lat="45.85921" lon="1.86299">
        <ele>676.6</ele>
        <time>2022-07-09T17:14:21Z</time>
      </trkpt>
      <trkpt lat="45.85907" lon="1.86316">
        <ele>675.2</ele>
        <time>2022-07-09T17:14:23Z</time>
      </trkpt>
      <trkpt lat="45.85902" lon="1.86326">
        <ele>674.8</ele>
        <time>2022-07-09T17:14:24Z</time>
      </trkpt>
      <trkpt lat="45.85897" lon="1.86335">
        <ele>674.2</ele>
        <time>2022-07-09T17:14:25Z</time>
      </trkpt>
      <trkpt lat="45.8589" lon="1.86341">
        <ele>673.8</ele>
        <time>2022-07-09T17:14:26Z</time>
      </trkpt>
      <trkpt lat="45.85883" lon="1.86345">
        <ele>672.8</ele>
        <time>2022-07-09T17:14:27Z</time>
      </trkpt>
      <trkpt lat="45.85876" lon="1.86343">
        <ele>672.6</ele>
        <time>2022-07-09T17:14:28Z</time>
      </trkpt>
      <trkpt lat="45.85868" lon="1.86335">
        <ele>671.6</ele>
        <time>2022-07-09T17:14:29Z</time>
      </trkpt>
      <trkpt lat="45.85863" lon="1.86327">
        <ele>671</ele>
        <time>2022-07-09T17:14:30Z</time>
      </trkpt>
      <trkpt lat="45.85858" lon="1.8632">
        <ele>670.6</ele>
        <time>2022-07-09T17:14:31Z</time>
      </trkpt>
      <trkpt lat="45.85855" lon="1.86312">
        <ele>670</ele>
        <time>2022-07-09T17:14:32Z</time>
      </trkpt>
      <trkpt lat="45.85843" lon="1.86285">
        <ele>669</ele>
        <time>2022-07-09T17:14:36Z</time>
      </trkpt>
      <trkpt lat="45.85841" lon="1.86281">
        <ele>668.8</ele>
        <time>2022-07-09T17:14:37Z</time>
      </trkpt>
      <trkpt lat="45.85831" lon="1.8626">
        <ele>668.6</ele>
        <time>2022-07-09T17:14:42Z</time>
      </trkpt>
      <trkpt lat="45.8582" lon="1.86247">
        <ele>669</ele>
        <time>2022-07-09T17:14:47Z</time>
      </trkpt>
      <trkpt lat="45.85816" lon="1.8624">
        <ele>669.4</ele>
        <time>2022-07-09T17:14:51Z</time>
      </trkpt>
      <trkpt lat="45.85816" lon="1.8624">
        <ele>669.6</ele>
        <time>2022-07-09T17:14:53Z</time>
      </trkpt>
      <trkpt lat="45.85815" lon="1.86239">
        <ele>670.2</ele>
        <time>2022-07-09T17:15:55Z</time>
      </trkpt>
      <trkpt lat="45.85814" lon="1.86239">
        <ele>670.2</ele>
        <time>2022-07-09T17:15:56Z</time>
      </trkpt>
      <trkpt lat="45.85809" lon="1.86231">
        <ele>670.4</ele>
        <time>2022-07-09T17:16:01Z</time>
      </trkpt>
      <trkpt lat="45.85807" lon="1.86229">
        <ele>670.4</ele>
        <time>2022-07-09T17:16:02Z</time>
      </trkpt>
      <trkpt lat="45.85804" lon="1.86226">
        <ele>670.4</ele>
        <time>2022-07-09T17:16:04Z</time>
      </trkpt>
      <trkpt lat="45.85801" lon="1.86224">
        <ele>670.4</ele>
        <time>2022-07-09T17:16:06Z</time>
      </trkpt>
      <trkpt lat="45.85799" lon="1.86222">
        <ele>670.6</ele>
        <time>2022-07-09T17:16:07Z</time>
      </trkpt>
      <trkpt lat="45.85795" lon="1.86219">
        <ele>670.6</ele>
        <time>2022-07-09T17:16:09Z</time>
      </trkpt>
      <trkpt lat="45.85788" lon="1.86211">
        <ele>671</ele>
        <time>2022-07-09T17:16:13Z</time>
      </trkpt>
      <trkpt lat="45.85774" lon="1.86206">
        <ele>671.4</ele>
        <time>2022-07-09T17:16:18Z</time>
      </trkpt>
      <trkpt lat="45.85772" lon="1.86204">
        <ele>671.6</ele>
        <time>2022-07-09T17:16:20Z</time>
      </trkpt>
      <trkpt lat="45.8576" lon="1.862">
        <ele>672.4</ele>
        <time>2022-07-09T17:16:25Z</time>
      </trkpt>
      <trkpt lat="45.85758" lon="1.862">
        <ele>672.6</ele>
        <time>2022-07-09T17:16:26Z</time>
      </trkpt>
      <trkpt lat="45.85741" lon="1.862">
        <ele>673</ele>
        <time>2022-07-09T17:16:32Z</time>
      </trkpt>
      <trkpt lat="45.85731" lon="1.86197">
        <ele>673.6</ele>
        <time>2022-07-09T17:16:37Z</time>
      </trkpt>
      <trkpt lat="45.85728" lon="1.86196">
        <ele>673.6</ele>
        <time>2022-07-09T17:16:39Z</time>
      </trkpt>
      <trkpt lat="45.85711" lon="1.862">
        <ele>674.6</ele>
        <time>2022-07-09T17:16:46Z</time>
      </trkpt>
      <trkpt lat="45.8571" lon="1.862">
        <ele>674.6</ele>
        <time>2022-07-09T17:16:47Z</time>
      </trkpt>
      <trkpt lat="45.85701" lon="1.8621">
        <ele>675.4</ele>
        <time>2022-07-09T17:16:51Z</time>
      </trkpt>
      <trkpt lat="45.85699" lon="1.8621">
        <ele>675.8</ele>
        <time>2022-07-09T17:16:53Z</time>
      </trkpt>
      <trkpt lat="45.85696" lon="1.86221">
        <ele>676.2</ele>
        <time>2022-07-09T17:16:56Z</time>
      </trkpt>
      <trkpt lat="45.85694" lon="1.86223">
        <ele>676.2</ele>
        <time>2022-07-09T17:16:57Z</time>
      </trkpt>
      <trkpt lat="45.85688" lon="1.86228">
        <ele>676.6</ele>
        <time>2022-07-09T17:17:01Z</time>
      </trkpt>
      <trkpt lat="45.85684" lon="1.8623">
        <ele>676.8</ele>
        <time>2022-07-09T17:17:03Z</time>
      </trkpt>
      <trkpt lat="45.8568" lon="1.86236">
        <ele>677</ele>
        <time>2022-07-09T17:17:06Z</time>
      </trkpt>
      <trkpt lat="45.85668" lon="1.86244">
        <ele>677.2</ele>
        <time>2022-07-09T17:17:12Z</time>
      </trkpt>
      <trkpt lat="45.85661" lon="1.8625">
        <ele>677.2</ele>
        <time>2022-07-09T17:17:15Z</time>
      </trkpt>
      <trkpt lat="45.85659" lon="1.86253">
        <ele>677.2</ele>
        <time>2022-07-09T17:17:16Z</time>
      </trkpt>
      <trkpt lat="45.85656" lon="1.86255">
        <ele>677.4</ele>
        <time>2022-07-09T17:17:17Z</time>
      </trkpt>
      <trkpt lat="45.85643" lon="1.86261">
        <ele>677.4</ele>
        <time>2022-07-09T17:17:21Z</time>
      </trkpt>
      <trkpt lat="45.8562" lon="1.86271">
        <ele>677.4</ele>
        <time>2022-07-09T17:17:28Z</time>
      </trkpt>
      <trkpt lat="45.85591" lon="1.86282">
        <ele>677.4</ele>
        <time>2022-07-09T17:17:36Z</time>
      </trkpt>
      <trkpt lat="45.85574" lon="1.86285">
        <ele>677.6</ele>
        <time>2022-07-09T17:17:40Z</time>
      </trkpt>
      <trkpt lat="45.85547" lon="1.86292">
        <ele>677.4</ele>
        <time>2022-07-09T17:17:46Z</time>
      </trkpt>
      <trkpt lat="45.85526" lon="1.863">
        <ele>677.4</ele>
        <time>2022-07-09T17:17:52Z</time>
      </trkpt>
      <trkpt lat="45.85503" lon="1.86306">
        <ele>677.2</ele>
        <time>2022-07-09T17:17:56Z</time>
      </trkpt>
      <trkpt lat="45.85476" lon="1.86322">
        <ele>676.6</ele>
        <time>2022-07-09T17:18:01Z</time>
      </trkpt>
      <trkpt lat="45.8547" lon="1.86325">
        <ele>676.6</ele>
        <time>2022-07-09T17:18:02Z</time>
      </trkpt>
      <trkpt lat="45.85459" lon="1.86327">
        <ele>676.4</ele>
        <time>2022-07-09T17:18:04Z</time>
      </trkpt>
      <trkpt lat="45.85448" lon="1.86327">
        <ele>676</ele>
        <time>2022-07-09T17:18:06Z</time>
      </trkpt>
      <trkpt lat="45.85443" lon="1.86327">
        <ele>675.6</ele>
        <time>2022-07-09T17:18:07Z</time>
      </trkpt>
      <trkpt lat="45.85438" lon="1.86325">
        <ele>675.4</ele>
        <time>2022-07-09T17:18:08Z</time>
      </trkpt>
      <trkpt lat="45.85426" lon="1.86324">
        <ele>674.8</ele>
        <time>2022-07-09T17:18:10Z</time>
      </trkpt>
      <trkpt lat="45.85418" lon="1.86321">
        <ele>674.6</ele>
        <time>2022-07-09T17:18:11Z</time>
      </trkpt>
      <trkpt lat="45.85394" lon="1.86316">
        <ele>673.6</ele>
        <time>2022-07-09T17:18:14Z</time>
      </trkpt>
      <trkpt lat="45.85372" lon="1.8631">
        <ele>672.6</ele>
        <time>2022-07-09T17:18:17Z</time>
      </trkpt>
      <trkpt lat="45.85355" lon="1.86307">
        <ele>672.2</ele>
        <time>2022-07-09T17:18:19Z</time>
      </trkpt>
      <trkpt lat="45.85337" lon="1.86299">
        <ele>671.4</ele>
        <time>2022-07-09T17:18:21Z</time>
      </trkpt>
      <trkpt lat="45.85329" lon="1.86294">
        <ele>671.2</ele>
        <time>2022-07-09T17:18:22Z</time>
      </trkpt>
      <trkpt lat="45.85311" lon="1.86284">
        <ele>670.4</ele>
        <time>2022-07-09T17:18:24Z</time>
      </trkpt>
      <trkpt lat="45.85303" lon="1.86278">
        <ele>670</ele>
        <time>2022-07-09T17:18:25Z</time>
      </trkpt>
      <trkpt lat="45.85285" lon="1.86273">
        <ele>669.2</ele>
        <time>2022-07-09T17:18:27Z</time>
      </trkpt>
      <trkpt lat="45.85278" lon="1.8627">
        <ele>668.6</ele>
        <time>2022-07-09T17:18:28Z</time>
      </trkpt>
      <trkpt lat="45.85263" lon="1.86269">
        <ele>668</ele>
        <time>2022-07-09T17:18:30Z</time>
      </trkpt>
      <trkpt lat="45.85247" lon="1.86272">
        <ele>667.6</ele>
        <time>2022-07-09T17:18:32Z</time>
      </trkpt>
      <trkpt lat="45.85237" lon="1.86274">
        <ele>667</ele>
        <time>2022-07-09T17:18:33Z</time>
      </trkpt>
      <trkpt lat="45.8523" lon="1.86279">
        <ele>666.6</ele>
        <time>2022-07-09T17:18:34Z</time>
      </trkpt>
      <trkpt lat="45.85219" lon="1.86291">
        <ele>666</ele>
        <time>2022-07-09T17:18:36Z</time>
      </trkpt>
      <trkpt lat="45.85214" lon="1.863">
        <ele>665.8</ele>
        <time>2022-07-09T17:18:37Z</time>
      </trkpt>
      <trkpt lat="45.85205" lon="1.86317">
        <ele>665.8</ele>
        <time>2022-07-09T17:18:39Z</time>
      </trkpt>
      <trkpt lat="45.85195" lon="1.86333">
        <ele>665.2</ele>
        <time>2022-07-09T17:18:41Z</time>
      </trkpt>
      <trkpt lat="45.85184" lon="1.86348">
        <ele>665</ele>
        <time>2022-07-09T17:18:43Z</time>
      </trkpt>
      <trkpt lat="45.85178" lon="1.86353">
        <ele>664.8</ele>
        <time>2022-07-09T17:18:44Z</time>
      </trkpt>
      <trkpt lat="45.85171" lon="1.86357">
        <ele>664.8</ele>
        <time>2022-07-09T17:18:45Z</time>
      </trkpt>
      <trkpt lat="45.85157" lon="1.86362">
        <ele>664.4</ele>
        <time>2022-07-09T17:18:47Z</time>
      </trkpt>
      <trkpt lat="45.85144" lon="1.86363">
        <ele>664</ele>
        <time>2022-07-09T17:18:49Z</time>
      </trkpt>
      <trkpt lat="45.85138" lon="1.86362">
        <ele>664</ele>
        <time>2022-07-09T17:18:50Z</time>
      </trkpt>
      <trkpt lat="45.85116" lon="1.86358">
        <ele>663.2</ele>
        <time>2022-07-09T17:18:54Z</time>
      </trkpt>
      <trkpt lat="45.85094" lon="1.86355">
        <ele>662.6</ele>
        <time>2022-07-09T17:18:58Z</time>
      </trkpt>
      <trkpt lat="45.85083" lon="1.86354">
        <ele>662.4</ele>
        <time>2022-07-09T17:19:00Z</time>
      </trkpt>
      <trkpt lat="45.85078" lon="1.86353">
        <ele>662.4</ele>
        <time>2022-07-09T17:19:01Z</time>
      </trkpt>
      <trkpt lat="45.85073" lon="1.86352">
        <ele>662.4</ele>
        <time>2022-07-09T17:19:02Z</time>
      </trkpt>
      <trkpt lat="45.85057" lon="1.8635">
        <ele>662.2</ele>
        <time>2022-07-09T17:19:05Z</time>
      </trkpt>
      <trkpt lat="45.85047" lon="1.86349">
        <ele>662.2</ele>
        <time>2022-07-09T17:19:07Z</time>
      </trkpt>
      <trkpt lat="45.85027" lon="1.86345">
        <ele>662</ele>
        <time>2022-07-09T17:19:12Z</time>
      </trkpt>
      <trkpt lat="45.85008" lon="1.86346">
        <ele>661.6</ele>
        <time>2022-07-09T17:19:17Z</time>
      </trkpt>
      <trkpt lat="45.84976" lon="1.8636">
        <ele>660.8</ele>
        <time>2022-07-09T17:19:23Z</time>
      </trkpt>
      <trkpt lat="45.84962" lon="1.86366">
        <ele>660.4</ele>
        <time>2022-07-09T17:19:25Z</time>
      </trkpt>
      <trkpt lat="45.84946" lon="1.86366">
        <ele>660.2</ele>
        <time>2022-07-09T17:19:27Z</time>
      </trkpt>
      <trkpt lat="45.84925" lon="1.86357">
        <ele>659.6</ele>
        <time>2022-07-09T17:19:31Z</time>
      </trkpt>
      <trkpt lat="45.84914" lon="1.86349">
        <ele>659.4</ele>
        <time>2022-07-09T17:19:33Z</time>
      </trkpt>
      <trkpt lat="45.84901" lon="1.86337">
        <ele>659</ele>
        <time>2022-07-09T17:19:35Z</time>
      </trkpt>
      <trkpt lat="45.84872" lon="1.86318">
        <ele>658.4</ele>
        <time>2022-07-09T17:19:39Z</time>
      </trkpt>
      <trkpt lat="45.84866" lon="1.86314">
        <ele>658.2</ele>
        <time>2022-07-09T17:19:40Z</time>
      </trkpt>
      <trkpt lat="45.84861" lon="1.86309">
        <ele>658.2</ele>
        <time>2022-07-09T17:19:41Z</time>
      </trkpt>
      <trkpt lat="45.84839" lon="1.86292">
        <ele>657.8</ele>
        <time>2022-07-09T17:19:45Z</time>
      </trkpt>
      <trkpt lat="45.84815" lon="1.86272">
        <ele>657.4</ele>
        <time>2022-07-09T17:19:50Z</time>
      </trkpt>
      <trkpt lat="45.8481" lon="1.86267">
        <ele>657.4</ele>
        <time>2022-07-09T17:19:51Z</time>
      </trkpt>
      <trkpt lat="45.84792" lon="1.86246">
        <ele>656.8</ele>
        <time>2022-07-09T17:19:55Z</time>
      </trkpt>
      <trkpt lat="45.84787" lon="1.86239">
        <ele>656.6</ele>
        <time>2022-07-09T17:19:56Z</time>
      </trkpt>
      <trkpt lat="45.84781" lon="1.8623">
        <ele>656.2</ele>
        <time>2022-07-09T17:19:57Z</time>
      </trkpt>
      <trkpt lat="45.84776" lon="1.86221">
        <ele>656</ele>
        <time>2022-07-09T17:19:58Z</time>
      </trkpt>
      <trkpt lat="45.84764" lon="1.86201">
        <ele>655.4</ele>
        <time>2022-07-09T17:20:00Z</time>
      </trkpt>
      <trkpt lat="45.84756" lon="1.86189">
        <ele>654.8</ele>
        <time>2022-07-09T17:20:01Z</time>
      </trkpt>
      <trkpt lat="45.84733" lon="1.8616">
        <ele>653.6</ele>
        <time>2022-07-09T17:20:04Z</time>
      </trkpt>
      <trkpt lat="45.84721" lon="1.86139">
        <ele>652.2</ele>
        <time>2022-07-09T17:20:06Z</time>
      </trkpt>
      <trkpt lat="45.84711" lon="1.86116">
        <ele>651</ele>
        <time>2022-07-09T17:20:08Z</time>
      </trkpt>
      <trkpt lat="45.84698" lon="1.86084">
        <ele>649.8</ele>
        <time>2022-07-09T17:20:11Z</time>
      </trkpt>
      <trkpt lat="45.84693" lon="1.86074">
        <ele>648.4</ele>
        <time>2022-07-09T17:20:12Z</time>
      </trkpt>
      <trkpt lat="45.84687" lon="1.86064">
        <ele>647.6</ele>
        <time>2022-07-09T17:20:13Z</time>
      </trkpt>
      <trkpt lat="45.84681" lon="1.86055">
        <ele>647.2</ele>
        <time>2022-07-09T17:20:14Z</time>
      </trkpt>
      <trkpt lat="45.84675" lon="1.86046">
        <ele>646</ele>
        <time>2022-07-09T17:20:15Z</time>
      </trkpt>
      <trkpt lat="45.84664" lon="1.86028">
        <ele>645</ele>
        <time>2022-07-09T17:20:17Z</time>
      </trkpt>
      <trkpt lat="45.84653" lon="1.86011">
        <ele>643.8</ele>
        <time>2022-07-09T17:20:19Z</time>
      </trkpt>
      <trkpt lat="45.84644" lon="1.85997">
        <ele>642.4</ele>
        <time>2022-07-09T17:20:21Z</time>
      </trkpt>
      <trkpt lat="45.84639" lon="1.85991">
        <ele>641.6</ele>
        <time>2022-07-09T17:20:22Z</time>
      </trkpt>
      <trkpt lat="45.84636" lon="1.85985">
        <ele>641.4</ele>
        <time>2022-07-09T17:20:23Z</time>
      </trkpt>
      <trkpt lat="45.84631" lon="1.85981">
        <ele>640.2</ele>
        <time>2022-07-09T17:20:24Z</time>
      </trkpt>
      <trkpt lat="45.84622" lon="1.85977">
        <ele>638.6</ele>
        <time>2022-07-09T17:20:26Z</time>
      </trkpt>
      <trkpt lat="45.84618" lon="1.85976">
        <ele>637.8</ele>
        <time>2022-07-09T17:20:27Z</time>
      </trkpt>
      <trkpt lat="45.84614" lon="1.85975">
        <ele>637.4</ele>
        <time>2022-07-09T17:20:28Z</time>
      </trkpt>
      <trkpt lat="45.84601" lon="1.85971">
        <ele>636.8</ele>
        <time>2022-07-09T17:20:32Z</time>
      </trkpt>
      <trkpt lat="45.84582" lon="1.85966">
        <ele>637</ele>
        <time>2022-07-09T17:20:37Z</time>
      </trkpt>
      <trkpt lat="45.84555" lon="1.85957">
        <ele>637.8</ele>
        <time>2022-07-09T17:20:44Z</time>
      </trkpt>
      <trkpt lat="45.84529" lon="1.85948">
        <ele>637.8</ele>
        <time>2022-07-09T17:20:50Z</time>
      </trkpt>
      <trkpt lat="45.84525" lon="1.85945">
        <ele>637.8</ele>
        <time>2022-07-09T17:20:51Z</time>
      </trkpt>
      <trkpt lat="45.84516" lon="1.85943">
        <ele>637.8</ele>
        <time>2022-07-09T17:20:53Z</time>
      </trkpt>
      <trkpt lat="45.84477" lon="1.8594">
        <ele>637.2</ele>
        <time>2022-07-09T17:21:00Z</time>
      </trkpt>
      <trkpt lat="45.84433" lon="1.85941">
        <ele>636.2</ele>
        <time>2022-07-09T17:21:08Z</time>
      </trkpt>
      <trkpt lat="45.84379" lon="1.85941">
        <ele>635</ele>
        <time>2022-07-09T17:21:17Z</time>
      </trkpt>
      <trkpt lat="45.84366" lon="1.85941">
        <ele>634.8</ele>
        <time>2022-07-09T17:21:19Z</time>
      </trkpt>
      <trkpt lat="45.8436" lon="1.85943">
        <ele>634.6</ele>
        <time>2022-07-09T17:21:20Z</time>
      </trkpt>
      <trkpt lat="45.84347" lon="1.85949">
        <ele>634.4</ele>
        <time>2022-07-09T17:21:22Z</time>
      </trkpt>
      <trkpt lat="45.84341" lon="1.85954">
        <ele>634</ele>
        <time>2022-07-09T17:21:23Z</time>
      </trkpt>
      <trkpt lat="45.84335" lon="1.8596">
        <ele>634</ele>
        <time>2022-07-09T17:21:24Z</time>
      </trkpt>
      <trkpt lat="45.84312" lon="1.85989">
        <ele>633.2</ele>
        <time>2022-07-09T17:21:28Z</time>
      </trkpt>
      <trkpt lat="45.84306" lon="1.85997">
        <ele>632.8</ele>
        <time>2022-07-09T17:21:29Z</time>
      </trkpt>
      <trkpt lat="45.8428" lon="1.86028">
        <ele>631.4</ele>
        <time>2022-07-09T17:21:33Z</time>
      </trkpt>
      <trkpt lat="45.84272" lon="1.86033">
        <ele>630.8</ele>
        <time>2022-07-09T17:21:34Z</time>
      </trkpt>
      <trkpt lat="45.84265" lon="1.86036">
        <ele>630.4</ele>
        <time>2022-07-09T17:21:35Z</time>
      </trkpt>
      <trkpt lat="45.84244" lon="1.86041">
        <ele>629.2</ele>
        <time>2022-07-09T17:21:38Z</time>
      </trkpt>
      <trkpt lat="45.84217" lon="1.86042">
        <ele>628.8</ele>
        <time>2022-07-09T17:21:43Z</time>
      </trkpt>
      <trkpt lat="45.84199" lon="1.86044">
        <ele>628.8</ele>
        <time>2022-07-09T17:21:48Z</time>
      </trkpt>
      <trkpt lat="45.8418" lon="1.86049">
        <ele>630</ele>
        <time>2022-07-09T17:21:54Z</time>
      </trkpt>
      <trkpt lat="45.84167" lon="1.86056">
        <ele>630.4</ele>
        <time>2022-07-09T17:21:58Z</time>
      </trkpt>
      <trkpt lat="45.84156" lon="1.86061">
        <ele>630.8</ele>
        <time>2022-07-09T17:22:01Z</time>
      </trkpt>
      <trkpt lat="45.84141" lon="1.86067">
        <ele>631.4</ele>
        <time>2022-07-09T17:22:05Z</time>
      </trkpt>
      <trkpt lat="45.8413" lon="1.86072">
        <ele>632</ele>
        <time>2022-07-09T17:22:08Z</time>
      </trkpt>
      <trkpt lat="45.84113" lon="1.86078">
        <ele>632.4</ele>
        <time>2022-07-09T17:22:13Z</time>
      </trkpt>
      <trkpt lat="45.84106" lon="1.86079">
        <ele>632.6</ele>
        <time>2022-07-09T17:22:15Z</time>
      </trkpt>
      <trkpt lat="45.84087" lon="1.86084">
        <ele>633.4</ele>
        <time>2022-07-09T17:22:21Z</time>
      </trkpt>
      <trkpt lat="45.84076" lon="1.86087">
        <ele>633.8</ele>
        <time>2022-07-09T17:22:24Z</time>
      </trkpt>
      <trkpt lat="45.84053" lon="1.86095">
        <ele>634.4</ele>
        <time>2022-07-09T17:22:30Z</time>
      </trkpt>
      <trkpt lat="45.84036" lon="1.86103">
        <ele>634.2</ele>
        <time>2022-07-09T17:22:34Z</time>
      </trkpt>
      <trkpt lat="45.84027" lon="1.86105">
        <ele>634.2</ele>
        <time>2022-07-09T17:22:36Z</time>
      </trkpt>
      <trkpt lat="45.84015" lon="1.86102">
        <ele>633.8</ele>
        <time>2022-07-09T17:22:39Z</time>
      </trkpt>
      <trkpt lat="45.84008" lon="1.86098">
        <ele>633.8</ele>
        <time>2022-07-09T17:22:41Z</time>
      </trkpt>
      <trkpt lat="45.83992" lon="1.86086">
        <ele>633.8</ele>
        <time>2022-07-09T17:22:47Z</time>
      </trkpt>
      <trkpt lat="45.83977" lon="1.86079">
        <ele>634.6</ele>
        <time>2022-07-09T17:22:54Z</time>
      </trkpt>
      <trkpt lat="45.83975" lon="1.86079">
        <ele>634.8</ele>
        <time>2022-07-09T17:22:55Z</time>
      </trkpt>
      <trkpt lat="45.83965" lon="1.86077">
        <ele>635.4</ele>
        <time>2022-07-09T17:23:00Z</time>
      </trkpt>
      <trkpt lat="45.83955" lon="1.86077">
        <ele>635.8</ele>
        <time>2022-07-09T17:23:05Z</time>
      </trkpt>
      <trkpt lat="45.83949" lon="1.86078">
        <ele>636.2</ele>
        <time>2022-07-09T17:23:08Z</time>
      </trkpt>
      <trkpt lat="45.83939" lon="1.86081">
        <ele>637</ele>
        <time>2022-07-09T17:23:14Z</time>
      </trkpt>
      <trkpt lat="45.83937" lon="1.86081">
        <ele>637.4</ele>
        <time>2022-07-09T17:23:15Z</time>
      </trkpt>
      <trkpt lat="45.83932" lon="1.86084">
        <ele>638</ele>
        <time>2022-07-09T17:23:19Z</time>
      </trkpt>
      <trkpt lat="45.83926" lon="1.86087">
        <ele>639</ele>
        <time>2022-07-09T17:23:24Z</time>
      </trkpt>
      <trkpt lat="45.83926" lon="1.86087">
        <ele>639.2</ele>
        <time>2022-07-09T17:23:25Z</time>
      </trkpt>
      <trkpt lat="45.83918" lon="1.86091">
        <ele>640.2</ele>
        <time>2022-07-09T17:23:31Z</time>
      </trkpt>
      <trkpt lat="45.83916" lon="1.86092">
        <ele>640.2</ele>
        <time>2022-07-09T17:23:32Z</time>
      </trkpt>
      <trkpt lat="45.83907" lon="1.86096">
        <ele>641.4</ele>
        <time>2022-07-09T17:23:38Z</time>
      </trkpt>
      <trkpt lat="45.83905" lon="1.86097">
        <ele>641.6</ele>
        <time>2022-07-09T17:23:39Z</time>
      </trkpt>
      <trkpt lat="45.83896" lon="1.861">
        <ele>642.2</ele>
        <time>2022-07-09T17:23:45Z</time>
      </trkpt>
      <trkpt lat="45.83892" lon="1.86102">
        <ele>642.6</ele>
        <time>2022-07-09T17:23:48Z</time>
      </trkpt>
      <trkpt lat="45.83883" lon="1.86105">
        <ele>643.8</ele>
        <time>2022-07-09T17:23:55Z</time>
      </trkpt>
      <trkpt lat="45.83867" lon="1.86108">
        <ele>645</ele>
        <time>2022-07-09T17:24:06Z</time>
      </trkpt>
      <trkpt lat="45.83859" lon="1.8611">
        <ele>645.6</ele>
        <time>2022-07-09T17:24:11Z</time>
      </trkpt>
      <trkpt lat="45.83856" lon="1.86112">
        <ele>646</ele>
        <time>2022-07-09T17:24:13Z</time>
      </trkpt>
      <trkpt lat="45.83854" lon="1.86111">
        <ele>646</ele>
        <time>2022-07-09T17:24:14Z</time>
      </trkpt>
      <trkpt lat="45.83844" lon="1.86114">
        <ele>646.6</ele>
        <time>2022-07-09T17:24:20Z</time>
      </trkpt>
      <trkpt lat="45.83837" lon="1.86117">
        <ele>647.2</ele>
        <time>2022-07-09T17:24:24Z</time>
      </trkpt>
      <trkpt lat="45.83825" lon="1.86121">
        <ele>648</ele>
        <time>2022-07-09T17:24:30Z</time>
      </trkpt>
      <trkpt lat="45.83818" lon="1.86123">
        <ele>648.4</ele>
        <time>2022-07-09T17:24:33Z</time>
      </trkpt>
      <trkpt lat="45.83804" lon="1.86127">
        <ele>649.2</ele>
        <time>2022-07-09T17:24:38Z</time>
      </trkpt>
      <trkpt lat="45.83798" lon="1.86128">
        <ele>649.4</ele>
        <time>2022-07-09T17:24:40Z</time>
      </trkpt>
      <trkpt lat="45.83796" lon="1.86129">
        <ele>649.6</ele>
        <time>2022-07-09T17:24:41Z</time>
      </trkpt>
      <trkpt lat="45.83787" lon="1.86132">
        <ele>650</ele>
        <time>2022-07-09T17:24:44Z</time>
      </trkpt>
      <trkpt lat="45.83769" lon="1.86137">
        <ele>650.6</ele>
        <time>2022-07-09T17:24:50Z</time>
      </trkpt>
      <trkpt lat="45.83766" lon="1.86138">
        <ele>650.6</ele>
        <time>2022-07-09T17:24:51Z</time>
      </trkpt>
      <trkpt lat="45.8375" lon="1.86143">
        <ele>651</ele>
        <time>2022-07-09T17:24:56Z</time>
      </trkpt>
      <trkpt lat="45.83743" lon="1.86144">
        <ele>651.6</ele>
        <time>2022-07-09T17:24:58Z</time>
      </trkpt>
      <trkpt lat="45.8374" lon="1.86145">
        <ele>651.6</ele>
        <time>2022-07-09T17:24:59Z</time>
      </trkpt>
      <trkpt lat="45.83726" lon="1.86151">
        <ele>652.8</ele>
        <time>2022-07-09T17:25:04Z</time>
      </trkpt>
      <trkpt lat="45.83718" lon="1.86155">
        <ele>653.2</ele>
        <time>2022-07-09T17:25:06Z</time>
      </trkpt>
      <trkpt lat="45.83691" lon="1.86171">
        <ele>653.6</ele>
        <time>2022-07-09T17:25:13Z</time>
      </trkpt>
      <trkpt lat="45.8368" lon="1.86176">
        <ele>653.6</ele>
        <time>2022-07-09T17:25:15Z</time>
      </trkpt>
      <trkpt lat="45.83664" lon="1.86179">
        <ele>653.2</ele>
        <time>2022-07-09T17:25:18Z</time>
      </trkpt>
      <trkpt lat="45.83633" lon="1.86184">
        <ele>652.2</ele>
        <time>2022-07-09T17:25:23Z</time>
      </trkpt>
      <trkpt lat="45.83614" lon="1.86188">
        <ele>651.6</ele>
        <time>2022-07-09T17:25:26Z</time>
      </trkpt>
      <trkpt lat="45.83583" lon="1.86193">
        <ele>650.6</ele>
        <time>2022-07-09T17:25:31Z</time>
      </trkpt>
      <trkpt lat="45.83576" lon="1.86194">
        <ele>650.4</ele>
        <time>2022-07-09T17:25:32Z</time>
      </trkpt>
      <trkpt lat="45.8355" lon="1.86199">
        <ele>649.6</ele>
        <time>2022-07-09T17:25:36Z</time>
      </trkpt>
      <trkpt lat="45.83506" lon="1.86205">
        <ele>648.8</ele>
        <time>2022-07-09T17:25:43Z</time>
      </trkpt>
      <trkpt lat="45.835" lon="1.86205">
        <ele>648.8</ele>
        <time>2022-07-09T17:25:44Z</time>
      </trkpt>
      <trkpt lat="45.83467" lon="1.86204">
        <ele>648.6</ele>
        <time>2022-07-09T17:25:50Z</time>
      </trkpt>
      <trkpt lat="45.83445" lon="1.86204">
        <ele>648.4</ele>
        <time>2022-07-09T17:25:54Z</time>
      </trkpt>
      <trkpt lat="45.83435" lon="1.86206">
        <ele>648.4</ele>
        <time>2022-07-09T17:25:56Z</time>
      </trkpt>
      <trkpt lat="45.83425" lon="1.8621">
        <ele>648.4</ele>
        <time>2022-07-09T17:25:58Z</time>
      </trkpt>
      <trkpt lat="45.83416" lon="1.86214">
        <ele>648.4</ele>
        <time>2022-07-09T17:26:00Z</time>
      </trkpt>
      <trkpt lat="45.83411" lon="1.86215">
        <ele>648.4</ele>
        <time>2022-07-09T17:26:01Z</time>
      </trkpt>
      <trkpt lat="45.83406" lon="1.86214">
        <ele>648.4</ele>
        <time>2022-07-09T17:26:02Z</time>
      </trkpt>
      <trkpt lat="45.834" lon="1.86207">
        <ele>648.2</ele>
        <time>2022-07-09T17:26:04Z</time>
      </trkpt>
      <trkpt lat="45.83397" lon="1.8619">
        <ele>648.2</ele>
        <time>2022-07-09T17:26:08Z</time>
      </trkpt>
      <trkpt lat="45.83396" lon="1.8616">
        <ele>649.2</ele>
        <time>2022-07-09T17:26:15Z</time>
      </trkpt>
      <trkpt lat="45.83398" lon="1.86145">
        <ele>650</ele>
        <time>2022-07-09T17:26:18Z</time>
      </trkpt>
      <trkpt lat="45.83398" lon="1.86132">
        <ele>650.2</ele>
        <time>2022-07-09T17:26:20Z</time>
      </trkpt>
      <trkpt lat="45.83399" lon="1.86126">
        <ele>650.2</ele>
        <time>2022-07-09T17:26:21Z</time>
      </trkpt>
      <trkpt lat="45.834" lon="1.86089">
        <ele>650</ele>
        <time>2022-07-09T17:26:26Z</time>
      </trkpt>
      <trkpt lat="45.83398" lon="1.86081">
        <ele>650</ele>
        <time>2022-07-09T17:26:27Z</time>
      </trkpt>
      <trkpt lat="45.83396" lon="1.86075">
        <ele>649.8</ele>
        <time>2022-07-09T17:26:28Z</time>
      </trkpt>
      <trkpt lat="45.83385" lon="1.86057">
        <ele>649.6</ele>
        <time>2022-07-09T17:26:31Z</time>
      </trkpt>
      <trkpt lat="45.83381" lon="1.86052">
        <ele>649.4</ele>
        <time>2022-07-09T17:26:32Z</time>
      </trkpt>
      <trkpt lat="45.8337" lon="1.86046">
        <ele>649</ele>
        <time>2022-07-09T17:26:34Z</time>
      </trkpt>
      <trkpt lat="45.83366" lon="1.86042">
        <ele>648.8</ele>
        <time>2022-07-09T17:26:35Z</time>
      </trkpt>
      <trkpt lat="45.83358" lon="1.86031">
        <ele>648.6</ele>
        <time>2022-07-09T17:26:37Z</time>
      </trkpt>
      <trkpt lat="45.83352" lon="1.86018">
        <ele>648.4</ele>
        <time>2022-07-09T17:26:39Z</time>
      </trkpt>
      <trkpt lat="45.83347" lon="1.86005">
        <ele>648.2</ele>
        <time>2022-07-09T17:26:41Z</time>
      </trkpt>
      <trkpt lat="45.83346" lon="1.85998">
        <ele>648</ele>
        <time>2022-07-09T17:26:42Z</time>
      </trkpt>
      <trkpt lat="45.83342" lon="1.85983">
        <ele>648</ele>
        <time>2022-07-09T17:26:44Z</time>
      </trkpt>
      <trkpt lat="45.83328" lon="1.85947">
        <ele>647.4</ele>
        <time>2022-07-09T17:26:48Z</time>
      </trkpt>
      <trkpt lat="45.83318" lon="1.85919">
        <ele>646.8</ele>
        <time>2022-07-09T17:26:51Z</time>
      </trkpt>
      <trkpt lat="45.83315" lon="1.85911">
        <ele>646.4</ele>
        <time>2022-07-09T17:26:52Z</time>
      </trkpt>
      <trkpt lat="45.8331" lon="1.85906">
        <ele>645.2</ele>
        <time>2022-07-09T17:26:53Z</time>
      </trkpt>
      <trkpt lat="45.83304" lon="1.85902">
        <ele>644.4</ele>
        <time>2022-07-09T17:26:54Z</time>
      </trkpt>
      <trkpt lat="45.83297" lon="1.859">
        <ele>643</ele>
        <time>2022-07-09T17:26:55Z</time>
      </trkpt>
      <trkpt lat="45.8329" lon="1.85898">
        <ele>641.6</ele>
        <time>2022-07-09T17:26:56Z</time>
      </trkpt>
      <trkpt lat="45.83273" lon="1.85889">
        <ele>640.4</ele>
        <time>2022-07-09T17:26:58Z</time>
      </trkpt>
      <trkpt lat="45.83266" lon="1.85882">
        <ele>640.2</ele>
        <time>2022-07-09T17:26:59Z</time>
      </trkpt>
      <trkpt lat="45.8326" lon="1.85872">
        <ele>639.6</ele>
        <time>2022-07-09T17:27:00Z</time>
      </trkpt>
      <trkpt lat="45.83256" lon="1.85861">
        <ele>639.2</ele>
        <time>2022-07-09T17:27:01Z</time>
      </trkpt>
      <trkpt lat="45.83253" lon="1.85848">
        <ele>638.2</ele>
        <time>2022-07-09T17:27:02Z</time>
      </trkpt>
      <trkpt lat="45.83253" lon="1.85835">
        <ele>637</ele>
        <time>2022-07-09T17:27:03Z</time>
      </trkpt>
      <trkpt lat="45.83254" lon="1.85809">
        <ele>635.6</ele>
        <time>2022-07-09T17:27:05Z</time>
      </trkpt>
      <trkpt lat="45.83255" lon="1.85787">
        <ele>633.4</ele>
        <time>2022-07-09T17:27:07Z</time>
      </trkpt>
      <trkpt lat="45.83254" lon="1.85766">
        <ele>632</ele>
        <time>2022-07-09T17:27:09Z</time>
      </trkpt>
      <trkpt lat="45.83252" lon="1.85756">
        <ele>631</ele>
        <time>2022-07-09T17:27:10Z</time>
      </trkpt>
      <trkpt lat="45.8325" lon="1.85747">
        <ele>630.8</ele>
        <time>2022-07-09T17:27:11Z</time>
      </trkpt>
      <trkpt lat="45.83243" lon="1.85729">
        <ele>630.2</ele>
        <time>2022-07-09T17:27:13Z</time>
      </trkpt>
      <trkpt lat="45.83229" lon="1.85703">
        <ele>630</ele>
        <time>2022-07-09T17:27:17Z</time>
      </trkpt>
      <trkpt lat="45.83205" lon="1.8567">
        <ele>630</ele>
        <time>2022-07-09T17:27:24Z</time>
      </trkpt>
      <trkpt lat="45.83202" lon="1.85666">
        <ele>630.2</ele>
        <time>2022-07-09T17:27:25Z</time>
      </trkpt>
      <trkpt lat="45.83188" lon="1.85645">
        <ele>630.2</ele>
        <time>2022-07-09T17:27:29Z</time>
      </trkpt>
      <trkpt lat="45.83167" lon="1.85618">
        <ele>630.8</ele>
        <time>2022-07-09T17:27:35Z</time>
      </trkpt>
      <trkpt lat="45.83156" lon="1.85607">
        <ele>631.2</ele>
        <time>2022-07-09T17:27:38Z</time>
      </trkpt>
      <trkpt lat="45.83143" lon="1.85591">
        <ele>631.4</ele>
        <time>2022-07-09T17:27:42Z</time>
      </trkpt>
      <trkpt lat="45.83118" lon="1.85569">
        <ele>631.6</ele>
        <time>2022-07-09T17:27:48Z</time>
      </trkpt>
      <trkpt lat="45.83115" lon="1.85564">
        <ele>631.6</ele>
        <time>2022-07-09T17:27:49Z</time>
      </trkpt>
      <trkpt lat="45.83113" lon="1.85554">
        <ele>631.8</ele>
        <time>2022-07-09T17:27:51Z</time>
      </trkpt>
      <trkpt lat="45.83107" lon="1.85533">
        <ele>632</ele>
        <time>2022-07-09T17:27:55Z</time>
      </trkpt>
      <trkpt lat="45.83106" lon="1.85527">
        <ele>632.2</ele>
        <time>2022-07-09T17:27:56Z</time>
      </trkpt>
      <trkpt lat="45.83099" lon="1.85501">
        <ele>633</ele>
        <time>2022-07-09T17:28:00Z</time>
      </trkpt>
      <trkpt lat="45.83097" lon="1.85489">
        <ele>633.4</ele>
        <time>2022-07-09T17:28:02Z</time>
      </trkpt>
      <trkpt lat="45.83094" lon="1.85463">
        <ele>634</ele>
        <time>2022-07-09T17:28:07Z</time>
      </trkpt>
      <trkpt lat="45.83092" lon="1.85457">
        <ele>634</ele>
        <time>2022-07-09T17:28:08Z</time>
      </trkpt>
      <trkpt lat="45.83088" lon="1.85432">
        <ele>634.6</ele>
        <time>2022-07-09T17:28:13Z</time>
      </trkpt>
      <trkpt lat="45.83085" lon="1.85406">
        <ele>635.2</ele>
        <time>2022-07-09T17:28:18Z</time>
      </trkpt>
      <trkpt lat="45.83078" lon="1.85372">
        <ele>636</ele>
        <time>2022-07-09T17:28:24Z</time>
      </trkpt>
      <trkpt lat="45.83077" lon="1.85362">
        <ele>636.4</ele>
        <time>2022-07-09T17:28:26Z</time>
      </trkpt>
      <trkpt lat="45.83078" lon="1.85328">
        <ele>636.8</ele>
        <time>2022-07-09T17:28:32Z</time>
      </trkpt>
      <trkpt lat="45.83083" lon="1.85295">
        <ele>637.4</ele>
        <time>2022-07-09T17:28:38Z</time>
      </trkpt>
      <trkpt lat="45.83088" lon="1.85273">
        <ele>637.6</ele>
        <time>2022-07-09T17:28:42Z</time>
      </trkpt>
      <trkpt lat="45.83098" lon="1.8523">
        <ele>637.6</ele>
        <time>2022-07-09T17:28:50Z</time>
      </trkpt>
      <trkpt lat="45.83098" lon="1.85225">
        <ele>637.6</ele>
        <time>2022-07-09T17:28:51Z</time>
      </trkpt>
      <trkpt lat="45.83094" lon="1.85215">
        <ele>637.6</ele>
        <time>2022-07-09T17:28:53Z</time>
      </trkpt>
      <trkpt lat="45.83083" lon="1.85204">
        <ele>637.8</ele>
        <time>2022-07-09T17:28:57Z</time>
      </trkpt>
      <trkpt lat="45.83056" lon="1.85192">
        <ele>638.6</ele>
        <time>2022-07-09T17:29:05Z</time>
      </trkpt>
      <trkpt lat="45.83046" lon="1.85185">
        <ele>639.2</ele>
        <time>2022-07-09T17:29:10Z</time>
      </trkpt>
      <trkpt lat="45.83037" lon="1.85181">
        <ele>639.8</ele>
        <time>2022-07-09T17:29:15Z</time>
      </trkpt>
      <trkpt lat="45.83024" lon="1.85175">
        <ele>640.8</ele>
        <time>2022-07-09T17:29:22Z</time>
      </trkpt>
      <trkpt lat="45.83022" lon="1.85174">
        <ele>640.8</ele>
        <time>2022-07-09T17:29:23Z</time>
      </trkpt>
      <trkpt lat="45.83012" lon="1.85171">
        <ele>641.6</ele>
        <time>2022-07-09T17:29:29Z</time>
      </trkpt>
      <trkpt lat="45.83011" lon="1.8517">
        <ele>642.2</ele>
        <time>2022-07-09T17:29:30Z</time>
      </trkpt>
      <trkpt lat="45.82995" lon="1.85161">
        <ele>643</ele>
        <time>2022-07-09T17:29:37Z</time>
      </trkpt>
      <trkpt lat="45.82993" lon="1.8516">
        <ele>642.8</ele>
        <time>2022-07-09T17:29:38Z</time>
      </trkpt>
      <trkpt lat="45.82978" lon="1.85155">
        <ele>643.8</ele>
        <time>2022-07-09T17:29:47Z</time>
      </trkpt>
      <trkpt lat="45.82972" lon="1.85146">
        <ele>644.4</ele>
        <time>2022-07-09T17:29:51Z</time>
      </trkpt>
      <trkpt lat="45.82969" lon="1.85143">
        <ele>645</ele>
        <time>2022-07-09T17:29:53Z</time>
      </trkpt>
      <trkpt lat="45.82964" lon="1.85139">
        <ele>646</ele>
        <time>2022-07-09T17:29:57Z</time>
      </trkpt>
      <trkpt lat="45.82959" lon="1.85133">
        <ele>646.4</ele>
        <time>2022-07-09T17:30:01Z</time>
      </trkpt>
      <trkpt lat="45.82952" lon="1.85124">
        <ele>646.6</ele>
        <time>2022-07-09T17:30:09Z</time>
      </trkpt>
      <trkpt lat="45.82947" lon="1.85119">
        <ele>647</ele>
        <time>2022-07-09T17:30:13Z</time>
      </trkpt>
      <trkpt lat="45.8294" lon="1.8511">
        <ele>647.2</ele>
        <time>2022-07-09T17:30:17Z</time>
      </trkpt>
      <trkpt lat="45.82929" lon="1.85097">
        <ele>648</ele>
        <time>2022-07-09T17:30:22Z</time>
      </trkpt>
      <trkpt lat="45.82924" lon="1.85091">
        <ele>648.8</ele>
        <time>2022-07-09T17:30:25Z</time>
      </trkpt>
      <trkpt lat="45.82922" lon="1.85086">
        <ele>649</ele>
        <time>2022-07-09T17:30:27Z</time>
      </trkpt>
      <trkpt lat="45.82919" lon="1.85084">
        <ele>649.2</ele>
        <time>2022-07-09T17:30:28Z</time>
      </trkpt>
      <trkpt lat="45.82906" lon="1.85069">
        <ele>650</ele>
        <time>2022-07-09T17:30:33Z</time>
      </trkpt>
      <trkpt lat="45.82898" lon="1.8506">
        <ele>650.4</ele>
        <time>2022-07-09T17:30:36Z</time>
      </trkpt>
      <trkpt lat="45.82889" lon="1.85049">
        <ele>651</ele>
        <time>2022-07-09T17:30:41Z</time>
      </trkpt>
      <trkpt lat="45.82883" lon="1.8504">
        <ele>651.6</ele>
        <time>2022-07-09T17:30:45Z</time>
      </trkpt>
      <trkpt lat="45.82878" lon="1.85032">
        <ele>651.8</ele>
        <time>2022-07-09T17:30:48Z</time>
      </trkpt>
      <trkpt lat="45.82871" lon="1.85023">
        <ele>652.6</ele>
        <time>2022-07-09T17:30:53Z</time>
      </trkpt>
      <trkpt lat="45.82869" lon="1.8502">
        <ele>652.6</ele>
        <time>2022-07-09T17:30:54Z</time>
      </trkpt>
      <trkpt lat="45.82854" lon="1.85006">
        <ele>653.4</ele>
        <time>2022-07-09T17:31:00Z</time>
      </trkpt>
      <trkpt lat="45.82852" lon="1.85004">
        <ele>653.8</ele>
        <time>2022-07-09T17:31:01Z</time>
      </trkpt>
      <trkpt lat="45.8284" lon="1.84994">
        <ele>654.6</ele>
        <time>2022-07-09T17:31:06Z</time>
      </trkpt>
      <trkpt lat="45.82837" lon="1.8499">
        <ele>654.8</ele>
        <time>2022-07-09T17:31:08Z</time>
      </trkpt>
      <trkpt lat="45.82818" lon="1.84971">
        <ele>655.6</ele>
        <time>2022-07-09T17:31:15Z</time>
      </trkpt>
      <trkpt lat="45.82816" lon="1.84969">
        <ele>655.8</ele>
        <time>2022-07-09T17:31:16Z</time>
      </trkpt>
      <trkpt lat="45.82802" lon="1.84961">
        <ele>656.6</ele>
        <time>2022-07-09T17:31:22Z</time>
      </trkpt>
      <trkpt lat="45.828" lon="1.8496">
        <ele>656.8</ele>
        <time>2022-07-09T17:31:23Z</time>
      </trkpt>
      <trkpt lat="45.82798" lon="1.84959">
        <ele>657</ele>
        <time>2022-07-09T17:31:24Z</time>
      </trkpt>
      <trkpt lat="45.82781" lon="1.84945">
        <ele>657.6</ele>
        <time>2022-07-09T17:31:30Z</time>
      </trkpt>
      <trkpt lat="45.82761" lon="1.84931">
        <ele>658</ele>
        <time>2022-07-09T17:31:36Z</time>
      </trkpt>
      <trkpt lat="45.82732" lon="1.84912">
        <ele>659.4</ele>
        <time>2022-07-09T17:31:44Z</time>
      </trkpt>
      <trkpt lat="45.82708" lon="1.84894">
        <ele>660.2</ele>
        <time>2022-07-09T17:31:53Z</time>
      </trkpt>
      <trkpt lat="45.82696" lon="1.84886">
        <ele>660.4</ele>
        <time>2022-07-09T17:31:57Z</time>
      </trkpt>
      <trkpt lat="45.82685" lon="1.84879">
        <ele>660.8</ele>
        <time>2022-07-09T17:32:01Z</time>
      </trkpt>
      <trkpt lat="45.82668" lon="1.84866">
        <ele>661.2</ele>
        <time>2022-07-09T17:32:08Z</time>
      </trkpt>
      <trkpt lat="45.82662" lon="1.84862">
        <ele>661.6</ele>
        <time>2022-07-09T17:32:10Z</time>
      </trkpt>
      <trkpt lat="45.82646" lon="1.84851">
        <ele>662.2</ele>
        <time>2022-07-09T17:32:16Z</time>
      </trkpt>
      <trkpt lat="45.82631" lon="1.8484">
        <ele>662.6</ele>
        <time>2022-07-09T17:32:21Z</time>
      </trkpt>
      <trkpt lat="45.82618" lon="1.84831">
        <ele>663.4</ele>
        <time>2022-07-09T17:32:26Z</time>
      </trkpt>
      <trkpt lat="45.82607" lon="1.84825">
        <ele>663.6</ele>
        <time>2022-07-09T17:32:30Z</time>
      </trkpt>
      <trkpt lat="45.82598" lon="1.84818">
        <ele>664.2</ele>
        <time>2022-07-09T17:32:34Z</time>
      </trkpt>
      <trkpt lat="45.82587" lon="1.84811">
        <ele>664.6</ele>
        <time>2022-07-09T17:32:38Z</time>
      </trkpt>
      <trkpt lat="45.82575" lon="1.84802">
        <ele>665.4</ele>
        <time>2022-07-09T17:32:43Z</time>
      </trkpt>
      <trkpt lat="45.82567" lon="1.84796">
        <ele>665.8</ele>
        <time>2022-07-09T17:32:46Z</time>
      </trkpt>
      <trkpt lat="45.82559" lon="1.84792">
        <ele>666</ele>
        <time>2022-07-09T17:32:49Z</time>
      </trkpt>
      <trkpt lat="45.82542" lon="1.84782">
        <ele>666.8</ele>
        <time>2022-07-09T17:32:55Z</time>
      </trkpt>
      <trkpt lat="45.82529" lon="1.84775">
        <ele>667</ele>
        <time>2022-07-09T17:32:59Z</time>
      </trkpt>
      <trkpt lat="45.82511" lon="1.84762">
        <ele>667.4</ele>
        <time>2022-07-09T17:33:05Z</time>
      </trkpt>
      <trkpt lat="45.82496" lon="1.84741">
        <ele>667.8</ele>
        <time>2022-07-09T17:33:10Z</time>
      </trkpt>
      <trkpt lat="45.82488" lon="1.84725">
        <ele>667.8</ele>
        <time>2022-07-09T17:33:13Z</time>
      </trkpt>
      <trkpt lat="45.82484" lon="1.84713">
        <ele>667.8</ele>
        <time>2022-07-09T17:33:15Z</time>
      </trkpt>
      <trkpt lat="45.82483" lon="1.84707">
        <ele>667.8</ele>
        <time>2022-07-09T17:33:16Z</time>
      </trkpt>
      <trkpt lat="45.82471" lon="1.84658">
        <ele>667.8</ele>
        <time>2022-07-09T17:33:24Z</time>
      </trkpt>
      <trkpt lat="45.82466" lon="1.8464">
        <ele>667.6</ele>
        <time>2022-07-09T17:33:27Z</time>
      </trkpt>
      <trkpt lat="45.82465" lon="1.84634">
        <ele>667.6</ele>
        <time>2022-07-09T17:33:28Z</time>
      </trkpt>
      <trkpt lat="45.8246" lon="1.84617">
        <ele>667.6</ele>
        <time>2022-07-09T17:33:31Z</time>
      </trkpt>
      <trkpt lat="45.82443" lon="1.84572">
        <ele>667.2</ele>
        <time>2022-07-09T17:33:39Z</time>
      </trkpt>
      <trkpt lat="45.82432" lon="1.84555">
        <ele>667.2</ele>
        <time>2022-07-09T17:33:43Z</time>
      </trkpt>
      <trkpt lat="45.8242" lon="1.84539">
        <ele>667.6</ele>
        <time>2022-07-09T17:33:47Z</time>
      </trkpt>
      <trkpt lat="45.82401" lon="1.84513">
        <ele>668.2</ele>
        <time>2022-07-09T17:33:53Z</time>
      </trkpt>
      <trkpt lat="45.82396" lon="1.84505">
        <ele>668.2</ele>
        <time>2022-07-09T17:33:55Z</time>
      </trkpt>
      <trkpt lat="45.82385" lon="1.84488">
        <ele>668.2</ele>
        <time>2022-07-09T17:33:59Z</time>
      </trkpt>
      <trkpt lat="45.82382" lon="1.84476">
        <ele>668.2</ele>
        <time>2022-07-09T17:34:01Z</time>
      </trkpt>
      <trkpt lat="45.82385" lon="1.84455">
        <ele>668.4</ele>
        <time>2022-07-09T17:34:05Z</time>
      </trkpt>
      <trkpt lat="45.82388" lon="1.84446">
        <ele>668.6</ele>
        <time>2022-07-09T17:34:07Z</time>
      </trkpt>
      <trkpt lat="45.82389" lon="1.84438">
        <ele>668.6</ele>
        <time>2022-07-09T17:34:09Z</time>
      </trkpt>
      <trkpt lat="45.82386" lon="1.84432">
        <ele>668.8</ele>
        <time>2022-07-09T17:34:11Z</time>
      </trkpt>
      <trkpt lat="45.82382" lon="1.84431">
        <ele>668.8</ele>
        <time>2022-07-09T17:34:12Z</time>
      </trkpt>
      <trkpt lat="45.8237" lon="1.84428">
        <ele>669.2</ele>
        <time>2022-07-09T17:34:15Z</time>
      </trkpt>
      <trkpt lat="45.82362" lon="1.84428">
        <ele>669.2</ele>
        <time>2022-07-09T17:34:17Z</time>
      </trkpt>
      <trkpt lat="45.82348" lon="1.84432">
        <ele>669.4</ele>
        <time>2022-07-09T17:34:21Z</time>
      </trkpt>
      <trkpt lat="45.82345" lon="1.84434">
        <ele>669.4</ele>
        <time>2022-07-09T17:34:22Z</time>
      </trkpt>
      <trkpt lat="45.82327" lon="1.84439">
        <ele>668.8</ele>
        <time>2022-07-09T17:34:27Z</time>
      </trkpt>
      <trkpt lat="45.82307" lon="1.84441">
        <ele>668</ele>
        <time>2022-07-09T17:34:32Z</time>
      </trkpt>
      <trkpt lat="45.82302" lon="1.84443">
        <ele>668</ele>
        <time>2022-07-09T17:34:33Z</time>
      </trkpt>
      <trkpt lat="45.82296" lon="1.84445">
        <ele>667.8</ele>
        <time>2022-07-09T17:34:34Z</time>
      </trkpt>
      <trkpt lat="45.82287" lon="1.84446">
        <ele>666.6</ele>
        <time>2022-07-09T17:34:37Z</time>
      </trkpt>
      <trkpt lat="45.82282" lon="1.84453">
        <ele>666</ele>
        <time>2022-07-09T17:34:40Z</time>
      </trkpt>
      <trkpt lat="45.82282" lon="1.84453">
        <ele>665.4</ele>
        <time>2022-07-09T17:34:41Z</time>
      </trkpt>
      <trkpt lat="45.82277" lon="1.84455">
        <ele>664.4</ele>
        <time>2022-07-09T17:34:44Z</time>
      </trkpt>
      <trkpt lat="45.82273" lon="1.84457">
        <ele>664.2</ele>
        <time>2022-07-09T17:34:45Z</time>
      </trkpt>
      <trkpt lat="45.82265" lon="1.84458">
        <ele>663.2</ele>
        <time>2022-07-09T17:34:48Z</time>
      </trkpt>
      <trkpt lat="45.82262" lon="1.84459">
        <ele>662.6</ele>
        <time>2022-07-09T17:34:51Z</time>
      </trkpt>
      <trkpt lat="45.82259" lon="1.8446">
        <ele>662.4</ele>
        <time>2022-07-09T17:34:52Z</time>
      </trkpt>
      <trkpt lat="45.8225" lon="1.84461">
        <ele>662.2</ele>
        <time>2022-07-09T17:34:54Z</time>
      </trkpt>
      <trkpt lat="45.82232" lon="1.84462">
        <ele>661.8</ele>
        <time>2022-07-09T17:34:58Z</time>
      </trkpt>
      <trkpt lat="45.82228" lon="1.84462">
        <ele>661.6</ele>
        <time>2022-07-09T17:34:59Z</time>
      </trkpt>
      <trkpt lat="45.82218" lon="1.84462">
        <ele>661.4</ele>
        <time>2022-07-09T17:35:01Z</time>
      </trkpt>
      <trkpt lat="45.82189" lon="1.8446">
        <ele>662</ele>
        <time>2022-07-09T17:35:09Z</time>
      </trkpt>
      <trkpt lat="45.82187" lon="1.8446">
        <ele>662</ele>
        <time>2022-07-09T17:35:10Z</time>
      </trkpt>
      <trkpt lat="45.82185" lon="1.8446">
        <ele>662.8</ele>
        <time>2022-07-09T17:35:14Z</time>
      </trkpt>
      <trkpt lat="45.82182" lon="1.84459">
        <ele>662.8</ele>
        <time>2022-07-09T17:35:15Z</time>
      </trkpt>
      <trkpt lat="45.82175" lon="1.84458">
        <ele>663</ele>
        <time>2022-07-09T17:35:17Z</time>
      </trkpt>
      <trkpt lat="45.82162" lon="1.84455">
        <ele>663.2</ele>
        <time>2022-07-09T17:35:19Z</time>
      </trkpt>
      <trkpt lat="45.82151" lon="1.84451">
        <ele>663.8</ele>
        <time>2022-07-09T17:35:21Z</time>
      </trkpt>
      <trkpt lat="45.82144" lon="1.84449">
        <ele>664</ele>
        <time>2022-07-09T17:35:23Z</time>
      </trkpt>
      <trkpt lat="45.82141" lon="1.84449">
        <ele>664.2</ele>
        <time>2022-07-09T17:35:24Z</time>
      </trkpt>
      <trkpt lat="45.8214" lon="1.84448">
        <ele>664.4</ele>
        <time>2022-07-09T17:35:25Z</time>
      </trkpt>
      <trkpt lat="45.82134" lon="1.84445">
        <ele>664.6</ele>
        <time>2022-07-09T17:35:27Z</time>
      </trkpt>
      <trkpt lat="45.82125" lon="1.84441">
        <ele>664.8</ele>
        <time>2022-07-09T17:35:29Z</time>
      </trkpt>
      <trkpt lat="45.82106" lon="1.84437">
        <ele>665</ele>
        <time>2022-07-09T17:35:32Z</time>
      </trkpt>
      <trkpt lat="45.82081" lon="1.84433">
        <ele>664.8</ele>
        <time>2022-07-09T17:35:36Z</time>
      </trkpt>
      <trkpt lat="45.82059" lon="1.84428">
        <ele>664.4</ele>
        <time>2022-07-09T17:35:41Z</time>
      </trkpt>
      <trkpt lat="45.82042" lon="1.84425">
        <ele>664.2</ele>
        <time>2022-07-09T17:35:46Z</time>
      </trkpt>
      <trkpt lat="45.82039" lon="1.84425">
        <ele>664</ele>
        <time>2022-07-09T17:35:47Z</time>
      </trkpt>
      <trkpt lat="45.82029" lon="1.84427">
        <ele>664.2</ele>
        <time>2022-07-09T17:35:52Z</time>
      </trkpt>
      <trkpt lat="45.82012" lon="1.8444">
        <ele>664.6</ele>
        <time>2022-07-09T17:35:59Z</time>
      </trkpt>
      <trkpt lat="45.8201" lon="1.84441">
        <ele>664.8</ele>
        <time>2022-07-09T17:36:00Z</time>
      </trkpt>
      <trkpt lat="45.81999" lon="1.84441">
        <ele>665</ele>
        <time>2022-07-09T17:36:03Z</time>
      </trkpt>
      <trkpt lat="45.81996" lon="1.84441">
        <ele>665</ele>
        <time>2022-07-09T17:36:04Z</time>
      </trkpt>
      <trkpt lat="45.81991" lon="1.84438">
        <ele>665.4</ele>
        <time>2022-07-09T17:36:06Z</time>
      </trkpt>
      <trkpt lat="45.81988" lon="1.84437">
        <ele>665.4</ele>
        <time>2022-07-09T17:36:07Z</time>
      </trkpt>
      <trkpt lat="45.81965" lon="1.84432">
        <ele>666.2</ele>
        <time>2022-07-09T17:36:13Z</time>
      </trkpt>
      <trkpt lat="45.81937" lon="1.84424">
        <ele>666</ele>
        <time>2022-07-09T17:36:20Z</time>
      </trkpt>
      <trkpt lat="45.81921" lon="1.84418">
        <ele>665.8</ele>
        <time>2022-07-09T17:36:25Z</time>
      </trkpt>
      <trkpt lat="45.8192" lon="1.84417">
        <ele>665.8</ele>
        <time>2022-07-09T17:36:26Z</time>
      </trkpt>
      <trkpt lat="45.8191" lon="1.8441">
        <ele>665.4</ele>
        <time>2022-07-09T17:36:29Z</time>
      </trkpt>
      <trkpt lat="45.81886" lon="1.84395">
        <ele>664.8</ele>
        <time>2022-07-09T17:36:33Z</time>
      </trkpt>
      <trkpt lat="45.81863" lon="1.84383">
        <ele>664.2</ele>
        <time>2022-07-09T17:36:37Z</time>
      </trkpt>
      <trkpt lat="45.8185" lon="1.8438">
        <ele>663.4</ele>
        <time>2022-07-09T17:36:39Z</time>
      </trkpt>
      <trkpt lat="45.81846" lon="1.84379">
        <ele>662.8</ele>
        <time>2022-07-09T17:36:40Z</time>
      </trkpt>
      <trkpt lat="45.81838" lon="1.84376">
        <ele>661.4</ele>
        <time>2022-07-09T17:36:42Z</time>
      </trkpt>
      <trkpt lat="45.81832" lon="1.84372">
        <ele>661.2</ele>
        <time>2022-07-09T17:36:43Z</time>
      </trkpt>
      <trkpt lat="45.81829" lon="1.84371">
        <ele>660.2</ele>
        <time>2022-07-09T17:36:44Z</time>
      </trkpt>
      <trkpt lat="45.8182" lon="1.84369">
        <ele>658.8</ele>
        <time>2022-07-09T17:36:46Z</time>
      </trkpt>
      <trkpt lat="45.81807" lon="1.84367">
        <ele>657.8</ele>
        <time>2022-07-09T17:36:48Z</time>
      </trkpt>
      <trkpt lat="45.81798" lon="1.84367">
        <ele>657.4</ele>
        <time>2022-07-09T17:36:49Z</time>
      </trkpt>
      <trkpt lat="45.81778" lon="1.84381">
        <ele>656.2</ele>
        <time>2022-07-09T17:36:53Z</time>
      </trkpt>
      <trkpt lat="45.81762" lon="1.84389">
        <ele>655</ele>
        <time>2022-07-09T17:36:56Z</time>
      </trkpt>
      <trkpt lat="45.81757" lon="1.84391">
        <ele>654.8</ele>
        <time>2022-07-09T17:36:57Z</time>
      </trkpt>
      <trkpt lat="45.81753" lon="1.84393">
        <ele>654.4</ele>
        <time>2022-07-09T17:36:58Z</time>
      </trkpt>
      <trkpt lat="45.81746" lon="1.84399">
        <ele>653.8</ele>
        <time>2022-07-09T17:37:00Z</time>
      </trkpt>
      <trkpt lat="45.81734" lon="1.84403">
        <ele>652.4</ele>
        <time>2022-07-09T17:37:03Z</time>
      </trkpt>
      <trkpt lat="45.81723" lon="1.84407">
        <ele>651.4</ele>
        <time>2022-07-09T17:37:06Z</time>
      </trkpt>
      <trkpt lat="45.81715" lon="1.84409">
        <ele>650</ele>
        <time>2022-07-09T17:37:08Z</time>
      </trkpt>
      <trkpt lat="45.81704" lon="1.84414">
        <ele>648.8</ele>
        <time>2022-07-09T17:37:10Z</time>
      </trkpt>
      <trkpt lat="45.81689" lon="1.8442">
        <ele>647.6</ele>
        <time>2022-07-09T17:37:13Z</time>
      </trkpt>
      <trkpt lat="45.81684" lon="1.84425">
        <ele>647</ele>
        <time>2022-07-09T17:37:14Z</time>
      </trkpt>
      <trkpt lat="45.81675" lon="1.84432">
        <ele>646.6</ele>
        <time>2022-07-09T17:37:16Z</time>
      </trkpt>
      <trkpt lat="45.81666" lon="1.84436">
        <ele>646.2</ele>
        <time>2022-07-09T17:37:18Z</time>
      </trkpt>
      <trkpt lat="45.81659" lon="1.84437">
        <ele>645.8</ele>
        <time>2022-07-09T17:37:19Z</time>
      </trkpt>
      <trkpt lat="45.81655" lon="1.84439">
        <ele>645.6</ele>
        <time>2022-07-09T17:37:20Z</time>
      </trkpt>
      <trkpt lat="45.81647" lon="1.84443">
        <ele>644.6</ele>
        <time>2022-07-09T17:37:22Z</time>
      </trkpt>
      <trkpt lat="45.81643" lon="1.84445">
        <ele>644.2</ele>
        <time>2022-07-09T17:37:23Z</time>
      </trkpt>
      <trkpt lat="45.81635" lon="1.84457">
        <ele>643.4</ele>
        <time>2022-07-09T17:37:25Z</time>
      </trkpt>
      <trkpt lat="45.81631" lon="1.84463">
        <ele>642.8</ele>
        <time>2022-07-09T17:37:26Z</time>
      </trkpt>
      <trkpt lat="45.81625" lon="1.84475">
        <ele>642</ele>
        <time>2022-07-09T17:37:28Z</time>
      </trkpt>
      <trkpt lat="45.81623" lon="1.84481">
        <ele>641.6</ele>
        <time>2022-07-09T17:37:29Z</time>
      </trkpt>
      <trkpt lat="45.81621" lon="1.84487">
        <ele>641.4</ele>
        <time>2022-07-09T17:37:30Z</time>
      </trkpt>
      <trkpt lat="45.81616" lon="1.84498">
        <ele>641</ele>
        <time>2022-07-09T17:37:33Z</time>
      </trkpt>
      <trkpt lat="45.81615" lon="1.84499">
        <ele>640.8</ele>
        <time>2022-07-09T17:37:34Z</time>
      </trkpt>
      <trkpt lat="45.81608" lon="1.845">
        <ele>640.6</ele>
        <time>2022-07-09T17:37:37Z</time>
      </trkpt>
      <trkpt lat="45.81599" lon="1.845">
        <ele>640.4</ele>
        <time>2022-07-09T17:37:40Z</time>
      </trkpt>
      <trkpt lat="45.8159" lon="1.84508">
        <ele>640.2</ele>
        <time>2022-07-09T17:37:43Z</time>
      </trkpt>
      <trkpt lat="45.81588" lon="1.84511">
        <ele>640.2</ele>
        <time>2022-07-09T17:37:44Z</time>
      </trkpt>
      <trkpt lat="45.81583" lon="1.84526">
        <ele>640.2</ele>
        <time>2022-07-09T17:37:49Z</time>
      </trkpt>
      <trkpt lat="45.81578" lon="1.84537">
        <ele>640.2</ele>
        <time>2022-07-09T17:37:52Z</time>
      </trkpt>
      <trkpt lat="45.81574" lon="1.8454">
        <ele>640.4</ele>
        <time>2022-07-09T17:37:53Z</time>
      </trkpt>
      <trkpt lat="45.81566" lon="1.84535">
        <ele>640.6</ele>
        <time>2022-07-09T17:37:56Z</time>
      </trkpt>
      <trkpt lat="45.81567" lon="1.84525">
        <ele>641.2</ele>
        <time>2022-07-09T17:38:01Z</time>
      </trkpt>
      <trkpt lat="45.81569" lon="1.84523">
        <ele>641.2</ele>
        <time>2022-07-09T17:38:02Z</time>
      </trkpt>
      <trkpt lat="45.81568" lon="1.84521">
        <ele>641.6</ele>
        <time>2022-07-09T17:38:04Z</time>
      </trkpt>
      <trkpt lat="45.81566" lon="1.84517">
        <ele>642.2</ele>
        <time>2022-07-09T17:38:06Z</time>
      </trkpt>
      <trkpt lat="45.81566" lon="1.84516">
        <ele>642.8</ele>
        <time>2022-07-09T17:38:08Z</time>
      </trkpt>
      <trkpt lat="45.81566" lon="1.84516">
        <ele>642.8</ele>
        <time>2022-07-09T17:38:09Z</time>
      </trkpt>
      <trkpt lat="45.81564" lon="1.84511">
        <ele>643.4</ele>
        <time>2022-07-09T17:38:14Z</time>
      </trkpt>
      <trkpt lat="45.81561" lon="1.84509">
        <ele>643.6</ele>
        <time>2022-07-09T17:38:15Z</time>
      </trkpt>
      <trkpt lat="45.8156" lon="1.84507">
        <ele>643.6</ele>
        <time>2022-07-09T17:38:16Z</time>
      </trkpt>
      <trkpt lat="45.81558" lon="1.84505">
        <ele>643.8</ele>
        <time>2022-07-09T17:38:17Z</time>
      </trkpt>
      <trkpt lat="45.81551" lon="1.84493">
        <ele>644.8</ele>
        <time>2022-07-09T17:38:23Z</time>
      </trkpt>
      <trkpt lat="45.8155" lon="1.84493">
        <ele>644.8</ele>
        <time>2022-07-09T17:38:24Z</time>
      </trkpt>
      <trkpt lat="45.81549" lon="1.84493">
        <ele>645.4</ele>
        <time>2022-07-09T17:38:29Z</time>
      </trkpt>
      <trkpt lat="45.81546" lon="1.84493">
        <ele>646</ele>
        <time>2022-07-09T17:38:33Z</time>
      </trkpt>
      <trkpt lat="45.81545" lon="1.84495">
        <ele>646.4</ele>
        <time>2022-07-09T17:38:36Z</time>
      </trkpt>
      <trkpt lat="45.81545" lon="1.84498">
        <ele>646.4</ele>
        <time>2022-07-09T17:38:37Z</time>
      </trkpt>
      <trkpt lat="45.81545" lon="1.84499">
        <ele>646.6</ele>
        <time>2022-07-09T17:38:38Z</time>
      </trkpt>
      <trkpt lat="45.81545" lon="1.845">
        <ele>647.2</ele>
        <time>2022-07-09T17:38:40Z</time>
      </trkpt>
      <trkpt lat="45.81544" lon="1.84502">
        <ele>647.4</ele>
        <time>2022-07-09T17:38:41Z</time>
      </trkpt>
      <trkpt lat="45.81538" lon="1.84511">
        <ele>648.2</ele>
        <time>2022-07-09T17:38:47Z</time>
      </trkpt>
      <trkpt lat="45.81534" lon="1.84519">
        <ele>648.8</ele>
        <time>2022-07-09T17:38:51Z</time>
      </trkpt>
      <trkpt lat="45.81531" lon="1.84522">
        <ele>649</ele>
        <time>2022-07-09T17:38:53Z</time>
      </trkpt>
      <trkpt lat="45.81531" lon="1.84523">
        <ele>649.2</ele>
        <time>2022-07-09T17:38:54Z</time>
      </trkpt>
      <trkpt lat="45.81531" lon="1.84523">
        <ele>649.4</ele>
        <time>2022-07-09T17:38:55Z</time>
      </trkpt>
      <trkpt lat="45.8153" lon="1.84523">
        <ele>649.6</ele>
        <time>2022-07-09T17:38:56Z</time>
      </trkpt>
      <trkpt lat="45.81527" lon="1.84526">
        <ele>650</ele>
        <time>2022-07-09T17:38:58Z</time>
      </trkpt>
      <trkpt lat="45.81526" lon="1.84527">
        <ele>650.2</ele>
        <time>2022-07-09T17:38:59Z</time>
      </trkpt>
      <trkpt lat="45.81525" lon="1.84529">
        <ele>650.2</ele>
        <time>2022-07-09T17:39:00Z</time>
      </trkpt>
      <trkpt lat="45.81524" lon="1.84531">
        <ele>650.4</ele>
        <time>2022-07-09T17:39:01Z</time>
      </trkpt>
      <trkpt lat="45.81522" lon="1.84534">
        <ele>650.8</ele>
        <time>2022-07-09T17:39:03Z</time>
      </trkpt>
      <trkpt lat="45.81522" lon="1.84534">
        <ele>651.2</ele>
        <time>2022-07-09T17:39:06Z</time>
      </trkpt>
      <trkpt lat="45.81521" lon="1.84535">
        <ele>651.6</ele>
        <time>2022-07-09T17:39:09Z</time>
      </trkpt>
      <trkpt lat="45.81521" lon="1.84536">
        <ele>652.2</ele>
        <time>2022-07-09T17:39:12Z</time>
      </trkpt>
      <trkpt lat="45.81519" lon="1.84538">
        <ele>652.8</ele>
        <time>2022-07-09T17:39:16Z</time>
      </trkpt>
      <trkpt lat="45.81519" lon="1.84544">
        <ele>653</ele>
        <time>2022-07-09T17:39:18Z</time>
      </trkpt>
      <trkpt lat="45.81518" lon="1.84546">
        <ele>653.6</ele>
        <time>2022-07-09T17:39:22Z</time>
      </trkpt>
      <trkpt lat="45.81518" lon="1.84546">
        <ele>654</ele>
        <time>2022-07-09T17:39:23Z</time>
      </trkpt>
      <trkpt lat="45.81514" lon="1.84551">
        <ele>654.8</ele>
        <time>2022-07-09T17:39:27Z</time>
      </trkpt>
      <trkpt lat="45.81514" lon="1.84551">
        <ele>655.2</ele>
        <time>2022-07-09T17:39:30Z</time>
      </trkpt>
      <trkpt lat="45.81514" lon="1.84551">
        <ele>655.2</ele>
        <time>2022-07-09T17:39:31Z</time>
      </trkpt>
      <trkpt lat="45.8151" lon="1.84566">
        <ele>656.4</ele>
        <time>2022-07-09T17:39:39Z</time>
      </trkpt>
      <trkpt lat="45.8151" lon="1.84566">
        <ele>656.4</ele>
        <time>2022-07-09T17:39:40Z</time>
      </trkpt>
      <trkpt lat="45.8151" lon="1.8457">
        <ele>657.4</ele>
        <time>2022-07-09T17:39:46Z</time>
      </trkpt>
      <trkpt lat="45.8151" lon="1.8457">
        <ele>657.6</ele>
        <time>2022-07-09T17:39:47Z</time>
      </trkpt>
      <trkpt lat="45.81508" lon="1.84575">
        <ele>658.6</ele>
        <time>2022-07-09T17:39:53Z</time>
      </trkpt>
      <trkpt lat="45.81501" lon="1.84592">
        <ele>661</ele>
        <time>2022-07-09T17:40:08Z</time>
      </trkpt>
      <trkpt lat="45.815" lon="1.84594">
        <ele>661.8</ele>
        <time>2022-07-09T17:40:13Z</time>
      </trkpt>
      <trkpt lat="45.81486" lon="1.84625">
        <ele>666</ele>
        <time>2022-07-09T17:40:42Z</time>
      </trkpt>
      <trkpt lat="45.81486" lon="1.84626">
        <ele>666.4</ele>
        <time>2022-07-09T17:40:45Z</time>
      </trkpt>
      <trkpt lat="45.81485" lon="1.84632">
        <ele>667</ele>
        <time>2022-07-09T17:40:49Z</time>
      </trkpt>
      <trkpt lat="45.81485" lon="1.84632">
        <ele>667.2</ele>
        <time>2022-07-09T17:40:51Z</time>
      </trkpt>
      <trkpt lat="45.8148" lon="1.84637">
        <ele>668</ele>
        <time>2022-07-09T17:40:56Z</time>
      </trkpt>
      <trkpt lat="45.8148" lon="1.84637">
        <ele>668</ele>
        <time>2022-07-09T17:40:57Z</time>
      </trkpt>
      <trkpt lat="45.81474" lon="1.84644">
        <ele>669.4</ele>
        <time>2022-07-09T17:41:03Z</time>
      </trkpt>
      <trkpt lat="45.81472" lon="1.84649">
        <ele>669.6</ele>
        <time>2022-07-09T17:41:04Z</time>
      </trkpt>
      <trkpt lat="45.81471" lon="1.84649">
        <ele>670.2</ele>
        <time>2022-07-09T17:41:07Z</time>
      </trkpt>
      <trkpt lat="45.81467" lon="1.84664">
        <ele>671.6</ele>
        <time>2022-07-09T17:41:14Z</time>
      </trkpt>
      <trkpt lat="45.81465" lon="1.84675">
        <ele>672</ele>
        <time>2022-07-09T17:41:16Z</time>
      </trkpt>
      <trkpt lat="45.81457" lon="1.84706">
        <ele>672.8</ele>
        <time>2022-07-09T17:41:21Z</time>
      </trkpt>
      <trkpt lat="45.81455" lon="1.84712">
        <ele>672.8</ele>
        <time>2022-07-09T17:41:22Z</time>
      </trkpt>
      <trkpt lat="45.81445" lon="1.84735">
        <ele>673.8</ele>
        <time>2022-07-09T17:41:28Z</time>
      </trkpt>
      <trkpt lat="45.81444" lon="1.8474">
        <ele>673.8</ele>
        <time>2022-07-09T17:41:29Z</time>
      </trkpt>
      <trkpt lat="45.81444" lon="1.8475">
        <ele>674.8</ele>
        <time>2022-07-09T17:41:34Z</time>
      </trkpt>
      <trkpt lat="45.81443" lon="1.84752">
        <ele>675</ele>
        <time>2022-07-09T17:41:35Z</time>
      </trkpt>
      <trkpt lat="45.81439" lon="1.8476">
        <ele>675.2</ele>
        <time>2022-07-09T17:41:38Z</time>
      </trkpt>
      <trkpt lat="45.81439" lon="1.84765">
        <ele>675.6</ele>
        <time>2022-07-09T17:41:41Z</time>
      </trkpt>
      <trkpt lat="45.81439" lon="1.84766">
        <ele>675.8</ele>
        <time>2022-07-09T17:41:42Z</time>
      </trkpt>
      <trkpt lat="45.81438" lon="1.84774">
        <ele>676</ele>
        <time>2022-07-09T17:41:45Z</time>
      </trkpt>
      <trkpt lat="45.81437" lon="1.84776">
        <ele>676.4</ele>
        <time>2022-07-09T17:41:46Z</time>
      </trkpt>
      <trkpt lat="45.81434" lon="1.84782">
        <ele>677.2</ele>
        <time>2022-07-09T17:41:49Z</time>
      </trkpt>
      <trkpt lat="45.81432" lon="1.84785">
        <ele>677.6</ele>
        <time>2022-07-09T17:41:52Z</time>
      </trkpt>
      <trkpt lat="45.8143" lon="1.84789">
        <ele>678.2</ele>
        <time>2022-07-09T17:41:55Z</time>
      </trkpt>
      <trkpt lat="45.81426" lon="1.84799">
        <ele>678.8</ele>
        <time>2022-07-09T17:42:00Z</time>
      </trkpt>
      <trkpt lat="45.81425" lon="1.84809">
        <ele>679.4</ele>
        <time>2022-07-09T17:42:03Z</time>
      </trkpt>
      <trkpt lat="45.81424" lon="1.84811">
        <ele>679.8</ele>
        <time>2022-07-09T17:42:06Z</time>
      </trkpt>
      <trkpt lat="45.81424" lon="1.84811">
        <ele>680.4</ele>
        <time>2022-07-09T17:42:09Z</time>
      </trkpt>
      <trkpt lat="45.8142" lon="1.8482">
        <ele>680.8</ele>
        <time>2022-07-09T17:42:13Z</time>
      </trkpt>
      <trkpt lat="45.8142" lon="1.84825">
        <ele>681.2</ele>
        <time>2022-07-09T17:42:16Z</time>
      </trkpt>
      <trkpt lat="45.81416" lon="1.8483">
        <ele>681.4</ele>
        <time>2022-07-09T17:42:18Z</time>
      </trkpt>
      <trkpt lat="45.81414" lon="1.84835">
        <ele>681.6</ele>
        <time>2022-07-09T17:42:20Z</time>
      </trkpt>
      <trkpt lat="45.81404" lon="1.84863">
        <ele>682</ele>
        <time>2022-07-09T17:42:27Z</time>
      </trkpt>
      <trkpt lat="45.81398" lon="1.84874">
        <ele>682</ele>
        <time>2022-07-09T17:42:30Z</time>
      </trkpt>
      <trkpt lat="45.81396" lon="1.8488">
        <ele>682</ele>
        <time>2022-07-09T17:42:31Z</time>
      </trkpt>
      <trkpt lat="45.8138" lon="1.84908">
        <ele>681.8</ele>
        <time>2022-07-09T17:42:39Z</time>
      </trkpt>
      <trkpt lat="45.81379" lon="1.8491">
        <ele>681.8</ele>
        <time>2022-07-09T17:42:40Z</time>
      </trkpt>
      <trkpt lat="45.81371" lon="1.84905">
        <ele>681.8</ele>
        <time>2022-07-09T17:42:44Z</time>
      </trkpt>
      <trkpt lat="45.8136" lon="1.84901">
        <ele>682.2</ele>
        <time>2022-07-09T17:42:49Z</time>
      </trkpt>
      <trkpt lat="45.81353" lon="1.84899">
        <ele>682.4</ele>
        <time>2022-07-09T17:42:52Z</time>
      </trkpt>
      <trkpt lat="45.81344" lon="1.84898">
        <ele>682.4</ele>
        <time>2022-07-09T17:42:56Z</time>
      </trkpt>
      <trkpt lat="45.81342" lon="1.849">
        <ele>682.6</ele>
        <time>2022-07-09T17:43:01Z</time>
      </trkpt>
      <trkpt lat="45.81342" lon="1.849">
        <ele>682.6</ele>
        <time>2022-07-09T17:43:03Z</time>
      </trkpt>
      <trkpt lat="45.81342" lon="1.84907">
        <ele>682.6</ele>
        <time>2022-07-09T17:43:13Z</time>
      </trkpt>
      <trkpt lat="45.81343" lon="1.8491">
        <ele>682.6</ele>
        <time>2022-07-09T17:43:14Z</time>
      </trkpt>
      <trkpt lat="45.81348" lon="1.84931">
        <ele>682.6</ele>
        <time>2022-07-09T17:43:19Z</time>
      </trkpt>
      <trkpt lat="45.81347" lon="1.84935">
        <ele>682.6</ele>
        <time>2022-07-09T17:43:20Z</time>
      </trkpt>
      <trkpt lat="45.81344" lon="1.84942">
        <ele>682.4</ele>
        <time>2022-07-09T17:43:23Z</time>
      </trkpt>
      <trkpt lat="45.81339" lon="1.84943">
        <ele>681.2</ele>
        <time>2022-07-09T17:43:27Z</time>
      </trkpt>
      <trkpt lat="45.81337" lon="1.84946">
        <ele>681</ele>
        <time>2022-07-09T17:43:29Z</time>
      </trkpt>
      <trkpt lat="45.81334" lon="1.84943">
        <ele>680.8</ele>
        <time>2022-07-09T17:43:31Z</time>
      </trkpt>
      <trkpt lat="45.8133" lon="1.84937">
        <ele>680.8</ele>
        <time>2022-07-09T17:43:34Z</time>
      </trkpt>
      <trkpt lat="45.81318" lon="1.84924">
        <ele>681.4</ele>
        <time>2022-07-09T17:43:40Z</time>
      </trkpt>
      <trkpt lat="45.81308" lon="1.84915">
        <ele>682.4</ele>
        <time>2022-07-09T17:43:45Z</time>
      </trkpt>
      <trkpt lat="45.81305" lon="1.84914">
        <ele>682.4</ele>
        <time>2022-07-09T17:43:46Z</time>
      </trkpt>
      <trkpt lat="45.81288" lon="1.84911">
        <ele>683.2</ele>
        <time>2022-07-09T17:43:51Z</time>
      </trkpt>
      <trkpt lat="45.81281" lon="1.84908">
        <ele>683.6</ele>
        <time>2022-07-09T17:43:54Z</time>
      </trkpt>
      <trkpt lat="45.81278" lon="1.84908">
        <ele>683.8</ele>
        <time>2022-07-09T17:43:55Z</time>
      </trkpt>
      <trkpt lat="45.81275" lon="1.84908">
        <ele>684</ele>
        <time>2022-07-09T17:43:57Z</time>
      </trkpt>
      <trkpt lat="45.81265" lon="1.84907">
        <ele>684.6</ele>
        <time>2022-07-09T17:44:02Z</time>
      </trkpt>
      <trkpt lat="45.8126" lon="1.84907">
        <ele>685</ele>
        <time>2022-07-09T17:44:04Z</time>
      </trkpt>
      <trkpt lat="45.81254" lon="1.8491">
        <ele>685.6</ele>
        <time>2022-07-09T17:44:07Z</time>
      </trkpt>
      <trkpt lat="45.81246" lon="1.84912">
        <ele>686.2</ele>
        <time>2022-07-09T17:44:11Z</time>
      </trkpt>
      <trkpt lat="45.81242" lon="1.84913">
        <ele>686.6</ele>
        <time>2022-07-09T17:44:13Z</time>
      </trkpt>
      <trkpt lat="45.81233" lon="1.84918">
        <ele>687.4</ele>
        <time>2022-07-09T17:44:17Z</time>
      </trkpt>
      <trkpt lat="45.81226" lon="1.84926">
        <ele>687.6</ele>
        <time>2022-07-09T17:44:21Z</time>
      </trkpt>
      <trkpt lat="45.81216" lon="1.8493">
        <ele>687.8</ele>
        <time>2022-07-09T17:44:24Z</time>
      </trkpt>
      <trkpt lat="45.81205" lon="1.84944">
        <ele>688.6</ele>
        <time>2022-07-09T17:44:30Z</time>
      </trkpt>
      <trkpt lat="45.81203" lon="1.84944">
        <ele>688.6</ele>
        <time>2022-07-09T17:44:31Z</time>
      </trkpt>
      <trkpt lat="45.81201" lon="1.84946">
        <ele>688.8</ele>
        <time>2022-07-09T17:44:32Z</time>
      </trkpt>
      <trkpt lat="45.81193" lon="1.8495">
        <ele>688.8</ele>
        <time>2022-07-09T17:44:34Z</time>
      </trkpt>
      <trkpt lat="45.81178" lon="1.8496">
        <ele>689</ele>
        <time>2022-07-09T17:44:40Z</time>
      </trkpt>
      <trkpt lat="45.8117" lon="1.84967">
        <ele>689.2</ele>
        <time>2022-07-09T17:44:45Z</time>
      </trkpt>
      <trkpt lat="45.81163" lon="1.84974">
        <ele>689.4</ele>
        <time>2022-07-09T17:44:49Z</time>
      </trkpt>
      <trkpt lat="45.81158" lon="1.84978">
        <ele>689.6</ele>
        <time>2022-07-09T17:44:51Z</time>
      </trkpt>
      <trkpt lat="45.81155" lon="1.84981">
        <ele>690</ele>
        <time>2022-07-09T17:44:52Z</time>
      </trkpt>
      <trkpt lat="45.81152" lon="1.84983">
        <ele>690</ele>
        <time>2022-07-09T17:44:53Z</time>
      </trkpt>
      <trkpt lat="45.81149" lon="1.84988">
        <ele>690.2</ele>
        <time>2022-07-09T17:44:55Z</time>
      </trkpt>
      <trkpt lat="45.81149" lon="1.84991">
        <ele>690.2</ele>
        <time>2022-07-09T17:44:56Z</time>
      </trkpt>
      <trkpt lat="45.81141" lon="1.84997">
        <ele>690</ele>
        <time>2022-07-09T17:44:58Z</time>
      </trkpt>
      <trkpt lat="45.81128" lon="1.85018">
        <ele>690.2</ele>
        <time>2022-07-09T17:45:03Z</time>
      </trkpt>
      <trkpt lat="45.81106" lon="1.85044">
        <ele>690.6</ele>
        <time>2022-07-09T17:45:09Z</time>
      </trkpt>
      <trkpt lat="45.81095" lon="1.85061">
        <ele>690.8</ele>
        <time>2022-07-09T17:45:13Z</time>
      </trkpt>
      <trkpt lat="45.81093" lon="1.85066">
        <ele>690.8</ele>
        <time>2022-07-09T17:45:14Z</time>
      </trkpt>
      <trkpt lat="45.81069" lon="1.85088">
        <ele>691</ele>
        <time>2022-07-09T17:45:19Z</time>
      </trkpt>
      <trkpt lat="45.81066" lon="1.85093">
        <ele>691</ele>
        <time>2022-07-09T17:45:20Z</time>
      </trkpt>
      <trkpt lat="45.8106" lon="1.85111">
        <ele>691.2</ele>
        <time>2022-07-09T17:45:23Z</time>
      </trkpt>
      <trkpt lat="45.81032" lon="1.85137">
        <ele>691.4</ele>
        <time>2022-07-09T17:45:28Z</time>
      </trkpt>
      <trkpt lat="45.81026" lon="1.8514">
        <ele>691.4</ele>
        <time>2022-07-09T17:45:29Z</time>
      </trkpt>
      <trkpt lat="45.81011" lon="1.85152">
        <ele>691.4</ele>
        <time>2022-07-09T17:45:32Z</time>
      </trkpt>
      <trkpt lat="45.81" lon="1.85154">
        <ele>691.4</ele>
        <time>2022-07-09T17:45:35Z</time>
      </trkpt>
      <trkpt lat="45.80991" lon="1.85154">
        <ele>691.4</ele>
        <time>2022-07-09T17:45:37Z</time>
      </trkpt>
      <trkpt lat="45.8098" lon="1.85149">
        <ele>691.4</ele>
        <time>2022-07-09T17:45:40Z</time>
      </trkpt>
      <trkpt lat="45.80973" lon="1.85144">
        <ele>691.8</ele>
        <time>2022-07-09T17:45:42Z</time>
      </trkpt>
      <trkpt lat="45.80971" lon="1.85142">
        <ele>691.8</ele>
        <time>2022-07-09T17:45:43Z</time>
      </trkpt>
      <trkpt lat="45.80956" lon="1.85136">
        <ele>692</ele>
        <time>2022-07-09T17:45:47Z</time>
      </trkpt>
      <trkpt lat="45.80937" lon="1.85131">
        <ele>692.8</ele>
        <time>2022-07-09T17:45:52Z</time>
      </trkpt>
      <trkpt lat="45.80933" lon="1.8513">
        <ele>692.8</ele>
        <time>2022-07-09T17:45:53Z</time>
      </trkpt>
      <trkpt lat="45.80911" lon="1.85125">
        <ele>693.4</ele>
        <time>2022-07-09T17:45:58Z</time>
      </trkpt>
      <trkpt lat="45.80894" lon="1.85119">
        <ele>694</ele>
        <time>2022-07-09T17:46:02Z</time>
      </trkpt>
      <trkpt lat="45.8089" lon="1.85117">
        <ele>694</ele>
        <time>2022-07-09T17:46:03Z</time>
      </trkpt>
      <trkpt lat="45.80862" lon="1.851">
        <ele>694.8</ele>
        <time>2022-07-09T17:46:10Z</time>
      </trkpt>
      <trkpt lat="45.80854" lon="1.8509">
        <ele>695</ele>
        <time>2022-07-09T17:46:12Z</time>
      </trkpt>
      <trkpt lat="45.80844" lon="1.8508">
        <ele>695.4</ele>
        <time>2022-07-09T17:46:15Z</time>
      </trkpt>
      <trkpt lat="45.80826" lon="1.85054">
        <ele>696</ele>
        <time>2022-07-09T17:46:21Z</time>
      </trkpt>
      <trkpt lat="45.80823" lon="1.85048">
        <ele>696</ele>
        <time>2022-07-09T17:46:22Z</time>
      </trkpt>
      <trkpt lat="45.80807" lon="1.85016">
        <ele>697</ele>
        <time>2022-07-09T17:46:29Z</time>
      </trkpt>
      <trkpt lat="45.808" lon="1.85005">
        <ele>697.2</ele>
        <time>2022-07-09T17:46:32Z</time>
      </trkpt>
      <trkpt lat="45.80797" lon="1.85002">
        <ele>697.2</ele>
        <time>2022-07-09T17:46:33Z</time>
      </trkpt>
      <trkpt lat="45.80784" lon="1.84974">
        <ele>697.8</ele>
        <time>2022-07-09T17:46:38Z</time>
      </trkpt>
      <trkpt lat="45.80778" lon="1.8496">
        <ele>698.2</ele>
        <time>2022-07-09T17:46:41Z</time>
      </trkpt>
      <trkpt lat="45.80774" lon="1.84952">
        <ele>698.2</ele>
        <time>2022-07-09T17:46:43Z</time>
      </trkpt>
      <trkpt lat="45.80766" lon="1.84934">
        <ele>698.4</ele>
        <time>2022-07-09T17:46:48Z</time>
      </trkpt>
      <trkpt lat="45.80769" lon="1.84907">
        <ele>698.8</ele>
        <time>2022-07-09T17:46:54Z</time>
      </trkpt>
      <trkpt lat="45.80767" lon="1.84899">
        <ele>699</ele>
        <time>2022-07-09T17:46:56Z</time>
      </trkpt>
      <trkpt lat="45.80766" lon="1.84879">
        <ele>699.4</ele>
        <time>2022-07-09T17:47:00Z</time>
      </trkpt>
      <trkpt lat="45.80766" lon="1.84854">
        <ele>700</ele>
        <time>2022-07-09T17:47:05Z</time>
      </trkpt>
      <trkpt lat="45.80766" lon="1.84849">
        <ele>700.2</ele>
        <time>2022-07-09T17:47:06Z</time>
      </trkpt>
      <trkpt lat="45.80763" lon="1.84811">
        <ele>700.8</ele>
        <time>2022-07-09T17:47:12Z</time>
      </trkpt>
      <trkpt lat="45.80759" lon="1.84788">
        <ele>701.2</ele>
        <time>2022-07-09T17:47:16Z</time>
      </trkpt>
      <trkpt lat="45.80755" lon="1.84772">
        <ele>701.4</ele>
        <time>2022-07-09T17:47:19Z</time>
      </trkpt>
      <trkpt lat="45.80743" lon="1.84735">
        <ele>701.8</ele>
        <time>2022-07-09T17:47:27Z</time>
      </trkpt>
      <trkpt lat="45.80731" lon="1.84697">
        <ele>701.6</ele>
        <time>2022-07-09T17:47:34Z</time>
      </trkpt>
      <trkpt lat="45.80726" lon="1.84682">
        <ele>701.6</ele>
        <time>2022-07-09T17:47:36Z</time>
      </trkpt>
      <trkpt lat="45.80718" lon="1.84655">
        <ele>701.2</ele>
        <time>2022-07-09T17:47:39Z</time>
      </trkpt>
      <trkpt lat="45.80715" lon="1.84623">
        <ele>700.2</ele>
        <time>2022-07-09T17:47:42Z</time>
      </trkpt>
      <trkpt lat="45.80715" lon="1.84611">
        <ele>700</ele>
        <time>2022-07-09T17:47:43Z</time>
      </trkpt>
      <trkpt lat="45.80716" lon="1.84561">
        <ele>698.6</ele>
        <time>2022-07-09T17:47:47Z</time>
      </trkpt>
      <trkpt lat="45.80717" lon="1.84547">
        <ele>698.4</ele>
        <time>2022-07-09T17:47:48Z</time>
      </trkpt>
      <trkpt lat="45.80719" lon="1.8452">
        <ele>697.6</ele>
        <time>2022-07-09T17:47:50Z</time>
      </trkpt>
      <trkpt lat="45.80722" lon="1.84494">
        <ele>696.4</ele>
        <time>2022-07-09T17:47:52Z</time>
      </trkpt>
      <trkpt lat="45.80722" lon="1.84482">
        <ele>696.2</ele>
        <time>2022-07-09T17:47:53Z</time>
      </trkpt>
      <trkpt lat="45.80721" lon="1.84472">
        <ele>695.2</ele>
        <time>2022-07-09T17:47:54Z</time>
      </trkpt>
      <trkpt lat="45.80717" lon="1.84457">
        <ele>694</ele>
        <time>2022-07-09T17:47:56Z</time>
      </trkpt>
      <trkpt lat="45.80712" lon="1.84452">
        <ele>692.6</ele>
        <time>2022-07-09T17:47:58Z</time>
      </trkpt>
      <trkpt lat="45.8071" lon="1.84452">
        <ele>691.8</ele>
        <time>2022-07-09T17:47:59Z</time>
      </trkpt>
      <trkpt lat="45.80709" lon="1.84454">
        <ele>691.4</ele>
        <time>2022-07-09T17:48:00Z</time>
      </trkpt>
      <trkpt lat="45.80709" lon="1.84457">
        <ele>690.2</ele>
        <time>2022-07-09T17:48:01Z</time>
      </trkpt>
      <trkpt lat="45.80707" lon="1.84463">
        <ele>689.4</ele>
        <time>2022-07-09T17:48:03Z</time>
      </trkpt>
      <trkpt lat="45.80705" lon="1.84467">
        <ele>688.4</ele>
        <time>2022-07-09T17:48:05Z</time>
      </trkpt>
      <trkpt lat="45.80704" lon="1.8447">
        <ele>688</ele>
        <time>2022-07-09T17:48:07Z</time>
      </trkpt>
      <trkpt lat="45.80704" lon="1.84473">
        <ele>687</ele>
        <time>2022-07-09T17:48:10Z</time>
      </trkpt>
      <trkpt lat="45.80704" lon="1.84473">
        <ele>686.8</ele>
        <time>2022-07-09T17:48:11Z</time>
      </trkpt>
      <trkpt lat="45.80704" lon="1.84473">
        <ele>686.4</ele>
        <time>2022-07-09T17:48:13Z</time>
      </trkpt>
      <trkpt lat="45.80702" lon="1.84471">
        <ele>685.4</ele>
        <time>2022-07-09T17:48:21Z</time>
      </trkpt>
      <trkpt lat="45.80702" lon="1.8447">
        <ele>685</ele>
        <time>2022-07-09T17:48:24Z</time>
      </trkpt>
      <trkpt lat="45.80699" lon="1.84464">
        <ele>684.8</ele>
        <time>2022-07-09T17:48:26Z</time>
      </trkpt>
      <trkpt lat="45.80689" lon="1.84451">
        <ele>684.6</ele>
        <time>2022-07-09T17:48:29Z</time>
      </trkpt>
      <trkpt lat="45.80685" lon="1.84446">
        <ele>684.6</ele>
        <time>2022-07-09T17:48:30Z</time>
      </trkpt>
      <trkpt lat="45.80674" lon="1.84433">
        <ele>684</ele>
        <time>2022-07-09T17:48:33Z</time>
      </trkpt>
      <trkpt lat="45.80667" lon="1.84427">
        <ele>683.8</ele>
        <time>2022-07-09T17:48:35Z</time>
      </trkpt>
      <trkpt lat="45.80659" lon="1.84428">
        <ele>683</ele>
        <time>2022-07-09T17:48:38Z</time>
      </trkpt>
      <trkpt lat="45.80656" lon="1.8443">
        <ele>683</ele>
        <time>2022-07-09T17:48:39Z</time>
      </trkpt>
      <trkpt lat="45.80651" lon="1.84435">
        <ele>682.2</ele>
        <time>2022-07-09T17:48:43Z</time>
      </trkpt>
      <trkpt lat="45.80649" lon="1.84436">
        <ele>682</ele>
        <time>2022-07-09T17:48:44Z</time>
      </trkpt>
      <trkpt lat="45.80646" lon="1.84437">
        <ele>681.8</ele>
        <time>2022-07-09T17:48:45Z</time>
      </trkpt>
      <trkpt lat="45.8064" lon="1.84437">
        <ele>680.8</ele>
        <time>2022-07-09T17:48:47Z</time>
      </trkpt>
      <trkpt lat="45.80638" lon="1.84436">
        <ele>680.4</ele>
        <time>2022-07-09T17:48:48Z</time>
      </trkpt>
      <trkpt lat="45.80636" lon="1.84436">
        <ele>679.2</ele>
        <time>2022-07-09T17:48:51Z</time>
      </trkpt>
      <trkpt lat="45.80634" lon="1.84437">
        <ele>678.4</ele>
        <time>2022-07-09T17:49:08Z</time>
      </trkpt>
      <trkpt lat="45.80629" lon="1.84435">
        <ele>678.4</ele>
        <time>2022-07-09T17:49:11Z</time>
      </trkpt>
      <trkpt lat="45.80625" lon="1.84443">
        <ele>678.4</ele>
        <time>2022-07-09T17:49:14Z</time>
      </trkpt>
      <trkpt lat="45.80623" lon="1.84463">
        <ele>678</ele>
        <time>2022-07-09T17:49:18Z</time>
      </trkpt>
      <trkpt lat="45.80622" lon="1.84468">
        <ele>678</ele>
        <time>2022-07-09T17:49:19Z</time>
      </trkpt>
      <trkpt lat="45.80619" lon="1.84477">
        <ele>676.8</ele>
        <time>2022-07-09T17:49:22Z</time>
      </trkpt>
      <trkpt lat="45.80619" lon="1.84477">
        <ele>676.2</ele>
        <time>2022-07-09T17:49:23Z</time>
      </trkpt>
      <trkpt lat="45.80619" lon="1.84477">
        <ele>675.6</ele>
        <time>2022-07-09T17:49:24Z</time>
      </trkpt>
      <trkpt lat="45.80618" lon="1.84478">
        <ele>675</ele>
        <time>2022-07-09T17:49:26Z</time>
      </trkpt>
      <trkpt lat="45.80618" lon="1.84479">
        <ele>674.8</ele>
        <time>2022-07-09T17:49:28Z</time>
      </trkpt>
      <trkpt lat="45.80616" lon="1.8448">
        <ele>674.6</ele>
        <time>2022-07-09T17:49:30Z</time>
      </trkpt>
      <trkpt lat="45.80616" lon="1.8448">
        <ele>674.6</ele>
        <time>2022-07-09T17:49:31Z</time>
      </trkpt>
      <trkpt lat="45.80615" lon="1.84483">
        <ele>674.6</ele>
        <time>2022-07-09T17:49:36Z</time>
      </trkpt>
      <trkpt lat="45.80615" lon="1.84483">
        <ele>674.4</ele>
        <time>2022-07-09T17:49:38Z</time>
      </trkpt>
    </trkseg>
  </trk>
</gpx>